<?xml version='1.0' encoding='UTF-8'?><gpx version="1.1" creator="JPX - https://github.com/jenetics/jpx" xmlns="http://www.topografix.com/GPX/1/1"><trk><trkseg><trkpt lat="44.6740659" lon="11.0114688"><ele>24.0</ele><time>2026-03-28T13:26:40.533Z</time></trkpt><trkpt lat="44.6740989" lon="11.0113656"><ele>24.0</ele><time>2026-03-28T13:26:41.523Z</time></trkpt><trkpt lat="44.674125" lon="11.0112778"><ele>24.0</ele><time>2026-03-28T13:26:43.53Z</time></trkpt><trkpt lat="44.6741141" lon="11.0111789"><ele>24.0</ele><time>2026-03-28T13:26:58.533Z</time></trkpt><trkpt lat="44.6741756" lon="11.0111377"><ele>24.0</ele><time>2026-03-28T13:27:01.47Z</time></trkpt><trkpt lat="44.6740729" lon="11.0110223"><ele>24.0</ele><time>2026-03-28T13:27:03.473Z</time></trkpt><trkpt lat="44.6739756" lon="11.0109703"><ele>24.0</ele><time>2026-03-28T13:27:04.474Z</time></trkpt><trkpt lat="44.6738757" lon="11.0109171"><ele>24.0</ele><time>2026-03-28T13:27:05.475Z</time></trkpt><trkpt lat="44.6737715" lon="11.0108579"><ele>24.0</ele><time>2026-03-28T13:27:06.468Z</time></trkpt><trkpt lat="44.6736567" lon="11.0108208"><ele>24.0</ele><time>2026-03-28T13:27:07.476Z</time></trkpt><trkpt lat="44.673538" lon="11.0108519"><ele>24.0</ele><time>2026-03-28T13:27:08.486Z</time></trkpt><trkpt lat="44.6734276" lon="11.0109138"><ele>24.0</ele><time>2026-03-28T13:27:09.474Z</time></trkpt><trkpt lat="44.673344" lon="11.0109474"><ele>24.0</ele><time>2026-03-28T13:27:10.476Z</time></trkpt><trkpt lat="44.6732424" lon="11.0108468"><ele>24.0</ele><time>2026-03-28T13:27:12.476Z</time></trkpt><trkpt lat="44.6732196" lon="11.0107407"><ele>24.0</ele><time>2026-03-28T13:27:13.466Z</time></trkpt><trkpt lat="44.6732194" lon="11.0106003"><ele>24.25</ele><time>2026-03-28T13:27:14.47Z</time></trkpt><trkpt lat="44.6732499" lon="11.0104343"><ele>24.5</ele><time>2026-03-28T13:27:15.461Z</time></trkpt><trkpt lat="44.6732972" lon="11.0102805"><ele>24.75</ele><time>2026-03-28T13:27:16.469Z</time></trkpt><trkpt lat="44.6733546" lon="11.0101463"><ele>25.0</ele><time>2026-03-28T13:27:17.469Z</time></trkpt><trkpt lat="44.6733923" lon="11.0100025"><ele>25.2</ele><time>2026-03-28T13:27:18.486Z</time></trkpt><trkpt lat="44.6733866" lon="11.009847"><ele>25.4</ele><time>2026-03-28T13:27:19.486Z</time></trkpt><trkpt lat="44.6733325" lon="11.009718"><ele>25.6</ele><time>2026-03-28T13:27:20.486Z</time></trkpt><trkpt lat="44.6732413" lon="11.0096334"><ele>25.8</ele><time>2026-03-28T13:27:21.485Z</time></trkpt><trkpt lat="44.6731246" lon="11.0095844"><ele>26.0</ele><time>2026-03-28T13:27:22.48Z</time></trkpt><trkpt lat="44.6730185" lon="11.0095343"><ele>26.0</ele><time>2026-03-28T13:27:23.49Z</time></trkpt><trkpt lat="44.6729427" lon="11.0094667"><ele>26.0</ele><time>2026-03-28T13:27:24.481Z</time></trkpt><trkpt lat="44.6728782" lon="11.0093755"><ele>26.0</ele><time>2026-03-28T13:27:25.483Z</time></trkpt><trkpt lat="44.6728277" lon="11.0092608"><ele>26.0</ele><time>2026-03-28T13:27:26.484Z</time></trkpt><trkpt lat="44.672787" lon="11.0091238"><ele>26.0</ele><time>2026-03-28T13:27:27.48Z</time></trkpt><trkpt lat="44.6727527" lon="11.0089811"><ele>25.8</ele><time>2026-03-28T13:27:28.487Z</time></trkpt><trkpt lat="44.6727232" lon="11.0088379"><ele>25.6</ele><time>2026-03-28T13:27:29.485Z</time></trkpt><trkpt lat="44.6726933" lon="11.0086879"><ele>25.4</ele><time>2026-03-28T13:27:30.498Z</time></trkpt><trkpt lat="44.6726595" lon="11.008537"><ele>25.2</ele><time>2026-03-28T13:27:31.49Z</time></trkpt><trkpt lat="44.672629" lon="11.0083838"><ele>25.0</ele><time>2026-03-28T13:27:32.498Z</time></trkpt><trkpt lat="44.672591" lon="11.0082324"><ele>25.0</ele><time>2026-03-28T13:27:33.502Z</time></trkpt><trkpt lat="44.6725469" lon="11.0080712"><ele>25.0</ele><time>2026-03-28T13:27:34.493Z</time></trkpt><trkpt lat="44.6725025" lon="11.007906"><ele>25.0</ele><time>2026-03-28T13:27:35.492Z</time></trkpt><trkpt lat="44.6724623" lon="11.0077323"><ele>25.0</ele><time>2026-03-28T13:27:36.494Z</time></trkpt><trkpt lat="44.6724166" lon="11.0075527"><ele>25.5</ele><time>2026-03-28T13:27:37.493Z</time></trkpt><trkpt lat="44.672374" lon="11.0073678"><ele>26.0</ele><time>2026-03-28T13:27:38.489Z</time></trkpt><trkpt lat="44.6723348" lon="11.007195"><ele>26.5</ele><time>2026-03-28T13:27:39.499Z</time></trkpt><trkpt lat="44.6722861" lon="11.0070042"><ele>27.0</ele><time>2026-03-28T13:27:40.493Z</time></trkpt><trkpt lat="44.6722339" lon="11.0068274"><ele>26.5</ele><time>2026-03-28T13:27:41.484Z</time></trkpt><trkpt lat="44.6721945" lon="11.0066527"><ele>26.0</ele><time>2026-03-28T13:27:42.495Z</time></trkpt><trkpt lat="44.6721623" lon="11.0064671"><ele>25.5</ele><time>2026-03-28T13:27:43.484Z</time></trkpt><trkpt lat="44.6721192" lon="11.0062818"><ele>25.0</ele><time>2026-03-28T13:27:44.486Z</time></trkpt><trkpt lat="44.672067" lon="11.0060858"><ele>25.0</ele><time>2026-03-28T13:27:45.489Z</time></trkpt><trkpt lat="44.6720165" lon="11.0058951"><ele>25.0</ele><time>2026-03-28T13:27:46.489Z</time></trkpt><trkpt lat="44.6719702" lon="11.0057088"><ele>25.0</ele><time>2026-03-28T13:27:47.484Z</time></trkpt><trkpt lat="44.6719304" lon="11.005526"><ele>25.0</ele><time>2026-03-28T13:27:48.485Z</time></trkpt><trkpt lat="44.6718888" lon="11.0053386"><ele>25.25</ele><time>2026-03-28T13:27:49.5Z</time></trkpt><trkpt lat="44.6718392" lon="11.0051506"><ele>25.5</ele><time>2026-03-28T13:27:50.486Z</time></trkpt><trkpt lat="44.6717898" lon="11.0049612"><ele>25.75</ele><time>2026-03-28T13:27:51.487Z</time></trkpt><trkpt lat="44.6717413" lon="11.0047593"><ele>26.0</ele><time>2026-03-28T13:27:52.49Z</time></trkpt><trkpt lat="44.6716845" lon="11.00456"><ele>26.0</ele><time>2026-03-28T13:27:53.489Z</time></trkpt><trkpt lat="44.6716446" lon="11.0043744"><ele>26.0</ele><time>2026-03-28T13:27:54.489Z</time></trkpt><trkpt lat="44.6715631" lon="11.004022"><ele>26.0</ele><time>2026-03-28T13:27:56.486Z</time></trkpt><trkpt lat="44.671522" lon="11.0038413"><ele>26.0</ele><time>2026-03-28T13:27:57.491Z</time></trkpt><trkpt lat="44.6714757" lon="11.0036506"><ele>26.0</ele><time>2026-03-28T13:27:58.485Z</time></trkpt><trkpt lat="44.6714265" lon="11.0034618"><ele>26.0</ele><time>2026-03-28T13:27:59.496Z</time></trkpt><trkpt lat="44.6713826" lon="11.0032676"><ele>26.0</ele><time>2026-03-28T13:28:00.498Z</time></trkpt><trkpt lat="44.6713339" lon="11.0030763"><ele>26.25</ele><time>2026-03-28T13:28:01.489Z</time></trkpt><trkpt lat="44.6712832" lon="11.0028855"><ele>26.5</ele><time>2026-03-28T13:28:02.489Z</time></trkpt><trkpt lat="44.6712347" lon="11.0027013"><ele>26.75</ele><time>2026-03-28T13:28:03.498Z</time></trkpt><trkpt lat="44.6711983" lon="11.0025231"><ele>27.0</ele><time>2026-03-28T13:28:04.497Z</time></trkpt><trkpt lat="44.6711491" lon="11.0023302"><ele>26.666666666666664</ele><time>2026-03-28T13:28:05.497Z</time></trkpt><trkpt lat="44.6710952" lon="11.0021206"><ele>26.333333333333332</ele><time>2026-03-28T13:28:06.49Z</time></trkpt><trkpt lat="44.6710192" lon="11.0018892"><ele>26.0</ele><time>2026-03-28T13:28:07.494Z</time></trkpt><trkpt lat="44.6709323" lon="11.0016246"><ele>26.0</ele><time>2026-03-28T13:28:08.495Z</time></trkpt><trkpt lat="44.6708424" lon="11.0013327"><ele>26.0</ele><time>2026-03-28T13:28:09.488Z</time></trkpt><trkpt lat="44.6707628" lon="11.0010459"><ele>26.0</ele><time>2026-03-28T13:28:10.498Z</time></trkpt><trkpt lat="44.6706972" lon="11.0007579"><ele>26.0</ele><time>2026-03-28T13:28:11.493Z</time></trkpt><trkpt lat="44.6706302" lon="11.000473"><ele>26.0</ele><time>2026-03-28T13:28:12.494Z</time></trkpt><trkpt lat="44.6705608" lon="11.0001915"><ele>26.0</ele><time>2026-03-28T13:28:13.491Z</time></trkpt><trkpt lat="44.6704892" lon="10.9999255"><ele>26.0</ele><time>2026-03-28T13:28:14.493Z</time></trkpt><trkpt lat="44.670403" lon="10.9996654"><ele>26.0</ele><time>2026-03-28T13:28:15.49Z</time></trkpt><trkpt lat="44.6703053" lon="10.9994227"><ele>26.0</ele><time>2026-03-28T13:28:16.497Z</time></trkpt><trkpt lat="44.6701925" lon="10.9991922"><ele>26.666666666666664</ele><time>2026-03-28T13:28:17.491Z</time></trkpt><trkpt lat="44.6700519" lon="10.9989774"><ele>27.333333333333336</ele><time>2026-03-28T13:28:18.488Z</time></trkpt><trkpt lat="44.6699033" lon="10.9987719"><ele>28.0</ele><time>2026-03-28T13:28:19.497Z</time></trkpt><trkpt lat="44.6697419" lon="10.998557"><ele>27.5</ele><time>2026-03-28T13:28:20.5Z</time></trkpt><trkpt lat="44.6695717" lon="10.9983283"><ele>27.0</ele><time>2026-03-28T13:28:21.494Z</time></trkpt><trkpt lat="44.6694139" lon="10.9980858"><ele>27.0</ele><time>2026-03-28T13:28:22.497Z</time></trkpt><trkpt lat="44.6692461" lon="10.9978368"><ele>27.0</ele><time>2026-03-28T13:28:23.497Z</time></trkpt><trkpt lat="44.6690814" lon="10.9975903"><ele>27.5</ele><time>2026-03-28T13:28:24.494Z</time></trkpt><trkpt lat="44.6689052" lon="10.9973424"><ele>28.0</ele><time>2026-03-28T13:28:25.497Z</time></trkpt><trkpt lat="44.6687313" lon="10.9970937"><ele>26.0</ele><time>2026-03-28T13:28:26.501Z</time></trkpt><trkpt lat="44.6685537" lon="10.9968477"><ele>24.0</ele><time>2026-03-28T13:28:27.497Z</time></trkpt><trkpt lat="44.6683788" lon="10.9966033"><ele>24.0</ele><time>2026-03-28T13:28:28.497Z</time></trkpt><trkpt lat="44.6682009" lon="10.9963647"><ele>24.0</ele><time>2026-03-28T13:28:29.496Z</time></trkpt><trkpt lat="44.6680282" lon="10.9961179"><ele>24.0</ele><time>2026-03-28T13:28:30.508Z</time></trkpt><trkpt lat="44.6678545" lon="10.9958762"><ele>24.0</ele><time>2026-03-28T13:28:31.491Z</time></trkpt><trkpt lat="44.6676771" lon="10.9956218"><ele>24.0</ele><time>2026-03-28T13:28:32.502Z</time></trkpt><trkpt lat="44.6674992" lon="10.9953717"><ele>24.0</ele><time>2026-03-28T13:28:33.496Z</time></trkpt><trkpt lat="44.6673179" lon="10.9951203"><ele>24.5</ele><time>2026-03-28T13:28:34.495Z</time></trkpt><trkpt lat="44.6671403" lon="10.9948661"><ele>25.0</ele><time>2026-03-28T13:28:35.492Z</time></trkpt><trkpt lat="44.6669785" lon="10.9946171"><ele>25.5</ele><time>2026-03-28T13:28:36.491Z</time></trkpt><trkpt lat="44.6668177" lon="10.9943715"><ele>26.0</ele><time>2026-03-28T13:28:37.485Z</time></trkpt><trkpt lat="44.6666755" lon="10.9941219"><ele>26.0</ele><time>2026-03-28T13:28:38.489Z</time></trkpt><trkpt lat="44.6665492" lon="10.9938673"><ele>26.0</ele><time>2026-03-28T13:28:39.49Z</time></trkpt><trkpt lat="44.6664358" lon="10.9936147"><ele>26.0</ele><time>2026-03-28T13:28:40.492Z</time></trkpt><trkpt lat="44.6663439" lon="10.9933688"><ele>26.666666666666664</ele><time>2026-03-28T13:28:41.495Z</time></trkpt><trkpt lat="44.6662743" lon="10.9931189"><ele>27.333333333333336</ele><time>2026-03-28T13:28:42.491Z</time></trkpt><trkpt lat="44.6662175" lon="10.9928705"><ele>28.0</ele><time>2026-03-28T13:28:43.492Z</time></trkpt><trkpt lat="44.6661658" lon="10.9926073"><ele>28.0</ele><time>2026-03-28T13:28:44.495Z</time></trkpt><trkpt lat="44.6661272" lon="10.99234"><ele>28.0</ele><time>2026-03-28T13:28:45.497Z</time></trkpt><trkpt lat="44.6660965" lon="10.9920854"><ele>28.0</ele><time>2026-03-28T13:28:46.492Z</time></trkpt><trkpt lat="44.6660841" lon="10.9918429"><ele>29.0</ele><time>2026-03-28T13:28:47.517Z</time></trkpt><trkpt lat="44.6660849" lon="10.9916034"><ele>30.0</ele><time>2026-03-28T13:28:48.508Z</time></trkpt><trkpt lat="44.6660914" lon="10.9913694"><ele>31.0</ele><time>2026-03-28T13:28:49.497Z</time></trkpt><trkpt lat="44.6661053" lon="10.9911307"><ele>29.666666666666668</ele><time>2026-03-28T13:28:50.497Z</time></trkpt><trkpt lat="44.6661304" lon="10.9908852"><ele>28.333333333333336</ele><time>2026-03-28T13:28:51.493Z</time></trkpt><trkpt lat="44.66616" lon="10.9906263"><ele>27.0</ele><time>2026-03-28T13:28:52.498Z</time></trkpt><trkpt lat="44.6661935" lon="10.9903572"><ele>27.0</ele><time>2026-03-28T13:28:53.5Z</time></trkpt><trkpt lat="44.6662225" lon="10.990087"><ele>27.0</ele><time>2026-03-28T13:28:54.493Z</time></trkpt><trkpt lat="44.6662546" lon="10.98981"><ele>27.0</ele><time>2026-03-28T13:28:55.505Z</time></trkpt><trkpt lat="44.6662761" lon="10.9895315"><ele>27.0</ele><time>2026-03-28T13:28:56.495Z</time></trkpt><trkpt lat="44.6662957" lon="10.9892492"><ele>27.0</ele><time>2026-03-28T13:28:57.49Z</time></trkpt><trkpt lat="44.6663122" lon="10.9889725"><ele>27.0</ele><time>2026-03-28T13:28:58.493Z</time></trkpt><trkpt lat="44.6663391" lon="10.9886875"><ele>27.333333333333336</ele><time>2026-03-28T13:28:59.499Z</time></trkpt><trkpt lat="44.6663554" lon="10.9884047"><ele>27.666666666666668</ele><time>2026-03-28T13:29:00.5Z</time></trkpt><trkpt lat="44.6663699" lon="10.9881199"><ele>28.0</ele><time>2026-03-28T13:29:01.499Z</time></trkpt><trkpt lat="44.6663729" lon="10.9878447"><ele>28.0</ele><time>2026-03-28T13:29:02.498Z</time></trkpt><trkpt lat="44.6663701" lon="10.9875742"><ele>28.0</ele><time>2026-03-28T13:29:03.499Z</time></trkpt><trkpt lat="44.6663631" lon="10.9873068"><ele>28.0</ele><time>2026-03-28T13:29:04.495Z</time></trkpt><trkpt lat="44.6663539" lon="10.9870334"><ele>27.666666666666668</ele><time>2026-03-28T13:29:05.499Z</time></trkpt><trkpt lat="44.6663224" lon="10.9867661"><ele>27.333333333333336</ele><time>2026-03-28T13:29:06.497Z</time></trkpt><trkpt lat="44.6662822" lon="10.9864973"><ele>27.0</ele><time>2026-03-28T13:29:07.491Z</time></trkpt><trkpt lat="44.6662311" lon="10.9862357"><ele>27.0</ele><time>2026-03-28T13:29:08.501Z</time></trkpt><trkpt lat="44.6661732" lon="10.9859632"><ele>27.0</ele><time>2026-03-28T13:29:09.494Z</time></trkpt><trkpt lat="44.6661172" lon="10.9856964"><ele>27.0</ele><time>2026-03-28T13:29:10.486Z</time></trkpt><trkpt lat="44.6660529" lon="10.9854274"><ele>26.666666666666664</ele><time>2026-03-28T13:29:11.494Z</time></trkpt><trkpt lat="44.6659813" lon="10.9851745"><ele>26.333333333333332</ele><time>2026-03-28T13:29:12.499Z</time></trkpt><trkpt lat="44.6659072" lon="10.9849326"><ele>26.0</ele><time>2026-03-28T13:29:13.487Z</time></trkpt><trkpt lat="44.6658445" lon="10.9847066"><ele>26.333333333333332</ele><time>2026-03-28T13:29:14.494Z</time></trkpt><trkpt lat="44.6657874" lon="10.9845011"><ele>26.666666666666664</ele><time>2026-03-28T13:29:15.491Z</time></trkpt><trkpt lat="44.6657237" lon="10.9842833"><ele>27.0</ele><time>2026-03-28T13:29:16.495Z</time></trkpt><trkpt lat="44.6656718" lon="10.9840827"><ele>27.0</ele><time>2026-03-28T13:29:17.497Z</time></trkpt><trkpt lat="44.6656149" lon="10.9838687"><ele>27.0</ele><time>2026-03-28T13:29:18.488Z</time></trkpt><trkpt lat="44.6655615" lon="10.9836567"><ele>27.0</ele><time>2026-03-28T13:29:19.488Z</time></trkpt><trkpt lat="44.6654944" lon="10.9834511"><ele>27.333333333333336</ele><time>2026-03-28T13:29:20.493Z</time></trkpt><trkpt lat="44.6654363" lon="10.983217"><ele>27.666666666666668</ele><time>2026-03-28T13:29:21.489Z</time></trkpt><trkpt lat="44.6653699" lon="10.9829525"><ele>28.0</ele><time>2026-03-28T13:29:22.486Z</time></trkpt><trkpt lat="44.6653038" lon="10.9826466"><ele>26.5</ele><time>2026-03-28T13:29:23.485Z</time></trkpt><trkpt lat="44.6652233" lon="10.9823305"><ele>25.0</ele><time>2026-03-28T13:29:24.487Z</time></trkpt><trkpt lat="44.6651243" lon="10.9819958"><ele>26.0</ele><time>2026-03-28T13:29:25.485Z</time></trkpt><trkpt lat="44.6650344" lon="10.9816564"><ele>27.0</ele><time>2026-03-28T13:29:26.497Z</time></trkpt><trkpt lat="44.6649438" lon="10.9813194"><ele>27.0</ele><time>2026-03-28T13:29:27.488Z</time></trkpt><trkpt lat="44.6648633" lon="10.9809914"><ele>27.0</ele><time>2026-03-28T13:29:28.488Z</time></trkpt><trkpt lat="44.6647636" lon="10.9806494"><ele>28.0</ele><time>2026-03-28T13:29:29.492Z</time></trkpt><trkpt lat="44.6646661" lon="10.9803113"><ele>29.0</ele><time>2026-03-28T13:29:30.496Z</time></trkpt><trkpt lat="44.6645585" lon="10.9799669"><ele>29.0</ele><time>2026-03-28T13:29:31.485Z</time></trkpt><trkpt lat="44.6644592" lon="10.9796406"><ele>29.0</ele><time>2026-03-28T13:29:32.491Z</time></trkpt><trkpt lat="44.6643716" lon="10.9793253"><ele>28.5</ele><time>2026-03-28T13:29:33.493Z</time></trkpt><trkpt lat="44.6642889" lon="10.9790177"><ele>28.0</ele><time>2026-03-28T13:29:34.49Z</time></trkpt><trkpt lat="44.6642108" lon="10.9787053"><ele>28.0</ele><time>2026-03-28T13:29:35.495Z</time></trkpt><trkpt lat="44.6641434" lon="10.9784044"><ele>28.0</ele><time>2026-03-28T13:29:36.494Z</time></trkpt><trkpt lat="44.6640661" lon="10.9781005"><ele>28.0</ele><time>2026-03-28T13:29:37.485Z</time></trkpt><trkpt lat="44.6640037" lon="10.9778132"><ele>28.0</ele><time>2026-03-28T13:29:38.483Z</time></trkpt><trkpt lat="44.6639574" lon="10.9775607"><ele>28.0</ele><time>2026-03-28T13:29:39.486Z</time></trkpt><trkpt lat="44.6639193" lon="10.9773411"><ele>28.333333333333336</ele><time>2026-03-28T13:29:40.493Z</time></trkpt><trkpt lat="44.6638796" lon="10.9771528"><ele>28.666666666666664</ele><time>2026-03-28T13:29:41.489Z</time></trkpt><trkpt lat="44.6637938" lon="10.9769956"><ele>29.0</ele><time>2026-03-28T13:29:42.499Z</time></trkpt><trkpt lat="44.6636755" lon="10.9768225"><ele>29.0</ele><time>2026-03-28T13:29:43.508Z</time></trkpt><trkpt lat="44.6635876" lon="10.9766171"><ele>29.0</ele><time>2026-03-28T13:29:44.491Z</time></trkpt><trkpt lat="44.6635379" lon="10.9763852"><ele>29.0</ele><time>2026-03-28T13:29:45.486Z</time></trkpt><trkpt lat="44.6634783" lon="10.9761789"><ele>29.0</ele><time>2026-03-28T13:29:46.5Z</time></trkpt><trkpt lat="44.6634179" lon="10.9759857"><ele>29.0</ele><time>2026-03-28T13:29:47.496Z</time></trkpt><trkpt lat="44.6633628" lon="10.9758129"><ele>29.0</ele><time>2026-03-28T13:29:48.5Z</time></trkpt><trkpt lat="44.663304" lon="10.9756284"><ele>29.0</ele><time>2026-03-28T13:29:49.495Z</time></trkpt><trkpt lat="44.6632299" lon="10.9754033"><ele>28.333333333333332</ele><time>2026-03-28T13:29:50.484Z</time></trkpt><trkpt lat="44.6631573" lon="10.9751406"><ele>27.666666666666664</ele><time>2026-03-28T13:29:51.493Z</time></trkpt><trkpt lat="44.6630664" lon="10.9748342"><ele>27.0</ele><time>2026-03-28T13:29:52.488Z</time></trkpt><trkpt lat="44.6629751" lon="10.9745189"><ele>27.0</ele><time>2026-03-28T13:29:53.496Z</time></trkpt><trkpt lat="44.66289" lon="10.9742069"><ele>27.0</ele><time>2026-03-28T13:29:54.492Z</time></trkpt><trkpt lat="44.6627994" lon="10.9738799"><ele>26.5</ele><time>2026-03-28T13:29:55.493Z</time></trkpt><trkpt lat="44.6627121" lon="10.9735404"><ele>26.0</ele><time>2026-03-28T13:29:56.499Z</time></trkpt><trkpt lat="44.6626217" lon="10.9732204"><ele>26.0</ele><time>2026-03-28T13:29:57.492Z</time></trkpt><trkpt lat="44.6625285" lon="10.9729097"><ele>26.0</ele><time>2026-03-28T13:29:58.497Z</time></trkpt><trkpt lat="44.6624371" lon="10.9725912"><ele>26.666666666666664</ele><time>2026-03-28T13:29:59.492Z</time></trkpt><trkpt lat="44.6623543" lon="10.9722923"><ele>27.333333333333336</ele><time>2026-03-28T13:30:00.496Z</time></trkpt><trkpt lat="44.6622777" lon="10.9720153"><ele>28.0</ele><time>2026-03-28T13:30:01.496Z</time></trkpt><trkpt lat="44.6622056" lon="10.9717386"><ele>27.0</ele><time>2026-03-28T13:30:02.495Z</time></trkpt><trkpt lat="44.6621228" lon="10.9714596"><ele>26.0</ele><time>2026-03-28T13:30:03.503Z</time></trkpt><trkpt lat="44.6620456" lon="10.9711856"><ele>25.0</ele><time>2026-03-28T13:30:04.491Z</time></trkpt><trkpt lat="44.6619703" lon="10.970931"><ele>26.0</ele><time>2026-03-28T13:30:05.495Z</time></trkpt><trkpt lat="44.6618981" lon="10.9706779"><ele>27.0</ele><time>2026-03-28T13:30:06.488Z</time></trkpt><trkpt lat="44.6618219" lon="10.9704254"><ele>28.0</ele><time>2026-03-28T13:30:07.486Z</time></trkpt><trkpt lat="44.6617383" lon="10.9701825"><ele>28.0</ele><time>2026-03-28T13:30:08.482Z</time></trkpt><trkpt lat="44.6616686" lon="10.9699344"><ele>28.0</ele><time>2026-03-28T13:30:09.486Z</time></trkpt><trkpt lat="44.6615998" lon="10.969676"><ele>28.0</ele><time>2026-03-28T13:30:10.487Z</time></trkpt><trkpt lat="44.6615304" lon="10.9694313"><ele>27.666666666666668</ele><time>2026-03-28T13:30:11.515Z</time></trkpt><trkpt lat="44.6614668" lon="10.9691879"><ele>27.333333333333336</ele><time>2026-03-28T13:30:12.493Z</time></trkpt><trkpt lat="44.6614027" lon="10.9689659"><ele>27.0</ele><time>2026-03-28T13:30:13.497Z</time></trkpt><trkpt lat="44.6613318" lon="10.9687285"><ele>27.0</ele><time>2026-03-28T13:30:14.493Z</time></trkpt><trkpt lat="44.6612578" lon="10.96849"><ele>27.0</ele><time>2026-03-28T13:30:15.489Z</time></trkpt><trkpt lat="44.6611803" lon="10.9682474"><ele>27.0</ele><time>2026-03-28T13:30:16.485Z</time></trkpt><trkpt lat="44.6611108" lon="10.9680112"><ele>27.0</ele><time>2026-03-28T13:30:17.493Z</time></trkpt><trkpt lat="44.6610435" lon="10.9677651"><ele>27.0</ele><time>2026-03-28T13:30:18.496Z</time></trkpt><trkpt lat="44.6609804" lon="10.9675171"><ele>27.0</ele><time>2026-03-28T13:30:19.494Z</time></trkpt><trkpt lat="44.6609099" lon="10.967285"><ele>27.0</ele><time>2026-03-28T13:30:20.495Z</time></trkpt><trkpt lat="44.6608447" lon="10.9670404"><ele>27.0</ele><time>2026-03-28T13:30:21.486Z</time></trkpt><trkpt lat="44.660764" lon="10.9667737"><ele>27.0</ele><time>2026-03-28T13:30:22.484Z</time></trkpt><trkpt lat="44.6606733" lon="10.9664929"><ele>27.666666666666664</ele><time>2026-03-28T13:30:23.5Z</time></trkpt><trkpt lat="44.6605882" lon="10.9662065"><ele>28.333333333333332</ele><time>2026-03-28T13:30:24.497Z</time></trkpt><trkpt lat="44.6604999" lon="10.965914"><ele>29.0</ele><time>2026-03-28T13:30:25.495Z</time></trkpt><trkpt lat="44.6604231" lon="10.9656289"><ele>29.666666666666664</ele><time>2026-03-28T13:30:26.499Z</time></trkpt><trkpt lat="44.6603539" lon="10.9653531"><ele>30.333333333333336</ele><time>2026-03-28T13:30:27.494Z</time></trkpt><trkpt lat="44.6602809" lon="10.9651036"><ele>31.0</ele><time>2026-03-28T13:30:28.494Z</time></trkpt><trkpt lat="44.6602077" lon="10.9648721"><ele>31.333333333333336</ele><time>2026-03-28T13:30:29.494Z</time></trkpt><trkpt lat="44.6601429" lon="10.9646508"><ele>31.666666666666664</ele><time>2026-03-28T13:30:30.496Z</time></trkpt><trkpt lat="44.6600765" lon="10.9644439"><ele>32.0</ele><time>2026-03-28T13:30:31.5Z</time></trkpt><trkpt lat="44.6600075" lon="10.9642165"><ele>31.333333333333332</ele><time>2026-03-28T13:30:32.495Z</time></trkpt><trkpt lat="44.6599369" lon="10.9639598"><ele>30.666666666666664</ele><time>2026-03-28T13:30:33.496Z</time></trkpt><trkpt lat="44.6598608" lon="10.9636953"><ele>30.0</ele><time>2026-03-28T13:30:34.498Z</time></trkpt><trkpt lat="44.6597794" lon="10.963414"><ele>30.0</ele><time>2026-03-28T13:30:35.498Z</time></trkpt><trkpt lat="44.6596957" lon="10.9631376"><ele>30.0</ele><time>2026-03-28T13:30:36.494Z</time></trkpt><trkpt lat="44.6596091" lon="10.9628475"><ele>30.0</ele><time>2026-03-28T13:30:37.499Z</time></trkpt><trkpt lat="44.659528" lon="10.9625592"><ele>30.666666666666664</ele><time>2026-03-28T13:30:38.493Z</time></trkpt><trkpt lat="44.659452" lon="10.9622735"><ele>31.333333333333332</ele><time>2026-03-28T13:30:39.495Z</time></trkpt><trkpt lat="44.6593804" lon="10.9620002"><ele>32.0</ele><time>2026-03-28T13:30:40.499Z</time></trkpt><trkpt lat="44.6592976" lon="10.9617322"><ele>32.33333333333333</ele><time>2026-03-28T13:30:41.495Z</time></trkpt><trkpt lat="44.6592188" lon="10.9614677"><ele>32.666666666666664</ele><time>2026-03-28T13:30:42.497Z</time></trkpt><trkpt lat="44.6591378" lon="10.9612093"><ele>33.0</ele><time>2026-03-28T13:30:43.492Z</time></trkpt><trkpt lat="44.6590568" lon="10.9609371"><ele>32.0</ele><time>2026-03-28T13:30:44.501Z</time></trkpt><trkpt lat="44.6589853" lon="10.9606459"><ele>31.0</ele><time>2026-03-28T13:30:45.487Z</time></trkpt><trkpt lat="44.6589117" lon="10.960376"><ele>30.0</ele><time>2026-03-28T13:30:46.491Z</time></trkpt><trkpt lat="44.6588391" lon="10.9601059"><ele>29.0</ele><time>2026-03-28T13:30:47.493Z</time></trkpt><trkpt lat="44.658761" lon="10.959851"><ele>28.0</ele><time>2026-03-28T13:30:48.493Z</time></trkpt><trkpt lat="44.6586912" lon="10.9595954"><ele>27.0</ele><time>2026-03-28T13:30:49.494Z</time></trkpt><trkpt lat="44.6586245" lon="10.9593424"><ele>26.666666666666664</ele><time>2026-03-28T13:30:50.494Z</time></trkpt><trkpt lat="44.6585571" lon="10.9590943"><ele>26.333333333333332</ele><time>2026-03-28T13:30:51.498Z</time></trkpt><trkpt lat="44.6584989" lon="10.9588719"><ele>26.0</ele><time>2026-03-28T13:30:52.494Z</time></trkpt><trkpt lat="44.6584513" lon="10.9586646"><ele>26.0</ele><time>2026-03-28T13:30:53.494Z</time></trkpt><trkpt lat="44.6583984" lon="10.9584615"><ele>26.0</ele><time>2026-03-28T13:30:54.506Z</time></trkpt><trkpt lat="44.6583425" lon="10.95827"><ele>26.0</ele><time>2026-03-28T13:30:55.5Z</time></trkpt><trkpt lat="44.658303" lon="10.958081"><ele>26.0</ele><time>2026-03-28T13:30:56.497Z</time></trkpt><trkpt lat="44.6582677" lon="10.9578797"><ele>27.333333333333332</ele><time>2026-03-28T13:30:57.488Z</time></trkpt><trkpt lat="44.6582662" lon="10.9576596"><ele>28.666666666666664</ele><time>2026-03-28T13:30:58.488Z</time></trkpt><trkpt lat="44.6582766" lon="10.9574103"><ele>30.0</ele><time>2026-03-28T13:30:59.484Z</time></trkpt><trkpt lat="44.6582995" lon="10.9571624"><ele>30.0</ele><time>2026-03-28T13:31:00.496Z</time></trkpt><trkpt lat="44.6583557" lon="10.9569084"><ele>30.0</ele><time>2026-03-28T13:31:01.495Z</time></trkpt><trkpt lat="44.6584011" lon="10.9566443"><ele>30.0</ele><time>2026-03-28T13:31:02.497Z</time></trkpt><trkpt lat="44.6584374" lon="10.9563736"><ele>30.0</ele><time>2026-03-28T13:31:03.495Z</time></trkpt><trkpt lat="44.6584507" lon="10.9560987"><ele>30.0</ele><time>2026-03-28T13:31:04.487Z</time></trkpt><trkpt lat="44.6584288" lon="10.9558412"><ele>30.0</ele><time>2026-03-28T13:31:05.494Z</time></trkpt><trkpt lat="44.6583795" lon="10.9555992"><ele>29.666666666666664</ele><time>2026-03-28T13:31:06.489Z</time></trkpt><trkpt lat="44.6583364" lon="10.9553715"><ele>29.333333333333332</ele><time>2026-03-28T13:31:07.496Z</time></trkpt><trkpt lat="44.6582702" lon="10.9551601"><ele>29.0</ele><time>2026-03-28T13:31:08.488Z</time></trkpt><trkpt lat="44.6582036" lon="10.9549838"><ele>29.0</ele><time>2026-03-28T13:31:09.5Z</time></trkpt><trkpt lat="44.6581468" lon="10.9548177"><ele>29.0</ele><time>2026-03-28T13:31:10.503Z</time></trkpt><trkpt lat="44.6581351" lon="10.9546587"><ele>29.0</ele><time>2026-03-28T13:31:11.502Z</time></trkpt><trkpt lat="44.6581573" lon="10.9545664"><ele>29.0</ele><time>2026-03-28T13:31:12.496Z</time></trkpt><trkpt lat="44.6582062" lon="10.9544413"><ele>29.0</ele><time>2026-03-28T13:31:18.496Z</time></trkpt><trkpt lat="44.658294" lon="10.9543139"><ele>28.999999999999996</ele><time>2026-03-28T13:31:20.503Z</time></trkpt><trkpt lat="44.6583448" lon="10.9542398"><ele>29.0</ele><time>2026-03-28T13:31:21.498Z</time></trkpt><trkpt lat="44.6583789" lon="10.95416"><ele>29.0</ele><time>2026-03-28T13:31:22.501Z</time></trkpt><trkpt lat="44.6584037" lon="10.9540707"><ele>29.0</ele><time>2026-03-28T13:31:23.492Z</time></trkpt><trkpt lat="44.6584246" lon="10.9539661"><ele>28.999999999999996</ele><time>2026-03-28T13:31:24.495Z</time></trkpt><trkpt lat="44.6584304" lon="10.953846"><ele>29.0</ele><time>2026-03-28T13:31:25.496Z</time></trkpt><trkpt lat="44.6584271" lon="10.953718"><ele>29.2</ele><time>2026-03-28T13:31:26.498Z</time></trkpt><trkpt lat="44.6584212" lon="10.9535813"><ele>29.4</ele><time>2026-03-28T13:31:27.502Z</time></trkpt><trkpt lat="44.6584265" lon="10.9534353"><ele>29.6</ele><time>2026-03-28T13:31:28.499Z</time></trkpt><trkpt lat="44.6584321" lon="10.953293"><ele>29.8</ele><time>2026-03-28T13:31:29.508Z</time></trkpt><trkpt lat="44.6584389" lon="10.9531562"><ele>30.0</ele><time>2026-03-28T13:31:30.49Z</time></trkpt><trkpt lat="44.6584562" lon="10.9530501"><ele>29.8</ele><time>2026-03-28T13:31:31.488Z</time></trkpt><trkpt lat="44.6584884" lon="10.9529679"><ele>29.6</ele><time>2026-03-28T13:31:32.498Z</time></trkpt><trkpt lat="44.6585583" lon="10.9528426"><ele>29.4</ele><time>2026-03-28T13:31:34.5Z</time></trkpt><trkpt lat="44.6585988" lon="10.9527632"><ele>29.2</ele><time>2026-03-28T13:31:35.501Z</time></trkpt><trkpt lat="44.6586528" lon="10.9526412"><ele>29.0</ele><time>2026-03-28T13:31:36.494Z</time></trkpt><trkpt lat="44.6587248" lon="10.9524923"><ele>29.0</ele><time>2026-03-28T13:31:37.487Z</time></trkpt><trkpt lat="44.6588001" lon="10.9523414"><ele>29.0</ele><time>2026-03-28T13:31:38.503Z</time></trkpt><trkpt lat="44.6588711" lon="10.9521838"><ele>29.0</ele><time>2026-03-28T13:31:39.499Z</time></trkpt><trkpt lat="44.6589355" lon="10.9520374"><ele>29.0</ele><time>2026-03-28T13:31:40.486Z</time></trkpt><trkpt lat="44.6590023" lon="10.9518696"><ele>29.666666666666664</ele><time>2026-03-28T13:31:41.495Z</time></trkpt><trkpt lat="44.6590758" lon="10.9516967"><ele>30.333333333333336</ele><time>2026-03-28T13:31:42.496Z</time></trkpt><trkpt lat="44.6591488" lon="10.9514949"><ele>31.0</ele><time>2026-03-28T13:31:43.493Z</time></trkpt><trkpt lat="44.6592183" lon="10.9512765"><ele>31.0</ele><time>2026-03-28T13:31:44.49Z</time></trkpt><trkpt lat="44.6592715" lon="10.951045"><ele>31.0</ele><time>2026-03-28T13:31:45.497Z</time></trkpt><trkpt lat="44.6593292" lon="10.950787"><ele>31.0</ele><time>2026-03-28T13:31:46.504Z</time></trkpt><trkpt lat="44.6593983" lon="10.9505081"><ele>30.5</ele><time>2026-03-28T13:31:47.499Z</time></trkpt><trkpt lat="44.6594644" lon="10.9502007"><ele>30.0</ele><time>2026-03-28T13:31:48.504Z</time></trkpt><trkpt lat="44.6595285" lon="10.9498999"><ele>30.0</ele><time>2026-03-28T13:31:49.495Z</time></trkpt><trkpt lat="44.6595914" lon="10.9495969"><ele>30.0</ele><time>2026-03-28T13:31:50.497Z</time></trkpt><trkpt lat="44.6596669" lon="10.9492618"><ele>29.5</ele><time>2026-03-28T13:31:51.499Z</time></trkpt><trkpt lat="44.6597487" lon="10.9489024"><ele>29.0</ele><time>2026-03-28T13:31:52.495Z</time></trkpt><trkpt lat="44.6598272" lon="10.9485284"><ele>28.0</ele><time>2026-03-28T13:31:53.494Z</time></trkpt><trkpt lat="44.6599027" lon="10.9481629"><ele>27.0</ele><time>2026-03-28T13:31:54.503Z</time></trkpt><trkpt lat="44.6599757" lon="10.9477987"><ele>28.0</ele><time>2026-03-28T13:31:55.495Z</time></trkpt><trkpt lat="44.6600492" lon="10.9474245"><ele>29.0</ele><time>2026-03-28T13:31:56.498Z</time></trkpt><trkpt lat="44.6601304" lon="10.9470617"><ele>30.0</ele><time>2026-03-28T13:31:57.499Z</time></trkpt><trkpt lat="44.6602084" lon="10.9466964"><ele>31.0</ele><time>2026-03-28T13:31:58.495Z</time></trkpt><trkpt lat="44.6602845" lon="10.9463293"><ele>31.5</ele><time>2026-03-28T13:31:59.501Z</time></trkpt><trkpt lat="44.6603675" lon="10.945983"><ele>32.0</ele><time>2026-03-28T13:32:00.501Z</time></trkpt><trkpt lat="44.6604675" lon="10.9456285"><ele>32.0</ele><time>2026-03-28T13:32:01.499Z</time></trkpt><trkpt lat="44.6605773" lon="10.9452886"><ele>32.0</ele><time>2026-03-28T13:32:02.497Z</time></trkpt><trkpt lat="44.6607011" lon="10.9449641"><ele>32.0</ele><time>2026-03-28T13:32:03.505Z</time></trkpt><trkpt lat="44.6608366" lon="10.944642"><ele>32.0</ele><time>2026-03-28T13:32:04.492Z</time></trkpt><trkpt lat="44.6609809" lon="10.9443325"><ele>32.5</ele><time>2026-03-28T13:32:05.488Z</time></trkpt><trkpt lat="44.6611282" lon="10.9440401"><ele>33.0</ele><time>2026-03-28T13:32:06.5Z</time></trkpt><trkpt lat="44.6612791" lon="10.9437523"><ele>33.0</ele><time>2026-03-28T13:32:07.494Z</time></trkpt><trkpt lat="44.6614403" lon="10.9434682"><ele>33.0</ele><time>2026-03-28T13:32:08.496Z</time></trkpt><trkpt lat="44.6615917" lon="10.9431794"><ele>32.5</ele><time>2026-03-28T13:32:09.496Z</time></trkpt><trkpt lat="44.6617435" lon="10.9428984"><ele>32.0</ele><time>2026-03-28T13:32:10.5Z</time></trkpt><trkpt lat="44.6618986" lon="10.9425998"><ele>30.5</ele><time>2026-03-28T13:32:11.504Z</time></trkpt><trkpt lat="44.6620592" lon="10.94231"><ele>29.0</ele><time>2026-03-28T13:32:12.497Z</time></trkpt><trkpt lat="44.6622203" lon="10.9420191"><ele>29.0</ele><time>2026-03-28T13:32:13.502Z</time></trkpt><trkpt lat="44.6623785" lon="10.9417142"><ele>29.0</ele><time>2026-03-28T13:32:14.496Z</time></trkpt><trkpt lat="44.6625242" lon="10.9414385"><ele>29.0</ele><time>2026-03-28T13:32:15.495Z</time></trkpt><trkpt lat="44.6626799" lon="10.9411518"><ele>29.0</ele><time>2026-03-28T13:32:16.496Z</time></trkpt><trkpt lat="44.6628387" lon="10.9408517"><ele>30.5</ele><time>2026-03-28T13:32:17.511Z</time></trkpt><trkpt lat="44.6629895" lon="10.9405693"><ele>32.0</ele><time>2026-03-28T13:32:18.5Z</time></trkpt><trkpt lat="44.6631515" lon="10.9402706"><ele>32.5</ele><time>2026-03-28T13:32:19.499Z</time></trkpt><trkpt lat="44.663317" lon="10.9399735"><ele>33.0</ele><time>2026-03-28T13:32:20.495Z</time></trkpt><trkpt lat="44.6634816" lon="10.9396784"><ele>32.0</ele><time>2026-03-28T13:32:21.501Z</time></trkpt><trkpt lat="44.6636382" lon="10.9393789"><ele>31.0</ele><time>2026-03-28T13:32:22.495Z</time></trkpt><trkpt lat="44.6637955" lon="10.9390834"><ele>31.0</ele><time>2026-03-28T13:32:23.497Z</time></trkpt><trkpt lat="44.6639665" lon="10.9387828"><ele>31.0</ele><time>2026-03-28T13:32:24.493Z</time></trkpt><trkpt lat="44.6641311" lon="10.9384836"><ele>31.0</ele><time>2026-03-28T13:32:25.501Z</time></trkpt><trkpt lat="44.6642962" lon="10.9381902"><ele>31.0</ele><time>2026-03-28T13:32:26.498Z</time></trkpt><trkpt lat="44.6644536" lon="10.9378957"><ele>31.0</ele><time>2026-03-28T13:32:27.493Z</time></trkpt><trkpt lat="44.6646144" lon="10.9376068"><ele>31.0</ele><time>2026-03-28T13:32:28.501Z</time></trkpt><trkpt lat="44.6647673" lon="10.9373272"><ele>31.0</ele><time>2026-03-28T13:32:29.502Z</time></trkpt><trkpt lat="44.6649187" lon="10.937039"><ele>31.0</ele><time>2026-03-28T13:32:30.507Z</time></trkpt><trkpt lat="44.6650845" lon="10.9367486"><ele>30.5</ele><time>2026-03-28T13:32:31.501Z</time></trkpt><trkpt lat="44.6652381" lon="10.9364493"><ele>30.0</ele><time>2026-03-28T13:32:32.503Z</time></trkpt><trkpt lat="44.6653976" lon="10.9361583"><ele>30.5</ele><time>2026-03-28T13:32:33.512Z</time></trkpt><trkpt lat="44.665564" lon="10.9358625"><ele>31.0</ele><time>2026-03-28T13:32:34.502Z</time></trkpt><trkpt lat="44.6657287" lon="10.9355648"><ele>31.0</ele><time>2026-03-28T13:32:35.498Z</time></trkpt><trkpt lat="44.6658946" lon="10.9352666"><ele>31.0</ele><time>2026-03-28T13:32:36.5Z</time></trkpt><trkpt lat="44.6660477" lon="10.9349826"><ele>32.0</ele><time>2026-03-28T13:32:37.497Z</time></trkpt><trkpt lat="44.6662051" lon="10.934695"><ele>33.0</ele><time>2026-03-28T13:32:38.504Z</time></trkpt><trkpt lat="44.6663696" lon="10.9344057"><ele>32.5</ele><time>2026-03-28T13:32:39.498Z</time></trkpt><trkpt lat="44.6665229" lon="10.934114"><ele>32.0</ele><time>2026-03-28T13:32:40.497Z</time></trkpt><trkpt lat="44.6666768" lon="10.9338171"><ele>32.0</ele><time>2026-03-28T13:32:41.496Z</time></trkpt><trkpt lat="44.6668397" lon="10.9335215"><ele>32.0</ele><time>2026-03-28T13:32:42.497Z</time></trkpt><trkpt lat="44.6669997" lon="10.9332355"><ele>32.5</ele><time>2026-03-28T13:32:43.496Z</time></trkpt><trkpt lat="44.6671566" lon="10.9329495"><ele>33.0</ele><time>2026-03-28T13:32:44.501Z</time></trkpt><trkpt lat="44.6673121" lon="10.9326591"><ele>33.0</ele><time>2026-03-28T13:32:45.498Z</time></trkpt><trkpt lat="44.6674654" lon="10.9323667"><ele>33.0</ele><time>2026-03-28T13:32:46.498Z</time></trkpt><trkpt lat="44.6676184" lon="10.9320712"><ele>33.5</ele><time>2026-03-28T13:32:47.496Z</time></trkpt><trkpt lat="44.6677779" lon="10.931776"><ele>34.0</ele><time>2026-03-28T13:32:48.504Z</time></trkpt><trkpt lat="44.667938" lon="10.9314868"><ele>32.5</ele><time>2026-03-28T13:32:49.494Z</time></trkpt><trkpt lat="44.6680911" lon="10.9311998"><ele>31.0</ele><time>2026-03-28T13:32:50.494Z</time></trkpt><trkpt lat="44.6682475" lon="10.9309027"><ele>31.0</ele><time>2026-03-28T13:32:51.495Z</time></trkpt><trkpt lat="44.6684039" lon="10.9306124"><ele>31.0</ele><time>2026-03-28T13:32:52.492Z</time></trkpt><trkpt lat="44.6685625" lon="10.930319"><ele>32.0</ele><time>2026-03-28T13:32:53.492Z</time></trkpt><trkpt lat="44.6687176" lon="10.9300352"><ele>33.0</ele><time>2026-03-28T13:32:54.493Z</time></trkpt><trkpt lat="44.6688727" lon="10.9297508"><ele>33.0</ele><time>2026-03-28T13:32:55.487Z</time></trkpt><trkpt lat="44.6690225" lon="10.9294682"><ele>33.0</ele><time>2026-03-28T13:32:56.502Z</time></trkpt><trkpt lat="44.6691869" lon="10.9291952"><ele>32.5</ele><time>2026-03-28T13:32:57.5Z</time></trkpt><trkpt lat="44.6693443" lon="10.9289393"><ele>32.0</ele><time>2026-03-28T13:32:58.505Z</time></trkpt><trkpt lat="44.6695124" lon="10.9286846"><ele>32.0</ele><time>2026-03-28T13:32:59.496Z</time></trkpt><trkpt lat="44.6696817" lon="10.9284359"><ele>32.0</ele><time>2026-03-28T13:33:00.501Z</time></trkpt><trkpt lat="44.6698775" lon="10.9281843"><ele>32.5</ele><time>2026-03-28T13:33:01.496Z</time></trkpt><trkpt lat="44.6700876" lon="10.9279366"><ele>33.0</ele><time>2026-03-28T13:33:02.495Z</time></trkpt><trkpt lat="44.6703024" lon="10.9276944"><ele>34.0</ele><time>2026-03-28T13:33:03.502Z</time></trkpt><trkpt lat="44.6705227" lon="10.9274783"><ele>35.0</ele><time>2026-03-28T13:33:04.495Z</time></trkpt><trkpt lat="44.6707372" lon="10.9272826"><ele>35.0</ele><time>2026-03-28T13:33:05.496Z</time></trkpt><trkpt lat="44.6709305" lon="10.9270808"><ele>35.0</ele><time>2026-03-28T13:33:06.499Z</time></trkpt><trkpt lat="44.671106" lon="10.9268663"><ele>34.5</ele><time>2026-03-28T13:33:07.493Z</time></trkpt><trkpt lat="44.6712722" lon="10.9266404"><ele>34.0</ele><time>2026-03-28T13:33:08.492Z</time></trkpt><trkpt lat="44.6714306" lon="10.9263839"><ele>34.0</ele><time>2026-03-28T13:33:09.483Z</time></trkpt><trkpt lat="44.6715842" lon="10.9261249"><ele>34.0</ele><time>2026-03-28T13:33:10.481Z</time></trkpt><trkpt lat="44.6717408" lon="10.9258357"><ele>33.5</ele><time>2026-03-28T13:33:11.482Z</time></trkpt><trkpt lat="44.6718666" lon="10.9255579"><ele>33.0</ele><time>2026-03-28T13:33:12.473Z</time></trkpt><trkpt lat="44.6719836" lon="10.9252536"><ele>32.5</ele><time>2026-03-28T13:33:13.486Z</time></trkpt><trkpt lat="44.6720861" lon="10.924952"><ele>32.0</ele><time>2026-03-28T13:33:14.48Z</time></trkpt><trkpt lat="44.6721818" lon="10.9246328"><ele>32.0</ele><time>2026-03-28T13:33:15.49Z</time></trkpt><trkpt lat="44.6722604" lon="10.9243092"><ele>32.0</ele><time>2026-03-28T13:33:16.486Z</time></trkpt><trkpt lat="44.6723304" lon="10.9239993"><ele>31.5</ele><time>2026-03-28T13:33:17.491Z</time></trkpt><trkpt lat="44.672388" lon="10.9236827"><ele>31.0</ele><time>2026-03-28T13:33:18.492Z</time></trkpt><trkpt lat="44.6724367" lon="10.9233688"><ele>31.666666666666668</ele><time>2026-03-28T13:33:19.501Z</time></trkpt><trkpt lat="44.672473" lon="10.9230612"><ele>32.333333333333336</ele><time>2026-03-28T13:33:20.489Z</time></trkpt><trkpt lat="44.6725016" lon="10.9227514"><ele>33.0</ele><time>2026-03-28T13:33:21.488Z</time></trkpt><trkpt lat="44.6725026" lon="10.9224389"><ele>33.333333333333336</ele><time>2026-03-28T13:33:22.486Z</time></trkpt><trkpt lat="44.6725026" lon="10.9221383"><ele>33.66666666666667</ele><time>2026-03-28T13:33:23.495Z</time></trkpt><trkpt lat="44.6724907" lon="10.9218413"><ele>34.0</ele><time>2026-03-28T13:33:24.491Z</time></trkpt><trkpt lat="44.6724853" lon="10.9215371"><ele>34.0</ele><time>2026-03-28T13:33:25.487Z</time></trkpt><trkpt lat="44.6724772" lon="10.9212194"><ele>34.0</ele><time>2026-03-28T13:33:26.49Z</time></trkpt><trkpt lat="44.6724666" lon="10.9209022"><ele>33.5</ele><time>2026-03-28T13:33:27.486Z</time></trkpt><trkpt lat="44.6724669" lon="10.9205831"><ele>33.0</ele><time>2026-03-28T13:33:28.493Z</time></trkpt><trkpt lat="44.6724591" lon="10.9202663"><ele>33.0</ele><time>2026-03-28T13:33:29.494Z</time></trkpt><trkpt lat="44.6724458" lon="10.9199524"><ele>33.0</ele><time>2026-03-28T13:33:30.501Z</time></trkpt><trkpt lat="44.6724321" lon="10.9196365"><ele>33.0</ele><time>2026-03-28T13:33:31.491Z</time></trkpt><trkpt lat="44.6724192" lon="10.9193176"><ele>32.5</ele><time>2026-03-28T13:33:32.494Z</time></trkpt><trkpt lat="44.6724094" lon="10.9189999"><ele>32.0</ele><time>2026-03-28T13:33:33.497Z</time></trkpt><trkpt lat="44.6723955" lon="10.9186759"><ele>32.5</ele><time>2026-03-28T13:33:34.494Z</time></trkpt><trkpt lat="44.6723904" lon="10.91834"><ele>33.0</ele><time>2026-03-28T13:33:35.491Z</time></trkpt><trkpt lat="44.6723808" lon="10.9180001"><ele>33.0</ele><time>2026-03-28T13:33:36.487Z</time></trkpt><trkpt lat="44.6723714" lon="10.9176516"><ele>33.0</ele><time>2026-03-28T13:33:37.487Z</time></trkpt><trkpt lat="44.6723676" lon="10.9173118"><ele>32.666666666666664</ele><time>2026-03-28T13:33:38.491Z</time></trkpt><trkpt lat="44.6723566" lon="10.9169842"><ele>32.33333333333333</ele><time>2026-03-28T13:33:39.489Z</time></trkpt><trkpt lat="44.6723397" lon="10.9166866"><ele>32.0</ele><time>2026-03-28T13:33:40.493Z</time></trkpt><trkpt lat="44.6723326" lon="10.916385"><ele>31.333333333333332</ele><time>2026-03-28T13:33:41.495Z</time></trkpt><trkpt lat="44.6723248" lon="10.916097"><ele>30.666666666666664</ele><time>2026-03-28T13:33:42.496Z</time></trkpt><trkpt lat="44.6723202" lon="10.9158123"><ele>30.0</ele><time>2026-03-28T13:33:43.5Z</time></trkpt><trkpt lat="44.6723093" lon="10.9155426"><ele>31.333333333333336</ele><time>2026-03-28T13:33:44.501Z</time></trkpt><trkpt lat="44.6723054" lon="10.9152674"><ele>32.66666666666667</ele><time>2026-03-28T13:33:45.498Z</time></trkpt><trkpt lat="44.6723008" lon="10.9149923"><ele>34.0</ele><time>2026-03-28T13:33:46.499Z</time></trkpt><trkpt lat="44.6723025" lon="10.9147162"><ele>34.66666666666667</ele><time>2026-03-28T13:33:47.502Z</time></trkpt><trkpt lat="44.6722965" lon="10.9144458"><ele>35.333333333333336</ele><time>2026-03-28T13:33:48.497Z</time></trkpt><trkpt lat="44.6722938" lon="10.9141859"><ele>36.0</ele><time>2026-03-28T13:33:49.497Z</time></trkpt><trkpt lat="44.672285" lon="10.9139126"><ele>36.0</ele><time>2026-03-28T13:33:50.497Z</time></trkpt><trkpt lat="44.6722788" lon="10.9136316"><ele>36.0</ele><time>2026-03-28T13:33:51.506Z</time></trkpt><trkpt lat="44.6722706" lon="10.9133502"><ele>36.0</ele><time>2026-03-28T13:33:52.503Z</time></trkpt><trkpt lat="44.6722485" lon="10.9130731"><ele>35.666666666666664</ele><time>2026-03-28T13:33:53.499Z</time></trkpt><trkpt lat="44.6722235" lon="10.9127872"><ele>35.33333333333333</ele><time>2026-03-28T13:33:54.499Z</time></trkpt><trkpt lat="44.6721843" lon="10.9124973"><ele>35.0</ele><time>2026-03-28T13:33:55.498Z</time></trkpt><trkpt lat="44.6721335" lon="10.9122083"><ele>36.0</ele><time>2026-03-28T13:33:56.502Z</time></trkpt><trkpt lat="44.6720731" lon="10.9119223"><ele>37.0</ele><time>2026-03-28T13:33:57.493Z</time></trkpt><trkpt lat="44.6720029" lon="10.9116326"><ele>38.0</ele><time>2026-03-28T13:33:58.501Z</time></trkpt><trkpt lat="44.6719187" lon="10.9113387"><ele>38.5</ele><time>2026-03-28T13:33:59.503Z</time></trkpt><trkpt lat="44.6718166" lon="10.9110467"><ele>39.0</ele><time>2026-03-28T13:34:00.498Z</time></trkpt><trkpt lat="44.6717076" lon="10.9107578"><ele>39.0</ele><time>2026-03-28T13:34:01.497Z</time></trkpt><trkpt lat="44.6715707" lon="10.9104767"><ele>39.0</ele><time>2026-03-28T13:34:02.502Z</time></trkpt><trkpt lat="44.6714425" lon="10.9102062"><ele>39.0</ele><time>2026-03-28T13:34:03.501Z</time></trkpt><trkpt lat="44.6712938" lon="10.9099487"><ele>39.0</ele><time>2026-03-28T13:34:04.494Z</time></trkpt><trkpt lat="44.6711347" lon="10.9097073"><ele>39.5</ele><time>2026-03-28T13:34:05.496Z</time></trkpt><trkpt lat="44.6709709" lon="10.9094813"><ele>40.0</ele><time>2026-03-28T13:34:06.498Z</time></trkpt><trkpt lat="44.6707922" lon="10.9092732"><ele>39.0</ele><time>2026-03-28T13:34:07.492Z</time></trkpt><trkpt lat="44.6706028" lon="10.9090791"><ele>38.0</ele><time>2026-03-28T13:34:08.505Z</time></trkpt><trkpt lat="44.6704082" lon="10.9089004"><ele>36.5</ele><time>2026-03-28T13:34:09.499Z</time></trkpt><trkpt lat="44.6702125" lon="10.9087425"><ele>35.0</ele><time>2026-03-28T13:34:10.494Z</time></trkpt><trkpt lat="44.6700076" lon="10.9085884"><ele>35.0</ele><time>2026-03-28T13:34:11.502Z</time></trkpt><trkpt lat="44.669805" lon="10.9084404"><ele>35.0</ele><time>2026-03-28T13:34:12.494Z</time></trkpt><trkpt lat="44.6695899" lon="10.9082993"><ele>34.0</ele><time>2026-03-28T13:34:13.496Z</time></trkpt><trkpt lat="44.669376" lon="10.9081505"><ele>33.0</ele><time>2026-03-28T13:34:14.499Z</time></trkpt><trkpt lat="44.669164" lon="10.9079935"><ele>33.0</ele><time>2026-03-28T13:34:15.494Z</time></trkpt><trkpt lat="44.6689442" lon="10.9078336"><ele>33.0</ele><time>2026-03-28T13:34:16.494Z</time></trkpt><trkpt lat="44.6687288" lon="10.9076735"><ele>33.0</ele><time>2026-03-28T13:34:17.494Z</time></trkpt><trkpt lat="44.6685204" lon="10.9075021"><ele>33.0</ele><time>2026-03-28T13:34:18.492Z</time></trkpt><trkpt lat="44.6683008" lon="10.9073137"><ele>33.0</ele><time>2026-03-28T13:34:19.486Z</time></trkpt><trkpt lat="44.6680877" lon="10.9071176"><ele>33.0</ele><time>2026-03-28T13:34:20.497Z</time></trkpt><trkpt lat="44.6678931" lon="10.9069216"><ele>34.0</ele><time>2026-03-28T13:34:21.501Z</time></trkpt><trkpt lat="44.6677002" lon="10.9067175"><ele>35.0</ele><time>2026-03-28T13:34:22.493Z</time></trkpt><trkpt lat="44.6675063" lon="10.906503"><ele>35.0</ele><time>2026-03-28T13:34:23.494Z</time></trkpt><trkpt lat="44.6673268" lon="10.9062782"><ele>35.0</ele><time>2026-03-28T13:34:24.506Z</time></trkpt><trkpt lat="44.6671528" lon="10.9060492"><ele>34.5</ele><time>2026-03-28T13:34:25.49Z</time></trkpt><trkpt lat="44.6669834" lon="10.9058136"><ele>34.0</ele><time>2026-03-28T13:34:26.495Z</time></trkpt><trkpt lat="44.6668077" lon="10.9055764"><ele>34.0</ele><time>2026-03-28T13:34:27.487Z</time></trkpt><trkpt lat="44.666637" lon="10.9053358"><ele>34.0</ele><time>2026-03-28T13:34:28.492Z</time></trkpt><trkpt lat="44.6664761" lon="10.9050781"><ele>33.5</ele><time>2026-03-28T13:34:29.488Z</time></trkpt><trkpt lat="44.6663276" lon="10.9048083"><ele>33.0</ele><time>2026-03-28T13:34:30.494Z</time></trkpt><trkpt lat="44.6661682" lon="10.9045386"><ele>34.5</ele><time>2026-03-28T13:34:31.486Z</time></trkpt><trkpt lat="44.6660164" lon="10.9042458"><ele>36.0</ele><time>2026-03-28T13:34:32.497Z</time></trkpt><trkpt lat="44.6658762" lon="10.9039596"><ele>36.0</ele><time>2026-03-28T13:34:33.496Z</time></trkpt><trkpt lat="44.6657472" lon="10.9036587"><ele>36.0</ele><time>2026-03-28T13:34:34.494Z</time></trkpt><trkpt lat="44.6656174" lon="10.9033635"><ele>36.0</ele><time>2026-03-28T13:34:35.496Z</time></trkpt><trkpt lat="44.6654897" lon="10.903076"><ele>36.0</ele><time>2026-03-28T13:34:36.489Z</time></trkpt><trkpt lat="44.6653702" lon="10.90278"><ele>36.0</ele><time>2026-03-28T13:34:37.496Z</time></trkpt><trkpt lat="44.6652548" lon="10.9024843"><ele>36.0</ele><time>2026-03-28T13:34:38.491Z</time></trkpt><trkpt lat="44.6651485" lon="10.9021823"><ele>36.0</ele><time>2026-03-28T13:34:39.493Z</time></trkpt><trkpt lat="44.6650507" lon="10.9018779"><ele>36.0</ele><time>2026-03-28T13:34:40.493Z</time></trkpt><trkpt lat="44.6649633" lon="10.9015622"><ele>35.5</ele><time>2026-03-28T13:34:41.494Z</time></trkpt><trkpt lat="44.6648832" lon="10.9012511"><ele>35.0</ele><time>2026-03-28T13:34:42.494Z</time></trkpt><trkpt lat="44.6648093" lon="10.9009422"><ele>35.0</ele><time>2026-03-28T13:34:43.494Z</time></trkpt><trkpt lat="44.6647312" lon="10.9006461"><ele>35.0</ele><time>2026-03-28T13:34:44.5Z</time></trkpt><trkpt lat="44.6646485" lon="10.9003505"><ele>35.666666666666664</ele><time>2026-03-28T13:34:45.496Z</time></trkpt><trkpt lat="44.6645645" lon="10.9000723"><ele>36.333333333333336</ele><time>2026-03-28T13:34:46.504Z</time></trkpt><trkpt lat="44.6644881" lon="10.899793"><ele>37.0</ele><time>2026-03-28T13:34:47.492Z</time></trkpt><trkpt lat="44.6644031" lon="10.8995054"><ele>37.0</ele><time>2026-03-28T13:34:48.501Z</time></trkpt><trkpt lat="44.6643301" lon="10.8992273"><ele>37.0</ele><time>2026-03-28T13:34:49.499Z</time></trkpt><trkpt lat="44.6642684" lon="10.8989519"><ele>37.0</ele><time>2026-03-28T13:34:50.495Z</time></trkpt><trkpt lat="44.6641999" lon="10.8986898"><ele>37.0</ele><time>2026-03-28T13:34:51.498Z</time></trkpt><trkpt lat="44.6641328" lon="10.8984327"><ele>37.0</ele><time>2026-03-28T13:34:52.489Z</time></trkpt><trkpt lat="44.6640635" lon="10.8981835"><ele>37.0</ele><time>2026-03-28T13:34:53.491Z</time></trkpt><trkpt lat="44.6640015" lon="10.8979328"><ele>37.0</ele><time>2026-03-28T13:34:54.494Z</time></trkpt><trkpt lat="44.6639382" lon="10.8976779"><ele>37.0</ele><time>2026-03-28T13:34:55.493Z</time></trkpt><trkpt lat="44.6638753" lon="10.89742"><ele>37.0</ele><time>2026-03-28T13:34:56.493Z</time></trkpt><trkpt lat="44.6638151" lon="10.897151"><ele>37.333333333333336</ele><time>2026-03-28T13:34:57.493Z</time></trkpt><trkpt lat="44.6637637" lon="10.8968682"><ele>37.666666666666664</ele><time>2026-03-28T13:34:58.501Z</time></trkpt><trkpt lat="44.6637254" lon="10.8965796"><ele>38.0</ele><time>2026-03-28T13:34:59.496Z</time></trkpt><trkpt lat="44.6636892" lon="10.8963048"><ele>37.33333333333333</ele><time>2026-03-28T13:35:00.496Z</time></trkpt><trkpt lat="44.663663" lon="10.8960266"><ele>36.666666666666664</ele><time>2026-03-28T13:35:01.496Z</time></trkpt><trkpt lat="44.6636333" lon="10.8957304"><ele>36.0</ele><time>2026-03-28T13:35:02.497Z</time></trkpt><trkpt lat="44.6636187" lon="10.895431"><ele>36.0</ele><time>2026-03-28T13:35:03.499Z</time></trkpt><trkpt lat="44.6636075" lon="10.8951174"><ele>36.0</ele><time>2026-03-28T13:35:04.501Z</time></trkpt><trkpt lat="44.663615" lon="10.8948001"><ele>36.0</ele><time>2026-03-28T13:35:05.484Z</time></trkpt><trkpt lat="44.663619" lon="10.8944638"><ele>36.5</ele><time>2026-03-28T13:35:06.496Z</time></trkpt><trkpt lat="44.6636278" lon="10.8941249"><ele>37.0</ele><time>2026-03-28T13:35:07.499Z</time></trkpt><trkpt lat="44.6636568" lon="10.8937922"><ele>37.0</ele><time>2026-03-28T13:35:08.499Z</time></trkpt><trkpt lat="44.6636948" lon="10.8934696"><ele>37.0</ele><time>2026-03-28T13:35:09.496Z</time></trkpt><trkpt lat="44.6637501" lon="10.8931471"><ele>36.5</ele><time>2026-03-28T13:35:10.498Z</time></trkpt><trkpt lat="44.6637977" lon="10.8928135"><ele>36.0</ele><time>2026-03-28T13:35:11.497Z</time></trkpt><trkpt lat="44.6638399" lon="10.8924951"><ele>35.0</ele><time>2026-03-28T13:35:12.494Z</time></trkpt><trkpt lat="44.663873" lon="10.8921852"><ele>34.0</ele><time>2026-03-28T13:35:13.497Z</time></trkpt><trkpt lat="44.6639213" lon="10.8918839"><ele>33.0</ele><time>2026-03-28T13:35:14.492Z</time></trkpt><trkpt lat="44.663968" lon="10.8915785"><ele>32.5</ele><time>2026-03-28T13:35:15.574Z</time></trkpt><trkpt lat="44.6640106" lon="10.8912751"><ele>32.0</ele><time>2026-03-28T13:35:16.495Z</time></trkpt><trkpt lat="44.6640539" lon="10.8909433"><ele>33.0</ele><time>2026-03-28T13:35:17.5Z</time></trkpt><trkpt lat="44.6640951" lon="10.8906027"><ele>34.0</ele><time>2026-03-28T13:35:18.497Z</time></trkpt><trkpt lat="44.6641231" lon="10.8902419"><ele>34.0</ele><time>2026-03-28T13:35:19.494Z</time></trkpt><trkpt lat="44.6641428" lon="10.8898895"><ele>34.0</ele><time>2026-03-28T13:35:20.5Z</time></trkpt><trkpt lat="44.664146" lon="10.8895351"><ele>34.5</ele><time>2026-03-28T13:35:21.497Z</time></trkpt><trkpt lat="44.6641497" lon="10.8891866"><ele>35.0</ele><time>2026-03-28T13:35:22.508Z</time></trkpt><trkpt lat="44.6641362" lon="10.8888484"><ele>35.0</ele><time>2026-03-28T13:35:23.499Z</time></trkpt><trkpt lat="44.6641161" lon="10.8885067"><ele>35.0</ele><time>2026-03-28T13:35:24.495Z</time></trkpt><trkpt lat="44.6640734" lon="10.8881449"><ele>35.5</ele><time>2026-03-28T13:35:25.496Z</time></trkpt><trkpt lat="44.6640279" lon="10.8877857"><ele>36.0</ele><time>2026-03-28T13:35:26.495Z</time></trkpt><trkpt lat="44.6639621" lon="10.887425"><ele>35.0</ele><time>2026-03-28T13:35:27.494Z</time></trkpt><trkpt lat="44.6638854" lon="10.887066"><ele>34.0</ele><time>2026-03-28T13:35:28.495Z</time></trkpt><trkpt lat="44.6637981" lon="10.8867128"><ele>34.0</ele><time>2026-03-28T13:35:29.496Z</time></trkpt><trkpt lat="44.6637064" lon="10.8863789"><ele>34.0</ele><time>2026-03-28T13:35:30.495Z</time></trkpt><trkpt lat="44.6636171" lon="10.8860578"><ele>34.0</ele><time>2026-03-28T13:35:31.495Z</time></trkpt><trkpt lat="44.6635045" lon="10.885756"><ele>34.0</ele><time>2026-03-28T13:35:32.502Z</time></trkpt><trkpt lat="44.6633965" lon="10.8854693"><ele>34.0</ele><time>2026-03-28T13:35:33.5Z</time></trkpt><trkpt lat="44.6632779" lon="10.8851912"><ele>34.0</ele><time>2026-03-28T13:35:34.503Z</time></trkpt><trkpt lat="44.6631606" lon="10.8849211"><ele>35.66666666666667</ele><time>2026-03-28T13:35:35.503Z</time></trkpt><trkpt lat="44.6630495" lon="10.8846649"><ele>37.333333333333336</ele><time>2026-03-28T13:35:36.497Z</time></trkpt><trkpt lat="44.662919" lon="10.8844052"><ele>39.0</ele><time>2026-03-28T13:35:37.507Z</time></trkpt><trkpt lat="44.6627961" lon="10.8841592"><ele>38.0</ele><time>2026-03-28T13:35:38.497Z</time></trkpt><trkpt lat="44.6626677" lon="10.8839174"><ele>37.0</ele><time>2026-03-28T13:35:39.498Z</time></trkpt><trkpt lat="44.6625275" lon="10.8836688"><ele>36.0</ele><time>2026-03-28T13:35:40.492Z</time></trkpt><trkpt lat="44.6623877" lon="10.8834191"><ele>36.0</ele><time>2026-03-28T13:35:41.491Z</time></trkpt><trkpt lat="44.6622628" lon="10.8831769"><ele>36.0</ele><time>2026-03-28T13:35:42.492Z</time></trkpt><trkpt lat="44.6621348" lon="10.8829189"><ele>36.0</ele><time>2026-03-28T13:35:43.491Z</time></trkpt><trkpt lat="44.6620112" lon="10.882665"><ele>35.333333333333336</ele><time>2026-03-28T13:35:44.497Z</time></trkpt><trkpt lat="44.66189" lon="10.8824043"><ele>34.66666666666667</ele><time>2026-03-28T13:35:45.493Z</time></trkpt><trkpt lat="44.6617812" lon="10.8821358"><ele>34.0</ele><time>2026-03-28T13:35:46.5Z</time></trkpt><trkpt lat="44.66167" lon="10.8818337"><ele>34.0</ele><time>2026-03-28T13:35:47.495Z</time></trkpt><trkpt lat="44.6615468" lon="10.8815463"><ele>34.0</ele><time>2026-03-28T13:35:48.493Z</time></trkpt><trkpt lat="44.6614381" lon="10.881239"><ele>33.5</ele><time>2026-03-28T13:35:49.499Z</time></trkpt><trkpt lat="44.6613382" lon="10.8809058"><ele>33.0</ele><time>2026-03-28T13:35:50.489Z</time></trkpt><trkpt lat="44.6612287" lon="10.8805424"><ele>33.0</ele><time>2026-03-28T13:35:51.501Z</time></trkpt><trkpt lat="44.6611182" lon="10.8801505"><ele>33.0</ele><time>2026-03-28T13:35:52.492Z</time></trkpt><trkpt lat="44.6610198" lon="10.879739"><ele>34.0</ele><time>2026-03-28T13:35:53.503Z</time></trkpt><trkpt lat="44.660929" lon="10.8793057"><ele>35.0</ele><time>2026-03-28T13:35:54.494Z</time></trkpt><trkpt lat="44.6608501" lon="10.8789043"><ele>35.0</ele><time>2026-03-28T13:35:55.491Z</time></trkpt><trkpt lat="44.6607854" lon="10.8785157"><ele>35.0</ele><time>2026-03-28T13:35:56.492Z</time></trkpt><trkpt lat="44.6607259" lon="10.8781337"><ele>35.5</ele><time>2026-03-28T13:35:57.496Z</time></trkpt><trkpt lat="44.6606752" lon="10.8777433"><ele>36.0</ele><time>2026-03-28T13:35:58.495Z</time></trkpt><trkpt lat="44.6606094" lon="10.8773402"><ele>36.0</ele><time>2026-03-28T13:35:59.493Z</time></trkpt><trkpt lat="44.6605557" lon="10.8769254"><ele>36.0</ele><time>2026-03-28T13:36:00.495Z</time></trkpt><trkpt lat="44.6605017" lon="10.876516"><ele>36.0</ele><time>2026-03-28T13:36:01.497Z</time></trkpt><trkpt lat="44.6604419" lon="10.8761077"><ele>36.0</ele><time>2026-03-28T13:36:02.503Z</time></trkpt><trkpt lat="44.6603912" lon="10.8756967"><ele>36.0</ele><time>2026-03-28T13:36:03.504Z</time></trkpt><trkpt lat="44.6603278" lon="10.8752792"><ele>36.0</ele><time>2026-03-28T13:36:04.505Z</time></trkpt><trkpt lat="44.6602624" lon="10.8748676"><ele>36.0</ele><time>2026-03-28T13:36:05.499Z</time></trkpt><trkpt lat="44.6601961" lon="10.8744509"><ele>36.0</ele><time>2026-03-28T13:36:06.498Z</time></trkpt><trkpt lat="44.6601188" lon="10.8740451"><ele>36.0</ele><time>2026-03-28T13:36:07.493Z</time></trkpt><trkpt lat="44.6600174" lon="10.8736479"><ele>36.0</ele><time>2026-03-28T13:36:08.491Z</time></trkpt><trkpt lat="44.6598978" lon="10.8732681"><ele>36.0</ele><time>2026-03-28T13:36:09.496Z</time></trkpt><trkpt lat="44.6597639" lon="10.8728999"><ele>36.0</ele><time>2026-03-28T13:36:10.494Z</time></trkpt><trkpt lat="44.6596274" lon="10.8725417"><ele>37.0</ele><time>2026-03-28T13:36:11.5Z</time></trkpt><trkpt lat="44.6594564" lon="10.8721962"><ele>38.0</ele><time>2026-03-28T13:36:12.496Z</time></trkpt><trkpt lat="44.6592737" lon="10.8718644"><ele>38.0</ele><time>2026-03-28T13:36:13.497Z</time></trkpt><trkpt lat="44.6590805" lon="10.8715435"><ele>38.0</ele><time>2026-03-28T13:36:14.496Z</time></trkpt><trkpt lat="44.6588753" lon="10.8712502"><ele>38.0</ele><time>2026-03-28T13:36:15.494Z</time></trkpt><trkpt lat="44.6586668" lon="10.8709666"><ele>38.0</ele><time>2026-03-28T13:36:16.498Z</time></trkpt><trkpt lat="44.6584532" lon="10.87071"><ele>36.5</ele><time>2026-03-28T13:36:17.501Z</time></trkpt><trkpt lat="44.6582236" lon="10.8704682"><ele>35.0</ele><time>2026-03-28T13:36:18.492Z</time></trkpt><trkpt lat="44.6579837" lon="10.8702492"><ele>35.0</ele><time>2026-03-28T13:36:19.497Z</time></trkpt><trkpt lat="44.6577276" lon="10.8700414"><ele>35.0</ele><time>2026-03-28T13:36:20.496Z</time></trkpt><trkpt lat="44.6574642" lon="10.8698577"><ele>35.0</ele><time>2026-03-28T13:36:21.488Z</time></trkpt><trkpt lat="44.6571961" lon="10.8696976"><ele>35.0</ele><time>2026-03-28T13:36:22.492Z</time></trkpt><trkpt lat="44.656922" lon="10.8695579"><ele>35.5</ele><time>2026-03-28T13:36:23.501Z</time></trkpt><trkpt lat="44.6566457" lon="10.869434"><ele>36.0</ele><time>2026-03-28T13:36:24.508Z</time></trkpt><trkpt lat="44.6563713" lon="10.8693385"><ele>36.0</ele><time>2026-03-28T13:36:25.488Z</time></trkpt><trkpt lat="44.6560881" lon="10.8692675"><ele>36.0</ele><time>2026-03-28T13:36:26.493Z</time></trkpt><trkpt lat="44.6557956" lon="10.8692128"><ele>36.0</ele><time>2026-03-28T13:36:27.494Z</time></trkpt><trkpt lat="44.6555148" lon="10.8691893"><ele>36.0</ele><time>2026-03-28T13:36:28.496Z</time></trkpt><trkpt lat="44.6552184" lon="10.8691825"><ele>37.5</ele><time>2026-03-28T13:36:29.492Z</time></trkpt><trkpt lat="44.6549208" lon="10.8692051"><ele>39.0</ele><time>2026-03-28T13:36:30.513Z</time></trkpt><trkpt lat="44.6546312" lon="10.869261"><ele>38.0</ele><time>2026-03-28T13:36:31.488Z</time></trkpt><trkpt lat="44.6543406" lon="10.8693226"><ele>37.0</ele><time>2026-03-28T13:36:32.514Z</time></trkpt><trkpt lat="44.6540585" lon="10.8694105"><ele>37.0</ele><time>2026-03-28T13:36:33.512Z</time></trkpt><trkpt lat="44.6537692" lon="10.8695193"><ele>37.0</ele><time>2026-03-28T13:36:34.494Z</time></trkpt><trkpt lat="44.6534916" lon="10.8696448"><ele>38.5</ele><time>2026-03-28T13:36:35.512Z</time></trkpt><trkpt lat="44.6532202" lon="10.8697905"><ele>40.0</ele><time>2026-03-28T13:36:36.495Z</time></trkpt><trkpt lat="44.6529578" lon="10.8699648"><ele>40.5</ele><time>2026-03-28T13:36:37.492Z</time></trkpt><trkpt lat="44.6526949" lon="10.8701498"><ele>41.0</ele><time>2026-03-28T13:36:38.494Z</time></trkpt><trkpt lat="44.6524433" lon="10.8703482"><ele>41.0</ele><time>2026-03-28T13:36:39.495Z</time></trkpt><trkpt lat="44.6521941" lon="10.8705626"><ele>41.0</ele><time>2026-03-28T13:36:40.5Z</time></trkpt><trkpt lat="44.6519563" lon="10.8707954"><ele>42.5</ele><time>2026-03-28T13:36:41.497Z</time></trkpt><trkpt lat="44.6517261" lon="10.8710353"><ele>44.0</ele><time>2026-03-28T13:36:42.489Z</time></trkpt><trkpt lat="44.6515008" lon="10.8712796"><ele>44.0</ele><time>2026-03-28T13:36:43.504Z</time></trkpt><trkpt lat="44.6512911" lon="10.8715319"><ele>44.0</ele><time>2026-03-28T13:36:44.489Z</time></trkpt><trkpt lat="44.6510911" lon="10.871814"><ele>43.0</ele><time>2026-03-28T13:36:45.496Z</time></trkpt><trkpt lat="44.6509068" lon="10.8721132"><ele>42.0</ele><time>2026-03-28T13:36:46.493Z</time></trkpt><trkpt lat="44.6507316" lon="10.8724023"><ele>40.0</ele><time>2026-03-28T13:36:47.491Z</time></trkpt><trkpt lat="44.650566" lon="10.8726862"><ele>38.0</ele><time>2026-03-28T13:36:48.496Z</time></trkpt><trkpt lat="44.6503992" lon="10.8729399"><ele>37.5</ele><time>2026-03-28T13:36:49.49Z</time></trkpt><trkpt lat="44.6502303" lon="10.8731757"><ele>37.0</ele><time>2026-03-28T13:36:50.504Z</time></trkpt><trkpt lat="44.6500426" lon="10.8734136"><ele>36.5</ele><time>2026-03-28T13:36:51.49Z</time></trkpt><trkpt lat="44.6498354" lon="10.8736498"><ele>36.0</ele><time>2026-03-28T13:36:52.486Z</time></trkpt><trkpt lat="44.6496088" lon="10.8738635"><ele>36.5</ele><time>2026-03-28T13:36:53.481Z</time></trkpt><trkpt lat="44.6493894" lon="10.8740559"><ele>37.0</ele><time>2026-03-28T13:36:54.485Z</time></trkpt><trkpt lat="44.6491541" lon="10.8742162"><ele>37.0</ele><time>2026-03-28T13:36:55.497Z</time></trkpt><trkpt lat="44.6489099" lon="10.8743903"><ele>37.0</ele><time>2026-03-28T13:36:56.49Z</time></trkpt><trkpt lat="44.6486576" lon="10.8745367"><ele>37.0</ele><time>2026-03-28T13:36:57.486Z</time></trkpt><trkpt lat="44.6483876" lon="10.8746704"><ele>37.0</ele><time>2026-03-28T13:36:58.487Z</time></trkpt><trkpt lat="44.6481078" lon="10.874795"><ele>37.0</ele><time>2026-03-28T13:36:59.485Z</time></trkpt><trkpt lat="44.6478287" lon="10.8749148"><ele>37.0</ele><time>2026-03-28T13:37:00.501Z</time></trkpt><trkpt lat="44.6475581" lon="10.8750368"><ele>37.0</ele><time>2026-03-28T13:37:01.499Z</time></trkpt><trkpt lat="44.6472702" lon="10.8751519"><ele>37.0</ele><time>2026-03-28T13:37:02.496Z</time></trkpt><trkpt lat="44.6469973" lon="10.8752749"><ele>38.5</ele><time>2026-03-28T13:37:03.499Z</time></trkpt><trkpt lat="44.6467137" lon="10.8754"><ele>40.0</ele><time>2026-03-28T13:37:04.501Z</time></trkpt><trkpt lat="44.6464303" lon="10.875521"><ele>40.0</ele><time>2026-03-28T13:37:05.51Z</time></trkpt><trkpt lat="44.646144" lon="10.8756475"><ele>40.0</ele><time>2026-03-28T13:37:06.509Z</time></trkpt><trkpt lat="44.6458745" lon="10.8757648"><ele>39.5</ele><time>2026-03-28T13:37:07.505Z</time></trkpt><trkpt lat="44.6455952" lon="10.875899"><ele>39.0</ele><time>2026-03-28T13:37:08.512Z</time></trkpt><trkpt lat="44.6453084" lon="10.8760212"><ele>39.0</ele><time>2026-03-28T13:37:09.505Z</time></trkpt><trkpt lat="44.6450178" lon="10.8761504"><ele>39.0</ele><time>2026-03-28T13:37:10.505Z</time></trkpt><trkpt lat="44.6447176" lon="10.8762787"><ele>38.5</ele><time>2026-03-28T13:37:11.517Z</time></trkpt><trkpt lat="44.6444194" lon="10.8763984"><ele>38.0</ele><time>2026-03-28T13:37:12.505Z</time></trkpt><trkpt lat="44.6441112" lon="10.8765028"><ele>38.0</ele><time>2026-03-28T13:37:13.495Z</time></trkpt><trkpt lat="44.6437933" lon="10.8766046"><ele>38.0</ele><time>2026-03-28T13:37:14.497Z</time></trkpt><trkpt lat="44.6434699" lon="10.8767113"><ele>37.0</ele><time>2026-03-28T13:37:15.496Z</time></trkpt><trkpt lat="44.6431518" lon="10.8768074"><ele>36.0</ele><time>2026-03-28T13:37:16.502Z</time></trkpt><trkpt lat="44.6428447" lon="10.8769043"><ele>35.5</ele><time>2026-03-28T13:37:17.5Z</time></trkpt><trkpt lat="44.6425505" lon="10.8770022"><ele>35.0</ele><time>2026-03-28T13:37:18.499Z</time></trkpt><trkpt lat="44.6422559" lon="10.8770952"><ele>35.0</ele><time>2026-03-28T13:37:19.502Z</time></trkpt><trkpt lat="44.6419796" lon="10.877208"><ele>35.0</ele><time>2026-03-28T13:37:20.49Z</time></trkpt><trkpt lat="44.6417172" lon="10.8773488"><ele>36.0</ele><time>2026-03-28T13:37:21.505Z</time></trkpt><trkpt lat="44.6414605" lon="10.8775241"><ele>37.0</ele><time>2026-03-28T13:37:22.498Z</time></trkpt><trkpt lat="44.6412319" lon="10.8777362"><ele>38.5</ele><time>2026-03-28T13:37:23.495Z</time></trkpt><trkpt lat="44.6410241" lon="10.8779814"><ele>40.0</ele><time>2026-03-28T13:37:24.488Z</time></trkpt><trkpt lat="44.6408376" lon="10.8782561"><ele>39.5</ele><time>2026-03-28T13:37:25.499Z</time></trkpt><trkpt lat="44.6406481" lon="10.8785492"><ele>39.0</ele><time>2026-03-28T13:37:26.501Z</time></trkpt><trkpt lat="44.6404454" lon="10.8788248"><ele>39.0</ele><time>2026-03-28T13:37:27.495Z</time></trkpt><trkpt lat="44.6402325" lon="10.8790875"><ele>39.0</ele><time>2026-03-28T13:37:28.496Z</time></trkpt><trkpt lat="44.6400382" lon="10.8793309"><ele>38.5</ele><time>2026-03-28T13:37:29.493Z</time></trkpt><trkpt lat="44.6398553" lon="10.8795635"><ele>38.0</ele><time>2026-03-28T13:37:30.499Z</time></trkpt><trkpt lat="44.6396581" lon="10.8797857"><ele>39.0</ele><time>2026-03-28T13:37:31.493Z</time></trkpt><trkpt lat="44.6394617" lon="10.8799993"><ele>40.0</ele><time>2026-03-28T13:37:32.501Z</time></trkpt><trkpt lat="44.6392456" lon="10.8801941"><ele>40.0</ele><time>2026-03-28T13:37:33.499Z</time></trkpt><trkpt lat="44.6390303" lon="10.8803959"><ele>40.0</ele><time>2026-03-28T13:37:34.486Z</time></trkpt><trkpt lat="44.6388128" lon="10.8805949"><ele>40.0</ele><time>2026-03-28T13:37:35.5Z</time></trkpt><trkpt lat="44.6385881" lon="10.8807987"><ele>40.0</ele><time>2026-03-28T13:37:36.493Z</time></trkpt><trkpt lat="44.6383555" lon="10.8809642"><ele>40.0</ele><time>2026-03-28T13:37:37.496Z</time></trkpt><trkpt lat="44.6381385" lon="10.8811181"><ele>40.0</ele><time>2026-03-28T13:37:38.486Z</time></trkpt><trkpt lat="44.6379523" lon="10.881237"><ele>40.0</ele><time>2026-03-28T13:37:39.495Z</time></trkpt><trkpt lat="44.6377778" lon="10.881331"><ele>39.333333333333336</ele><time>2026-03-28T13:37:40.489Z</time></trkpt><trkpt lat="44.6376027" lon="10.8814172"><ele>38.666666666666664</ele><time>2026-03-28T13:37:41.496Z</time></trkpt><trkpt lat="44.6374384" lon="10.8815016"><ele>38.0</ele><time>2026-03-28T13:37:42.503Z</time></trkpt><trkpt lat="44.6372924" lon="10.881557"><ele>38.0</ele><time>2026-03-28T13:37:43.506Z</time></trkpt><trkpt lat="44.6371536" lon="10.8816042"><ele>38.0</ele><time>2026-03-28T13:37:44.503Z</time></trkpt><trkpt lat="44.6370091" lon="10.8816584"><ele>38.0</ele><time>2026-03-28T13:37:45.497Z</time></trkpt><trkpt lat="44.6368886" lon="10.8816707"><ele>38.0</ele><time>2026-03-28T13:37:46.502Z</time></trkpt><trkpt lat="44.6367773" lon="10.8816231"><ele>38.0</ele><time>2026-03-28T13:37:47.501Z</time></trkpt><trkpt lat="44.636694" lon="10.881499"><ele>38.0</ele><time>2026-03-28T13:37:48.515Z</time></trkpt><trkpt lat="44.636659" lon="10.8813319"><ele>38.0</ele><time>2026-03-28T13:37:49.505Z</time></trkpt><trkpt lat="44.6366616" lon="10.8811677"><ele>38.0</ele><time>2026-03-28T13:37:50.508Z</time></trkpt><trkpt lat="44.6367044" lon="10.880976"><ele>38.33333333333333</ele><time>2026-03-28T13:37:51.504Z</time></trkpt><trkpt lat="44.6367672" lon="10.8807371"><ele>38.666666666666664</ele><time>2026-03-28T13:37:52.501Z</time></trkpt><trkpt lat="44.6368272" lon="10.8804501"><ele>39.0</ele><time>2026-03-28T13:37:53.509Z</time></trkpt><trkpt lat="44.6369082" lon="10.8801424"><ele>38.666666666666664</ele><time>2026-03-28T13:37:54.503Z</time></trkpt><trkpt lat="44.6369893" lon="10.8798617"><ele>38.33333333333333</ele><time>2026-03-28T13:37:55.496Z</time></trkpt><trkpt lat="44.6370701" lon="10.8796069"><ele>38.0</ele><time>2026-03-28T13:37:56.497Z</time></trkpt><trkpt lat="44.6371323" lon="10.8793855"><ele>39.0</ele><time>2026-03-28T13:37:57.5Z</time></trkpt><trkpt lat="44.6371882" lon="10.8791608"><ele>40.0</ele><time>2026-03-28T13:37:58.507Z</time></trkpt><trkpt lat="44.6372393" lon="10.8789622"><ele>41.0</ele><time>2026-03-28T13:37:59.495Z</time></trkpt><trkpt lat="44.637284" lon="10.8787831"><ele>41.0</ele><time>2026-03-28T13:38:00.484Z</time></trkpt><trkpt lat="44.6373201" lon="10.8786361"><ele>41.0</ele><time>2026-03-28T13:38:01.498Z</time></trkpt><trkpt lat="44.6373659" lon="10.8785038"><ele>41.0</ele><time>2026-03-28T13:38:02.496Z</time></trkpt><trkpt lat="44.6373957" lon="10.8783777"><ele>41.0</ele><time>2026-03-28T13:38:03.503Z</time></trkpt><trkpt lat="44.6374339" lon="10.8782409"><ele>41.0</ele><time>2026-03-28T13:38:05.491Z</time></trkpt><trkpt lat="44.6374464" lon="10.8781249"><ele>41.5</ele><time>2026-03-28T13:38:12.51Z</time></trkpt><trkpt lat="44.6374199" lon="10.8779992"><ele>42.0</ele><time>2026-03-28T13:38:13.492Z</time></trkpt><trkpt lat="44.6373586" lon="10.8778266"><ele>42.5</ele><time>2026-03-28T13:38:14.491Z</time></trkpt><trkpt lat="44.6372941" lon="10.8776305"><ele>43.0</ele><time>2026-03-28T13:38:15.491Z</time></trkpt><trkpt lat="44.637241" lon="10.877404"><ele>43.0</ele><time>2026-03-28T13:38:16.499Z</time></trkpt><trkpt lat="44.6371835" lon="10.8771545"><ele>43.0</ele><time>2026-03-28T13:38:17.494Z</time></trkpt><trkpt lat="44.6371104" lon="10.8769116"><ele>43.0</ele><time>2026-03-28T13:38:18.502Z</time></trkpt><trkpt lat="44.6370477" lon="10.876709"><ele>42.75</ele><time>2026-03-28T13:38:19.492Z</time></trkpt><trkpt lat="44.6369889" lon="10.8765297"><ele>42.5</ele><time>2026-03-28T13:38:20.493Z</time></trkpt><trkpt lat="44.636951" lon="10.8764058"><ele>42.25</ele><time>2026-03-28T13:38:21.489Z</time></trkpt><trkpt lat="44.6369281" lon="10.876284"><ele>42.0</ele><time>2026-03-28T13:38:22.494Z</time></trkpt><trkpt lat="44.6369017" lon="10.8761087"><ele>41.666666666666664</ele><time>2026-03-28T13:38:23.485Z</time></trkpt><trkpt lat="44.6368792" lon="10.8758923"><ele>41.33333333333333</ele><time>2026-03-28T13:38:24.496Z</time></trkpt><trkpt lat="44.6368393" lon="10.87566"><ele>41.0</ele><time>2026-03-28T13:38:25.488Z</time></trkpt><trkpt lat="44.6368026" lon="10.8754172"><ele>41.0</ele><time>2026-03-28T13:38:26.493Z</time></trkpt><trkpt lat="44.6367559" lon="10.8751706"><ele>41.0</ele><time>2026-03-28T13:38:27.498Z</time></trkpt><trkpt lat="44.636689" lon="10.8749256"><ele>41.0</ele><time>2026-03-28T13:38:28.507Z</time></trkpt><trkpt lat="44.6366339" lon="10.8746757"><ele>41.0</ele><time>2026-03-28T13:38:29.501Z</time></trkpt><trkpt lat="44.6365745" lon="10.8744221"><ele>41.0</ele><time>2026-03-28T13:38:30.504Z</time></trkpt><trkpt lat="44.6365213" lon="10.8741845"><ele>41.0</ele><time>2026-03-28T13:38:31.496Z</time></trkpt><trkpt lat="44.6364604" lon="10.8739662"><ele>41.0</ele><time>2026-03-28T13:38:32.496Z</time></trkpt><trkpt lat="44.6364049" lon="10.8737556"><ele>41.0</ele><time>2026-03-28T13:38:33.502Z</time></trkpt><trkpt lat="44.6363516" lon="10.8735658"><ele>41.0</ele><time>2026-03-28T13:38:34.503Z</time></trkpt><trkpt lat="44.6363019" lon="10.8733843"><ele>41.0</ele><time>2026-03-28T13:38:35.508Z</time></trkpt><trkpt lat="44.6362513" lon="10.8731894"><ele>40.666666666666664</ele><time>2026-03-28T13:38:36.504Z</time></trkpt><trkpt lat="44.6361968" lon="10.8729714"><ele>40.333333333333336</ele><time>2026-03-28T13:38:37.516Z</time></trkpt><trkpt lat="44.6361591" lon="10.8727408"><ele>40.0</ele><time>2026-03-28T13:38:38.504Z</time></trkpt><trkpt lat="44.6361412" lon="10.8725126"><ele>40.5</ele><time>2026-03-28T13:38:39.504Z</time></trkpt><trkpt lat="44.6361283" lon="10.8722963"><ele>41.0</ele><time>2026-03-28T13:38:40.498Z</time></trkpt><trkpt lat="44.6361443" lon="10.8720983"><ele>41.5</ele><time>2026-03-28T13:38:41.512Z</time></trkpt><trkpt lat="44.6361665" lon="10.871904"><ele>42.0</ele><time>2026-03-28T13:38:42.508Z</time></trkpt><trkpt lat="44.6361869" lon="10.8717095"><ele>42.0</ele><time>2026-03-28T13:38:43.502Z</time></trkpt><trkpt lat="44.6362117" lon="10.8715115"><ele>42.0</ele><time>2026-03-28T13:38:44.515Z</time></trkpt><trkpt lat="44.636243" lon="10.8713132"><ele>42.0</ele><time>2026-03-28T13:38:45.505Z</time></trkpt><trkpt lat="44.6362643" lon="10.8711323"><ele>42.0</ele><time>2026-03-28T13:38:46.507Z</time></trkpt><trkpt lat="44.6362728" lon="10.8709871"><ele>42.0</ele><time>2026-03-28T13:38:47.493Z</time></trkpt><trkpt lat="44.6362669" lon="10.8708626"><ele>42.0</ele><time>2026-03-28T13:38:48.493Z</time></trkpt><trkpt lat="44.636233" lon="10.8707803"><ele>42.0</ele><time>2026-03-28T13:38:49.5Z</time></trkpt><trkpt lat="44.6361754" lon="10.8707223"><ele>42.0</ele><time>2026-03-28T13:38:50.494Z</time></trkpt><trkpt lat="44.6360852" lon="10.8706777"><ele>42.0</ele><time>2026-03-28T13:38:51.498Z</time></trkpt><trkpt lat="44.6359645" lon="10.8706424"><ele>42.0</ele><time>2026-03-28T13:38:52.482Z</time></trkpt><trkpt lat="44.6358295" lon="10.8706059"><ele>41.75</ele><time>2026-03-28T13:38:53.495Z</time></trkpt><trkpt lat="44.6356851" lon="10.8705816"><ele>41.5</ele><time>2026-03-28T13:38:54.492Z</time></trkpt><trkpt lat="44.6355483" lon="10.8705506"><ele>41.25</ele><time>2026-03-28T13:38:55.493Z</time></trkpt><trkpt lat="44.6354219" lon="10.8705058"><ele>41.0</ele><time>2026-03-28T13:38:56.492Z</time></trkpt><trkpt lat="44.6353065" lon="10.8704597"><ele>41.599999999999994</ele><time>2026-03-28T13:38:57.488Z</time></trkpt><trkpt lat="44.6351861" lon="10.8704247"><ele>42.2</ele><time>2026-03-28T13:38:58.501Z</time></trkpt><trkpt lat="44.6350667" lon="10.8703841"><ele>42.8</ele><time>2026-03-28T13:38:59.502Z</time></trkpt><trkpt lat="44.6349659" lon="10.8703534"><ele>43.400000000000006</ele><time>2026-03-28T13:39:00.499Z</time></trkpt><trkpt lat="44.6348761" lon="10.8703152"><ele>44.0</ele><time>2026-03-28T13:39:01.485Z</time></trkpt><trkpt lat="44.6348255" lon="10.8702586"><ele>44.25</ele><time>2026-03-28T13:39:02.481Z</time></trkpt><trkpt lat="44.6348144" lon="10.8700945"><ele>44.5</ele><time>2026-03-28T13:39:04.498Z</time></trkpt><trkpt lat="44.6348432" lon="10.8699458"><ele>44.75</ele><time>2026-03-28T13:39:05.495Z</time></trkpt><trkpt lat="44.6348681" lon="10.8697838"><ele>45.0</ele><time>2026-03-28T13:39:06.492Z</time></trkpt><trkpt lat="44.634901" lon="10.8695969"><ele>45.0</ele><time>2026-03-28T13:39:07.5Z</time></trkpt><trkpt lat="44.6349216" lon="10.8694042"><ele>45.0</ele><time>2026-03-28T13:39:08.5Z</time></trkpt><trkpt lat="44.634935" lon="10.8691969"><ele>45.0</ele><time>2026-03-28T13:39:09.508Z</time></trkpt><trkpt lat="44.6349175" lon="10.8689734"><ele>45.0</ele><time>2026-03-28T13:39:10.487Z</time></trkpt><trkpt lat="44.6348874" lon="10.8687416"><ele>45.0</ele><time>2026-03-28T13:39:11.493Z</time></trkpt><trkpt lat="44.6348682" lon="10.8685346"><ele>45.0</ele><time>2026-03-28T13:39:12.487Z</time></trkpt><trkpt lat="44.6348457" lon="10.8683229"><ele>45.0</ele><time>2026-03-28T13:39:13.489Z</time></trkpt><trkpt lat="44.6348272" lon="10.8681323"><ele>45.0</ele><time>2026-03-28T13:39:14.483Z</time></trkpt><trkpt lat="44.634831" lon="10.8679723"><ele>45.0</ele><time>2026-03-28T13:39:15.48Z</time></trkpt><trkpt lat="44.634816" lon="10.8678263"><ele>45.0</ele><time>2026-03-28T13:39:16.5Z</time></trkpt><trkpt lat="44.6347871" lon="10.8676879"><ele>45.0</ele><time>2026-03-28T13:39:17.483Z</time></trkpt><trkpt lat="44.6347813" lon="10.8675924"><ele>45.0</ele><time>2026-03-28T13:39:18.49Z</time></trkpt><trkpt lat="44.6348073" lon="10.8674971"><ele>45.0</ele><time>2026-03-28T13:39:20.491Z</time></trkpt><trkpt lat="44.634765" lon="10.8674096"><ele>45.0</ele><time>2026-03-28T13:39:22.495Z</time></trkpt><trkpt lat="44.6346493" lon="10.8673319"><ele>45.333333333333336</ele><time>2026-03-28T13:39:23.494Z</time></trkpt><trkpt lat="44.6344789" lon="10.8672645"><ele>45.66666666666667</ele><time>2026-03-28T13:39:24.481Z</time></trkpt><trkpt lat="44.6342502" lon="10.8671686"><ele>46.0</ele><time>2026-03-28T13:39:25.478Z</time></trkpt><trkpt lat="44.6340286" lon="10.8670776"><ele>46.5</ele><time>2026-03-28T13:39:26.491Z</time></trkpt><trkpt lat="44.6338156" lon="10.8669768"><ele>47.0</ele><time>2026-03-28T13:39:27.481Z</time></trkpt><trkpt lat="44.6335928" lon="10.8668716"><ele>46.33333333333333</ele><time>2026-03-28T13:39:28.494Z</time></trkpt><trkpt lat="44.6333839" lon="10.8667767"><ele>45.666666666666664</ele><time>2026-03-28T13:39:29.494Z</time></trkpt><trkpt lat="44.6332009" lon="10.8666936"><ele>45.0</ele><time>2026-03-28T13:39:30.497Z</time></trkpt><trkpt lat="44.6330414" lon="10.8666221"><ele>45.0</ele><time>2026-03-28T13:39:31.484Z</time></trkpt><trkpt lat="44.6329146" lon="10.8665687"><ele>45.0</ele><time>2026-03-28T13:39:32.482Z</time></trkpt><trkpt lat="44.6328264" lon="10.8665231"><ele>45.0</ele><time>2026-03-28T13:39:33.489Z</time></trkpt><trkpt lat="44.632809" lon="10.866426"><ele>45.0</ele><time>2026-03-28T13:39:34.496Z</time></trkpt><trkpt lat="44.6328014" lon="10.866272"><ele>45.0</ele><time>2026-03-28T13:39:35.504Z</time></trkpt><trkpt lat="44.6328221" lon="10.8660753"><ele>44.0</ele><time>2026-03-28T13:39:36.495Z</time></trkpt><trkpt lat="44.6328632" lon="10.8658338"><ele>43.0</ele><time>2026-03-28T13:39:37.502Z</time></trkpt><trkpt lat="44.6328804" lon="10.8656056"><ele>42.0</ele><time>2026-03-28T13:39:38.508Z</time></trkpt><trkpt lat="44.6329028" lon="10.8653508"><ele>42.333333333333336</ele><time>2026-03-28T13:39:39.504Z</time></trkpt><trkpt lat="44.6329336" lon="10.86508"><ele>42.66666666666667</ele><time>2026-03-28T13:39:40.499Z</time></trkpt><trkpt lat="44.6329707" lon="10.864802"><ele>43.0</ele><time>2026-03-28T13:39:41.506Z</time></trkpt><trkpt lat="44.633011" lon="10.8645133"><ele>43.0</ele><time>2026-03-28T13:39:42.497Z</time></trkpt><trkpt lat="44.6330435" lon="10.8642188"><ele>43.0</ele><time>2026-03-28T13:39:43.505Z</time></trkpt><trkpt lat="44.6330835" lon="10.8639067"><ele>43.0</ele><time>2026-03-28T13:39:44.502Z</time></trkpt><trkpt lat="44.6331246" lon="10.8635917"><ele>42.66666666666667</ele><time>2026-03-28T13:39:45.505Z</time></trkpt><trkpt lat="44.6331669" lon="10.8632907"><ele>42.333333333333336</ele><time>2026-03-28T13:39:46.504Z</time></trkpt><trkpt lat="44.6332032" lon="10.8629963"><ele>42.0</ele><time>2026-03-28T13:39:47.507Z</time></trkpt><trkpt lat="44.633237" lon="10.8626946"><ele>42.0</ele><time>2026-03-28T13:39:48.508Z</time></trkpt><trkpt lat="44.633275" lon="10.8623806"><ele>42.0</ele><time>2026-03-28T13:39:49.507Z</time></trkpt><trkpt lat="44.633317" lon="10.862065"><ele>42.0</ele><time>2026-03-28T13:39:50.508Z</time></trkpt><trkpt lat="44.6333572" lon="10.8617539"><ele>42.0</ele><time>2026-03-28T13:39:51.502Z</time></trkpt><trkpt lat="44.6333951" lon="10.8614364"><ele>42.0</ele><time>2026-03-28T13:39:52.514Z</time></trkpt><trkpt lat="44.6334337" lon="10.8611153"><ele>42.0</ele><time>2026-03-28T13:39:53.506Z</time></trkpt><trkpt lat="44.6334712" lon="10.8607929"><ele>42.333333333333336</ele><time>2026-03-28T13:39:54.509Z</time></trkpt><trkpt lat="44.6335091" lon="10.8604862"><ele>42.66666666666667</ele><time>2026-03-28T13:39:55.505Z</time></trkpt><trkpt lat="44.6335449" lon="10.8601894"><ele>43.0</ele><time>2026-03-28T13:39:56.503Z</time></trkpt><trkpt lat="44.633582" lon="10.8598943"><ele>43.0</ele><time>2026-03-28T13:39:57.508Z</time></trkpt><trkpt lat="44.6336118" lon="10.8595986"><ele>43.0</ele><time>2026-03-28T13:39:58.507Z</time></trkpt><trkpt lat="44.6336381" lon="10.859304"><ele>43.0</ele><time>2026-03-28T13:39:59.504Z</time></trkpt><trkpt lat="44.6336534" lon="10.8590023"><ele>43.0</ele><time>2026-03-28T13:40:00.515Z</time></trkpt><trkpt lat="44.6336673" lon="10.8587012"><ele>43.0</ele><time>2026-03-28T13:40:01.499Z</time></trkpt><trkpt lat="44.6336775" lon="10.858418"><ele>43.0</ele><time>2026-03-28T13:40:02.506Z</time></trkpt><trkpt lat="44.6336825" lon="10.8581432"><ele>43.0</ele><time>2026-03-28T13:40:03.506Z</time></trkpt><trkpt lat="44.6336825" lon="10.8578773"><ele>43.0</ele><time>2026-03-28T13:40:04.506Z</time></trkpt><trkpt lat="44.6336614" lon="10.8576091"><ele>43.0</ele><time>2026-03-28T13:40:05.5Z</time></trkpt><trkpt lat="44.6336168" lon="10.8573271"><ele>43.0</ele><time>2026-03-28T13:40:06.499Z</time></trkpt><trkpt lat="44.6335733" lon="10.8570472"><ele>43.0</ele><time>2026-03-28T13:40:07.504Z</time></trkpt><trkpt lat="44.6335352" lon="10.8567582"><ele>43.0</ele><time>2026-03-28T13:40:08.51Z</time></trkpt><trkpt lat="44.6334951" lon="10.8564775"><ele>43.0</ele><time>2026-03-28T13:40:09.503Z</time></trkpt><trkpt lat="44.633465" lon="10.8562049"><ele>43.0</ele><time>2026-03-28T13:40:10.507Z</time></trkpt><trkpt lat="44.6334392" lon="10.8559252"><ele>43.0</ele><time>2026-03-28T13:40:11.499Z</time></trkpt><trkpt lat="44.633413" lon="10.855644"><ele>43.0</ele><time>2026-03-28T13:40:12.508Z</time></trkpt><trkpt lat="44.633382" lon="10.8553545"><ele>43.0</ele><time>2026-03-28T13:40:13.501Z</time></trkpt><trkpt lat="44.6333408" lon="10.855077"><ele>43.0</ele><time>2026-03-28T13:40:14.502Z</time></trkpt><trkpt lat="44.633298" lon="10.854789"><ele>43.0</ele><time>2026-03-28T13:40:15.5Z</time></trkpt><trkpt lat="44.6332622" lon="10.8545101"><ele>43.0</ele><time>2026-03-28T13:40:16.499Z</time></trkpt><trkpt lat="44.6332174" lon="10.8542267"><ele>43.0</ele><time>2026-03-28T13:40:17.501Z</time></trkpt><trkpt lat="44.6331837" lon="10.8539575"><ele>43.333333333333336</ele><time>2026-03-28T13:40:18.492Z</time></trkpt><trkpt lat="44.6331647" lon="10.8536913"><ele>43.666666666666664</ele><time>2026-03-28T13:40:19.501Z</time></trkpt><trkpt lat="44.6331577" lon="10.8534492"><ele>44.0</ele><time>2026-03-28T13:40:20.488Z</time></trkpt><trkpt lat="44.63314" lon="10.853215"><ele>44.0</ele><time>2026-03-28T13:40:21.495Z</time></trkpt><trkpt lat="44.6331196" lon="10.85299"><ele>44.0</ele><time>2026-03-28T13:40:22.506Z</time></trkpt><trkpt lat="44.6331021" lon="10.8527457"><ele>44.0</ele><time>2026-03-28T13:40:23.501Z</time></trkpt><trkpt lat="44.6330986" lon="10.8524879"><ele>44.0</ele><time>2026-03-28T13:40:24.505Z</time></trkpt><trkpt lat="44.6331013" lon="10.8522151"><ele>44.0</ele><time>2026-03-28T13:40:25.503Z</time></trkpt><trkpt lat="44.6331052" lon="10.8519468"><ele>44.0</ele><time>2026-03-28T13:40:26.49Z</time></trkpt><trkpt lat="44.6331015" lon="10.8516851"><ele>44.0</ele><time>2026-03-28T13:40:27.488Z</time></trkpt><trkpt lat="44.6331038" lon="10.851422"><ele>44.0</ele><time>2026-03-28T13:40:28.488Z</time></trkpt><trkpt lat="44.6330928" lon="10.8511556"><ele>44.0</ele><time>2026-03-28T13:40:29.489Z</time></trkpt><trkpt lat="44.6330803" lon="10.8509012"><ele>43.666666666666664</ele><time>2026-03-28T13:40:30.503Z</time></trkpt><trkpt lat="44.6330681" lon="10.8506408"><ele>43.333333333333336</ele><time>2026-03-28T13:40:31.497Z</time></trkpt><trkpt lat="44.6330657" lon="10.8503828"><ele>43.0</ele><time>2026-03-28T13:40:32.49Z</time></trkpt><trkpt lat="44.6330557" lon="10.8501293"><ele>43.0</ele><time>2026-03-28T13:40:33.508Z</time></trkpt><trkpt lat="44.6330464" lon="10.8498725"><ele>43.0</ele><time>2026-03-28T13:40:34.501Z</time></trkpt><trkpt lat="44.6330426" lon="10.8496219"><ele>43.0</ele><time>2026-03-28T13:40:35.496Z</time></trkpt><trkpt lat="44.6330452" lon="10.849364"><ele>43.333333333333336</ele><time>2026-03-28T13:40:36.498Z</time></trkpt><trkpt lat="44.6330402" lon="10.849113"><ele>43.666666666666664</ele><time>2026-03-28T13:40:37.498Z</time></trkpt><trkpt lat="44.6330207" lon="10.8488548"><ele>44.0</ele><time>2026-03-28T13:40:38.501Z</time></trkpt><trkpt lat="44.6330071" lon="10.8485798"><ele>44.666666666666664</ele><time>2026-03-28T13:40:39.5Z</time></trkpt><trkpt lat="44.633" lon="10.8483203"><ele>45.333333333333336</ele><time>2026-03-28T13:40:40.504Z</time></trkpt><trkpt lat="44.6329868" lon="10.8480586"><ele>46.0</ele><time>2026-03-28T13:40:41.511Z</time></trkpt><trkpt lat="44.6329739" lon="10.8478157"><ele>46.0</ele><time>2026-03-28T13:40:42.508Z</time></trkpt><trkpt lat="44.6329772" lon="10.8475969"><ele>46.0</ele><time>2026-03-28T13:40:43.499Z</time></trkpt><trkpt lat="44.6329715" lon="10.8473897"><ele>46.0</ele><time>2026-03-28T13:40:44.504Z</time></trkpt><trkpt lat="44.632966" lon="10.8471867"><ele>46.0</ele><time>2026-03-28T13:40:45.502Z</time></trkpt><trkpt lat="44.6329473" lon="10.8470142"><ele>46.0</ele><time>2026-03-28T13:40:46.493Z</time></trkpt><trkpt lat="44.6329459" lon="10.8468573"><ele>46.0</ele><time>2026-03-28T13:40:47.496Z</time></trkpt><trkpt lat="44.6329422" lon="10.8467342"><ele>46.0</ele><time>2026-03-28T13:40:48.492Z</time></trkpt><trkpt lat="44.6329512" lon="10.846628"><ele>46.0</ele><time>2026-03-28T13:40:49.495Z</time></trkpt><trkpt lat="44.633016" lon="10.846562"><ele>46.0</ele><time>2026-03-28T13:40:51.5Z</time></trkpt><trkpt lat="44.6331543" lon="10.8466377"><ele>46.0</ele><time>2026-03-28T13:40:53.49Z</time></trkpt><trkpt lat="44.6332477" lon="10.8466949"><ele>46.0</ele><time>2026-03-28T13:40:54.504Z</time></trkpt><trkpt lat="44.6333659" lon="10.8467606"><ele>46.0</ele><time>2026-03-28T13:40:55.499Z</time></trkpt><trkpt lat="44.6334854" lon="10.8468306"><ele>46.0</ele><time>2026-03-28T13:40:56.503Z</time></trkpt><trkpt lat="44.6336188" lon="10.8468995"><ele>45.333333333333336</ele><time>2026-03-28T13:40:57.505Z</time></trkpt><trkpt lat="44.6337607" lon="10.846979"><ele>44.666666666666664</ele><time>2026-03-28T13:40:58.501Z</time></trkpt><trkpt lat="44.6339021" lon="10.8470645"><ele>44.0</ele><time>2026-03-28T13:40:59.506Z</time></trkpt><trkpt lat="44.6340438" lon="10.8471574"><ele>44.0</ele><time>2026-03-28T13:41:00.512Z</time></trkpt><trkpt lat="44.6341925" lon="10.8472494"><ele>44.0</ele><time>2026-03-28T13:41:01.508Z</time></trkpt><trkpt lat="44.6343395" lon="10.8473359"><ele>44.0</ele><time>2026-03-28T13:41:02.516Z</time></trkpt><trkpt lat="44.6344789" lon="10.8474252"><ele>44.2</ele><time>2026-03-28T13:41:03.513Z</time></trkpt><trkpt lat="44.634606" lon="10.8475016"><ele>44.400000000000006</ele><time>2026-03-28T13:41:04.502Z</time></trkpt><trkpt lat="44.6347276" lon="10.8475762"><ele>44.6</ele><time>2026-03-28T13:41:05.498Z</time></trkpt><trkpt lat="44.6348272" lon="10.8476019"><ele>44.8</ele><time>2026-03-28T13:41:06.516Z</time></trkpt><trkpt lat="44.6349013" lon="10.8475736"><ele>45.0</ele><time>2026-03-28T13:41:07.507Z</time></trkpt><trkpt lat="44.6349678" lon="10.8474803"><ele>45.0</ele><time>2026-03-28T13:41:08.512Z</time></trkpt><trkpt lat="44.6350135" lon="10.847329"><ele>45.0</ele><time>2026-03-28T13:41:09.503Z</time></trkpt><trkpt lat="44.6350622" lon="10.8471485"><ele>45.0</ele><time>2026-03-28T13:41:10.488Z</time></trkpt><trkpt lat="44.6351211" lon="10.8469587"><ele>45.0</ele><time>2026-03-28T13:41:11.504Z</time></trkpt><trkpt lat="44.6351933" lon="10.8467678"><ele>44.333333333333336</ele><time>2026-03-28T13:41:12.509Z</time></trkpt><trkpt lat="44.6352578" lon="10.8465607"><ele>43.66666666666667</ele><time>2026-03-28T13:41:13.504Z</time></trkpt><trkpt lat="44.6353253" lon="10.8463374"><ele>43.0</ele><time>2026-03-28T13:41:14.505Z</time></trkpt><trkpt lat="44.6353999" lon="10.8461022"><ele>43.0</ele><time>2026-03-28T13:41:15.51Z</time></trkpt><trkpt lat="44.6354615" lon="10.8458759"><ele>43.0</ele><time>2026-03-28T13:41:16.519Z</time></trkpt><trkpt lat="44.6355261" lon="10.8456511"><ele>43.0</ele><time>2026-03-28T13:41:17.508Z</time></trkpt><trkpt lat="44.6355967" lon="10.8454175"><ele>43.0</ele><time>2026-03-28T13:41:18.521Z</time></trkpt><trkpt lat="44.6356701" lon="10.8451827"><ele>43.0</ele><time>2026-03-28T13:41:19.515Z</time></trkpt><trkpt lat="44.6357419" lon="10.8449472"><ele>43.0</ele><time>2026-03-28T13:41:20.516Z</time></trkpt><trkpt lat="44.6358189" lon="10.8447057"><ele>43.0</ele><time>2026-03-28T13:41:21.514Z</time></trkpt><trkpt lat="44.6358945" lon="10.8444762"><ele>43.0</ele><time>2026-03-28T13:41:22.516Z</time></trkpt><trkpt lat="44.6359641" lon="10.8442624"><ele>43.0</ele><time>2026-03-28T13:41:23.511Z</time></trkpt><trkpt lat="44.6360174" lon="10.8440773"><ele>43.0</ele><time>2026-03-28T13:41:24.519Z</time></trkpt><trkpt lat="44.6360832" lon="10.8438636"><ele>43.0</ele><time>2026-03-28T13:41:25.501Z</time></trkpt><trkpt lat="44.6361578" lon="10.8436078"><ele>43.0</ele><time>2026-03-28T13:41:26.502Z</time></trkpt><trkpt lat="44.6362413" lon="10.8433369"><ele>43.0</ele><time>2026-03-28T13:41:27.513Z</time></trkpt><trkpt lat="44.6363266" lon="10.8430492"><ele>43.0</ele><time>2026-03-28T13:41:28.514Z</time></trkpt><trkpt lat="44.6364026" lon="10.8427766"><ele>43.0</ele><time>2026-03-28T13:41:29.511Z</time></trkpt><trkpt lat="44.6364812" lon="10.8425207"><ele>43.0</ele><time>2026-03-28T13:41:30.513Z</time></trkpt><trkpt lat="44.6365603" lon="10.8422745"><ele>43.0</ele><time>2026-03-28T13:41:31.512Z</time></trkpt><trkpt lat="44.6366314" lon="10.8420298"><ele>43.0</ele><time>2026-03-28T13:41:32.52Z</time></trkpt><trkpt lat="44.6367016" lon="10.841804"><ele>43.66666666666667</ele><time>2026-03-28T13:41:33.523Z</time></trkpt><trkpt lat="44.6367717" lon="10.8415798"><ele>44.333333333333336</ele><time>2026-03-28T13:41:34.515Z</time></trkpt><trkpt lat="44.6368382" lon="10.841357"><ele>45.0</ele><time>2026-03-28T13:41:35.513Z</time></trkpt><trkpt lat="44.6368997" lon="10.8411371"><ele>45.0</ele><time>2026-03-28T13:41:36.512Z</time></trkpt><trkpt lat="44.6369689" lon="10.8409084"><ele>45.0</ele><time>2026-03-28T13:41:37.508Z</time></trkpt><trkpt lat="44.6370358" lon="10.8406667"><ele>45.0</ele><time>2026-03-28T13:41:38.51Z</time></trkpt><trkpt lat="44.6371156" lon="10.8403987"><ele>45.5</ele><time>2026-03-28T13:41:39.502Z</time></trkpt><trkpt lat="44.6372012" lon="10.8401081"><ele>46.0</ele><time>2026-03-28T13:41:40.506Z</time></trkpt><trkpt lat="44.6372905" lon="10.8398107"><ele>46.0</ele><time>2026-03-28T13:41:41.512Z</time></trkpt><trkpt lat="44.6373851" lon="10.8395217"><ele>46.0</ele><time>2026-03-28T13:41:42.511Z</time></trkpt><trkpt lat="44.6374729" lon="10.8392547"><ele>46.0</ele><time>2026-03-28T13:41:43.525Z</time></trkpt><trkpt lat="44.6375622" lon="10.838976"><ele>45.5</ele><time>2026-03-28T13:41:44.524Z</time></trkpt><trkpt lat="44.637651" lon="10.8386793"><ele>45.0</ele><time>2026-03-28T13:41:45.516Z</time></trkpt><trkpt lat="44.6377501" lon="10.8383958"><ele>44.333333333333336</ele><time>2026-03-28T13:41:46.513Z</time></trkpt><trkpt lat="44.6378341" lon="10.8381187"><ele>43.66666666666667</ele><time>2026-03-28T13:41:47.521Z</time></trkpt><trkpt lat="44.6379099" lon="10.8378526"><ele>43.0</ele><time>2026-03-28T13:41:48.511Z</time></trkpt><trkpt lat="44.6379799" lon="10.8376127"><ele>43.0</ele><time>2026-03-28T13:41:49.509Z</time></trkpt><trkpt lat="44.6380579" lon="10.8373688"><ele>43.0</ele><time>2026-03-28T13:41:50.523Z</time></trkpt><trkpt lat="44.6381438" lon="10.8371285"><ele>43.0</ele><time>2026-03-28T13:41:51.511Z</time></trkpt><trkpt lat="44.6382172" lon="10.8368883"><ele>44.0</ele><time>2026-03-28T13:41:52.521Z</time></trkpt><trkpt lat="44.6382903" lon="10.8366556"><ele>45.0</ele><time>2026-03-28T13:41:53.509Z</time></trkpt><trkpt lat="44.6383586" lon="10.8364364"><ele>46.0</ele><time>2026-03-28T13:41:54.514Z</time></trkpt><trkpt lat="44.6384203" lon="10.8362266"><ele>46.0</ele><time>2026-03-28T13:41:55.507Z</time></trkpt><trkpt lat="44.6384772" lon="10.8360374"><ele>46.0</ele><time>2026-03-28T13:41:56.505Z</time></trkpt><trkpt lat="44.6385282" lon="10.8358599"><ele>46.0</ele><time>2026-03-28T13:41:57.497Z</time></trkpt><trkpt lat="44.6385794" lon="10.8357221"><ele>46.0</ele><time>2026-03-28T13:41:58.497Z</time></trkpt><trkpt lat="44.638604" lon="10.8356024"><ele>46.0</ele><time>2026-03-28T13:41:59.498Z</time></trkpt><trkpt lat="44.63858" lon="10.8354751"><ele>46.0</ele><time>2026-03-28T13:42:00.503Z</time></trkpt><trkpt lat="44.6385229" lon="10.8353555"><ele>46.0</ele><time>2026-03-28T13:42:01.511Z</time></trkpt><trkpt lat="44.6384437" lon="10.8352374"><ele>46.0</ele><time>2026-03-28T13:42:02.501Z</time></trkpt><trkpt lat="44.6383467" lon="10.8350995"><ele>45.66666666666667</ele><time>2026-03-28T13:42:03.504Z</time></trkpt><trkpt lat="44.6382371" lon="10.8349471"><ele>45.333333333333336</ele><time>2026-03-28T13:42:04.505Z</time></trkpt><trkpt lat="44.6381235" lon="10.8347735"><ele>45.0</ele><time>2026-03-28T13:42:05.499Z</time></trkpt><trkpt lat="44.6380051" lon="10.8345781"><ele>45.0</ele><time>2026-03-28T13:42:06.51Z</time></trkpt><trkpt lat="44.6379084" lon="10.8343609"><ele>45.0</ele><time>2026-03-28T13:42:07.517Z</time></trkpt><trkpt lat="44.6378413" lon="10.8341109"><ele>45.0</ele><time>2026-03-28T13:42:08.509Z</time></trkpt><trkpt lat="44.6378093" lon="10.8338483"><ele>45.0</ele><time>2026-03-28T13:42:09.514Z</time></trkpt><trkpt lat="44.637758" lon="10.8335866"><ele>45.0</ele><time>2026-03-28T13:42:10.516Z</time></trkpt><trkpt lat="44.6376985" lon="10.8333359"><ele>45.0</ele><time>2026-03-28T13:42:11.513Z</time></trkpt><trkpt lat="44.6376593" lon="10.8330865"><ele>45.0</ele><time>2026-03-28T13:42:12.518Z</time></trkpt><trkpt lat="44.6376142" lon="10.8328333"><ele>45.0</ele><time>2026-03-28T13:42:13.521Z</time></trkpt><trkpt lat="44.6375731" lon="10.8325785"><ele>45.0</ele><time>2026-03-28T13:42:14.511Z</time></trkpt><trkpt lat="44.6375282" lon="10.8323081"><ele>45.0</ele><time>2026-03-28T13:42:15.508Z</time></trkpt><trkpt lat="44.6374656" lon="10.8320581"><ele>45.0</ele><time>2026-03-28T13:42:16.513Z</time></trkpt><trkpt lat="44.6373973" lon="10.8318208"><ele>45.0</ele><time>2026-03-28T13:42:17.514Z</time></trkpt><trkpt lat="44.6373097" lon="10.8315749"><ele>44.666666666666664</ele><time>2026-03-28T13:42:18.515Z</time></trkpt><trkpt lat="44.6372107" lon="10.8313261"><ele>44.33333333333333</ele><time>2026-03-28T13:42:19.52Z</time></trkpt><trkpt lat="44.6371222" lon="10.8310753"><ele>44.0</ele><time>2026-03-28T13:42:20.521Z</time></trkpt><trkpt lat="44.6370357" lon="10.8308356"><ele>44.0</ele><time>2026-03-28T13:42:21.513Z</time></trkpt><trkpt lat="44.6369395" lon="10.8305749"><ele>44.0</ele><time>2026-03-28T13:42:22.512Z</time></trkpt><trkpt lat="44.6368691" lon="10.8303126"><ele>44.0</ele><time>2026-03-28T13:42:23.514Z</time></trkpt><trkpt lat="44.6368061" lon="10.8300461"><ele>44.0</ele><time>2026-03-28T13:42:24.516Z</time></trkpt><trkpt lat="44.6367639" lon="10.8297793"><ele>44.0</ele><time>2026-03-28T13:42:25.513Z</time></trkpt><trkpt lat="44.6367342" lon="10.8295263"><ele>44.0</ele><time>2026-03-28T13:42:26.521Z</time></trkpt><trkpt lat="44.6367114" lon="10.8292705"><ele>44.0</ele><time>2026-03-28T13:42:27.514Z</time></trkpt><trkpt lat="44.6366897" lon="10.8290025"><ele>44.0</ele><time>2026-03-28T13:42:28.508Z</time></trkpt><trkpt lat="44.6366493" lon="10.8287258"><ele>44.0</ele><time>2026-03-28T13:42:29.505Z</time></trkpt><trkpt lat="44.6366142" lon="10.8284526"><ele>44.33333333333333</ele><time>2026-03-28T13:42:30.512Z</time></trkpt><trkpt lat="44.6365907" lon="10.8281701"><ele>44.666666666666664</ele><time>2026-03-28T13:42:31.507Z</time></trkpt><trkpt lat="44.6365729" lon="10.8278895"><ele>45.0</ele><time>2026-03-28T13:42:32.516Z</time></trkpt><trkpt lat="44.6365371" lon="10.827605"><ele>45.666666666666664</ele><time>2026-03-28T13:42:33.516Z</time></trkpt><trkpt lat="44.6365085" lon="10.8273158"><ele>46.33333333333333</ele><time>2026-03-28T13:42:34.518Z</time></trkpt><trkpt lat="44.6364831" lon="10.8270266"><ele>47.0</ele><time>2026-03-28T13:42:35.516Z</time></trkpt><trkpt lat="44.636462" lon="10.8267315"><ele>47.0</ele><time>2026-03-28T13:42:36.514Z</time></trkpt><trkpt lat="44.6364339" lon="10.8264374"><ele>47.0</ele><time>2026-03-28T13:42:37.515Z</time></trkpt><trkpt lat="44.6364062" lon="10.826132"><ele>47.0</ele><time>2026-03-28T13:42:38.512Z</time></trkpt><trkpt lat="44.6363808" lon="10.8258488"><ele>47.0</ele><time>2026-03-28T13:42:39.517Z</time></trkpt><trkpt lat="44.6363523" lon="10.825565"><ele>47.0</ele><time>2026-03-28T13:42:40.507Z</time></trkpt><trkpt lat="44.6363234" lon="10.8252922"><ele>47.0</ele><time>2026-03-28T13:42:41.505Z</time></trkpt><trkpt lat="44.636298" lon="10.8250145"><ele>47.33333333333333</ele><time>2026-03-28T13:42:42.502Z</time></trkpt><trkpt lat="44.6362691" lon="10.8247271"><ele>47.666666666666664</ele><time>2026-03-28T13:42:43.502Z</time></trkpt><trkpt lat="44.6362207" lon="10.8244333"><ele>48.0</ele><time>2026-03-28T13:42:44.509Z</time></trkpt><trkpt lat="44.6361831" lon="10.8241426"><ele>48.0</ele><time>2026-03-28T13:42:45.505Z</time></trkpt><trkpt lat="44.6361588" lon="10.8238487"><ele>48.0</ele><time>2026-03-28T13:42:46.503Z</time></trkpt><trkpt lat="44.6361218" lon="10.823552"><ele>48.0</ele><time>2026-03-28T13:42:47.51Z</time></trkpt><trkpt lat="44.6360931" lon="10.8232541"><ele>48.0</ele><time>2026-03-28T13:42:48.509Z</time></trkpt><trkpt lat="44.6360745" lon="10.8229598"><ele>48.0</ele><time>2026-03-28T13:42:49.509Z</time></trkpt><trkpt lat="44.6360387" lon="10.8226753"><ele>48.0</ele><time>2026-03-28T13:42:50.507Z</time></trkpt><trkpt lat="44.6360061" lon="10.8223832"><ele>48.0</ele><time>2026-03-28T13:42:51.514Z</time></trkpt><trkpt lat="44.6359842" lon="10.8220996"><ele>48.0</ele><time>2026-03-28T13:42:52.513Z</time></trkpt><trkpt lat="44.6359514" lon="10.8218149"><ele>48.0</ele><time>2026-03-28T13:42:53.51Z</time></trkpt><trkpt lat="44.6359293" lon="10.8215177"><ele>47.666666666666664</ele><time>2026-03-28T13:42:54.511Z</time></trkpt><trkpt lat="44.6359019" lon="10.8212352"><ele>47.33333333333333</ele><time>2026-03-28T13:42:55.52Z</time></trkpt><trkpt lat="44.6358704" lon="10.8209538"><ele>47.0</ele><time>2026-03-28T13:42:56.511Z</time></trkpt><trkpt lat="44.6358373" lon="10.8206594"><ele>47.0</ele><time>2026-03-28T13:42:57.519Z</time></trkpt><trkpt lat="44.6358115" lon="10.8203807"><ele>47.0</ele><time>2026-03-28T13:42:58.517Z</time></trkpt><trkpt lat="44.6357754" lon="10.8200984"><ele>47.0</ele><time>2026-03-28T13:42:59.513Z</time></trkpt><trkpt lat="44.6357528" lon="10.8198132"><ele>47.33333333333333</ele><time>2026-03-28T13:43:00.517Z</time></trkpt><trkpt lat="44.6357222" lon="10.8195294"><ele>47.666666666666664</ele><time>2026-03-28T13:43:01.519Z</time></trkpt><trkpt lat="44.6356852" lon="10.8192447"><ele>48.0</ele><time>2026-03-28T13:43:02.513Z</time></trkpt><trkpt lat="44.6356573" lon="10.8189603"><ele>48.0</ele><time>2026-03-28T13:43:03.521Z</time></trkpt><trkpt lat="44.6356243" lon="10.8186658"><ele>48.0</ele><time>2026-03-28T13:43:04.517Z</time></trkpt><trkpt lat="44.6355949" lon="10.8183698"><ele>48.0</ele><time>2026-03-28T13:43:05.519Z</time></trkpt><trkpt lat="44.635566" lon="10.8180978"><ele>48.0</ele><time>2026-03-28T13:43:06.513Z</time></trkpt><trkpt lat="44.6355478" lon="10.8178543"><ele>48.0</ele><time>2026-03-28T13:43:07.507Z</time></trkpt><trkpt lat="44.6355271" lon="10.8176128"><ele>48.0</ele><time>2026-03-28T13:43:08.507Z</time></trkpt><trkpt lat="44.6355112" lon="10.817384"><ele>48.33333333333333</ele><time>2026-03-28T13:43:09.514Z</time></trkpt><trkpt lat="44.6354845" lon="10.8171605"><ele>48.666666666666664</ele><time>2026-03-28T13:43:10.515Z</time></trkpt><trkpt lat="44.6354571" lon="10.8169521"><ele>49.0</ele><time>2026-03-28T13:43:11.509Z</time></trkpt><trkpt lat="44.6354315" lon="10.8167508"><ele>49.33333333333333</ele><time>2026-03-28T13:43:12.514Z</time></trkpt><trkpt lat="44.6354097" lon="10.8165269"><ele>49.66666666666667</ele><time>2026-03-28T13:43:13.508Z</time></trkpt><trkpt lat="44.6353864" lon="10.8163065"><ele>50.0</ele><time>2026-03-28T13:43:14.507Z</time></trkpt><trkpt lat="44.6353663" lon="10.8160779"><ele>49.25</ele><time>2026-03-28T13:43:15.514Z</time></trkpt><trkpt lat="44.6353514" lon="10.8158748"><ele>48.5</ele><time>2026-03-28T13:43:16.509Z</time></trkpt><trkpt lat="44.6353281" lon="10.8156833"><ele>47.75</ele><time>2026-03-28T13:43:17.516Z</time></trkpt><trkpt lat="44.6353294" lon="10.815496"><ele>47.0</ele><time>2026-03-28T13:43:18.506Z</time></trkpt><trkpt lat="44.6353394" lon="10.8153205"><ele>47.75</ele><time>2026-03-28T13:43:19.508Z</time></trkpt><trkpt lat="44.6353783" lon="10.8151489"><ele>48.5</ele><time>2026-03-28T13:43:20.509Z</time></trkpt><trkpt lat="44.6354309" lon="10.8149783"><ele>49.25</ele><time>2026-03-28T13:43:21.514Z</time></trkpt><trkpt lat="44.6354816" lon="10.81479"><ele>50.0</ele><time>2026-03-28T13:43:22.511Z</time></trkpt><trkpt lat="44.6355511" lon="10.814609"><ele>50.0</ele><time>2026-03-28T13:43:23.518Z</time></trkpt><trkpt lat="44.6356116" lon="10.8144098"><ele>50.0</ele><time>2026-03-28T13:43:24.515Z</time></trkpt><trkpt lat="44.6356765" lon="10.8142074"><ele>50.0</ele><time>2026-03-28T13:43:25.518Z</time></trkpt><trkpt lat="44.6357286" lon="10.8140237"><ele>50.0</ele><time>2026-03-28T13:43:26.513Z</time></trkpt><trkpt lat="44.6357942" lon="10.8138247"><ele>50.0</ele><time>2026-03-28T13:43:27.514Z</time></trkpt><trkpt lat="44.6358513" lon="10.8136409"><ele>50.0</ele><time>2026-03-28T13:43:28.519Z</time></trkpt><trkpt lat="44.6359064" lon="10.8134402"><ele>50.0</ele><time>2026-03-28T13:43:29.513Z</time></trkpt><trkpt lat="44.635964" lon="10.8132423"><ele>50.0</ele><time>2026-03-28T13:43:30.525Z</time></trkpt><trkpt lat="44.6360202" lon="10.8130378"><ele>50.0</ele><time>2026-03-28T13:43:31.513Z</time></trkpt><trkpt lat="44.636082" lon="10.8128235"><ele>49.66666666666667</ele><time>2026-03-28T13:43:32.517Z</time></trkpt><trkpt lat="44.6361401" lon="10.8126278"><ele>49.33333333333333</ele><time>2026-03-28T13:43:33.521Z</time></trkpt><trkpt lat="44.6362039" lon="10.8124232"><ele>49.0</ele><time>2026-03-28T13:43:34.519Z</time></trkpt><trkpt lat="44.6362689" lon="10.8122191"><ele>49.0</ele><time>2026-03-28T13:43:35.524Z</time></trkpt><trkpt lat="44.6363382" lon="10.812001"><ele>49.0</ele><time>2026-03-28T13:43:36.517Z</time></trkpt><trkpt lat="44.6364123" lon="10.8117883"><ele>49.0</ele><time>2026-03-28T13:43:37.534Z</time></trkpt><trkpt lat="44.6364827" lon="10.8115801"><ele>49.666666666666664</ele><time>2026-03-28T13:43:38.52Z</time></trkpt><trkpt lat="44.6365775" lon="10.8113732"><ele>50.33333333333333</ele><time>2026-03-28T13:43:39.516Z</time></trkpt><trkpt lat="44.636682" lon="10.8111742"><ele>51.0</ele><time>2026-03-28T13:43:40.515Z</time></trkpt><trkpt lat="44.6367792" lon="10.8109607"><ele>51.0</ele><time>2026-03-28T13:43:41.514Z</time></trkpt><trkpt lat="44.6368895" lon="10.8107541"><ele>51.0</ele><time>2026-03-28T13:43:42.516Z</time></trkpt><trkpt lat="44.6369971" lon="10.8105484"><ele>51.0</ele><time>2026-03-28T13:43:43.515Z</time></trkpt><trkpt lat="44.6370835" lon="10.8103486"><ele>51.66666666666667</ele><time>2026-03-28T13:43:44.514Z</time></trkpt><trkpt lat="44.6371794" lon="10.8101377"><ele>52.333333333333336</ele><time>2026-03-28T13:43:45.509Z</time></trkpt><trkpt lat="44.6372819" lon="10.809934"><ele>53.0</ele><time>2026-03-28T13:43:46.516Z</time></trkpt><trkpt lat="44.6373757" lon="10.8097346"><ele>53.0</ele><time>2026-03-28T13:43:47.515Z</time></trkpt><trkpt lat="44.6374685" lon="10.8095289"><ele>53.0</ele><time>2026-03-28T13:43:48.513Z</time></trkpt><trkpt lat="44.6375688" lon="10.8093273"><ele>53.0</ele><time>2026-03-28T13:43:49.517Z</time></trkpt><trkpt lat="44.6376563" lon="10.8091266"><ele>52.66666666666667</ele><time>2026-03-28T13:43:50.523Z</time></trkpt><trkpt lat="44.6377535" lon="10.8089179"><ele>52.33333333333333</ele><time>2026-03-28T13:43:51.51Z</time></trkpt><trkpt lat="44.6378482" lon="10.808718"><ele>52.0</ele><time>2026-03-28T13:43:52.511Z</time></trkpt><trkpt lat="44.6379509" lon="10.8085208"><ele>52.0</ele><time>2026-03-28T13:43:53.519Z</time></trkpt><trkpt lat="44.6380337" lon="10.808337"><ele>52.0</ele><time>2026-03-28T13:43:54.52Z</time></trkpt><trkpt lat="44.6381171" lon="10.8081453"><ele>52.0</ele><time>2026-03-28T13:43:55.521Z</time></trkpt><trkpt lat="44.6381966" lon="10.8079661"><ele>52.0</ele><time>2026-03-28T13:43:56.513Z</time></trkpt><trkpt lat="44.6382639" lon="10.8078113"><ele>52.0</ele><time>2026-03-28T13:43:57.511Z</time></trkpt><trkpt lat="44.6383433" lon="10.8076601"><ele>52.0</ele><time>2026-03-28T13:43:58.513Z</time></trkpt><trkpt lat="44.6384053" lon="10.8075294"><ele>52.0</ele><time>2026-03-28T13:43:59.509Z</time></trkpt><trkpt lat="44.6384726" lon="10.8073911"><ele>51.6</ele><time>2026-03-28T13:44:00.514Z</time></trkpt><trkpt lat="44.6385474" lon="10.8072679"><ele>51.2</ele><time>2026-03-28T13:44:01.515Z</time></trkpt><trkpt lat="44.6386155" lon="10.8071521"><ele>50.8</ele><time>2026-03-28T13:44:02.512Z</time></trkpt><trkpt lat="44.6386772" lon="10.8070573"><ele>50.4</ele><time>2026-03-28T13:44:03.513Z</time></trkpt><trkpt lat="44.6387444" lon="10.8069877"><ele>50.0</ele><time>2026-03-28T13:44:04.512Z</time></trkpt><trkpt lat="44.6388051" lon="10.8069077"><ele>51.0</ele><time>2026-03-28T13:44:05.508Z</time></trkpt><trkpt lat="44.6388261" lon="10.806775"><ele>52.0</ele><time>2026-03-28T13:44:06.501Z</time></trkpt><trkpt lat="44.6388473" lon="10.8066319"><ele>53.0</ele><time>2026-03-28T13:44:07.504Z</time></trkpt><trkpt lat="44.6388944" lon="10.8064745"><ele>54.0</ele><time>2026-03-28T13:44:08.5Z</time></trkpt><trkpt lat="44.638972" lon="10.8063284"><ele>54.0</ele><time>2026-03-28T13:44:09.5Z</time></trkpt><trkpt lat="44.6390614" lon="10.8061731"><ele>54.0</ele><time>2026-03-28T13:44:10.507Z</time></trkpt><trkpt lat="44.6391451" lon="10.8060212"><ele>54.0</ele><time>2026-03-28T13:44:11.504Z</time></trkpt><trkpt lat="44.6392223" lon="10.8058752"><ele>54.0</ele><time>2026-03-28T13:44:12.508Z</time></trkpt><trkpt lat="44.6392959" lon="10.8057387"><ele>54.25</ele><time>2026-03-28T13:44:13.512Z</time></trkpt><trkpt lat="44.6393848" lon="10.8055898"><ele>54.5</ele><time>2026-03-28T13:44:14.508Z</time></trkpt><trkpt lat="44.6394562" lon="10.8054427"><ele>54.75</ele><time>2026-03-28T13:44:15.507Z</time></trkpt><trkpt lat="44.6395415" lon="10.8053109"><ele>55.0</ele><time>2026-03-28T13:44:16.512Z</time></trkpt><trkpt lat="44.6396105" lon="10.8051814"><ele>55.2</ele><time>2026-03-28T13:44:17.513Z</time></trkpt><trkpt lat="44.6396633" lon="10.805045"><ele>55.4</ele><time>2026-03-28T13:44:18.502Z</time></trkpt><trkpt lat="44.639676" lon="10.8049153"><ele>55.599999999999994</ele><time>2026-03-28T13:44:19.501Z</time></trkpt><trkpt lat="44.6396788" lon="10.8048166"><ele>55.8</ele><time>2026-03-28T13:44:20.505Z</time></trkpt><trkpt lat="44.6396761" lon="10.8046399"><ele>56.0</ele><time>2026-03-28T13:44:22.498Z</time></trkpt><trkpt lat="44.6396707" lon="10.8045124"><ele>56.0</ele><time>2026-03-28T13:44:23.498Z</time></trkpt><trkpt lat="44.639637" lon="10.8043541"><ele>56.0</ele><time>2026-03-28T13:44:24.488Z</time></trkpt><trkpt lat="44.6395888" lon="10.8041779"><ele>56.0</ele><time>2026-03-28T13:44:25.492Z</time></trkpt><trkpt lat="44.6395286" lon="10.8040077"><ele>56.0</ele><time>2026-03-28T13:44:26.507Z</time></trkpt><trkpt lat="44.6394361" lon="10.8038202"><ele>55.66666666666667</ele><time>2026-03-28T13:44:27.5Z</time></trkpt><trkpt lat="44.639326" lon="10.8036244"><ele>55.33333333333333</ele><time>2026-03-28T13:44:28.503Z</time></trkpt><trkpt lat="44.6392437" lon="10.8034342"><ele>55.0</ele><time>2026-03-28T13:44:29.504Z</time></trkpt><trkpt lat="44.6391626" lon="10.8032586"><ele>54.666666666666664</ele><time>2026-03-28T13:44:30.502Z</time></trkpt><trkpt lat="44.6390779" lon="10.8030718"><ele>54.33333333333333</ele><time>2026-03-28T13:44:31.503Z</time></trkpt><trkpt lat="44.6389768" lon="10.8028869"><ele>54.0</ele><time>2026-03-28T13:44:32.508Z</time></trkpt><trkpt lat="44.6388678" lon="10.8027096"><ele>54.0</ele><time>2026-03-28T13:44:33.508Z</time></trkpt><trkpt lat="44.638733" lon="10.8025673"><ele>54.0</ele><time>2026-03-28T13:44:34.512Z</time></trkpt><trkpt lat="44.638583" lon="10.8024313"><ele>54.0</ele><time>2026-03-28T13:44:35.509Z</time></trkpt><trkpt lat="44.6384169" lon="10.8023177"><ele>54.0</ele><time>2026-03-28T13:44:36.511Z</time></trkpt><trkpt lat="44.6382484" lon="10.8022144"><ele>54.0</ele><time>2026-03-28T13:44:37.516Z</time></trkpt><trkpt lat="44.6380921" lon="10.8021014"><ele>54.0</ele><time>2026-03-28T13:44:38.523Z</time></trkpt><trkpt lat="44.6379302" lon="10.8019769"><ele>54.66666666666667</ele><time>2026-03-28T13:44:39.518Z</time></trkpt><trkpt lat="44.6377697" lon="10.8018626"><ele>55.333333333333336</ele><time>2026-03-28T13:44:40.521Z</time></trkpt><trkpt lat="44.6376141" lon="10.8017696"><ele>56.0</ele><time>2026-03-28T13:44:41.509Z</time></trkpt><trkpt lat="44.6374441" lon="10.8016855"><ele>56.0</ele><time>2026-03-28T13:44:42.517Z</time></trkpt><trkpt lat="44.6372749" lon="10.8015971"><ele>56.0</ele><time>2026-03-28T13:44:43.512Z</time></trkpt><trkpt lat="44.6370985" lon="10.8015107"><ele>56.0</ele><time>2026-03-28T13:44:44.514Z</time></trkpt><trkpt lat="44.636928" lon="10.801424"><ele>56.0</ele><time>2026-03-28T13:44:45.516Z</time></trkpt><trkpt lat="44.6367587" lon="10.8013486"><ele>56.0</ele><time>2026-03-28T13:44:46.512Z</time></trkpt><trkpt lat="44.636591" lon="10.8012616"><ele>56.0</ele><time>2026-03-28T13:44:47.515Z</time></trkpt><trkpt lat="44.6364103" lon="10.8011708"><ele>56.0</ele><time>2026-03-28T13:44:48.518Z</time></trkpt><trkpt lat="44.6362398" lon="10.8010858"><ele>56.0</ele><time>2026-03-28T13:44:49.517Z</time></trkpt><trkpt lat="44.6360728" lon="10.8010032"><ele>56.0</ele><time>2026-03-28T13:44:50.521Z</time></trkpt><trkpt lat="44.6359095" lon="10.8009213"><ele>55.66666666666667</ele><time>2026-03-28T13:44:51.516Z</time></trkpt><trkpt lat="44.6357415" lon="10.8008277"><ele>55.33333333333333</ele><time>2026-03-28T13:44:52.513Z</time></trkpt><trkpt lat="44.6355744" lon="10.8007472"><ele>55.0</ele><time>2026-03-28T13:44:53.519Z</time></trkpt><trkpt lat="44.6353983" lon="10.8006654"><ele>56.0</ele><time>2026-03-28T13:44:54.514Z</time></trkpt><trkpt lat="44.6352295" lon="10.8005749"><ele>57.0</ele><time>2026-03-28T13:44:55.517Z</time></trkpt><trkpt lat="44.6350458" lon="10.8004892"><ele>58.0</ele><time>2026-03-28T13:44:56.514Z</time></trkpt><trkpt lat="44.6348783" lon="10.8003871"><ele>58.0</ele><time>2026-03-28T13:44:57.509Z</time></trkpt><trkpt lat="44.6347158" lon="10.8002858"><ele>58.0</ele><time>2026-03-28T13:44:58.509Z</time></trkpt><trkpt lat="44.6345409" lon="10.8001808"><ele>58.0</ele><time>2026-03-28T13:44:59.512Z</time></trkpt><trkpt lat="44.6343747" lon="10.8000551"><ele>58.0</ele><time>2026-03-28T13:45:00.522Z</time></trkpt><trkpt lat="44.6342026" lon="10.7999362"><ele>58.0</ele><time>2026-03-28T13:45:01.505Z</time></trkpt><trkpt lat="44.6340249" lon="10.7998243"><ele>58.0</ele><time>2026-03-28T13:45:02.511Z</time></trkpt><trkpt lat="44.6338528" lon="10.7997092"><ele>58.0</ele><time>2026-03-28T13:45:03.509Z</time></trkpt><trkpt lat="44.6336843" lon="10.7996004"><ele>58.0</ele><time>2026-03-28T13:45:04.5Z</time></trkpt><trkpt lat="44.6335221" lon="10.7994813"><ele>58.0</ele><time>2026-03-28T13:45:05.506Z</time></trkpt><trkpt lat="44.6333532" lon="10.7993641"><ele>57.0</ele><time>2026-03-28T13:45:06.505Z</time></trkpt><trkpt lat="44.6331731" lon="10.7992511"><ele>56.0</ele><time>2026-03-28T13:45:07.499Z</time></trkpt><trkpt lat="44.6330009" lon="10.7991401"><ele>55.0</ele><time>2026-03-28T13:45:08.508Z</time></trkpt><trkpt lat="44.6328335" lon="10.7990244"><ele>55.666666666666664</ele><time>2026-03-28T13:45:09.511Z</time></trkpt><trkpt lat="44.6326581" lon="10.7989107"><ele>56.33333333333333</ele><time>2026-03-28T13:45:10.508Z</time></trkpt><trkpt lat="44.6324794" lon="10.7988079"><ele>57.0</ele><time>2026-03-28T13:45:11.507Z</time></trkpt><trkpt lat="44.6322932" lon="10.7987172"><ele>57.0</ele><time>2026-03-28T13:45:12.505Z</time></trkpt><trkpt lat="44.6321181" lon="10.7986267"><ele>57.0</ele><time>2026-03-28T13:45:13.507Z</time></trkpt><trkpt lat="44.6319438" lon="10.7985512"><ele>57.0</ele><time>2026-03-28T13:45:14.509Z</time></trkpt><trkpt lat="44.6317683" lon="10.7984784"><ele>57.0</ele><time>2026-03-28T13:45:15.509Z</time></trkpt><trkpt lat="44.6316005" lon="10.798413"><ele>57.0</ele><time>2026-03-28T13:45:16.511Z</time></trkpt><trkpt lat="44.6314293" lon="10.7983257"><ele>57.0</ele><time>2026-03-28T13:45:17.507Z</time></trkpt><trkpt lat="44.631253" lon="10.7982408"><ele>57.33333333333333</ele><time>2026-03-28T13:45:18.513Z</time></trkpt><trkpt lat="44.6310814" lon="10.7981336"><ele>57.666666666666664</ele><time>2026-03-28T13:45:19.506Z</time></trkpt><trkpt lat="44.6309338" lon="10.7980067"><ele>58.0</ele><time>2026-03-28T13:45:20.502Z</time></trkpt><trkpt lat="44.630793" lon="10.7978898"><ele>58.0</ele><time>2026-03-28T13:45:21.496Z</time></trkpt><trkpt lat="44.6306576" lon="10.7977718"><ele>58.0</ele><time>2026-03-28T13:45:22.495Z</time></trkpt><trkpt lat="44.6305377" lon="10.7976575"><ele>58.0</ele><time>2026-03-28T13:45:23.508Z</time></trkpt><trkpt lat="44.6304256" lon="10.7975408"><ele>58.0</ele><time>2026-03-28T13:45:24.514Z</time></trkpt><trkpt lat="44.6302986" lon="10.7974372"><ele>57.5</ele><time>2026-03-28T13:45:25.497Z</time></trkpt><trkpt lat="44.6301801" lon="10.7973303"><ele>57.0</ele><time>2026-03-28T13:45:26.502Z</time></trkpt><trkpt lat="44.6300537" lon="10.7972165"><ele>56.5</ele><time>2026-03-28T13:45:27.501Z</time></trkpt><trkpt lat="44.6299285" lon="10.7970927"><ele>56.0</ele><time>2026-03-28T13:45:28.513Z</time></trkpt><trkpt lat="44.6298065" lon="10.796972"><ele>56.0</ele><time>2026-03-28T13:45:29.511Z</time></trkpt><trkpt lat="44.6296634" lon="10.7968682"><ele>56.0</ele><time>2026-03-28T13:45:30.519Z</time></trkpt><trkpt lat="44.6295088" lon="10.796786"><ele>56.0</ele><time>2026-03-28T13:45:31.506Z</time></trkpt><trkpt lat="44.6293386" lon="10.7967212"><ele>57.0</ele><time>2026-03-28T13:45:32.5Z</time></trkpt><trkpt lat="44.6291597" lon="10.7966757"><ele>58.0</ele><time>2026-03-28T13:45:33.514Z</time></trkpt><trkpt lat="44.6289753" lon="10.7966365"><ele>59.0</ele><time>2026-03-28T13:45:34.508Z</time></trkpt><trkpt lat="44.6287807" lon="10.7965914"><ele>59.0</ele><time>2026-03-28T13:45:35.514Z</time></trkpt><trkpt lat="44.6285721" lon="10.7965599"><ele>59.0</ele><time>2026-03-28T13:45:36.509Z</time></trkpt><trkpt lat="44.6283836" lon="10.79652"><ele>59.0</ele><time>2026-03-28T13:45:37.511Z</time></trkpt><trkpt lat="44.6281849" lon="10.7964839"><ele>59.0</ele><time>2026-03-28T13:45:38.512Z</time></trkpt><trkpt lat="44.6279784" lon="10.796442"><ele>59.0</ele><time>2026-03-28T13:45:39.51Z</time></trkpt><trkpt lat="44.6277681" lon="10.7963968"><ele>59.0</ele><time>2026-03-28T13:45:40.515Z</time></trkpt><trkpt lat="44.6275662" lon="10.7963586"><ele>59.0</ele><time>2026-03-28T13:45:41.509Z</time></trkpt><trkpt lat="44.6273545" lon="10.7963172"><ele>59.0</ele><time>2026-03-28T13:45:42.501Z</time></trkpt><trkpt lat="44.6271441" lon="10.796277"><ele>59.0</ele><time>2026-03-28T13:45:43.499Z</time></trkpt><trkpt lat="44.6269261" lon="10.7962349"><ele>59.0</ele><time>2026-03-28T13:45:44.504Z</time></trkpt><trkpt lat="44.6267082" lon="10.796199"><ele>59.0</ele><time>2026-03-28T13:45:45.499Z</time></trkpt><trkpt lat="44.6264979" lon="10.7961662"><ele>59.0</ele><time>2026-03-28T13:45:46.507Z</time></trkpt><trkpt lat="44.6262991" lon="10.796127"><ele>60.0</ele><time>2026-03-28T13:45:47.506Z</time></trkpt><trkpt lat="44.6260849" lon="10.7960849"><ele>61.0</ele><time>2026-03-28T13:45:48.509Z</time></trkpt><trkpt lat="44.6258812" lon="10.7960424"><ele>62.0</ele><time>2026-03-28T13:45:49.509Z</time></trkpt><trkpt lat="44.6256606" lon="10.7960166"><ele>62.0</ele><time>2026-03-28T13:45:50.512Z</time></trkpt><trkpt lat="44.6254557" lon="10.795974"><ele>62.0</ele><time>2026-03-28T13:45:51.506Z</time></trkpt><trkpt lat="44.625235" lon="10.7959281"><ele>62.0</ele><time>2026-03-28T13:45:52.505Z</time></trkpt><trkpt lat="44.6250356" lon="10.7958878"><ele>62.0</ele><time>2026-03-28T13:45:53.504Z</time></trkpt><trkpt lat="44.6248313" lon="10.7958467"><ele>62.0</ele><time>2026-03-28T13:45:54.505Z</time></trkpt><trkpt lat="44.6246244" lon="10.795798"><ele>62.0</ele><time>2026-03-28T13:45:55.501Z</time></trkpt><trkpt lat="44.6244092" lon="10.7957496"><ele>62.333333333333336</ele><time>2026-03-28T13:45:56.506Z</time></trkpt><trkpt lat="44.6242068" lon="10.7957083"><ele>62.66666666666667</ele><time>2026-03-28T13:45:57.505Z</time></trkpt><trkpt lat="44.6239974" lon="10.7956643"><ele>63.0</ele><time>2026-03-28T13:45:58.503Z</time></trkpt><trkpt lat="44.6237967" lon="10.7956028"><ele>63.33333333333333</ele><time>2026-03-28T13:45:59.507Z</time></trkpt><trkpt lat="44.6235838" lon="10.7955506"><ele>63.666666666666664</ele><time>2026-03-28T13:46:00.508Z</time></trkpt><trkpt lat="44.62338" lon="10.7955047"><ele>64.0</ele><time>2026-03-28T13:46:01.509Z</time></trkpt><trkpt lat="44.6231711" lon="10.795463"><ele>64.0</ele><time>2026-03-28T13:46:02.507Z</time></trkpt><trkpt lat="44.6229701" lon="10.7954118"><ele>64.0</ele><time>2026-03-28T13:46:03.514Z</time></trkpt><trkpt lat="44.6227653" lon="10.7953671"><ele>64.0</ele><time>2026-03-28T13:46:04.504Z</time></trkpt><trkpt lat="44.6225696" lon="10.7953279"><ele>63.666666666666664</ele><time>2026-03-28T13:46:05.509Z</time></trkpt><trkpt lat="44.6223657" lon="10.7952901"><ele>63.33333333333333</ele><time>2026-03-28T13:46:06.509Z</time></trkpt><trkpt lat="44.6221595" lon="10.7952496"><ele>63.0</ele><time>2026-03-28T13:46:07.507Z</time></trkpt><trkpt lat="44.621967" lon="10.7952018"><ele>62.66666666666667</ele><time>2026-03-28T13:46:08.515Z</time></trkpt><trkpt lat="44.6217642" lon="10.7951431"><ele>62.333333333333336</ele><time>2026-03-28T13:46:09.51Z</time></trkpt><trkpt lat="44.6215688" lon="10.795066"><ele>62.0</ele><time>2026-03-28T13:46:10.505Z</time></trkpt><trkpt lat="44.62138" lon="10.7949742"><ele>62.0</ele><time>2026-03-28T13:46:11.512Z</time></trkpt><trkpt lat="44.6212" lon="10.7948615"><ele>62.0</ele><time>2026-03-28T13:46:12.503Z</time></trkpt><trkpt lat="44.6210298" lon="10.7947085"><ele>62.0</ele><time>2026-03-28T13:46:13.502Z</time></trkpt><trkpt lat="44.620861" lon="10.7945654"><ele>62.333333333333336</ele><time>2026-03-28T13:46:14.515Z</time></trkpt><trkpt lat="44.6207016" lon="10.7944289"><ele>62.66666666666667</ele><time>2026-03-28T13:46:15.506Z</time></trkpt><trkpt lat="44.6205326" lon="10.7943048"><ele>63.0</ele><time>2026-03-28T13:46:16.508Z</time></trkpt><trkpt lat="44.6203711" lon="10.7941819"><ele>63.66666666666667</ele><time>2026-03-28T13:46:17.509Z</time></trkpt><trkpt lat="44.6202094" lon="10.794083"><ele>64.33333333333334</ele><time>2026-03-28T13:46:18.506Z</time></trkpt><trkpt lat="44.6200527" lon="10.7940079"><ele>65.0</ele><time>2026-03-28T13:46:19.508Z</time></trkpt><trkpt lat="44.6198867" lon="10.7939595"><ele>65.0</ele><time>2026-03-28T13:46:20.51Z</time></trkpt><trkpt lat="44.6197214" lon="10.7939182"><ele>65.0</ele><time>2026-03-28T13:46:21.51Z</time></trkpt><trkpt lat="44.6195527" lon="10.7938874"><ele>65.0</ele><time>2026-03-28T13:46:22.513Z</time></trkpt><trkpt lat="44.6193693" lon="10.7938716"><ele>65.0</ele><time>2026-03-28T13:46:23.498Z</time></trkpt><trkpt lat="44.6191914" lon="10.7938876"><ele>65.0</ele><time>2026-03-28T13:46:24.502Z</time></trkpt><trkpt lat="44.6190188" lon="10.7939272"><ele>65.0</ele><time>2026-03-28T13:46:25.5Z</time></trkpt><trkpt lat="44.6188249" lon="10.7939857"><ele>65.0</ele><time>2026-03-28T13:46:26.509Z</time></trkpt><trkpt lat="44.618644" lon="10.7940619"><ele>65.0</ele><time>2026-03-28T13:46:27.505Z</time></trkpt><trkpt lat="44.6184665" lon="10.7941294"><ele>65.0</ele><time>2026-03-28T13:46:28.502Z</time></trkpt><trkpt lat="44.6182867" lon="10.7942241"><ele>65.0</ele><time>2026-03-28T13:46:29.504Z</time></trkpt><trkpt lat="44.6181078" lon="10.7943423"><ele>65.0</ele><time>2026-03-28T13:46:30.511Z</time></trkpt><trkpt lat="44.6179398" lon="10.7944855"><ele>65.0</ele><time>2026-03-28T13:46:31.504Z</time></trkpt><trkpt lat="44.6177718" lon="10.7946207"><ele>65.66666666666667</ele><time>2026-03-28T13:46:32.506Z</time></trkpt><trkpt lat="44.6175934" lon="10.7947528"><ele>66.33333333333333</ele><time>2026-03-28T13:46:33.517Z</time></trkpt><trkpt lat="44.6173977" lon="10.7948786"><ele>67.0</ele><time>2026-03-28T13:46:34.504Z</time></trkpt><trkpt lat="44.6171989" lon="10.7949802"><ele>67.0</ele><time>2026-03-28T13:46:35.501Z</time></trkpt><trkpt lat="44.6169981" lon="10.7950623"><ele>67.0</ele><time>2026-03-28T13:46:36.495Z</time></trkpt><trkpt lat="44.6167904" lon="10.7950653"><ele>67.0</ele><time>2026-03-28T13:46:37.5Z</time></trkpt><trkpt lat="44.6165922" lon="10.7950553"><ele>66.66666666666666</ele><time>2026-03-28T13:46:38.499Z</time></trkpt><trkpt lat="44.6164133" lon="10.7950385"><ele>66.33333333333333</ele><time>2026-03-28T13:46:39.503Z</time></trkpt><trkpt lat="44.6162257" lon="10.7950159"><ele>66.0</ele><time>2026-03-28T13:46:40.508Z</time></trkpt><trkpt lat="44.6160332" lon="10.7949846"><ele>65.66666666666667</ele><time>2026-03-28T13:46:41.502Z</time></trkpt><trkpt lat="44.6158354" lon="10.7949701"><ele>65.33333333333334</ele><time>2026-03-28T13:46:42.51Z</time></trkpt><trkpt lat="44.6156389" lon="10.7949447"><ele>65.0</ele><time>2026-03-28T13:46:43.5Z</time></trkpt><trkpt lat="44.6154372" lon="10.7949244"><ele>65.66666666666667</ele><time>2026-03-28T13:46:44.503Z</time></trkpt><trkpt lat="44.6152358" lon="10.7948979"><ele>66.33333333333333</ele><time>2026-03-28T13:46:45.507Z</time></trkpt><trkpt lat="44.615025" lon="10.7948706"><ele>67.0</ele><time>2026-03-28T13:46:46.51Z</time></trkpt><trkpt lat="44.6148175" lon="10.7948526"><ele>67.0</ele><time>2026-03-28T13:46:47.509Z</time></trkpt><trkpt lat="44.6146244" lon="10.7948281"><ele>67.0</ele><time>2026-03-28T13:46:48.506Z</time></trkpt><trkpt lat="44.6144416" lon="10.7948104"><ele>67.0</ele><time>2026-03-28T13:46:49.502Z</time></trkpt><trkpt lat="44.6142795" lon="10.7947971"><ele>68.0</ele><time>2026-03-28T13:46:50.495Z</time></trkpt><trkpt lat="44.6141248" lon="10.7947838"><ele>69.0</ele><time>2026-03-28T13:46:51.495Z</time></trkpt><trkpt lat="44.6139762" lon="10.794769"><ele>70.0</ele><time>2026-03-28T13:46:52.5Z</time></trkpt><trkpt lat="44.6138288" lon="10.7947492"><ele>70.0</ele><time>2026-03-28T13:46:53.499Z</time></trkpt><trkpt lat="44.6137156" lon="10.7947243"><ele>70.0</ele><time>2026-03-28T13:46:54.5Z</time></trkpt><trkpt lat="44.613573" lon="10.7947252"><ele>70.0</ele><time>2026-03-28T13:46:55.505Z</time></trkpt><trkpt lat="44.6134225" lon="10.7947214"><ele>70.0</ele><time>2026-03-28T13:46:56.497Z</time></trkpt><trkpt lat="44.6132871" lon="10.7947042"><ele>70.0</ele><time>2026-03-28T13:46:57.498Z</time></trkpt><trkpt lat="44.6131565" lon="10.7946999"><ele>70.0</ele><time>2026-03-28T13:46:58.503Z</time></trkpt><trkpt lat="44.6130289" lon="10.7946853"><ele>70.0</ele><time>2026-03-28T13:46:59.503Z</time></trkpt><trkpt lat="44.6128819" lon="10.7946669"><ele>70.0</ele><time>2026-03-28T13:47:00.507Z</time></trkpt><trkpt lat="44.6127443" lon="10.7946353"><ele>70.0</ele><time>2026-03-28T13:47:01.503Z</time></trkpt><trkpt lat="44.612615" lon="10.7946276"><ele>70.0</ele><time>2026-03-28T13:47:02.504Z</time></trkpt><trkpt lat="44.6124913" lon="10.7946217"><ele>70.0</ele><time>2026-03-28T13:47:03.515Z</time></trkpt><trkpt lat="44.6123566" lon="10.7946163"><ele>70.0</ele><time>2026-03-28T13:47:04.5Z</time></trkpt><trkpt lat="44.6122324" lon="10.7946044"><ele>70.0</ele><time>2026-03-28T13:47:05.5Z</time></trkpt><trkpt lat="44.6120992" lon="10.7946074"><ele>70.0</ele><time>2026-03-28T13:47:06.506Z</time></trkpt><trkpt lat="44.6119457" lon="10.7945983"><ele>70.0</ele><time>2026-03-28T13:47:07.499Z</time></trkpt><trkpt lat="44.6118092" lon="10.7945777"><ele>70.0</ele><time>2026-03-28T13:47:08.502Z</time></trkpt><trkpt lat="44.6116653" lon="10.7945615"><ele>69.75</ele><time>2026-03-28T13:47:09.495Z</time></trkpt><trkpt lat="44.6115191" lon="10.7945334"><ele>69.5</ele><time>2026-03-28T13:47:10.498Z</time></trkpt><trkpt lat="44.6113873" lon="10.7945079"><ele>69.25</ele><time>2026-03-28T13:47:11.509Z</time></trkpt><trkpt lat="44.6112495" lon="10.7944798"><ele>69.0</ele><time>2026-03-28T13:47:12.509Z</time></trkpt><trkpt lat="44.6111168" lon="10.7944593"><ele>69.0</ele><time>2026-03-28T13:47:13.513Z</time></trkpt><trkpt lat="44.6109755" lon="10.7944371"><ele>69.0</ele><time>2026-03-28T13:47:14.506Z</time></trkpt><trkpt lat="44.6108403" lon="10.7944206"><ele>69.0</ele><time>2026-03-28T13:47:15.512Z</time></trkpt><trkpt lat="44.6107008" lon="10.7944106"><ele>69.0</ele><time>2026-03-28T13:47:16.505Z</time></trkpt><trkpt lat="44.6105647" lon="10.7944085"><ele>69.0</ele><time>2026-03-28T13:47:17.503Z</time></trkpt><trkpt lat="44.6104267" lon="10.7943984"><ele>69.0</ele><time>2026-03-28T13:47:18.508Z</time></trkpt><trkpt lat="44.6102891" lon="10.7943847"><ele>69.0</ele><time>2026-03-28T13:47:19.507Z</time></trkpt><trkpt lat="44.6101472" lon="10.7943608"><ele>69.0</ele><time>2026-03-28T13:47:20.517Z</time></trkpt><trkpt lat="44.6100017" lon="10.7943436"><ele>69.5</ele><time>2026-03-28T13:47:21.511Z</time></trkpt><trkpt lat="44.609864" lon="10.7943378"><ele>70.0</ele><time>2026-03-28T13:47:22.511Z</time></trkpt><trkpt lat="44.6097207" lon="10.7943247"><ele>70.5</ele><time>2026-03-28T13:47:23.506Z</time></trkpt><trkpt lat="44.6095719" lon="10.7943329"><ele>71.0</ele><time>2026-03-28T13:47:24.507Z</time></trkpt><trkpt lat="44.6094172" lon="10.7943248"><ele>71.0</ele><time>2026-03-28T13:47:25.496Z</time></trkpt><trkpt lat="44.609268" lon="10.7943022"><ele>71.0</ele><time>2026-03-28T13:47:26.502Z</time></trkpt><trkpt lat="44.6091318" lon="10.7942713"><ele>71.0</ele><time>2026-03-28T13:47:27.5Z</time></trkpt><trkpt lat="44.6089969" lon="10.7942582"><ele>71.0</ele><time>2026-03-28T13:47:28.508Z</time></trkpt><trkpt lat="44.608865" lon="10.7942423"><ele>71.0</ele><time>2026-03-28T13:47:29.506Z</time></trkpt><trkpt lat="44.6087269" lon="10.7942201"><ele>71.0</ele><time>2026-03-28T13:47:30.509Z</time></trkpt><trkpt lat="44.6085936" lon="10.7942073"><ele>71.0</ele><time>2026-03-28T13:47:31.506Z</time></trkpt><trkpt lat="44.6084497" lon="10.7941859"><ele>71.0</ele><time>2026-03-28T13:47:32.51Z</time></trkpt><trkpt lat="44.6083103" lon="10.7941623"><ele>71.33333333333334</ele><time>2026-03-28T13:47:33.51Z</time></trkpt><trkpt lat="44.6081683" lon="10.7941409"><ele>71.66666666666667</ele><time>2026-03-28T13:47:34.505Z</time></trkpt><trkpt lat="44.6080105" lon="10.7941267"><ele>72.0</ele><time>2026-03-28T13:47:35.509Z</time></trkpt><trkpt lat="44.6078608" lon="10.7941293"><ele>72.0</ele><time>2026-03-28T13:47:36.5Z</time></trkpt><trkpt lat="44.6076899" lon="10.7941835"><ele>72.0</ele><time>2026-03-28T13:47:37.516Z</time></trkpt><trkpt lat="44.6075191" lon="10.7942294"><ele>72.0</ele><time>2026-03-28T13:47:38.524Z</time></trkpt><trkpt lat="44.607337" lon="10.7942623"><ele>72.0</ele><time>2026-03-28T13:47:39.516Z</time></trkpt><trkpt lat="44.607146" lon="10.7942971"><ele>72.0</ele><time>2026-03-28T13:47:40.517Z</time></trkpt><trkpt lat="44.606959" lon="10.7943473"><ele>72.0</ele><time>2026-03-28T13:47:41.515Z</time></trkpt><trkpt lat="44.6067722" lon="10.7943828"><ele>71.66666666666667</ele><time>2026-03-28T13:47:42.525Z</time></trkpt><trkpt lat="44.6065858" lon="10.794426"><ele>71.33333333333334</ele><time>2026-03-28T13:47:43.518Z</time></trkpt><trkpt lat="44.6063872" lon="10.79446"><ele>71.0</ele><time>2026-03-28T13:47:44.526Z</time></trkpt><trkpt lat="44.6061869" lon="10.7944803"><ele>71.33333333333334</ele><time>2026-03-28T13:47:45.517Z</time></trkpt><trkpt lat="44.6059901" lon="10.7945185"><ele>71.66666666666667</ele><time>2026-03-28T13:47:46.521Z</time></trkpt><trkpt lat="44.6058044" lon="10.79455"><ele>72.0</ele><time>2026-03-28T13:47:47.519Z</time></trkpt><trkpt lat="44.6056117" lon="10.7945791"><ele>72.0</ele><time>2026-03-28T13:47:48.52Z</time></trkpt><trkpt lat="44.6054169" lon="10.7946171"><ele>72.0</ele><time>2026-03-28T13:47:49.516Z</time></trkpt><trkpt lat="44.6052394" lon="10.7946529"><ele>72.0</ele><time>2026-03-28T13:47:50.51Z</time></trkpt><trkpt lat="44.6050786" lon="10.7946787"><ele>72.33333333333333</ele><time>2026-03-28T13:47:51.519Z</time></trkpt><trkpt lat="44.6049193" lon="10.7946982"><ele>72.66666666666666</ele><time>2026-03-28T13:47:52.505Z</time></trkpt><trkpt lat="44.6047658" lon="10.7947041"><ele>73.0</ele><time>2026-03-28T13:47:53.508Z</time></trkpt><trkpt lat="44.6046135" lon="10.7946668"><ele>73.0</ele><time>2026-03-28T13:47:54.509Z</time></trkpt><trkpt lat="44.6044585" lon="10.7946278"><ele>73.0</ele><time>2026-03-28T13:47:55.51Z</time></trkpt><trkpt lat="44.6042982" lon="10.7945983"><ele>73.0</ele><time>2026-03-28T13:47:56.505Z</time></trkpt><trkpt lat="44.6041372" lon="10.7945759"><ele>73.0</ele><time>2026-03-28T13:47:57.505Z</time></trkpt><trkpt lat="44.6039753" lon="10.7945444"><ele>73.0</ele><time>2026-03-28T13:47:58.504Z</time></trkpt><trkpt lat="44.6038007" lon="10.7945435"><ele>73.0</ele><time>2026-03-28T13:47:59.504Z</time></trkpt><trkpt lat="44.6036389" lon="10.7945622"><ele>73.33333333333333</ele><time>2026-03-28T13:48:00.536Z</time></trkpt><trkpt lat="44.6034707" lon="10.7945813"><ele>73.66666666666667</ele><time>2026-03-28T13:48:01.521Z</time></trkpt><trkpt lat="44.6033014" lon="10.7946154"><ele>74.0</ele><time>2026-03-28T13:48:02.521Z</time></trkpt><trkpt lat="44.6031408" lon="10.7946303"><ele>74.0</ele><time>2026-03-28T13:48:03.527Z</time></trkpt><trkpt lat="44.6029827" lon="10.7946435"><ele>74.0</ele><time>2026-03-28T13:48:04.525Z</time></trkpt><trkpt lat="44.6028153" lon="10.794662"><ele>74.0</ele><time>2026-03-28T13:48:05.527Z</time></trkpt><trkpt lat="44.6026515" lon="10.7946742"><ele>73.66666666666667</ele><time>2026-03-28T13:48:06.515Z</time></trkpt><trkpt lat="44.6025012" lon="10.7946919"><ele>73.33333333333333</ele><time>2026-03-28T13:48:07.52Z</time></trkpt><trkpt lat="44.6023468" lon="10.7947114"><ele>73.0</ele><time>2026-03-28T13:48:08.525Z</time></trkpt><trkpt lat="44.6021959" lon="10.7947305"><ele>73.0</ele><time>2026-03-28T13:48:09.512Z</time></trkpt><trkpt lat="44.6020531" lon="10.7947482"><ele>73.0</ele><time>2026-03-28T13:48:10.512Z</time></trkpt><trkpt lat="44.6019002" lon="10.7947509"><ele>73.0</ele><time>2026-03-28T13:48:11.51Z</time></trkpt><trkpt lat="44.6017578" lon="10.7947505"><ele>73.0</ele><time>2026-03-28T13:48:12.513Z</time></trkpt><trkpt lat="44.6016042" lon="10.794758"><ele>73.33333333333333</ele><time>2026-03-28T13:48:13.518Z</time></trkpt><trkpt lat="44.6014433" lon="10.7947841"><ele>73.66666666666667</ele><time>2026-03-28T13:48:14.52Z</time></trkpt><trkpt lat="44.6012886" lon="10.7948071"><ele>74.0</ele><time>2026-03-28T13:48:15.525Z</time></trkpt><trkpt lat="44.6011401" lon="10.7948267"><ele>74.33333333333334</ele><time>2026-03-28T13:48:16.518Z</time></trkpt><trkpt lat="44.6009853" lon="10.7948436"><ele>74.66666666666667</ele><time>2026-03-28T13:48:17.522Z</time></trkpt><trkpt lat="44.6008315" lon="10.7948621"><ele>75.0</ele><time>2026-03-28T13:48:18.52Z</time></trkpt><trkpt lat="44.600691" lon="10.7948844"><ele>75.0</ele><time>2026-03-28T13:48:19.524Z</time></trkpt><trkpt lat="44.600548" lon="10.7948991"><ele>75.0</ele><time>2026-03-28T13:48:20.525Z</time></trkpt><trkpt lat="44.6003958" lon="10.7949128"><ele>75.0</ele><time>2026-03-28T13:48:21.526Z</time></trkpt><trkpt lat="44.6002654" lon="10.7949291"><ele>75.0</ele><time>2026-03-28T13:48:22.518Z</time></trkpt><trkpt lat="44.6001354" lon="10.7949437"><ele>75.25</ele><time>2026-03-28T13:48:23.525Z</time></trkpt><trkpt lat="44.6000056" lon="10.7949594"><ele>75.5</ele><time>2026-03-28T13:48:24.523Z</time></trkpt><trkpt lat="44.5998768" lon="10.7949741"><ele>75.75</ele><time>2026-03-28T13:48:25.528Z</time></trkpt><trkpt lat="44.5997494" lon="10.795004"><ele>76.0</ele><time>2026-03-28T13:48:26.529Z</time></trkpt><trkpt lat="44.5996013" lon="10.7950194"><ele>76.25</ele><time>2026-03-28T13:48:27.521Z</time></trkpt><trkpt lat="44.5994564" lon="10.7950433"><ele>76.5</ele><time>2026-03-28T13:48:28.528Z</time></trkpt><trkpt lat="44.5993121" lon="10.7950729"><ele>76.75</ele><time>2026-03-28T13:48:29.521Z</time></trkpt><trkpt lat="44.5991665" lon="10.7950762"><ele>77.0</ele><time>2026-03-28T13:48:30.524Z</time></trkpt><trkpt lat="44.5990381" lon="10.7950824"><ele>77.0</ele><time>2026-03-28T13:48:31.526Z</time></trkpt><trkpt lat="44.598901" lon="10.7950987"><ele>77.0</ele><time>2026-03-28T13:48:32.528Z</time></trkpt><trkpt lat="44.5987764" lon="10.7951071"><ele>77.0</ele><time>2026-03-28T13:48:33.527Z</time></trkpt><trkpt lat="44.5986499" lon="10.7951394"><ele>77.0</ele><time>2026-03-28T13:48:34.52Z</time></trkpt><trkpt lat="44.5985363" lon="10.7951403"><ele>76.8</ele><time>2026-03-28T13:48:35.518Z</time></trkpt><trkpt lat="44.5984416" lon="10.7951514"><ele>76.6</ele><time>2026-03-28T13:48:36.519Z</time></trkpt><trkpt lat="44.5983611" lon="10.7951679"><ele>76.39999999999999</ele><time>2026-03-28T13:48:37.516Z</time></trkpt><trkpt lat="44.5982798" lon="10.7951259"><ele>76.2</ele><time>2026-03-28T13:48:39.525Z</time></trkpt><trkpt lat="44.5982886" lon="10.7949568"><ele>76.0</ele><time>2026-03-28T13:48:41.518Z</time></trkpt><trkpt lat="44.5983138" lon="10.7948411"><ele>76.0</ele><time>2026-03-28T13:48:42.52Z</time></trkpt><trkpt lat="44.5983446" lon="10.7946998"><ele>76.0</ele><time>2026-03-28T13:48:43.522Z</time></trkpt><trkpt lat="44.5983652" lon="10.7945228"><ele>76.0</ele><time>2026-03-28T13:48:44.508Z</time></trkpt><trkpt lat="44.5983889" lon="10.7943263"><ele>76.0</ele><time>2026-03-28T13:48:45.538Z</time></trkpt><trkpt lat="44.5984065" lon="10.7941241"><ele>76.0</ele><time>2026-03-28T13:48:46.534Z</time></trkpt><trkpt lat="44.5984218" lon="10.7939339"><ele>76.0</ele><time>2026-03-28T13:48:47.528Z</time></trkpt><trkpt lat="44.5984384" lon="10.7937246"><ele>76.0</ele><time>2026-03-28T13:48:48.534Z</time></trkpt><trkpt lat="44.5984575" lon="10.7935032"><ele>76.0</ele><time>2026-03-28T13:48:49.533Z</time></trkpt><trkpt lat="44.598457" lon="10.7933268"><ele>76.0</ele><time>2026-03-28T13:48:50.532Z</time></trkpt><trkpt lat="44.5984593" lon="10.7931417"><ele>76.0</ele><time>2026-03-28T13:48:51.527Z</time></trkpt><trkpt lat="44.5984345" lon="10.7929812"><ele>76.0</ele><time>2026-03-28T13:48:52.515Z</time></trkpt><trkpt lat="44.5983756" lon="10.7928523"><ele>76.0</ele><time>2026-03-28T13:48:53.534Z</time></trkpt><trkpt lat="44.5982539" lon="10.7927772"><ele>76.0</ele><time>2026-03-28T13:48:54.533Z</time></trkpt><trkpt lat="44.598107" lon="10.7927265"><ele>76.0</ele><time>2026-03-28T13:48:55.524Z</time></trkpt><trkpt lat="44.5979512" lon="10.7926886"><ele>76.0</ele><time>2026-03-28T13:48:56.521Z</time></trkpt><trkpt lat="44.5977846" lon="10.7926446"><ele>76.0</ele><time>2026-03-28T13:48:57.519Z</time></trkpt><trkpt lat="44.5976134" lon="10.7926172"><ele>76.0</ele><time>2026-03-28T13:48:58.516Z</time></trkpt><trkpt lat="44.5974602" lon="10.792578"><ele>76.0</ele><time>2026-03-28T13:48:59.519Z</time></trkpt><trkpt lat="44.5972926" lon="10.7925277"><ele>76.0</ele><time>2026-03-28T13:49:00.523Z</time></trkpt><trkpt lat="44.5971147" lon="10.7924831"><ele>76.0</ele><time>2026-03-28T13:49:01.522Z</time></trkpt><trkpt lat="44.5969438" lon="10.7924447"><ele>76.0</ele><time>2026-03-28T13:49:02.524Z</time></trkpt><trkpt lat="44.5967568" lon="10.7924047"><ele>76.0</ele><time>2026-03-28T13:49:03.529Z</time></trkpt><trkpt lat="44.5965712" lon="10.792362"><ele>76.0</ele><time>2026-03-28T13:49:04.521Z</time></trkpt><trkpt lat="44.5963882" lon="10.7923022"><ele>76.0</ele><time>2026-03-28T13:49:05.524Z</time></trkpt><trkpt lat="44.5961899" lon="10.7922485"><ele>76.0</ele><time>2026-03-28T13:49:06.523Z</time></trkpt><trkpt lat="44.5959952" lon="10.7922103"><ele>76.0</ele><time>2026-03-28T13:49:07.526Z</time></trkpt><trkpt lat="44.595811" lon="10.7921703"><ele>76.0</ele><time>2026-03-28T13:49:08.532Z</time></trkpt><trkpt lat="44.595624" lon="10.7921146"><ele>76.0</ele><time>2026-03-28T13:49:09.525Z</time></trkpt><trkpt lat="44.5954393" lon="10.7920776"><ele>76.0</ele><time>2026-03-28T13:49:10.533Z</time></trkpt><trkpt lat="44.5952506" lon="10.7920148"><ele>76.0</ele><time>2026-03-28T13:49:11.523Z</time></trkpt><trkpt lat="44.5950648" lon="10.7919752"><ele>76.33333333333333</ele><time>2026-03-28T13:49:12.522Z</time></trkpt><trkpt lat="44.5948843" lon="10.7919353"><ele>76.66666666666667</ele><time>2026-03-28T13:49:13.523Z</time></trkpt><trkpt lat="44.5947017" lon="10.7918991"><ele>77.0</ele><time>2026-03-28T13:49:14.524Z</time></trkpt><trkpt lat="44.5945149" lon="10.7918665"><ele>77.66666666666667</ele><time>2026-03-28T13:49:15.525Z</time></trkpt><trkpt lat="44.5943338" lon="10.7918211"><ele>78.33333333333333</ele><time>2026-03-28T13:49:16.527Z</time></trkpt><trkpt lat="44.5941588" lon="10.7917744"><ele>79.0</ele><time>2026-03-28T13:49:17.523Z</time></trkpt><trkpt lat="44.5939777" lon="10.7917298"><ele>79.0</ele><time>2026-03-28T13:49:18.521Z</time></trkpt><trkpt lat="44.5938089" lon="10.7916779"><ele>79.0</ele><time>2026-03-28T13:49:19.518Z</time></trkpt><trkpt lat="44.5936262" lon="10.7916314"><ele>79.0</ele><time>2026-03-28T13:49:20.518Z</time></trkpt><trkpt lat="44.5934251" lon="10.7915824"><ele>79.0</ele><time>2026-03-28T13:49:21.521Z</time></trkpt><trkpt lat="44.593245" lon="10.7915415"><ele>79.0</ele><time>2026-03-28T13:49:22.519Z</time></trkpt><trkpt lat="44.5930649" lon="10.7914905"><ele>79.0</ele><time>2026-03-28T13:49:23.515Z</time></trkpt><trkpt lat="44.5928711" lon="10.7914333"><ele>78.66666666666666</ele><time>2026-03-28T13:49:24.532Z</time></trkpt><trkpt lat="44.5926786" lon="10.7913868"><ele>78.33333333333333</ele><time>2026-03-28T13:49:25.522Z</time></trkpt><trkpt lat="44.5924856" lon="10.791335"><ele>78.0</ele><time>2026-03-28T13:49:26.522Z</time></trkpt><trkpt lat="44.5922961" lon="10.7912888"><ele>78.0</ele><time>2026-03-28T13:49:27.529Z</time></trkpt><trkpt lat="44.5921019" lon="10.791242"><ele>78.0</ele><time>2026-03-28T13:49:28.531Z</time></trkpt><trkpt lat="44.5919136" lon="10.7911928"><ele>78.0</ele><time>2026-03-28T13:49:29.53Z</time></trkpt><trkpt lat="44.5917125" lon="10.7911419"><ele>78.33333333333333</ele><time>2026-03-28T13:49:30.535Z</time></trkpt><trkpt lat="44.5915106" lon="10.7910924"><ele>78.66666666666666</ele><time>2026-03-28T13:49:31.529Z</time></trkpt><trkpt lat="44.5913056" lon="10.7910487"><ele>79.0</ele><time>2026-03-28T13:49:32.531Z</time></trkpt><trkpt lat="44.5910948" lon="10.791"><ele>79.66666666666666</ele><time>2026-03-28T13:49:33.536Z</time></trkpt><trkpt lat="44.5908816" lon="10.7909482"><ele>80.33333333333333</ele><time>2026-03-28T13:49:34.521Z</time></trkpt><trkpt lat="44.5906726" lon="10.7908923"><ele>81.0</ele><time>2026-03-28T13:49:35.524Z</time></trkpt><trkpt lat="44.5904776" lon="10.7908401"><ele>81.0</ele><time>2026-03-28T13:49:36.521Z</time></trkpt><trkpt lat="44.5902712" lon="10.7907917"><ele>81.0</ele><time>2026-03-28T13:49:37.521Z</time></trkpt><trkpt lat="44.5900533" lon="10.7907472"><ele>81.0</ele><time>2026-03-28T13:49:38.529Z</time></trkpt><trkpt lat="44.5898304" lon="10.7906912"><ele>81.0</ele><time>2026-03-28T13:49:39.53Z</time></trkpt><trkpt lat="44.5896047" lon="10.7906424"><ele>81.0</ele><time>2026-03-28T13:49:40.526Z</time></trkpt><trkpt lat="44.5893957" lon="10.7905734"><ele>81.0</ele><time>2026-03-28T13:49:41.523Z</time></trkpt><trkpt lat="44.5891697" lon="10.7905134"><ele>81.0</ele><time>2026-03-28T13:49:42.526Z</time></trkpt><trkpt lat="44.5889511" lon="10.7904551"><ele>81.0</ele><time>2026-03-28T13:49:43.522Z</time></trkpt><trkpt lat="44.5887335" lon="10.7904051"><ele>81.0</ele><time>2026-03-28T13:49:44.527Z</time></trkpt><trkpt lat="44.5885157" lon="10.7903543"><ele>82.0</ele><time>2026-03-28T13:49:45.524Z</time></trkpt><trkpt lat="44.5882927" lon="10.7902947"><ele>83.0</ele><time>2026-03-28T13:49:46.527Z</time></trkpt><trkpt lat="44.5880722" lon="10.7902441"><ele>83.0</ele><time>2026-03-28T13:49:47.527Z</time></trkpt><trkpt lat="44.5878579" lon="10.7901935"><ele>83.0</ele><time>2026-03-28T13:49:48.535Z</time></trkpt><trkpt lat="44.5876378" lon="10.7901307"><ele>83.0</ele><time>2026-03-28T13:49:49.523Z</time></trkpt><trkpt lat="44.587416" lon="10.790078"><ele>83.0</ele><time>2026-03-28T13:49:50.53Z</time></trkpt><trkpt lat="44.5871852" lon="10.7900151"><ele>83.0</ele><time>2026-03-28T13:49:51.524Z</time></trkpt><trkpt lat="44.5869591" lon="10.7899601"><ele>82.33333333333334</ele><time>2026-03-28T13:49:52.524Z</time></trkpt><trkpt lat="44.5867448" lon="10.7899089"><ele>81.66666666666667</ele><time>2026-03-28T13:49:53.525Z</time></trkpt><trkpt lat="44.586526" lon="10.7898437"><ele>81.0</ele><time>2026-03-28T13:49:54.526Z</time></trkpt><trkpt lat="44.586308" lon="10.7897828"><ele>81.0</ele><time>2026-03-28T13:49:55.532Z</time></trkpt><trkpt lat="44.5860831" lon="10.7897329"><ele>81.0</ele><time>2026-03-28T13:49:56.523Z</time></trkpt><trkpt lat="44.5858605" lon="10.7896835"><ele>81.0</ele><time>2026-03-28T13:49:57.53Z</time></trkpt><trkpt lat="44.5856373" lon="10.7896332"><ele>81.0</ele><time>2026-03-28T13:49:58.527Z</time></trkpt><trkpt lat="44.5854201" lon="10.7895792"><ele>81.0</ele><time>2026-03-28T13:49:59.527Z</time></trkpt><trkpt lat="44.5852062" lon="10.7895197"><ele>82.0</ele><time>2026-03-28T13:50:00.533Z</time></trkpt><trkpt lat="44.5849893" lon="10.7894658"><ele>83.0</ele><time>2026-03-28T13:50:01.526Z</time></trkpt><trkpt lat="44.5847693" lon="10.7894143"><ele>84.0</ele><time>2026-03-28T13:50:02.523Z</time></trkpt><trkpt lat="44.5845523" lon="10.7893607"><ele>84.5</ele><time>2026-03-28T13:50:03.526Z</time></trkpt><trkpt lat="44.5843316" lon="10.7893118"><ele>85.0</ele><time>2026-03-28T13:50:04.529Z</time></trkpt><trkpt lat="44.5841043" lon="10.7892581"><ele>85.0</ele><time>2026-03-28T13:50:05.524Z</time></trkpt><trkpt lat="44.5838843" lon="10.7892041"><ele>85.0</ele><time>2026-03-28T13:50:06.526Z</time></trkpt><trkpt lat="44.5836772" lon="10.7891504"><ele>85.0</ele><time>2026-03-28T13:50:07.523Z</time></trkpt><trkpt lat="44.5834529" lon="10.7890941"><ele>85.33333333333333</ele><time>2026-03-28T13:50:08.526Z</time></trkpt><trkpt lat="44.5832398" lon="10.7890412"><ele>85.66666666666667</ele><time>2026-03-28T13:50:09.525Z</time></trkpt><trkpt lat="44.5830248" lon="10.7889834"><ele>86.0</ele><time>2026-03-28T13:50:10.529Z</time></trkpt><trkpt lat="44.5828163" lon="10.7889292"><ele>86.33333333333334</ele><time>2026-03-28T13:50:11.529Z</time></trkpt><trkpt lat="44.5826022" lon="10.7888685"><ele>86.66666666666667</ele><time>2026-03-28T13:50:12.53Z</time></trkpt><trkpt lat="44.5823983" lon="10.7888209"><ele>87.0</ele><time>2026-03-28T13:50:13.527Z</time></trkpt><trkpt lat="44.5821824" lon="10.7887631"><ele>86.0</ele><time>2026-03-28T13:50:14.527Z</time></trkpt><trkpt lat="44.5819679" lon="10.7887082"><ele>85.0</ele><time>2026-03-28T13:50:15.531Z</time></trkpt><trkpt lat="44.5817539" lon="10.7886577"><ele>84.0</ele><time>2026-03-28T13:50:16.533Z</time></trkpt><trkpt lat="44.5815414" lon="10.7886086"><ele>84.0</ele><time>2026-03-28T13:50:17.531Z</time></trkpt><trkpt lat="44.5813248" lon="10.7885531"><ele>84.0</ele><time>2026-03-28T13:50:18.53Z</time></trkpt><trkpt lat="44.5811088" lon="10.788512"><ele>84.0</ele><time>2026-03-28T13:50:19.536Z</time></trkpt><trkpt lat="44.5808909" lon="10.7884588"><ele>85.33333333333333</ele><time>2026-03-28T13:50:20.529Z</time></trkpt><trkpt lat="44.5806774" lon="10.7883984"><ele>86.66666666666666</ele><time>2026-03-28T13:50:21.525Z</time></trkpt><trkpt lat="44.5804565" lon="10.7883417"><ele>88.0</ele><time>2026-03-28T13:50:22.527Z</time></trkpt><trkpt lat="44.5802524" lon="10.7882978"><ele>88.66666666666666</ele><time>2026-03-28T13:50:23.519Z</time></trkpt><trkpt lat="44.5800397" lon="10.7882437"><ele>89.33333333333333</ele><time>2026-03-28T13:50:24.528Z</time></trkpt><trkpt lat="44.5798307" lon="10.7881921"><ele>90.0</ele><time>2026-03-28T13:50:25.52Z</time></trkpt><trkpt lat="44.5796137" lon="10.7881335"><ele>90.66666666666667</ele><time>2026-03-28T13:50:26.531Z</time></trkpt><trkpt lat="44.5793978" lon="10.7880766"><ele>91.33333333333334</ele><time>2026-03-28T13:50:27.525Z</time></trkpt><trkpt lat="44.5791904" lon="10.7880192"><ele>92.0</ele><time>2026-03-28T13:50:28.527Z</time></trkpt><trkpt lat="44.5789776" lon="10.7879658"><ele>92.0</ele><time>2026-03-28T13:50:29.524Z</time></trkpt><trkpt lat="44.5787643" lon="10.787909"><ele>92.0</ele><time>2026-03-28T13:50:30.529Z</time></trkpt><trkpt lat="44.5785501" lon="10.7878545"><ele>92.0</ele><time>2026-03-28T13:50:31.534Z</time></trkpt><trkpt lat="44.5783355" lon="10.7878103"><ele>90.33333333333334</ele><time>2026-03-28T13:50:32.53Z</time></trkpt><trkpt lat="44.5781234" lon="10.7877463"><ele>88.66666666666667</ele><time>2026-03-28T13:50:33.532Z</time></trkpt><trkpt lat="44.5779154" lon="10.787696"><ele>87.0</ele><time>2026-03-28T13:50:34.532Z</time></trkpt><trkpt lat="44.5776991" lon="10.7876421"><ele>86.33333333333333</ele><time>2026-03-28T13:50:35.534Z</time></trkpt><trkpt lat="44.5774936" lon="10.7875925"><ele>85.66666666666666</ele><time>2026-03-28T13:50:36.533Z</time></trkpt><trkpt lat="44.5772756" lon="10.7875508"><ele>85.0</ele><time>2026-03-28T13:50:37.531Z</time></trkpt><trkpt lat="44.577059" lon="10.7875025"><ele>86.33333333333333</ele><time>2026-03-28T13:50:38.529Z</time></trkpt><trkpt lat="44.5768378" lon="10.7874468"><ele>87.66666666666667</ele><time>2026-03-28T13:50:39.531Z</time></trkpt><trkpt lat="44.5766252" lon="10.7873916"><ele>89.0</ele><time>2026-03-28T13:50:40.529Z</time></trkpt><trkpt lat="44.5764082" lon="10.7873332"><ele>89.0</ele><time>2026-03-28T13:50:41.532Z</time></trkpt><trkpt lat="44.5761867" lon="10.7872667"><ele>89.0</ele><time>2026-03-28T13:50:42.528Z</time></trkpt><trkpt lat="44.5759677" lon="10.7872167"><ele>89.0</ele><time>2026-03-28T13:50:43.53Z</time></trkpt><trkpt lat="44.5757307" lon="10.7871556"><ele>89.33333333333334</ele><time>2026-03-28T13:50:44.537Z</time></trkpt><trkpt lat="44.5755076" lon="10.7871054"><ele>89.66666666666667</ele><time>2026-03-28T13:50:45.534Z</time></trkpt><trkpt lat="44.5753095" lon="10.787055"><ele>90.0</ele><time>2026-03-28T13:50:46.526Z</time></trkpt><trkpt lat="44.5751103" lon="10.7869993"><ele>90.66666666666667</ele><time>2026-03-28T13:50:47.519Z</time></trkpt><trkpt lat="44.5749229" lon="10.7869555"><ele>91.33333333333334</ele><time>2026-03-28T13:50:48.529Z</time></trkpt><trkpt lat="44.5747459" lon="10.7869058"><ele>92.0</ele><time>2026-03-28T13:50:49.526Z</time></trkpt><trkpt lat="44.5745633" lon="10.786858"><ele>91.66666666666667</ele><time>2026-03-28T13:50:50.538Z</time></trkpt><trkpt lat="44.5743849" lon="10.7868187"><ele>91.33333333333333</ele><time>2026-03-28T13:50:51.532Z</time></trkpt><trkpt lat="44.5742023" lon="10.7867771"><ele>91.0</ele><time>2026-03-28T13:50:52.539Z</time></trkpt><trkpt lat="44.5740104" lon="10.7867389"><ele>91.0</ele><time>2026-03-28T13:50:53.527Z</time></trkpt><trkpt lat="44.5738242" lon="10.7866853"><ele>91.0</ele><time>2026-03-28T13:50:54.527Z</time></trkpt><trkpt lat="44.5736382" lon="10.7866484"><ele>91.0</ele><time>2026-03-28T13:50:55.535Z</time></trkpt><trkpt lat="44.5734531" lon="10.7866013"><ele>91.66666666666666</ele><time>2026-03-28T13:50:56.53Z</time></trkpt><trkpt lat="44.5732543" lon="10.7865553"><ele>92.33333333333333</ele><time>2026-03-28T13:50:57.535Z</time></trkpt><trkpt lat="44.5730622" lon="10.7865035"><ele>93.0</ele><time>2026-03-28T13:50:58.529Z</time></trkpt><trkpt lat="44.5728756" lon="10.786463"><ele>92.66666666666667</ele><time>2026-03-28T13:50:59.53Z</time></trkpt><trkpt lat="44.5726879" lon="10.7864154"><ele>92.33333333333334</ele><time>2026-03-28T13:51:00.537Z</time></trkpt><trkpt lat="44.5724974" lon="10.7863638"><ele>92.0</ele><time>2026-03-28T13:51:01.53Z</time></trkpt><trkpt lat="44.5723096" lon="10.7863153"><ele>92.0</ele><time>2026-03-28T13:51:02.538Z</time></trkpt><trkpt lat="44.5721281" lon="10.7862723"><ele>92.0</ele><time>2026-03-28T13:51:03.536Z</time></trkpt><trkpt lat="44.5719417" lon="10.7862195"><ele>92.0</ele><time>2026-03-28T13:51:04.533Z</time></trkpt><trkpt lat="44.5717498" lon="10.786168"><ele>92.0</ele><time>2026-03-28T13:51:05.527Z</time></trkpt><trkpt lat="44.571556" lon="10.7861213"><ele>92.0</ele><time>2026-03-28T13:51:06.53Z</time></trkpt><trkpt lat="44.5713715" lon="10.7860739"><ele>92.0</ele><time>2026-03-28T13:51:07.533Z</time></trkpt><trkpt lat="44.5711715" lon="10.7860266"><ele>93.33333333333334</ele><time>2026-03-28T13:51:08.529Z</time></trkpt><trkpt lat="44.5709743" lon="10.7859788"><ele>94.66666666666667</ele><time>2026-03-28T13:51:09.533Z</time></trkpt><trkpt lat="44.5707818" lon="10.7859282"><ele>96.0</ele><time>2026-03-28T13:51:10.532Z</time></trkpt><trkpt lat="44.5705941" lon="10.7858779"><ele>96.0</ele><time>2026-03-28T13:51:11.528Z</time></trkpt><trkpt lat="44.5703976" lon="10.7858336"><ele>96.0</ele><time>2026-03-28T13:51:12.534Z</time></trkpt><trkpt lat="44.570203" lon="10.7857885"><ele>96.0</ele><time>2026-03-28T13:51:13.528Z</time></trkpt><trkpt lat="44.5700047" lon="10.7857436"><ele>96.33333333333334</ele><time>2026-03-28T13:51:14.526Z</time></trkpt><trkpt lat="44.5698141" lon="10.7856893"><ele>96.66666666666667</ele><time>2026-03-28T13:51:15.528Z</time></trkpt><trkpt lat="44.5696234" lon="10.7856312"><ele>97.0</ele><time>2026-03-28T13:51:16.533Z</time></trkpt><trkpt lat="44.5694284" lon="10.7855852"><ele>97.0</ele><time>2026-03-28T13:51:17.531Z</time></trkpt><trkpt lat="44.5692255" lon="10.7855451"><ele>97.0</ele><time>2026-03-28T13:51:18.532Z</time></trkpt><trkpt lat="44.5690271" lon="10.7854972"><ele>97.0</ele><time>2026-03-28T13:51:19.53Z</time></trkpt><trkpt lat="44.568825" lon="10.7854405"><ele>97.66666666666667</ele><time>2026-03-28T13:51:20.526Z</time></trkpt><trkpt lat="44.5686258" lon="10.7853805"><ele>98.33333333333334</ele><time>2026-03-28T13:51:21.537Z</time></trkpt><trkpt lat="44.5684347" lon="10.7853287"><ele>99.0</ele><time>2026-03-28T13:51:22.527Z</time></trkpt><trkpt lat="44.5682431" lon="10.7852646"><ele>99.0</ele><time>2026-03-28T13:51:23.531Z</time></trkpt><trkpt lat="44.5680582" lon="10.7852053"><ele>99.0</ele><time>2026-03-28T13:51:24.528Z</time></trkpt><trkpt lat="44.5678758" lon="10.7851557"><ele>99.0</ele><time>2026-03-28T13:51:25.531Z</time></trkpt><trkpt lat="44.567694" lon="10.7850997"><ele>98.0</ele><time>2026-03-28T13:51:26.528Z</time></trkpt><trkpt lat="44.5675137" lon="10.7850528"><ele>97.0</ele><time>2026-03-28T13:51:27.532Z</time></trkpt><trkpt lat="44.5673138" lon="10.7850108"><ele>96.0</ele><time>2026-03-28T13:51:28.532Z</time></trkpt><trkpt lat="44.5671066" lon="10.7849617"><ele>96.0</ele><time>2026-03-28T13:51:29.536Z</time></trkpt><trkpt lat="44.566905" lon="10.784917"><ele>96.0</ele><time>2026-03-28T13:51:30.532Z</time></trkpt><trkpt lat="44.5666986" lon="10.7848692"><ele>96.0</ele><time>2026-03-28T13:51:31.535Z</time></trkpt><trkpt lat="44.5665005" lon="10.784813"><ele>96.0</ele><time>2026-03-28T13:51:32.529Z</time></trkpt><trkpt lat="44.5663112" lon="10.7847831"><ele>96.0</ele><time>2026-03-28T13:51:33.535Z</time></trkpt><trkpt lat="44.5661054" lon="10.7847386"><ele>96.0</ele><time>2026-03-28T13:51:34.535Z</time></trkpt><trkpt lat="44.5659103" lon="10.7846883"><ele>96.33333333333334</ele><time>2026-03-28T13:51:35.53Z</time></trkpt><trkpt lat="44.5657081" lon="10.784647"><ele>96.66666666666667</ele><time>2026-03-28T13:51:36.539Z</time></trkpt><trkpt lat="44.5655016" lon="10.784596"><ele>97.0</ele><time>2026-03-28T13:51:37.535Z</time></trkpt><trkpt lat="44.5653156" lon="10.7845423"><ele>98.33333333333334</ele><time>2026-03-28T13:51:38.526Z</time></trkpt><trkpt lat="44.5651144" lon="10.7844927"><ele>99.66666666666666</ele><time>2026-03-28T13:51:39.531Z</time></trkpt><trkpt lat="44.564903" lon="10.7844563"><ele>101.0</ele><time>2026-03-28T13:51:40.524Z</time></trkpt><trkpt lat="44.5646966" lon="10.7844038"><ele>100.66666666666666</ele><time>2026-03-28T13:51:41.531Z</time></trkpt><trkpt lat="44.5644913" lon="10.7843586"><ele>100.33333333333334</ele><time>2026-03-28T13:51:42.53Z</time></trkpt><trkpt lat="44.5642812" lon="10.7843155"><ele>100.0</ele><time>2026-03-28T13:51:43.531Z</time></trkpt><trkpt lat="44.5640889" lon="10.7842821"><ele>100.0</ele><time>2026-03-28T13:51:44.533Z</time></trkpt><trkpt lat="44.563882" lon="10.7842314"><ele>100.0</ele><time>2026-03-28T13:51:45.531Z</time></trkpt><trkpt lat="44.5636766" lon="10.7841849"><ele>100.0</ele><time>2026-03-28T13:51:46.529Z</time></trkpt><trkpt lat="44.5634725" lon="10.7841251"><ele>100.0</ele><time>2026-03-28T13:51:47.528Z</time></trkpt><trkpt lat="44.5632706" lon="10.7840829"><ele>100.0</ele><time>2026-03-28T13:51:48.532Z</time></trkpt><trkpt lat="44.5630661" lon="10.7840409"><ele>100.0</ele><time>2026-03-28T13:51:49.534Z</time></trkpt><trkpt lat="44.5628727" lon="10.7840063"><ele>100.33333333333334</ele><time>2026-03-28T13:51:50.542Z</time></trkpt><trkpt lat="44.5626691" lon="10.7839769"><ele>100.66666666666666</ele><time>2026-03-28T13:51:51.533Z</time></trkpt><trkpt lat="44.5624687" lon="10.7839368"><ele>101.0</ele><time>2026-03-28T13:51:52.541Z</time></trkpt><trkpt lat="44.5622688" lon="10.7838915"><ele>101.0</ele><time>2026-03-28T13:51:53.529Z</time></trkpt><trkpt lat="44.5620764" lon="10.7838499"><ele>101.0</ele><time>2026-03-28T13:51:54.532Z</time></trkpt><trkpt lat="44.5618884" lon="10.7837953"><ele>101.0</ele><time>2026-03-28T13:51:55.532Z</time></trkpt><trkpt lat="44.5616924" lon="10.7837363"><ele>101.33333333333333</ele><time>2026-03-28T13:51:56.524Z</time></trkpt><trkpt lat="44.561493" lon="10.7836735"><ele>101.66666666666666</ele><time>2026-03-28T13:51:57.524Z</time></trkpt><trkpt lat="44.5612993" lon="10.7836163"><ele>102.0</ele><time>2026-03-28T13:51:58.523Z</time></trkpt><trkpt lat="44.5611013" lon="10.7835692"><ele>102.0</ele><time>2026-03-28T13:51:59.528Z</time></trkpt><trkpt lat="44.5609014" lon="10.7835165"><ele>102.0</ele><time>2026-03-28T13:52:00.534Z</time></trkpt><trkpt lat="44.5607084" lon="10.7834561"><ele>102.0</ele><time>2026-03-28T13:52:01.533Z</time></trkpt><trkpt lat="44.5605049" lon="10.7834003"><ele>102.66666666666666</ele><time>2026-03-28T13:52:02.53Z</time></trkpt><trkpt lat="44.5603123" lon="10.7833562"><ele>103.33333333333333</ele><time>2026-03-28T13:52:03.531Z</time></trkpt><trkpt lat="44.5601199" lon="10.7833058"><ele>104.0</ele><time>2026-03-28T13:52:04.527Z</time></trkpt><trkpt lat="44.559936" lon="10.7832496"><ele>104.0</ele><time>2026-03-28T13:52:05.525Z</time></trkpt><trkpt lat="44.559753" lon="10.7831903"><ele>104.0</ele><time>2026-03-28T13:52:06.524Z</time></trkpt><trkpt lat="44.5595694" lon="10.7831432"><ele>104.0</ele><time>2026-03-28T13:52:07.518Z</time></trkpt><trkpt lat="44.5594123" lon="10.7830912"><ele>104.25</ele><time>2026-03-28T13:52:08.519Z</time></trkpt><trkpt lat="44.5592577" lon="10.7830529"><ele>104.5</ele><time>2026-03-28T13:52:09.523Z</time></trkpt><trkpt lat="44.5591209" lon="10.7829814"><ele>104.75</ele><time>2026-03-28T13:52:10.522Z</time></trkpt><trkpt lat="44.5590008" lon="10.782927"><ele>105.0</ele><time>2026-03-28T13:52:11.519Z</time></trkpt><trkpt lat="44.5588914" lon="10.782843"><ele>105.0</ele><time>2026-03-28T13:52:12.522Z</time></trkpt><trkpt lat="44.5587805" lon="10.7827079"><ele>105.0</ele><time>2026-03-28T13:52:13.511Z</time></trkpt><trkpt lat="44.5586856" lon="10.7825758"><ele>105.0</ele><time>2026-03-28T13:52:14.512Z</time></trkpt><trkpt lat="44.5586102" lon="10.7824368"><ele>105.0</ele><time>2026-03-28T13:52:15.52Z</time></trkpt><trkpt lat="44.5585581" lon="10.7823078"><ele>104.8</ele><time>2026-03-28T13:52:16.523Z</time></trkpt><trkpt lat="44.5585174" lon="10.7821831"><ele>104.6</ele><time>2026-03-28T13:52:17.52Z</time></trkpt><trkpt lat="44.5585074" lon="10.7820311"><ele>104.4</ele><time>2026-03-28T13:52:18.521Z</time></trkpt><trkpt lat="44.5585287" lon="10.7818658"><ele>104.2</ele><time>2026-03-28T13:52:19.522Z</time></trkpt><trkpt lat="44.5585571" lon="10.781706"><ele>104.0</ele><time>2026-03-28T13:52:20.519Z</time></trkpt><trkpt lat="44.558604" lon="10.7815479"><ele>104.0</ele><time>2026-03-28T13:52:21.528Z</time></trkpt><trkpt lat="44.5586777" lon="10.7813982"><ele>104.0</ele><time>2026-03-28T13:52:22.52Z</time></trkpt><trkpt lat="44.5587649" lon="10.7812662"><ele>104.0</ele><time>2026-03-28T13:52:23.533Z</time></trkpt><trkpt lat="44.5588651" lon="10.7811755"><ele>104.0</ele><time>2026-03-28T13:52:24.525Z</time></trkpt><trkpt lat="44.5589931" lon="10.7811354"><ele>104.0</ele><time>2026-03-28T13:52:25.53Z</time></trkpt><trkpt lat="44.5591402" lon="10.7811194"><ele>104.0</ele><time>2026-03-28T13:52:26.517Z</time></trkpt><trkpt lat="44.5593091" lon="10.7811232"><ele>104.0</ele><time>2026-03-28T13:52:27.512Z</time></trkpt><trkpt lat="44.5594636" lon="10.7810768"><ele>103.75</ele><time>2026-03-28T13:52:28.505Z</time></trkpt><trkpt lat="44.5596204" lon="10.7810454"><ele>103.5</ele><time>2026-03-28T13:52:29.507Z</time></trkpt><trkpt lat="44.5597603" lon="10.7809728"><ele>103.25</ele><time>2026-03-28T13:52:30.501Z</time></trkpt><trkpt lat="44.5598665" lon="10.7808891"><ele>103.0</ele><time>2026-03-28T13:52:31.512Z</time></trkpt><trkpt lat="44.5599421" lon="10.7807603"><ele>103.0</ele><time>2026-03-28T13:52:32.509Z</time></trkpt><trkpt lat="44.5599795" lon="10.7806149"><ele>103.0</ele><time>2026-03-28T13:52:33.518Z</time></trkpt><trkpt lat="44.5599751" lon="10.7804625"><ele>103.0</ele><time>2026-03-28T13:52:34.51Z</time></trkpt><trkpt lat="44.5599514" lon="10.7803147"><ele>103.0</ele><time>2026-03-28T13:52:35.498Z</time></trkpt><trkpt lat="44.5599025" lon="10.7801975"><ele>103.0</ele><time>2026-03-28T13:52:36.499Z</time></trkpt><trkpt lat="44.5598298" lon="10.7800968"><ele>103.0</ele><time>2026-03-28T13:52:37.502Z</time></trkpt><trkpt lat="44.5597418" lon="10.7800341"><ele>103.0</ele><time>2026-03-28T13:52:38.512Z</time></trkpt><trkpt lat="44.5596486" lon="10.7799931"><ele>103.0</ele><time>2026-03-28T13:52:39.509Z</time></trkpt><trkpt lat="44.5595558" lon="10.77998"><ele>103.0</ele><time>2026-03-28T13:52:40.512Z</time></trkpt><trkpt lat="44.5594756" lon="10.7799728"><ele>103.0</ele><time>2026-03-28T13:52:41.523Z</time></trkpt><trkpt lat="44.5593951" lon="10.779946"><ele>103.2</ele><time>2026-03-28T13:52:42.511Z</time></trkpt><trkpt lat="44.559318" lon="10.7798766"><ele>103.4</ele><time>2026-03-28T13:52:43.507Z</time></trkpt><trkpt lat="44.5592453" lon="10.7797898"><ele>103.60000000000001</ele><time>2026-03-28T13:52:44.529Z</time></trkpt><trkpt lat="44.5591873" lon="10.7796729"><ele>103.80000000000001</ele><time>2026-03-28T13:52:45.531Z</time></trkpt><trkpt lat="44.5591526" lon="10.7795485"><ele>104.0</ele><time>2026-03-28T13:52:46.525Z</time></trkpt><trkpt lat="44.5591294" lon="10.7794326"><ele>103.4</ele><time>2026-03-28T13:52:47.517Z</time></trkpt><trkpt lat="44.5591133" lon="10.7793212"><ele>102.80000000000001</ele><time>2026-03-28T13:52:48.529Z</time></trkpt><trkpt lat="44.5590943" lon="10.7791936"><ele>102.19999999999999</ele><time>2026-03-28T13:52:49.527Z</time></trkpt><trkpt lat="44.5590804" lon="10.7790512"><ele>101.6</ele><time>2026-03-28T13:52:50.53Z</time></trkpt><trkpt lat="44.5590608" lon="10.7789056"><ele>101.0</ele><time>2026-03-28T13:52:51.535Z</time></trkpt><trkpt lat="44.5590498" lon="10.7787429"><ele>101.0</ele><time>2026-03-28T13:52:52.513Z</time></trkpt><trkpt lat="44.5590344" lon="10.7785611"><ele>101.0</ele><time>2026-03-28T13:52:53.529Z</time></trkpt><trkpt lat="44.5590284" lon="10.7783708"><ele>101.0</ele><time>2026-03-28T13:52:54.532Z</time></trkpt><trkpt lat="44.5590191" lon="10.7781558"><ele>101.0</ele><time>2026-03-28T13:52:55.537Z</time></trkpt><trkpt lat="44.5590113" lon="10.7778845"><ele>103.0</ele><time>2026-03-28T13:52:56.537Z</time></trkpt><trkpt lat="44.5590255" lon="10.7775706"><ele>105.0</ele><time>2026-03-28T13:52:57.533Z</time></trkpt><trkpt lat="44.5590523" lon="10.7772343"><ele>105.0</ele><time>2026-03-28T13:52:58.518Z</time></trkpt><trkpt lat="44.5590731" lon="10.7769108"><ele>105.0</ele><time>2026-03-28T13:52:59.524Z</time></trkpt><trkpt lat="44.5591047" lon="10.7765862"><ele>107.0</ele><time>2026-03-28T13:53:00.524Z</time></trkpt><trkpt lat="44.559147" lon="10.7762241"><ele>109.0</ele><time>2026-03-28T13:53:01.526Z</time></trkpt><trkpt lat="44.5591891" lon="10.7758563"><ele>109.0</ele><time>2026-03-28T13:53:02.528Z</time></trkpt><trkpt lat="44.5592237" lon="10.7755101"><ele>109.0</ele><time>2026-03-28T13:53:03.528Z</time></trkpt><trkpt lat="44.5592589" lon="10.7751567"><ele>106.0</ele><time>2026-03-28T13:53:04.52Z</time></trkpt><trkpt lat="44.5592935" lon="10.7747924"><ele>103.0</ele><time>2026-03-28T13:53:05.525Z</time></trkpt><trkpt lat="44.5593274" lon="10.7744273"><ele>101.5</ele><time>2026-03-28T13:53:06.525Z</time></trkpt><trkpt lat="44.5593569" lon="10.7740533"><ele>100.0</ele><time>2026-03-28T13:53:07.528Z</time></trkpt><trkpt lat="44.5593926" lon="10.7736772"><ele>99.0</ele><time>2026-03-28T13:53:08.533Z</time></trkpt><trkpt lat="44.5594377" lon="10.7732994"><ele>98.0</ele><time>2026-03-28T13:53:09.529Z</time></trkpt><trkpt lat="44.5594829" lon="10.7729263"><ele>98.0</ele><time>2026-03-28T13:53:10.533Z</time></trkpt><trkpt lat="44.5595327" lon="10.7725552"><ele>98.0</ele><time>2026-03-28T13:53:11.532Z</time></trkpt><trkpt lat="44.5595654" lon="10.7721945"><ele>98.0</ele><time>2026-03-28T13:53:12.529Z</time></trkpt><trkpt lat="44.5595931" lon="10.7718325"><ele>98.0</ele><time>2026-03-28T13:53:13.527Z</time></trkpt><trkpt lat="44.5596245" lon="10.7714812"><ele>98.0</ele><time>2026-03-28T13:53:14.527Z</time></trkpt><trkpt lat="44.5596652" lon="10.7711397"><ele>98.0</ele><time>2026-03-28T13:53:15.531Z</time></trkpt><trkpt lat="44.559701" lon="10.7708161"><ele>99.33333333333333</ele><time>2026-03-28T13:53:16.53Z</time></trkpt><trkpt lat="44.5597292" lon="10.7705011"><ele>100.66666666666666</ele><time>2026-03-28T13:53:17.528Z</time></trkpt><trkpt lat="44.5597661" lon="10.7702079"><ele>102.0</ele><time>2026-03-28T13:53:18.523Z</time></trkpt><trkpt lat="44.5598005" lon="10.7699354"><ele>103.0</ele><time>2026-03-28T13:53:19.522Z</time></trkpt><trkpt lat="44.5598466" lon="10.7696801"><ele>104.0</ele><time>2026-03-28T13:53:20.519Z</time></trkpt><trkpt lat="44.559914" lon="10.7694312"><ele>105.0</ele><time>2026-03-28T13:53:21.515Z</time></trkpt><trkpt lat="44.560028" lon="10.7691843"><ele>105.66666666666666</ele><time>2026-03-28T13:53:22.512Z</time></trkpt><trkpt lat="44.560142" lon="10.7689357"><ele>106.33333333333333</ele><time>2026-03-28T13:53:23.518Z</time></trkpt><trkpt lat="44.5602585" lon="10.7686865"><ele>107.0</ele><time>2026-03-28T13:53:24.53Z</time></trkpt><trkpt lat="44.5603433" lon="10.7684411"><ele>107.33333333333333</ele><time>2026-03-28T13:53:25.517Z</time></trkpt><trkpt lat="44.5604123" lon="10.7681821"><ele>107.66666666666666</ele><time>2026-03-28T13:53:26.515Z</time></trkpt><trkpt lat="44.5604536" lon="10.7679096"><ele>108.0</ele><time>2026-03-28T13:53:27.512Z</time></trkpt><trkpt lat="44.5604873" lon="10.7676326"><ele>108.0</ele><time>2026-03-28T13:53:28.52Z</time></trkpt><trkpt lat="44.5605175" lon="10.7673484"><ele>108.0</ele><time>2026-03-28T13:53:29.518Z</time></trkpt><trkpt lat="44.5605488" lon="10.7670673"><ele>108.0</ele><time>2026-03-28T13:53:30.523Z</time></trkpt><trkpt lat="44.5605772" lon="10.7667863"><ele>110.0</ele><time>2026-03-28T13:53:31.521Z</time></trkpt><trkpt lat="44.5606027" lon="10.7665058"><ele>112.0</ele><time>2026-03-28T13:53:32.52Z</time></trkpt><trkpt lat="44.5606245" lon="10.7662166"><ele>114.0</ele><time>2026-03-28T13:53:33.532Z</time></trkpt><trkpt lat="44.5606612" lon="10.7659334"><ele>115.66666666666666</ele><time>2026-03-28T13:53:34.514Z</time></trkpt><trkpt lat="44.560691" lon="10.7656452"><ele>117.33333333333333</ele><time>2026-03-28T13:53:35.513Z</time></trkpt><trkpt lat="44.5607188" lon="10.7653481"><ele>119.0</ele><time>2026-03-28T13:53:36.508Z</time></trkpt><trkpt lat="44.5607444" lon="10.7650372"><ele>120.33333333333333</ele><time>2026-03-28T13:53:37.503Z</time></trkpt><trkpt lat="44.5607566" lon="10.7647223"><ele>121.66666666666666</ele><time>2026-03-28T13:53:38.51Z</time></trkpt><trkpt lat="44.5607812" lon="10.764414"><ele>123.0</ele><time>2026-03-28T13:53:39.501Z</time></trkpt><trkpt lat="44.560812" lon="10.7641141"><ele>123.0</ele><time>2026-03-28T13:53:40.51Z</time></trkpt><trkpt lat="44.5608513" lon="10.7638292"><ele>123.0</ele><time>2026-03-28T13:53:41.512Z</time></trkpt><trkpt lat="44.5608833" lon="10.7635434"><ele>123.0</ele><time>2026-03-28T13:53:42.503Z</time></trkpt><trkpt lat="44.5609118" lon="10.7632414"><ele>123.0</ele><time>2026-03-28T13:53:43.515Z</time></trkpt><trkpt lat="44.5609453" lon="10.7629402"><ele>123.0</ele><time>2026-03-28T13:53:44.507Z</time></trkpt><trkpt lat="44.5609795" lon="10.7626527"><ele>123.0</ele><time>2026-03-28T13:53:45.519Z</time></trkpt><trkpt lat="44.5609978" lon="10.7623685"><ele>123.0</ele><time>2026-03-28T13:53:46.521Z</time></trkpt><trkpt lat="44.5610333" lon="10.7621035"><ele>123.0</ele><time>2026-03-28T13:53:47.516Z</time></trkpt><trkpt lat="44.5610687" lon="10.7618116"><ele>123.0</ele><time>2026-03-28T13:53:48.517Z</time></trkpt><trkpt lat="44.561098" lon="10.7615436"><ele>123.33333333333334</ele><time>2026-03-28T13:53:49.513Z</time></trkpt><trkpt lat="44.5611445" lon="10.7612722"><ele>123.66666666666667</ele><time>2026-03-28T13:53:50.514Z</time></trkpt><trkpt lat="44.5612121" lon="10.7610061"><ele>124.0</ele><time>2026-03-28T13:53:51.515Z</time></trkpt><trkpt lat="44.5612727" lon="10.760738"><ele>124.0</ele><time>2026-03-28T13:53:52.511Z</time></trkpt><trkpt lat="44.5613458" lon="10.7604843"><ele>124.0</ele><time>2026-03-28T13:53:53.505Z</time></trkpt><trkpt lat="44.5614507" lon="10.7602401"><ele>124.0</ele><time>2026-03-28T13:53:54.507Z</time></trkpt><trkpt lat="44.5615581" lon="10.7600254"><ele>124.0</ele><time>2026-03-28T13:53:55.501Z</time></trkpt><trkpt lat="44.561672" lon="10.7598342"><ele>124.0</ele><time>2026-03-28T13:53:56.499Z</time></trkpt><trkpt lat="44.5617815" lon="10.7596645"><ele>124.0</ele><time>2026-03-28T13:53:57.495Z</time></trkpt><trkpt lat="44.5619174" lon="10.7595157"><ele>123.66666666666667</ele><time>2026-03-28T13:53:58.502Z</time></trkpt><trkpt lat="44.5620561" lon="10.7593542"><ele>123.33333333333334</ele><time>2026-03-28T13:53:59.503Z</time></trkpt><trkpt lat="44.5622027" lon="10.7591885"><ele>123.0</ele><time>2026-03-28T13:54:00.511Z</time></trkpt><trkpt lat="44.5623372" lon="10.759055"><ele>123.0</ele><time>2026-03-28T13:54:01.52Z</time></trkpt><trkpt lat="44.5624793" lon="10.7589217"><ele>123.0</ele><time>2026-03-28T13:54:02.525Z</time></trkpt><trkpt lat="44.5626055" lon="10.7587983"><ele>123.0</ele><time>2026-03-28T13:54:03.536Z</time></trkpt><trkpt lat="44.562738" lon="10.7586887"><ele>122.33333333333334</ele><time>2026-03-28T13:54:04.528Z</time></trkpt><trkpt lat="44.5628715" lon="10.7585873"><ele>121.66666666666667</ele><time>2026-03-28T13:54:05.53Z</time></trkpt><trkpt lat="44.5630199" lon="10.7584881"><ele>121.0</ele><time>2026-03-28T13:54:06.529Z</time></trkpt><trkpt lat="44.5631645" lon="10.7583896"><ele>120.0</ele><time>2026-03-28T13:54:07.529Z</time></trkpt><trkpt lat="44.5633173" lon="10.7582902"><ele>119.0</ele><time>2026-03-28T13:54:08.533Z</time></trkpt><trkpt lat="44.5634669" lon="10.7581838"><ele>118.0</ele><time>2026-03-28T13:54:09.529Z</time></trkpt><trkpt lat="44.5636032" lon="10.7580815"><ele>119.66666666666667</ele><time>2026-03-28T13:54:10.528Z</time></trkpt><trkpt lat="44.5637492" lon="10.7579744"><ele>121.33333333333334</ele><time>2026-03-28T13:54:11.532Z</time></trkpt><trkpt lat="44.5638808" lon="10.7578794"><ele>123.0</ele><time>2026-03-28T13:54:12.527Z</time></trkpt><trkpt lat="44.5640082" lon="10.7577901"><ele>123.75</ele><time>2026-03-28T13:54:13.527Z</time></trkpt><trkpt lat="44.5641272" lon="10.7577011"><ele>124.5</ele><time>2026-03-28T13:54:14.535Z</time></trkpt><trkpt lat="44.5642447" lon="10.7576266"><ele>125.25</ele><time>2026-03-28T13:54:15.53Z</time></trkpt><trkpt lat="44.5643696" lon="10.7575314"><ele>126.0</ele><time>2026-03-28T13:54:16.531Z</time></trkpt><trkpt lat="44.56449" lon="10.7574424"><ele>124.8</ele><time>2026-03-28T13:54:17.53Z</time></trkpt><trkpt lat="44.5645936" lon="10.757361"><ele>123.6</ele><time>2026-03-28T13:54:18.524Z</time></trkpt><trkpt lat="44.5646889" lon="10.7572894"><ele>122.4</ele><time>2026-03-28T13:54:19.532Z</time></trkpt><trkpt lat="44.5647842" lon="10.7572176"><ele>121.2</ele><time>2026-03-28T13:54:20.529Z</time></trkpt><trkpt lat="44.5648746" lon="10.7571525"><ele>120.0</ele><time>2026-03-28T13:54:21.529Z</time></trkpt><trkpt lat="44.5649643" lon="10.757087"><ele>120.0</ele><time>2026-03-28T13:54:22.524Z</time></trkpt><trkpt lat="44.565045" lon="10.7570266"><ele>120.0</ele><time>2026-03-28T13:54:23.527Z</time></trkpt><trkpt lat="44.5651183" lon="10.7569765"><ele>120.0</ele><time>2026-03-28T13:54:24.526Z</time></trkpt><trkpt lat="44.5651871" lon="10.7569379"><ele>120.0</ele><time>2026-03-28T13:54:25.528Z</time></trkpt><trkpt lat="44.5652675" lon="10.7569094"><ele>120.0</ele><time>2026-03-28T13:54:26.533Z</time></trkpt><trkpt lat="44.565357" lon="10.7568956"><ele>120.0</ele><time>2026-03-28T13:54:27.526Z</time></trkpt><trkpt lat="44.5654424" lon="10.7568859"><ele>120.16666666666667</ele><time>2026-03-28T13:54:28.526Z</time></trkpt><trkpt lat="44.5655277" lon="10.7568709"><ele>120.33333333333334</ele><time>2026-03-28T13:54:29.524Z</time></trkpt><trkpt lat="44.5656092" lon="10.7568419"><ele>120.5</ele><time>2026-03-28T13:54:30.516Z</time></trkpt><trkpt lat="44.5656891" lon="10.7567715"><ele>120.66666666666667</ele><time>2026-03-28T13:54:31.518Z</time></trkpt><trkpt lat="44.5657542" lon="10.7566811"><ele>120.83333333333334</ele><time>2026-03-28T13:54:32.516Z</time></trkpt><trkpt lat="44.5657951" lon="10.7565821"><ele>121.0</ele><time>2026-03-28T13:54:33.532Z</time></trkpt><trkpt lat="44.5658104" lon="10.7564624"><ele>121.16666666666667</ele><time>2026-03-28T13:54:34.513Z</time></trkpt><trkpt lat="44.5658045" lon="10.7563437"><ele>121.33333333333334</ele><time>2026-03-28T13:54:35.512Z</time></trkpt><trkpt lat="44.5657759" lon="10.7562383"><ele>121.5</ele><time>2026-03-28T13:54:36.517Z</time></trkpt><trkpt lat="44.5657213" lon="10.7561468"><ele>121.66666666666666</ele><time>2026-03-28T13:54:37.518Z</time></trkpt><trkpt lat="44.565655" lon="10.7560744"><ele>121.83333333333333</ele><time>2026-03-28T13:54:38.525Z</time></trkpt><trkpt lat="44.5655704" lon="10.756017"><ele>122.0</ele><time>2026-03-28T13:54:39.528Z</time></trkpt><trkpt lat="44.5654811" lon="10.7559807"><ele>122.39999999999999</ele><time>2026-03-28T13:54:40.529Z</time></trkpt><trkpt lat="44.5653868" lon="10.7559285"><ele>122.79999999999998</ele><time>2026-03-28T13:54:41.528Z</time></trkpt><trkpt lat="44.5653023" lon="10.7558655"><ele>123.2</ele><time>2026-03-28T13:54:42.517Z</time></trkpt><trkpt lat="44.5652174" lon="10.7557776"><ele>123.6</ele><time>2026-03-28T13:54:43.51Z</time></trkpt><trkpt lat="44.5651173" lon="10.7556552"><ele>124.0</ele><time>2026-03-28T13:54:44.506Z</time></trkpt><trkpt lat="44.5650066" lon="10.7555062"><ele>125.66666666666667</ele><time>2026-03-28T13:54:45.524Z</time></trkpt><trkpt lat="44.5648763" lon="10.7553371"><ele>127.33333333333334</ele><time>2026-03-28T13:54:46.515Z</time></trkpt><trkpt lat="44.5647299" lon="10.7551598"><ele>129.0</ele><time>2026-03-28T13:54:47.511Z</time></trkpt><trkpt lat="44.5645992" lon="10.754959"><ele>131.0</ele><time>2026-03-28T13:54:48.525Z</time></trkpt><trkpt lat="44.5644728" lon="10.7547453"><ele>133.0</ele><time>2026-03-28T13:54:49.517Z</time></trkpt><trkpt lat="44.5643612" lon="10.7545203"><ele>135.0</ele><time>2026-03-28T13:54:50.518Z</time></trkpt><trkpt lat="44.5642303" lon="10.7542989"><ele>135.66666666666666</ele><time>2026-03-28T13:54:51.525Z</time></trkpt><trkpt lat="44.5640806" lon="10.7540752"><ele>136.33333333333331</ele><time>2026-03-28T13:54:52.524Z</time></trkpt><trkpt lat="44.5639429" lon="10.7538471"><ele>137.0</ele><time>2026-03-28T13:54:53.513Z</time></trkpt><trkpt lat="44.563807" lon="10.7536381"><ele>139.0</ele><time>2026-03-28T13:54:54.517Z</time></trkpt><trkpt lat="44.5636727" lon="10.753425"><ele>141.0</ele><time>2026-03-28T13:54:55.507Z</time></trkpt><trkpt lat="44.5635224" lon="10.7532103"><ele>143.0</ele><time>2026-03-28T13:54:56.513Z</time></trkpt><trkpt lat="44.5634032" lon="10.7530062"><ele>143.0</ele><time>2026-03-28T13:54:57.511Z</time></trkpt><trkpt lat="44.5632901" lon="10.752798"><ele>143.0</ele><time>2026-03-28T13:54:58.51Z</time></trkpt><trkpt lat="44.5631735" lon="10.7525937"><ele>143.0</ele><time>2026-03-28T13:54:59.506Z</time></trkpt><trkpt lat="44.5630717" lon="10.7523903"><ele>143.0</ele><time>2026-03-28T13:55:00.509Z</time></trkpt><trkpt lat="44.5629623" lon="10.75222"><ele>143.0</ele><time>2026-03-28T13:55:01.507Z</time></trkpt><trkpt lat="44.5628845" lon="10.7520527"><ele>143.0</ele><time>2026-03-28T13:55:02.497Z</time></trkpt><trkpt lat="44.5627937" lon="10.7518971"><ele>143.0</ele><time>2026-03-28T13:55:03.509Z</time></trkpt><trkpt lat="44.5627175" lon="10.7517548"><ele>143.0</ele><time>2026-03-28T13:55:04.513Z</time></trkpt><trkpt lat="44.5626625" lon="10.7516189"><ele>143.0</ele><time>2026-03-28T13:55:05.498Z</time></trkpt><trkpt lat="44.562642" lon="10.751492"><ele>143.0</ele><time>2026-03-28T13:55:06.508Z</time></trkpt><trkpt lat="44.5626713" lon="10.7513643"><ele>143.0</ele><time>2026-03-28T13:55:07.515Z</time></trkpt><trkpt lat="44.5627012" lon="10.7512316"><ele>143.0</ele><time>2026-03-28T13:55:08.505Z</time></trkpt><trkpt lat="44.5627842" lon="10.75112"><ele>142.75</ele><time>2026-03-28T13:55:09.518Z</time></trkpt><trkpt lat="44.5628956" lon="10.7510286"><ele>142.5</ele><time>2026-03-28T13:55:10.509Z</time></trkpt><trkpt lat="44.5630174" lon="10.7509351"><ele>142.25</ele><time>2026-03-28T13:55:11.515Z</time></trkpt><trkpt lat="44.563164" lon="10.7508571"><ele>142.0</ele><time>2026-03-28T13:55:12.52Z</time></trkpt><trkpt lat="44.5633056" lon="10.7507636"><ele>142.0</ele><time>2026-03-28T13:55:13.517Z</time></trkpt><trkpt lat="44.5634497" lon="10.750673"><ele>142.0</ele><time>2026-03-28T13:55:14.521Z</time></trkpt><trkpt lat="44.5636094" lon="10.7505713"><ele>142.0</ele><time>2026-03-28T13:55:15.518Z</time></trkpt><trkpt lat="44.5637755" lon="10.7504746"><ele>142.0</ele><time>2026-03-28T13:55:16.524Z</time></trkpt><trkpt lat="44.5639367" lon="10.7503762"><ele>142.0</ele><time>2026-03-28T13:55:17.521Z</time></trkpt><trkpt lat="44.5640949" lon="10.7502761"><ele>142.0</ele><time>2026-03-28T13:55:18.517Z</time></trkpt><trkpt lat="44.564257" lon="10.7501769"><ele>142.0</ele><time>2026-03-28T13:55:19.518Z</time></trkpt><trkpt lat="44.564413" lon="10.7500799"><ele>142.0</ele><time>2026-03-28T13:55:20.525Z</time></trkpt><trkpt lat="44.5645791" lon="10.7499787"><ele>142.0</ele><time>2026-03-28T13:55:21.528Z</time></trkpt><trkpt lat="44.5647207" lon="10.749879"><ele>142.33333333333334</ele><time>2026-03-28T13:55:22.529Z</time></trkpt><trkpt lat="44.5648762" lon="10.7497766"><ele>142.66666666666666</ele><time>2026-03-28T13:55:23.534Z</time></trkpt><trkpt lat="44.565028" lon="10.749668"><ele>143.0</ele><time>2026-03-28T13:55:24.536Z</time></trkpt><trkpt lat="44.565191" lon="10.7495663"><ele>141.0</ele><time>2026-03-28T13:55:25.536Z</time></trkpt><trkpt lat="44.5656491" lon="10.7492869"><ele>141.0</ele><time>2026-03-28T13:55:28.534Z</time></trkpt><trkpt lat="44.5657991" lon="10.7491942"><ele>141.0</ele><time>2026-03-28T13:55:29.533Z</time></trkpt><trkpt lat="44.5659454" lon="10.7490933"><ele>141.0</ele><time>2026-03-28T13:55:30.531Z</time></trkpt><trkpt lat="44.5661043" lon="10.7489949"><ele>139.66666666666666</ele><time>2026-03-28T13:55:31.525Z</time></trkpt><trkpt lat="44.5662652" lon="10.7488997"><ele>138.33333333333331</ele><time>2026-03-28T13:55:32.526Z</time></trkpt><trkpt lat="44.5664288" lon="10.748801"><ele>137.0</ele><time>2026-03-28T13:55:33.539Z</time></trkpt><trkpt lat="44.566589" lon="10.7486939"><ele>137.0</ele><time>2026-03-28T13:55:34.524Z</time></trkpt><trkpt lat="44.566752" lon="10.7485824"><ele>137.0</ele><time>2026-03-28T13:55:35.524Z</time></trkpt><trkpt lat="44.5669259" lon="10.7484796"><ele>137.0</ele><time>2026-03-28T13:55:36.525Z</time></trkpt><trkpt lat="44.5670991" lon="10.7483686"><ele>137.33333333333331</ele><time>2026-03-28T13:55:37.527Z</time></trkpt><trkpt lat="44.5672794" lon="10.7482605"><ele>137.66666666666666</ele><time>2026-03-28T13:55:38.523Z</time></trkpt><trkpt lat="44.5674506" lon="10.7481406"><ele>138.0</ele><time>2026-03-28T13:55:39.519Z</time></trkpt><trkpt lat="44.5676163" lon="10.748025"><ele>138.0</ele><time>2026-03-28T13:55:40.528Z</time></trkpt><trkpt lat="44.5678051" lon="10.7478994"><ele>138.0</ele><time>2026-03-28T13:55:41.526Z</time></trkpt><trkpt lat="44.5679787" lon="10.7477868"><ele>138.0</ele><time>2026-03-28T13:55:42.537Z</time></trkpt><trkpt lat="44.5681597" lon="10.7476614"><ele>136.33333333333334</ele><time>2026-03-28T13:55:43.531Z</time></trkpt><trkpt lat="44.568342" lon="10.7475424"><ele>134.66666666666669</ele><time>2026-03-28T13:55:44.533Z</time></trkpt><trkpt lat="44.568515" lon="10.7474182"><ele>133.0</ele><time>2026-03-28T13:55:45.532Z</time></trkpt><trkpt lat="44.5686836" lon="10.7472777"><ele>133.0</ele><time>2026-03-28T13:55:46.532Z</time></trkpt><trkpt lat="44.5688366" lon="10.7471346"><ele>133.0</ele><time>2026-03-28T13:55:47.532Z</time></trkpt><trkpt lat="44.5689876" lon="10.7469799"><ele>133.0</ele><time>2026-03-28T13:55:48.531Z</time></trkpt><trkpt lat="44.5691284" lon="10.7468257"><ele>133.0</ele><time>2026-03-28T13:55:49.529Z</time></trkpt><trkpt lat="44.5692619" lon="10.7466602"><ele>133.0</ele><time>2026-03-28T13:55:50.536Z</time></trkpt><trkpt lat="44.5693966" lon="10.7464847"><ele>133.0</ele><time>2026-03-28T13:55:51.531Z</time></trkpt><trkpt lat="44.569514" lon="10.7463077"><ele>133.0</ele><time>2026-03-28T13:55:52.533Z</time></trkpt><trkpt lat="44.5696318" lon="10.7461314"><ele>133.0</ele><time>2026-03-28T13:55:53.528Z</time></trkpt><trkpt lat="44.5697559" lon="10.7459634"><ele>133.0</ele><time>2026-03-28T13:55:54.523Z</time></trkpt><trkpt lat="44.5698591" lon="10.7457893"><ele>133.0</ele><time>2026-03-28T13:55:55.524Z</time></trkpt><trkpt lat="44.5699652" lon="10.7456178"><ele>133.0</ele><time>2026-03-28T13:55:56.518Z</time></trkpt><trkpt lat="44.570074" lon="10.7454587"><ele>133.0</ele><time>2026-03-28T13:55:57.525Z</time></trkpt><trkpt lat="44.5701669" lon="10.74531"><ele>132.8</ele><time>2026-03-28T13:55:58.521Z</time></trkpt><trkpt lat="44.5702592" lon="10.7451824"><ele>132.60000000000002</ele><time>2026-03-28T13:55:59.532Z</time></trkpt><trkpt lat="44.5703436" lon="10.745081"><ele>132.39999999999998</ele><time>2026-03-28T13:56:00.531Z</time></trkpt><trkpt lat="44.5704167" lon="10.7450041"><ele>132.2</ele><time>2026-03-28T13:56:01.534Z</time></trkpt><trkpt lat="44.5704797" lon="10.744942"><ele>132.0</ele><time>2026-03-28T13:56:02.53Z</time></trkpt><trkpt lat="44.5705273" lon="10.744865"><ele>132.0</ele><time>2026-03-28T13:56:03.533Z</time></trkpt><trkpt lat="44.5705695" lon="10.7447708"><ele>132.0</ele><time>2026-03-28T13:56:04.521Z</time></trkpt><trkpt lat="44.5705617" lon="10.7446786"><ele>132.0</ele><time>2026-03-28T13:56:05.535Z</time></trkpt><trkpt lat="44.5705082" lon="10.7446009"><ele>132.0</ele><time>2026-03-28T13:56:06.537Z</time></trkpt><trkpt lat="44.5704313" lon="10.7445342"><ele>132.0</ele><time>2026-03-28T13:56:07.537Z</time></trkpt><trkpt lat="44.5703097" lon="10.7444676"><ele>132.0</ele><time>2026-03-28T13:56:08.541Z</time></trkpt><trkpt lat="44.5702011" lon="10.7444013"><ele>132.2</ele><time>2026-03-28T13:56:09.522Z</time></trkpt><trkpt lat="44.5701253" lon="10.7443235"><ele>132.39999999999998</ele><time>2026-03-28T13:56:10.519Z</time></trkpt><trkpt lat="44.5700568" lon="10.7442412"><ele>132.60000000000002</ele><time>2026-03-28T13:56:11.528Z</time></trkpt><trkpt lat="44.5699875" lon="10.744141"><ele>132.8</ele><time>2026-03-28T13:56:12.518Z</time></trkpt><trkpt lat="44.5699007" lon="10.7440161"><ele>133.0</ele><time>2026-03-28T13:56:13.531Z</time></trkpt><trkpt lat="44.5698089" lon="10.7438887"><ele>133.0</ele><time>2026-03-28T13:56:14.529Z</time></trkpt><trkpt lat="44.5697121" lon="10.7437512"><ele>133.0</ele><time>2026-03-28T13:56:15.517Z</time></trkpt><trkpt lat="44.5696071" lon="10.7436054"><ele>133.0</ele><time>2026-03-28T13:56:16.529Z</time></trkpt><trkpt lat="44.5695112" lon="10.7434556"><ele>133.0</ele><time>2026-03-28T13:56:17.521Z</time></trkpt><trkpt lat="44.5694178" lon="10.7433127"><ele>133.8</ele><time>2026-03-28T13:56:18.537Z</time></trkpt><trkpt lat="44.5693125" lon="10.7431904"><ele>134.60000000000002</ele><time>2026-03-28T13:56:19.53Z</time></trkpt><trkpt lat="44.5692183" lon="10.7430878"><ele>135.39999999999998</ele><time>2026-03-28T13:56:20.526Z</time></trkpt><trkpt lat="44.5691368" lon="10.7429966"><ele>136.2</ele><time>2026-03-28T13:56:21.521Z</time></trkpt><trkpt lat="44.5690798" lon="10.7429354"><ele>137.0</ele><time>2026-03-28T13:56:22.531Z</time></trkpt><trkpt lat="44.5690339" lon="10.7428519"><ele>137.0</ele><time>2026-03-28T13:56:24.53Z</time></trkpt><trkpt lat="44.569024" lon="10.7427582"><ele>137.0</ele><time>2026-03-28T13:56:26.53Z</time></trkpt><trkpt lat="44.5690477" lon="10.7426708"><ele>137.0</ele><time>2026-03-28T13:56:27.522Z</time></trkpt><trkpt lat="44.5690977" lon="10.7425583"><ele>137.0</ele><time>2026-03-28T13:56:28.519Z</time></trkpt><trkpt lat="44.5691606" lon="10.7424288"><ele>137.0</ele><time>2026-03-28T13:56:29.53Z</time></trkpt><trkpt lat="44.5692266" lon="10.7422961"><ele>138.75</ele><time>2026-03-28T13:56:30.539Z</time></trkpt><trkpt lat="44.5692992" lon="10.7421302"><ele>140.5</ele><time>2026-03-28T13:56:31.523Z</time></trkpt><trkpt lat="44.5693621" lon="10.7419568"><ele>142.25</ele><time>2026-03-28T13:56:32.521Z</time></trkpt><trkpt lat="44.5694254" lon="10.7417875"><ele>144.0</ele><time>2026-03-28T13:56:33.532Z</time></trkpt><trkpt lat="44.569495" lon="10.7416089"><ele>145.75</ele><time>2026-03-28T13:56:34.513Z</time></trkpt><trkpt lat="44.5695621" lon="10.7414369"><ele>147.5</ele><time>2026-03-28T13:56:35.507Z</time></trkpt><trkpt lat="44.5696218" lon="10.7412805"><ele>149.25</ele><time>2026-03-28T13:56:36.514Z</time></trkpt><trkpt lat="44.569676" lon="10.7411259"><ele>151.0</ele><time>2026-03-28T13:56:37.515Z</time></trkpt><trkpt lat="44.5697295" lon="10.7409536"><ele>153.0</ele><time>2026-03-28T13:56:38.515Z</time></trkpt><trkpt lat="44.5697972" lon="10.7408017"><ele>155.0</ele><time>2026-03-28T13:56:39.523Z</time></trkpt><trkpt lat="44.5698657" lon="10.7406294"><ele>157.0</ele><time>2026-03-28T13:56:40.517Z</time></trkpt><trkpt lat="44.5699299" lon="10.7404657"><ele>159.0</ele><time>2026-03-28T13:56:41.529Z</time></trkpt><trkpt lat="44.570002" lon="10.7402961"><ele>160.5</ele><time>2026-03-28T13:56:42.517Z</time></trkpt><trkpt lat="44.5700567" lon="10.7401241"><ele>162.0</ele><time>2026-03-28T13:56:43.509Z</time></trkpt><trkpt lat="44.5700995" lon="10.7399655"><ele>163.5</ele><time>2026-03-28T13:56:44.514Z</time></trkpt><trkpt lat="44.5701994" lon="10.7398198"><ele>165.0</ele><time>2026-03-28T13:56:45.521Z</time></trkpt><trkpt lat="44.5702893" lon="10.7396827"><ele>163.75</ele><time>2026-03-28T13:56:46.521Z</time></trkpt><trkpt lat="44.5703773" lon="10.7395312"><ele>162.5</ele><time>2026-03-28T13:56:47.524Z</time></trkpt><trkpt lat="44.5704633" lon="10.7393733"><ele>161.25</ele><time>2026-03-28T13:56:48.526Z</time></trkpt><trkpt lat="44.5705626" lon="10.7392254"><ele>160.0</ele><time>2026-03-28T13:56:49.527Z</time></trkpt><trkpt lat="44.5706564" lon="10.739053"><ele>160.0</ele><time>2026-03-28T13:56:50.529Z</time></trkpt><trkpt lat="44.5707508" lon="10.7389091"><ele>160.0</ele><time>2026-03-28T13:56:51.523Z</time></trkpt><trkpt lat="44.5708387" lon="10.7387643"><ele>160.0</ele><time>2026-03-28T13:56:52.525Z</time></trkpt><trkpt lat="44.5709194" lon="10.7386415"><ele>160.0</ele><time>2026-03-28T13:56:53.531Z</time></trkpt><trkpt lat="44.5709993" lon="10.7385085"><ele>161.4</ele><time>2026-03-28T13:56:54.527Z</time></trkpt><trkpt lat="44.5710653" lon="10.7383895"><ele>162.8</ele><time>2026-03-28T13:56:55.529Z</time></trkpt><trkpt lat="44.5711072" lon="10.7382962"><ele>164.2</ele><time>2026-03-28T13:56:56.547Z</time></trkpt><trkpt lat="44.5711921" lon="10.7382042"><ele>165.6</ele><time>2026-03-28T13:56:57.519Z</time></trkpt><trkpt lat="44.5712933" lon="10.7381265"><ele>167.0</ele><time>2026-03-28T13:56:58.522Z</time></trkpt><trkpt lat="44.5713987" lon="10.7380473"><ele>165.25</ele><time>2026-03-28T13:56:59.533Z</time></trkpt><trkpt lat="44.5714968" lon="10.737971"><ele>163.5</ele><time>2026-03-28T13:57:00.532Z</time></trkpt><trkpt lat="44.5715941" lon="10.7378914"><ele>161.75</ele><time>2026-03-28T13:57:01.538Z</time></trkpt><trkpt lat="44.5716913" lon="10.7378073"><ele>160.0</ele><time>2026-03-28T13:57:02.529Z</time></trkpt><trkpt lat="44.5717933" lon="10.7377168"><ele>160.0</ele><time>2026-03-28T13:57:03.542Z</time></trkpt><trkpt lat="44.5718982" lon="10.7376102"><ele>160.0</ele><time>2026-03-28T13:57:04.531Z</time></trkpt><trkpt lat="44.5719983" lon="10.7375031"><ele>160.0</ele><time>2026-03-28T13:57:05.529Z</time></trkpt><trkpt lat="44.5720913" lon="10.7373761"><ele>160.0</ele><time>2026-03-28T13:57:06.525Z</time></trkpt><trkpt lat="44.5721744" lon="10.7372261"><ele>158.75</ele><time>2026-03-28T13:57:07.531Z</time></trkpt><trkpt lat="44.5722358" lon="10.7370689"><ele>157.5</ele><time>2026-03-28T13:57:08.523Z</time></trkpt><trkpt lat="44.5722938" lon="10.7369167"><ele>156.25</ele><time>2026-03-28T13:57:09.534Z</time></trkpt><trkpt lat="44.5723621" lon="10.7367549"><ele>155.0</ele><time>2026-03-28T13:57:10.52Z</time></trkpt><trkpt lat="44.5724368" lon="10.7366081"><ele>155.0</ele><time>2026-03-28T13:57:11.518Z</time></trkpt><trkpt lat="44.5725073" lon="10.7364593"><ele>155.0</ele><time>2026-03-28T13:57:12.518Z</time></trkpt><trkpt lat="44.5725767" lon="10.7363182"><ele>155.0</ele><time>2026-03-28T13:57:13.52Z</time></trkpt><trkpt lat="44.5726357" lon="10.7361877"><ele>155.0</ele><time>2026-03-28T13:57:14.514Z</time></trkpt><trkpt lat="44.5726954" lon="10.7360781"><ele>155.83333333333331</ele><time>2026-03-28T13:57:15.512Z</time></trkpt><trkpt lat="44.5727526" lon="10.735982"><ele>156.66666666666666</ele><time>2026-03-28T13:57:16.512Z</time></trkpt><trkpt lat="44.5728124" lon="10.7359077"><ele>157.5</ele><time>2026-03-28T13:57:17.521Z</time></trkpt><trkpt lat="44.5728711" lon="10.735832"><ele>158.33333333333334</ele><time>2026-03-28T13:57:18.521Z</time></trkpt><trkpt lat="44.5729423" lon="10.7357589"><ele>159.16666666666669</ele><time>2026-03-28T13:57:19.522Z</time></trkpt><trkpt lat="44.5730171" lon="10.7356877"><ele>160.0</ele><time>2026-03-28T13:57:20.535Z</time></trkpt><trkpt lat="44.5730884" lon="10.7356116"><ele>159.5</ele><time>2026-03-28T13:57:21.523Z</time></trkpt><trkpt lat="44.573175" lon="10.7355182"><ele>159.0</ele><time>2026-03-28T13:57:22.535Z</time></trkpt><trkpt lat="44.5732634" lon="10.735419"><ele>158.5</ele><time>2026-03-28T13:57:23.528Z</time></trkpt><trkpt lat="44.5733578" lon="10.7353039"><ele>158.0</ele><time>2026-03-28T13:57:24.54Z</time></trkpt><trkpt lat="44.5734553" lon="10.735178"><ele>158.0</ele><time>2026-03-28T13:57:25.538Z</time></trkpt><trkpt lat="44.5735425" lon="10.7350424"><ele>158.0</ele><time>2026-03-28T13:57:26.538Z</time></trkpt><trkpt lat="44.5736265" lon="10.7348923"><ele>158.0</ele><time>2026-03-28T13:57:27.538Z</time></trkpt><trkpt lat="44.5737011" lon="10.7347451"><ele>158.0</ele><time>2026-03-28T13:57:28.53Z</time></trkpt><trkpt lat="44.5737722" lon="10.7345951"><ele>157.0</ele><time>2026-03-28T13:57:29.529Z</time></trkpt><trkpt lat="44.5738337" lon="10.7344476"><ele>156.0</ele><time>2026-03-28T13:57:30.529Z</time></trkpt><trkpt lat="44.5738954" lon="10.7342908"><ele>155.0</ele><time>2026-03-28T13:57:31.529Z</time></trkpt><trkpt lat="44.5739492" lon="10.7341437"><ele>154.0</ele><time>2026-03-28T13:57:32.534Z</time></trkpt><trkpt lat="44.574" lon="10.7339956"><ele>154.0</ele><time>2026-03-28T13:57:33.528Z</time></trkpt><trkpt lat="44.5740595" lon="10.733841"><ele>154.0</ele><time>2026-03-28T13:57:34.53Z</time></trkpt><trkpt lat="44.5741238" lon="10.733684"><ele>154.0</ele><time>2026-03-28T13:57:35.518Z</time></trkpt><trkpt lat="44.5741936" lon="10.7335333"><ele>154.0</ele><time>2026-03-28T13:57:36.522Z</time></trkpt><trkpt lat="44.574266" lon="10.7333772"><ele>155.25</ele><time>2026-03-28T13:57:37.512Z</time></trkpt><trkpt lat="44.574331" lon="10.7332301"><ele>156.5</ele><time>2026-03-28T13:57:38.517Z</time></trkpt><trkpt lat="44.5743899" lon="10.733069"><ele>157.75</ele><time>2026-03-28T13:57:39.527Z</time></trkpt><trkpt lat="44.574455" lon="10.7329087"><ele>159.0</ele><time>2026-03-28T13:57:40.521Z</time></trkpt><trkpt lat="44.5745197" lon="10.7327402"><ele>156.0</ele><time>2026-03-28T13:57:41.522Z</time></trkpt><trkpt lat="44.5745839" lon="10.7325656"><ele>153.0</ele><time>2026-03-28T13:57:42.519Z</time></trkpt><trkpt lat="44.5746319" lon="10.7323804"><ele>150.0</ele><time>2026-03-28T13:57:43.519Z</time></trkpt><trkpt lat="44.5747022" lon="10.7322334"><ele>147.0</ele><time>2026-03-28T13:57:44.521Z</time></trkpt><trkpt lat="44.5747716" lon="10.7320861"><ele>147.0</ele><time>2026-03-28T13:57:45.514Z</time></trkpt><trkpt lat="44.5748243" lon="10.7319349"><ele>147.0</ele><time>2026-03-28T13:57:46.518Z</time></trkpt><trkpt lat="44.5748527" lon="10.7317464"><ele>147.0</ele><time>2026-03-28T13:57:47.511Z</time></trkpt><trkpt lat="44.5749238" lon="10.7315873"><ele>147.0</ele><time>2026-03-28T13:57:48.52Z</time></trkpt><trkpt lat="44.5749876" lon="10.731397"><ele>147.0</ele><time>2026-03-28T13:57:49.516Z</time></trkpt><trkpt lat="44.5750463" lon="10.731225"><ele>147.0</ele><time>2026-03-28T13:57:50.521Z</time></trkpt><trkpt lat="44.575088" lon="10.7310727"><ele>147.0</ele><time>2026-03-28T13:57:51.521Z</time></trkpt><trkpt lat="44.5751347" lon="10.7309164"><ele>147.0</ele><time>2026-03-28T13:57:52.519Z</time></trkpt><trkpt lat="44.575167" lon="10.730786"><ele>145.79999999999998</ele><time>2026-03-28T13:57:53.523Z</time></trkpt><trkpt lat="44.575225" lon="10.7306644"><ele>144.6</ele><time>2026-03-28T13:57:54.52Z</time></trkpt><trkpt lat="44.5752908" lon="10.7305723"><ele>143.39999999999998</ele><time>2026-03-28T13:57:55.518Z</time></trkpt><trkpt lat="44.5753686" lon="10.730489"><ele>142.2</ele><time>2026-03-28T13:57:56.513Z</time></trkpt><trkpt lat="44.5754497" lon="10.7304161"><ele>141.0</ele><time>2026-03-28T13:57:57.516Z</time></trkpt><trkpt lat="44.5755145" lon="10.7303278"><ele>140.83333333333334</ele><time>2026-03-28T13:57:58.519Z</time></trkpt><trkpt lat="44.5755724" lon="10.7302438"><ele>140.66666666666666</ele><time>2026-03-28T13:57:59.517Z</time></trkpt><trkpt lat="44.575632" lon="10.7301649"><ele>140.5</ele><time>2026-03-28T13:58:00.52Z</time></trkpt><trkpt lat="44.5756991" lon="10.7300836"><ele>140.33333333333331</ele><time>2026-03-28T13:58:01.516Z</time></trkpt><trkpt lat="44.5757662" lon="10.7300067"><ele>140.16666666666666</ele><time>2026-03-28T13:58:02.515Z</time></trkpt><trkpt lat="44.5758351" lon="10.7299177"><ele>140.0</ele><time>2026-03-28T13:58:03.515Z</time></trkpt><trkpt lat="44.5759008" lon="10.7298124"><ele>141.0</ele><time>2026-03-28T13:58:04.515Z</time></trkpt><trkpt lat="44.5759665" lon="10.7296923"><ele>142.0</ele><time>2026-03-28T13:58:05.519Z</time></trkpt><trkpt lat="44.5760305" lon="10.729567"><ele>143.0</ele><time>2026-03-28T13:58:06.514Z</time></trkpt><trkpt lat="44.5760849" lon="10.7294432"><ele>144.0</ele><time>2026-03-28T13:58:07.509Z</time></trkpt><trkpt lat="44.5761341" lon="10.7293339"><ele>145.0</ele><time>2026-03-28T13:58:08.509Z</time></trkpt><trkpt lat="44.5761896" lon="10.7292195"><ele>146.6</ele><time>2026-03-28T13:58:09.512Z</time></trkpt><trkpt lat="44.5762439" lon="10.7291066"><ele>148.2</ele><time>2026-03-28T13:58:10.499Z</time></trkpt><trkpt lat="44.5763053" lon="10.7289898"><ele>149.8</ele><time>2026-03-28T13:58:11.504Z</time></trkpt><trkpt lat="44.5763636" lon="10.728877"><ele>151.4</ele><time>2026-03-28T13:58:12.501Z</time></trkpt><trkpt lat="44.5764282" lon="10.7287699"><ele>153.0</ele><time>2026-03-28T13:58:13.499Z</time></trkpt><trkpt lat="44.5764953" lon="10.7286696"><ele>153.0</ele><time>2026-03-28T13:58:14.504Z</time></trkpt><trkpt lat="44.5765696" lon="10.7285711"><ele>153.0</ele><time>2026-03-28T13:58:15.503Z</time></trkpt><trkpt lat="44.5766433" lon="10.7284772"><ele>153.0</ele><time>2026-03-28T13:58:16.497Z</time></trkpt><trkpt lat="44.5767084" lon="10.7283827"><ele>153.0</ele><time>2026-03-28T13:58:17.492Z</time></trkpt><trkpt lat="44.5767656" lon="10.7282953"><ele>153.0</ele><time>2026-03-28T13:58:18.5Z</time></trkpt><trkpt lat="44.5768148" lon="10.7281829"><ele>154.0</ele><time>2026-03-28T13:58:20.488Z</time></trkpt><trkpt lat="44.5768484" lon="10.7280813"><ele>155.0</ele><time>2026-03-28T13:58:24.497Z</time></trkpt><trkpt lat="44.5767686" lon="10.7280369"><ele>156.0</ele><time>2026-03-28T13:58:26.509Z</time></trkpt><trkpt lat="44.5766949" lon="10.7280431"><ele>157.0</ele><time>2026-03-28T13:58:27.509Z</time></trkpt><trkpt lat="44.5766231" lon="10.7280503"><ele>158.0</ele><time>2026-03-28T13:58:28.518Z</time></trkpt><trkpt lat="44.5765555" lon="10.7280484"><ele>159.0</ele><time>2026-03-28T13:58:29.51Z</time></trkpt><trkpt lat="44.5764434" lon="10.7280535"><ele>159.0</ele><time>2026-03-28T13:58:31.503Z</time></trkpt><trkpt lat="44.576365" lon="10.7280746"><ele>159.0</ele><time>2026-03-28T13:58:32.504Z</time></trkpt><trkpt lat="44.5762901" lon="10.7280805"><ele>159.0</ele><time>2026-03-28T13:58:33.518Z</time></trkpt><trkpt lat="44.5762149" lon="10.7280858"><ele>159.0</ele><time>2026-03-28T13:58:34.508Z</time></trkpt><trkpt lat="44.5761188" lon="10.7280846"><ele>159.0</ele><time>2026-03-28T13:58:35.509Z</time></trkpt><trkpt lat="44.5760108" lon="10.7280957"><ele>159.0</ele><time>2026-03-28T13:58:36.509Z</time></trkpt><trkpt lat="44.5759012" lon="10.7281127"><ele>161.0</ele><time>2026-03-28T13:58:37.511Z</time></trkpt><trkpt lat="44.5757905" lon="10.7281317"><ele>163.0</ele><time>2026-03-28T13:58:38.507Z</time></trkpt><trkpt lat="44.5756746" lon="10.728128"><ele>165.0</ele><time>2026-03-28T13:58:39.509Z</time></trkpt><trkpt lat="44.5755593" lon="10.7281113"><ele>167.0</ele><time>2026-03-28T13:58:40.513Z</time></trkpt><trkpt lat="44.5754454" lon="10.7280894"><ele>166.6</ele><time>2026-03-28T13:58:41.514Z</time></trkpt><trkpt lat="44.5753376" lon="10.7280627"><ele>166.2</ele><time>2026-03-28T13:58:42.514Z</time></trkpt><trkpt lat="44.575245" lon="10.7280303"><ele>165.8</ele><time>2026-03-28T13:58:43.504Z</time></trkpt><trkpt lat="44.5751698" lon="10.7279645"><ele>165.4</ele><time>2026-03-28T13:58:44.508Z</time></trkpt><trkpt lat="44.575117" lon="10.7278751"><ele>165.0</ele><time>2026-03-28T13:58:45.517Z</time></trkpt><trkpt lat="44.5750782" lon="10.7277572"><ele>167.75</ele><time>2026-03-28T13:58:46.517Z</time></trkpt><trkpt lat="44.5750477" lon="10.7276141"><ele>170.5</ele><time>2026-03-28T13:58:47.51Z</time></trkpt><trkpt lat="44.5750106" lon="10.7274553"><ele>173.25</ele><time>2026-03-28T13:58:48.511Z</time></trkpt><trkpt lat="44.5749812" lon="10.7272878"><ele>176.0</ele><time>2026-03-28T13:58:49.511Z</time></trkpt><trkpt lat="44.5749576" lon="10.7271148"><ele>176.0</ele><time>2026-03-28T13:58:50.511Z</time></trkpt><trkpt lat="44.5749256" lon="10.7269381"><ele>176.0</ele><time>2026-03-28T13:58:51.514Z</time></trkpt><trkpt lat="44.5748898" lon="10.7267837"><ele>176.0</ele><time>2026-03-28T13:58:52.518Z</time></trkpt><trkpt lat="44.5748579" lon="10.7266453"><ele>176.0</ele><time>2026-03-28T13:58:53.516Z</time></trkpt><trkpt lat="44.5748405" lon="10.7265111"><ele>176.0</ele><time>2026-03-28T13:58:54.508Z</time></trkpt><trkpt lat="44.5748678" lon="10.7263752"><ele>179.25</ele><time>2026-03-28T13:58:55.514Z</time></trkpt><trkpt lat="44.5749216" lon="10.7262456"><ele>182.5</ele><time>2026-03-28T13:58:56.514Z</time></trkpt><trkpt lat="44.5750052" lon="10.7261198"><ele>185.75</ele><time>2026-03-28T13:58:57.514Z</time></trkpt><trkpt lat="44.5750757" lon="10.725983"><ele>189.0</ele><time>2026-03-28T13:58:58.508Z</time></trkpt><trkpt lat="44.5751225" lon="10.725818"><ele>190.75</ele><time>2026-03-28T13:58:59.5Z</time></trkpt><trkpt lat="44.5751335" lon="10.7256507"><ele>192.5</ele><time>2026-03-28T13:59:00.526Z</time></trkpt><trkpt lat="44.575106" lon="10.7254616"><ele>194.25</ele><time>2026-03-28T13:59:01.505Z</time></trkpt><trkpt lat="44.5750711" lon="10.7252607"><ele>196.0</ele><time>2026-03-28T13:59:02.508Z</time></trkpt><trkpt lat="44.5750587" lon="10.7251011"><ele>196.83333333333331</ele><time>2026-03-28T13:59:03.515Z</time></trkpt><trkpt lat="44.5750589" lon="10.7249739"><ele>197.66666666666666</ele><time>2026-03-28T13:59:04.517Z</time></trkpt><trkpt lat="44.575064" lon="10.724859"><ele>198.5</ele><time>2026-03-28T13:59:05.509Z</time></trkpt><trkpt lat="44.5750836" lon="10.7247685"><ele>199.33333333333331</ele><time>2026-03-28T13:59:06.498Z</time></trkpt><trkpt lat="44.5750871" lon="10.724584"><ele>200.16666666666666</ele><time>2026-03-28T13:59:08.52Z</time></trkpt><trkpt lat="44.5751001" lon="10.724478"><ele>201.0</ele><time>2026-03-28T13:59:09.509Z</time></trkpt><trkpt lat="44.5751136" lon="10.7243666"><ele>201.60000000000002</ele><time>2026-03-28T13:59:10.511Z</time></trkpt><trkpt lat="44.5751174" lon="10.7242572"><ele>202.2</ele><time>2026-03-28T13:59:11.519Z</time></trkpt><trkpt lat="44.5751166" lon="10.7241446"><ele>202.8</ele><time>2026-03-28T13:59:12.51Z</time></trkpt><trkpt lat="44.575099" lon="10.7240167"><ele>203.39999999999998</ele><time>2026-03-28T13:59:13.518Z</time></trkpt><trkpt lat="44.5750739" lon="10.7238726"><ele>204.0</ele><time>2026-03-28T13:59:14.522Z</time></trkpt><trkpt lat="44.5750567" lon="10.7237203"><ele>204.0</ele><time>2026-03-28T13:59:15.526Z</time></trkpt><trkpt lat="44.5750451" lon="10.7235648"><ele>204.0</ele><time>2026-03-28T13:59:16.527Z</time></trkpt><trkpt lat="44.5750359" lon="10.7233976"><ele>204.0</ele><time>2026-03-28T13:59:17.524Z</time></trkpt><trkpt lat="44.5750279" lon="10.7232415"><ele>204.0</ele><time>2026-03-28T13:59:18.529Z</time></trkpt><trkpt lat="44.5750087" lon="10.7230825"><ele>204.0</ele><time>2026-03-28T13:59:19.523Z</time></trkpt><trkpt lat="44.5749899" lon="10.7229055"><ele>204.0</ele><time>2026-03-28T13:59:20.529Z</time></trkpt><trkpt lat="44.5749745" lon="10.7227277"><ele>204.0</ele><time>2026-03-28T13:59:21.522Z</time></trkpt><trkpt lat="44.5749581" lon="10.7225491"><ele>204.0</ele><time>2026-03-28T13:59:22.53Z</time></trkpt><trkpt lat="44.5749417" lon="10.7223686"><ele>204.75</ele><time>2026-03-28T13:59:23.531Z</time></trkpt><trkpt lat="44.5749219" lon="10.7221859"><ele>205.5</ele><time>2026-03-28T13:59:24.53Z</time></trkpt><trkpt lat="44.5749059" lon="10.7220023"><ele>206.25</ele><time>2026-03-28T13:59:25.53Z</time></trkpt><trkpt lat="44.5748863" lon="10.7218249"><ele>207.0</ele><time>2026-03-28T13:59:26.532Z</time></trkpt><trkpt lat="44.5748678" lon="10.7216609"><ele>208.39999999999998</ele><time>2026-03-28T13:59:27.519Z</time></trkpt><trkpt lat="44.5748558" lon="10.7215258"><ele>209.79999999999998</ele><time>2026-03-28T13:59:28.529Z</time></trkpt><trkpt lat="44.5748516" lon="10.7214051"><ele>211.2</ele><time>2026-03-28T13:59:29.528Z</time></trkpt><trkpt lat="44.5748549" lon="10.7212707"><ele>212.6</ele><time>2026-03-28T13:59:30.528Z</time></trkpt><trkpt lat="44.5748751" lon="10.7211251"><ele>214.0</ele><time>2026-03-28T13:59:31.536Z</time></trkpt><trkpt lat="44.5749068" lon="10.7209648"><ele>217.25</ele><time>2026-03-28T13:59:32.522Z</time></trkpt><trkpt lat="44.5749014" lon="10.7207994"><ele>220.5</ele><time>2026-03-28T13:59:33.537Z</time></trkpt><trkpt lat="44.5748712" lon="10.7206347"><ele>223.75</ele><time>2026-03-28T13:59:34.536Z</time></trkpt><trkpt lat="44.5748316" lon="10.72048"><ele>227.0</ele><time>2026-03-28T13:59:35.529Z</time></trkpt><trkpt lat="44.5748119" lon="10.7203317"><ele>228.39999999999998</ele><time>2026-03-28T13:59:36.523Z</time></trkpt><trkpt lat="44.5748046" lon="10.7201871"><ele>229.79999999999998</ele><time>2026-03-28T13:59:37.524Z</time></trkpt><trkpt lat="44.5747917" lon="10.720044"><ele>231.2</ele><time>2026-03-28T13:59:38.527Z</time></trkpt><trkpt lat="44.5747542" lon="10.7199109"><ele>232.6</ele><time>2026-03-28T13:59:39.521Z</time></trkpt><trkpt lat="44.5747104" lon="10.7197876"><ele>234.0</ele><time>2026-03-28T13:59:40.521Z</time></trkpt><trkpt lat="44.5746651" lon="10.7196596"><ele>234.0</ele><time>2026-03-28T13:59:41.528Z</time></trkpt><trkpt lat="44.574615" lon="10.7195343"><ele>233.99999999999997</ele><time>2026-03-28T13:59:42.522Z</time></trkpt><trkpt lat="44.5745634" lon="10.7193982"><ele>233.99999999999997</ele><time>2026-03-28T13:59:43.537Z</time></trkpt><trkpt lat="44.5745208" lon="10.7192681"><ele>234.0</ele><time>2026-03-28T13:59:44.528Z</time></trkpt><trkpt lat="44.5744826" lon="10.7191448"><ele>234.0</ele><time>2026-03-28T13:59:45.53Z</time></trkpt><trkpt lat="44.5744566" lon="10.7190182"><ele>232.79999999999998</ele><time>2026-03-28T13:59:46.532Z</time></trkpt><trkpt lat="44.5744493" lon="10.7188821"><ele>231.59999999999997</ele><time>2026-03-28T13:59:47.521Z</time></trkpt><trkpt lat="44.5744625" lon="10.7187378"><ele>230.4</ele><time>2026-03-28T13:59:48.531Z</time></trkpt><trkpt lat="44.5745063" lon="10.718603"><ele>229.2</ele><time>2026-03-28T13:59:49.533Z</time></trkpt><trkpt lat="44.5745322" lon="10.7184744"><ele>228.0</ele><time>2026-03-28T13:59:50.535Z</time></trkpt><trkpt lat="44.574516" lon="10.7183663"><ele>228.0</ele><time>2026-03-28T13:59:51.543Z</time></trkpt><trkpt lat="44.5744535" lon="10.7182724"><ele>228.0</ele><time>2026-03-28T13:59:52.516Z</time></trkpt><trkpt lat="44.5743772" lon="10.7181701"><ele>228.0</ele><time>2026-03-28T13:59:53.524Z</time></trkpt><trkpt lat="44.5742919" lon="10.7180604"><ele>228.0</ele><time>2026-03-28T13:59:54.52Z</time></trkpt><trkpt lat="44.5742034" lon="10.7179592"><ele>228.0</ele><time>2026-03-28T13:59:55.529Z</time></trkpt><trkpt lat="44.5741231" lon="10.7178412"><ele>228.0</ele><time>2026-03-28T13:59:56.533Z</time></trkpt><trkpt lat="44.5740325" lon="10.7177252"><ele>228.0</ele><time>2026-03-28T13:59:57.538Z</time></trkpt><trkpt lat="44.5739391" lon="10.7176141"><ele>228.0</ele><time>2026-03-28T13:59:58.534Z</time></trkpt><trkpt lat="44.5738486" lon="10.7175047"><ele>228.0</ele><time>2026-03-28T13:59:59.527Z</time></trkpt><trkpt lat="44.5737636" lon="10.7173892"><ele>229.5</ele><time>2026-03-28T14:00:00.537Z</time></trkpt><trkpt lat="44.5736858" lon="10.7172602"><ele>231.0</ele><time>2026-03-28T14:00:01.528Z</time></trkpt><trkpt lat="44.5736094" lon="10.7171388"><ele>232.5</ele><time>2026-03-28T14:00:02.525Z</time></trkpt><trkpt lat="44.5735367" lon="10.7170048"><ele>234.0</ele><time>2026-03-28T14:00:03.536Z</time></trkpt><trkpt lat="44.573457" lon="10.7168705"><ele>235.39999999999998</ele><time>2026-03-28T14:00:04.533Z</time></trkpt><trkpt lat="44.573391" lon="10.7167271"><ele>236.79999999999998</ele><time>2026-03-28T14:00:05.531Z</time></trkpt><trkpt lat="44.5733338" lon="10.7166067"><ele>238.20000000000002</ele><time>2026-03-28T14:00:06.528Z</time></trkpt><trkpt lat="44.5732606" lon="10.7165005"><ele>239.60000000000002</ele><time>2026-03-28T14:00:07.522Z</time></trkpt><trkpt lat="44.5731876" lon="10.7164109"><ele>241.0</ele><time>2026-03-28T14:00:08.526Z</time></trkpt><trkpt lat="44.5731126" lon="10.7163273"><ele>241.0</ele><time>2026-03-28T14:00:09.53Z</time></trkpt><trkpt lat="44.5730409" lon="10.7162345"><ele>241.00000000000003</ele><time>2026-03-28T14:00:10.531Z</time></trkpt><trkpt lat="44.5729833" lon="10.7161201"><ele>241.00000000000003</ele><time>2026-03-28T14:00:11.532Z</time></trkpt><trkpt lat="44.5729416" lon="10.7159834"><ele>241.0</ele><time>2026-03-28T14:00:12.527Z</time></trkpt><trkpt lat="44.5729155" lon="10.7158238"><ele>241.0</ele><time>2026-03-28T14:00:13.535Z</time></trkpt><trkpt lat="44.572874" lon="10.715653"><ele>247.25</ele><time>2026-03-28T14:00:14.535Z</time></trkpt><trkpt lat="44.5728329" lon="10.7154942"><ele>253.5</ele><time>2026-03-28T14:00:15.544Z</time></trkpt><trkpt lat="44.57278" lon="10.7153273"><ele>259.75</ele><time>2026-03-28T14:00:16.532Z</time></trkpt><trkpt lat="44.5727206" lon="10.715172"><ele>266.0</ele><time>2026-03-28T14:00:17.527Z</time></trkpt><trkpt lat="44.5726786" lon="10.715026"><ele>266.0</ele><time>2026-03-28T14:00:18.519Z</time></trkpt><trkpt lat="44.5726397" lon="10.7148911"><ele>266.0</ele><time>2026-03-28T14:00:19.535Z</time></trkpt><trkpt lat="44.5726149" lon="10.7147502"><ele>266.0</ele><time>2026-03-28T14:00:20.531Z</time></trkpt><trkpt lat="44.5726001" lon="10.7145889"><ele>266.0</ele><time>2026-03-28T14:00:21.531Z</time></trkpt><trkpt lat="44.5725611" lon="10.7144278"><ele>266.0</ele><time>2026-03-28T14:00:22.539Z</time></trkpt><trkpt lat="44.5725052" lon="10.7142796"><ele>266.0</ele><time>2026-03-28T14:00:23.537Z</time></trkpt><trkpt lat="44.5724369" lon="10.7141434"><ele>266.0</ele><time>2026-03-28T14:00:24.532Z</time></trkpt><trkpt lat="44.5723471" lon="10.7140286"><ele>266.0</ele><time>2026-03-28T14:00:25.528Z</time></trkpt><trkpt lat="44.572246" lon="10.7139316"><ele>266.0</ele><time>2026-03-28T14:00:26.532Z</time></trkpt><trkpt lat="44.5721434" lon="10.7138402"><ele>266.0</ele><time>2026-03-28T14:00:27.532Z</time></trkpt><trkpt lat="44.5720603" lon="10.7137549"><ele>266.0</ele><time>2026-03-28T14:00:28.53Z</time></trkpt><trkpt lat="44.5719818" lon="10.7136827"><ele>266.0</ele><time>2026-03-28T14:00:29.533Z</time></trkpt><trkpt lat="44.5719012" lon="10.7135991"><ele>266.0</ele><time>2026-03-28T14:00:30.523Z</time></trkpt><trkpt lat="44.5718228" lon="10.71349"><ele>266.0</ele><time>2026-03-28T14:00:31.533Z</time></trkpt><trkpt lat="44.5717558" lon="10.7133553"><ele>270.25</ele><time>2026-03-28T14:00:32.538Z</time></trkpt><trkpt lat="44.5717022" lon="10.7132257"><ele>274.5</ele><time>2026-03-28T14:00:33.54Z</time></trkpt><trkpt lat="44.5716917" lon="10.7130701"><ele>278.75</ele><time>2026-03-28T14:00:34.536Z</time></trkpt><trkpt lat="44.5717399" lon="10.7129099"><ele>283.0</ele><time>2026-03-28T14:00:35.548Z</time></trkpt><trkpt lat="44.5718001" lon="10.7127466"><ele>283.4</ele><time>2026-03-28T14:00:36.53Z</time></trkpt><trkpt lat="44.5718529" lon="10.7125838"><ele>283.8</ele><time>2026-03-28T14:00:37.534Z</time></trkpt><trkpt lat="44.5718938" lon="10.7124578"><ele>284.2</ele><time>2026-03-28T14:00:38.541Z</time></trkpt><trkpt lat="44.571903" lon="10.7123625"><ele>284.6</ele><time>2026-03-28T14:00:39.542Z</time></trkpt><trkpt lat="44.5718298" lon="10.7122823"><ele>285.0</ele><time>2026-03-28T14:00:41.532Z</time></trkpt><trkpt lat="44.5717344" lon="10.7122981"><ele>285.0</ele><time>2026-03-28T14:00:43.541Z</time></trkpt><trkpt lat="44.5716252" lon="10.7124149"><ele>285.0</ele><time>2026-03-28T14:00:45.531Z</time></trkpt><trkpt lat="44.571558" lon="10.712488"><ele>285.0</ele><time>2026-03-28T14:00:46.531Z</time></trkpt><trkpt lat="44.5714826" lon="10.7125699"><ele>285.0</ele><time>2026-03-28T14:00:47.536Z</time></trkpt><trkpt lat="44.5713949" lon="10.7126544"><ele>285.0</ele><time>2026-03-28T14:00:48.535Z</time></trkpt><trkpt lat="44.57131" lon="10.7127555"><ele>284.6</ele><time>2026-03-28T14:00:49.525Z</time></trkpt><trkpt lat="44.571238" lon="10.7128709"><ele>284.2</ele><time>2026-03-28T14:00:50.525Z</time></trkpt><trkpt lat="44.5711855" lon="10.7129996"><ele>283.8</ele><time>2026-03-28T14:00:51.54Z</time></trkpt><trkpt lat="44.5711354" lon="10.713117"><ele>283.4</ele><time>2026-03-28T14:00:52.526Z</time></trkpt><trkpt lat="44.5710705" lon="10.713216"><ele>283.0</ele><time>2026-03-28T14:00:53.52Z</time></trkpt><trkpt lat="44.5709938" lon="10.7132817"><ele>286.0</ele><time>2026-03-28T14:00:54.523Z</time></trkpt><trkpt lat="44.5709009" lon="10.7133252"><ele>289.0</ele><time>2026-03-28T14:00:55.539Z</time></trkpt><trkpt lat="44.5707947" lon="10.7133578"><ele>292.0</ele><time>2026-03-28T14:00:56.535Z</time></trkpt><trkpt lat="44.5706842" lon="10.713344"><ele>295.0</ele><time>2026-03-28T14:00:57.534Z</time></trkpt><trkpt lat="44.5705815" lon="10.7133284"><ele>298.0</ele><time>2026-03-28T14:00:58.534Z</time></trkpt><trkpt lat="44.5704816" lon="10.7133215"><ele>298.0</ele><time>2026-03-28T14:00:59.537Z</time></trkpt><trkpt lat="44.5703923" lon="10.7133268"><ele>298.0</ele><time>2026-03-28T14:01:00.533Z</time></trkpt><trkpt lat="44.5703155" lon="10.7133424"><ele>298.0</ele><time>2026-03-28T14:01:01.527Z</time></trkpt><trkpt lat="44.5702371" lon="10.7133668"><ele>298.0</ele><time>2026-03-28T14:01:02.535Z</time></trkpt><trkpt lat="44.5701698" lon="10.7134137"><ele>298.0</ele><time>2026-03-28T14:01:03.532Z</time></trkpt><trkpt lat="44.5701031" lon="10.713479"><ele>298.0</ele><time>2026-03-28T14:01:04.534Z</time></trkpt><trkpt lat="44.5700393" lon="10.7135428"><ele>300.16666666666663</ele><time>2026-03-28T14:01:05.534Z</time></trkpt><trkpt lat="44.5699643" lon="10.7136037"><ele>302.3333333333333</ele><time>2026-03-28T14:01:06.537Z</time></trkpt><trkpt lat="44.5698941" lon="10.7136689"><ele>304.5</ele><time>2026-03-28T14:01:07.535Z</time></trkpt><trkpt lat="44.569825" lon="10.7137456"><ele>306.6666666666667</ele><time>2026-03-28T14:01:08.542Z</time></trkpt><trkpt lat="44.5697517" lon="10.7138224"><ele>308.83333333333337</ele><time>2026-03-28T14:01:09.533Z</time></trkpt><trkpt lat="44.5696816" lon="10.7138993"><ele>311.0</ele><time>2026-03-28T14:01:10.535Z</time></trkpt><trkpt lat="44.5696155" lon="10.7139727"><ele>311.0</ele><time>2026-03-28T14:01:11.53Z</time></trkpt><trkpt lat="44.5695643" lon="10.7140467"><ele>311.0</ele><time>2026-03-28T14:01:12.532Z</time></trkpt><trkpt lat="44.5695104" lon="10.7141179"><ele>311.0</ele><time>2026-03-28T14:01:13.534Z</time></trkpt><trkpt lat="44.5694359" lon="10.7142075"><ele>311.0</ele><time>2026-03-28T14:01:15.526Z</time></trkpt><trkpt lat="44.5693608" lon="10.7142578"><ele>311.0</ele><time>2026-03-28T14:01:17.531Z</time></trkpt><trkpt lat="44.5692908" lon="10.714283"><ele>311.0</ele><time>2026-03-28T14:01:19.529Z</time></trkpt><trkpt lat="44.5693021" lon="10.7143827"><ele>311.0</ele><time>2026-03-28T14:01:24.541Z</time></trkpt><trkpt lat="44.5693587" lon="10.7143368"><ele>311.0</ele><time>2026-03-28T14:20:38.541Z</time></trkpt><trkpt lat="44.5694422" lon="10.7142256"><ele>311.0</ele><time>2026-03-28T14:20:40.539Z</time></trkpt><trkpt lat="44.5694972" lon="10.7141509"><ele>311.0</ele><time>2026-03-28T14:20:41.53Z</time></trkpt><trkpt lat="44.5695535" lon="10.7140707"><ele>311.0</ele><time>2026-03-28T14:20:42.556Z</time></trkpt><trkpt lat="44.5696207" lon="10.7139933"><ele>311.0</ele><time>2026-03-28T14:20:43.544Z</time></trkpt><trkpt lat="44.5696863" lon="10.7139121"><ele>311.0</ele><time>2026-03-28T14:20:44.546Z</time></trkpt><trkpt lat="44.5697537" lon="10.7138282"><ele>311.0</ele><time>2026-03-28T14:20:45.543Z</time></trkpt><trkpt lat="44.5698193" lon="10.7137527"><ele>311.0</ele><time>2026-03-28T14:20:46.544Z</time></trkpt><trkpt lat="44.5698855" lon="10.713683"><ele>311.0</ele><time>2026-03-28T14:20:47.544Z</time></trkpt><trkpt lat="44.5699595" lon="10.7136188"><ele>311.0</ele><time>2026-03-28T14:20:48.544Z</time></trkpt><trkpt lat="44.5700282" lon="10.7135546"><ele>311.0</ele><time>2026-03-28T14:20:49.55Z</time></trkpt><trkpt lat="44.5700918" lon="10.7134993"><ele>310.0</ele><time>2026-03-28T14:20:50.543Z</time></trkpt><trkpt lat="44.5701587" lon="10.7134462"><ele>309.0</ele><time>2026-03-28T14:20:51.544Z</time></trkpt><trkpt lat="44.5702278" lon="10.7133991"><ele>308.0</ele><time>2026-03-28T14:20:52.542Z</time></trkpt><trkpt lat="44.5702974" lon="10.7133708"><ele>307.0</ele><time>2026-03-28T14:20:53.54Z</time></trkpt><trkpt lat="44.5703779" lon="10.7133564"><ele>306.0</ele><time>2026-03-28T14:20:54.552Z</time></trkpt><trkpt lat="44.5704608" lon="10.7133516"><ele>305.0</ele><time>2026-03-28T14:20:55.546Z</time></trkpt><trkpt lat="44.5705454" lon="10.7133497"><ele>303.83333333333337</ele><time>2026-03-28T14:20:56.539Z</time></trkpt><trkpt lat="44.5706288" lon="10.7133421"><ele>302.6666666666667</ele><time>2026-03-28T14:20:57.542Z</time></trkpt><trkpt lat="44.5707057" lon="10.7133534"><ele>301.5</ele><time>2026-03-28T14:20:58.538Z</time></trkpt><trkpt lat="44.5707869" lon="10.7133606"><ele>300.3333333333333</ele><time>2026-03-28T14:20:59.546Z</time></trkpt><trkpt lat="44.5708803" lon="10.7133458"><ele>299.16666666666663</ele><time>2026-03-28T14:21:00.536Z</time></trkpt><trkpt lat="44.570969" lon="10.7132987"><ele>298.0</ele><time>2026-03-28T14:21:01.533Z</time></trkpt><trkpt lat="44.5710468" lon="10.7132307"><ele>298.0</ele><time>2026-03-28T14:21:02.536Z</time></trkpt><trkpt lat="44.57111" lon="10.7131555"><ele>298.0</ele><time>2026-03-28T14:21:03.54Z</time></trkpt><trkpt lat="44.5711604" lon="10.7130672"><ele>298.0</ele><time>2026-03-28T14:21:04.54Z</time></trkpt><trkpt lat="44.5712064" lon="10.7129539"><ele>298.0</ele><time>2026-03-28T14:21:05.542Z</time></trkpt><trkpt lat="44.5712566" lon="10.7128378"><ele>298.0</ele><time>2026-03-28T14:21:06.545Z</time></trkpt><trkpt lat="44.5713093" lon="10.7127253"><ele>298.0</ele><time>2026-03-28T14:21:07.54Z</time></trkpt><trkpt lat="44.5713721" lon="10.7126422"><ele>295.8333333333333</ele><time>2026-03-28T14:21:08.538Z</time></trkpt><trkpt lat="44.5714519" lon="10.7125747"><ele>293.66666666666663</ele><time>2026-03-28T14:21:09.54Z</time></trkpt><trkpt lat="44.5715314" lon="10.7125087"><ele>291.5</ele><time>2026-03-28T14:21:10.548Z</time></trkpt><trkpt lat="44.5716037" lon="10.7124379"><ele>289.3333333333333</ele><time>2026-03-28T14:21:11.545Z</time></trkpt><trkpt lat="44.57167" lon="10.7123716"><ele>287.1666666666667</ele><time>2026-03-28T14:21:12.548Z</time></trkpt><trkpt lat="44.5717333" lon="10.7123215"><ele>285.0</ele><time>2026-03-28T14:21:13.539Z</time></trkpt><trkpt lat="44.5717944" lon="10.7122877"><ele>285.0</ele><time>2026-03-28T14:21:14.543Z</time></trkpt><trkpt lat="44.5718863" lon="10.7123739"><ele>285.0</ele><time>2026-03-28T14:21:16.543Z</time></trkpt><trkpt lat="44.571894" lon="10.7124869"><ele>285.0</ele><time>2026-03-28T14:21:17.543Z</time></trkpt><trkpt lat="44.5718745" lon="10.7126024"><ele>285.0</ele><time>2026-03-28T14:21:18.53Z</time></trkpt><trkpt lat="44.5718399" lon="10.7127148"><ele>285.0</ele><time>2026-03-28T14:21:19.537Z</time></trkpt><trkpt lat="44.5718109" lon="10.7128202"><ele>285.0</ele><time>2026-03-28T14:21:20.536Z</time></trkpt><trkpt lat="44.5717815" lon="10.7129182"><ele>284.6666666666667</ele><time>2026-03-28T14:21:21.537Z</time></trkpt><trkpt lat="44.5717487" lon="10.7130313"><ele>284.3333333333333</ele><time>2026-03-28T14:21:22.536Z</time></trkpt><trkpt lat="44.5717271" lon="10.7131412"><ele>284.0</ele><time>2026-03-28T14:21:23.537Z</time></trkpt><trkpt lat="44.5717156" lon="10.7132527"><ele>283.66666666666663</ele><time>2026-03-28T14:21:24.525Z</time></trkpt><trkpt lat="44.5717334" lon="10.7133719"><ele>283.3333333333333</ele><time>2026-03-28T14:21:25.534Z</time></trkpt><trkpt lat="44.571781" lon="10.7134818"><ele>283.0</ele><time>2026-03-28T14:21:26.521Z</time></trkpt><trkpt lat="44.5718404" lon="10.7135805"><ele>284.2</ele><time>2026-03-28T14:21:27.516Z</time></trkpt><trkpt lat="44.5719205" lon="10.713682"><ele>285.4</ele><time>2026-03-28T14:21:28.519Z</time></trkpt><trkpt lat="44.5720086" lon="10.7137847"><ele>286.59999999999997</ele><time>2026-03-28T14:21:29.528Z</time></trkpt><trkpt lat="44.5721013" lon="10.713878"><ele>287.8</ele><time>2026-03-28T14:21:30.53Z</time></trkpt><trkpt lat="44.5721857" lon="10.7139559"><ele>289.0</ele><time>2026-03-28T14:21:31.533Z</time></trkpt><trkpt lat="44.5722731" lon="10.7140114"><ele>286.0</ele><time>2026-03-28T14:21:32.528Z</time></trkpt><trkpt lat="44.5723569" lon="10.7140824"><ele>283.0</ele><time>2026-03-28T14:21:33.544Z</time></trkpt><trkpt lat="44.5724314" lon="10.7141684"><ele>280.0</ele><time>2026-03-28T14:21:34.53Z</time></trkpt><trkpt lat="44.572491" lon="10.7142509"><ele>277.0</ele><time>2026-03-28T14:21:35.535Z</time></trkpt><trkpt lat="44.5725394" lon="10.7143415"><ele>274.0</ele><time>2026-03-28T14:21:36.527Z</time></trkpt><trkpt lat="44.5725789" lon="10.714451"><ele>271.0</ele><time>2026-03-28T14:21:37.529Z</time></trkpt><trkpt lat="44.5726144" lon="10.7145731"><ele>271.0</ele><time>2026-03-28T14:21:38.529Z</time></trkpt><trkpt lat="44.5726322" lon="10.7147025"><ele>271.0</ele><time>2026-03-28T14:21:39.532Z</time></trkpt><trkpt lat="44.5726458" lon="10.7148363"><ele>271.0</ele><time>2026-03-28T14:21:40.533Z</time></trkpt><trkpt lat="44.5726714" lon="10.7149778"><ele>271.0</ele><time>2026-03-28T14:21:41.537Z</time></trkpt><trkpt lat="44.5727006" lon="10.7151113"><ele>271.0</ele><time>2026-03-28T14:21:42.535Z</time></trkpt><trkpt lat="44.5727341" lon="10.7152295"><ele>270.0</ele><time>2026-03-28T14:21:43.537Z</time></trkpt><trkpt lat="44.5727757" lon="10.7153516"><ele>269.0</ele><time>2026-03-28T14:21:44.533Z</time></trkpt><trkpt lat="44.572815" lon="10.7154767"><ele>268.0</ele><time>2026-03-28T14:21:45.533Z</time></trkpt><trkpt lat="44.5728595" lon="10.7155853"><ele>267.0</ele><time>2026-03-28T14:21:46.535Z</time></trkpt><trkpt lat="44.5729055" lon="10.7156971"><ele>266.0</ele><time>2026-03-28T14:21:47.534Z</time></trkpt><trkpt lat="44.5729378" lon="10.7158179"><ele>261.83333333333337</ele><time>2026-03-28T14:21:48.539Z</time></trkpt><trkpt lat="44.5729602" lon="10.7159419"><ele>257.6666666666667</ele><time>2026-03-28T14:21:49.543Z</time></trkpt><trkpt lat="44.5729815" lon="10.7160619"><ele>253.5</ele><time>2026-03-28T14:21:50.532Z</time></trkpt><trkpt lat="44.5730119" lon="10.7161764"><ele>249.33333333333331</ele><time>2026-03-28T14:21:51.549Z</time></trkpt><trkpt lat="44.5730572" lon="10.7162818"><ele>245.16666666666666</ele><time>2026-03-28T14:21:52.533Z</time></trkpt><trkpt lat="44.5731115" lon="10.7163775"><ele>241.0</ele><time>2026-03-28T14:21:53.535Z</time></trkpt><trkpt lat="44.5731943" lon="10.7164693"><ele>241.0</ele><time>2026-03-28T14:21:54.53Z</time></trkpt><trkpt lat="44.573288" lon="10.7165691"><ele>241.0</ele><time>2026-03-28T14:21:55.533Z</time></trkpt><trkpt lat="44.5733722" lon="10.71668"><ele>241.0</ele><time>2026-03-28T14:21:56.541Z</time></trkpt><trkpt lat="44.5734553" lon="10.7168142"><ele>241.0</ele><time>2026-03-28T14:21:57.533Z</time></trkpt><trkpt lat="44.5735315" lon="10.7169485"><ele>239.25</ele><time>2026-03-28T14:21:58.538Z</time></trkpt><trkpt lat="44.5735894" lon="10.7170894"><ele>237.5</ele><time>2026-03-28T14:21:59.533Z</time></trkpt><trkpt lat="44.5736619" lon="10.7172253"><ele>235.75</ele><time>2026-03-28T14:22:00.535Z</time></trkpt><trkpt lat="44.5737345" lon="10.7173565"><ele>234.0</ele><time>2026-03-28T14:22:01.535Z</time></trkpt><trkpt lat="44.573818" lon="10.7174692"><ele>232.79999999999998</ele><time>2026-03-28T14:22:02.534Z</time></trkpt><trkpt lat="44.5738998" lon="10.7175843"><ele>231.59999999999997</ele><time>2026-03-28T14:22:03.54Z</time></trkpt><trkpt lat="44.5739797" lon="10.7176976"><ele>230.4</ele><time>2026-03-28T14:22:04.539Z</time></trkpt><trkpt lat="44.5740544" lon="10.7178021"><ele>229.2</ele><time>2026-03-28T14:22:05.534Z</time></trkpt><trkpt lat="44.5741317" lon="10.717905"><ele>228.0</ele><time>2026-03-28T14:22:06.543Z</time></trkpt><trkpt lat="44.5742144" lon="10.7180059"><ele>228.0</ele><time>2026-03-28T14:22:07.533Z</time></trkpt><trkpt lat="44.5742975" lon="10.7181094"><ele>228.0</ele><time>2026-03-28T14:22:08.532Z</time></trkpt><trkpt lat="44.5743707" lon="10.7182184"><ele>228.0</ele><time>2026-03-28T14:22:09.53Z</time></trkpt><trkpt lat="44.5744399" lon="10.718319"><ele>228.0</ele><time>2026-03-28T14:22:10.524Z</time></trkpt><trkpt lat="44.5744941" lon="10.718405"><ele>228.0</ele><time>2026-03-28T14:22:11.529Z</time></trkpt><trkpt lat="44.5745398" lon="10.7184914"><ele>227.83333333333334</ele><time>2026-03-28T14:22:12.521Z</time></trkpt><trkpt lat="44.574573" lon="10.7185827"><ele>227.66666666666669</ele><time>2026-03-28T14:22:13.541Z</time></trkpt><trkpt lat="44.5745794" lon="10.7186936"><ele>227.5</ele><time>2026-03-28T14:22:14.529Z</time></trkpt><trkpt lat="44.5745491" lon="10.718794"><ele>227.33333333333334</ele><time>2026-03-28T14:22:15.526Z</time></trkpt><trkpt lat="44.5745073" lon="10.7189074"><ele>227.16666666666669</ele><time>2026-03-28T14:22:16.529Z</time></trkpt><trkpt lat="44.5744734" lon="10.7190278"><ele>227.0</ele><time>2026-03-28T14:22:17.529Z</time></trkpt><trkpt lat="44.5744721" lon="10.7191615"><ele>228.39999999999998</ele><time>2026-03-28T14:22:18.523Z</time></trkpt><trkpt lat="44.5745083" lon="10.7192993"><ele>229.79999999999998</ele><time>2026-03-28T14:22:19.533Z</time></trkpt><trkpt lat="44.5745616" lon="10.7194196"><ele>231.2</ele><time>2026-03-28T14:22:20.541Z</time></trkpt><trkpt lat="44.5746033" lon="10.7195539"><ele>232.6</ele><time>2026-03-28T14:22:21.539Z</time></trkpt><trkpt lat="44.5746402" lon="10.7196871"><ele>234.0</ele><time>2026-03-28T14:22:22.545Z</time></trkpt><trkpt lat="44.5746853" lon="10.719827"><ele>234.0</ele><time>2026-03-28T14:22:23.53Z</time></trkpt><trkpt lat="44.5747365" lon="10.7199729"><ele>233.99999999999997</ele><time>2026-03-28T14:22:24.534Z</time></trkpt><trkpt lat="44.574777" lon="10.72012"><ele>233.99999999999997</ele><time>2026-03-28T14:22:25.529Z</time></trkpt><trkpt lat="44.5748029" lon="10.7202685"><ele>234.0</ele><time>2026-03-28T14:22:26.533Z</time></trkpt><trkpt lat="44.5748197" lon="10.7204139"><ele>234.0</ele><time>2026-03-28T14:22:27.543Z</time></trkpt><trkpt lat="44.574828" lon="10.720527"><ele>232.6</ele><time>2026-03-28T14:22:28.532Z</time></trkpt><trkpt lat="44.5748467" lon="10.7206586"><ele>231.2</ele><time>2026-03-28T14:22:29.531Z</time></trkpt><trkpt lat="44.5748758" lon="10.7207899"><ele>229.79999999999998</ele><time>2026-03-28T14:22:30.527Z</time></trkpt><trkpt lat="44.5748952" lon="10.7209293"><ele>228.39999999999998</ele><time>2026-03-28T14:22:31.529Z</time></trkpt><trkpt lat="44.5748894" lon="10.7210457"><ele>227.0</ele><time>2026-03-28T14:22:32.532Z</time></trkpt><trkpt lat="44.5748802" lon="10.7211673"><ele>224.39999999999998</ele><time>2026-03-28T14:22:33.542Z</time></trkpt><trkpt lat="44.5748587" lon="10.7212965"><ele>221.79999999999998</ele><time>2026-03-28T14:22:34.536Z</time></trkpt><trkpt lat="44.5748429" lon="10.7214233"><ele>219.2</ele><time>2026-03-28T14:22:35.539Z</time></trkpt><trkpt lat="44.5748402" lon="10.7215582"><ele>216.6</ele><time>2026-03-28T14:22:36.529Z</time></trkpt><trkpt lat="44.5748468" lon="10.72172"><ele>214.0</ele><time>2026-03-28T14:22:37.529Z</time></trkpt><trkpt lat="44.5748764" lon="10.7219252"><ele>211.66666666666666</ele><time>2026-03-28T14:22:38.529Z</time></trkpt><trkpt lat="44.5748968" lon="10.7221563"><ele>209.33333333333331</ele><time>2026-03-28T14:22:39.53Z</time></trkpt><trkpt lat="44.5749246" lon="10.7223829"><ele>207.0</ele><time>2026-03-28T14:22:40.533Z</time></trkpt><trkpt lat="44.574953" lon="10.7225843"><ele>206.25</ele><time>2026-03-28T14:22:41.53Z</time></trkpt><trkpt lat="44.5749718" lon="10.7227811"><ele>205.5</ele><time>2026-03-28T14:22:42.527Z</time></trkpt><trkpt lat="44.5749858" lon="10.7229404"><ele>204.75</ele><time>2026-03-28T14:22:43.534Z</time></trkpt><trkpt lat="44.5749922" lon="10.7231041"><ele>204.0</ele><time>2026-03-28T14:22:44.53Z</time></trkpt><trkpt lat="44.5750227" lon="10.7232593"><ele>204.0</ele><time>2026-03-28T14:22:45.534Z</time></trkpt><trkpt lat="44.5750224" lon="10.7233896"><ele>204.0</ele><time>2026-03-28T14:22:46.522Z</time></trkpt><trkpt lat="44.575019" lon="10.723528"><ele>204.0</ele><time>2026-03-28T14:22:47.52Z</time></trkpt><trkpt lat="44.5750386" lon="10.723643"><ele>204.0</ele><time>2026-03-28T14:22:48.521Z</time></trkpt><trkpt lat="44.5750512" lon="10.7237614"><ele>204.0</ele><time>2026-03-28T14:22:49.521Z</time></trkpt><trkpt lat="44.5750723" lon="10.7238856"><ele>204.0</ele><time>2026-03-28T14:22:50.529Z</time></trkpt><trkpt lat="44.5750841" lon="10.7239949"><ele>204.0</ele><time>2026-03-28T14:22:51.521Z</time></trkpt><trkpt lat="44.5751012" lon="10.7241073"><ele>204.0</ele><time>2026-03-28T14:22:52.52Z</time></trkpt><trkpt lat="44.5750949" lon="10.7242249"><ele>204.0</ele><time>2026-03-28T14:22:53.524Z</time></trkpt><trkpt lat="44.5750969" lon="10.7243448"><ele>204.0</ele><time>2026-03-28T14:22:54.523Z</time></trkpt><trkpt lat="44.575097" lon="10.7244697"><ele>204.0</ele><time>2026-03-28T14:22:55.526Z</time></trkpt><trkpt lat="44.575083" lon="10.7245914"><ele>203.5</ele><time>2026-03-28T14:22:56.526Z</time></trkpt><trkpt lat="44.575079" lon="10.7247099"><ele>203.0</ele><time>2026-03-28T14:22:57.518Z</time></trkpt><trkpt lat="44.5750731" lon="10.7248195"><ele>202.5</ele><time>2026-03-28T14:22:58.527Z</time></trkpt><trkpt lat="44.5750537" lon="10.7249348"><ele>202.0</ele><time>2026-03-28T14:22:59.529Z</time></trkpt><trkpt lat="44.575032" lon="10.725064"><ele>201.5</ele><time>2026-03-28T14:23:00.522Z</time></trkpt><trkpt lat="44.5750131" lon="10.7251963"><ele>201.0</ele><time>2026-03-28T14:23:01.529Z</time></trkpt><trkpt lat="44.5750158" lon="10.7253276"><ele>200.0</ele><time>2026-03-28T14:23:02.525Z</time></trkpt><trkpt lat="44.5750235" lon="10.7254409"><ele>199.0</ele><time>2026-03-28T14:23:03.53Z</time></trkpt><trkpt lat="44.5750459" lon="10.7255676"><ele>198.0</ele><time>2026-03-28T14:23:04.523Z</time></trkpt><trkpt lat="44.5750628" lon="10.7257078"><ele>197.0</ele><time>2026-03-28T14:23:05.519Z</time></trkpt><trkpt lat="44.5750769" lon="10.7258423"><ele>196.0</ele><time>2026-03-28T14:23:06.519Z</time></trkpt><trkpt lat="44.5750679" lon="10.7259846"><ele>194.60000000000002</ele><time>2026-03-28T14:23:07.518Z</time></trkpt><trkpt lat="44.5750398" lon="10.7261181"><ele>193.2</ele><time>2026-03-28T14:23:08.519Z</time></trkpt><trkpt lat="44.5749835" lon="10.7262463"><ele>191.8</ele><time>2026-03-28T14:23:09.511Z</time></trkpt><trkpt lat="44.5749203" lon="10.7263673"><ele>190.39999999999998</ele><time>2026-03-28T14:23:10.521Z</time></trkpt><trkpt lat="44.5748555" lon="10.7264808"><ele>189.0</ele><time>2026-03-28T14:23:11.525Z</time></trkpt><trkpt lat="44.5748117" lon="10.7266158"><ele>189.0</ele><time>2026-03-28T14:23:12.516Z</time></trkpt><trkpt lat="44.5748181" lon="10.7267587"><ele>189.0</ele><time>2026-03-28T14:23:13.521Z</time></trkpt><trkpt lat="44.574853" lon="10.7268973"><ele>189.0</ele><time>2026-03-28T14:23:14.525Z</time></trkpt><trkpt lat="44.5748879" lon="10.7270543"><ele>189.0</ele><time>2026-03-28T14:23:15.523Z</time></trkpt><trkpt lat="44.5749328" lon="10.7272084"><ele>189.0</ele><time>2026-03-28T14:23:16.534Z</time></trkpt><trkpt lat="44.574979" lon="10.7273619"><ele>186.39999999999998</ele><time>2026-03-28T14:23:17.531Z</time></trkpt><trkpt lat="44.5750214" lon="10.727512"><ele>183.8</ele><time>2026-03-28T14:23:18.534Z</time></trkpt><trkpt lat="44.5750629" lon="10.7276525"><ele>181.2</ele><time>2026-03-28T14:23:19.53Z</time></trkpt><trkpt lat="44.5751139" lon="10.7277884"><ele>178.60000000000002</ele><time>2026-03-28T14:23:20.535Z</time></trkpt><trkpt lat="44.575172" lon="10.7279189"><ele>176.0</ele><time>2026-03-28T14:23:21.539Z</time></trkpt><trkpt lat="44.575234" lon="10.7280302"><ele>174.20000000000002</ele><time>2026-03-28T14:23:22.524Z</time></trkpt><trkpt lat="44.5753021" lon="10.7281037"><ele>172.4</ele><time>2026-03-28T14:23:23.529Z</time></trkpt><trkpt lat="44.5753971" lon="10.7281351"><ele>170.6</ele><time>2026-03-28T14:23:24.517Z</time></trkpt><trkpt lat="44.5755022" lon="10.7281476"><ele>168.8</ele><time>2026-03-28T14:23:25.519Z</time></trkpt><trkpt lat="44.5756137" lon="10.7281462"><ele>167.0</ele><time>2026-03-28T14:23:26.533Z</time></trkpt><trkpt lat="44.5757328" lon="10.7281455"><ele>167.0</ele><time>2026-03-28T14:23:27.522Z</time></trkpt><trkpt lat="44.5758426" lon="10.7281489"><ele>167.0</ele><time>2026-03-28T14:23:28.533Z</time></trkpt><trkpt lat="44.5759542" lon="10.7281482"><ele>167.0</ele><time>2026-03-28T14:23:29.525Z</time></trkpt><trkpt lat="44.5760706" lon="10.7281405"><ele>167.0</ele><time>2026-03-28T14:23:30.517Z</time></trkpt><trkpt lat="44.5761853" lon="10.7281282"><ele>165.4</ele><time>2026-03-28T14:23:31.522Z</time></trkpt><trkpt lat="44.5762956" lon="10.7281028"><ele>163.79999999999998</ele><time>2026-03-28T14:23:32.521Z</time></trkpt><trkpt lat="44.5763909" lon="10.7280862"><ele>162.2</ele><time>2026-03-28T14:23:33.523Z</time></trkpt><trkpt lat="44.5764812" lon="10.7280686"><ele>160.6</ele><time>2026-03-28T14:23:34.513Z</time></trkpt><trkpt lat="44.5765553" lon="10.7280597"><ele>159.0</ele><time>2026-03-28T14:23:35.515Z</time></trkpt><trkpt lat="44.5766339" lon="10.7280613"><ele>159.0</ele><time>2026-03-28T14:23:36.507Z</time></trkpt><trkpt lat="44.5767085" lon="10.7280773"><ele>159.0</ele><time>2026-03-28T14:23:37.51Z</time></trkpt><trkpt lat="44.576807" lon="10.7280955"><ele>159.0</ele><time>2026-03-28T14:23:39.512Z</time></trkpt><trkpt lat="44.5768807" lon="10.7281238"><ele>159.0</ele><time>2026-03-28T14:23:42.529Z</time></trkpt><trkpt lat="44.5769757" lon="10.728079"><ele>159.0</ele><time>2026-03-28T14:23:46.515Z</time></trkpt><trkpt lat="44.5770234" lon="10.7280156"><ele>159.0</ele><time>2026-03-28T14:23:47.528Z</time></trkpt><trkpt lat="44.5770881" lon="10.7279249"><ele>157.5</ele><time>2026-03-28T14:23:48.516Z</time></trkpt><trkpt lat="44.577176" lon="10.7278036"><ele>156.0</ele><time>2026-03-28T14:23:49.524Z</time></trkpt><trkpt lat="44.577269" lon="10.7276821"><ele>154.5</ele><time>2026-03-28T14:23:50.527Z</time></trkpt><trkpt lat="44.5773652" lon="10.7275618"><ele>153.0</ele><time>2026-03-28T14:23:51.525Z</time></trkpt><trkpt lat="44.5774594" lon="10.7274472"><ele>153.0</ele><time>2026-03-28T14:23:52.531Z</time></trkpt><trkpt lat="44.5775581" lon="10.7273251"><ele>153.0</ele><time>2026-03-28T14:23:53.525Z</time></trkpt><trkpt lat="44.5776475" lon="10.727196"><ele>153.0</ele><time>2026-03-28T14:23:54.534Z</time></trkpt><trkpt lat="44.5777372" lon="10.7270725"><ele>153.0</ele><time>2026-03-28T14:23:55.522Z</time></trkpt><trkpt lat="44.5778293" lon="10.7269509"><ele>149.75</ele><time>2026-03-28T14:23:56.529Z</time></trkpt><trkpt lat="44.5779221" lon="10.72682"><ele>146.5</ele><time>2026-03-28T14:23:57.527Z</time></trkpt><trkpt lat="44.5780164" lon="10.7267024"><ele>143.25</ele><time>2026-03-28T14:23:58.529Z</time></trkpt><trkpt lat="44.5781051" lon="10.7265696"><ele>140.0</ele><time>2026-03-28T14:23:59.536Z</time></trkpt><trkpt lat="44.5781983" lon="10.7264428"><ele>140.0</ele><time>2026-03-28T14:24:00.541Z</time></trkpt><trkpt lat="44.5782806" lon="10.7263032"><ele>140.0</ele><time>2026-03-28T14:24:01.535Z</time></trkpt><trkpt lat="44.5783618" lon="10.7261674"><ele>140.0</ele><time>2026-03-28T14:24:02.536Z</time></trkpt><trkpt lat="44.5784403" lon="10.7260333"><ele>140.0</ele><time>2026-03-28T14:24:03.538Z</time></trkpt><trkpt lat="44.578526" lon="10.7258962"><ele>140.75</ele><time>2026-03-28T14:24:04.535Z</time></trkpt><trkpt lat="44.5786056" lon="10.7257814"><ele>141.5</ele><time>2026-03-28T14:24:05.538Z</time></trkpt><trkpt lat="44.5786946" lon="10.7256813"><ele>142.25</ele><time>2026-03-28T14:24:06.535Z</time></trkpt><trkpt lat="44.5787894" lon="10.7255808"><ele>143.0</ele><time>2026-03-28T14:24:07.538Z</time></trkpt><trkpt lat="44.5788644" lon="10.7254666"><ele>141.0</ele><time>2026-03-28T14:24:08.532Z</time></trkpt><trkpt lat="44.5789347" lon="10.7253309"><ele>139.0</ele><time>2026-03-28T14:24:09.524Z</time></trkpt><trkpt lat="44.578986" lon="10.7251619"><ele>137.0</ele><time>2026-03-28T14:24:10.527Z</time></trkpt><trkpt lat="44.5790158" lon="10.7249567"><ele>135.0</ele><time>2026-03-28T14:24:11.521Z</time></trkpt><trkpt lat="44.5790378" lon="10.7247724"><ele>134.5</ele><time>2026-03-28T14:24:12.518Z</time></trkpt><trkpt lat="44.5791061" lon="10.7246052"><ele>134.0</ele><time>2026-03-28T14:24:13.516Z</time></trkpt><trkpt lat="44.5791713" lon="10.7244737"><ele>133.5</ele><time>2026-03-28T14:24:14.523Z</time></trkpt><trkpt lat="44.5792465" lon="10.7243413"><ele>133.0</ele><time>2026-03-28T14:24:15.53Z</time></trkpt><trkpt lat="44.5793191" lon="10.724185"><ele>133.0</ele><time>2026-03-28T14:24:16.524Z</time></trkpt><trkpt lat="44.5793937" lon="10.7240353"><ele>133.0</ele><time>2026-03-28T14:24:17.536Z</time></trkpt><trkpt lat="44.5794703" lon="10.7238695"><ele>133.0</ele><time>2026-03-28T14:24:18.528Z</time></trkpt><trkpt lat="44.5795244" lon="10.723684"><ele>133.0</ele><time>2026-03-28T14:24:19.523Z</time></trkpt><trkpt lat="44.5795947" lon="10.7235218"><ele>133.25</ele><time>2026-03-28T14:24:20.531Z</time></trkpt><trkpt lat="44.5796903" lon="10.7233675"><ele>133.5</ele><time>2026-03-28T14:24:21.525Z</time></trkpt><trkpt lat="44.579809" lon="10.7232449"><ele>133.75</ele><time>2026-03-28T14:24:22.543Z</time></trkpt><trkpt lat="44.5799166" lon="10.7231136"><ele>134.0</ele><time>2026-03-28T14:24:23.535Z</time></trkpt><trkpt lat="44.5800219" lon="10.7229907"><ele>134.0</ele><time>2026-03-28T14:24:24.536Z</time></trkpt><trkpt lat="44.5800968" lon="10.7228495"><ele>134.0</ele><time>2026-03-28T14:24:25.532Z</time></trkpt><trkpt lat="44.5801587" lon="10.7226973"><ele>134.0</ele><time>2026-03-28T14:24:26.536Z</time></trkpt><trkpt lat="44.5802267" lon="10.7225425"><ele>134.0</ele><time>2026-03-28T14:24:27.537Z</time></trkpt><trkpt lat="44.5802807" lon="10.7223809"><ele>134.0</ele><time>2026-03-28T14:24:28.533Z</time></trkpt><trkpt lat="44.5803351" lon="10.7222231"><ele>134.0</ele><time>2026-03-28T14:24:29.536Z</time></trkpt><trkpt lat="44.5803913" lon="10.7220581"><ele>134.0</ele><time>2026-03-28T14:24:30.525Z</time></trkpt><trkpt lat="44.5804244" lon="10.7218844"><ele>134.0</ele><time>2026-03-28T14:24:31.527Z</time></trkpt><trkpt lat="44.5804463" lon="10.7217013"><ele>134.25</ele><time>2026-03-28T14:24:32.531Z</time></trkpt><trkpt lat="44.5804631" lon="10.7215328"><ele>134.5</ele><time>2026-03-28T14:24:33.542Z</time></trkpt><trkpt lat="44.580475" lon="10.7213636"><ele>134.75</ele><time>2026-03-28T14:24:34.537Z</time></trkpt><trkpt lat="44.5804934" lon="10.721201"><ele>135.0</ele><time>2026-03-28T14:24:35.55Z</time></trkpt><trkpt lat="44.580498" lon="10.721041"><ele>135.5</ele><time>2026-03-28T14:24:36.538Z</time></trkpt><trkpt lat="44.5804916" lon="10.7208998"><ele>136.0</ele><time>2026-03-28T14:24:37.533Z</time></trkpt><trkpt lat="44.5804883" lon="10.7207741"><ele>136.5</ele><time>2026-03-28T14:24:38.536Z</time></trkpt><trkpt lat="44.5804906" lon="10.7206537"><ele>137.0</ele><time>2026-03-28T14:24:39.534Z</time></trkpt><trkpt lat="44.5804712" lon="10.7205482"><ele>137.5</ele><time>2026-03-28T14:24:40.545Z</time></trkpt><trkpt lat="44.5804523" lon="10.7204528"><ele>138.0</ele><time>2026-03-28T14:24:41.526Z</time></trkpt><trkpt lat="44.5804343" lon="10.7203633"><ele>138.0</ele><time>2026-03-28T14:24:42.518Z</time></trkpt><trkpt lat="44.5804779" lon="10.720257"><ele>138.0</ele><time>2026-03-28T14:24:44.512Z</time></trkpt><trkpt lat="44.5805832" lon="10.7201615"><ele>138.0</ele><time>2026-03-28T14:24:46.5Z</time></trkpt><trkpt lat="44.580664" lon="10.7201091"><ele>138.0</ele><time>2026-03-28T14:24:47.503Z</time></trkpt><trkpt lat="44.5807612" lon="10.7200655"><ele>138.0</ele><time>2026-03-28T14:24:48.504Z</time></trkpt><trkpt lat="44.5808601" lon="10.7200208"><ele>137.5</ele><time>2026-03-28T14:24:49.518Z</time></trkpt><trkpt lat="44.5809791" lon="10.7199676"><ele>137.0</ele><time>2026-03-28T14:24:50.515Z</time></trkpt><trkpt lat="44.5811054" lon="10.7199152"><ele>136.5</ele><time>2026-03-28T14:24:51.522Z</time></trkpt><trkpt lat="44.5812156" lon="10.719858"><ele>136.0</ele><time>2026-03-28T14:24:52.528Z</time></trkpt><trkpt lat="44.5813204" lon="10.7198078"><ele>135.4</ele><time>2026-03-28T14:24:53.527Z</time></trkpt><trkpt lat="44.581433" lon="10.7197749"><ele>134.8</ele><time>2026-03-28T14:24:54.531Z</time></trkpt><trkpt lat="44.581542" lon="10.7197468"><ele>134.20000000000002</ele><time>2026-03-28T14:24:55.529Z</time></trkpt><trkpt lat="44.5816477" lon="10.7197112"><ele>133.6</ele><time>2026-03-28T14:24:56.532Z</time></trkpt><trkpt lat="44.5817502" lon="10.7196535"><ele>133.0</ele><time>2026-03-28T14:24:57.529Z</time></trkpt><trkpt lat="44.5818594" lon="10.7195743"><ele>133.0</ele><time>2026-03-28T14:24:58.531Z</time></trkpt><trkpt lat="44.581952" lon="10.7194737"><ele>133.0</ele><time>2026-03-28T14:24:59.521Z</time></trkpt><trkpt lat="44.5820253" lon="10.7193543"><ele>133.0</ele><time>2026-03-28T14:25:00.528Z</time></trkpt><trkpt lat="44.5820738" lon="10.7192168"><ele>133.0</ele><time>2026-03-28T14:25:01.533Z</time></trkpt><trkpt lat="44.5821352" lon="10.7190823"><ele>132.0</ele><time>2026-03-28T14:25:02.531Z</time></trkpt><trkpt lat="44.5821823" lon="10.7189117"><ele>131.0</ele><time>2026-03-28T14:25:03.534Z</time></trkpt><trkpt lat="44.5822303" lon="10.718741"><ele>130.0</ele><time>2026-03-28T14:25:04.535Z</time></trkpt><trkpt lat="44.5822817" lon="10.7185794"><ele>129.0</ele><time>2026-03-28T14:25:05.532Z</time></trkpt><trkpt lat="44.5823319" lon="10.7184219"><ele>128.5</ele><time>2026-03-28T14:25:06.528Z</time></trkpt><trkpt lat="44.5823902" lon="10.7182613"><ele>128.0</ele><time>2026-03-28T14:25:07.526Z</time></trkpt><trkpt lat="44.5824555" lon="10.7181058"><ele>127.5</ele><time>2026-03-28T14:25:08.528Z</time></trkpt><trkpt lat="44.5825177" lon="10.7179267"><ele>127.0</ele><time>2026-03-28T14:25:09.528Z</time></trkpt><trkpt lat="44.582584" lon="10.7177549"><ele>127.75</ele><time>2026-03-28T14:25:10.53Z</time></trkpt><trkpt lat="44.5826408" lon="10.717564"><ele>128.5</ele><time>2026-03-28T14:25:11.537Z</time></trkpt><trkpt lat="44.582693" lon="10.7174011"><ele>129.25</ele><time>2026-03-28T14:25:12.542Z</time></trkpt><trkpt lat="44.5827614" lon="10.7172478"><ele>130.0</ele><time>2026-03-28T14:25:13.536Z</time></trkpt><trkpt lat="44.5828167" lon="10.7170701"><ele>127.75</ele><time>2026-03-28T14:25:14.542Z</time></trkpt><trkpt lat="44.5828637" lon="10.7168789"><ele>125.5</ele><time>2026-03-28T14:25:15.542Z</time></trkpt><trkpt lat="44.582935" lon="10.7167176"><ele>123.25</ele><time>2026-03-28T14:25:16.542Z</time></trkpt><trkpt lat="44.5830045" lon="10.716565"><ele>121.0</ele><time>2026-03-28T14:25:17.542Z</time></trkpt><trkpt lat="44.5830715" lon="10.7163931"><ele>121.0</ele><time>2026-03-28T14:25:18.545Z</time></trkpt><trkpt lat="44.5831551" lon="10.7162376"><ele>121.0</ele><time>2026-03-28T14:25:19.538Z</time></trkpt><trkpt lat="44.5832233" lon="10.7160882"><ele>121.0</ele><time>2026-03-28T14:25:20.547Z</time></trkpt><trkpt lat="44.5832802" lon="10.7159285"><ele>121.0</ele><time>2026-03-28T14:25:21.536Z</time></trkpt><trkpt lat="44.5833092" lon="10.7157376"><ele>121.25</ele><time>2026-03-28T14:25:22.535Z</time></trkpt><trkpt lat="44.5833779" lon="10.7155824"><ele>121.5</ele><time>2026-03-28T14:25:23.531Z</time></trkpt><trkpt lat="44.5834434" lon="10.715432"><ele>121.75</ele><time>2026-03-28T14:25:24.526Z</time></trkpt><trkpt lat="44.5835124" lon="10.7152968"><ele>122.0</ele><time>2026-03-28T14:25:25.522Z</time></trkpt><trkpt lat="44.5835854" lon="10.7151506"><ele>122.5</ele><time>2026-03-28T14:25:26.516Z</time></trkpt><trkpt lat="44.583658" lon="10.7150006"><ele>123.0</ele><time>2026-03-28T14:25:27.518Z</time></trkpt><trkpt lat="44.5837309" lon="10.7148494"><ele>123.5</ele><time>2026-03-28T14:25:28.525Z</time></trkpt><trkpt lat="44.5838035" lon="10.7146952"><ele>124.0</ele><time>2026-03-28T14:25:29.524Z</time></trkpt><trkpt lat="44.5838826" lon="10.714555"><ele>124.25</ele><time>2026-03-28T14:25:30.528Z</time></trkpt><trkpt lat="44.583961" lon="10.7144239"><ele>124.5</ele><time>2026-03-28T14:25:31.533Z</time></trkpt><trkpt lat="44.5840508" lon="10.7142832"><ele>124.75</ele><time>2026-03-28T14:25:32.527Z</time></trkpt><trkpt lat="44.5841418" lon="10.7141316"><ele>125.0</ele><time>2026-03-28T14:25:33.533Z</time></trkpt><trkpt lat="44.5842356" lon="10.713987"><ele>125.75</ele><time>2026-03-28T14:25:34.523Z</time></trkpt><trkpt lat="44.5843272" lon="10.7138456"><ele>126.5</ele><time>2026-03-28T14:25:35.527Z</time></trkpt><trkpt lat="44.584418" lon="10.7137014"><ele>127.25</ele><time>2026-03-28T14:25:36.524Z</time></trkpt><trkpt lat="44.5845065" lon="10.7135571"><ele>128.0</ele><time>2026-03-28T14:25:37.538Z</time></trkpt><trkpt lat="44.5845895" lon="10.7134123"><ele>128.0</ele><time>2026-03-28T14:25:38.535Z</time></trkpt><trkpt lat="44.5846665" lon="10.7132634"><ele>128.0</ele><time>2026-03-28T14:25:39.537Z</time></trkpt><trkpt lat="44.5847519" lon="10.7131197"><ele>128.0</ele><time>2026-03-28T14:25:40.531Z</time></trkpt><trkpt lat="44.5848378" lon="10.7129655"><ele>128.0</ele><time>2026-03-28T14:25:41.535Z</time></trkpt><trkpt lat="44.5849293" lon="10.7128172"><ele>129.0</ele><time>2026-03-28T14:25:42.532Z</time></trkpt><trkpt lat="44.5850102" lon="10.7126692"><ele>130.0</ele><time>2026-03-28T14:25:43.535Z</time></trkpt><trkpt lat="44.5851007" lon="10.7125271"><ele>131.0</ele><time>2026-03-28T14:25:44.54Z</time></trkpt><trkpt lat="44.5851863" lon="10.7123714"><ele>132.0</ele><time>2026-03-28T14:25:45.537Z</time></trkpt><trkpt lat="44.5852782" lon="10.7122165"><ele>131.75</ele><time>2026-03-28T14:25:46.545Z</time></trkpt><trkpt lat="44.5853842" lon="10.712068"><ele>131.5</ele><time>2026-03-28T14:25:47.539Z</time></trkpt><trkpt lat="44.5854773" lon="10.7119162"><ele>131.25</ele><time>2026-03-28T14:25:48.537Z</time></trkpt><trkpt lat="44.5855699" lon="10.7117578"><ele>131.0</ele><time>2026-03-28T14:25:49.543Z</time></trkpt><trkpt lat="44.5856631" lon="10.7116071"><ele>131.0</ele><time>2026-03-28T14:25:50.545Z</time></trkpt><trkpt lat="44.5857655" lon="10.711463"><ele>131.0</ele><time>2026-03-28T14:25:51.548Z</time></trkpt><trkpt lat="44.5858685" lon="10.7113207"><ele>131.0</ele><time>2026-03-28T14:25:52.538Z</time></trkpt><trkpt lat="44.5859647" lon="10.7111755"><ele>131.0</ele><time>2026-03-28T14:25:53.536Z</time></trkpt><trkpt lat="44.586049" lon="10.7110227"><ele>131.25</ele><time>2026-03-28T14:25:54.543Z</time></trkpt><trkpt lat="44.5861315" lon="10.7108642"><ele>131.5</ele><time>2026-03-28T14:25:55.539Z</time></trkpt><trkpt lat="44.5862246" lon="10.7107067"><ele>131.75</ele><time>2026-03-28T14:25:56.544Z</time></trkpt><trkpt lat="44.5863086" lon="10.710554"><ele>132.0</ele><time>2026-03-28T14:25:57.542Z</time></trkpt><trkpt lat="44.5863844" lon="10.7104168"><ele>131.25</ele><time>2026-03-28T14:25:58.54Z</time></trkpt><trkpt lat="44.5864683" lon="10.7102941"><ele>130.5</ele><time>2026-03-28T14:25:59.54Z</time></trkpt><trkpt lat="44.5865407" lon="10.7101694"><ele>129.75</ele><time>2026-03-28T14:26:00.54Z</time></trkpt><trkpt lat="44.5866137" lon="10.7100328"><ele>129.0</ele><time>2026-03-28T14:26:01.54Z</time></trkpt><trkpt lat="44.5866947" lon="10.7099077"><ele>129.0</ele><time>2026-03-28T14:26:02.545Z</time></trkpt><trkpt lat="44.586767" lon="10.709783"><ele>129.0</ele><time>2026-03-28T14:26:03.545Z</time></trkpt><trkpt lat="44.5868337" lon="10.7096585"><ele>129.0</ele><time>2026-03-28T14:26:04.537Z</time></trkpt><trkpt lat="44.5869115" lon="10.7095352"><ele>129.0</ele><time>2026-03-28T14:26:05.54Z</time></trkpt><trkpt lat="44.5869826" lon="10.7094103"><ele>128.8</ele><time>2026-03-28T14:26:06.536Z</time></trkpt><trkpt lat="44.5870569" lon="10.7093002"><ele>128.60000000000002</ele><time>2026-03-28T14:26:07.54Z</time></trkpt><trkpt lat="44.5871222" lon="10.7091965"><ele>128.4</ele><time>2026-03-28T14:26:08.539Z</time></trkpt><trkpt lat="44.5871824" lon="10.7091029"><ele>128.20000000000002</ele><time>2026-03-28T14:26:09.536Z</time></trkpt><trkpt lat="44.5872346" lon="10.7090123"><ele>128.0</ele><time>2026-03-28T14:26:10.536Z</time></trkpt><trkpt lat="44.5872958" lon="10.7089204"><ele>128.0</ele><time>2026-03-28T14:26:11.537Z</time></trkpt><trkpt lat="44.5873575" lon="10.7088239"><ele>128.0</ele><time>2026-03-28T14:26:12.538Z</time></trkpt><trkpt lat="44.5874244" lon="10.7087367"><ele>128.0</ele><time>2026-03-28T14:26:13.546Z</time></trkpt><trkpt lat="44.5874904" lon="10.7086519"><ele>128.0</ele><time>2026-03-28T14:26:14.537Z</time></trkpt><trkpt lat="44.5875745" lon="10.7085849"><ele>128.0</ele><time>2026-03-28T14:26:15.536Z</time></trkpt><trkpt lat="44.5876763" lon="10.7085287"><ele>128.25</ele><time>2026-03-28T14:26:16.537Z</time></trkpt><trkpt lat="44.5877808" lon="10.7084872"><ele>128.5</ele><time>2026-03-28T14:26:17.528Z</time></trkpt><trkpt lat="44.5878954" lon="10.7084566"><ele>128.75</ele><time>2026-03-28T14:26:18.534Z</time></trkpt><trkpt lat="44.5880191" lon="10.7084254"><ele>129.0</ele><time>2026-03-28T14:26:19.536Z</time></trkpt><trkpt lat="44.5881412" lon="10.7083907"><ele>128.0</ele><time>2026-03-28T14:26:20.544Z</time></trkpt><trkpt lat="44.5882593" lon="10.7083457"><ele>127.0</ele><time>2026-03-28T14:26:21.544Z</time></trkpt><trkpt lat="44.5883786" lon="10.7083034"><ele>126.0</ele><time>2026-03-28T14:26:22.536Z</time></trkpt><trkpt lat="44.5884987" lon="10.7082587"><ele>125.0</ele><time>2026-03-28T14:26:23.532Z</time></trkpt><trkpt lat="44.5886109" lon="10.7082189"><ele>124.6</ele><time>2026-03-28T14:26:24.536Z</time></trkpt><trkpt lat="44.5887184" lon="10.7081774"><ele>124.2</ele><time>2026-03-28T14:26:25.539Z</time></trkpt><trkpt lat="44.5888197" lon="10.7081482"><ele>123.80000000000001</ele><time>2026-03-28T14:26:26.542Z</time></trkpt><trkpt lat="44.5889078" lon="10.7081254"><ele>123.4</ele><time>2026-03-28T14:26:27.529Z</time></trkpt><trkpt lat="44.5889825" lon="10.7081108"><ele>123.0</ele><time>2026-03-28T14:26:28.545Z</time></trkpt><trkpt lat="44.5890537" lon="10.7080762"><ele>123.0</ele><time>2026-03-28T14:26:29.539Z</time></trkpt><trkpt lat="44.5891403" lon="10.7080521"><ele>123.00000000000001</ele><time>2026-03-28T14:26:30.543Z</time></trkpt><trkpt lat="44.5892272" lon="10.7080175"><ele>123.00000000000001</ele><time>2026-03-28T14:26:31.544Z</time></trkpt><trkpt lat="44.5893308" lon="10.7079902"><ele>123.0</ele><time>2026-03-28T14:26:32.538Z</time></trkpt><trkpt lat="44.5894298" lon="10.7079503"><ele>123.0</ele><time>2026-03-28T14:26:33.549Z</time></trkpt><trkpt lat="44.5895386" lon="10.7079022"><ele>122.80000000000001</ele><time>2026-03-28T14:26:34.538Z</time></trkpt><trkpt lat="44.5896362" lon="10.707841"><ele>122.60000000000001</ele><time>2026-03-28T14:26:35.543Z</time></trkpt><trkpt lat="44.5897318" lon="10.7077699"><ele>122.39999999999999</ele><time>2026-03-28T14:26:36.532Z</time></trkpt><trkpt lat="44.5898109" lon="10.7076802"><ele>122.19999999999999</ele><time>2026-03-28T14:26:37.531Z</time></trkpt><trkpt lat="44.5898768" lon="10.7075704"><ele>122.0</ele><time>2026-03-28T14:26:38.526Z</time></trkpt><trkpt lat="44.5899449" lon="10.707449"><ele>121.8</ele><time>2026-03-28T14:26:39.523Z</time></trkpt><trkpt lat="44.5900161" lon="10.7073264"><ele>121.6</ele><time>2026-03-28T14:26:40.524Z</time></trkpt><trkpt lat="44.5900819" lon="10.7071993"><ele>121.39999999999999</ele><time>2026-03-28T14:26:41.515Z</time></trkpt><trkpt lat="44.5901426" lon="10.7070769"><ele>121.19999999999999</ele><time>2026-03-28T14:26:42.513Z</time></trkpt><trkpt lat="44.5902033" lon="10.7069671"><ele>121.0</ele><time>2026-03-28T14:26:43.517Z</time></trkpt><trkpt lat="44.5902807" lon="10.7068299"><ele>117.25</ele><time>2026-03-28T14:26:44.518Z</time></trkpt><trkpt lat="44.5903643" lon="10.7066895"><ele>113.5</ele><time>2026-03-28T14:26:45.522Z</time></trkpt><trkpt lat="44.5904453" lon="10.7065495"><ele>109.75</ele><time>2026-03-28T14:26:46.52Z</time></trkpt><trkpt lat="44.5905428" lon="10.7063929"><ele>106.0</ele><time>2026-03-28T14:26:47.531Z</time></trkpt><trkpt lat="44.5906532" lon="10.7062317"><ele>105.33333333333334</ele><time>2026-03-28T14:26:48.526Z</time></trkpt><trkpt lat="44.5907637" lon="10.7060721"><ele>104.66666666666666</ele><time>2026-03-28T14:26:49.531Z</time></trkpt><trkpt lat="44.5908579" lon="10.7059152"><ele>104.0</ele><time>2026-03-28T14:26:50.53Z</time></trkpt><trkpt lat="44.5909513" lon="10.7057448"><ele>104.0</ele><time>2026-03-28T14:26:51.531Z</time></trkpt><trkpt lat="44.5910481" lon="10.70559"><ele>104.0</ele><time>2026-03-28T14:26:52.541Z</time></trkpt><trkpt lat="44.5911257" lon="10.7054489"><ele>104.0</ele><time>2026-03-28T14:26:53.53Z</time></trkpt><trkpt lat="44.5911826" lon="10.7053162"><ele>104.0</ele><time>2026-03-28T14:26:54.522Z</time></trkpt><trkpt lat="44.5912403" lon="10.7052027"><ele>103.2</ele><time>2026-03-28T14:26:55.523Z</time></trkpt><trkpt lat="44.5913026" lon="10.7051294"><ele>102.4</ele><time>2026-03-28T14:26:56.54Z</time></trkpt><trkpt lat="44.5913553" lon="10.7050454"><ele>101.6</ele><time>2026-03-28T14:26:57.532Z</time></trkpt><trkpt lat="44.5914137" lon="10.7049481"><ele>100.8</ele><time>2026-03-28T14:26:58.533Z</time></trkpt><trkpt lat="44.5914773" lon="10.704851"><ele>100.0</ele><time>2026-03-28T14:26:59.533Z</time></trkpt><trkpt lat="44.5915464" lon="10.7047361"><ele>100.0</ele><time>2026-03-28T14:27:00.534Z</time></trkpt><trkpt lat="44.5916165" lon="10.7046274"><ele>100.0</ele><time>2026-03-28T14:27:01.532Z</time></trkpt><trkpt lat="44.5916834" lon="10.7045187"><ele>100.0</ele><time>2026-03-28T14:27:02.537Z</time></trkpt><trkpt lat="44.5917628" lon="10.7044155"><ele>100.0</ele><time>2026-03-28T14:27:03.542Z</time></trkpt><trkpt lat="44.5918406" lon="10.7043231"><ele>100.0</ele><time>2026-03-28T14:27:04.538Z</time></trkpt><trkpt lat="44.5919206" lon="10.7042458"><ele>99.50000000000001</ele><time>2026-03-28T14:27:05.541Z</time></trkpt><trkpt lat="44.5919984" lon="10.7041762"><ele>99.0</ele><time>2026-03-28T14:27:06.537Z</time></trkpt><trkpt lat="44.5920716" lon="10.704118"><ele>98.5</ele><time>2026-03-28T14:27:07.537Z</time></trkpt><trkpt lat="44.5921406" lon="10.7040717"><ele>98.0</ele><time>2026-03-28T14:27:08.534Z</time></trkpt><trkpt lat="44.5922203" lon="10.7040291"><ele>97.50000000000001</ele><time>2026-03-28T14:27:09.535Z</time></trkpt><trkpt lat="44.5923044" lon="10.7040269"><ele>97.0</ele><time>2026-03-28T14:27:10.541Z</time></trkpt><trkpt lat="44.5923981" lon="10.7040586"><ele>96.8</ele><time>2026-03-28T14:27:11.522Z</time></trkpt><trkpt lat="44.5924902" lon="10.7041096"><ele>96.6</ele><time>2026-03-28T14:27:12.531Z</time></trkpt><trkpt lat="44.59259" lon="10.7041544"><ele>96.39999999999999</ele><time>2026-03-28T14:27:13.52Z</time></trkpt><trkpt lat="44.5926906" lon="10.704165"><ele>96.19999999999999</ele><time>2026-03-28T14:27:14.518Z</time></trkpt><trkpt lat="44.5927833" lon="10.7041341"><ele>96.0</ele><time>2026-03-28T14:27:15.536Z</time></trkpt><trkpt lat="44.5928595" lon="10.7040477"><ele>96.0</ele><time>2026-03-28T14:27:16.534Z</time></trkpt><trkpt lat="44.592911" lon="10.7039195"><ele>96.0</ele><time>2026-03-28T14:27:17.529Z</time></trkpt><trkpt lat="44.5929343" lon="10.7037831"><ele>96.0</ele><time>2026-03-28T14:27:18.523Z</time></trkpt><trkpt lat="44.5929235" lon="10.7036395"><ele>96.0</ele><time>2026-03-28T14:27:19.53Z</time></trkpt><trkpt lat="44.5928716" lon="10.7035058"><ele>96.0</ele><time>2026-03-28T14:27:20.523Z</time></trkpt><trkpt lat="44.5928011" lon="10.7033976"><ele>96.4</ele><time>2026-03-28T14:27:21.53Z</time></trkpt><trkpt lat="44.5927194" lon="10.7033232"><ele>96.8</ele><time>2026-03-28T14:27:22.527Z</time></trkpt><trkpt lat="44.5926199" lon="10.7032797"><ele>97.2</ele><time>2026-03-28T14:27:23.534Z</time></trkpt><trkpt lat="44.5925232" lon="10.7032397"><ele>97.60000000000001</ele><time>2026-03-28T14:27:24.521Z</time></trkpt><trkpt lat="44.5924425" lon="10.7031742"><ele>98.0</ele><time>2026-03-28T14:27:25.534Z</time></trkpt><trkpt lat="44.5923813" lon="10.703069"><ele>98.0</ele><time>2026-03-28T14:27:26.526Z</time></trkpt><trkpt lat="44.5923239" lon="10.7029324"><ele>98.0</ele><time>2026-03-28T14:27:27.527Z</time></trkpt><trkpt lat="44.592271" lon="10.7027819"><ele>98.0</ele><time>2026-03-28T14:27:28.532Z</time></trkpt><trkpt lat="44.5922282" lon="10.7026028"><ele>98.0</ele><time>2026-03-28T14:27:29.53Z</time></trkpt><trkpt lat="44.5921843" lon="10.7024296"><ele>98.25</ele><time>2026-03-28T14:27:30.526Z</time></trkpt><trkpt lat="44.5921385" lon="10.7022622"><ele>98.5</ele><time>2026-03-28T14:27:31.531Z</time></trkpt><trkpt lat="44.5920946" lon="10.7020956"><ele>98.75</ele><time>2026-03-28T14:27:32.531Z</time></trkpt><trkpt lat="44.5920425" lon="10.7019212"><ele>99.0</ele><time>2026-03-28T14:27:33.537Z</time></trkpt><trkpt lat="44.5919876" lon="10.701738"><ele>99.33333333333334</ele><time>2026-03-28T14:27:34.525Z</time></trkpt><trkpt lat="44.5919349" lon="10.701548"><ele>99.66666666666667</ele><time>2026-03-28T14:27:35.525Z</time></trkpt><trkpt lat="44.5918772" lon="10.7013435"><ele>100.0</ele><time>2026-03-28T14:27:36.53Z</time></trkpt><trkpt lat="44.5918189" lon="10.7011443"><ele>100.25</ele><time>2026-03-28T14:27:37.524Z</time></trkpt><trkpt lat="44.5917688" lon="10.7009697"><ele>100.5</ele><time>2026-03-28T14:27:38.529Z</time></trkpt><trkpt lat="44.5917242" lon="10.7007887"><ele>100.75</ele><time>2026-03-28T14:27:39.533Z</time></trkpt><trkpt lat="44.5916869" lon="10.7005956"><ele>101.0</ele><time>2026-03-28T14:27:40.526Z</time></trkpt><trkpt lat="44.5916476" lon="10.7003999"><ele>101.33333333333333</ele><time>2026-03-28T14:27:41.539Z</time></trkpt><trkpt lat="44.5916031" lon="10.7001812"><ele>101.66666666666666</ele><time>2026-03-28T14:27:42.527Z</time></trkpt><trkpt lat="44.591553" lon="10.6999574"><ele>102.0</ele><time>2026-03-28T14:27:43.529Z</time></trkpt><trkpt lat="44.5915111" lon="10.699742"><ele>102.0</ele><time>2026-03-28T14:27:44.535Z</time></trkpt><trkpt lat="44.5914828" lon="10.6995427"><ele>102.0</ele><time>2026-03-28T14:27:45.534Z</time></trkpt><trkpt lat="44.5914538" lon="10.6993293"><ele>102.0</ele><time>2026-03-28T14:27:46.535Z</time></trkpt><trkpt lat="44.5914192" lon="10.6991092"><ele>102.33333333333334</ele><time>2026-03-28T14:27:47.537Z</time></trkpt><trkpt lat="44.5913948" lon="10.698894"><ele>102.66666666666667</ele><time>2026-03-28T14:27:48.536Z</time></trkpt><trkpt lat="44.5913689" lon="10.698673"><ele>103.0</ele><time>2026-03-28T14:27:49.536Z</time></trkpt><trkpt lat="44.5913402" lon="10.6984367"><ele>103.66666666666667</ele><time>2026-03-28T14:27:50.543Z</time></trkpt><trkpt lat="44.5913388" lon="10.6982085"><ele>104.33333333333334</ele><time>2026-03-28T14:27:51.538Z</time></trkpt><trkpt lat="44.5913245" lon="10.697967"><ele>105.0</ele><time>2026-03-28T14:27:52.532Z</time></trkpt><trkpt lat="44.5913087" lon="10.6977188"><ele>105.33333333333334</ele><time>2026-03-28T14:27:53.532Z</time></trkpt><trkpt lat="44.5913043" lon="10.6974687"><ele>105.66666666666667</ele><time>2026-03-28T14:27:54.536Z</time></trkpt><trkpt lat="44.5913093" lon="10.697206"><ele>106.0</ele><time>2026-03-28T14:27:55.533Z</time></trkpt><trkpt lat="44.5913086" lon="10.6969536"><ele>106.0</ele><time>2026-03-28T14:27:56.535Z</time></trkpt><trkpt lat="44.591305" lon="10.6966925"><ele>106.0</ele><time>2026-03-28T14:27:57.538Z</time></trkpt><trkpt lat="44.591313" lon="10.6964452"><ele>106.0</ele><time>2026-03-28T14:27:58.533Z</time></trkpt><trkpt lat="44.59131" lon="10.6961872"><ele>106.0</ele><time>2026-03-28T14:27:59.532Z</time></trkpt><trkpt lat="44.5913159" lon="10.6959428"><ele>106.0</ele><time>2026-03-28T14:28:00.54Z</time></trkpt><trkpt lat="44.5913093" lon="10.6956965"><ele>106.0</ele><time>2026-03-28T14:28:01.544Z</time></trkpt><trkpt lat="44.5912933" lon="10.6954309"><ele>106.0</ele><time>2026-03-28T14:28:02.542Z</time></trkpt><trkpt lat="44.5912946" lon="10.6951789"><ele>106.0</ele><time>2026-03-28T14:28:03.56Z</time></trkpt><trkpt lat="44.5913031" lon="10.694929"><ele>106.0</ele><time>2026-03-28T14:28:04.558Z</time></trkpt><trkpt lat="44.5913148" lon="10.6946813"><ele>106.66666666666667</ele><time>2026-03-28T14:28:05.542Z</time></trkpt><trkpt lat="44.5913138" lon="10.6944134"><ele>107.33333333333334</ele><time>2026-03-28T14:28:06.552Z</time></trkpt><trkpt lat="44.5913008" lon="10.6941501"><ele>108.0</ele><time>2026-03-28T14:28:07.559Z</time></trkpt><trkpt lat="44.5912794" lon="10.6938904"><ele>108.0</ele><time>2026-03-28T14:28:08.552Z</time></trkpt><trkpt lat="44.591291" lon="10.6936418"><ele>108.0</ele><time>2026-03-28T14:28:09.551Z</time></trkpt><trkpt lat="44.5912918" lon="10.693372"><ele>108.0</ele><time>2026-03-28T14:28:10.557Z</time></trkpt><trkpt lat="44.5912861" lon="10.6931094"><ele>108.33333333333334</ele><time>2026-03-28T14:28:11.537Z</time></trkpt><trkpt lat="44.591291" lon="10.6928603"><ele>108.66666666666667</ele><time>2026-03-28T14:28:12.539Z</time></trkpt><trkpt lat="44.5912936" lon="10.6925996"><ele>109.0</ele><time>2026-03-28T14:28:13.535Z</time></trkpt><trkpt lat="44.5912884" lon="10.6923283"><ele>109.0</ele><time>2026-03-28T14:28:14.543Z</time></trkpt><trkpt lat="44.5912944" lon="10.6920659"><ele>109.0</ele><time>2026-03-28T14:28:15.536Z</time></trkpt><trkpt lat="44.5912963" lon="10.6918198"><ele>109.0</ele><time>2026-03-28T14:28:16.538Z</time></trkpt><trkpt lat="44.5912938" lon="10.6915554"><ele>109.0</ele><time>2026-03-28T14:28:17.537Z</time></trkpt><trkpt lat="44.5912911" lon="10.6913024"><ele>109.0</ele><time>2026-03-28T14:28:18.54Z</time></trkpt><trkpt lat="44.5912939" lon="10.6910629"><ele>109.0</ele><time>2026-03-28T14:28:19.534Z</time></trkpt><trkpt lat="44.5912873" lon="10.6908139"><ele>109.66666666666667</ele><time>2026-03-28T14:28:20.532Z</time></trkpt><trkpt lat="44.5912901" lon="10.6905777"><ele>110.33333333333334</ele><time>2026-03-28T14:28:21.549Z</time></trkpt><trkpt lat="44.5912844" lon="10.6903448"><ele>111.0</ele><time>2026-03-28T14:28:22.537Z</time></trkpt><trkpt lat="44.5912902" lon="10.6901126"><ele>111.0</ele><time>2026-03-28T14:28:23.537Z</time></trkpt><trkpt lat="44.591283" lon="10.6898544"><ele>111.0</ele><time>2026-03-28T14:28:24.537Z</time></trkpt><trkpt lat="44.5912699" lon="10.6895944"><ele>111.0</ele><time>2026-03-28T14:28:25.545Z</time></trkpt><trkpt lat="44.5912547" lon="10.6893165"><ele>111.66666666666666</ele><time>2026-03-28T14:28:26.534Z</time></trkpt><trkpt lat="44.5912519" lon="10.6890457"><ele>112.33333333333333</ele><time>2026-03-28T14:28:27.534Z</time></trkpt><trkpt lat="44.59124" lon="10.6887697"><ele>113.0</ele><time>2026-03-28T14:28:28.533Z</time></trkpt><trkpt lat="44.5912312" lon="10.6884836"><ele>113.66666666666666</ele><time>2026-03-28T14:28:29.538Z</time></trkpt><trkpt lat="44.5912311" lon="10.68821"><ele>114.33333333333334</ele><time>2026-03-28T14:28:30.53Z</time></trkpt><trkpt lat="44.5912243" lon="10.6879321"><ele>115.0</ele><time>2026-03-28T14:28:31.521Z</time></trkpt><trkpt lat="44.5912162" lon="10.6876734"><ele>115.0</ele><time>2026-03-28T14:28:32.531Z</time></trkpt><trkpt lat="44.5912175" lon="10.6874241"><ele>115.0</ele><time>2026-03-28T14:28:33.533Z</time></trkpt><trkpt lat="44.5912179" lon="10.6871742"><ele>115.0</ele><time>2026-03-28T14:28:34.524Z</time></trkpt><trkpt lat="44.5912414" lon="10.6869182"><ele>115.0</ele><time>2026-03-28T14:28:35.523Z</time></trkpt><trkpt lat="44.5912955" lon="10.6866784"><ele>115.0</ele><time>2026-03-28T14:28:36.52Z</time></trkpt><trkpt lat="44.5913253" lon="10.6864456"><ele>115.0</ele><time>2026-03-28T14:28:37.521Z</time></trkpt><trkpt lat="44.5913549" lon="10.6862086"><ele>114.0</ele><time>2026-03-28T14:28:38.529Z</time></trkpt><trkpt lat="44.5913633" lon="10.6859553"><ele>113.0</ele><time>2026-03-28T14:28:39.523Z</time></trkpt><trkpt lat="44.5914105" lon="10.6857426"><ele>112.0</ele><time>2026-03-28T14:28:40.523Z</time></trkpt><trkpt lat="44.5914717" lon="10.685539"><ele>112.0</ele><time>2026-03-28T14:28:41.513Z</time></trkpt><trkpt lat="44.5915137" lon="10.6853259"><ele>112.0</ele><time>2026-03-28T14:28:42.524Z</time></trkpt><trkpt lat="44.5915698" lon="10.6851232"><ele>112.0</ele><time>2026-03-28T14:28:43.524Z</time></trkpt><trkpt lat="44.5916437" lon="10.6849421"><ele>112.33333333333334</ele><time>2026-03-28T14:28:44.513Z</time></trkpt><trkpt lat="44.5917188" lon="10.684743"><ele>112.66666666666666</ele><time>2026-03-28T14:28:45.522Z</time></trkpt><trkpt lat="44.5918006" lon="10.6845502"><ele>113.0</ele><time>2026-03-28T14:28:46.509Z</time></trkpt><trkpt lat="44.5918663" lon="10.6843465"><ele>113.0</ele><time>2026-03-28T14:28:47.511Z</time></trkpt><trkpt lat="44.5919451" lon="10.6841652"><ele>113.0</ele><time>2026-03-28T14:28:48.518Z</time></trkpt><trkpt lat="44.5920506" lon="10.6840093"><ele>113.0</ele><time>2026-03-28T14:28:49.506Z</time></trkpt><trkpt lat="44.5921382" lon="10.6838171"><ele>112.33333333333333</ele><time>2026-03-28T14:28:50.514Z</time></trkpt><trkpt lat="44.5922319" lon="10.6836438"><ele>111.66666666666666</ele><time>2026-03-28T14:28:51.511Z</time></trkpt><trkpt lat="44.5923116" lon="10.6834518"><ele>111.0</ele><time>2026-03-28T14:28:52.525Z</time></trkpt><trkpt lat="44.5924054" lon="10.6832688"><ele>110.0</ele><time>2026-03-28T14:28:53.515Z</time></trkpt><trkpt lat="44.5924955" lon="10.6830819"><ele>109.0</ele><time>2026-03-28T14:28:54.517Z</time></trkpt><trkpt lat="44.5925997" lon="10.682916"><ele>108.0</ele><time>2026-03-28T14:28:55.518Z</time></trkpt><trkpt lat="44.5926991" lon="10.6827473"><ele>108.0</ele><time>2026-03-28T14:28:56.531Z</time></trkpt><trkpt lat="44.5927779" lon="10.682572"><ele>108.0</ele><time>2026-03-28T14:28:57.513Z</time></trkpt><trkpt lat="44.5928574" lon="10.6823796"><ele>108.0</ele><time>2026-03-28T14:28:58.52Z</time></trkpt><trkpt lat="44.5929443" lon="10.6821886"><ele>107.0</ele><time>2026-03-28T14:28:59.512Z</time></trkpt><trkpt lat="44.5930218" lon="10.6820014"><ele>106.0</ele><time>2026-03-28T14:29:00.52Z</time></trkpt><trkpt lat="44.593104" lon="10.6818154"><ele>105.0</ele><time>2026-03-28T14:29:01.519Z</time></trkpt><trkpt lat="44.5931951" lon="10.6816555"><ele>104.25</ele><time>2026-03-28T14:29:02.517Z</time></trkpt><trkpt lat="44.5932856" lon="10.6814861"><ele>103.5</ele><time>2026-03-28T14:29:03.522Z</time></trkpt><trkpt lat="44.5933602" lon="10.6813057"><ele>102.75</ele><time>2026-03-28T14:29:04.516Z</time></trkpt><trkpt lat="44.5934425" lon="10.6811401"><ele>102.0</ele><time>2026-03-28T14:29:05.523Z</time></trkpt><trkpt lat="44.5934928" lon="10.6809644"><ele>101.75</ele><time>2026-03-28T14:29:06.518Z</time></trkpt><trkpt lat="44.5935298" lon="10.680787"><ele>101.5</ele><time>2026-03-28T14:29:07.524Z</time></trkpt><trkpt lat="44.593552" lon="10.6806131"><ele>101.25</ele><time>2026-03-28T14:29:08.526Z</time></trkpt><trkpt lat="44.5935842" lon="10.6804289"><ele>101.0</ele><time>2026-03-28T14:29:09.53Z</time></trkpt><trkpt lat="44.5936268" lon="10.6802637"><ele>101.0</ele><time>2026-03-28T14:29:10.524Z</time></trkpt><trkpt lat="44.5936695" lon="10.6801101"><ele>101.0</ele><time>2026-03-28T14:29:11.518Z</time></trkpt><trkpt lat="44.593723" lon="10.6799787"><ele>101.0</ele><time>2026-03-28T14:29:12.53Z</time></trkpt><trkpt lat="44.593776" lon="10.679872"><ele>101.0</ele><time>2026-03-28T14:29:13.529Z</time></trkpt><trkpt lat="44.593824" lon="10.6797741"><ele>101.0</ele><time>2026-03-28T14:29:14.534Z</time></trkpt><trkpt lat="44.5938698" lon="10.6796926"><ele>100.8</ele><time>2026-03-28T14:29:15.523Z</time></trkpt><trkpt lat="44.5939183" lon="10.6796201"><ele>100.6</ele><time>2026-03-28T14:29:16.526Z</time></trkpt><trkpt lat="44.5940505" lon="10.679522"><ele>100.4</ele><time>2026-03-28T14:29:18.524Z</time></trkpt><trkpt lat="44.5941499" lon="10.6794809"><ele>100.2</ele><time>2026-03-28T14:29:19.525Z</time></trkpt><trkpt lat="44.5942469" lon="10.6794323"><ele>100.0</ele><time>2026-03-28T14:29:20.526Z</time></trkpt><trkpt lat="44.5943341" lon="10.6793601"><ele>100.0</ele><time>2026-03-28T14:29:21.537Z</time></trkpt><trkpt lat="44.5944019" lon="10.6792448"><ele>100.0</ele><time>2026-03-28T14:29:22.526Z</time></trkpt><trkpt lat="44.5944465" lon="10.6791008"><ele>100.0</ele><time>2026-03-28T14:29:23.532Z</time></trkpt><trkpt lat="44.5944301" lon="10.6789498"><ele>100.0</ele><time>2026-03-28T14:29:24.543Z</time></trkpt><trkpt lat="44.5943762" lon="10.6788069"><ele>100.0</ele><time>2026-03-28T14:29:25.536Z</time></trkpt><trkpt lat="44.5942957" lon="10.6787013"><ele>100.0</ele><time>2026-03-28T14:29:26.54Z</time></trkpt><trkpt lat="44.5942121" lon="10.6786371"><ele>100.0</ele><time>2026-03-28T14:29:27.543Z</time></trkpt><trkpt lat="44.5941188" lon="10.6786122"><ele>100.0</ele><time>2026-03-28T14:29:28.537Z</time></trkpt><trkpt lat="44.5940206" lon="10.6786554"><ele>100.0</ele><time>2026-03-28T14:29:29.537Z</time></trkpt><trkpt lat="44.5939259" lon="10.6787375"><ele>100.0</ele><time>2026-03-28T14:29:30.53Z</time></trkpt><trkpt lat="44.5938362" lon="10.6788389"><ele>100.0</ele><time>2026-03-28T14:29:31.545Z</time></trkpt><trkpt lat="44.5937377" lon="10.6789271"><ele>100.0</ele><time>2026-03-28T14:29:32.539Z</time></trkpt><trkpt lat="44.5936379" lon="10.6789884"><ele>100.0</ele><time>2026-03-28T14:29:33.545Z</time></trkpt><trkpt lat="44.593516" lon="10.6790265"><ele>100.0</ele><time>2026-03-28T14:29:34.526Z</time></trkpt><trkpt lat="44.5933869" lon="10.6790591"><ele>100.25</ele><time>2026-03-28T14:29:35.534Z</time></trkpt><trkpt lat="44.5932489" lon="10.6791179"><ele>100.5</ele><time>2026-03-28T14:29:36.54Z</time></trkpt><trkpt lat="44.5931121" lon="10.6792022"><ele>100.75</ele><time>2026-03-28T14:29:37.517Z</time></trkpt><trkpt lat="44.593004" lon="10.6793533"><ele>101.0</ele><time>2026-03-28T14:29:38.54Z</time></trkpt><trkpt lat="44.5929259" lon="10.6795237"><ele>101.0</ele><time>2026-03-28T14:29:39.529Z</time></trkpt><trkpt lat="44.5928532" lon="10.679653"><ele>101.0</ele><time>2026-03-28T14:29:40.521Z</time></trkpt><trkpt lat="44.5927737" lon="10.6797033"><ele>101.0</ele><time>2026-03-28T14:29:41.524Z</time></trkpt><trkpt lat="44.5927052" lon="10.6797062"><ele>101.0</ele><time>2026-03-28T14:29:42.531Z</time></trkpt><trkpt lat="44.5926195" lon="10.6795697"><ele>101.0</ele><time>2026-03-28T14:29:44.539Z</time></trkpt><trkpt lat="44.5926097" lon="10.6794567"><ele>101.5</ele><time>2026-03-28T14:29:45.51Z</time></trkpt><trkpt lat="44.592621" lon="10.6793299"><ele>102.0</ele><time>2026-03-28T14:29:46.528Z</time></trkpt><trkpt lat="44.5926642" lon="10.6791868"><ele>102.5</ele><time>2026-03-28T14:29:47.523Z</time></trkpt><trkpt lat="44.5927013" lon="10.6790189"><ele>103.0</ele><time>2026-03-28T14:29:48.53Z</time></trkpt><trkpt lat="44.5927316" lon="10.678829"><ele>103.0</ele><time>2026-03-28T14:29:49.53Z</time></trkpt><trkpt lat="44.5927375" lon="10.6786226"><ele>103.0</ele><time>2026-03-28T14:29:50.527Z</time></trkpt><trkpt lat="44.5927008" lon="10.6783963"><ele>103.0</ele><time>2026-03-28T14:29:51.534Z</time></trkpt><trkpt lat="44.5926555" lon="10.6781841"><ele>102.33333333333334</ele><time>2026-03-28T14:29:52.53Z</time></trkpt><trkpt lat="44.5925834" lon="10.6779484"><ele>101.66666666666666</ele><time>2026-03-28T14:29:53.527Z</time></trkpt><trkpt lat="44.592519" lon="10.6777344"><ele>101.0</ele><time>2026-03-28T14:29:54.523Z</time></trkpt><trkpt lat="44.5924201" lon="10.6775378"><ele>100.33333333333333</ele><time>2026-03-28T14:29:55.525Z</time></trkpt><trkpt lat="44.5922992" lon="10.67736"><ele>99.66666666666666</ele><time>2026-03-28T14:29:56.523Z</time></trkpt><trkpt lat="44.5921619" lon="10.6772148"><ele>99.0</ele><time>2026-03-28T14:29:57.525Z</time></trkpt><trkpt lat="44.5920087" lon="10.6770898"><ele>99.66666666666666</ele><time>2026-03-28T14:29:58.542Z</time></trkpt><trkpt lat="44.5918772" lon="10.6769552"><ele>100.33333333333333</ele><time>2026-03-28T14:29:59.529Z</time></trkpt><trkpt lat="44.591748" lon="10.6768252"><ele>101.0</ele><time>2026-03-28T14:30:00.539Z</time></trkpt><trkpt lat="44.59163" lon="10.6767089"><ele>101.0</ele><time>2026-03-28T14:30:01.535Z</time></trkpt><trkpt lat="44.5915172" lon="10.6766058"><ele>101.0</ele><time>2026-03-28T14:30:02.535Z</time></trkpt><trkpt lat="44.5914035" lon="10.6764987"><ele>101.0</ele><time>2026-03-28T14:30:03.543Z</time></trkpt><trkpt lat="44.5913089" lon="10.6763929"><ele>101.0</ele><time>2026-03-28T14:30:04.533Z</time></trkpt><trkpt lat="44.5911968" lon="10.67626"><ele>101.0</ele><time>2026-03-28T14:30:05.528Z</time></trkpt><trkpt lat="44.5910789" lon="10.6761509"><ele>101.0</ele><time>2026-03-28T14:30:06.537Z</time></trkpt><trkpt lat="44.5909702" lon="10.6760331"><ele>101.0</ele><time>2026-03-28T14:30:07.535Z</time></trkpt><trkpt lat="44.5908795" lon="10.6759205"><ele>101.0</ele><time>2026-03-28T14:30:08.531Z</time></trkpt><trkpt lat="44.5907953" lon="10.6758237"><ele>101.25</ele><time>2026-03-28T14:30:09.534Z</time></trkpt><trkpt lat="44.5907202" lon="10.6757038"><ele>101.5</ele><time>2026-03-28T14:30:10.53Z</time></trkpt><trkpt lat="44.5906363" lon="10.6755846"><ele>101.75</ele><time>2026-03-28T14:30:11.539Z</time></trkpt><trkpt lat="44.5905452" lon="10.6754515"><ele>102.0</ele><time>2026-03-28T14:30:12.532Z</time></trkpt><trkpt lat="44.5904692" lon="10.6753428"><ele>101.8</ele><time>2026-03-28T14:30:13.54Z</time></trkpt><trkpt lat="44.5903961" lon="10.6752337"><ele>101.6</ele><time>2026-03-28T14:30:14.532Z</time></trkpt><trkpt lat="44.5903243" lon="10.6751365"><ele>101.39999999999999</ele><time>2026-03-28T14:30:15.525Z</time></trkpt><trkpt lat="44.5902459" lon="10.6750612"><ele>101.19999999999999</ele><time>2026-03-28T14:30:16.536Z</time></trkpt><trkpt lat="44.5901435" lon="10.6750372"><ele>101.0</ele><time>2026-03-28T14:30:17.534Z</time></trkpt><trkpt lat="44.5900248" lon="10.675017"><ele>101.75</ele><time>2026-03-28T14:30:18.533Z</time></trkpt><trkpt lat="44.5899077" lon="10.6749891"><ele>102.5</ele><time>2026-03-28T14:30:19.533Z</time></trkpt><trkpt lat="44.589795" lon="10.674956"><ele>103.25</ele><time>2026-03-28T14:30:20.532Z</time></trkpt><trkpt lat="44.589675" lon="10.674917"><ele>104.0</ele><time>2026-03-28T14:30:21.53Z</time></trkpt><trkpt lat="44.5895552" lon="10.6748732"><ele>104.0</ele><time>2026-03-28T14:30:22.527Z</time></trkpt><trkpt lat="44.589426" lon="10.6748352"><ele>104.0</ele><time>2026-03-28T14:30:23.529Z</time></trkpt><trkpt lat="44.5892961" lon="10.674802"><ele>104.0</ele><time>2026-03-28T14:30:24.53Z</time></trkpt><trkpt lat="44.5891665" lon="10.6747604"><ele>104.0</ele><time>2026-03-28T14:30:25.525Z</time></trkpt><trkpt lat="44.5890383" lon="10.6747283"><ele>104.0</ele><time>2026-03-28T14:30:26.533Z</time></trkpt><trkpt lat="44.5889127" lon="10.6746988"><ele>104.0</ele><time>2026-03-28T14:30:27.527Z</time></trkpt><trkpt lat="44.5887945" lon="10.6746682"><ele>104.0</ele><time>2026-03-28T14:30:28.53Z</time></trkpt><trkpt lat="44.5886843" lon="10.6746253"><ele>104.0</ele><time>2026-03-28T14:30:29.523Z</time></trkpt><trkpt lat="44.5885718" lon="10.6745585"><ele>104.25</ele><time>2026-03-28T14:30:30.533Z</time></trkpt><trkpt lat="44.5884604" lon="10.6744549"><ele>104.5</ele><time>2026-03-28T14:30:31.526Z</time></trkpt><trkpt lat="44.5883584" lon="10.6743507"><ele>104.75</ele><time>2026-03-28T14:30:32.533Z</time></trkpt><trkpt lat="44.5882585" lon="10.6742646"><ele>105.0</ele><time>2026-03-28T14:30:33.539Z</time></trkpt><trkpt lat="44.5881573" lon="10.6741729"><ele>105.0</ele><time>2026-03-28T14:30:34.531Z</time></trkpt><trkpt lat="44.5880614" lon="10.6740948"><ele>105.0</ele><time>2026-03-28T14:30:35.53Z</time></trkpt><trkpt lat="44.5879691" lon="10.6740149"><ele>105.0</ele><time>2026-03-28T14:30:36.526Z</time></trkpt><trkpt lat="44.5878932" lon="10.6739486"><ele>105.0</ele><time>2026-03-28T14:30:37.534Z</time></trkpt><trkpt lat="44.5878303" lon="10.6738883"><ele>105.0</ele><time>2026-03-28T14:30:38.524Z</time></trkpt><trkpt lat="44.5877879" lon="10.6738207"><ele>105.0</ele><time>2026-03-28T14:30:39.514Z</time></trkpt><trkpt lat="44.5877682" lon="10.6737139"><ele>104.8</ele><time>2026-03-28T14:30:41.524Z</time></trkpt><trkpt lat="44.5878252" lon="10.6735125"><ele>104.6</ele><time>2026-03-28T14:30:43.522Z</time></trkpt><trkpt lat="44.5878701" lon="10.6733827"><ele>104.4</ele><time>2026-03-28T14:30:44.514Z</time></trkpt><trkpt lat="44.5879081" lon="10.6732445"><ele>104.2</ele><time>2026-03-28T14:30:45.516Z</time></trkpt><trkpt lat="44.5879393" lon="10.673133"><ele>104.0</ele><time>2026-03-28T14:30:46.521Z</time></trkpt><trkpt lat="44.5879719" lon="10.6730375"><ele>103.99999999999999</ele><time>2026-03-28T14:30:47.522Z</time></trkpt><trkpt lat="44.5879868" lon="10.6729015"><ele>104.0</ele><time>2026-03-28T14:30:49.535Z</time></trkpt><trkpt lat="44.5879237" lon="10.67283"><ele>104.0</ele><time>2026-03-28T14:30:52.546Z</time></trkpt><trkpt lat="44.5878581" lon="10.6728244"><ele>104.0</ele><time>2026-03-28T14:30:54.538Z</time></trkpt><trkpt lat="44.5878258" lon="10.6729152"><ele>103.99999999999999</ele><time>2026-03-28T14:30:58.536Z</time></trkpt><trkpt lat="44.5878032" lon="10.6730134"><ele>104.0</ele><time>2026-03-28T14:31:00.536Z</time></trkpt><trkpt lat="44.5877722" lon="10.6730991"><ele>104.2</ele><time>2026-03-28T14:31:20.54Z</time></trkpt><trkpt lat="44.5877743" lon="10.6732083"><ele>104.4</ele><time>2026-03-28T14:31:23.534Z</time></trkpt><trkpt lat="44.5877741" lon="10.6731157"><ele>104.6</ele><time>2026-03-28T14:31:32.53Z</time></trkpt><trkpt lat="44.5877937" lon="10.6729617"><ele>104.8</ele><time>2026-03-28T14:31:36.525Z</time></trkpt><trkpt lat="44.5877731" lon="10.6728145"><ele>105.0</ele><time>2026-03-28T14:31:40.523Z</time></trkpt><trkpt lat="44.5876788" lon="10.6727018"><ele>105.0</ele><time>2026-03-28T14:31:42.524Z</time></trkpt><trkpt lat="44.5876081" lon="10.6726673"><ele>105.0</ele><time>2026-03-28T14:31:43.529Z</time></trkpt><trkpt lat="44.5875241" lon="10.6726153"><ele>105.0</ele><time>2026-03-28T14:31:44.525Z</time></trkpt><trkpt lat="44.587447" lon="10.6725512"><ele>105.0</ele><time>2026-03-28T14:31:45.523Z</time></trkpt><trkpt lat="44.5873806" lon="10.672478"><ele>105.0</ele><time>2026-03-28T14:31:46.523Z</time></trkpt><trkpt lat="44.5873015" lon="10.6724212"><ele>105.0</ele><time>2026-03-28T14:31:47.528Z</time></trkpt><trkpt lat="44.5872216" lon="10.672367"><ele>105.0</ele><time>2026-03-28T14:31:48.525Z</time></trkpt><trkpt lat="44.5871389" lon="10.6723091"><ele>105.0</ele><time>2026-03-28T14:31:49.53Z</time></trkpt><trkpt lat="44.587048" lon="10.6722294"><ele>105.0</ele><time>2026-03-28T14:31:50.523Z</time></trkpt><trkpt lat="44.586952" lon="10.6721365"><ele>105.0</ele><time>2026-03-28T14:31:51.526Z</time></trkpt><trkpt lat="44.5868628" lon="10.6720298"><ele>105.0</ele><time>2026-03-28T14:31:52.527Z</time></trkpt><trkpt lat="44.5867772" lon="10.6719225"><ele>104.6</ele><time>2026-03-28T14:31:53.533Z</time></trkpt><trkpt lat="44.5866984" lon="10.6718126"><ele>104.2</ele><time>2026-03-28T14:31:54.533Z</time></trkpt><trkpt lat="44.5866182" lon="10.6717064"><ele>103.80000000000001</ele><time>2026-03-28T14:31:55.527Z</time></trkpt><trkpt lat="44.5865288" lon="10.671613"><ele>103.4</ele><time>2026-03-28T14:31:56.525Z</time></trkpt><trkpt lat="44.5864519" lon="10.6715333"><ele>103.0</ele><time>2026-03-28T14:31:57.533Z</time></trkpt><trkpt lat="44.5863919" lon="10.6714594"><ele>103.0</ele><time>2026-03-28T14:31:58.532Z</time></trkpt><trkpt lat="44.5863267" lon="10.6713882"><ele>103.0</ele><time>2026-03-28T14:31:59.531Z</time></trkpt><trkpt lat="44.5862548" lon="10.6713205"><ele>103.0</ele><time>2026-03-28T14:32:00.532Z</time></trkpt><trkpt lat="44.5861761" lon="10.6712565"><ele>103.0</ele><time>2026-03-28T14:32:01.534Z</time></trkpt><trkpt lat="44.5860877" lon="10.671184"><ele>103.0</ele><time>2026-03-28T14:32:02.528Z</time></trkpt><trkpt lat="44.5859919" lon="10.6711022"><ele>103.5</ele><time>2026-03-28T14:32:03.536Z</time></trkpt><trkpt lat="44.5858929" lon="10.6709991"><ele>104.0</ele><time>2026-03-28T14:32:04.524Z</time></trkpt><trkpt lat="44.5857855" lon="10.6708954"><ele>104.5</ele><time>2026-03-28T14:32:05.529Z</time></trkpt><trkpt lat="44.5856854" lon="10.6707922"><ele>105.0</ele><time>2026-03-28T14:32:06.526Z</time></trkpt><trkpt lat="44.5855995" lon="10.6707022"><ele>105.0</ele><time>2026-03-28T14:32:07.53Z</time></trkpt><trkpt lat="44.585516" lon="10.6706168"><ele>105.0</ele><time>2026-03-28T14:32:08.541Z</time></trkpt><trkpt lat="44.5854344" lon="10.6705289"><ele>105.0</ele><time>2026-03-28T14:32:09.535Z</time></trkpt><trkpt lat="44.585352" lon="10.6704494"><ele>105.0</ele><time>2026-03-28T14:32:10.532Z</time></trkpt><trkpt lat="44.5852753" lon="10.6703807"><ele>105.0</ele><time>2026-03-28T14:32:11.531Z</time></trkpt><trkpt lat="44.5852076" lon="10.670321"><ele>105.66666666666667</ele><time>2026-03-28T14:32:12.532Z</time></trkpt><trkpt lat="44.5851502" lon="10.6702651"><ele>106.33333333333334</ele><time>2026-03-28T14:32:13.528Z</time></trkpt><trkpt lat="44.5850492" lon="10.6701729"><ele>107.0</ele><time>2026-03-28T14:32:15.528Z</time></trkpt><trkpt lat="44.5849782" lon="10.670101"><ele>107.66666666666667</ele><time>2026-03-28T14:32:17.534Z</time></trkpt><trkpt lat="44.5849158" lon="10.6700404"><ele>108.33333333333334</ele><time>2026-03-28T14:32:19.54Z</time></trkpt><trkpt lat="44.584844" lon="10.6699644"><ele>109.0</ele><time>2026-03-28T14:32:21.532Z</time></trkpt><trkpt lat="44.5847716" lon="10.6698923"><ele>109.0</ele><time>2026-03-28T14:32:23.535Z</time></trkpt><trkpt lat="44.5847034" lon="10.6698055"><ele>109.0</ele><time>2026-03-28T14:32:25.543Z</time></trkpt><trkpt lat="44.5846526" lon="10.6697447"><ele>109.0</ele><time>2026-03-28T14:32:27.537Z</time></trkpt><trkpt lat="44.5845892" lon="10.6696745"><ele>109.0</ele><time>2026-03-28T14:32:29.533Z</time></trkpt><trkpt lat="44.584542" lon="10.6696155"><ele>109.0</ele><time>2026-03-28T14:32:30.537Z</time></trkpt><trkpt lat="44.5844928" lon="10.6695499"><ele>109.0</ele><time>2026-03-28T14:32:31.532Z</time></trkpt><trkpt lat="44.5844405" lon="10.6694842"><ele>109.0</ele><time>2026-03-28T14:32:32.534Z</time></trkpt><trkpt lat="44.584377" lon="10.6694138"><ele>110.2</ele><time>2026-03-28T14:32:33.526Z</time></trkpt><trkpt lat="44.5842886" lon="10.6693439"><ele>111.4</ele><time>2026-03-28T14:32:34.527Z</time></trkpt><trkpt lat="44.5841913" lon="10.6692916"><ele>112.6</ele><time>2026-03-28T14:32:35.517Z</time></trkpt><trkpt lat="44.5840799" lon="10.6692683"><ele>113.8</ele><time>2026-03-28T14:32:36.533Z</time></trkpt><trkpt lat="44.5839519" lon="10.6692671"><ele>115.0</ele><time>2026-03-28T14:32:37.537Z</time></trkpt><trkpt lat="44.5838312" lon="10.6692581"><ele>115.0</ele><time>2026-03-28T14:32:38.533Z</time></trkpt><trkpt lat="44.5837082" lon="10.6692462"><ele>115.0</ele><time>2026-03-28T14:32:39.53Z</time></trkpt><trkpt lat="44.5835816" lon="10.6692218"><ele>115.0</ele><time>2026-03-28T14:32:40.537Z</time></trkpt><trkpt lat="44.5834655" lon="10.6692022"><ele>115.0</ele><time>2026-03-28T14:32:41.532Z</time></trkpt><trkpt lat="44.5833502" lon="10.669188"><ele>116.75</ele><time>2026-03-28T14:32:42.539Z</time></trkpt><trkpt lat="44.5832239" lon="10.6692118"><ele>118.5</ele><time>2026-03-28T14:32:43.527Z</time></trkpt><trkpt lat="44.5830952" lon="10.6692519"><ele>120.25</ele><time>2026-03-28T14:32:44.53Z</time></trkpt><trkpt lat="44.5829555" lon="10.6692904"><ele>122.0</ele><time>2026-03-28T14:32:45.539Z</time></trkpt><trkpt lat="44.5828146" lon="10.6693244"><ele>124.5</ele><time>2026-03-28T14:32:46.53Z</time></trkpt><trkpt lat="44.582684" lon="10.6693548"><ele>127.0</ele><time>2026-03-28T14:32:47.529Z</time></trkpt><trkpt lat="44.582563" lon="10.6693767"><ele>129.5</ele><time>2026-03-28T14:32:48.531Z</time></trkpt><trkpt lat="44.5824364" lon="10.6693677"><ele>132.0</ele><time>2026-03-28T14:32:49.532Z</time></trkpt><trkpt lat="44.5823007" lon="10.669344"><ele>132.0</ele><time>2026-03-28T14:32:50.532Z</time></trkpt><trkpt lat="44.5821628" lon="10.66931"><ele>132.0</ele><time>2026-03-28T14:32:51.536Z</time></trkpt><trkpt lat="44.5820297" lon="10.6692744"><ele>132.0</ele><time>2026-03-28T14:32:52.539Z</time></trkpt><trkpt lat="44.5818904" lon="10.6692465"><ele>132.0</ele><time>2026-03-28T14:32:53.532Z</time></trkpt><trkpt lat="44.5817552" lon="10.6692454"><ele>135.5</ele><time>2026-03-28T14:32:54.535Z</time></trkpt><trkpt lat="44.5816196" lon="10.6692316"><ele>139.0</ele><time>2026-03-28T14:32:55.531Z</time></trkpt><trkpt lat="44.5814946" lon="10.6692035"><ele>142.5</ele><time>2026-03-28T14:32:56.53Z</time></trkpt><trkpt lat="44.5813801" lon="10.6691908"><ele>146.0</ele><time>2026-03-28T14:32:57.525Z</time></trkpt><trkpt lat="44.5812967" lon="10.6691759"><ele>146.0</ele><time>2026-03-28T14:32:58.534Z</time></trkpt><trkpt lat="44.5812119" lon="10.6691808"><ele>146.0</ele><time>2026-03-28T14:32:59.531Z</time></trkpt><trkpt lat="44.5811365" lon="10.6692069"><ele>146.0</ele><time>2026-03-28T14:33:00.523Z</time></trkpt><trkpt lat="44.5810571" lon="10.6692846"><ele>146.0</ele><time>2026-03-28T14:33:01.524Z</time></trkpt><trkpt lat="44.5809564" lon="10.6693796"><ele>146.0</ele><time>2026-03-28T14:33:02.523Z</time></trkpt><trkpt lat="44.5808405" lon="10.6694585"><ele>149.0</ele><time>2026-03-28T14:33:03.531Z</time></trkpt><trkpt lat="44.5807186" lon="10.6695357"><ele>152.0</ele><time>2026-03-28T14:33:04.522Z</time></trkpt><trkpt lat="44.5805971" lon="10.6695991"><ele>155.0</ele><time>2026-03-28T14:33:05.519Z</time></trkpt><trkpt lat="44.5804848" lon="10.6696406"><ele>158.0</ele><time>2026-03-28T14:33:06.521Z</time></trkpt><trkpt lat="44.580372" lon="10.6696687"><ele>161.4</ele><time>2026-03-28T14:33:07.518Z</time></trkpt><trkpt lat="44.5802624" lon="10.6696711"><ele>164.8</ele><time>2026-03-28T14:33:08.519Z</time></trkpt><trkpt lat="44.580163" lon="10.6696378"><ele>168.2</ele><time>2026-03-28T14:33:09.524Z</time></trkpt><trkpt lat="44.5800793" lon="10.6695472"><ele>171.6</ele><time>2026-03-28T14:33:10.521Z</time></trkpt><trkpt lat="44.5800014" lon="10.6694151"><ele>175.0</ele><time>2026-03-28T14:33:11.531Z</time></trkpt><trkpt lat="44.5799415" lon="10.6692476"><ele>175.0</ele><time>2026-03-28T14:33:12.509Z</time></trkpt><trkpt lat="44.579895" lon="10.6690696"><ele>175.0</ele><time>2026-03-28T14:33:13.514Z</time></trkpt><trkpt lat="44.5798765" lon="10.6688792"><ele>175.0</ele><time>2026-03-28T14:33:14.52Z</time></trkpt><trkpt lat="44.579848" lon="10.6687206"><ele>175.0</ele><time>2026-03-28T14:33:15.517Z</time></trkpt><trkpt lat="44.5797709" lon="10.6685936"><ele>175.0</ele><time>2026-03-28T14:33:16.522Z</time></trkpt><trkpt lat="44.5796727" lon="10.6684937"><ele>175.0</ele><time>2026-03-28T14:33:17.512Z</time></trkpt><trkpt lat="44.5795758" lon="10.668378"><ele>175.0</ele><time>2026-03-28T14:33:18.509Z</time></trkpt><trkpt lat="44.5794666" lon="10.6682855"><ele>175.0</ele><time>2026-03-28T14:33:19.523Z</time></trkpt><trkpt lat="44.5793504" lon="10.6682284"><ele>178.2</ele><time>2026-03-28T14:33:20.52Z</time></trkpt><trkpt lat="44.5792348" lon="10.6682208"><ele>181.4</ele><time>2026-03-28T14:33:21.523Z</time></trkpt><trkpt lat="44.579134" lon="10.6682342"><ele>184.60000000000002</ele><time>2026-03-28T14:33:22.512Z</time></trkpt><trkpt lat="44.5790506" lon="10.6682685"><ele>187.8</ele><time>2026-03-28T14:33:23.506Z</time></trkpt><trkpt lat="44.5789851" lon="10.6683254"><ele>191.0</ele><time>2026-03-28T14:33:24.529Z</time></trkpt><trkpt lat="44.5789741" lon="10.6684355"><ele>191.0</ele><time>2026-03-28T14:33:25.508Z</time></trkpt><trkpt lat="44.5789871" lon="10.6685594"><ele>191.0</ele><time>2026-03-28T14:33:26.516Z</time></trkpt><trkpt lat="44.5790217" lon="10.6686945"><ele>191.0</ele><time>2026-03-28T14:33:27.509Z</time></trkpt><trkpt lat="44.5790624" lon="10.6688292"><ele>191.0</ele><time>2026-03-28T14:33:28.505Z</time></trkpt><trkpt lat="44.579072" lon="10.6689522"><ele>191.0</ele><time>2026-03-28T14:33:29.507Z</time></trkpt><trkpt lat="44.5790606" lon="10.6690834"><ele>191.75</ele><time>2026-03-28T14:33:30.512Z</time></trkpt><trkpt lat="44.5790252" lon="10.6692265"><ele>192.5</ele><time>2026-03-28T14:33:31.515Z</time></trkpt><trkpt lat="44.5789761" lon="10.6693931"><ele>193.25</ele><time>2026-03-28T14:33:32.525Z</time></trkpt><trkpt lat="44.5789151" lon="10.6695718"><ele>194.0</ele><time>2026-03-28T14:33:33.526Z</time></trkpt><trkpt lat="44.5788494" lon="10.6697445"><ele>194.39999999999998</ele><time>2026-03-28T14:33:34.533Z</time></trkpt><trkpt lat="44.578786" lon="10.6698711"><ele>194.8</ele><time>2026-03-28T14:33:35.517Z</time></trkpt><trkpt lat="44.5787116" lon="10.6699669"><ele>195.2</ele><time>2026-03-28T14:33:36.529Z</time></trkpt><trkpt lat="44.5786407" lon="10.6700016"><ele>195.60000000000002</ele><time>2026-03-28T14:33:37.53Z</time></trkpt><trkpt lat="44.578562" lon="10.6699786"><ele>196.0</ele><time>2026-03-28T14:33:38.527Z</time></trkpt><trkpt lat="44.5784841" lon="10.6698816"><ele>200.25</ele><time>2026-03-28T14:33:39.522Z</time></trkpt><trkpt lat="44.5784112" lon="10.6697342"><ele>204.5</ele><time>2026-03-28T14:33:40.528Z</time></trkpt><trkpt lat="44.5783472" lon="10.6695488"><ele>208.75</ele><time>2026-03-28T14:33:41.512Z</time></trkpt><trkpt lat="44.5782702" lon="10.6693596"><ele>213.0</ele><time>2026-03-28T14:33:42.514Z</time></trkpt><trkpt lat="44.5781935" lon="10.6691884"><ele>214.5</ele><time>2026-03-28T14:33:43.524Z</time></trkpt><trkpt lat="44.5781377" lon="10.6690126"><ele>216.0</ele><time>2026-03-28T14:33:44.516Z</time></trkpt><trkpt lat="44.5781176" lon="10.6688413"><ele>217.5</ele><time>2026-03-28T14:33:45.515Z</time></trkpt><trkpt lat="44.5781256" lon="10.6686703"><ele>219.0</ele><time>2026-03-28T14:33:46.511Z</time></trkpt><trkpt lat="44.5781449" lon="10.6685048"><ele>219.2</ele><time>2026-03-28T14:33:47.512Z</time></trkpt><trkpt lat="44.5781728" lon="10.6683784"><ele>219.39999999999998</ele><time>2026-03-28T14:33:48.505Z</time></trkpt><trkpt lat="44.5781739" lon="10.6682808"><ele>219.6</ele><time>2026-03-28T14:33:49.514Z</time></trkpt><trkpt lat="44.5781401" lon="10.6681075"><ele>219.8</ele><time>2026-03-28T14:33:51.53Z</time></trkpt><trkpt lat="44.5780898" lon="10.668044"><ele>220.0</ele><time>2026-03-28T14:33:52.533Z</time></trkpt><trkpt lat="44.5779803" lon="10.6680579"><ele>220.0</ele><time>2026-03-28T14:33:54.539Z</time></trkpt><trkpt lat="44.5779224" lon="10.6681411"><ele>220.0</ele><time>2026-03-28T14:33:55.519Z</time></trkpt><trkpt lat="44.5778523" lon="10.6682362"><ele>220.0</ele><time>2026-03-28T14:33:56.517Z</time></trkpt><trkpt lat="44.5777734" lon="10.6683288"><ele>220.0</ele><time>2026-03-28T14:33:57.507Z</time></trkpt><trkpt lat="44.577675" lon="10.6684047"><ele>220.0</ele><time>2026-03-28T14:33:58.51Z</time></trkpt><trkpt lat="44.5775715" lon="10.6684572"><ele>224.5</ele><time>2026-03-28T14:33:59.513Z</time></trkpt><trkpt lat="44.5774572" lon="10.6684749"><ele>229.0</ele><time>2026-03-28T14:34:00.521Z</time></trkpt><trkpt lat="44.5773458" lon="10.6684258"><ele>233.5</ele><time>2026-03-28T14:34:01.52Z</time></trkpt><trkpt lat="44.5772255" lon="10.6683354"><ele>238.0</ele><time>2026-03-28T14:34:02.519Z</time></trkpt><trkpt lat="44.5771481" lon="10.6682189"><ele>237.99999999999997</ele><time>2026-03-28T14:34:03.518Z</time></trkpt><trkpt lat="44.5770841" lon="10.6680876"><ele>238.0</ele><time>2026-03-28T14:34:04.523Z</time></trkpt><trkpt lat="44.5770286" lon="10.6679841"><ele>238.0</ele><time>2026-03-28T14:34:05.531Z</time></trkpt><trkpt lat="44.5769684" lon="10.6679407"><ele>238.0</ele><time>2026-03-28T14:34:06.514Z</time></trkpt><trkpt lat="44.5768887" lon="10.6679337"><ele>237.99999999999997</ele><time>2026-03-28T14:34:07.516Z</time></trkpt><trkpt lat="44.5768059" lon="10.6679315"><ele>238.0</ele><time>2026-03-28T14:34:08.517Z</time></trkpt><trkpt lat="44.5767088" lon="10.6679344"><ele>242.5</ele><time>2026-03-28T14:34:09.522Z</time></trkpt><trkpt lat="44.5766059" lon="10.6679489"><ele>247.0</ele><time>2026-03-28T14:34:10.523Z</time></trkpt><trkpt lat="44.5764935" lon="10.6679784"><ele>251.5</ele><time>2026-03-28T14:34:11.534Z</time></trkpt><trkpt lat="44.5763747" lon="10.6679978"><ele>256.0</ele><time>2026-03-28T14:34:12.521Z</time></trkpt><trkpt lat="44.5762625" lon="10.6679924"><ele>258.75</ele><time>2026-03-28T14:34:13.524Z</time></trkpt><trkpt lat="44.5761474" lon="10.667948"><ele>261.5</ele><time>2026-03-28T14:34:14.524Z</time></trkpt><trkpt lat="44.5760399" lon="10.6678879"><ele>264.25</ele><time>2026-03-28T14:34:15.516Z</time></trkpt><trkpt lat="44.5759351" lon="10.6678119"><ele>267.0</ele><time>2026-03-28T14:34:16.52Z</time></trkpt><trkpt lat="44.5758473" lon="10.6677267"><ele>267.0</ele><time>2026-03-28T14:34:17.518Z</time></trkpt><trkpt lat="44.5757785" lon="10.6676339"><ele>267.0</ele><time>2026-03-28T14:34:18.512Z</time></trkpt><trkpt lat="44.5757115" lon="10.6675642"><ele>267.0</ele><time>2026-03-28T14:34:19.533Z</time></trkpt><trkpt lat="44.5756423" lon="10.6675484"><ele>267.0</ele><time>2026-03-28T14:34:20.52Z</time></trkpt><trkpt lat="44.5755635" lon="10.6675825"><ele>267.0</ele><time>2026-03-28T14:34:21.532Z</time></trkpt><trkpt lat="44.5754753" lon="10.6676351"><ele>267.0</ele><time>2026-03-28T14:34:22.532Z</time></trkpt><trkpt lat="44.5753824" lon="10.6676854"><ele>268.6</ele><time>2026-03-28T14:34:23.529Z</time></trkpt><trkpt lat="44.5752785" lon="10.6677229"><ele>270.2</ele><time>2026-03-28T14:34:24.534Z</time></trkpt><trkpt lat="44.5751647" lon="10.6677477"><ele>271.8</ele><time>2026-03-28T14:34:25.528Z</time></trkpt><trkpt lat="44.5750513" lon="10.6677605"><ele>273.4</ele><time>2026-03-28T14:34:26.531Z</time></trkpt><trkpt lat="44.5749419" lon="10.6677593"><ele>275.0</ele><time>2026-03-28T14:34:27.536Z</time></trkpt><trkpt lat="44.5748396" lon="10.6677407"><ele>275.0</ele><time>2026-03-28T14:34:28.53Z</time></trkpt><trkpt lat="44.574747" lon="10.6677197"><ele>275.0</ele><time>2026-03-28T14:34:29.545Z</time></trkpt><trkpt lat="44.5746723" lon="10.6676978"><ele>275.0</ele><time>2026-03-28T14:34:30.535Z</time></trkpt><trkpt lat="44.5746027" lon="10.6677074"><ele>275.0</ele><time>2026-03-28T14:34:31.544Z</time></trkpt><trkpt lat="44.5745415" lon="10.6677389"><ele>275.0</ele><time>2026-03-28T14:34:32.538Z</time></trkpt><trkpt lat="44.5744349" lon="10.6678433"><ele>275.0</ele><time>2026-03-28T14:34:34.532Z</time></trkpt><trkpt lat="44.5743892" lon="10.667926"><ele>275.6666666666667</ele><time>2026-03-28T14:34:35.536Z</time></trkpt><trkpt lat="44.574354" lon="10.6680093"><ele>276.33333333333337</ele><time>2026-03-28T14:34:36.549Z</time></trkpt><trkpt lat="44.5743201" lon="10.6680916"><ele>277.0</ele><time>2026-03-28T14:34:37.54Z</time></trkpt><trkpt lat="44.5742841" lon="10.6681742"><ele>277.6666666666667</ele><time>2026-03-28T14:34:38.542Z</time></trkpt><trkpt lat="44.5742446" lon="10.6682723"><ele>278.3333333333333</ele><time>2026-03-28T14:34:39.535Z</time></trkpt><trkpt lat="44.5742023" lon="10.6683725"><ele>279.0</ele><time>2026-03-28T14:34:40.536Z</time></trkpt><trkpt lat="44.5741574" lon="10.668479"><ele>278.99999999999994</ele><time>2026-03-28T14:34:41.548Z</time></trkpt><trkpt lat="44.5741174" lon="10.6685797"><ele>279.0</ele><time>2026-03-28T14:34:42.533Z</time></trkpt><trkpt lat="44.5740818" lon="10.6686733"><ele>279.0</ele><time>2026-03-28T14:34:43.536Z</time></trkpt><trkpt lat="44.5740509" lon="10.6687602"><ele>279.0</ele><time>2026-03-28T14:34:44.534Z</time></trkpt><trkpt lat="44.5740099" lon="10.6688495"><ele>279.0</ele><time>2026-03-28T14:34:45.545Z</time></trkpt><trkpt lat="44.5739743" lon="10.6689403"><ele>278.99999999999994</ele><time>2026-03-28T14:34:46.532Z</time></trkpt><trkpt lat="44.573941" lon="10.6690283"><ele>279.0</ele><time>2026-03-28T14:34:47.538Z</time></trkpt><trkpt lat="44.5738994" lon="10.6691769"><ele>279.59999999999997</ele><time>2026-03-28T14:34:49.539Z</time></trkpt><trkpt lat="44.5738532" lon="10.6693099"><ele>280.2</ele><time>2026-03-28T14:34:51.537Z</time></trkpt><trkpt lat="44.5738097" lon="10.6694238"><ele>280.79999999999995</ele><time>2026-03-28T14:34:53.541Z</time></trkpt><trkpt lat="44.5737669" lon="10.6695331"><ele>281.4</ele><time>2026-03-28T14:34:55.542Z</time></trkpt><trkpt lat="44.5737077" lon="10.6696742"><ele>282.0</ele><time>2026-03-28T14:34:57.54Z</time></trkpt><trkpt lat="44.5736395" lon="10.6698052"><ele>282.1666666666667</ele><time>2026-03-28T14:34:59.542Z</time></trkpt><trkpt lat="44.5735866" lon="10.6699092"><ele>282.3333333333333</ele><time>2026-03-28T14:35:01.538Z</time></trkpt><trkpt lat="44.5735664" lon="10.6700008"><ele>282.5</ele><time>2026-03-28T14:35:03.546Z</time></trkpt><trkpt lat="44.5736114" lon="10.6700985"><ele>282.66666666666663</ele><time>2026-03-28T14:35:06.542Z</time></trkpt><trkpt lat="44.5736935" lon="10.6701552"><ele>282.8333333333333</ele><time>2026-03-28T14:35:09.538Z</time></trkpt><trkpt lat="44.5737844" lon="10.6702102"><ele>283.0</ele><time>2026-03-28T14:35:12.541Z</time></trkpt><trkpt lat="44.5738562" lon="10.6701771"><ele>283.0</ele><time>2026-03-28T14:35:14.536Z</time></trkpt><trkpt lat="44.5738969" lon="10.670076"><ele>283.0</ele><time>2026-03-28T14:35:16.544Z</time></trkpt><trkpt lat="44.5739343" lon="10.6699684"><ele>283.0</ele><time>2026-03-28T14:35:18.54Z</time></trkpt><trkpt lat="44.5739785" lon="10.6698478"><ele>283.0</ele><time>2026-03-28T14:35:20.543Z</time></trkpt><trkpt lat="44.5740008" lon="10.6697154"><ele>283.0</ele><time>2026-03-28T14:35:22.543Z</time></trkpt><trkpt lat="44.5739694" lon="10.6696049"><ele>283.0</ele><time>2026-03-28T14:35:24.535Z</time></trkpt><trkpt lat="44.573906" lon="10.6695596"><ele>283.0</ele><time>2026-03-28T14:35:26.543Z</time></trkpt><trkpt lat="44.5738333" lon="10.6695097"><ele>283.0</ele><time>2026-03-28T14:35:28.538Z</time></trkpt><trkpt lat="44.5738101" lon="10.6693911"><ele>283.0</ele><time>2026-03-28T14:35:31.541Z</time></trkpt><trkpt lat="44.5738709" lon="10.6692655"><ele>283.0</ele><time>2026-03-28T14:35:33.541Z</time></trkpt><trkpt lat="44.5739396" lon="10.6691127"><ele>283.0</ele><time>2026-03-28T14:35:35.529Z</time></trkpt><trkpt lat="44.5739815" lon="10.6690165"><ele>282.8333333333333</ele><time>2026-03-28T14:35:36.532Z</time></trkpt><trkpt lat="44.5740197" lon="10.6689152"><ele>282.66666666666663</ele><time>2026-03-28T14:35:37.541Z</time></trkpt><trkpt lat="44.5740607" lon="10.6688118"><ele>282.5</ele><time>2026-03-28T14:35:38.533Z</time></trkpt><trkpt lat="44.5741024" lon="10.6687059"><ele>282.3333333333333</ele><time>2026-03-28T14:35:39.545Z</time></trkpt><trkpt lat="44.5741437" lon="10.6685979"><ele>282.1666666666667</ele><time>2026-03-28T14:35:40.546Z</time></trkpt><trkpt lat="44.5741837" lon="10.6684934"><ele>282.0</ele><time>2026-03-28T14:35:41.55Z</time></trkpt><trkpt lat="44.5742155" lon="10.6683848"><ele>281.5</ele><time>2026-03-28T14:35:42.545Z</time></trkpt><trkpt lat="44.5742522" lon="10.668281"><ele>281.0</ele><time>2026-03-28T14:35:43.54Z</time></trkpt><trkpt lat="44.5743047" lon="10.6681509"><ele>280.5</ele><time>2026-03-28T14:35:45.543Z</time></trkpt><trkpt lat="44.5743286" lon="10.668068"><ele>280.0</ele><time>2026-03-28T14:35:47.547Z</time></trkpt><trkpt lat="44.5743737" lon="10.6679797"><ele>279.5</ele><time>2026-03-28T14:35:49.541Z</time></trkpt><trkpt lat="44.5744344" lon="10.6678935"><ele>279.0</ele><time>2026-03-28T14:35:51.549Z</time></trkpt><trkpt lat="44.5745081" lon="10.6678178"><ele>278.2</ele><time>2026-03-28T14:35:53.54Z</time></trkpt><trkpt lat="44.5746079" lon="10.6677308"><ele>277.4</ele><time>2026-03-28T14:35:55.541Z</time></trkpt><trkpt lat="44.5746712" lon="10.6677124"><ele>276.6</ele><time>2026-03-28T14:35:56.542Z</time></trkpt><trkpt lat="44.5747506" lon="10.6677057"><ele>275.8</ele><time>2026-03-28T14:35:57.525Z</time></trkpt><trkpt lat="44.5748493" lon="10.6677186"><ele>275.0</ele><time>2026-03-28T14:35:58.528Z</time></trkpt><trkpt lat="44.574961" lon="10.6677467"><ele>275.0</ele><time>2026-03-28T14:35:59.529Z</time></trkpt><trkpt lat="44.5750925" lon="10.6677491"><ele>275.0</ele><time>2026-03-28T14:36:00.526Z</time></trkpt><trkpt lat="44.5752349" lon="10.6677366"><ele>275.0</ele><time>2026-03-28T14:36:01.523Z</time></trkpt><trkpt lat="44.5753577" lon="10.6677003"><ele>275.0</ele><time>2026-03-28T14:36:02.525Z</time></trkpt><trkpt lat="44.5754622" lon="10.6676682"><ele>273.4</ele><time>2026-03-28T14:36:03.537Z</time></trkpt><trkpt lat="44.5755559" lon="10.667614"><ele>271.8</ele><time>2026-03-28T14:36:04.53Z</time></trkpt><trkpt lat="44.5756402" lon="10.6675739"><ele>270.2</ele><time>2026-03-28T14:36:05.524Z</time></trkpt><trkpt lat="44.5757225" lon="10.667556"><ele>268.6</ele><time>2026-03-28T14:36:06.533Z</time></trkpt><trkpt lat="44.5758102" lon="10.6675804"><ele>267.0</ele><time>2026-03-28T14:36:07.532Z</time></trkpt><trkpt lat="44.5758895" lon="10.6676459"><ele>267.0</ele><time>2026-03-28T14:36:08.527Z</time></trkpt><trkpt lat="44.5759642" lon="10.6677455"><ele>267.0</ele><time>2026-03-28T14:36:09.533Z</time></trkpt><trkpt lat="44.5760435" lon="10.6678392"><ele>267.0</ele><time>2026-03-28T14:36:10.518Z</time></trkpt><trkpt lat="44.5761449" lon="10.6679115"><ele>267.0</ele><time>2026-03-28T14:36:11.521Z</time></trkpt><trkpt lat="44.5762512" lon="10.6679811"><ele>267.0</ele><time>2026-03-28T14:36:12.523Z</time></trkpt><trkpt lat="44.5763615" lon="10.6680227"><ele>264.25</ele><time>2026-03-28T14:36:13.523Z</time></trkpt><trkpt lat="44.5764627" lon="10.6680223"><ele>261.5</ele><time>2026-03-28T14:36:14.532Z</time></trkpt><trkpt lat="44.5765636" lon="10.6679994"><ele>258.75</ele><time>2026-03-28T14:36:15.523Z</time></trkpt><trkpt lat="44.5766921" lon="10.667973"><ele>256.0</ele><time>2026-03-28T14:36:16.528Z</time></trkpt><trkpt lat="44.5768144" lon="10.6679576"><ele>256.0</ele><time>2026-03-28T14:36:17.529Z</time></trkpt><trkpt lat="44.5769182" lon="10.6679477"><ele>256.0</ele><time>2026-03-28T14:36:18.528Z</time></trkpt><trkpt lat="44.5770123" lon="10.6679574"><ele>256.0</ele><time>2026-03-28T14:36:19.53Z</time></trkpt><trkpt lat="44.5770948" lon="10.6680115"><ele>256.0</ele><time>2026-03-28T14:36:20.532Z</time></trkpt><trkpt lat="44.5771672" lon="10.6681039"><ele>256.0</ele><time>2026-03-28T14:36:21.52Z</time></trkpt><trkpt lat="44.5772412" lon="10.6682277"><ele>251.5</ele><time>2026-03-28T14:36:22.54Z</time></trkpt><trkpt lat="44.5773202" lon="10.6683593"><ele>247.0</ele><time>2026-03-28T14:36:23.524Z</time></trkpt><trkpt lat="44.57742" lon="10.6684487"><ele>242.5</ele><time>2026-03-28T14:36:24.537Z</time></trkpt><trkpt lat="44.5775271" lon="10.6684807"><ele>238.0</ele><time>2026-03-28T14:36:25.533Z</time></trkpt><trkpt lat="44.5776348" lon="10.6684735"><ele>238.0</ele><time>2026-03-28T14:36:26.536Z</time></trkpt><trkpt lat="44.57775" lon="10.6684201"><ele>238.0</ele><time>2026-03-28T14:36:27.525Z</time></trkpt><trkpt lat="44.5778407" lon="10.6683344"><ele>238.0</ele><time>2026-03-28T14:36:28.524Z</time></trkpt><trkpt lat="44.5779298" lon="10.6682456"><ele>238.0</ele><time>2026-03-28T14:36:29.511Z</time></trkpt><trkpt lat="44.5780019" lon="10.6681637"><ele>238.0</ele><time>2026-03-28T14:36:30.516Z</time></trkpt><trkpt lat="44.5780553" lon="10.6681062"><ele>234.4</ele><time>2026-03-28T14:36:31.513Z</time></trkpt><trkpt lat="44.5781336" lon="10.668062"><ele>230.8</ele><time>2026-03-28T14:36:33.513Z</time></trkpt><trkpt lat="44.5782177" lon="10.6681659"><ele>227.2</ele><time>2026-03-28T14:36:35.527Z</time></trkpt><trkpt lat="44.5782635" lon="10.6682457"><ele>223.6</ele><time>2026-03-28T14:36:36.521Z</time></trkpt><trkpt lat="44.5782779" lon="10.6683719"><ele>220.0</ele><time>2026-03-28T14:36:37.523Z</time></trkpt><trkpt lat="44.5782616" lon="10.6685301"><ele>219.75</ele><time>2026-03-28T14:36:38.524Z</time></trkpt><trkpt lat="44.5782324" lon="10.6686957"><ele>219.5</ele><time>2026-03-28T14:36:39.527Z</time></trkpt><trkpt lat="44.5782195" lon="10.6688546"><ele>219.25</ele><time>2026-03-28T14:36:40.517Z</time></trkpt><trkpt lat="44.5782122" lon="10.6690076"><ele>219.0</ele><time>2026-03-28T14:36:41.511Z</time></trkpt><trkpt lat="44.5782218" lon="10.6691641"><ele>219.0</ele><time>2026-03-28T14:36:42.512Z</time></trkpt><trkpt lat="44.5782673" lon="10.6693172"><ele>219.0</ele><time>2026-03-28T14:36:43.513Z</time></trkpt><trkpt lat="44.578329" lon="10.6694629"><ele>219.0</ele><time>2026-03-28T14:36:44.515Z</time></trkpt><trkpt lat="44.5783887" lon="10.6696019"><ele>219.0</ele><time>2026-03-28T14:36:45.524Z</time></trkpt><trkpt lat="44.5784511" lon="10.6697356"><ele>218.0</ele><time>2026-03-28T14:36:46.525Z</time></trkpt><trkpt lat="44.5785059" lon="10.6698436"><ele>217.0</ele><time>2026-03-28T14:36:47.521Z</time></trkpt><trkpt lat="44.5785543" lon="10.6699122"><ele>216.0</ele><time>2026-03-28T14:36:48.533Z</time></trkpt><trkpt lat="44.5786619" lon="10.669965"><ele>215.0</ele><time>2026-03-28T14:36:50.522Z</time></trkpt><trkpt lat="44.5787264" lon="10.6699507"><ele>214.0</ele><time>2026-03-28T14:36:51.53Z</time></trkpt><trkpt lat="44.578795" lon="10.6699011"><ele>213.0</ele><time>2026-03-28T14:36:52.544Z</time></trkpt><trkpt lat="44.5788514" lon="10.6698063"><ele>208.75</ele><time>2026-03-28T14:36:53.52Z</time></trkpt><trkpt lat="44.5788991" lon="10.6696836"><ele>204.5</ele><time>2026-03-28T14:36:54.529Z</time></trkpt><trkpt lat="44.5789504" lon="10.6695175"><ele>200.25</ele><time>2026-03-28T14:36:55.532Z</time></trkpt><trkpt lat="44.5790096" lon="10.6693495"><ele>196.0</ele><time>2026-03-28T14:36:56.528Z</time></trkpt><trkpt lat="44.5790692" lon="10.6691957"><ele>195.60000000000002</ele><time>2026-03-28T14:36:57.535Z</time></trkpt><trkpt lat="44.5791182" lon="10.6690459"><ele>195.2</ele><time>2026-03-28T14:36:58.525Z</time></trkpt><trkpt lat="44.5791624" lon="10.6689089"><ele>194.8</ele><time>2026-03-28T14:36:59.519Z</time></trkpt><trkpt lat="44.5791877" lon="10.6687863"><ele>194.39999999999998</ele><time>2026-03-28T14:37:00.527Z</time></trkpt><trkpt lat="44.5791862" lon="10.6686625"><ele>194.0</ele><time>2026-03-28T14:37:01.532Z</time></trkpt><trkpt lat="44.5791329" lon="10.6685617"><ele>193.39999999999998</ele><time>2026-03-28T14:37:02.527Z</time></trkpt><trkpt lat="44.5790843" lon="10.6684657"><ele>192.8</ele><time>2026-03-28T14:37:03.526Z</time></trkpt><trkpt lat="44.5790588" lon="10.6683686"><ele>192.2</ele><time>2026-03-28T14:37:04.525Z</time></trkpt><trkpt lat="44.5791044" lon="10.6682407"><ele>191.60000000000002</ele><time>2026-03-28T14:37:06.522Z</time></trkpt><trkpt lat="44.5792311" lon="10.6682126"><ele>191.0</ele><time>2026-03-28T14:37:08.492Z</time></trkpt><trkpt lat="44.5793283" lon="10.6682287"><ele>191.0</ele><time>2026-03-28T14:37:09.511Z</time></trkpt><trkpt lat="44.5794515" lon="10.6682883"><ele>191.0</ele><time>2026-03-28T14:37:10.512Z</time></trkpt><trkpt lat="44.5795873" lon="10.6683885"><ele>191.0</ele><time>2026-03-28T14:37:11.501Z</time></trkpt><trkpt lat="44.5797141" lon="10.6685095"><ele>191.0</ele><time>2026-03-28T14:37:12.514Z</time></trkpt><trkpt lat="44.5798213" lon="10.6686568"><ele>187.75</ele><time>2026-03-28T14:37:13.522Z</time></trkpt><trkpt lat="44.5799185" lon="10.6688195"><ele>184.5</ele><time>2026-03-28T14:37:14.51Z</time></trkpt><trkpt lat="44.5799745" lon="10.6689737"><ele>181.25</ele><time>2026-03-28T14:37:15.526Z</time></trkpt><trkpt lat="44.58" lon="10.6691455"><ele>178.0</ele><time>2026-03-28T14:37:16.509Z</time></trkpt><trkpt lat="44.5800124" lon="10.6693189"><ele>177.4</ele><time>2026-03-28T14:37:17.514Z</time></trkpt><trkpt lat="44.5800467" lon="10.6694781"><ele>176.8</ele><time>2026-03-28T14:37:18.511Z</time></trkpt><trkpt lat="44.5801108" lon="10.6695844"><ele>176.2</ele><time>2026-03-28T14:37:19.511Z</time></trkpt><trkpt lat="44.5801998" lon="10.6696577"><ele>175.6</ele><time>2026-03-28T14:37:20.52Z</time></trkpt><trkpt lat="44.5803095" lon="10.6696871"><ele>175.0</ele><time>2026-03-28T14:37:21.515Z</time></trkpt><trkpt lat="44.5804257" lon="10.6696915"><ele>170.75</ele><time>2026-03-28T14:37:22.513Z</time></trkpt><trkpt lat="44.5805338" lon="10.6696468"><ele>166.5</ele><time>2026-03-28T14:37:23.516Z</time></trkpt><trkpt lat="44.5806424" lon="10.6695822"><ele>162.25</ele><time>2026-03-28T14:37:24.522Z</time></trkpt><trkpt lat="44.5807555" lon="10.66952"><ele>158.0</ele><time>2026-03-28T14:37:25.523Z</time></trkpt><trkpt lat="44.5808722" lon="10.6694645"><ele>158.25</ele><time>2026-03-28T14:37:26.523Z</time></trkpt><trkpt lat="44.5809837" lon="10.66939"><ele>158.5</ele><time>2026-03-28T14:37:27.523Z</time></trkpt><trkpt lat="44.5810879" lon="10.6693034"><ele>158.75</ele><time>2026-03-28T14:37:28.521Z</time></trkpt><trkpt lat="44.5811839" lon="10.6692163"><ele>159.0</ele><time>2026-03-28T14:37:29.516Z</time></trkpt><trkpt lat="44.5812729" lon="10.6691559"><ele>156.4</ele><time>2026-03-28T14:37:30.523Z</time></trkpt><trkpt lat="44.5813719" lon="10.6691444"><ele>153.8</ele><time>2026-03-28T14:37:31.511Z</time></trkpt><trkpt lat="44.5814798" lon="10.6691579"><ele>151.2</ele><time>2026-03-28T14:37:32.525Z</time></trkpt><trkpt lat="44.5815753" lon="10.6691879"><ele>148.6</ele><time>2026-03-28T14:37:33.527Z</time></trkpt><trkpt lat="44.581665" lon="10.6692139"><ele>146.0</ele><time>2026-03-28T14:37:34.527Z</time></trkpt><trkpt lat="44.581754" lon="10.6692344"><ele>146.0</ele><time>2026-03-28T14:37:35.536Z</time></trkpt><trkpt lat="44.5818612" lon="10.6692493"><ele>146.0</ele><time>2026-03-28T14:37:36.525Z</time></trkpt><trkpt lat="44.5819684" lon="10.6692587"><ele>146.0</ele><time>2026-03-28T14:37:37.53Z</time></trkpt><trkpt lat="44.5820711" lon="10.6692681"><ele>146.0</ele><time>2026-03-28T14:37:38.534Z</time></trkpt><trkpt lat="44.5821634" lon="10.6692731"><ele>146.0</ele><time>2026-03-28T14:37:39.535Z</time></trkpt><trkpt lat="44.582252" lon="10.6692966"><ele>143.2</ele><time>2026-03-28T14:37:40.536Z</time></trkpt><trkpt lat="44.5823469" lon="10.6693223"><ele>140.39999999999998</ele><time>2026-03-28T14:37:41.538Z</time></trkpt><trkpt lat="44.582445" lon="10.6693542"><ele>137.6</ele><time>2026-03-28T14:37:42.534Z</time></trkpt><trkpt lat="44.582537" lon="10.66938"><ele>134.79999999999998</ele><time>2026-03-28T14:37:43.533Z</time></trkpt><trkpt lat="44.582629" lon="10.669394"><ele>132.0</ele><time>2026-03-28T14:37:44.533Z</time></trkpt><trkpt lat="44.5827191" lon="10.6693826"><ele>132.0</ele><time>2026-03-28T14:37:45.535Z</time></trkpt><trkpt lat="44.5828081" lon="10.6693599"><ele>132.0</ele><time>2026-03-28T14:37:46.532Z</time></trkpt><trkpt lat="44.5828982" lon="10.6693308"><ele>132.0</ele><time>2026-03-28T14:37:47.531Z</time></trkpt><trkpt lat="44.5829873" lon="10.6693048"><ele>132.0</ele><time>2026-03-28T14:37:48.535Z</time></trkpt><trkpt lat="44.583074" lon="10.6692812"><ele>132.0</ele><time>2026-03-28T14:37:49.534Z</time></trkpt><trkpt lat="44.5831562" lon="10.669262"><ele>132.0</ele><time>2026-03-28T14:37:50.541Z</time></trkpt><trkpt lat="44.5832474" lon="10.6692427"><ele>130.0</ele><time>2026-03-28T14:37:51.532Z</time></trkpt><trkpt lat="44.5833413" lon="10.6692308"><ele>127.99999999999999</ele><time>2026-03-28T14:37:52.532Z</time></trkpt><trkpt lat="44.5834303" lon="10.6692236"><ele>125.99999999999999</ele><time>2026-03-28T14:37:53.528Z</time></trkpt><trkpt lat="44.5835228" lon="10.6692308"><ele>124.0</ele><time>2026-03-28T14:37:54.532Z</time></trkpt><trkpt lat="44.5836144" lon="10.6692532"><ele>122.0</ele><time>2026-03-28T14:37:55.528Z</time></trkpt><trkpt lat="44.5837029" lon="10.6692725"><ele>120.83333333333333</ele><time>2026-03-28T14:37:56.533Z</time></trkpt><trkpt lat="44.5837924" lon="10.6692797"><ele>119.66666666666666</ele><time>2026-03-28T14:37:57.531Z</time></trkpt><trkpt lat="44.5838842" lon="10.6692801"><ele>118.5</ele><time>2026-03-28T14:37:58.531Z</time></trkpt><trkpt lat="44.5839698" lon="10.6692905"><ele>117.33333333333334</ele><time>2026-03-28T14:37:59.528Z</time></trkpt><trkpt lat="44.58406" lon="10.6692956"><ele>116.16666666666667</ele><time>2026-03-28T14:38:00.532Z</time></trkpt><trkpt lat="44.5841454" lon="10.6693078"><ele>115.0</ele><time>2026-03-28T14:38:01.526Z</time></trkpt><trkpt lat="44.5842237" lon="10.6693235"><ele>115.0</ele><time>2026-03-28T14:38:02.532Z</time></trkpt><trkpt lat="44.5842965" lon="10.6693483"><ele>115.0</ele><time>2026-03-28T14:38:03.534Z</time></trkpt><trkpt lat="44.5844" lon="10.6693979"><ele>115.0</ele><time>2026-03-28T14:38:05.534Z</time></trkpt><trkpt lat="44.5844776" lon="10.6695069"><ele>115.0</ele><time>2026-03-28T14:38:07.518Z</time></trkpt><trkpt lat="44.5845315" lon="10.6696032"><ele>115.0</ele><time>2026-03-28T14:38:08.521Z</time></trkpt><trkpt lat="44.5845833" lon="10.6697114"><ele>113.8</ele><time>2026-03-28T14:38:09.521Z</time></trkpt><trkpt lat="44.5846598" lon="10.6698139"><ele>112.6</ele><time>2026-03-28T14:38:10.529Z</time></trkpt><trkpt lat="44.5847549" lon="10.6699026"><ele>111.4</ele><time>2026-03-28T14:38:11.529Z</time></trkpt><trkpt lat="44.5848407" lon="10.6699724"><ele>110.2</ele><time>2026-03-28T14:38:12.538Z</time></trkpt><trkpt lat="44.5849214" lon="10.670057"><ele>109.0</ele><time>2026-03-28T14:38:13.531Z</time></trkpt><trkpt lat="44.5850071" lon="10.6701183"><ele>109.0</ele><time>2026-03-28T14:38:14.531Z</time></trkpt><trkpt lat="44.5850818" lon="10.6701947"><ele>109.0</ele><time>2026-03-28T14:38:15.537Z</time></trkpt><trkpt lat="44.5851636" lon="10.6702828"><ele>109.0</ele><time>2026-03-28T14:38:16.537Z</time></trkpt><trkpt lat="44.5852511" lon="10.6703657"><ele>109.0</ele><time>2026-03-28T14:38:17.543Z</time></trkpt><trkpt lat="44.5853305" lon="10.6704366"><ele>109.0</ele><time>2026-03-28T14:38:18.536Z</time></trkpt><trkpt lat="44.5854226" lon="10.6705217"><ele>108.2</ele><time>2026-03-28T14:38:19.538Z</time></trkpt><trkpt lat="44.5855144" lon="10.6706161"><ele>107.4</ele><time>2026-03-28T14:38:20.534Z</time></trkpt><trkpt lat="44.5855986" lon="10.6707162"><ele>106.6</ele><time>2026-03-28T14:38:21.542Z</time></trkpt><trkpt lat="44.585675" lon="10.6708262"><ele>105.8</ele><time>2026-03-28T14:38:22.54Z</time></trkpt><trkpt lat="44.5857535" lon="10.6709223"><ele>105.0</ele><time>2026-03-28T14:38:23.53Z</time></trkpt><trkpt lat="44.5858477" lon="10.6710044"><ele>105.0</ele><time>2026-03-28T14:38:24.536Z</time></trkpt><trkpt lat="44.5859374" lon="10.6710929"><ele>105.0</ele><time>2026-03-28T14:38:25.533Z</time></trkpt><trkpt lat="44.5860295" lon="10.6711838"><ele>105.0</ele><time>2026-03-28T14:38:26.542Z</time></trkpt><trkpt lat="44.5861187" lon="10.6712724"><ele>105.0</ele><time>2026-03-28T14:38:27.528Z</time></trkpt><trkpt lat="44.5862118" lon="10.6713542"><ele>105.0</ele><time>2026-03-28T14:38:28.531Z</time></trkpt><trkpt lat="44.5862963" lon="10.6714339"><ele>104.6</ele><time>2026-03-28T14:38:29.532Z</time></trkpt><trkpt lat="44.5863808" lon="10.6715102"><ele>104.2</ele><time>2026-03-28T14:38:30.532Z</time></trkpt><trkpt lat="44.586464" lon="10.6715783"><ele>103.80000000000001</ele><time>2026-03-28T14:38:31.537Z</time></trkpt><trkpt lat="44.5865457" lon="10.6716661"><ele>103.4</ele><time>2026-03-28T14:38:32.524Z</time></trkpt><trkpt lat="44.5866305" lon="10.6717651"><ele>103.0</ele><time>2026-03-28T14:38:33.53Z</time></trkpt><trkpt lat="44.5867276" lon="10.6718685"><ele>103.5</ele><time>2026-03-28T14:38:34.528Z</time></trkpt><trkpt lat="44.5868371" lon="10.6719829"><ele>104.0</ele><time>2026-03-28T14:38:35.524Z</time></trkpt><trkpt lat="44.5869346" lon="10.6721028"><ele>104.5</ele><time>2026-03-28T14:38:36.527Z</time></trkpt><trkpt lat="44.5870265" lon="10.672218"><ele>105.0</ele><time>2026-03-28T14:38:37.523Z</time></trkpt><trkpt lat="44.5871251" lon="10.6723184"><ele>105.0</ele><time>2026-03-28T14:38:38.531Z</time></trkpt><trkpt lat="44.5872225" lon="10.6723987"><ele>105.0</ele><time>2026-03-28T14:38:39.525Z</time></trkpt><trkpt lat="44.5873177" lon="10.6724738"><ele>105.0</ele><time>2026-03-28T14:38:40.522Z</time></trkpt><trkpt lat="44.5874146" lon="10.6725346"><ele>105.0</ele><time>2026-03-28T14:38:41.522Z</time></trkpt><trkpt lat="44.5875144" lon="10.6725984"><ele>105.0</ele><time>2026-03-28T14:38:42.523Z</time></trkpt><trkpt lat="44.5876209" lon="10.6726631"><ele>105.0</ele><time>2026-03-28T14:38:43.528Z</time></trkpt><trkpt lat="44.5877166" lon="10.6727348"><ele>105.0</ele><time>2026-03-28T14:38:44.524Z</time></trkpt><trkpt lat="44.5878116" lon="10.67279"><ele>105.0</ele><time>2026-03-28T14:38:45.525Z</time></trkpt><trkpt lat="44.5878887" lon="10.6728563"><ele>105.0</ele><time>2026-03-28T14:38:46.52Z</time></trkpt><trkpt lat="44.5879586" lon="10.6729263"><ele>105.0</ele><time>2026-03-28T14:38:47.517Z</time></trkpt><trkpt lat="44.5880193" lon="10.6729795"><ele>104.8</ele><time>2026-03-28T14:38:49.521Z</time></trkpt><trkpt lat="44.5880534" lon="10.6728875"><ele>104.6</ele><time>2026-03-28T14:38:54.525Z</time></trkpt><trkpt lat="44.5880675" lon="10.672784"><ele>104.4</ele><time>2026-03-28T14:39:05.531Z</time></trkpt><trkpt lat="44.5881142" lon="10.6725932"><ele>104.2</ele><time>2026-03-28T14:39:07.535Z</time></trkpt><trkpt lat="44.5881431" lon="10.6724468"><ele>104.0</ele><time>2026-03-28T14:39:08.52Z</time></trkpt><trkpt lat="44.5881892" lon="10.6722958"><ele>104.2</ele><time>2026-03-28T14:39:09.525Z</time></trkpt><trkpt lat="44.5882408" lon="10.6721427"><ele>104.4</ele><time>2026-03-28T14:39:10.522Z</time></trkpt><trkpt lat="44.5882841" lon="10.671995"><ele>104.6</ele><time>2026-03-28T14:39:11.52Z</time></trkpt><trkpt lat="44.5883255" lon="10.6718809"><ele>104.8</ele><time>2026-03-28T14:39:12.524Z</time></trkpt><trkpt lat="44.5883595" lon="10.6717688"><ele>105.0</ele><time>2026-03-28T14:39:13.526Z</time></trkpt><trkpt lat="44.5883962" lon="10.6716531"><ele>105.0</ele><time>2026-03-28T14:39:14.54Z</time></trkpt><trkpt lat="44.588431" lon="10.671536"><ele>105.0</ele><time>2026-03-28T14:39:15.54Z</time></trkpt><trkpt lat="44.5884661" lon="10.6714031"><ele>105.0</ele><time>2026-03-28T14:39:16.545Z</time></trkpt><trkpt lat="44.5885083" lon="10.6712505"><ele>105.0</ele><time>2026-03-28T14:39:17.537Z</time></trkpt><trkpt lat="44.5885546" lon="10.6710932"><ele>105.0</ele><time>2026-03-28T14:39:18.535Z</time></trkpt><trkpt lat="44.5886132" lon="10.6709317"><ele>105.0</ele><time>2026-03-28T14:39:19.533Z</time></trkpt><trkpt lat="44.5886714" lon="10.6707666"><ele>105.0</ele><time>2026-03-28T14:39:20.538Z</time></trkpt><trkpt lat="44.5887157" lon="10.6706082"><ele>105.0</ele><time>2026-03-28T14:39:21.53Z</time></trkpt><trkpt lat="44.5887555" lon="10.6704396"><ele>105.0</ele><time>2026-03-28T14:39:22.535Z</time></trkpt><trkpt lat="44.5888006" lon="10.6702815"><ele>105.4</ele><time>2026-03-28T14:39:23.53Z</time></trkpt><trkpt lat="44.5888489" lon="10.6701259"><ele>105.8</ele><time>2026-03-28T14:39:24.533Z</time></trkpt><trkpt lat="44.5889017" lon="10.6699774"><ele>106.19999999999999</ele><time>2026-03-28T14:39:25.533Z</time></trkpt><trkpt lat="44.5889424" lon="10.6698504"><ele>106.6</ele><time>2026-03-28T14:39:26.535Z</time></trkpt><trkpt lat="44.5889723" lon="10.6697284"><ele>107.0</ele><time>2026-03-28T14:39:27.531Z</time></trkpt><trkpt lat="44.5890052" lon="10.6696212"><ele>107.0</ele><time>2026-03-28T14:39:28.535Z</time></trkpt><trkpt lat="44.5890344" lon="10.6695061"><ele>106.99999999999999</ele><time>2026-03-28T14:39:29.534Z</time></trkpt><trkpt lat="44.5890722" lon="10.6693946"><ele>106.99999999999999</ele><time>2026-03-28T14:39:30.53Z</time></trkpt><trkpt lat="44.5891181" lon="10.6692757"><ele>107.0</ele><time>2026-03-28T14:39:31.542Z</time></trkpt><trkpt lat="44.5891546" lon="10.6691521"><ele>107.0</ele><time>2026-03-28T14:39:32.529Z</time></trkpt><trkpt lat="44.589194" lon="10.6690223"><ele>106.99999999999999</ele><time>2026-03-28T14:39:33.534Z</time></trkpt><trkpt lat="44.5892341" lon="10.668905"><ele>107.0</ele><time>2026-03-28T14:39:34.529Z</time></trkpt><trkpt lat="44.589277" lon="10.6687939"><ele>107.0</ele><time>2026-03-28T14:39:35.528Z</time></trkpt><trkpt lat="44.5893038" lon="10.6686925"><ele>107.0</ele><time>2026-03-28T14:39:36.538Z</time></trkpt><trkpt lat="44.5893227" lon="10.668601"><ele>106.99999999999999</ele><time>2026-03-28T14:39:37.529Z</time></trkpt><trkpt lat="44.5893566" lon="10.6684622"><ele>107.0</ele><time>2026-03-28T14:39:39.521Z</time></trkpt><trkpt lat="44.5893819" lon="10.6683596"><ele>106.8</ele><time>2026-03-28T14:40:25.523Z</time></trkpt><trkpt lat="44.5893805" lon="10.6682155"><ele>106.6</ele><time>2026-03-28T14:40:27.512Z</time></trkpt><trkpt lat="44.5893394" lon="10.6681285"><ele>106.39999999999999</ele><time>2026-03-28T14:40:28.525Z</time></trkpt><trkpt lat="44.5892583" lon="10.6680548"><ele>106.19999999999999</ele><time>2026-03-28T14:40:29.516Z</time></trkpt><trkpt lat="44.5891457" lon="10.6679877"><ele>106.0</ele><time>2026-03-28T14:40:30.517Z</time></trkpt><trkpt lat="44.5890192" lon="10.6679119"><ele>106.0</ele><time>2026-03-28T14:40:31.523Z</time></trkpt><trkpt lat="44.5888721" lon="10.6678317"><ele>106.0</ele><time>2026-03-28T14:40:32.525Z</time></trkpt><trkpt lat="44.588725" lon="10.6677356"><ele>106.0</ele><time>2026-03-28T14:40:33.525Z</time></trkpt><trkpt lat="44.5885711" lon="10.6676327"><ele>106.66666666666667</ele><time>2026-03-28T14:40:34.517Z</time></trkpt><trkpt lat="44.5884209" lon="10.6675456"><ele>107.33333333333334</ele><time>2026-03-28T14:40:35.532Z</time></trkpt><trkpt lat="44.5882633" lon="10.6674569"><ele>108.0</ele><time>2026-03-28T14:40:36.527Z</time></trkpt><trkpt lat="44.588129" lon="10.6673652"><ele>108.0</ele><time>2026-03-28T14:40:37.53Z</time></trkpt><trkpt lat="44.5879683" lon="10.6672726"><ele>108.0</ele><time>2026-03-28T14:40:38.53Z</time></trkpt><trkpt lat="44.5878171" lon="10.6671844"><ele>108.0</ele><time>2026-03-28T14:40:39.525Z</time></trkpt><trkpt lat="44.5876621" lon="10.6670938"><ele>108.0</ele><time>2026-03-28T14:40:40.533Z</time></trkpt><trkpt lat="44.5875088" lon="10.666999"><ele>108.0</ele><time>2026-03-28T14:40:41.528Z</time></trkpt><trkpt lat="44.5873561" lon="10.6669078"><ele>108.0</ele><time>2026-03-28T14:40:42.54Z</time></trkpt><trkpt lat="44.5871905" lon="10.6668115"><ele>108.0</ele><time>2026-03-28T14:40:43.532Z</time></trkpt><trkpt lat="44.5870315" lon="10.6667187"><ele>108.0</ele><time>2026-03-28T14:40:44.531Z</time></trkpt><trkpt lat="44.5868823" lon="10.6666206"><ele>108.0</ele><time>2026-03-28T14:40:45.529Z</time></trkpt><trkpt lat="44.5867223" lon="10.6664991"><ele>108.0</ele><time>2026-03-28T14:40:46.536Z</time></trkpt><trkpt lat="44.5865858" lon="10.6663689"><ele>108.0</ele><time>2026-03-28T14:40:47.52Z</time></trkpt><trkpt lat="44.5864443" lon="10.6662307"><ele>108.0</ele><time>2026-03-28T14:40:48.53Z</time></trkpt><trkpt lat="44.5863496" lon="10.6660795"><ele>108.0</ele><time>2026-03-28T14:40:49.53Z</time></trkpt><trkpt lat="44.5862679" lon="10.6658938"><ele>108.0</ele><time>2026-03-28T14:40:50.517Z</time></trkpt><trkpt lat="44.5861917" lon="10.6656783"><ele>108.0</ele><time>2026-03-28T14:40:51.531Z</time></trkpt><trkpt lat="44.5861114" lon="10.665459"><ele>108.33333333333334</ele><time>2026-03-28T14:40:52.537Z</time></trkpt><trkpt lat="44.5860251" lon="10.6652273"><ele>108.66666666666667</ele><time>2026-03-28T14:40:53.532Z</time></trkpt><trkpt lat="44.5859476" lon="10.6649998"><ele>109.0</ele><time>2026-03-28T14:40:54.536Z</time></trkpt><trkpt lat="44.5858604" lon="10.6647702"><ele>109.0</ele><time>2026-03-28T14:40:55.532Z</time></trkpt><trkpt lat="44.5857647" lon="10.6645487"><ele>109.0</ele><time>2026-03-28T14:40:56.53Z</time></trkpt><trkpt lat="44.5856701" lon="10.6643384"><ele>109.0</ele><time>2026-03-28T14:40:57.532Z</time></trkpt><trkpt lat="44.585568" lon="10.6641326"><ele>109.33333333333334</ele><time>2026-03-28T14:40:58.53Z</time></trkpt><trkpt lat="44.5854646" lon="10.6639494"><ele>109.66666666666666</ele><time>2026-03-28T14:40:59.53Z</time></trkpt><trkpt lat="44.5853407" lon="10.6637378"><ele>110.0</ele><time>2026-03-28T14:41:00.541Z</time></trkpt><trkpt lat="44.5852295" lon="10.663546"><ele>111.33333333333333</ele><time>2026-03-28T14:41:01.527Z</time></trkpt><trkpt lat="44.5851182" lon="10.6633605"><ele>112.66666666666666</ele><time>2026-03-28T14:41:02.53Z</time></trkpt><trkpt lat="44.5850003" lon="10.6631585"><ele>114.0</ele><time>2026-03-28T14:41:03.535Z</time></trkpt><trkpt lat="44.5848934" lon="10.6629663"><ele>114.66666666666666</ele><time>2026-03-28T14:41:04.523Z</time></trkpt><trkpt lat="44.584778" lon="10.6627738"><ele>115.33333333333333</ele><time>2026-03-28T14:41:05.539Z</time></trkpt><trkpt lat="44.5846535" lon="10.6625914"><ele>116.0</ele><time>2026-03-28T14:41:06.528Z</time></trkpt><trkpt lat="44.5845398" lon="10.6624273"><ele>116.0</ele><time>2026-03-28T14:41:07.52Z</time></trkpt><trkpt lat="44.5844066" lon="10.6622792"><ele>116.0</ele><time>2026-03-28T14:41:08.527Z</time></trkpt><trkpt lat="44.5842633" lon="10.6622023"><ele>116.0</ele><time>2026-03-28T14:41:09.536Z</time></trkpt><trkpt lat="44.584105" lon="10.6621778"><ele>116.0</ele><time>2026-03-28T14:41:10.52Z</time></trkpt><trkpt lat="44.5839219" lon="10.6621731"><ele>116.0</ele><time>2026-03-28T14:41:11.536Z</time></trkpt><trkpt lat="44.583748" lon="10.6621506"><ele>116.0</ele><time>2026-03-28T14:41:12.526Z</time></trkpt><trkpt lat="44.5835716" lon="10.6620715"><ele>115.33333333333333</ele><time>2026-03-28T14:41:13.533Z</time></trkpt><trkpt lat="44.5834131" lon="10.6619532"><ele>114.66666666666666</ele><time>2026-03-28T14:41:14.53Z</time></trkpt><trkpt lat="44.5832706" lon="10.6617727"><ele>114.0</ele><time>2026-03-28T14:41:15.53Z</time></trkpt><trkpt lat="44.5831474" lon="10.6615744"><ele>114.0</ele><time>2026-03-28T14:41:16.525Z</time></trkpt><trkpt lat="44.5830248" lon="10.6613522"><ele>114.0</ele><time>2026-03-28T14:41:17.529Z</time></trkpt><trkpt lat="44.5829233" lon="10.6611265"><ele>114.0</ele><time>2026-03-28T14:41:18.524Z</time></trkpt><trkpt lat="44.5828137" lon="10.6609241"><ele>114.33333333333334</ele><time>2026-03-28T14:41:19.529Z</time></trkpt><trkpt lat="44.5826874" lon="10.6607215"><ele>114.66666666666667</ele><time>2026-03-28T14:41:20.529Z</time></trkpt><trkpt lat="44.582568" lon="10.6605071"><ele>115.0</ele><time>2026-03-28T14:41:21.529Z</time></trkpt><trkpt lat="44.5824379" lon="10.6603042"><ele>119.0</ele><time>2026-03-28T14:41:22.527Z</time></trkpt><trkpt lat="44.5823074" lon="10.6601231"><ele>123.0</ele><time>2026-03-28T14:41:23.522Z</time></trkpt><trkpt lat="44.5821624" lon="10.6599383"><ele>127.0</ele><time>2026-03-28T14:41:24.515Z</time></trkpt><trkpt lat="44.5820246" lon="10.6597446"><ele>125.33333333333334</ele><time>2026-03-28T14:41:25.513Z</time></trkpt><trkpt lat="44.581871" lon="10.6595618"><ele>123.66666666666666</ele><time>2026-03-28T14:41:26.519Z</time></trkpt><trkpt lat="44.5817109" lon="10.6593758"><ele>122.0</ele><time>2026-03-28T14:41:27.515Z</time></trkpt><trkpt lat="44.5815697" lon="10.6591799"><ele>122.0</ele><time>2026-03-28T14:41:28.529Z</time></trkpt><trkpt lat="44.5814302" lon="10.658991"><ele>122.0</ele><time>2026-03-28T14:41:29.523Z</time></trkpt><trkpt lat="44.581316" lon="10.6587885"><ele>122.0</ele><time>2026-03-28T14:41:30.525Z</time></trkpt><trkpt lat="44.5811957" lon="10.6585653"><ele>121.0</ele><time>2026-03-28T14:41:31.521Z</time></trkpt><trkpt lat="44.5811024" lon="10.6583419"><ele>120.0</ele><time>2026-03-28T14:41:32.518Z</time></trkpt><trkpt lat="44.5810141" lon="10.6581203"><ele>119.0</ele><time>2026-03-28T14:41:33.525Z</time></trkpt><trkpt lat="44.5809208" lon="10.657892"><ele>122.33333333333333</ele><time>2026-03-28T14:41:34.522Z</time></trkpt><trkpt lat="44.5808323" lon="10.6576571"><ele>125.66666666666666</ele><time>2026-03-28T14:41:35.522Z</time></trkpt><trkpt lat="44.5807329" lon="10.6574369"><ele>129.0</ele><time>2026-03-28T14:41:36.51Z</time></trkpt><trkpt lat="44.5806602" lon="10.6572189"><ele>129.0</ele><time>2026-03-28T14:41:37.517Z</time></trkpt><trkpt lat="44.5805621" lon="10.6570045"><ele>129.0</ele><time>2026-03-28T14:41:38.511Z</time></trkpt><trkpt lat="44.5804698" lon="10.6568042"><ele>129.0</ele><time>2026-03-28T14:41:39.505Z</time></trkpt><trkpt lat="44.5803376" lon="10.6566178"><ele>127.66666666666666</ele><time>2026-03-28T14:41:40.497Z</time></trkpt><trkpt lat="44.5802034" lon="10.6564668"><ele>126.33333333333333</ele><time>2026-03-28T14:41:41.5Z</time></trkpt><trkpt lat="44.5800531" lon="10.6563466"><ele>125.0</ele><time>2026-03-28T14:41:42.504Z</time></trkpt><trkpt lat="44.5798902" lon="10.6562504"><ele>125.0</ele><time>2026-03-28T14:41:43.497Z</time></trkpt><trkpt lat="44.5797292" lon="10.6561723"><ele>125.0</ele><time>2026-03-28T14:41:44.5Z</time></trkpt><trkpt lat="44.5795776" lon="10.6561326"><ele>125.0</ele><time>2026-03-28T14:41:45.515Z</time></trkpt><trkpt lat="44.5794067" lon="10.656065"><ele>125.33333333333333</ele><time>2026-03-28T14:41:46.513Z</time></trkpt><trkpt lat="44.5792224" lon="10.6560029"><ele>125.66666666666666</ele><time>2026-03-28T14:41:47.521Z</time></trkpt><trkpt lat="44.5790481" lon="10.6559332"><ele>126.0</ele><time>2026-03-28T14:41:48.523Z</time></trkpt><trkpt lat="44.5788864" lon="10.6558671"><ele>126.0</ele><time>2026-03-28T14:41:49.527Z</time></trkpt><trkpt lat="44.5787259" lon="10.6558025"><ele>126.0</ele><time>2026-03-28T14:41:50.522Z</time></trkpt><trkpt lat="44.5785485" lon="10.6557299"><ele>126.0</ele><time>2026-03-28T14:41:51.527Z</time></trkpt><trkpt lat="44.57839" lon="10.6556403"><ele>125.33333333333334</ele><time>2026-03-28T14:41:52.523Z</time></trkpt><trkpt lat="44.5782217" lon="10.6555469"><ele>124.66666666666667</ele><time>2026-03-28T14:41:53.522Z</time></trkpt><trkpt lat="44.578057" lon="10.6554327"><ele>124.0</ele><time>2026-03-28T14:41:54.519Z</time></trkpt><trkpt lat="44.5778959" lon="10.6553213"><ele>125.66666666666667</ele><time>2026-03-28T14:41:55.52Z</time></trkpt><trkpt lat="44.5777412" lon="10.6552052"><ele>127.33333333333334</ele><time>2026-03-28T14:41:56.515Z</time></trkpt><trkpt lat="44.5775927" lon="10.6550924"><ele>129.0</ele><time>2026-03-28T14:41:57.519Z</time></trkpt><trkpt lat="44.5774229" lon="10.6550054"><ele>129.0</ele><time>2026-03-28T14:41:58.518Z</time></trkpt><trkpt lat="44.5772593" lon="10.6549166"><ele>129.0</ele><time>2026-03-28T14:41:59.517Z</time></trkpt><trkpt lat="44.577094" lon="10.6548435"><ele>129.0</ele><time>2026-03-28T14:42:00.517Z</time></trkpt><trkpt lat="44.57694" lon="10.6547833"><ele>128.33333333333334</ele><time>2026-03-28T14:42:01.516Z</time></trkpt><trkpt lat="44.5767644" lon="10.6547275"><ele>127.66666666666667</ele><time>2026-03-28T14:42:02.521Z</time></trkpt><trkpt lat="44.5765896" lon="10.6546857"><ele>127.0</ele><time>2026-03-28T14:42:03.518Z</time></trkpt><trkpt lat="44.5764313" lon="10.6546739"><ele>127.0</ele><time>2026-03-28T14:42:04.502Z</time></trkpt><trkpt lat="44.5763007" lon="10.6546978"><ele>127.0</ele><time>2026-03-28T14:42:05.505Z</time></trkpt><trkpt lat="44.5761748" lon="10.6547581"><ele>127.0</ele><time>2026-03-28T14:42:06.505Z</time></trkpt><trkpt lat="44.5760495" lon="10.654844"><ele>127.0</ele><time>2026-03-28T14:42:07.516Z</time></trkpt><trkpt lat="44.5759459" lon="10.6549847"><ele>127.75</ele><time>2026-03-28T14:42:08.498Z</time></trkpt><trkpt lat="44.5758338" lon="10.6551451"><ele>128.5</ele><time>2026-03-28T14:42:09.505Z</time></trkpt><trkpt lat="44.5757336" lon="10.6552674"><ele>129.25</ele><time>2026-03-28T14:42:10.503Z</time></trkpt><trkpt lat="44.5755978" lon="10.6553371"><ele>130.0</ele><time>2026-03-28T14:42:11.504Z</time></trkpt><trkpt lat="44.5754825" lon="10.6553809"><ele>130.33333333333334</ele><time>2026-03-28T14:42:12.507Z</time></trkpt><trkpt lat="44.5753344" lon="10.6554048"><ele>130.66666666666666</ele><time>2026-03-28T14:42:13.504Z</time></trkpt><trkpt lat="44.5752062" lon="10.6553178"><ele>131.0</ele><time>2026-03-28T14:42:14.501Z</time></trkpt><trkpt lat="44.5750386" lon="10.6552408"><ele>131.0</ele><time>2026-03-28T14:42:15.5Z</time></trkpt><trkpt lat="44.5748744" lon="10.65509"><ele>131.0</ele><time>2026-03-28T14:42:16.496Z</time></trkpt><trkpt lat="44.5747379" lon="10.6549593"><ele>131.0</ele><time>2026-03-28T14:42:17.5Z</time></trkpt><trkpt lat="44.5745795" lon="10.6548314"><ele>131.0</ele><time>2026-03-28T14:42:18.507Z</time></trkpt><trkpt lat="44.5744109" lon="10.654687"><ele>131.0</ele><time>2026-03-28T14:42:19.52Z</time></trkpt><trkpt lat="44.5742273" lon="10.654538"><ele>131.0</ele><time>2026-03-28T14:42:20.513Z</time></trkpt><trkpt lat="44.574047" lon="10.65441"><ele>131.0</ele><time>2026-03-28T14:42:21.522Z</time></trkpt><trkpt lat="44.5738868" lon="10.6542698"><ele>131.0</ele><time>2026-03-28T14:42:22.51Z</time></trkpt><trkpt lat="44.5737097" lon="10.6541329"><ele>131.0</ele><time>2026-03-28T14:42:23.511Z</time></trkpt><trkpt lat="44.5735336" lon="10.6539952"><ele>129.0</ele><time>2026-03-28T14:42:24.506Z</time></trkpt><trkpt lat="44.5733589" lon="10.6538772"><ele>127.0</ele><time>2026-03-28T14:42:25.508Z</time></trkpt><trkpt lat="44.5731666" lon="10.6537574"><ele>125.0</ele><time>2026-03-28T14:42:26.51Z</time></trkpt><trkpt lat="44.5729751" lon="10.653666"><ele>127.0</ele><time>2026-03-28T14:42:27.509Z</time></trkpt><trkpt lat="44.5727946" lon="10.6535839"><ele>129.0</ele><time>2026-03-28T14:42:28.518Z</time></trkpt><trkpt lat="44.5726034" lon="10.6535289"><ele>131.0</ele><time>2026-03-28T14:42:29.509Z</time></trkpt><trkpt lat="44.5724046" lon="10.6534937"><ele>131.0</ele><time>2026-03-28T14:42:30.508Z</time></trkpt><trkpt lat="44.5722039" lon="10.6535056"><ele>131.0</ele><time>2026-03-28T14:42:31.507Z</time></trkpt><trkpt lat="44.5720057" lon="10.6534959"><ele>131.0</ele><time>2026-03-28T14:42:32.506Z</time></trkpt><trkpt lat="44.571819" lon="10.653507"><ele>131.33333333333331</ele><time>2026-03-28T14:42:33.514Z</time></trkpt><trkpt lat="44.5716236" lon="10.6535104"><ele>131.66666666666666</ele><time>2026-03-28T14:42:34.509Z</time></trkpt><trkpt lat="44.5714351" lon="10.6535085"><ele>132.0</ele><time>2026-03-28T14:42:35.508Z</time></trkpt><trkpt lat="44.5712489" lon="10.6535135"><ele>132.66666666666666</ele><time>2026-03-28T14:42:36.516Z</time></trkpt><trkpt lat="44.5710541" lon="10.6535248"><ele>133.33333333333331</ele><time>2026-03-28T14:42:37.505Z</time></trkpt><trkpt lat="44.5708608" lon="10.653529"><ele>134.0</ele><time>2026-03-28T14:42:38.506Z</time></trkpt><trkpt lat="44.5706779" lon="10.6535162"><ele>134.0</ele><time>2026-03-28T14:42:39.503Z</time></trkpt><trkpt lat="44.5704877" lon="10.6534897"><ele>134.0</ele><time>2026-03-28T14:42:40.499Z</time></trkpt><trkpt lat="44.570289" lon="10.6534169"><ele>134.0</ele><time>2026-03-28T14:42:41.502Z</time></trkpt><trkpt lat="44.5700991" lon="10.6533442"><ele>134.0</ele><time>2026-03-28T14:42:42.508Z</time></trkpt><trkpt lat="44.5699316" lon="10.6532648"><ele>134.0</ele><time>2026-03-28T14:42:43.512Z</time></trkpt><trkpt lat="44.5697306" lon="10.6531782"><ele>134.0</ele><time>2026-03-28T14:42:44.513Z</time></trkpt><trkpt lat="44.5695411" lon="10.6530966"><ele>134.0</ele><time>2026-03-28T14:42:45.512Z</time></trkpt><trkpt lat="44.5693417" lon="10.6530301"><ele>134.0</ele><time>2026-03-28T14:42:46.511Z</time></trkpt><trkpt lat="44.5691452" lon="10.6529635"><ele>134.0</ele><time>2026-03-28T14:42:47.515Z</time></trkpt><trkpt lat="44.5689795" lon="10.6528945"><ele>135.33333333333331</ele><time>2026-03-28T14:42:48.501Z</time></trkpt><trkpt lat="44.5688169" lon="10.6527504"><ele>136.66666666666666</ele><time>2026-03-28T14:42:49.516Z</time></trkpt><trkpt lat="44.5686864" lon="10.652566"><ele>138.0</ele><time>2026-03-28T14:42:50.505Z</time></trkpt><trkpt lat="44.5685772" lon="10.6523765"><ele>138.0</ele><time>2026-03-28T14:42:51.511Z</time></trkpt><trkpt lat="44.5684463" lon="10.6521862"><ele>138.0</ele><time>2026-03-28T14:42:52.502Z</time></trkpt><trkpt lat="44.5682684" lon="10.6520512"><ele>138.0</ele><time>2026-03-28T14:42:53.505Z</time></trkpt><trkpt lat="44.5681047" lon="10.6520126"><ele>138.0</ele><time>2026-03-28T14:42:54.509Z</time></trkpt><trkpt lat="44.5679261" lon="10.652002"><ele>138.0</ele><time>2026-03-28T14:42:55.501Z</time></trkpt><trkpt lat="44.5677289" lon="10.6519784"><ele>138.0</ele><time>2026-03-28T14:42:56.51Z</time></trkpt><trkpt lat="44.5675364" lon="10.6519453"><ele>141.33333333333334</ele><time>2026-03-28T14:42:57.497Z</time></trkpt><trkpt lat="44.5673447" lon="10.6518762"><ele>144.66666666666669</ele><time>2026-03-28T14:42:58.496Z</time></trkpt><trkpt lat="44.5671569" lon="10.6517895"><ele>148.0</ele><time>2026-03-28T14:42:59.506Z</time></trkpt><trkpt lat="44.5669821" lon="10.6516955"><ele>148.0</ele><time>2026-03-28T14:43:00.502Z</time></trkpt><trkpt lat="44.5667964" lon="10.6515985"><ele>148.0</ele><time>2026-03-28T14:43:01.512Z</time></trkpt><trkpt lat="44.5666237" lon="10.6515004"><ele>148.0</ele><time>2026-03-28T14:43:02.509Z</time></trkpt><trkpt lat="44.5664483" lon="10.6514218"><ele>148.0</ele><time>2026-03-28T14:43:03.52Z</time></trkpt><trkpt lat="44.5662955" lon="10.6513493"><ele>148.0</ele><time>2026-03-28T14:43:04.511Z</time></trkpt><trkpt lat="44.5661275" lon="10.6512636"><ele>148.0</ele><time>2026-03-28T14:43:05.51Z</time></trkpt><trkpt lat="44.5659679" lon="10.6512016"><ele>149.33333333333334</ele><time>2026-03-28T14:43:06.514Z</time></trkpt><trkpt lat="44.5658315" lon="10.6511303"><ele>150.66666666666666</ele><time>2026-03-28T14:43:07.514Z</time></trkpt><trkpt lat="44.5656734" lon="10.6510665"><ele>152.0</ele><time>2026-03-28T14:43:08.515Z</time></trkpt><trkpt lat="44.5655352" lon="10.6510257"><ele>152.0</ele><time>2026-03-28T14:43:09.508Z</time></trkpt><trkpt lat="44.5653748" lon="10.6509834"><ele>152.0</ele><time>2026-03-28T14:43:10.508Z</time></trkpt><trkpt lat="44.5652126" lon="10.6509585"><ele>152.0</ele><time>2026-03-28T14:43:11.511Z</time></trkpt><trkpt lat="44.5650525" lon="10.6509374"><ele>151.25</ele><time>2026-03-28T14:43:12.516Z</time></trkpt><trkpt lat="44.5649044" lon="10.650918"><ele>150.5</ele><time>2026-03-28T14:43:13.513Z</time></trkpt><trkpt lat="44.5647606" lon="10.6508889"><ele>149.75</ele><time>2026-03-28T14:43:14.515Z</time></trkpt><trkpt lat="44.5646223" lon="10.6508515"><ele>149.0</ele><time>2026-03-28T14:43:15.511Z</time></trkpt><trkpt lat="44.5644934" lon="10.6508179"><ele>149.0</ele><time>2026-03-28T14:43:16.507Z</time></trkpt><trkpt lat="44.5643615" lon="10.650809"><ele>149.0</ele><time>2026-03-28T14:43:17.509Z</time></trkpt><trkpt lat="44.5642159" lon="10.6508232"><ele>149.0</ele><time>2026-03-28T14:43:18.507Z</time></trkpt><trkpt lat="44.5640777" lon="10.6508556"><ele>149.0</ele><time>2026-03-28T14:43:19.509Z</time></trkpt><trkpt lat="44.563954" lon="10.6509085"><ele>149.0</ele><time>2026-03-28T14:43:20.504Z</time></trkpt><trkpt lat="44.5638304" lon="10.6509625"><ele>149.0</ele><time>2026-03-28T14:43:21.519Z</time></trkpt><trkpt lat="44.5637093" lon="10.6510179"><ele>149.0</ele><time>2026-03-28T14:43:22.503Z</time></trkpt><trkpt lat="44.5635789" lon="10.651064"><ele>149.0</ele><time>2026-03-28T14:43:23.5Z</time></trkpt><trkpt lat="44.563453" lon="10.6511108"><ele>146.25</ele><time>2026-03-28T14:43:24.506Z</time></trkpt><trkpt lat="44.5633366" lon="10.6511719"><ele>143.5</ele><time>2026-03-28T14:43:25.507Z</time></trkpt><trkpt lat="44.5632114" lon="10.6512084"><ele>140.75</ele><time>2026-03-28T14:43:26.51Z</time></trkpt><trkpt lat="44.5630771" lon="10.6512359"><ele>138.0</ele><time>2026-03-28T14:43:27.505Z</time></trkpt><trkpt lat="44.5629534" lon="10.651258"><ele>138.25</ele><time>2026-03-28T14:43:28.515Z</time></trkpt><trkpt lat="44.5628217" lon="10.6512725"><ele>138.5</ele><time>2026-03-28T14:43:29.506Z</time></trkpt><trkpt lat="44.5626923" lon="10.6512706"><ele>138.75</ele><time>2026-03-28T14:43:30.506Z</time></trkpt><trkpt lat="44.5625502" lon="10.6512726"><ele>139.0</ele><time>2026-03-28T14:43:31.51Z</time></trkpt><trkpt lat="44.5624162" lon="10.6512642"><ele>139.0</ele><time>2026-03-28T14:43:32.517Z</time></trkpt><trkpt lat="44.5622927" lon="10.6512494"><ele>139.0</ele><time>2026-03-28T14:43:33.52Z</time></trkpt><trkpt lat="44.5621655" lon="10.6512054"><ele>139.0</ele><time>2026-03-28T14:43:34.522Z</time></trkpt><trkpt lat="44.5620426" lon="10.6511472"><ele>139.0</ele><time>2026-03-28T14:43:35.514Z</time></trkpt><trkpt lat="44.56193" lon="10.6510842"><ele>141.75</ele><time>2026-03-28T14:43:36.515Z</time></trkpt><trkpt lat="44.5618198" lon="10.6510359"><ele>144.5</ele><time>2026-03-28T14:43:37.508Z</time></trkpt><trkpt lat="44.5617005" lon="10.651006"><ele>147.25</ele><time>2026-03-28T14:43:38.503Z</time></trkpt><trkpt lat="44.5615761" lon="10.6509976"><ele>150.0</ele><time>2026-03-28T14:43:39.504Z</time></trkpt><trkpt lat="44.5614482" lon="10.6510018"><ele>150.0</ele><time>2026-03-28T14:43:40.502Z</time></trkpt><trkpt lat="44.5613106" lon="10.6510149"><ele>150.0</ele><time>2026-03-28T14:43:41.509Z</time></trkpt><trkpt lat="44.5611772" lon="10.651052"><ele>150.0</ele><time>2026-03-28T14:43:42.512Z</time></trkpt><trkpt lat="44.5610411" lon="10.6510633"><ele>150.0</ele><time>2026-03-28T14:43:43.511Z</time></trkpt><trkpt lat="44.5609053" lon="10.6510771"><ele>150.0</ele><time>2026-03-28T14:43:44.503Z</time></trkpt><trkpt lat="44.5607736" lon="10.6510847"><ele>150.0</ele><time>2026-03-28T14:43:45.516Z</time></trkpt><trkpt lat="44.560639" lon="10.6510894"><ele>150.0</ele><time>2026-03-28T14:43:46.505Z</time></trkpt><trkpt lat="44.5604922" lon="10.6510824"><ele>150.0</ele><time>2026-03-28T14:43:47.504Z</time></trkpt><trkpt lat="44.5603535" lon="10.6510941"><ele>149.5</ele><time>2026-03-28T14:43:48.5Z</time></trkpt><trkpt lat="44.5602285" lon="10.6510835"><ele>149.0</ele><time>2026-03-28T14:43:49.501Z</time></trkpt><trkpt lat="44.5600973" lon="10.6510473"><ele>148.5</ele><time>2026-03-28T14:43:50.506Z</time></trkpt><trkpt lat="44.5599634" lon="10.6510131"><ele>148.0</ele><time>2026-03-28T14:43:51.51Z</time></trkpt><trkpt lat="44.559831" lon="10.6509799"><ele>148.0</ele><time>2026-03-28T14:43:52.514Z</time></trkpt><trkpt lat="44.559713" lon="10.6509453"><ele>148.0</ele><time>2026-03-28T14:43:53.511Z</time></trkpt><trkpt lat="44.5596013" lon="10.6509144"><ele>148.0</ele><time>2026-03-28T14:43:54.519Z</time></trkpt><trkpt lat="44.5594873" lon="10.6508801"><ele>148.0</ele><time>2026-03-28T14:43:55.513Z</time></trkpt><trkpt lat="44.5593801" lon="10.6508371"><ele>147.0</ele><time>2026-03-28T14:43:56.512Z</time></trkpt><trkpt lat="44.5592724" lon="10.6507673"><ele>146.0</ele><time>2026-03-28T14:43:57.513Z</time></trkpt><trkpt lat="44.5591655" lon="10.6506574"><ele>145.0</ele><time>2026-03-28T14:43:58.515Z</time></trkpt><trkpt lat="44.5590719" lon="10.6505196"><ele>144.0</ele><time>2026-03-28T14:43:59.506Z</time></trkpt><trkpt lat="44.5589963" lon="10.6503677"><ele>145.25</ele><time>2026-03-28T14:44:00.514Z</time></trkpt><trkpt lat="44.5589333" lon="10.6501811"><ele>146.5</ele><time>2026-03-28T14:44:01.508Z</time></trkpt><trkpt lat="44.5588869" lon="10.6499972"><ele>147.75</ele><time>2026-03-28T14:44:02.512Z</time></trkpt><trkpt lat="44.5588534" lon="10.6498402"><ele>149.0</ele><time>2026-03-28T14:44:03.517Z</time></trkpt><trkpt lat="44.5587872" lon="10.6496954"><ele>149.0</ele><time>2026-03-28T14:44:04.513Z</time></trkpt><trkpt lat="44.5587521" lon="10.6495907"><ele>149.0</ele><time>2026-03-28T14:44:05.51Z</time></trkpt><trkpt lat="44.5586775" lon="10.6494735"><ele>149.0</ele><time>2026-03-28T14:44:06.507Z</time></trkpt><trkpt lat="44.5586149" lon="10.6493696"><ele>149.0</ele><time>2026-03-28T14:44:07.509Z</time></trkpt><trkpt lat="44.5585509" lon="10.6492558"><ele>149.0</ele><time>2026-03-28T14:44:08.504Z</time></trkpt><trkpt lat="44.5584866" lon="10.6491639"><ele>149.0</ele><time>2026-03-28T14:44:09.512Z</time></trkpt><trkpt lat="44.5584245" lon="10.649074"><ele>149.0</ele><time>2026-03-28T14:44:10.512Z</time></trkpt><trkpt lat="44.5583582" lon="10.6489829"><ele>149.0</ele><time>2026-03-28T14:44:11.513Z</time></trkpt><trkpt lat="44.558281" lon="10.648904"><ele>149.0</ele><time>2026-03-28T14:44:12.513Z</time></trkpt><trkpt lat="44.5581971" lon="10.6488235"><ele>149.0</ele><time>2026-03-28T14:44:13.511Z</time></trkpt><trkpt lat="44.5581183" lon="10.64875"><ele>149.0</ele><time>2026-03-28T14:44:14.507Z</time></trkpt><trkpt lat="44.5580567" lon="10.6486858"><ele>149.0</ele><time>2026-03-28T14:44:15.509Z</time></trkpt><trkpt lat="44.5580066" lon="10.6485205"><ele>149.0</ele><time>2026-03-28T14:44:17.52Z</time></trkpt><trkpt lat="44.5579777" lon="10.648393"><ele>149.0</ele><time>2026-03-28T14:44:18.519Z</time></trkpt><trkpt lat="44.5579516" lon="10.6482729"><ele>149.0</ele><time>2026-03-28T14:44:19.514Z</time></trkpt><trkpt lat="44.5579198" lon="10.6481395"><ele>148.66666666666666</ele><time>2026-03-28T14:44:20.519Z</time></trkpt><trkpt lat="44.5578843" lon="10.6480166"><ele>148.33333333333331</ele><time>2026-03-28T14:44:21.52Z</time></trkpt><trkpt lat="44.5578571" lon="10.6479035"><ele>148.0</ele><time>2026-03-28T14:44:22.519Z</time></trkpt><trkpt lat="44.5578265" lon="10.6478038"><ele>147.66666666666666</ele><time>2026-03-28T14:44:23.52Z</time></trkpt><trkpt lat="44.5577894" lon="10.6476908"><ele>147.33333333333334</ele><time>2026-03-28T14:44:24.526Z</time></trkpt><trkpt lat="44.5577534" lon="10.6475597"><ele>147.0</ele><time>2026-03-28T14:44:25.515Z</time></trkpt><trkpt lat="44.5577063" lon="10.6474182"><ele>147.0</ele><time>2026-03-28T14:44:26.529Z</time></trkpt><trkpt lat="44.5576484" lon="10.6472656"><ele>147.0</ele><time>2026-03-28T14:44:27.517Z</time></trkpt><trkpt lat="44.5575859" lon="10.647115"><ele>147.0</ele><time>2026-03-28T14:44:28.517Z</time></trkpt><trkpt lat="44.5575071" lon="10.6469655"><ele>147.0</ele><time>2026-03-28T14:44:29.52Z</time></trkpt><trkpt lat="44.5574293" lon="10.6468208"><ele>147.25</ele><time>2026-03-28T14:44:30.517Z</time></trkpt><trkpt lat="44.5573462" lon="10.6466687"><ele>147.5</ele><time>2026-03-28T14:44:31.517Z</time></trkpt><trkpt lat="44.557255" lon="10.6465161"><ele>147.75</ele><time>2026-03-28T14:44:32.53Z</time></trkpt><trkpt lat="44.5571566" lon="10.6463611"><ele>148.0</ele><time>2026-03-28T14:44:33.529Z</time></trkpt><trkpt lat="44.557063" lon="10.6461989"><ele>146.33333333333334</ele><time>2026-03-28T14:44:34.521Z</time></trkpt><trkpt lat="44.5569725" lon="10.6460372"><ele>144.66666666666666</ele><time>2026-03-28T14:44:35.521Z</time></trkpt><trkpt lat="44.5568739" lon="10.6458644"><ele>143.0</ele><time>2026-03-28T14:44:36.521Z</time></trkpt><trkpt lat="44.5567939" lon="10.6456855"><ele>143.0</ele><time>2026-03-28T14:44:37.521Z</time></trkpt><trkpt lat="44.5567419" lon="10.6454953"><ele>143.0</ele><time>2026-03-28T14:44:38.515Z</time></trkpt><trkpt lat="44.55672" lon="10.6452778"><ele>143.0</ele><time>2026-03-28T14:44:39.514Z</time></trkpt><trkpt lat="44.5567079" lon="10.6450744"><ele>143.0</ele><time>2026-03-28T14:44:40.516Z</time></trkpt><trkpt lat="44.5566884" lon="10.6448667"><ele>144.33333333333331</ele><time>2026-03-28T14:44:41.514Z</time></trkpt><trkpt lat="44.5566697" lon="10.6446505"><ele>145.66666666666666</ele><time>2026-03-28T14:44:42.523Z</time></trkpt><trkpt lat="44.5566232" lon="10.6444335"><ele>147.0</ele><time>2026-03-28T14:44:43.518Z</time></trkpt><trkpt lat="44.556598" lon="10.6442203"><ele>148.66666666666666</ele><time>2026-03-28T14:44:44.518Z</time></trkpt><trkpt lat="44.5565728" lon="10.6440011"><ele>150.33333333333331</ele><time>2026-03-28T14:44:45.52Z</time></trkpt><trkpt lat="44.5565298" lon="10.6437961"><ele>152.0</ele><time>2026-03-28T14:44:46.517Z</time></trkpt><trkpt lat="44.5565095" lon="10.6436002"><ele>153.0</ele><time>2026-03-28T14:44:47.535Z</time></trkpt><trkpt lat="44.5564821" lon="10.6433777"><ele>154.0</ele><time>2026-03-28T14:44:48.52Z</time></trkpt><trkpt lat="44.5564471" lon="10.6431577"><ele>155.0</ele><time>2026-03-28T14:44:49.518Z</time></trkpt><trkpt lat="44.5564273" lon="10.6429565"><ele>155.25</ele><time>2026-03-28T14:44:50.523Z</time></trkpt><trkpt lat="44.5563892" lon="10.6427363"><ele>155.5</ele><time>2026-03-28T14:44:51.521Z</time></trkpt><trkpt lat="44.5563748" lon="10.642541"><ele>155.75</ele><time>2026-03-28T14:44:52.529Z</time></trkpt><trkpt lat="44.5563778" lon="10.642361"><ele>156.0</ele><time>2026-03-28T14:44:53.519Z</time></trkpt><trkpt lat="44.5564093" lon="10.6421826"><ele>156.0</ele><time>2026-03-28T14:44:54.526Z</time></trkpt><trkpt lat="44.5564497" lon="10.6419993"><ele>156.0</ele><time>2026-03-28T14:44:55.514Z</time></trkpt><trkpt lat="44.5565005" lon="10.6418052"><ele>156.0</ele><time>2026-03-28T14:44:56.514Z</time></trkpt><trkpt lat="44.5565943" lon="10.6416075"><ele>155.66666666666666</ele><time>2026-03-28T14:44:57.517Z</time></trkpt><trkpt lat="44.5566829" lon="10.6413755"><ele>155.33333333333331</ele><time>2026-03-28T14:44:58.518Z</time></trkpt><trkpt lat="44.5567777" lon="10.6411418"><ele>155.0</ele><time>2026-03-28T14:44:59.516Z</time></trkpt><trkpt lat="44.5568805" lon="10.640923"><ele>155.33333333333331</ele><time>2026-03-28T14:45:00.52Z</time></trkpt><trkpt lat="44.5569963" lon="10.6406997"><ele>155.66666666666666</ele><time>2026-03-28T14:45:01.512Z</time></trkpt><trkpt lat="44.5571184" lon="10.6404771"><ele>156.0</ele><time>2026-03-28T14:45:02.504Z</time></trkpt><trkpt lat="44.5572173" lon="10.6402633"><ele>156.0</ele><time>2026-03-28T14:45:03.515Z</time></trkpt><trkpt lat="44.5573255" lon="10.6400401"><ele>156.0</ele><time>2026-03-28T14:45:04.508Z</time></trkpt><trkpt lat="44.5574066" lon="10.6397869"><ele>156.0</ele><time>2026-03-28T14:45:05.508Z</time></trkpt><trkpt lat="44.5574277" lon="10.6395075"><ele>156.0</ele><time>2026-03-28T14:45:06.507Z</time></trkpt><trkpt lat="44.5574496" lon="10.6392494"><ele>156.0</ele><time>2026-03-28T14:45:07.505Z</time></trkpt><trkpt lat="44.5574887" lon="10.6389997"><ele>156.0</ele><time>2026-03-28T14:45:08.505Z</time></trkpt><trkpt lat="44.5575365" lon="10.6387724"><ele>155.66666666666666</ele><time>2026-03-28T14:45:09.506Z</time></trkpt><trkpt lat="44.5575597" lon="10.638536"><ele>155.33333333333331</ele><time>2026-03-28T14:45:10.511Z</time></trkpt><trkpt lat="44.5575599" lon="10.6383026"><ele>155.0</ele><time>2026-03-28T14:45:11.506Z</time></trkpt><trkpt lat="44.5575124" lon="10.6380658"><ele>155.0</ele><time>2026-03-28T14:45:12.513Z</time></trkpt><trkpt lat="44.5574573" lon="10.6378361"><ele>155.0</ele><time>2026-03-28T14:45:13.507Z</time></trkpt><trkpt lat="44.5573672" lon="10.6375994"><ele>155.0</ele><time>2026-03-28T14:45:14.511Z</time></trkpt><trkpt lat="44.557285" lon="10.6373727"><ele>156.0</ele><time>2026-03-28T14:45:15.512Z</time></trkpt><trkpt lat="44.5572079" lon="10.6371441"><ele>157.0</ele><time>2026-03-28T14:45:16.521Z</time></trkpt><trkpt lat="44.5571303" lon="10.6369286"><ele>158.0</ele><time>2026-03-28T14:45:17.518Z</time></trkpt><trkpt lat="44.5570475" lon="10.6366997"><ele>158.66666666666666</ele><time>2026-03-28T14:45:18.526Z</time></trkpt><trkpt lat="44.5569625" lon="10.6364588"><ele>159.33333333333334</ele><time>2026-03-28T14:45:19.514Z</time></trkpt><trkpt lat="44.5568976" lon="10.6362279"><ele>160.0</ele><time>2026-03-28T14:45:20.515Z</time></trkpt><trkpt lat="44.5568283" lon="10.6359906"><ele>160.0</ele><time>2026-03-28T14:45:21.513Z</time></trkpt><trkpt lat="44.5567894" lon="10.6357624"><ele>160.0</ele><time>2026-03-28T14:45:22.515Z</time></trkpt><trkpt lat="44.5567396" lon="10.6355163"><ele>160.0</ele><time>2026-03-28T14:45:23.51Z</time></trkpt><trkpt lat="44.5566941" lon="10.6352682"><ele>159.66666666666669</ele><time>2026-03-28T14:45:24.517Z</time></trkpt><trkpt lat="44.5566636" lon="10.635027"><ele>159.33333333333334</ele><time>2026-03-28T14:45:25.515Z</time></trkpt><trkpt lat="44.5566147" lon="10.6347686"><ele>159.0</ele><time>2026-03-28T14:45:26.511Z</time></trkpt><trkpt lat="44.5565813" lon="10.6345383"><ele>159.0</ele><time>2026-03-28T14:45:27.514Z</time></trkpt><trkpt lat="44.5565398" lon="10.6342792"><ele>159.0</ele><time>2026-03-28T14:45:28.513Z</time></trkpt><trkpt lat="44.5564808" lon="10.6340268"><ele>159.0</ele><time>2026-03-28T14:45:29.518Z</time></trkpt><trkpt lat="44.5564417" lon="10.6337808"><ele>159.66666666666666</ele><time>2026-03-28T14:45:30.513Z</time></trkpt><trkpt lat="44.5564012" lon="10.6335202"><ele>160.33333333333331</ele><time>2026-03-28T14:45:31.514Z</time></trkpt><trkpt lat="44.5563468" lon="10.6332788"><ele>161.0</ele><time>2026-03-28T14:45:32.517Z</time></trkpt><trkpt lat="44.5562982" lon="10.6330253"><ele>161.0</ele><time>2026-03-28T14:45:33.526Z</time></trkpt><trkpt lat="44.5562619" lon="10.6327598"><ele>161.0</ele><time>2026-03-28T14:45:34.517Z</time></trkpt><trkpt lat="44.5562157" lon="10.6324949"><ele>161.0</ele><time>2026-03-28T14:45:35.522Z</time></trkpt><trkpt lat="44.5561756" lon="10.6322395"><ele>161.0</ele><time>2026-03-28T14:45:36.517Z</time></trkpt><trkpt lat="44.5561316" lon="10.6319955"><ele>161.0</ele><time>2026-03-28T14:45:37.519Z</time></trkpt><trkpt lat="44.5560795" lon="10.6317265"><ele>161.0</ele><time>2026-03-28T14:45:38.521Z</time></trkpt><trkpt lat="44.556022" lon="10.631463"><ele>160.66666666666666</ele><time>2026-03-28T14:45:39.521Z</time></trkpt><trkpt lat="44.5559784" lon="10.6312068"><ele>160.33333333333334</ele><time>2026-03-28T14:45:40.52Z</time></trkpt><trkpt lat="44.5559314" lon="10.6309369"><ele>160.0</ele><time>2026-03-28T14:45:41.521Z</time></trkpt><trkpt lat="44.5558914" lon="10.6306778"><ele>161.33333333333334</ele><time>2026-03-28T14:45:42.519Z</time></trkpt><trkpt lat="44.5558577" lon="10.6304149"><ele>162.66666666666666</ele><time>2026-03-28T14:45:43.527Z</time></trkpt><trkpt lat="44.5558312" lon="10.6301479"><ele>164.0</ele><time>2026-03-28T14:45:44.523Z</time></trkpt><trkpt lat="44.5558037" lon="10.6299048"><ele>165.66666666666666</ele><time>2026-03-28T14:45:45.522Z</time></trkpt><trkpt lat="44.5558024" lon="10.6296436"><ele>167.33333333333334</ele><time>2026-03-28T14:45:46.526Z</time></trkpt><trkpt lat="44.5557879" lon="10.6294049"><ele>169.0</ele><time>2026-03-28T14:45:47.523Z</time></trkpt><trkpt lat="44.5557831" lon="10.6291716"><ele>169.0</ele><time>2026-03-28T14:45:48.517Z</time></trkpt><trkpt lat="44.5557632" lon="10.6289452"><ele>169.0</ele><time>2026-03-28T14:45:49.532Z</time></trkpt><trkpt lat="44.555768" lon="10.6287316"><ele>169.0</ele><time>2026-03-28T14:45:50.517Z</time></trkpt><trkpt lat="44.5557529" lon="10.6285134"><ele>169.0</ele><time>2026-03-28T14:45:51.52Z</time></trkpt><trkpt lat="44.5557484" lon="10.6282821"><ele>169.0</ele><time>2026-03-28T14:45:52.521Z</time></trkpt><trkpt lat="44.5557336" lon="10.6280617"><ele>169.0</ele><time>2026-03-28T14:45:53.517Z</time></trkpt><trkpt lat="44.5557257" lon="10.627833"><ele>169.0</ele><time>2026-03-28T14:45:54.533Z</time></trkpt><trkpt lat="44.5556984" lon="10.6276169"><ele>169.0</ele><time>2026-03-28T14:45:55.521Z</time></trkpt><trkpt lat="44.5556905" lon="10.6274073"><ele>169.0</ele><time>2026-03-28T14:45:56.524Z</time></trkpt><trkpt lat="44.5556884" lon="10.6271797"><ele>169.66666666666669</ele><time>2026-03-28T14:45:57.523Z</time></trkpt><trkpt lat="44.555678" lon="10.6269746"><ele>170.33333333333334</ele><time>2026-03-28T14:45:58.518Z</time></trkpt><trkpt lat="44.5556615" lon="10.6267605"><ele>171.0</ele><time>2026-03-28T14:45:59.517Z</time></trkpt><trkpt lat="44.5556463" lon="10.6265399"><ele>171.0</ele><time>2026-03-28T14:46:00.516Z</time></trkpt><trkpt lat="44.5556379" lon="10.6263053"><ele>171.0</ele><time>2026-03-28T14:46:01.516Z</time></trkpt><trkpt lat="44.5556248" lon="10.6260907"><ele>171.0</ele><time>2026-03-28T14:46:02.516Z</time></trkpt><trkpt lat="44.5556012" lon="10.625876"><ele>172.33333333333334</ele><time>2026-03-28T14:46:03.527Z</time></trkpt><trkpt lat="44.5555607" lon="10.6256665"><ele>173.66666666666669</ele><time>2026-03-28T14:46:04.513Z</time></trkpt><trkpt lat="44.5554794" lon="10.6254442"><ele>175.0</ele><time>2026-03-28T14:46:05.52Z</time></trkpt><trkpt lat="44.5553786" lon="10.6252049"><ele>174.66666666666669</ele><time>2026-03-28T14:46:06.513Z</time></trkpt><trkpt lat="44.5552884" lon="10.6249662"><ele>174.33333333333334</ele><time>2026-03-28T14:46:07.513Z</time></trkpt><trkpt lat="44.5552092" lon="10.6247192"><ele>174.0</ele><time>2026-03-28T14:46:08.511Z</time></trkpt><trkpt lat="44.5551201" lon="10.6244759"><ele>174.66666666666666</ele><time>2026-03-28T14:46:09.516Z</time></trkpt><trkpt lat="44.5550237" lon="10.624235"><ele>175.33333333333331</ele><time>2026-03-28T14:46:10.511Z</time></trkpt><trkpt lat="44.5549492" lon="10.6240115"><ele>176.0</ele><time>2026-03-28T14:46:11.51Z</time></trkpt><trkpt lat="44.5548746" lon="10.6237804"><ele>177.66666666666666</ele><time>2026-03-28T14:46:12.513Z</time></trkpt><trkpt lat="44.5548199" lon="10.623557"><ele>179.33333333333334</ele><time>2026-03-28T14:46:13.509Z</time></trkpt><trkpt lat="44.5547521" lon="10.6233251"><ele>181.0</ele><time>2026-03-28T14:46:14.517Z</time></trkpt><trkpt lat="44.5547248" lon="10.6231254"><ele>181.0</ele><time>2026-03-28T14:46:15.509Z</time></trkpt><trkpt lat="44.5547024" lon="10.6229476"><ele>181.0</ele><time>2026-03-28T14:46:16.511Z</time></trkpt><trkpt lat="44.5546631" lon="10.6227726"><ele>181.0</ele><time>2026-03-28T14:46:17.506Z</time></trkpt><trkpt lat="44.5546399" lon="10.6226051"><ele>181.0</ele><time>2026-03-28T14:46:18.499Z</time></trkpt><trkpt lat="44.5546362" lon="10.6224341"><ele>181.66666666666669</ele><time>2026-03-28T14:46:19.509Z</time></trkpt><trkpt lat="44.5546531" lon="10.6222366"><ele>182.33333333333334</ele><time>2026-03-28T14:46:20.514Z</time></trkpt><trkpt lat="44.5546772" lon="10.6220257"><ele>183.0</ele><time>2026-03-28T14:46:21.512Z</time></trkpt><trkpt lat="44.554719" lon="10.6218122"><ele>183.0</ele><time>2026-03-28T14:46:22.522Z</time></trkpt><trkpt lat="44.5547636" lon="10.621584"><ele>183.0</ele><time>2026-03-28T14:46:23.514Z</time></trkpt><trkpt lat="44.5547843" lon="10.6213774"><ele>183.0</ele><time>2026-03-28T14:46:24.516Z</time></trkpt><trkpt lat="44.5547462" lon="10.6211305"><ele>183.33333333333334</ele><time>2026-03-28T14:46:25.502Z</time></trkpt><trkpt lat="44.5546963" lon="10.6208918"><ele>183.66666666666669</ele><time>2026-03-28T14:46:26.509Z</time></trkpt><trkpt lat="44.5546177" lon="10.620639"><ele>184.0</ele><time>2026-03-28T14:46:27.518Z</time></trkpt><trkpt lat="44.5545338" lon="10.6203908"><ele>182.66666666666669</ele><time>2026-03-28T14:46:28.513Z</time></trkpt><trkpt lat="44.5544731" lon="10.6201488"><ele>181.33333333333334</ele><time>2026-03-28T14:46:29.516Z</time></trkpt><trkpt lat="44.5544173" lon="10.6198915"><ele>180.0</ele><time>2026-03-28T14:46:30.517Z</time></trkpt><trkpt lat="44.5543888" lon="10.6196509"><ele>180.66666666666666</ele><time>2026-03-28T14:46:31.513Z</time></trkpt><trkpt lat="44.5543561" lon="10.6194024"><ele>181.33333333333331</ele><time>2026-03-28T14:46:32.513Z</time></trkpt><trkpt lat="44.5543091" lon="10.6191646"><ele>182.0</ele><time>2026-03-28T14:46:33.519Z</time></trkpt><trkpt lat="44.5542537" lon="10.6189086"><ele>182.0</ele><time>2026-03-28T14:46:34.51Z</time></trkpt><trkpt lat="44.5541706" lon="10.6186768"><ele>182.0</ele><time>2026-03-28T14:46:35.507Z</time></trkpt><trkpt lat="44.5540645" lon="10.6184546"><ele>182.0</ele><time>2026-03-28T14:46:36.516Z</time></trkpt><trkpt lat="44.5539481" lon="10.6182162"><ele>182.0</ele><time>2026-03-28T14:46:37.516Z</time></trkpt><trkpt lat="44.5538347" lon="10.6179834"><ele>182.0</ele><time>2026-03-28T14:46:38.525Z</time></trkpt><trkpt lat="44.553748" lon="10.6177751"><ele>182.0</ele><time>2026-03-28T14:46:39.515Z</time></trkpt><trkpt lat="44.5536438" lon="10.6175678"><ele>182.0</ele><time>2026-03-28T14:46:40.514Z</time></trkpt><trkpt lat="44.5535644" lon="10.6173401"><ele>182.0</ele><time>2026-03-28T14:46:41.51Z</time></trkpt><trkpt lat="44.5535134" lon="10.6171022"><ele>182.0</ele><time>2026-03-28T14:46:42.508Z</time></trkpt><trkpt lat="44.5534878" lon="10.6168449"><ele>182.33333333333331</ele><time>2026-03-28T14:46:43.509Z</time></trkpt><trkpt lat="44.5534929" lon="10.6165698"><ele>182.66666666666666</ele><time>2026-03-28T14:46:44.51Z</time></trkpt><trkpt lat="44.5534792" lon="10.6163012"><ele>183.0</ele><time>2026-03-28T14:46:45.515Z</time></trkpt><trkpt lat="44.5534856" lon="10.6160418"><ele>183.0</ele><time>2026-03-28T14:46:46.509Z</time></trkpt><trkpt lat="44.5534851" lon="10.6157926"><ele>183.0</ele><time>2026-03-28T14:46:47.509Z</time></trkpt><trkpt lat="44.5534813" lon="10.6155345"><ele>183.0</ele><time>2026-03-28T14:46:48.514Z</time></trkpt><trkpt lat="44.5534993" lon="10.6153014"><ele>184.0</ele><time>2026-03-28T14:46:49.508Z</time></trkpt><trkpt lat="44.5535134" lon="10.6150846"><ele>185.0</ele><time>2026-03-28T14:46:50.52Z</time></trkpt><trkpt lat="44.5535384" lon="10.614865"><ele>186.0</ele><time>2026-03-28T14:46:51.51Z</time></trkpt><trkpt lat="44.5535926" lon="10.6146824"><ele>186.0</ele><time>2026-03-28T14:46:52.513Z</time></trkpt><trkpt lat="44.5536551" lon="10.6144915"><ele>186.0</ele><time>2026-03-28T14:46:53.511Z</time></trkpt><trkpt lat="44.5536973" lon="10.6142944"><ele>186.0</ele><time>2026-03-28T14:46:54.511Z</time></trkpt><trkpt lat="44.5537229" lon="10.6140986"><ele>186.0</ele><time>2026-03-28T14:46:55.51Z</time></trkpt><trkpt lat="44.5537234" lon="10.6139055"><ele>186.5</ele><time>2026-03-28T14:46:56.514Z</time></trkpt><trkpt lat="44.5536646" lon="10.6137349"><ele>187.0</ele><time>2026-03-28T14:46:57.527Z</time></trkpt><trkpt lat="44.5535748" lon="10.6135897"><ele>187.5</ele><time>2026-03-28T14:46:58.512Z</time></trkpt><trkpt lat="44.5534549" lon="10.6134444"><ele>188.0</ele><time>2026-03-28T14:46:59.507Z</time></trkpt><trkpt lat="44.5533342" lon="10.6132837"><ele>189.33333333333331</ele><time>2026-03-28T14:47:00.51Z</time></trkpt><trkpt lat="44.5532143" lon="10.6131307"><ele>190.66666666666666</ele><time>2026-03-28T14:47:01.508Z</time></trkpt><trkpt lat="44.5530823" lon="10.6129701"><ele>192.0</ele><time>2026-03-28T14:47:02.515Z</time></trkpt><trkpt lat="44.5529466" lon="10.6127806"><ele>192.25</ele><time>2026-03-28T14:47:03.516Z</time></trkpt><trkpt lat="44.5528377" lon="10.6126308"><ele>192.5</ele><time>2026-03-28T14:47:04.505Z</time></trkpt><trkpt lat="44.5527515" lon="10.6124648"><ele>192.75</ele><time>2026-03-28T14:47:05.508Z</time></trkpt><trkpt lat="44.5526942" lon="10.6123156"><ele>193.0</ele><time>2026-03-28T14:47:06.503Z</time></trkpt><trkpt lat="44.5526725" lon="10.6121582"><ele>192.8</ele><time>2026-03-28T14:47:07.506Z</time></trkpt><trkpt lat="44.5526735" lon="10.6119805"><ele>192.60000000000002</ele><time>2026-03-28T14:47:08.501Z</time></trkpt><trkpt lat="44.5526844" lon="10.6118303"><ele>192.39999999999998</ele><time>2026-03-28T14:47:09.503Z</time></trkpt><trkpt lat="44.5527086" lon="10.611712"><ele>192.2</ele><time>2026-03-28T14:47:10.51Z</time></trkpt><trkpt lat="44.5527458" lon="10.6115957"><ele>192.0</ele><time>2026-03-28T14:47:11.51Z</time></trkpt><trkpt lat="44.5527638" lon="10.611479"><ele>192.0</ele><time>2026-03-28T14:47:12.508Z</time></trkpt><trkpt lat="44.5527861" lon="10.6113787"><ele>192.0</ele><time>2026-03-28T14:47:13.512Z</time></trkpt><trkpt lat="44.5528155" lon="10.6112689"><ele>192.0</ele><time>2026-03-28T14:47:15.505Z</time></trkpt><trkpt lat="44.552861" lon="10.611186"><ele>192.0</ele><time>2026-03-28T14:47:26.521Z</time></trkpt><trkpt lat="44.552894" lon="10.6111053"><ele>192.0</ele><time>2026-03-28T14:47:27.512Z</time></trkpt><trkpt lat="44.5529418" lon="10.6109975"><ele>192.0</ele><time>2026-03-28T14:47:28.509Z</time></trkpt><trkpt lat="44.5530061" lon="10.6108521"><ele>192.5</ele><time>2026-03-28T14:47:29.514Z</time></trkpt><trkpt lat="44.5530765" lon="10.6106838"><ele>193.0</ele><time>2026-03-28T14:47:30.515Z</time></trkpt><trkpt lat="44.553157" lon="10.6105235"><ele>193.5</ele><time>2026-03-28T14:47:31.505Z</time></trkpt><trkpt lat="44.5532393" lon="10.6103486"><ele>194.0</ele><time>2026-03-28T14:47:32.514Z</time></trkpt><trkpt lat="44.5533303" lon="10.610149"><ele>195.66666666666669</ele><time>2026-03-28T14:47:33.513Z</time></trkpt><trkpt lat="44.5534334" lon="10.609974"><ele>197.33333333333331</ele><time>2026-03-28T14:47:34.509Z</time></trkpt><trkpt lat="44.5535165" lon="10.609797"><ele>199.0</ele><time>2026-03-28T14:47:35.51Z</time></trkpt><trkpt lat="44.5535994" lon="10.6096219"><ele>199.25</ele><time>2026-03-28T14:47:36.513Z</time></trkpt><trkpt lat="44.5536615" lon="10.6094378"><ele>199.5</ele><time>2026-03-28T14:47:37.519Z</time></trkpt><trkpt lat="44.5537366" lon="10.6092817"><ele>199.75</ele><time>2026-03-28T14:47:38.513Z</time></trkpt><trkpt lat="44.5538072" lon="10.6091396"><ele>200.0</ele><time>2026-03-28T14:47:39.518Z</time></trkpt><trkpt lat="44.5538968" lon="10.6090225"><ele>203.0</ele><time>2026-03-28T14:47:40.504Z</time></trkpt><trkpt lat="44.5540014" lon="10.6089168"><ele>206.0</ele><time>2026-03-28T14:47:41.519Z</time></trkpt><trkpt lat="44.5541342" lon="10.6088462"><ele>209.0</ele><time>2026-03-28T14:47:42.519Z</time></trkpt><trkpt lat="44.5542377" lon="10.6087583"><ele>212.0</ele><time>2026-03-28T14:47:43.513Z</time></trkpt><trkpt lat="44.5543265" lon="10.6086391"><ele>212.0</ele><time>2026-03-28T14:47:44.516Z</time></trkpt><trkpt lat="44.55439" lon="10.6084974"><ele>212.0</ele><time>2026-03-28T14:47:45.52Z</time></trkpt><trkpt lat="44.5544118" lon="10.6083198"><ele>212.0</ele><time>2026-03-28T14:47:46.515Z</time></trkpt><trkpt lat="44.5544081" lon="10.6080919"><ele>212.0</ele><time>2026-03-28T14:47:47.509Z</time></trkpt><trkpt lat="44.5543591" lon="10.6078364"><ele>211.0</ele><time>2026-03-28T14:47:48.503Z</time></trkpt><trkpt lat="44.5543626" lon="10.6076233"><ele>210.0</ele><time>2026-03-28T14:47:49.502Z</time></trkpt><trkpt lat="44.5543682" lon="10.6074015"><ele>209.0</ele><time>2026-03-28T14:47:50.505Z</time></trkpt><trkpt lat="44.5544008" lon="10.6071654"><ele>209.33333333333334</ele><time>2026-03-28T14:47:51.508Z</time></trkpt><trkpt lat="44.5544543" lon="10.6069444"><ele>209.66666666666669</ele><time>2026-03-28T14:47:52.505Z</time></trkpt><trkpt lat="44.5544927" lon="10.6067457"><ele>210.0</ele><time>2026-03-28T14:47:53.511Z</time></trkpt><trkpt lat="44.5545356" lon="10.6065255"><ele>213.0</ele><time>2026-03-28T14:47:54.511Z</time></trkpt><trkpt lat="44.5545612" lon="10.6063073"><ele>216.0</ele><time>2026-03-28T14:47:55.508Z</time></trkpt><trkpt lat="44.5545896" lon="10.6060936"><ele>219.0</ele><time>2026-03-28T14:47:56.513Z</time></trkpt><trkpt lat="44.5546126" lon="10.6058752"><ele>220.0</ele><time>2026-03-28T14:47:57.506Z</time></trkpt><trkpt lat="44.5546223" lon="10.6056562"><ele>221.0</ele><time>2026-03-28T14:47:58.517Z</time></trkpt><trkpt lat="44.5546748" lon="10.6054342"><ele>222.0</ele><time>2026-03-28T14:47:59.504Z</time></trkpt><trkpt lat="44.5547344" lon="10.6051892"><ele>220.0</ele><time>2026-03-28T14:48:00.502Z</time></trkpt><trkpt lat="44.55482" lon="10.6049975"><ele>218.0</ele><time>2026-03-28T14:48:01.516Z</time></trkpt><trkpt lat="44.5548985" lon="10.6047861"><ele>216.0</ele><time>2026-03-28T14:48:02.505Z</time></trkpt><trkpt lat="44.5549835" lon="10.6045539"><ele>214.0</ele><time>2026-03-28T14:48:03.516Z</time></trkpt><trkpt lat="44.5550536" lon="10.6043128"><ele>212.0</ele><time>2026-03-28T14:48:04.51Z</time></trkpt><trkpt lat="44.5551345" lon="10.6040664"><ele>210.0</ele><time>2026-03-28T14:48:05.509Z</time></trkpt><trkpt lat="44.5552106" lon="10.6038243"><ele>209.0</ele><time>2026-03-28T14:48:06.507Z</time></trkpt><trkpt lat="44.5552678" lon="10.603577"><ele>208.0</ele><time>2026-03-28T14:48:07.512Z</time></trkpt><trkpt lat="44.5553279" lon="10.6033329"><ele>207.0</ele><time>2026-03-28T14:48:08.509Z</time></trkpt><trkpt lat="44.5554013" lon="10.6030863"><ele>210.66666666666669</ele><time>2026-03-28T14:48:09.508Z</time></trkpt><trkpt lat="44.5554714" lon="10.6028279"><ele>214.33333333333334</ele><time>2026-03-28T14:48:10.506Z</time></trkpt><trkpt lat="44.5555492" lon="10.6025811"><ele>218.0</ele><time>2026-03-28T14:48:11.509Z</time></trkpt><trkpt lat="44.5556243" lon="10.602345"><ele>218.0</ele><time>2026-03-28T14:48:12.502Z</time></trkpt><trkpt lat="44.5556718" lon="10.6021402"><ele>218.0</ele><time>2026-03-28T14:48:13.503Z</time></trkpt><trkpt lat="44.555674" lon="10.6019598"><ele>218.0</ele><time>2026-03-28T14:48:14.504Z</time></trkpt><trkpt lat="44.5556524" lon="10.6017581"><ele>218.0</ele><time>2026-03-28T14:48:15.508Z</time></trkpt><trkpt lat="44.555602" lon="10.6015536"><ele>218.0</ele><time>2026-03-28T14:48:16.507Z</time></trkpt><trkpt lat="44.5555547" lon="10.6013515"><ele>218.0</ele><time>2026-03-28T14:48:17.508Z</time></trkpt><trkpt lat="44.5554631" lon="10.6011801"><ele>218.0</ele><time>2026-03-28T14:48:18.508Z</time></trkpt><trkpt lat="44.5553901" lon="10.6010565"><ele>218.0</ele><time>2026-03-28T14:48:19.506Z</time></trkpt><trkpt lat="44.555352" lon="10.6009114"><ele>218.0</ele><time>2026-03-28T14:48:20.507Z</time></trkpt><trkpt lat="44.555346" lon="10.6007366"><ele>218.0</ele><time>2026-03-28T14:48:21.514Z</time></trkpt><trkpt lat="44.5553795" lon="10.6005503"><ele>218.0</ele><time>2026-03-28T14:48:22.509Z</time></trkpt><trkpt lat="44.5554103" lon="10.6003584"><ele>218.0</ele><time>2026-03-28T14:48:23.515Z</time></trkpt><trkpt lat="44.5554431" lon="10.6001704"><ele>219.5</ele><time>2026-03-28T14:48:24.518Z</time></trkpt><trkpt lat="44.5555241" lon="10.5999969"><ele>221.0</ele><time>2026-03-28T14:48:25.516Z</time></trkpt><trkpt lat="44.5556332" lon="10.5998218"><ele>222.5</ele><time>2026-03-28T14:48:26.52Z</time></trkpt><trkpt lat="44.5556999" lon="10.5996783"><ele>224.0</ele><time>2026-03-28T14:48:27.516Z</time></trkpt><trkpt lat="44.5557428" lon="10.5995425"><ele>223.2</ele><time>2026-03-28T14:48:28.518Z</time></trkpt><trkpt lat="44.5557591" lon="10.5994236"><ele>222.39999999999998</ele><time>2026-03-28T14:48:29.515Z</time></trkpt><trkpt lat="44.5557259" lon="10.5992765"><ele>221.6</ele><time>2026-03-28T14:48:30.523Z</time></trkpt><trkpt lat="44.5557071" lon="10.5991291"><ele>220.8</ele><time>2026-03-28T14:48:31.524Z</time></trkpt><trkpt lat="44.5556853" lon="10.5989856"><ele>220.0</ele><time>2026-03-28T14:48:32.513Z</time></trkpt><trkpt lat="44.5556614" lon="10.5988478"><ele>220.0</ele><time>2026-03-28T14:48:33.531Z</time></trkpt><trkpt lat="44.5556295" lon="10.5987067"><ele>220.0</ele><time>2026-03-28T14:48:34.52Z</time></trkpt><trkpt lat="44.5555998" lon="10.5985756"><ele>220.0</ele><time>2026-03-28T14:48:35.512Z</time></trkpt><trkpt lat="44.5555706" lon="10.5984408"><ele>220.0</ele><time>2026-03-28T14:48:36.511Z</time></trkpt><trkpt lat="44.5555163" lon="10.5983156"><ele>220.0</ele><time>2026-03-28T14:48:37.507Z</time></trkpt><trkpt lat="44.5554339" lon="10.5982002"><ele>220.25</ele><time>2026-03-28T14:48:38.508Z</time></trkpt><trkpt lat="44.5553362" lon="10.5980822"><ele>220.5</ele><time>2026-03-28T14:48:39.511Z</time></trkpt><trkpt lat="44.555234" lon="10.5979525"><ele>220.75</ele><time>2026-03-28T14:48:40.509Z</time></trkpt><trkpt lat="44.5551298" lon="10.5978152"><ele>221.0</ele><time>2026-03-28T14:48:41.521Z</time></trkpt><trkpt lat="44.5550314" lon="10.59768"><ele>221.0</ele><time>2026-03-28T14:48:42.507Z</time></trkpt><trkpt lat="44.5549683" lon="10.5975341"><ele>221.0</ele><time>2026-03-28T14:48:43.504Z</time></trkpt><trkpt lat="44.5549439" lon="10.5973664"><ele>221.0</ele><time>2026-03-28T14:48:44.503Z</time></trkpt><trkpt lat="44.5549828" lon="10.5972018"><ele>221.0</ele><time>2026-03-28T14:48:45.5Z</time></trkpt><trkpt lat="44.5550476" lon="10.5970431"><ele>222.25</ele><time>2026-03-28T14:48:46.509Z</time></trkpt><trkpt lat="44.5550748" lon="10.5968639"><ele>223.5</ele><time>2026-03-28T14:48:47.506Z</time></trkpt><trkpt lat="44.5550761" lon="10.5966739"><ele>224.75</ele><time>2026-03-28T14:48:48.495Z</time></trkpt><trkpt lat="44.5550957" lon="10.5964804"><ele>226.0</ele><time>2026-03-28T14:48:49.504Z</time></trkpt><trkpt lat="44.5550918" lon="10.5962949"><ele>228.0</ele><time>2026-03-28T14:48:50.506Z</time></trkpt><trkpt lat="44.5551252" lon="10.5961458"><ele>230.0</ele><time>2026-03-28T14:48:51.5Z</time></trkpt><trkpt lat="44.5551831" lon="10.5960283"><ele>232.0</ele><time>2026-03-28T14:48:52.507Z</time></trkpt><trkpt lat="44.5552652" lon="10.5958957"><ele>234.0</ele><time>2026-03-28T14:48:53.494Z</time></trkpt><trkpt lat="44.5553411" lon="10.5957581"><ele>237.75</ele><time>2026-03-28T14:48:54.498Z</time></trkpt><trkpt lat="44.5554375" lon="10.5956054"><ele>241.5</ele><time>2026-03-28T14:48:55.488Z</time></trkpt><trkpt lat="44.5554722" lon="10.5954564"><ele>245.25</ele><time>2026-03-28T14:48:56.498Z</time></trkpt><trkpt lat="44.5554854" lon="10.5952935"><ele>249.0</ele><time>2026-03-28T14:48:57.486Z</time></trkpt><trkpt lat="44.5554849" lon="10.5951148"><ele>249.0</ele><time>2026-03-28T14:48:58.494Z</time></trkpt><trkpt lat="44.5554892" lon="10.5949432"><ele>248.99999999999997</ele><time>2026-03-28T14:48:59.495Z</time></trkpt><trkpt lat="44.5554959" lon="10.5947967"><ele>248.99999999999997</ele><time>2026-03-28T14:49:00.488Z</time></trkpt><trkpt lat="44.5555024" lon="10.5946672"><ele>249.0</ele><time>2026-03-28T14:49:01.506Z</time></trkpt><trkpt lat="44.5555195" lon="10.5945711"><ele>249.0</ele><time>2026-03-28T14:49:02.489Z</time></trkpt><trkpt lat="44.5555272" lon="10.5944518"><ele>248.5</ele><time>2026-03-28T14:49:04.495Z</time></trkpt><trkpt lat="44.5555818" lon="10.5943774"><ele>248.0</ele><time>2026-03-28T14:49:07.498Z</time></trkpt><trkpt lat="44.5556355" lon="10.5942807"><ele>247.5</ele><time>2026-03-28T14:49:09.502Z</time></trkpt><trkpt lat="44.5557225" lon="10.5941568"><ele>247.0</ele><time>2026-03-28T14:49:11.496Z</time></trkpt><trkpt lat="44.5557699" lon="10.5940835"><ele>246.5</ele><time>2026-03-28T14:49:12.501Z</time></trkpt><trkpt lat="44.5558324" lon="10.5939943"><ele>246.0</ele><time>2026-03-28T14:49:13.496Z</time></trkpt><trkpt lat="44.5559016" lon="10.5939062"><ele>246.0</ele><time>2026-03-28T14:49:14.504Z</time></trkpt><trkpt lat="44.5559638" lon="10.5938201"><ele>246.0</ele><time>2026-03-28T14:49:15.495Z</time></trkpt><trkpt lat="44.5560096" lon="10.5937395"><ele>246.0</ele><time>2026-03-28T14:49:16.488Z</time></trkpt><trkpt lat="44.5559832" lon="10.5936047"><ele>246.0</ele><time>2026-03-28T14:49:18.487Z</time></trkpt><trkpt lat="44.5559192" lon="10.5935794"><ele>246.0</ele><time>2026-03-28T14:49:19.495Z</time></trkpt><trkpt lat="44.5558557" lon="10.5936309"><ele>246.0</ele><time>2026-03-28T14:49:20.492Z</time></trkpt><trkpt lat="44.5557742" lon="10.5936898"><ele>246.0</ele><time>2026-03-28T14:49:21.485Z</time></trkpt><trkpt lat="44.555669" lon="10.5937616"><ele>246.00000000000003</ele><time>2026-03-28T14:49:22.488Z</time></trkpt><trkpt lat="44.555567" lon="10.5938126"><ele>246.00000000000003</ele><time>2026-03-28T14:49:23.491Z</time></trkpt><trkpt lat="44.5554817" lon="10.5938227"><ele>246.0</ele><time>2026-03-28T14:49:24.511Z</time></trkpt><trkpt lat="44.5554034" lon="10.5937525"><ele>246.0</ele><time>2026-03-28T14:49:26.511Z</time></trkpt><trkpt lat="44.5554138" lon="10.593665"><ele>247.0</ele><time>2026-03-28T14:49:27.512Z</time></trkpt><trkpt lat="44.5554801" lon="10.5935817"><ele>248.0</ele><time>2026-03-28T14:49:28.495Z</time></trkpt><trkpt lat="44.5555654" lon="10.5934757"><ele>249.0</ele><time>2026-03-28T14:49:29.504Z</time></trkpt><trkpt lat="44.5556393" lon="10.5933253"><ele>250.0</ele><time>2026-03-28T14:49:30.509Z</time></trkpt><trkpt lat="44.5556889" lon="10.5931294"><ele>250.0</ele><time>2026-03-28T14:49:31.5Z</time></trkpt><trkpt lat="44.5557156" lon="10.5929382"><ele>250.0</ele><time>2026-03-28T14:49:32.515Z</time></trkpt><trkpt lat="44.5557315" lon="10.5927523"><ele>250.0</ele><time>2026-03-28T14:49:33.507Z</time></trkpt><trkpt lat="44.5557474" lon="10.592601"><ele>250.0</ele><time>2026-03-28T14:49:34.504Z</time></trkpt><trkpt lat="44.5557845" lon="10.5924804"><ele>251.49999999999997</ele><time>2026-03-28T14:49:35.502Z</time></trkpt><trkpt lat="44.5558309" lon="10.592413"><ele>253.0</ele><time>2026-03-28T14:49:36.499Z</time></trkpt><trkpt lat="44.555803" lon="10.5922906"><ele>254.5</ele><time>2026-03-28T14:49:38.499Z</time></trkpt><trkpt lat="44.5557347" lon="10.5922627"><ele>256.0</ele><time>2026-03-28T14:49:39.497Z</time></trkpt><trkpt lat="44.5556648" lon="10.5923054"><ele>257.5</ele><time>2026-03-28T14:49:40.509Z</time></trkpt><trkpt lat="44.5556064" lon="10.5923655"><ele>259.0</ele><time>2026-03-28T14:49:41.498Z</time></trkpt><trkpt lat="44.5555026" lon="10.5923482"><ele>259.0</ele><time>2026-03-28T14:49:43.504Z</time></trkpt><trkpt lat="44.5554663" lon="10.5922464"><ele>259.0</ele><time>2026-03-28T14:49:44.505Z</time></trkpt><trkpt lat="44.5554627" lon="10.5921185"><ele>259.0</ele><time>2026-03-28T14:49:45.506Z</time></trkpt><trkpt lat="44.5554689" lon="10.591981"><ele>259.0</ele><time>2026-03-28T14:49:46.505Z</time></trkpt><trkpt lat="44.5554838" lon="10.5918392"><ele>259.0</ele><time>2026-03-28T14:49:47.506Z</time></trkpt><trkpt lat="44.5554966" lon="10.5916773"><ele>261.25</ele><time>2026-03-28T14:49:48.508Z</time></trkpt><trkpt lat="44.5555115" lon="10.5915138"><ele>263.5</ele><time>2026-03-28T14:49:49.507Z</time></trkpt><trkpt lat="44.5555542" lon="10.5913299"><ele>265.75</ele><time>2026-03-28T14:49:50.511Z</time></trkpt><trkpt lat="44.5555963" lon="10.5911402"><ele>268.0</ele><time>2026-03-28T14:49:51.514Z</time></trkpt><trkpt lat="44.555651" lon="10.5909715"><ele>270.0</ele><time>2026-03-28T14:49:52.517Z</time></trkpt><trkpt lat="44.5556879" lon="10.5908052"><ele>272.0</ele><time>2026-03-28T14:49:53.51Z</time></trkpt><trkpt lat="44.5557073" lon="10.5906572"><ele>274.0</ele><time>2026-03-28T14:49:54.532Z</time></trkpt><trkpt lat="44.5557122" lon="10.5904996"><ele>276.0</ele><time>2026-03-28T14:49:55.517Z</time></trkpt><trkpt lat="44.5557078" lon="10.5903376"><ele>277.5</ele><time>2026-03-28T14:49:56.521Z</time></trkpt><trkpt lat="44.5556879" lon="10.59017"><ele>279.0</ele><time>2026-03-28T14:49:57.518Z</time></trkpt><trkpt lat="44.5556642" lon="10.5899824"><ele>280.5</ele><time>2026-03-28T14:49:58.516Z</time></trkpt><trkpt lat="44.5556357" lon="10.5897943"><ele>282.0</ele><time>2026-03-28T14:49:59.516Z</time></trkpt><trkpt lat="44.5556242" lon="10.5896117"><ele>284.0</ele><time>2026-03-28T14:50:00.515Z</time></trkpt><trkpt lat="44.5556185" lon="10.5894347"><ele>286.0</ele><time>2026-03-28T14:50:01.516Z</time></trkpt><trkpt lat="44.5556297" lon="10.5892587"><ele>288.0</ele><time>2026-03-28T14:50:02.512Z</time></trkpt><trkpt lat="44.5556581" lon="10.5890826"><ele>290.0</ele><time>2026-03-28T14:50:03.516Z</time></trkpt><trkpt lat="44.5557226" lon="10.5889072"><ele>290.0</ele><time>2026-03-28T14:50:04.506Z</time></trkpt><trkpt lat="44.5558173" lon="10.5887436"><ele>290.0</ele><time>2026-03-28T14:50:05.502Z</time></trkpt><trkpt lat="44.5559371" lon="10.5885753"><ele>290.0</ele><time>2026-03-28T14:50:06.509Z</time></trkpt><trkpt lat="44.5560153" lon="10.588402"><ele>293.6666666666667</ele><time>2026-03-28T14:50:07.51Z</time></trkpt><trkpt lat="44.5561023" lon="10.5882231"><ele>297.3333333333333</ele><time>2026-03-28T14:50:08.513Z</time></trkpt><trkpt lat="44.5561679" lon="10.5880445"><ele>301.0</ele><time>2026-03-28T14:50:09.511Z</time></trkpt><trkpt lat="44.5562108" lon="10.5878332"><ele>302.3333333333333</ele><time>2026-03-28T14:50:10.504Z</time></trkpt><trkpt lat="44.5562399" lon="10.5876348"><ele>303.6666666666667</ele><time>2026-03-28T14:50:11.517Z</time></trkpt><trkpt lat="44.5562614" lon="10.5874212"><ele>305.0</ele><time>2026-03-28T14:50:12.51Z</time></trkpt><trkpt lat="44.5562992" lon="10.5872145"><ele>305.0</ele><time>2026-03-28T14:50:13.507Z</time></trkpt><trkpt lat="44.5563356" lon="10.5870362"><ele>305.0</ele><time>2026-03-28T14:50:14.508Z</time></trkpt><trkpt lat="44.5563747" lon="10.5868753"><ele>305.0</ele><time>2026-03-28T14:50:15.508Z</time></trkpt><trkpt lat="44.5563627" lon="10.5867213"><ele>305.0</ele><time>2026-03-28T14:50:16.506Z</time></trkpt><trkpt lat="44.5563173" lon="10.5866222"><ele>305.0</ele><time>2026-03-28T14:50:17.517Z</time></trkpt><trkpt lat="44.5562202" lon="10.5865784"><ele>307.4</ele><time>2026-03-28T14:50:18.515Z</time></trkpt><trkpt lat="44.5561159" lon="10.586595"><ele>309.8</ele><time>2026-03-28T14:50:19.518Z</time></trkpt><trkpt lat="44.5560115" lon="10.5865768"><ele>312.2</ele><time>2026-03-28T14:50:20.516Z</time></trkpt><trkpt lat="44.5559271" lon="10.5865101"><ele>314.6</ele><time>2026-03-28T14:50:21.522Z</time></trkpt><trkpt lat="44.5558601" lon="10.5864087"><ele>317.0</ele><time>2026-03-28T14:50:22.517Z</time></trkpt><trkpt lat="44.5558247" lon="10.5862752"><ele>318.25</ele><time>2026-03-28T14:50:23.518Z</time></trkpt><trkpt lat="44.5558601" lon="10.5861115"><ele>319.5</ele><time>2026-03-28T14:50:24.518Z</time></trkpt><trkpt lat="44.55594" lon="10.5859502"><ele>320.75</ele><time>2026-03-28T14:50:25.499Z</time></trkpt><trkpt lat="44.5560265" lon="10.5857708"><ele>322.0</ele><time>2026-03-28T14:50:26.504Z</time></trkpt><trkpt lat="44.5561182" lon="10.5855664"><ele>326.0</ele><time>2026-03-28T14:50:27.51Z</time></trkpt><trkpt lat="44.5562286" lon="10.5853323"><ele>330.0</ele><time>2026-03-28T14:50:28.509Z</time></trkpt><trkpt lat="44.5563128" lon="10.5851247"><ele>334.0</ele><time>2026-03-28T14:50:29.516Z</time></trkpt><trkpt lat="44.5563814" lon="10.5849236"><ele>334.0</ele><time>2026-03-28T14:50:30.511Z</time></trkpt><trkpt lat="44.556459" lon="10.5847119"><ele>334.0</ele><time>2026-03-28T14:50:31.512Z</time></trkpt><trkpt lat="44.5565341" lon="10.584472"><ele>334.0</ele><time>2026-03-28T14:50:32.515Z</time></trkpt><trkpt lat="44.556594" lon="10.5842324"><ele>336.3333333333333</ele><time>2026-03-28T14:50:33.519Z</time></trkpt><trkpt lat="44.556661" lon="10.5840012"><ele>338.6666666666667</ele><time>2026-03-28T14:50:34.522Z</time></trkpt><trkpt lat="44.556721" lon="10.5837747"><ele>341.0</ele><time>2026-03-28T14:50:35.512Z</time></trkpt><trkpt lat="44.556798" lon="10.5835628"><ele>342.6666666666667</ele><time>2026-03-28T14:50:36.518Z</time></trkpt><trkpt lat="44.5568601" lon="10.5833452"><ele>344.3333333333333</ele><time>2026-03-28T14:50:37.514Z</time></trkpt><trkpt lat="44.5569319" lon="10.5831425"><ele>346.0</ele><time>2026-03-28T14:50:38.515Z</time></trkpt><trkpt lat="44.5570188" lon="10.5829378"><ele>350.66666666666663</ele><time>2026-03-28T14:50:39.507Z</time></trkpt><trkpt lat="44.5571334" lon="10.5827606"><ele>355.3333333333333</ele><time>2026-03-28T14:50:40.506Z</time></trkpt><trkpt lat="44.5572552" lon="10.5826128"><ele>360.0</ele><time>2026-03-28T14:50:41.518Z</time></trkpt><trkpt lat="44.5573814" lon="10.5824742"><ele>360.0</ele><time>2026-03-28T14:50:42.52Z</time></trkpt><trkpt lat="44.5574741" lon="10.5823387"><ele>360.0</ele><time>2026-03-28T14:50:43.523Z</time></trkpt><trkpt lat="44.5575866" lon="10.5821863"><ele>360.0</ele><time>2026-03-28T14:50:44.527Z</time></trkpt><trkpt lat="44.5576706" lon="10.5820477"><ele>360.0</ele><time>2026-03-28T14:50:45.52Z</time></trkpt><trkpt lat="44.5577476" lon="10.5819088"><ele>361.6</ele><time>2026-03-28T14:50:46.515Z</time></trkpt><trkpt lat="44.5578109" lon="10.5817597"><ele>363.2</ele><time>2026-03-28T14:50:47.522Z</time></trkpt><trkpt lat="44.5578658" lon="10.5816198"><ele>364.79999999999995</ele><time>2026-03-28T14:50:48.517Z</time></trkpt><trkpt lat="44.5579008" lon="10.5814729"><ele>366.4</ele><time>2026-03-28T14:50:49.527Z</time></trkpt><trkpt lat="44.5579588" lon="10.5813621"><ele>368.0</ele><time>2026-03-28T14:50:50.513Z</time></trkpt><trkpt lat="44.5580389" lon="10.5812789"><ele>368.79999999999995</ele><time>2026-03-28T14:50:51.518Z</time></trkpt><trkpt lat="44.5581301" lon="10.5812581"><ele>369.6</ele><time>2026-03-28T14:50:52.52Z</time></trkpt><trkpt lat="44.5582257" lon="10.5813015"><ele>370.4</ele><time>2026-03-28T14:50:53.512Z</time></trkpt><trkpt lat="44.5583178" lon="10.5813987"><ele>371.20000000000005</ele><time>2026-03-28T14:50:54.511Z</time></trkpt><trkpt lat="44.558417" lon="10.5815121"><ele>372.0</ele><time>2026-03-28T14:50:55.51Z</time></trkpt><trkpt lat="44.5585206" lon="10.5815994"><ele>372.0</ele><time>2026-03-28T14:50:56.505Z</time></trkpt><trkpt lat="44.5586304" lon="10.5816599"><ele>372.0</ele><time>2026-03-28T14:50:57.503Z</time></trkpt><trkpt lat="44.5587594" lon="10.5816798"><ele>372.0</ele><time>2026-03-28T14:50:58.508Z</time></trkpt><trkpt lat="44.5588821" lon="10.5816825"><ele>372.0</ele><time>2026-03-28T14:50:59.506Z</time></trkpt><trkpt lat="44.5589892" lon="10.5816836"><ele>372.40000000000003</ele><time>2026-03-28T14:51:00.513Z</time></trkpt><trkpt lat="44.5590971" lon="10.5816638"><ele>372.8</ele><time>2026-03-28T14:51:01.508Z</time></trkpt><trkpt lat="44.5592032" lon="10.5816181"><ele>373.2</ele><time>2026-03-28T14:51:02.504Z</time></trkpt><trkpt lat="44.5592912" lon="10.5815303"><ele>373.6</ele><time>2026-03-28T14:51:03.513Z</time></trkpt><trkpt lat="44.559364" lon="10.581414"><ele>374.0</ele><time>2026-03-28T14:51:04.502Z</time></trkpt><trkpt lat="44.5594219" lon="10.581288"><ele>376.0</ele><time>2026-03-28T14:51:05.506Z</time></trkpt><trkpt lat="44.5594575" lon="10.5811582"><ele>378.0</ele><time>2026-03-28T14:51:06.51Z</time></trkpt><trkpt lat="44.5594556" lon="10.5810234"><ele>380.0</ele><time>2026-03-28T14:51:07.499Z</time></trkpt><trkpt lat="44.5594364" lon="10.5808791"><ele>382.0</ele><time>2026-03-28T14:51:08.511Z</time></trkpt><trkpt lat="44.5594308" lon="10.5807121"><ele>384.0</ele><time>2026-03-28T14:51:09.503Z</time></trkpt><trkpt lat="44.5594399" lon="10.5805462"><ele>384.0</ele><time>2026-03-28T14:51:10.5Z</time></trkpt><trkpt lat="44.5594751" lon="10.5803835"><ele>384.0</ele><time>2026-03-28T14:51:11.503Z</time></trkpt><trkpt lat="44.559534" lon="10.5802599"><ele>384.0</ele><time>2026-03-28T14:51:12.501Z</time></trkpt><trkpt lat="44.5596301" lon="10.5801641"><ele>384.0</ele><time>2026-03-28T14:51:13.503Z</time></trkpt><trkpt lat="44.5597293" lon="10.5800691"><ele>384.0</ele><time>2026-03-28T14:51:14.515Z</time></trkpt><trkpt lat="44.5598245" lon="10.579956"><ele>384.0</ele><time>2026-03-28T14:51:15.504Z</time></trkpt><trkpt lat="44.5599108" lon="10.5798392"><ele>384.0</ele><time>2026-03-28T14:51:16.505Z</time></trkpt><trkpt lat="44.5599877" lon="10.5797263"><ele>384.0</ele><time>2026-03-28T14:51:17.499Z</time></trkpt><trkpt lat="44.560074" lon="10.5796396"><ele>384.0</ele><time>2026-03-28T14:51:18.507Z</time></trkpt><trkpt lat="44.5601715" lon="10.5795758"><ele>384.0</ele><time>2026-03-28T14:51:19.506Z</time></trkpt><trkpt lat="44.5602765" lon="10.5795509"><ele>384.0</ele><time>2026-03-28T14:51:20.501Z</time></trkpt><trkpt lat="44.5603801" lon="10.5795118"><ele>384.0</ele><time>2026-03-28T14:51:21.507Z</time></trkpt><trkpt lat="44.5604764" lon="10.57945"><ele>384.0</ele><time>2026-03-28T14:51:22.506Z</time></trkpt><trkpt lat="44.5605748" lon="10.5793724"><ele>386.5</ele><time>2026-03-28T14:51:23.514Z</time></trkpt><trkpt lat="44.560673" lon="10.5792855"><ele>389.0</ele><time>2026-03-28T14:51:24.501Z</time></trkpt><trkpt lat="44.5607615" lon="10.5791641"><ele>391.5</ele><time>2026-03-28T14:51:25.516Z</time></trkpt><trkpt lat="44.5608542" lon="10.5790435"><ele>394.0</ele><time>2026-03-28T14:51:26.515Z</time></trkpt><trkpt lat="44.5609538" lon="10.5789038"><ele>394.0</ele><time>2026-03-28T14:51:27.503Z</time></trkpt><trkpt lat="44.5610534" lon="10.5787628"><ele>394.0</ele><time>2026-03-28T14:51:28.509Z</time></trkpt><trkpt lat="44.5611529" lon="10.5786328"><ele>394.0</ele><time>2026-03-28T14:51:29.503Z</time></trkpt><trkpt lat="44.561248" lon="10.578527"><ele>394.0</ele><time>2026-03-28T14:51:30.508Z</time></trkpt><trkpt lat="44.5613267" lon="10.578436"><ele>396.1666666666667</ele><time>2026-03-28T14:51:31.499Z</time></trkpt><trkpt lat="44.56139" lon="10.5783731"><ele>398.33333333333337</ele><time>2026-03-28T14:51:32.501Z</time></trkpt><trkpt lat="44.561454" lon="10.5783199"><ele>400.5</ele><time>2026-03-28T14:51:33.5Z</time></trkpt><trkpt lat="44.5615203" lon="10.5782472"><ele>402.66666666666663</ele><time>2026-03-28T14:51:34.49Z</time></trkpt><trkpt lat="44.5615844" lon="10.5781545"><ele>404.8333333333333</ele><time>2026-03-28T14:51:35.496Z</time></trkpt><trkpt lat="44.5616465" lon="10.5780773"><ele>407.0</ele><time>2026-03-28T14:51:36.506Z</time></trkpt><trkpt lat="44.5617103" lon="10.5780058"><ele>406.99999999999994</ele><time>2026-03-28T14:51:37.5Z</time></trkpt><trkpt lat="44.5617766" lon="10.5779105"><ele>407.0</ele><time>2026-03-28T14:51:39.51Z</time></trkpt><trkpt lat="44.5618015" lon="10.5777859"><ele>407.0</ele><time>2026-03-28T14:51:57.513Z</time></trkpt><trkpt lat="44.5617766" lon="10.5776908"><ele>407.0</ele><time>2026-03-28T14:51:59.515Z</time></trkpt><trkpt lat="44.5617277" lon="10.5776168"><ele>406.99999999999994</ele><time>2026-03-28T14:52:11.505Z</time></trkpt><trkpt lat="44.561641" lon="10.577531"><ele>407.0</ele><time>2026-03-28T14:52:13.512Z</time></trkpt><trkpt lat="44.5615575" lon="10.5774806"><ele>408.0</ele><time>2026-03-28T14:52:14.524Z</time></trkpt><trkpt lat="44.5614707" lon="10.5774551"><ele>409.0</ele><time>2026-03-28T14:52:15.521Z</time></trkpt><trkpt lat="44.561374" lon="10.5774527"><ele>410.0</ele><time>2026-03-28T14:52:16.516Z</time></trkpt><trkpt lat="44.5612666" lon="10.5774469"><ele>411.0</ele><time>2026-03-28T14:52:17.521Z</time></trkpt><trkpt lat="44.5611586" lon="10.5774322"><ele>412.0</ele><time>2026-03-28T14:52:18.51Z</time></trkpt><trkpt lat="44.5610664" lon="10.5774303"><ele>413.0</ele><time>2026-03-28T14:52:19.521Z</time></trkpt><trkpt lat="44.5609566" lon="10.5773947"><ele>414.0</ele><time>2026-03-28T14:52:21.518Z</time></trkpt><trkpt lat="44.560934" lon="10.5772695"><ele>415.0</ele><time>2026-03-28T14:52:23.507Z</time></trkpt><trkpt lat="44.5610259" lon="10.5771501"><ele>416.0</ele><time>2026-03-28T14:52:25.51Z</time></trkpt><trkpt lat="44.5610958" lon="10.5770933"><ele>417.0</ele><time>2026-03-28T14:52:26.527Z</time></trkpt><trkpt lat="44.5611525" lon="10.5769889"><ele>418.20000000000005</ele><time>2026-03-28T14:52:27.512Z</time></trkpt><trkpt lat="44.5611435" lon="10.5768648"><ele>419.4</ele><time>2026-03-28T14:52:28.517Z</time></trkpt><trkpt lat="44.5610866" lon="10.5767527"><ele>420.6</ele><time>2026-03-28T14:52:29.515Z</time></trkpt><trkpt lat="44.561008" lon="10.5766461"><ele>421.79999999999995</ele><time>2026-03-28T14:52:30.518Z</time></trkpt><trkpt lat="44.5609222" lon="10.5765416"><ele>423.0</ele><time>2026-03-28T14:52:31.509Z</time></trkpt><trkpt lat="44.5608304" lon="10.5764599"><ele>423.0</ele><time>2026-03-28T14:52:32.506Z</time></trkpt><trkpt lat="44.5607313" lon="10.5763957"><ele>423.0</ele><time>2026-03-28T14:52:33.509Z</time></trkpt><trkpt lat="44.5606206" lon="10.5763371"><ele>423.0</ele><time>2026-03-28T14:52:34.508Z</time></trkpt><trkpt lat="44.560507" lon="10.5762897"><ele>423.0</ele><time>2026-03-28T14:52:35.505Z</time></trkpt><trkpt lat="44.5604003" lon="10.5762257"><ele>424.5</ele><time>2026-03-28T14:52:36.522Z</time></trkpt><trkpt lat="44.560283" lon="10.5761469"><ele>426.0</ele><time>2026-03-28T14:52:37.517Z</time></trkpt><trkpt lat="44.5601657" lon="10.5760724"><ele>427.5</ele><time>2026-03-28T14:52:38.523Z</time></trkpt><trkpt lat="44.5600401" lon="10.5759869"><ele>429.0</ele><time>2026-03-28T14:52:39.513Z</time></trkpt><trkpt lat="44.5599358" lon="10.575884"><ele>429.0</ele><time>2026-03-28T14:52:40.516Z</time></trkpt><trkpt lat="44.5598333" lon="10.5757747"><ele>429.0</ele><time>2026-03-28T14:52:41.514Z</time></trkpt><trkpt lat="44.5597441" lon="10.5756511"><ele>429.0</ele><time>2026-03-28T14:52:42.515Z</time></trkpt><trkpt lat="44.5596743" lon="10.5755281"><ele>429.0</ele><time>2026-03-28T14:52:43.507Z</time></trkpt><trkpt lat="44.5595925" lon="10.5754276"><ele>429.4</ele><time>2026-03-28T14:52:44.504Z</time></trkpt><trkpt lat="44.5595245" lon="10.5753573"><ele>429.79999999999995</ele><time>2026-03-28T14:52:45.514Z</time></trkpt><trkpt lat="44.5594641" lon="10.5753171"><ele>430.20000000000005</ele><time>2026-03-28T14:52:46.515Z</time></trkpt><trkpt lat="44.5593596" lon="10.5752572"><ele>430.6</ele><time>2026-03-28T14:52:48.509Z</time></trkpt><trkpt lat="44.5592284" lon="10.575187"><ele>431.0</ele><time>2026-03-28T14:52:50.508Z</time></trkpt><trkpt lat="44.5591369" lon="10.5751346"><ele>432.75</ele><time>2026-03-28T14:52:51.512Z</time></trkpt><trkpt lat="44.5590396" lon="10.5750742"><ele>434.5</ele><time>2026-03-28T14:52:52.504Z</time></trkpt><trkpt lat="44.5589227" lon="10.5750088"><ele>436.25</ele><time>2026-03-28T14:52:53.503Z</time></trkpt><trkpt lat="44.5588151" lon="10.5749371"><ele>438.0</ele><time>2026-03-28T14:52:54.504Z</time></trkpt><trkpt lat="44.5587119" lon="10.5748673"><ele>437.2</ele><time>2026-03-28T14:52:55.51Z</time></trkpt><trkpt lat="44.5586171" lon="10.574815"><ele>436.4</ele><time>2026-03-28T14:52:56.511Z</time></trkpt><trkpt lat="44.5585243" lon="10.5747588"><ele>435.59999999999997</ele><time>2026-03-28T14:52:57.512Z</time></trkpt><trkpt lat="44.558431" lon="10.5747085"><ele>434.79999999999995</ele><time>2026-03-28T14:52:58.512Z</time></trkpt><trkpt lat="44.5583302" lon="10.5746623"><ele>434.0</ele><time>2026-03-28T14:52:59.526Z</time></trkpt><trkpt lat="44.5582316" lon="10.5746254"><ele>434.0</ele><time>2026-03-28T14:53:00.52Z</time></trkpt><trkpt lat="44.5581337" lon="10.5745915"><ele>434.0</ele><time>2026-03-28T14:53:01.522Z</time></trkpt><trkpt lat="44.5580379" lon="10.5745485"><ele>434.0</ele><time>2026-03-28T14:53:02.523Z</time></trkpt><trkpt lat="44.5579406" lon="10.5745158"><ele>434.0</ele><time>2026-03-28T14:53:03.527Z</time></trkpt><trkpt lat="44.5578404" lon="10.5744764"><ele>434.0</ele><time>2026-03-28T14:53:04.514Z</time></trkpt><trkpt lat="44.5577333" lon="10.5744472"><ele>432.2</ele><time>2026-03-28T14:53:05.519Z</time></trkpt><trkpt lat="44.5576265" lon="10.5744245"><ele>430.4</ele><time>2026-03-28T14:53:06.52Z</time></trkpt><trkpt lat="44.5575339" lon="10.5744029"><ele>428.6</ele><time>2026-03-28T14:53:07.517Z</time></trkpt><trkpt lat="44.5574409" lon="10.5743885"><ele>426.8</ele><time>2026-03-28T14:53:08.517Z</time></trkpt><trkpt lat="44.5573586" lon="10.5743568"><ele>425.0</ele><time>2026-03-28T14:53:09.525Z</time></trkpt><trkpt lat="44.5572626" lon="10.5743202"><ele>425.0</ele><time>2026-03-28T14:53:10.515Z</time></trkpt><trkpt lat="44.5571641" lon="10.5742881"><ele>425.0</ele><time>2026-03-28T14:53:11.52Z</time></trkpt><trkpt lat="44.5570515" lon="10.5742447"><ele>425.0</ele><time>2026-03-28T14:53:12.514Z</time></trkpt><trkpt lat="44.5569246" lon="10.574199"><ele>425.0</ele><time>2026-03-28T14:53:13.52Z</time></trkpt><trkpt lat="44.5567939" lon="10.5741471"><ele>425.5</ele><time>2026-03-28T14:53:14.507Z</time></trkpt><trkpt lat="44.5566634" lon="10.574096"><ele>426.0</ele><time>2026-03-28T14:53:15.513Z</time></trkpt><trkpt lat="44.5565246" lon="10.5740309"><ele>426.5</ele><time>2026-03-28T14:53:16.513Z</time></trkpt><trkpt lat="44.5563967" lon="10.5739716"><ele>427.0</ele><time>2026-03-28T14:53:17.516Z</time></trkpt><trkpt lat="44.5562783" lon="10.5739096"><ele>428.5</ele><time>2026-03-28T14:53:18.52Z</time></trkpt><trkpt lat="44.556174" lon="10.5738434"><ele>430.0</ele><time>2026-03-28T14:53:19.521Z</time></trkpt><trkpt lat="44.5560534" lon="10.5737537"><ele>431.5</ele><time>2026-03-28T14:53:20.515Z</time></trkpt><trkpt lat="44.5559357" lon="10.5736376"><ele>433.0</ele><time>2026-03-28T14:53:21.511Z</time></trkpt><trkpt lat="44.555821" lon="10.5735075"><ele>433.0</ele><time>2026-03-28T14:53:22.51Z</time></trkpt><trkpt lat="44.5557056" lon="10.5733686"><ele>433.0</ele><time>2026-03-28T14:53:23.51Z</time></trkpt><trkpt lat="44.555614" lon="10.5732673"><ele>433.0</ele><time>2026-03-28T14:53:24.505Z</time></trkpt><trkpt lat="44.5555064" lon="10.5731461"><ele>433.0</ele><time>2026-03-28T14:53:25.513Z</time></trkpt><trkpt lat="44.5554156" lon="10.5730562"><ele>433.0</ele><time>2026-03-28T14:53:26.508Z</time></trkpt><trkpt lat="44.5552867" lon="10.5730049"><ele>433.0</ele><time>2026-03-28T14:53:27.502Z</time></trkpt><trkpt lat="44.555167" lon="10.5729466"><ele>433.0</ele><time>2026-03-28T14:53:28.502Z</time></trkpt><trkpt lat="44.5550441" lon="10.5728745"><ele>433.0</ele><time>2026-03-28T14:53:29.503Z</time></trkpt><trkpt lat="44.5549456" lon="10.5727913"><ele>433.0</ele><time>2026-03-28T14:53:30.514Z</time></trkpt><trkpt lat="44.5548623" lon="10.5727239"><ele>433.0</ele><time>2026-03-28T14:53:31.517Z</time></trkpt><trkpt lat="44.5547687" lon="10.5726565"><ele>433.0</ele><time>2026-03-28T14:53:32.521Z</time></trkpt><trkpt lat="44.5546656" lon="10.5725676"><ele>433.0</ele><time>2026-03-28T14:53:33.521Z</time></trkpt><trkpt lat="44.5545501" lon="10.5724794"><ele>432.25</ele><time>2026-03-28T14:53:34.524Z</time></trkpt><trkpt lat="44.5544365" lon="10.5723887"><ele>431.5</ele><time>2026-03-28T14:53:35.513Z</time></trkpt><trkpt lat="44.5543168" lon="10.5722932"><ele>430.75</ele><time>2026-03-28T14:53:36.512Z</time></trkpt><trkpt lat="44.5541938" lon="10.5722002"><ele>430.0</ele><time>2026-03-28T14:53:37.519Z</time></trkpt><trkpt lat="44.5540672" lon="10.5721155"><ele>430.0</ele><time>2026-03-28T14:53:38.517Z</time></trkpt><trkpt lat="44.5539429" lon="10.5720298"><ele>430.0</ele><time>2026-03-28T14:53:39.53Z</time></trkpt><trkpt lat="44.5538459" lon="10.5719459"><ele>430.0</ele><time>2026-03-28T14:53:40.513Z</time></trkpt><trkpt lat="44.5537512" lon="10.571881"><ele>430.0</ele><time>2026-03-28T14:53:41.514Z</time></trkpt><trkpt lat="44.5536645" lon="10.5718122"><ele>430.83333333333337</ele><time>2026-03-28T14:53:42.507Z</time></trkpt><trkpt lat="44.5535805" lon="10.5717584"><ele>431.6666666666667</ele><time>2026-03-28T14:53:43.507Z</time></trkpt><trkpt lat="44.5535207" lon="10.5716998"><ele>432.5</ele><time>2026-03-28T14:53:44.506Z</time></trkpt><trkpt lat="44.5534441" lon="10.5716443"><ele>433.33333333333337</ele><time>2026-03-28T14:53:46.508Z</time></trkpt><trkpt lat="44.5533937" lon="10.5716981"><ele>434.1666666666667</ele><time>2026-03-28T14:53:49.505Z</time></trkpt><trkpt lat="44.5533055" lon="10.5717796"><ele>435.0</ele><time>2026-03-28T14:53:51.5Z</time></trkpt><trkpt lat="44.5532424" lon="10.5718251"><ele>435.0</ele><time>2026-03-28T14:53:52.497Z</time></trkpt><trkpt lat="44.5531851" lon="10.5718805"><ele>435.0</ele><time>2026-03-28T14:53:53.501Z</time></trkpt><trkpt lat="44.5531272" lon="10.5719557"><ele>435.0</ele><time>2026-03-28T14:53:54.507Z</time></trkpt><trkpt lat="44.5530597" lon="10.572046"><ele>435.0</ele><time>2026-03-28T14:53:55.506Z</time></trkpt><trkpt lat="44.5529843" lon="10.5721376"><ele>435.0</ele><time>2026-03-28T14:53:56.514Z</time></trkpt><trkpt lat="44.5529066" lon="10.5722247"><ele>435.0</ele><time>2026-03-28T14:53:57.515Z</time></trkpt><trkpt lat="44.5528355" lon="10.5723019"><ele>435.0</ele><time>2026-03-28T14:53:58.514Z</time></trkpt><trkpt lat="44.5527875" lon="10.5723705"><ele>435.0</ele><time>2026-03-28T14:53:59.526Z</time></trkpt><trkpt lat="44.5527401" lon="10.5724408"><ele>435.0</ele><time>2026-03-28T14:54:00.515Z</time></trkpt><trkpt lat="44.5526676" lon="10.5725452"><ele>435.0</ele><time>2026-03-28T14:54:02.512Z</time></trkpt><trkpt lat="44.5525988" lon="10.5726435"><ele>435.0</ele><time>2026-03-28T14:54:04.509Z</time></trkpt><trkpt lat="44.5525505" lon="10.572738"><ele>435.0</ele><time>2026-03-28T14:54:06.513Z</time></trkpt><trkpt lat="44.552491" lon="10.572839"><ele>435.0</ele><time>2026-03-28T14:54:08.518Z</time></trkpt><trkpt lat="44.5524371" lon="10.5728929"><ele>435.0</ele><time>2026-03-28T14:54:10.526Z</time></trkpt><trkpt lat="44.5525023" lon="10.5729259"><ele>435.0</ele><time>2026-03-28T14:54:16.517Z</time></trkpt><trkpt lat="44.5525385" lon="10.5728466"><ele>435.0</ele><time>2026-03-28T14:54:17.521Z</time></trkpt><trkpt lat="44.5525854" lon="10.5727374"><ele>435.0</ele><time>2026-03-28T14:54:18.511Z</time></trkpt><trkpt lat="44.5526496" lon="10.5726233"><ele>435.0</ele><time>2026-03-28T14:54:19.516Z</time></trkpt><trkpt lat="44.5527321" lon="10.5725039"><ele>435.0</ele><time>2026-03-28T14:54:20.506Z</time></trkpt><trkpt lat="44.552827" lon="10.5723586"><ele>435.0</ele><time>2026-03-28T14:54:21.514Z</time></trkpt><trkpt lat="44.5529313" lon="10.5722203"><ele>435.0</ele><time>2026-03-28T14:54:22.516Z</time></trkpt><trkpt lat="44.5530397" lon="10.5720841"><ele>435.0</ele><time>2026-03-28T14:54:23.512Z</time></trkpt><trkpt lat="44.5531283" lon="10.5719738"><ele>435.0</ele><time>2026-03-28T14:54:24.52Z</time></trkpt><trkpt lat="44.5532117" lon="10.5718916"><ele>435.0</ele><time>2026-03-28T14:54:25.509Z</time></trkpt><trkpt lat="44.5533103" lon="10.5718182"><ele>435.0</ele><time>2026-03-28T14:54:26.51Z</time></trkpt><trkpt lat="44.5534221" lon="10.571775"><ele>435.0</ele><time>2026-03-28T14:54:28.502Z</time></trkpt><trkpt lat="44.553474" lon="10.571692"><ele>435.0</ele><time>2026-03-28T14:54:30.496Z</time></trkpt><trkpt lat="44.5534471" lon="10.5715942"><ele>435.0</ele><time>2026-03-28T14:54:32.501Z</time></trkpt><trkpt lat="44.5533909" lon="10.5715341"><ele>435.0</ele><time>2026-03-28T14:54:33.518Z</time></trkpt><trkpt lat="44.5533083" lon="10.5714456"><ele>435.0</ele><time>2026-03-28T14:54:34.497Z</time></trkpt><trkpt lat="44.553202" lon="10.571351"><ele>435.0</ele><time>2026-03-28T14:54:35.503Z</time></trkpt><trkpt lat="44.5530835" lon="10.5712489"><ele>435.0</ele><time>2026-03-28T14:54:36.506Z</time></trkpt><trkpt lat="44.5529816" lon="10.571149"><ele>433.4</ele><time>2026-03-28T14:54:37.506Z</time></trkpt><trkpt lat="44.5528989" lon="10.5710408"><ele>431.8</ele><time>2026-03-28T14:54:38.504Z</time></trkpt><trkpt lat="44.5528264" lon="10.5709372"><ele>430.20000000000005</ele><time>2026-03-28T14:54:39.523Z</time></trkpt><trkpt lat="44.5527657" lon="10.5708247"><ele>428.6</ele><time>2026-03-28T14:54:40.513Z</time></trkpt><trkpt lat="44.5527139" lon="10.5707121"><ele>427.0</ele><time>2026-03-28T14:54:41.516Z</time></trkpt><trkpt lat="44.5526722" lon="10.5705902"><ele>427.0</ele><time>2026-03-28T14:54:42.518Z</time></trkpt><trkpt lat="44.5526288" lon="10.5704664"><ele>427.00000000000006</ele><time>2026-03-28T14:54:43.518Z</time></trkpt><trkpt lat="44.5525912" lon="10.5703502"><ele>427.00000000000006</ele><time>2026-03-28T14:54:44.514Z</time></trkpt><trkpt lat="44.5525494" lon="10.5702308"><ele>427.0</ele><time>2026-03-28T14:54:45.527Z</time></trkpt><trkpt lat="44.552507" lon="10.5701075"><ele>427.0</ele><time>2026-03-28T14:54:46.513Z</time></trkpt><trkpt lat="44.5524788" lon="10.5699824"><ele>426.33333333333337</ele><time>2026-03-28T14:54:47.515Z</time></trkpt><trkpt lat="44.5524696" lon="10.5698594"><ele>425.6666666666667</ele><time>2026-03-28T14:54:48.509Z</time></trkpt><trkpt lat="44.5524949" lon="10.5697378"><ele>425.0</ele><time>2026-03-28T14:54:49.512Z</time></trkpt><trkpt lat="44.5525239" lon="10.5696338"><ele>424.33333333333337</ele><time>2026-03-28T14:54:50.515Z</time></trkpt><trkpt lat="44.5525179" lon="10.5695389"><ele>423.6666666666667</ele><time>2026-03-28T14:54:51.509Z</time></trkpt><trkpt lat="44.552481" lon="10.5694557"><ele>423.0</ele><time>2026-03-28T14:54:52.519Z</time></trkpt><trkpt lat="44.55239" lon="10.5694189"><ele>420.2</ele><time>2026-03-28T14:54:53.504Z</time></trkpt><trkpt lat="44.5522955" lon="10.5693987"><ele>417.4</ele><time>2026-03-28T14:54:54.505Z</time></trkpt><trkpt lat="44.5521939" lon="10.569378"><ele>414.59999999999997</ele><time>2026-03-28T14:54:55.506Z</time></trkpt><trkpt lat="44.5520877" lon="10.5693502"><ele>411.79999999999995</ele><time>2026-03-28T14:54:56.507Z</time></trkpt><trkpt lat="44.5520135" lon="10.569282"><ele>409.0</ele><time>2026-03-28T14:54:57.519Z</time></trkpt><trkpt lat="44.5519947" lon="10.5691803"><ele>409.0</ele><time>2026-03-28T14:54:58.516Z</time></trkpt><trkpt lat="44.5520253" lon="10.5690502"><ele>409.0</ele><time>2026-03-28T14:54:59.511Z</time></trkpt><trkpt lat="44.5520766" lon="10.568932"><ele>409.0</ele><time>2026-03-28T14:55:00.52Z</time></trkpt><trkpt lat="44.5521186" lon="10.5688064"><ele>409.0</ele><time>2026-03-28T14:55:01.515Z</time></trkpt><trkpt lat="44.5521342" lon="10.5686908"><ele>409.0</ele><time>2026-03-28T14:55:02.518Z</time></trkpt><trkpt lat="44.5520275" lon="10.5685762"><ele>407.2</ele><time>2026-03-28T14:55:04.518Z</time></trkpt><trkpt lat="44.5519397" lon="10.56855"><ele>405.4</ele><time>2026-03-28T14:55:05.52Z</time></trkpt><trkpt lat="44.5518418" lon="10.5685021"><ele>403.6</ele><time>2026-03-28T14:55:06.516Z</time></trkpt><trkpt lat="44.5517584" lon="10.5683778"><ele>401.8</ele><time>2026-03-28T14:55:07.509Z</time></trkpt><trkpt lat="44.551729" lon="10.568239"><ele>400.0</ele><time>2026-03-28T14:55:08.51Z</time></trkpt><trkpt lat="44.5517279" lon="10.5680717"><ele>400.0</ele><time>2026-03-28T14:55:09.513Z</time></trkpt><trkpt lat="44.5517449" lon="10.5678949"><ele>400.0</ele><time>2026-03-28T14:55:10.517Z</time></trkpt><trkpt lat="44.5517316" lon="10.5677172"><ele>400.0</ele><time>2026-03-28T14:55:11.504Z</time></trkpt><trkpt lat="44.5516783" lon="10.5675407"><ele>400.0</ele><time>2026-03-28T14:55:12.522Z</time></trkpt><trkpt lat="44.5516072" lon="10.5673729"><ele>399.0</ele><time>2026-03-28T14:55:13.512Z</time></trkpt><trkpt lat="44.5515299" lon="10.5671842"><ele>398.0</ele><time>2026-03-28T14:55:14.509Z</time></trkpt><trkpt lat="44.5514522" lon="10.5670036"><ele>397.0</ele><time>2026-03-28T14:55:15.513Z</time></trkpt><trkpt lat="44.5513906" lon="10.5668291"><ele>396.0</ele><time>2026-03-28T14:55:16.516Z</time></trkpt><trkpt lat="44.5513413" lon="10.5666629"><ele>395.3333333333333</ele><time>2026-03-28T14:55:17.513Z</time></trkpt><trkpt lat="44.5513016" lon="10.5665101"><ele>394.66666666666663</ele><time>2026-03-28T14:55:18.52Z</time></trkpt><trkpt lat="44.5512668" lon="10.5663886"><ele>394.0</ele><time>2026-03-28T14:55:19.514Z</time></trkpt><trkpt lat="44.551232" lon="10.5662936"><ele>393.3333333333333</ele><time>2026-03-28T14:55:20.515Z</time></trkpt><trkpt lat="44.551183" lon="10.5661825"><ele>392.66666666666663</ele><time>2026-03-28T14:55:22.515Z</time></trkpt><trkpt lat="44.5511728" lon="10.5660932"><ele>392.0</ele><time>2026-03-28T14:55:26.52Z</time></trkpt><trkpt lat="44.5510799" lon="10.5660989"><ele>389.8</ele><time>2026-03-28T14:55:39.511Z</time></trkpt><trkpt lat="44.5510272" lon="10.566152"><ele>387.6</ele><time>2026-03-28T14:55:40.512Z</time></trkpt><trkpt lat="44.5509416" lon="10.5662135"><ele>385.40000000000003</ele><time>2026-03-28T14:55:41.513Z</time></trkpt><trkpt lat="44.5508454" lon="10.5662839"><ele>383.20000000000005</ele><time>2026-03-28T14:55:42.51Z</time></trkpt><trkpt lat="44.5507505" lon="10.5663475"><ele>381.0</ele><time>2026-03-28T14:55:43.516Z</time></trkpt><trkpt lat="44.5506619" lon="10.5664176"><ele>381.0</ele><time>2026-03-28T14:55:44.517Z</time></trkpt><trkpt lat="44.5506041" lon="10.5665146"><ele>381.0</ele><time>2026-03-28T14:55:45.528Z</time></trkpt><trkpt lat="44.5505928" lon="10.5666345"><ele>381.0</ele><time>2026-03-28T14:55:46.51Z</time></trkpt><trkpt lat="44.550586" lon="10.5667356"><ele>381.0</ele><time>2026-03-28T14:55:47.512Z</time></trkpt><trkpt lat="44.550526" lon="10.5668517"><ele>381.0</ele><time>2026-03-28T14:55:49.527Z</time></trkpt><trkpt lat="44.5504131" lon="10.5667028"><ele>381.0</ele><time>2026-03-28T14:55:51.522Z</time></trkpt><trkpt lat="44.5503768" lon="10.566558"><ele>381.0</ele><time>2026-03-28T14:55:52.525Z</time></trkpt><trkpt lat="44.5503735" lon="10.5663933"><ele>381.0</ele><time>2026-03-28T14:55:53.504Z</time></trkpt><trkpt lat="44.5503769" lon="10.5662186"><ele>381.0</ele><time>2026-03-28T14:55:54.508Z</time></trkpt><trkpt lat="44.5503808" lon="10.5660315"><ele>375.5</ele><time>2026-03-28T14:55:55.516Z</time></trkpt><trkpt lat="44.5503702" lon="10.5658397"><ele>370.0</ele><time>2026-03-28T14:55:56.519Z</time></trkpt><trkpt lat="44.5503413" lon="10.5656684"><ele>364.5</ele><time>2026-03-28T14:55:57.521Z</time></trkpt><trkpt lat="44.5502983" lon="10.5655091"><ele>359.0</ele><time>2026-03-28T14:55:58.51Z</time></trkpt><trkpt lat="44.5502688" lon="10.5653496"><ele>358.0</ele><time>2026-03-28T14:55:59.51Z</time></trkpt><trkpt lat="44.5502426" lon="10.5651911"><ele>357.0</ele><time>2026-03-28T14:56:00.507Z</time></trkpt><trkpt lat="44.5502245" lon="10.5650398"><ele>356.0</ele><time>2026-03-28T14:56:01.511Z</time></trkpt><trkpt lat="44.550208" lon="10.5648969"><ele>355.0</ele><time>2026-03-28T14:56:02.508Z</time></trkpt><trkpt lat="44.5502059" lon="10.5647447"><ele>354.0</ele><time>2026-03-28T14:56:03.508Z</time></trkpt><trkpt lat="44.5502254" lon="10.5645962"><ele>351.6</ele><time>2026-03-28T14:56:04.502Z</time></trkpt><trkpt lat="44.5502737" lon="10.564451"><ele>349.2</ele><time>2026-03-28T14:56:05.499Z</time></trkpt><trkpt lat="44.5503274" lon="10.5643069"><ele>346.8</ele><time>2026-03-28T14:56:06.504Z</time></trkpt><trkpt lat="44.5503365" lon="10.5641615"><ele>344.40000000000003</ele><time>2026-03-28T14:56:07.501Z</time></trkpt><trkpt lat="44.550333" lon="10.5640046"><ele>342.0</ele><time>2026-03-28T14:56:08.508Z</time></trkpt><trkpt lat="44.5503569" lon="10.5638572"><ele>342.40000000000003</ele><time>2026-03-28T14:56:09.509Z</time></trkpt><trkpt lat="44.5504042" lon="10.5637182"><ele>342.8</ele><time>2026-03-28T14:56:10.502Z</time></trkpt><trkpt lat="44.5504572" lon="10.5635895"><ele>343.2</ele><time>2026-03-28T14:56:11.5Z</time></trkpt><trkpt lat="44.5505291" lon="10.563477"><ele>343.6</ele><time>2026-03-28T14:56:12.502Z</time></trkpt><trkpt lat="44.5506025" lon="10.5633789"><ele>344.0</ele><time>2026-03-28T14:56:13.51Z</time></trkpt><trkpt lat="44.5506647" lon="10.5632706"><ele>344.0</ele><time>2026-03-28T14:56:14.505Z</time></trkpt><trkpt lat="44.5507042" lon="10.5631439"><ele>344.0</ele><time>2026-03-28T14:56:15.502Z</time></trkpt><trkpt lat="44.5507435" lon="10.563013"><ele>344.0</ele><time>2026-03-28T14:56:16.5Z</time></trkpt><trkpt lat="44.5508091" lon="10.5629067"><ele>344.0</ele><time>2026-03-28T14:56:17.5Z</time></trkpt><trkpt lat="44.5508852" lon="10.562854"><ele>344.0</ele><time>2026-03-28T14:56:18.509Z</time></trkpt><trkpt lat="44.5509677" lon="10.5628493"><ele>344.0</ele><time>2026-03-28T14:56:19.513Z</time></trkpt><trkpt lat="44.5510315" lon="10.5628936"><ele>344.0</ele><time>2026-03-28T14:56:20.502Z</time></trkpt><trkpt lat="44.5511277" lon="10.5628189"><ele>344.0</ele><time>2026-03-28T14:56:22.515Z</time></trkpt><trkpt lat="44.5511005" lon="10.5627122"><ele>344.0</ele><time>2026-03-28T14:56:23.505Z</time></trkpt><trkpt lat="44.5510317" lon="10.5626434"><ele>344.0</ele><time>2026-03-28T14:56:24.515Z</time></trkpt><trkpt lat="44.5509258" lon="10.5626168"><ele>344.0</ele><time>2026-03-28T14:56:25.505Z</time></trkpt><trkpt lat="44.5508122" lon="10.5626626"><ele>344.0</ele><time>2026-03-28T14:56:26.512Z</time></trkpt><trkpt lat="44.5506973" lon="10.5627599"><ele>344.0</ele><time>2026-03-28T14:56:27.507Z</time></trkpt><trkpt lat="44.5505919" lon="10.5628463"><ele>344.0</ele><time>2026-03-28T14:56:28.503Z</time></trkpt><trkpt lat="44.5504965" lon="10.5628984"><ele>344.0</ele><time>2026-03-28T14:56:29.509Z</time></trkpt><trkpt lat="44.55038" lon="10.5628791"><ele>344.0</ele><time>2026-03-28T14:56:30.508Z</time></trkpt><trkpt lat="44.5502758" lon="10.5628382"><ele>344.0</ele><time>2026-03-28T14:56:31.505Z</time></trkpt><trkpt lat="44.5501749" lon="10.5628205"><ele>344.0</ele><time>2026-03-28T14:56:32.49Z</time></trkpt><trkpt lat="44.550072" lon="10.5628562"><ele>344.0</ele><time>2026-03-28T14:56:33.519Z</time></trkpt><trkpt lat="44.5499685" lon="10.5629177"><ele>342.83333333333337</ele><time>2026-03-28T14:56:34.515Z</time></trkpt><trkpt lat="44.5498757" lon="10.5629604"><ele>341.6666666666667</ele><time>2026-03-28T14:56:35.509Z</time></trkpt><trkpt lat="44.5497966" lon="10.562978"><ele>340.5</ele><time>2026-03-28T14:56:36.512Z</time></trkpt><trkpt lat="44.5497229" lon="10.562979"><ele>339.3333333333333</ele><time>2026-03-28T14:56:37.517Z</time></trkpt><trkpt lat="44.549641" lon="10.5629874"><ele>338.16666666666663</ele><time>2026-03-28T14:56:38.511Z</time></trkpt><trkpt lat="44.5495509" lon="10.5629871"><ele>337.0</ele><time>2026-03-28T14:56:39.52Z</time></trkpt><trkpt lat="44.54947" lon="10.5629843"><ele>337.0</ele><time>2026-03-28T14:56:40.513Z</time></trkpt><trkpt lat="44.5493818" lon="10.5629754"><ele>337.0</ele><time>2026-03-28T14:56:41.52Z</time></trkpt><trkpt lat="44.5492991" lon="10.5629462"><ele>337.0</ele><time>2026-03-28T14:56:42.522Z</time></trkpt><trkpt lat="44.5492145" lon="10.5628997"><ele>337.0</ele><time>2026-03-28T14:56:43.52Z</time></trkpt><trkpt lat="44.5491141" lon="10.5628599"><ele>337.0</ele><time>2026-03-28T14:56:44.512Z</time></trkpt><trkpt lat="44.5490168" lon="10.5628336"><ele>338.75</ele><time>2026-03-28T14:56:45.523Z</time></trkpt><trkpt lat="44.5489087" lon="10.5628118"><ele>340.5</ele><time>2026-03-28T14:56:46.519Z</time></trkpt><trkpt lat="44.5487996" lon="10.5627676"><ele>342.25</ele><time>2026-03-28T14:56:47.517Z</time></trkpt><trkpt lat="44.5486909" lon="10.562722"><ele>344.0</ele><time>2026-03-28T14:56:48.515Z</time></trkpt><trkpt lat="44.5485734" lon="10.5626849"><ele>344.5</ele><time>2026-03-28T14:56:49.521Z</time></trkpt><trkpt lat="44.5484535" lon="10.5626572"><ele>345.0</ele><time>2026-03-28T14:56:50.516Z</time></trkpt><trkpt lat="44.5483211" lon="10.5626191"><ele>345.5</ele><time>2026-03-28T14:56:51.519Z</time></trkpt><trkpt lat="44.5481785" lon="10.5625761"><ele>346.0</ele><time>2026-03-28T14:56:52.52Z</time></trkpt><trkpt lat="44.5480536" lon="10.5625403"><ele>346.0</ele><time>2026-03-28T14:56:53.521Z</time></trkpt><trkpt lat="44.5479311" lon="10.5624905"><ele>346.0</ele><time>2026-03-28T14:56:54.517Z</time></trkpt><trkpt lat="44.5478075" lon="10.5624424"><ele>346.0</ele><time>2026-03-28T14:56:55.515Z</time></trkpt><trkpt lat="44.5476859" lon="10.5623808"><ele>346.0</ele><time>2026-03-28T14:56:56.519Z</time></trkpt><trkpt lat="44.5475569" lon="10.5623048"><ele>348.25</ele><time>2026-03-28T14:56:57.514Z</time></trkpt><trkpt lat="44.5474272" lon="10.5622319"><ele>350.5</ele><time>2026-03-28T14:56:58.525Z</time></trkpt><trkpt lat="44.5472974" lon="10.5621736"><ele>352.75</ele><time>2026-03-28T14:56:59.516Z</time></trkpt><trkpt lat="44.5471716" lon="10.5621281"><ele>355.0</ele><time>2026-03-28T14:57:00.518Z</time></trkpt><trkpt lat="44.5470486" lon="10.5620842"><ele>356.0</ele><time>2026-03-28T14:57:01.512Z</time></trkpt><trkpt lat="44.5469289" lon="10.562032"><ele>357.0</ele><time>2026-03-28T14:57:02.505Z</time></trkpt><trkpt lat="44.5468359" lon="10.5619327"><ele>358.0</ele><time>2026-03-28T14:57:03.514Z</time></trkpt><trkpt lat="44.5467492" lon="10.5618083"><ele>359.0</ele><time>2026-03-28T14:57:04.503Z</time></trkpt><trkpt lat="44.5466983" lon="10.5616637"><ele>360.79999999999995</ele><time>2026-03-28T14:57:05.512Z</time></trkpt><trkpt lat="44.5466585" lon="10.5615229"><ele>362.59999999999997</ele><time>2026-03-28T14:57:06.516Z</time></trkpt><trkpt lat="44.5465961" lon="10.5613972"><ele>364.4</ele><time>2026-03-28T14:57:07.51Z</time></trkpt><trkpt lat="44.5465336" lon="10.561292"><ele>366.2</ele><time>2026-03-28T14:57:08.521Z</time></trkpt><trkpt lat="44.5464457" lon="10.5612513"><ele>368.0</ele><time>2026-03-28T14:57:09.509Z</time></trkpt><trkpt lat="44.5463598" lon="10.5612231"><ele>368.0</ele><time>2026-03-28T14:57:10.512Z</time></trkpt><trkpt lat="44.5462919" lon="10.5612013"><ele>368.0</ele><time>2026-03-28T14:57:11.508Z</time></trkpt><trkpt lat="44.5462076" lon="10.5611462"><ele>368.0</ele><time>2026-03-28T14:57:13.507Z</time></trkpt><trkpt lat="44.5461756" lon="10.56107"><ele>368.0</ele><time>2026-03-28T14:57:15.517Z</time></trkpt><trkpt lat="44.5461316" lon="10.5609521"><ele>368.0</ele><time>2026-03-28T14:57:17.523Z</time></trkpt><trkpt lat="44.5460602" lon="10.5608257"><ele>368.0</ele><time>2026-03-28T14:57:19.524Z</time></trkpt><trkpt lat="44.5460027" lon="10.5606756"><ele>369.7142857142857</ele><time>2026-03-28T14:57:21.512Z</time></trkpt><trkpt lat="44.5459668" lon="10.5605937"><ele>371.4285714285714</ele><time>2026-03-28T14:57:22.519Z</time></trkpt><trkpt lat="44.5459358" lon="10.5605144"><ele>373.1428571428571</ele><time>2026-03-28T14:57:23.519Z</time></trkpt><trkpt lat="44.5459178" lon="10.5604185"><ele>374.8571428571429</ele><time>2026-03-28T14:57:24.521Z</time></trkpt><trkpt lat="44.5459216" lon="10.5603121"><ele>376.57142857142856</ele><time>2026-03-28T14:57:25.511Z</time></trkpt><trkpt lat="44.5459518" lon="10.5602085"><ele>378.2857142857143</ele><time>2026-03-28T14:57:26.513Z</time></trkpt><trkpt lat="44.5460085" lon="10.5601264"><ele>380.0</ele><time>2026-03-28T14:57:27.509Z</time></trkpt><trkpt lat="44.5460738" lon="10.5600582"><ele>379.2</ele><time>2026-03-28T14:57:28.514Z</time></trkpt><trkpt lat="44.546146" lon="10.5600021"><ele>378.4</ele><time>2026-03-28T14:57:29.513Z</time></trkpt><trkpt lat="44.5462246" lon="10.5599409"><ele>377.6</ele><time>2026-03-28T14:57:30.515Z</time></trkpt><trkpt lat="44.5463068" lon="10.5598541"><ele>376.8</ele><time>2026-03-28T14:57:31.524Z</time></trkpt><trkpt lat="44.5463885" lon="10.5597414"><ele>376.0</ele><time>2026-03-28T14:57:32.521Z</time></trkpt><trkpt lat="44.5464701" lon="10.5596341"><ele>377.25</ele><time>2026-03-28T14:57:33.523Z</time></trkpt><trkpt lat="44.546557" lon="10.5595168"><ele>378.5</ele><time>2026-03-28T14:57:34.514Z</time></trkpt><trkpt lat="44.546645" lon="10.5593784"><ele>379.75</ele><time>2026-03-28T14:57:35.518Z</time></trkpt><trkpt lat="44.5467241" lon="10.5592357"><ele>381.0</ele><time>2026-03-28T14:57:36.529Z</time></trkpt><trkpt lat="44.546813" lon="10.5590775"><ele>381.0</ele><time>2026-03-28T14:57:37.514Z</time></trkpt><trkpt lat="44.5469071" lon="10.5589221"><ele>381.0</ele><time>2026-03-28T14:57:38.515Z</time></trkpt><trkpt lat="44.5469864" lon="10.5588187"><ele>381.0</ele><time>2026-03-28T14:57:39.508Z</time></trkpt><trkpt lat="44.5470517" lon="10.5587571"><ele>381.0</ele><time>2026-03-28T14:57:40.514Z</time></trkpt><trkpt lat="44.5471067" lon="10.558692"><ele>381.0</ele><time>2026-03-28T14:57:42.498Z</time></trkpt><trkpt lat="44.5471813" lon="10.5585621"><ele>380.25</ele><time>2026-03-28T14:58:10.516Z</time></trkpt><trkpt lat="44.5472595" lon="10.558476"><ele>379.5</ele><time>2026-03-28T14:58:11.511Z</time></trkpt><trkpt lat="44.5473665" lon="10.5583624"><ele>378.75</ele><time>2026-03-28T14:58:12.528Z</time></trkpt><trkpt lat="44.5474811" lon="10.5582402"><ele>378.0</ele><time>2026-03-28T14:58:13.522Z</time></trkpt><trkpt lat="44.547596" lon="10.5581087"><ele>378.0</ele><time>2026-03-28T14:58:14.538Z</time></trkpt><trkpt lat="44.5477253" lon="10.5579815"><ele>378.0</ele><time>2026-03-28T14:58:15.537Z</time></trkpt><trkpt lat="44.5478404" lon="10.557861"><ele>378.0</ele><time>2026-03-28T14:58:16.528Z</time></trkpt><trkpt lat="44.5479326" lon="10.557719"><ele>378.0</ele><time>2026-03-28T14:58:17.529Z</time></trkpt><trkpt lat="44.5480052" lon="10.5575668"><ele>379.4</ele><time>2026-03-28T14:58:18.527Z</time></trkpt><trkpt lat="44.548046" lon="10.5574063"><ele>380.79999999999995</ele><time>2026-03-28T14:58:19.533Z</time></trkpt><trkpt lat="44.5480523" lon="10.5572633"><ele>382.2</ele><time>2026-03-28T14:58:20.532Z</time></trkpt><trkpt lat="44.5480541" lon="10.5571201"><ele>383.6</ele><time>2026-03-28T14:58:21.53Z</time></trkpt><trkpt lat="44.5480742" lon="10.5569887"><ele>385.0</ele><time>2026-03-28T14:58:22.528Z</time></trkpt><trkpt lat="44.5481165" lon="10.5568842"><ele>385.0</ele><time>2026-03-28T14:58:23.521Z</time></trkpt><trkpt lat="44.5481924" lon="10.5568467"><ele>385.0</ele><time>2026-03-28T14:58:24.522Z</time></trkpt><trkpt lat="44.5482848" lon="10.5568698"><ele>385.0</ele><time>2026-03-28T14:58:25.527Z</time></trkpt><trkpt lat="44.5483763" lon="10.5569317"><ele>385.0</ele><time>2026-03-28T14:58:26.52Z</time></trkpt><trkpt lat="44.5484737" lon="10.5570142"><ele>385.0</ele><time>2026-03-28T14:58:27.523Z</time></trkpt><trkpt lat="44.5485862" lon="10.5571015"><ele>385.0</ele><time>2026-03-28T14:58:28.516Z</time></trkpt><trkpt lat="44.548708" lon="10.5571853"><ele>385.0</ele><time>2026-03-28T14:58:29.521Z</time></trkpt><trkpt lat="44.5488286" lon="10.5572632"><ele>385.0</ele><time>2026-03-28T14:58:30.523Z</time></trkpt><trkpt lat="44.548936" lon="10.5573302"><ele>385.0</ele><time>2026-03-28T14:58:31.521Z</time></trkpt><trkpt lat="44.5490343" lon="10.5573833"><ele>385.8</ele><time>2026-03-28T14:58:32.525Z</time></trkpt><trkpt lat="44.5491142" lon="10.5574259"><ele>386.6</ele><time>2026-03-28T14:58:33.525Z</time></trkpt><trkpt lat="44.5491998" lon="10.5574355"><ele>387.4</ele><time>2026-03-28T14:58:35.53Z</time></trkpt><trkpt lat="44.5492515" lon="10.5573763"><ele>388.2</ele><time>2026-03-28T14:58:37.534Z</time></trkpt><trkpt lat="44.5493025" lon="10.5572844"><ele>389.0</ele><time>2026-03-28T14:58:39.542Z</time></trkpt><trkpt lat="44.5493221" lon="10.5571059"><ele>389.0</ele><time>2026-03-28T14:58:41.539Z</time></trkpt><trkpt lat="44.5493126" lon="10.556979"><ele>389.0</ele><time>2026-03-28T14:58:42.53Z</time></trkpt><trkpt lat="44.5492808" lon="10.5568248"><ele>389.0</ele><time>2026-03-28T14:58:43.526Z</time></trkpt><trkpt lat="44.5492408" lon="10.556649"><ele>389.0</ele><time>2026-03-28T14:58:44.539Z</time></trkpt><trkpt lat="44.5492068" lon="10.5564642"><ele>389.0</ele><time>2026-03-28T14:58:45.533Z</time></trkpt><trkpt lat="44.5491847" lon="10.5562647"><ele>389.0</ele><time>2026-03-28T14:58:46.549Z</time></trkpt><trkpt lat="44.5491797" lon="10.5560687"><ele>389.0</ele><time>2026-03-28T14:58:47.532Z</time></trkpt><trkpt lat="44.5491786" lon="10.555877"><ele>389.0</ele><time>2026-03-28T14:58:48.545Z</time></trkpt><trkpt lat="44.549188" lon="10.5556963"><ele>387.25</ele><time>2026-03-28T14:58:49.537Z</time></trkpt><trkpt lat="44.5492035" lon="10.5555168"><ele>385.5</ele><time>2026-03-28T14:58:50.528Z</time></trkpt><trkpt lat="44.5492388" lon="10.5553334"><ele>383.75</ele><time>2026-03-28T14:58:51.523Z</time></trkpt><trkpt lat="44.5493111" lon="10.5551702"><ele>382.0</ele><time>2026-03-28T14:58:52.521Z</time></trkpt><trkpt lat="44.5494259" lon="10.555027"><ele>382.0</ele><time>2026-03-28T14:58:53.526Z</time></trkpt><trkpt lat="44.5495374" lon="10.554897"><ele>382.0</ele><time>2026-03-28T14:58:54.529Z</time></trkpt><trkpt lat="44.5496607" lon="10.5547679"><ele>382.0</ele><time>2026-03-28T14:58:55.512Z</time></trkpt><trkpt lat="44.5497869" lon="10.5546647"><ele>382.0</ele><time>2026-03-28T14:58:56.525Z</time></trkpt><trkpt lat="44.5498824" lon="10.5545938"><ele>380.75</ele><time>2026-03-28T14:58:57.514Z</time></trkpt><trkpt lat="44.5499817" lon="10.5545418"><ele>379.5</ele><time>2026-03-28T14:58:58.509Z</time></trkpt><trkpt lat="44.5501008" lon="10.5545194"><ele>378.25</ele><time>2026-03-28T14:58:59.512Z</time></trkpt><trkpt lat="44.5502371" lon="10.5545214"><ele>377.0</ele><time>2026-03-28T14:59:00.515Z</time></trkpt><trkpt lat="44.5503839" lon="10.5545287"><ele>377.0</ele><time>2026-03-28T14:59:01.524Z</time></trkpt><trkpt lat="44.5505329" lon="10.5545495"><ele>377.0</ele><time>2026-03-28T14:59:02.515Z</time></trkpt><trkpt lat="44.55067" lon="10.5545639"><ele>377.0</ele><time>2026-03-28T14:59:03.529Z</time></trkpt><trkpt lat="44.5508087" lon="10.5545581"><ele>377.0</ele><time>2026-03-28T14:59:04.514Z</time></trkpt><trkpt lat="44.5509623" lon="10.5545347"><ele>380.6</ele><time>2026-03-28T14:59:05.518Z</time></trkpt><trkpt lat="44.5511149" lon="10.5545086"><ele>384.20000000000005</ele><time>2026-03-28T14:59:06.515Z</time></trkpt><trkpt lat="44.5511925" lon="10.5544877"><ele>387.8</ele><time>2026-03-28T14:59:07.511Z</time></trkpt><trkpt lat="44.5512971" lon="10.5544591"><ele>391.4</ele><time>2026-03-28T14:59:08.511Z</time></trkpt><trkpt lat="44.5513859" lon="10.5544085"><ele>395.0</ele><time>2026-03-28T14:59:09.505Z</time></trkpt><trkpt lat="44.551488" lon="10.5543334"><ele>396.0</ele><time>2026-03-28T14:59:10.516Z</time></trkpt><trkpt lat="44.5515732" lon="10.5542206"><ele>397.0</ele><time>2026-03-28T14:59:11.509Z</time></trkpt><trkpt lat="44.5516601" lon="10.5540835"><ele>398.0</ele><time>2026-03-28T14:59:12.516Z</time></trkpt><trkpt lat="44.5517546" lon="10.5539797"><ele>399.0</ele><time>2026-03-28T14:59:13.511Z</time></trkpt><trkpt lat="44.5518481" lon="10.5539395"><ele>399.0</ele><time>2026-03-28T14:59:14.505Z</time></trkpt><trkpt lat="44.5519522" lon="10.5539358"><ele>399.0</ele><time>2026-03-28T14:59:15.505Z</time></trkpt><trkpt lat="44.5520391" lon="10.5539006"><ele>399.0</ele><time>2026-03-28T14:59:16.519Z</time></trkpt><trkpt lat="44.5521179" lon="10.5538764"><ele>399.0</ele><time>2026-03-28T14:59:17.518Z</time></trkpt><trkpt lat="44.5521988" lon="10.5538332"><ele>399.0</ele><time>2026-03-28T14:59:18.524Z</time></trkpt><trkpt lat="44.5522766" lon="10.5537595"><ele>401.0</ele><time>2026-03-28T14:59:19.514Z</time></trkpt><trkpt lat="44.5523515" lon="10.5536696"><ele>403.0</ele><time>2026-03-28T14:59:20.506Z</time></trkpt><trkpt lat="44.5524277" lon="10.5535618"><ele>405.0</ele><time>2026-03-28T14:59:21.509Z</time></trkpt><trkpt lat="44.5525102" lon="10.5534729"><ele>407.0</ele><time>2026-03-28T14:59:22.509Z</time></trkpt><trkpt lat="44.5526014" lon="10.5534288"><ele>409.0</ele><time>2026-03-28T14:59:23.512Z</time></trkpt><trkpt lat="44.5526794" lon="10.553374"><ele>409.00000000000006</ele><time>2026-03-28T14:59:24.513Z</time></trkpt><trkpt lat="44.5527399" lon="10.5532931"><ele>409.0</ele><time>2026-03-28T14:59:25.511Z</time></trkpt><trkpt lat="44.5527805" lon="10.5532044"><ele>409.0</ele><time>2026-03-28T14:59:26.524Z</time></trkpt><trkpt lat="44.5528063" lon="10.5531076"><ele>409.0</ele><time>2026-03-28T14:59:27.525Z</time></trkpt><trkpt lat="44.5528068" lon="10.5530115"><ele>409.00000000000006</ele><time>2026-03-28T14:59:28.525Z</time></trkpt><trkpt lat="44.5527773" lon="10.5528952"><ele>409.0</ele><time>2026-03-28T14:59:29.513Z</time></trkpt><trkpt lat="44.5527446" lon="10.5527574"><ele>410.6</ele><time>2026-03-28T14:59:30.525Z</time></trkpt><trkpt lat="44.552735" lon="10.5526183"><ele>412.2</ele><time>2026-03-28T14:59:31.52Z</time></trkpt><trkpt lat="44.5527668" lon="10.5524795"><ele>413.8</ele><time>2026-03-28T14:59:32.515Z</time></trkpt><trkpt lat="44.5528316" lon="10.5523487"><ele>415.40000000000003</ele><time>2026-03-28T14:59:33.518Z</time></trkpt><trkpt lat="44.5529119" lon="10.5522141"><ele>417.0</ele><time>2026-03-28T14:59:34.517Z</time></trkpt><trkpt lat="44.552972" lon="10.5520929"><ele>417.1666666666667</ele><time>2026-03-28T14:59:35.523Z</time></trkpt><trkpt lat="44.5530038" lon="10.5519619"><ele>417.33333333333337</ele><time>2026-03-28T14:59:36.52Z</time></trkpt><trkpt lat="44.5529934" lon="10.5518285"><ele>417.5</ele><time>2026-03-28T14:59:37.505Z</time></trkpt><trkpt lat="44.5529404" lon="10.5517136"><ele>417.6666666666667</ele><time>2026-03-28T14:59:38.518Z</time></trkpt><trkpt lat="44.5528889" lon="10.5516297"><ele>417.83333333333337</ele><time>2026-03-28T14:59:39.515Z</time></trkpt><trkpt lat="44.5528279" lon="10.5515622"><ele>418.0</ele><time>2026-03-28T14:59:40.522Z</time></trkpt><trkpt lat="44.5527659" lon="10.5515106"><ele>418.0</ele><time>2026-03-28T14:59:41.52Z</time></trkpt><trkpt lat="44.5527134" lon="10.5514526"><ele>418.0</ele><time>2026-03-28T14:59:42.531Z</time></trkpt><trkpt lat="44.5526753" lon="10.5513802"><ele>418.0</ele><time>2026-03-28T14:59:43.523Z</time></trkpt><trkpt lat="44.5526392" lon="10.5512883"><ele>418.0</ele><time>2026-03-28T14:59:44.514Z</time></trkpt><trkpt lat="44.5526385" lon="10.5511899"><ele>418.0</ele><time>2026-03-28T14:59:45.519Z</time></trkpt><trkpt lat="44.5526728" lon="10.5511027"><ele>418.0</ele><time>2026-03-28T14:59:46.533Z</time></trkpt><trkpt lat="44.5527526" lon="10.5510402"><ele>418.0</ele><time>2026-03-28T14:59:47.52Z</time></trkpt><trkpt lat="44.5528679" lon="10.551018"><ele>413.75</ele><time>2026-03-28T14:59:48.51Z</time></trkpt><trkpt lat="44.5529929" lon="10.5509925"><ele>409.5</ele><time>2026-03-28T14:59:49.511Z</time></trkpt><trkpt lat="44.5531218" lon="10.5509584"><ele>405.25</ele><time>2026-03-28T14:59:50.513Z</time></trkpt><trkpt lat="44.5532437" lon="10.5508982"><ele>401.0</ele><time>2026-03-28T14:59:51.513Z</time></trkpt><trkpt lat="44.5533391" lon="10.5507896"><ele>401.0</ele><time>2026-03-28T14:59:52.529Z</time></trkpt><trkpt lat="44.5534171" lon="10.5506432"><ele>401.0</ele><time>2026-03-28T14:59:53.516Z</time></trkpt><trkpt lat="44.5534758" lon="10.5504916"><ele>401.0</ele><time>2026-03-28T14:59:54.525Z</time></trkpt><trkpt lat="44.5535227" lon="10.5503369"><ele>401.0</ele><time>2026-03-28T14:59:55.517Z</time></trkpt><trkpt lat="44.5535551" lon="10.5502001"><ele>401.16666666666663</ele><time>2026-03-28T14:59:56.522Z</time></trkpt><trkpt lat="44.5535816" lon="10.5500729"><ele>401.3333333333333</ele><time>2026-03-28T14:59:57.526Z</time></trkpt><trkpt lat="44.5535689" lon="10.5499618"><ele>401.5</ele><time>2026-03-28T14:59:58.532Z</time></trkpt><trkpt lat="44.5535408" lon="10.5498565"><ele>401.66666666666663</ele><time>2026-03-28T14:59:59.504Z</time></trkpt><trkpt lat="44.5535198" lon="10.5497448"><ele>401.8333333333333</ele><time>2026-03-28T15:00:00.504Z</time></trkpt><trkpt lat="44.5535371" lon="10.5496246"><ele>402.0</ele><time>2026-03-28T15:00:01.505Z</time></trkpt><trkpt lat="44.5535696" lon="10.5495054"><ele>399.8</ele><time>2026-03-28T15:00:02.5Z</time></trkpt><trkpt lat="44.5536309" lon="10.549398"><ele>397.6</ele><time>2026-03-28T15:00:03.507Z</time></trkpt><trkpt lat="44.5537016" lon="10.5493038"><ele>395.40000000000003</ele><time>2026-03-28T15:00:04.495Z</time></trkpt><trkpt lat="44.5537605" lon="10.5491968"><ele>393.20000000000005</ele><time>2026-03-28T15:00:05.497Z</time></trkpt><trkpt lat="44.5538062" lon="10.5490705"><ele>391.0</ele><time>2026-03-28T15:00:06.498Z</time></trkpt><trkpt lat="44.5538553" lon="10.548945"><ele>388.8</ele><time>2026-03-28T15:00:07.497Z</time></trkpt><trkpt lat="44.5538918" lon="10.5488096"><ele>386.6</ele><time>2026-03-28T15:00:08.504Z</time></trkpt><trkpt lat="44.5539187" lon="10.5486658"><ele>384.4</ele><time>2026-03-28T15:00:09.491Z</time></trkpt><trkpt lat="44.5539262" lon="10.548521"><ele>382.2</ele><time>2026-03-28T15:00:10.492Z</time></trkpt><trkpt lat="44.5539104" lon="10.5484071"><ele>380.0</ele><time>2026-03-28T15:00:11.489Z</time></trkpt><trkpt lat="44.5538944" lon="10.5483173"><ele>378.8</ele><time>2026-03-28T15:00:12.486Z</time></trkpt><trkpt lat="44.5538529" lon="10.5482061"><ele>377.6</ele><time>2026-03-28T15:00:14.5Z</time></trkpt><trkpt lat="44.553919" lon="10.5480795"><ele>376.4</ele><time>2026-03-28T15:00:17.496Z</time></trkpt><trkpt lat="44.5540303" lon="10.5479779"><ele>375.2</ele><time>2026-03-28T15:00:19.516Z</time></trkpt><trkpt lat="44.5540911" lon="10.5479109"><ele>374.0</ele><time>2026-03-28T15:00:20.513Z</time></trkpt><trkpt lat="44.5541595" lon="10.5478448"><ele>373.6</ele><time>2026-03-28T15:00:21.511Z</time></trkpt><trkpt lat="44.5542393" lon="10.54778"><ele>373.2</ele><time>2026-03-28T15:00:22.513Z</time></trkpt><trkpt lat="44.5543164" lon="10.5476942"><ele>372.8</ele><time>2026-03-28T15:00:23.512Z</time></trkpt><trkpt lat="44.5543945" lon="10.5475947"><ele>372.40000000000003</ele><time>2026-03-28T15:00:24.51Z</time></trkpt><trkpt lat="44.554475" lon="10.5475022"><ele>372.0</ele><time>2026-03-28T15:00:25.508Z</time></trkpt><trkpt lat="44.5545383" lon="10.5474192"><ele>370.8</ele><time>2026-03-28T15:00:26.507Z</time></trkpt><trkpt lat="44.5545964" lon="10.5473251"><ele>369.6</ele><time>2026-03-28T15:00:27.511Z</time></trkpt><trkpt lat="44.5546545" lon="10.5472409"><ele>368.40000000000003</ele><time>2026-03-28T15:00:28.505Z</time></trkpt><trkpt lat="44.55471" lon="10.5471539"><ele>367.20000000000005</ele><time>2026-03-28T15:00:29.508Z</time></trkpt><trkpt lat="44.5547631" lon="10.5470859"><ele>366.0</ele><time>2026-03-28T15:00:30.509Z</time></trkpt><trkpt lat="44.5548594" lon="10.546972"><ele>366.0</ele><time>2026-03-28T15:00:32.513Z</time></trkpt><trkpt lat="44.5549371" lon="10.5468924"><ele>366.0</ele><time>2026-03-28T15:00:34.508Z</time></trkpt><trkpt lat="44.5550296" lon="10.5468211"><ele>366.0</ele><time>2026-03-28T15:00:36.51Z</time></trkpt><trkpt lat="44.5550957" lon="10.5467709"><ele>366.0</ele><time>2026-03-28T15:00:37.51Z</time></trkpt><trkpt lat="44.5551699" lon="10.5467202"><ele>366.0</ele><time>2026-03-28T15:00:38.509Z</time></trkpt><trkpt lat="44.5552495" lon="10.5466593"><ele>366.0</ele><time>2026-03-28T15:00:39.514Z</time></trkpt><trkpt lat="44.5553307" lon="10.5466028"><ele>366.0</ele><time>2026-03-28T15:00:40.506Z</time></trkpt><trkpt lat="44.5554057" lon="10.5465362"><ele>366.0</ele><time>2026-03-28T15:00:41.513Z</time></trkpt><trkpt lat="44.5554841" lon="10.5464512"><ele>366.0</ele><time>2026-03-28T15:00:42.51Z</time></trkpt><trkpt lat="44.5555516" lon="10.546363"><ele>366.0</ele><time>2026-03-28T15:00:43.505Z</time></trkpt><trkpt lat="44.5556028" lon="10.5462742"><ele>366.20000000000005</ele><time>2026-03-28T15:00:44.504Z</time></trkpt><trkpt lat="44.5556385" lon="10.5461748"><ele>366.40000000000003</ele><time>2026-03-28T15:00:45.505Z</time></trkpt><trkpt lat="44.5556818" lon="10.5460651"><ele>366.6</ele><time>2026-03-28T15:00:46.512Z</time></trkpt><trkpt lat="44.5557194" lon="10.5459418"><ele>366.8</ele><time>2026-03-28T15:00:47.513Z</time></trkpt><trkpt lat="44.5557715" lon="10.5458111"><ele>367.0</ele><time>2026-03-28T15:00:48.512Z</time></trkpt><trkpt lat="44.5558184" lon="10.5456873"><ele>367.0</ele><time>2026-03-28T15:00:49.513Z</time></trkpt><trkpt lat="44.5558647" lon="10.5455557"><ele>367.0</ele><time>2026-03-28T15:00:50.519Z</time></trkpt><trkpt lat="44.5559171" lon="10.5454352"><ele>367.0</ele><time>2026-03-28T15:00:51.51Z</time></trkpt><trkpt lat="44.5559623" lon="10.5453188"><ele>367.0</ele><time>2026-03-28T15:00:52.518Z</time></trkpt><trkpt lat="44.5560058" lon="10.5452108"><ele>367.0</ele><time>2026-03-28T15:00:53.507Z</time></trkpt><trkpt lat="44.5560409" lon="10.5451116"><ele>367.0</ele><time>2026-03-28T15:00:54.509Z</time></trkpt><trkpt lat="44.5560822" lon="10.545006"><ele>367.0</ele><time>2026-03-28T15:00:55.51Z</time></trkpt><trkpt lat="44.5561101" lon="10.5449238"><ele>367.0</ele><time>2026-03-28T15:00:56.512Z</time></trkpt><trkpt lat="44.5561379" lon="10.5448429"><ele>367.0</ele><time>2026-03-28T15:00:57.501Z</time></trkpt><trkpt lat="44.5561528" lon="10.5447338"><ele>367.0</ele><time>2026-03-28T15:00:59.503Z</time></trkpt><trkpt lat="44.5561491" lon="10.5446325"><ele>367.0</ele><time>2026-03-28T15:01:01.506Z</time></trkpt><trkpt lat="44.5561386" lon="10.5444751"><ele>367.0</ele><time>2026-03-28T15:01:03.513Z</time></trkpt><trkpt lat="44.5561416" lon="10.5443668"><ele>367.0</ele><time>2026-03-28T15:01:04.5Z</time></trkpt><trkpt lat="44.5561513" lon="10.5442337"><ele>367.0</ele><time>2026-03-28T15:01:05.502Z</time></trkpt><trkpt lat="44.5561657" lon="10.5440984"><ele>367.0</ele><time>2026-03-28T15:01:06.5Z</time></trkpt><trkpt lat="44.5561924" lon="10.5439618"><ele>367.0</ele><time>2026-03-28T15:01:07.493Z</time></trkpt><trkpt lat="44.5562113" lon="10.5437895"><ele>365.66666666666663</ele><time>2026-03-28T15:01:08.5Z</time></trkpt><trkpt lat="44.5562325" lon="10.5435915"><ele>364.3333333333333</ele><time>2026-03-28T15:01:09.498Z</time></trkpt><trkpt lat="44.5562467" lon="10.5433841"><ele>363.0</ele><time>2026-03-28T15:01:10.508Z</time></trkpt><trkpt lat="44.5562526" lon="10.543158"><ele>363.0</ele><time>2026-03-28T15:01:11.502Z</time></trkpt><trkpt lat="44.5562494" lon="10.5429327"><ele>363.0</ele><time>2026-03-28T15:01:12.505Z</time></trkpt><trkpt lat="44.5562591" lon="10.5427213"><ele>363.0</ele><time>2026-03-28T15:01:13.503Z</time></trkpt><trkpt lat="44.5562566" lon="10.5425298"><ele>363.0</ele><time>2026-03-28T15:01:14.5Z</time></trkpt><trkpt lat="44.556265" lon="10.5423598"><ele>363.0</ele><time>2026-03-28T15:01:15.504Z</time></trkpt><trkpt lat="44.5562709" lon="10.5421768"><ele>363.0</ele><time>2026-03-28T15:01:16.5Z</time></trkpt><trkpt lat="44.5562633" lon="10.5419954"><ele>363.0</ele><time>2026-03-28T15:01:17.507Z</time></trkpt><trkpt lat="44.5562836" lon="10.5418301"><ele>363.0</ele><time>2026-03-28T15:01:18.502Z</time></trkpt><trkpt lat="44.5562868" lon="10.5416577"><ele>362.79999999999995</ele><time>2026-03-28T15:01:19.498Z</time></trkpt><trkpt lat="44.5563011" lon="10.5414996"><ele>362.6</ele><time>2026-03-28T15:01:20.501Z</time></trkpt><trkpt lat="44.5563255" lon="10.5413523"><ele>362.4</ele><time>2026-03-28T15:01:21.503Z</time></trkpt><trkpt lat="44.5563705" lon="10.5412321"><ele>362.20000000000005</ele><time>2026-03-28T15:01:22.512Z</time></trkpt><trkpt lat="44.556433" lon="10.5411064"><ele>362.0</ele><time>2026-03-28T15:01:23.506Z</time></trkpt><trkpt lat="44.5564963" lon="10.5409718"><ele>359.75</ele><time>2026-03-28T15:01:24.505Z</time></trkpt><trkpt lat="44.556575" lon="10.5408218"><ele>357.5</ele><time>2026-03-28T15:01:25.513Z</time></trkpt><trkpt lat="44.5566391" lon="10.540654"><ele>355.25</ele><time>2026-03-28T15:01:26.509Z</time></trkpt><trkpt lat="44.556691" lon="10.5404859"><ele>353.0</ele><time>2026-03-28T15:01:27.516Z</time></trkpt><trkpt lat="44.5567429" lon="10.5403354"><ele>351.75</ele><time>2026-03-28T15:01:28.511Z</time></trkpt><trkpt lat="44.5567961" lon="10.5401828"><ele>350.5</ele><time>2026-03-28T15:01:29.51Z</time></trkpt><trkpt lat="44.5568464" lon="10.5400308"><ele>349.25</ele><time>2026-03-28T15:01:30.511Z</time></trkpt><trkpt lat="44.5568946" lon="10.5398667"><ele>348.0</ele><time>2026-03-28T15:01:31.519Z</time></trkpt><trkpt lat="44.5569451" lon="10.5397018"><ele>347.25</ele><time>2026-03-28T15:01:32.515Z</time></trkpt><trkpt lat="44.5569992" lon="10.5395289"><ele>346.5</ele><time>2026-03-28T15:01:33.525Z</time></trkpt><trkpt lat="44.5570522" lon="10.5393517"><ele>345.75</ele><time>2026-03-28T15:01:34.513Z</time></trkpt><trkpt lat="44.557108" lon="10.539168"><ele>345.0</ele><time>2026-03-28T15:01:35.51Z</time></trkpt><trkpt lat="44.557164" lon="10.5389859"><ele>344.25</ele><time>2026-03-28T15:01:36.518Z</time></trkpt><trkpt lat="44.5572076" lon="10.5388089"><ele>343.5</ele><time>2026-03-28T15:01:37.51Z</time></trkpt><trkpt lat="44.557241" lon="10.5386294"><ele>342.75</ele><time>2026-03-28T15:01:38.513Z</time></trkpt><trkpt lat="44.557274" lon="10.5384595"><ele>342.0</ele><time>2026-03-28T15:01:39.513Z</time></trkpt><trkpt lat="44.5573095" lon="10.5382722"><ele>341.25</ele><time>2026-03-28T15:01:40.51Z</time></trkpt><trkpt lat="44.5573307" lon="10.5381002"><ele>340.5</ele><time>2026-03-28T15:01:41.52Z</time></trkpt><trkpt lat="44.557359" lon="10.537913"><ele>339.75</ele><time>2026-03-28T15:01:42.512Z</time></trkpt><trkpt lat="44.5573892" lon="10.5377302"><ele>339.0</ele><time>2026-03-28T15:01:43.511Z</time></trkpt><trkpt lat="44.5574009" lon="10.5375454"><ele>338.0</ele><time>2026-03-28T15:01:44.512Z</time></trkpt><trkpt lat="44.5573953" lon="10.5373683"><ele>337.0</ele><time>2026-03-28T15:01:45.51Z</time></trkpt><trkpt lat="44.5573793" lon="10.5372017"><ele>336.0</ele><time>2026-03-28T15:01:46.511Z</time></trkpt><trkpt lat="44.5573505" lon="10.5370426"><ele>335.0</ele><time>2026-03-28T15:01:47.508Z</time></trkpt><trkpt lat="44.5573157" lon="10.536887"><ele>334.4</ele><time>2026-03-28T15:01:48.512Z</time></trkpt><trkpt lat="44.5572816" lon="10.5367411"><ele>333.8</ele><time>2026-03-28T15:01:49.508Z</time></trkpt><trkpt lat="44.5572453" lon="10.5365983"><ele>333.20000000000005</ele><time>2026-03-28T15:01:50.509Z</time></trkpt><trkpt lat="44.5572233" lon="10.5364605"><ele>332.6</ele><time>2026-03-28T15:01:51.513Z</time></trkpt><trkpt lat="44.5572016" lon="10.5363116"><ele>332.0</ele><time>2026-03-28T15:01:52.516Z</time></trkpt><trkpt lat="44.5571912" lon="10.5361506"><ele>330.25</ele><time>2026-03-28T15:01:53.514Z</time></trkpt><trkpt lat="44.5571844" lon="10.5359799"><ele>328.5</ele><time>2026-03-28T15:01:54.51Z</time></trkpt><trkpt lat="44.5571853" lon="10.5357914"><ele>326.75</ele><time>2026-03-28T15:01:55.507Z</time></trkpt><trkpt lat="44.5571885" lon="10.5355981"><ele>325.0</ele><time>2026-03-28T15:01:56.512Z</time></trkpt><trkpt lat="44.5571983" lon="10.5353947"><ele>323.75</ele><time>2026-03-28T15:01:57.516Z</time></trkpt><trkpt lat="44.5572085" lon="10.5351814"><ele>322.5</ele><time>2026-03-28T15:01:58.515Z</time></trkpt><trkpt lat="44.5572426" lon="10.5349791"><ele>321.25</ele><time>2026-03-28T15:01:59.519Z</time></trkpt><trkpt lat="44.5572697" lon="10.5347837"><ele>320.0</ele><time>2026-03-28T15:02:00.516Z</time></trkpt><trkpt lat="44.5572937" lon="10.5345993"><ele>318.5</ele><time>2026-03-28T15:02:01.521Z</time></trkpt><trkpt lat="44.5573286" lon="10.5344277"><ele>317.0</ele><time>2026-03-28T15:02:02.516Z</time></trkpt><trkpt lat="44.5573529" lon="10.5342789"><ele>315.5</ele><time>2026-03-28T15:02:03.512Z</time></trkpt><trkpt lat="44.5574348" lon="10.5341539"><ele>314.0</ele><time>2026-03-28T15:02:04.515Z</time></trkpt><trkpt lat="44.5575627" lon="10.5340736"><ele>314.0</ele><time>2026-03-28T15:02:05.501Z</time></trkpt><trkpt lat="44.5576802" lon="10.5340245"><ele>314.0</ele><time>2026-03-28T15:02:06.507Z</time></trkpt><trkpt lat="44.5577942" lon="10.5339798"><ele>314.0</ele><time>2026-03-28T15:02:07.51Z</time></trkpt><trkpt lat="44.5579093" lon="10.5339177"><ele>314.0</ele><time>2026-03-28T15:02:08.505Z</time></trkpt><trkpt lat="44.5580022" lon="10.5338276"><ele>313.0</ele><time>2026-03-28T15:02:09.501Z</time></trkpt><trkpt lat="44.5580872" lon="10.5337136"><ele>312.0</ele><time>2026-03-28T15:02:10.503Z</time></trkpt><trkpt lat="44.558149" lon="10.533575"><ele>311.0</ele><time>2026-03-28T15:02:11.502Z</time></trkpt><trkpt lat="44.5582015" lon="10.5334296"><ele>310.0</ele><time>2026-03-28T15:02:12.507Z</time></trkpt><trkpt lat="44.5582635" lon="10.5333005"><ele>310.0</ele><time>2026-03-28T15:02:13.502Z</time></trkpt><trkpt lat="44.558325" lon="10.5331791"><ele>310.0</ele><time>2026-03-28T15:02:14.508Z</time></trkpt><trkpt lat="44.5583818" lon="10.5330582"><ele>310.0</ele><time>2026-03-28T15:02:15.506Z</time></trkpt><trkpt lat="44.5584359" lon="10.53296"><ele>310.0</ele><time>2026-03-28T15:02:16.507Z</time></trkpt><trkpt lat="44.5584939" lon="10.5328731"><ele>310.0</ele><time>2026-03-28T15:02:17.503Z</time></trkpt><trkpt lat="44.5585563" lon="10.5327863"><ele>308.2</ele><time>2026-03-28T15:02:18.505Z</time></trkpt><trkpt lat="44.5586246" lon="10.5327166"><ele>306.4</ele><time>2026-03-28T15:02:19.512Z</time></trkpt><trkpt lat="44.5586982" lon="10.5326398"><ele>304.6</ele><time>2026-03-28T15:02:20.504Z</time></trkpt><trkpt lat="44.5587785" lon="10.5325611"><ele>302.8</ele><time>2026-03-28T15:02:21.512Z</time></trkpt><trkpt lat="44.5588579" lon="10.5324685"><ele>301.0</ele><time>2026-03-28T15:02:22.51Z</time></trkpt><trkpt lat="44.5589354" lon="10.5323835"><ele>301.0</ele><time>2026-03-28T15:02:23.514Z</time></trkpt><trkpt lat="44.5590261" lon="10.5322958"><ele>301.0</ele><time>2026-03-28T15:02:24.509Z</time></trkpt><trkpt lat="44.5591158" lon="10.532197"><ele>301.0</ele><time>2026-03-28T15:02:25.516Z</time></trkpt><trkpt lat="44.5592122" lon="10.5320968"><ele>301.0</ele><time>2026-03-28T15:02:26.51Z</time></trkpt><trkpt lat="44.5592945" lon="10.5319985"><ele>299.40000000000003</ele><time>2026-03-28T15:02:27.511Z</time></trkpt><trkpt lat="44.5593726" lon="10.5319091"><ele>297.8</ele><time>2026-03-28T15:02:28.517Z</time></trkpt><trkpt lat="44.5594485" lon="10.5318247"><ele>296.20000000000005</ele><time>2026-03-28T15:02:29.51Z</time></trkpt><trkpt lat="44.5595342" lon="10.5317455"><ele>294.6</ele><time>2026-03-28T15:02:30.521Z</time></trkpt><trkpt lat="44.5596302" lon="10.5316904"><ele>293.0</ele><time>2026-03-28T15:02:31.511Z</time></trkpt><trkpt lat="44.5597422" lon="10.5316417"><ele>293.0</ele><time>2026-03-28T15:02:32.513Z</time></trkpt><trkpt lat="44.5598577" lon="10.5315908"><ele>293.0</ele><time>2026-03-28T15:02:33.516Z</time></trkpt><trkpt lat="44.5599675" lon="10.5315308"><ele>293.0</ele><time>2026-03-28T15:02:34.512Z</time></trkpt><trkpt lat="44.5600916" lon="10.5314821"><ele>293.0</ele><time>2026-03-28T15:02:35.505Z</time></trkpt><trkpt lat="44.5602212" lon="10.5314378"><ele>293.0</ele><time>2026-03-28T15:02:36.513Z</time></trkpt><trkpt lat="44.5603437" lon="10.5313917"><ele>293.0</ele><time>2026-03-28T15:02:37.513Z</time></trkpt><trkpt lat="44.5604729" lon="10.5313538"><ele>293.0</ele><time>2026-03-28T15:02:38.514Z</time></trkpt><trkpt lat="44.5605939" lon="10.5313152"><ele>293.0</ele><time>2026-03-28T15:02:39.513Z</time></trkpt><trkpt lat="44.5607064" lon="10.5312786"><ele>291.0</ele><time>2026-03-28T15:02:40.514Z</time></trkpt><trkpt lat="44.5608229" lon="10.5312414"><ele>289.0</ele><time>2026-03-28T15:02:41.518Z</time></trkpt><trkpt lat="44.5609515" lon="10.5312043"><ele>287.0</ele><time>2026-03-28T15:02:42.512Z</time></trkpt><trkpt lat="44.5610775" lon="10.5311721"><ele>285.0</ele><time>2026-03-28T15:02:43.513Z</time></trkpt><trkpt lat="44.5612102" lon="10.5311461"><ele>282.25</ele><time>2026-03-28T15:02:44.518Z</time></trkpt><trkpt lat="44.5613419" lon="10.5311218"><ele>279.5</ele><time>2026-03-28T15:02:45.517Z</time></trkpt><trkpt lat="44.5614834" lon="10.5310958"><ele>276.75</ele><time>2026-03-28T15:02:46.52Z</time></trkpt><trkpt lat="44.5616272" lon="10.5310615"><ele>274.0</ele><time>2026-03-28T15:02:47.509Z</time></trkpt><trkpt lat="44.5617439" lon="10.5310261"><ele>274.0</ele><time>2026-03-28T15:02:48.519Z</time></trkpt><trkpt lat="44.5618887" lon="10.5309855"><ele>274.0</ele><time>2026-03-28T15:02:49.509Z</time></trkpt><trkpt lat="44.5620313" lon="10.5309596"><ele>274.0</ele><time>2026-03-28T15:02:50.512Z</time></trkpt><trkpt lat="44.5621745" lon="10.5309311"><ele>274.0</ele><time>2026-03-28T15:02:51.512Z</time></trkpt><trkpt lat="44.5623213" lon="10.5309188"><ele>272.5</ele><time>2026-03-28T15:02:52.519Z</time></trkpt><trkpt lat="44.5624506" lon="10.5308909"><ele>271.0</ele><time>2026-03-28T15:02:53.515Z</time></trkpt><trkpt lat="44.5625914" lon="10.5308701"><ele>269.5</ele><time>2026-03-28T15:02:54.522Z</time></trkpt><trkpt lat="44.5627186" lon="10.5308411"><ele>268.0</ele><time>2026-03-28T15:02:55.517Z</time></trkpt><trkpt lat="44.5628509" lon="10.5308078"><ele>265.5</ele><time>2026-03-28T15:02:56.517Z</time></trkpt><trkpt lat="44.56297" lon="10.5307752"><ele>263.0</ele><time>2026-03-28T15:02:57.516Z</time></trkpt><trkpt lat="44.5631038" lon="10.5307356"><ele>260.5</ele><time>2026-03-28T15:02:58.513Z</time></trkpt><trkpt lat="44.5632269" lon="10.5307103"><ele>258.0</ele><time>2026-03-28T15:02:59.526Z</time></trkpt><trkpt lat="44.5633559" lon="10.530676"><ele>258.0</ele><time>2026-03-28T15:03:00.52Z</time></trkpt><trkpt lat="44.563479" lon="10.5306512"><ele>258.0</ele><time>2026-03-28T15:03:01.522Z</time></trkpt><trkpt lat="44.5636082" lon="10.5306221"><ele>258.0</ele><time>2026-03-28T15:03:02.52Z</time></trkpt><trkpt lat="44.5637263" lon="10.5305962"><ele>258.0</ele><time>2026-03-28T15:03:03.529Z</time></trkpt><trkpt lat="44.5638349" lon="10.5305625"><ele>256.8</ele><time>2026-03-28T15:03:04.515Z</time></trkpt><trkpt lat="44.5639433" lon="10.5305211"><ele>255.60000000000002</ele><time>2026-03-28T15:03:05.517Z</time></trkpt><trkpt lat="44.5640444" lon="10.5304836"><ele>254.39999999999998</ele><time>2026-03-28T15:03:06.516Z</time></trkpt><trkpt lat="44.5641511" lon="10.5304304"><ele>253.2</ele><time>2026-03-28T15:03:07.516Z</time></trkpt><trkpt lat="44.5642596" lon="10.5303797"><ele>252.0</ele><time>2026-03-28T15:03:08.515Z</time></trkpt><trkpt lat="44.5643671" lon="10.5303306"><ele>252.0</ele><time>2026-03-28T15:03:09.517Z</time></trkpt><trkpt lat="44.564483" lon="10.5302774"><ele>252.0</ele><time>2026-03-28T15:03:10.513Z</time></trkpt><trkpt lat="44.5645823" lon="10.5302261"><ele>252.0</ele><time>2026-03-28T15:03:11.517Z</time></trkpt><trkpt lat="44.5646889" lon="10.5301789"><ele>252.0</ele><time>2026-03-28T15:03:12.515Z</time></trkpt><trkpt lat="44.5647907" lon="10.5301228"><ele>252.0</ele><time>2026-03-28T15:03:13.513Z</time></trkpt><trkpt lat="44.5648775" lon="10.5300563"><ele>251.0</ele><time>2026-03-28T15:03:14.514Z</time></trkpt><trkpt lat="44.564966" lon="10.5299747"><ele>250.0</ele><time>2026-03-28T15:03:15.509Z</time></trkpt><trkpt lat="44.5650609" lon="10.5298958"><ele>249.0</ele><time>2026-03-28T15:03:16.524Z</time></trkpt><trkpt lat="44.5651487" lon="10.5298071"><ele>248.0</ele><time>2026-03-28T15:03:17.521Z</time></trkpt><trkpt lat="44.5652228" lon="10.5297174"><ele>247.0</ele><time>2026-03-28T15:03:18.51Z</time></trkpt><trkpt lat="44.5652962" lon="10.5296008"><ele>247.2</ele><time>2026-03-28T15:03:19.512Z</time></trkpt><trkpt lat="44.5653512" lon="10.5294653"><ele>247.39999999999998</ele><time>2026-03-28T15:03:20.514Z</time></trkpt><trkpt lat="44.565381" lon="10.5293235"><ele>247.60000000000002</ele><time>2026-03-28T15:03:21.51Z</time></trkpt><trkpt lat="44.5653943" lon="10.5291728"><ele>247.8</ele><time>2026-03-28T15:03:22.515Z</time></trkpt><trkpt lat="44.5654003" lon="10.5290529"><ele>248.0</ele><time>2026-03-28T15:03:23.512Z</time></trkpt><trkpt lat="44.5653989" lon="10.5289579"><ele>248.00000000000003</ele><time>2026-03-28T15:03:24.512Z</time></trkpt><trkpt lat="44.5654107" lon="10.5288247"><ele>248.0</ele><time>2026-03-28T15:03:26.505Z</time></trkpt><trkpt lat="44.5653696" lon="10.528728"><ele>248.0</ele><time>2026-03-28T15:03:30.526Z</time></trkpt><trkpt lat="44.565306" lon="10.5287078"><ele>248.0</ele><time>2026-03-28T15:03:31.51Z</time></trkpt><trkpt lat="44.5652358" lon="10.5287115"><ele>248.00000000000003</ele><time>2026-03-28T15:03:32.515Z</time></trkpt><trkpt lat="44.5651397" lon="10.528726"><ele>248.0</ele><time>2026-03-28T15:03:33.514Z</time></trkpt><trkpt lat="44.5650289" lon="10.5287506"><ele>248.0</ele><time>2026-03-28T15:03:34.514Z</time></trkpt><trkpt lat="44.5649186" lon="10.5287727"><ele>248.0</ele><time>2026-03-28T15:03:35.521Z</time></trkpt><trkpt lat="44.5648021" lon="10.5287844"><ele>248.0</ele><time>2026-03-28T15:03:36.512Z</time></trkpt><trkpt lat="44.5646694" lon="10.5288028"><ele>248.0</ele><time>2026-03-28T15:03:37.518Z</time></trkpt><trkpt lat="44.564544" lon="10.528832"><ele>248.25</ele><time>2026-03-28T15:03:38.511Z</time></trkpt><trkpt lat="44.5644086" lon="10.5288499"><ele>248.5</ele><time>2026-03-28T15:03:39.511Z</time></trkpt><trkpt lat="44.5642625" lon="10.5288553"><ele>248.75</ele><time>2026-03-28T15:03:40.51Z</time></trkpt><trkpt lat="44.5641217" lon="10.5288602"><ele>249.0</ele><time>2026-03-28T15:03:41.516Z</time></trkpt><trkpt lat="44.563991" lon="10.5288572"><ele>249.0</ele><time>2026-03-28T15:03:42.515Z</time></trkpt><trkpt lat="44.5638476" lon="10.5288385"><ele>249.0</ele><time>2026-03-28T15:03:43.514Z</time></trkpt><trkpt lat="44.5637117" lon="10.5288084"><ele>249.0</ele><time>2026-03-28T15:03:44.513Z</time></trkpt><trkpt lat="44.563574" lon="10.5287566"><ele>249.0</ele><time>2026-03-28T15:03:45.513Z</time></trkpt><trkpt lat="44.5634444" lon="10.528689"><ele>249.0</ele><time>2026-03-28T15:03:46.512Z</time></trkpt><trkpt lat="44.5633058" lon="10.5286144"><ele>249.0</ele><time>2026-03-28T15:03:47.514Z</time></trkpt><trkpt lat="44.5631807" lon="10.5285466"><ele>249.0</ele><time>2026-03-28T15:03:48.515Z</time></trkpt><trkpt lat="44.5630574" lon="10.5284893"><ele>249.0</ele><time>2026-03-28T15:03:49.52Z</time></trkpt><trkpt lat="44.5629128" lon="10.5284412"><ele>250.0</ele><time>2026-03-28T15:03:50.512Z</time></trkpt><trkpt lat="44.5627898" lon="10.5284032"><ele>251.0</ele><time>2026-03-28T15:03:51.517Z</time></trkpt><trkpt lat="44.5626529" lon="10.5283818"><ele>252.0</ele><time>2026-03-28T15:03:52.503Z</time></trkpt><trkpt lat="44.5625075" lon="10.528381"><ele>253.0</ele><time>2026-03-28T15:03:53.505Z</time></trkpt><trkpt lat="44.5623483" lon="10.5283918"><ele>253.0</ele><time>2026-03-28T15:03:54.509Z</time></trkpt><trkpt lat="44.562201" lon="10.5284123"><ele>253.0</ele><time>2026-03-28T15:03:55.518Z</time></trkpt><trkpt lat="44.5620634" lon="10.5284182"><ele>253.0</ele><time>2026-03-28T15:03:56.519Z</time></trkpt><trkpt lat="44.5619175" lon="10.5284222"><ele>253.0</ele><time>2026-03-28T15:03:57.517Z</time></trkpt><trkpt lat="44.5617648" lon="10.5284349"><ele>253.5</ele><time>2026-03-28T15:03:58.521Z</time></trkpt><trkpt lat="44.5616185" lon="10.5284551"><ele>254.0</ele><time>2026-03-28T15:03:59.515Z</time></trkpt><trkpt lat="44.5614692" lon="10.5284722"><ele>254.5</ele><time>2026-03-28T15:04:00.515Z</time></trkpt><trkpt lat="44.561319" lon="10.5284848"><ele>255.0</ele><time>2026-03-28T15:04:01.515Z</time></trkpt><trkpt lat="44.5611658" lon="10.5284946"><ele>255.75</ele><time>2026-03-28T15:04:02.511Z</time></trkpt><trkpt lat="44.5610195" lon="10.5285018"><ele>256.5</ele><time>2026-03-28T15:04:03.526Z</time></trkpt><trkpt lat="44.5608698" lon="10.5285161"><ele>257.25</ele><time>2026-03-28T15:04:04.518Z</time></trkpt><trkpt lat="44.5607273" lon="10.5285333"><ele>258.0</ele><time>2026-03-28T15:04:05.525Z</time></trkpt><trkpt lat="44.5605701" lon="10.5285497"><ele>258.0</ele><time>2026-03-28T15:04:06.514Z</time></trkpt><trkpt lat="44.560423" lon="10.5285928"><ele>258.0</ele><time>2026-03-28T15:04:07.516Z</time></trkpt><trkpt lat="44.5602845" lon="10.5286405"><ele>258.0</ele><time>2026-03-28T15:04:08.517Z</time></trkpt><trkpt lat="44.5601369" lon="10.5287202"><ele>260.0</ele><time>2026-03-28T15:04:09.513Z</time></trkpt><trkpt lat="44.5599881" lon="10.5288008"><ele>262.0</ele><time>2026-03-28T15:04:10.517Z</time></trkpt><trkpt lat="44.5598258" lon="10.5288851"><ele>264.0</ele><time>2026-03-28T15:04:11.518Z</time></trkpt><trkpt lat="44.559661" lon="10.528965"><ele>264.0</ele><time>2026-03-28T15:04:12.52Z</time></trkpt><trkpt lat="44.5595024" lon="10.5290567"><ele>264.0</ele><time>2026-03-28T15:04:13.523Z</time></trkpt><trkpt lat="44.5593333" lon="10.5291379"><ele>264.0</ele><time>2026-03-28T15:04:14.518Z</time></trkpt><trkpt lat="44.5591652" lon="10.5292512"><ele>264.0</ele><time>2026-03-28T15:04:15.512Z</time></trkpt><trkpt lat="44.5589968" lon="10.5293298"><ele>264.0</ele><time>2026-03-28T15:04:16.513Z</time></trkpt><trkpt lat="44.5588468" lon="10.5294259"><ele>264.0</ele><time>2026-03-28T15:04:17.512Z</time></trkpt><trkpt lat="44.558681" lon="10.5295038"><ele>266.0</ele><time>2026-03-28T15:04:18.519Z</time></trkpt><trkpt lat="44.55853" lon="10.5295757"><ele>268.0</ele><time>2026-03-28T15:04:19.511Z</time></trkpt><trkpt lat="44.5583861" lon="10.5296521"><ele>270.0</ele><time>2026-03-28T15:04:20.514Z</time></trkpt><trkpt lat="44.5582345" lon="10.5297203"><ele>270.0</ele><time>2026-03-28T15:04:21.514Z</time></trkpt><trkpt lat="44.5580878" lon="10.5297708"><ele>270.0</ele><time>2026-03-28T15:04:22.515Z</time></trkpt><trkpt lat="44.5579315" lon="10.5298478"><ele>270.0</ele><time>2026-03-28T15:04:23.521Z</time></trkpt><trkpt lat="44.5577902" lon="10.5299255"><ele>269.25</ele><time>2026-03-28T15:04:24.511Z</time></trkpt><trkpt lat="44.5576464" lon="10.529999"><ele>268.5</ele><time>2026-03-28T15:04:25.517Z</time></trkpt><trkpt lat="44.5575149" lon="10.5300763"><ele>267.75</ele><time>2026-03-28T15:04:26.514Z</time></trkpt><trkpt lat="44.5573853" lon="10.5301636"><ele>267.0</ele><time>2026-03-28T15:04:27.512Z</time></trkpt><trkpt lat="44.5572579" lon="10.5302485"><ele>267.0</ele><time>2026-03-28T15:04:28.512Z</time></trkpt><trkpt lat="44.5571418" lon="10.5303452"><ele>267.0</ele><time>2026-03-28T15:04:29.51Z</time></trkpt><trkpt lat="44.5570266" lon="10.5304662"><ele>267.0</ele><time>2026-03-28T15:04:30.515Z</time></trkpt><trkpt lat="44.5569035" lon="10.530563"><ele>267.0</ele><time>2026-03-28T15:04:31.513Z</time></trkpt><trkpt lat="44.5567738" lon="10.5306182"><ele>269.75</ele><time>2026-03-28T15:04:32.512Z</time></trkpt><trkpt lat="44.5566659" lon="10.5306295"><ele>272.5</ele><time>2026-03-28T15:04:33.527Z</time></trkpt><trkpt lat="44.5565724" lon="10.5306082"><ele>275.25</ele><time>2026-03-28T15:04:34.504Z</time></trkpt><trkpt lat="44.5564797" lon="10.5305169"><ele>278.0</ele><time>2026-03-28T15:04:35.498Z</time></trkpt><trkpt lat="44.5563529" lon="10.5304067"><ele>277.5</ele><time>2026-03-28T15:04:36.505Z</time></trkpt><trkpt lat="44.5562279" lon="10.530309"><ele>277.0</ele><time>2026-03-28T15:04:37.502Z</time></trkpt><trkpt lat="44.5561002" lon="10.5302021"><ele>276.5</ele><time>2026-03-28T15:04:38.513Z</time></trkpt><trkpt lat="44.5559736" lon="10.5301104"><ele>276.0</ele><time>2026-03-28T15:04:39.503Z</time></trkpt><trkpt lat="44.5558324" lon="10.5300237"><ele>276.0</ele><time>2026-03-28T15:04:40.505Z</time></trkpt><trkpt lat="44.5557027" lon="10.5299394"><ele>276.0</ele><time>2026-03-28T15:04:41.499Z</time></trkpt><trkpt lat="44.5555486" lon="10.5299"><ele>276.0</ele><time>2026-03-28T15:04:42.503Z</time></trkpt><trkpt lat="44.5553877" lon="10.529864"><ele>278.0</ele><time>2026-03-28T15:04:43.502Z</time></trkpt><trkpt lat="44.5552025" lon="10.5298274"><ele>280.0</ele><time>2026-03-28T15:04:44.506Z</time></trkpt><trkpt lat="44.5550387" lon="10.5297967"><ele>282.0</ele><time>2026-03-28T15:04:45.497Z</time></trkpt><trkpt lat="44.5548648" lon="10.5297692"><ele>282.0</ele><time>2026-03-28T15:04:46.503Z</time></trkpt><trkpt lat="44.5546899" lon="10.5297409"><ele>282.0</ele><time>2026-03-28T15:04:47.496Z</time></trkpt><trkpt lat="44.5545174" lon="10.5297032"><ele>282.0</ele><time>2026-03-28T15:04:48.498Z</time></trkpt><trkpt lat="44.5543466" lon="10.5296786"><ele>282.0</ele><time>2026-03-28T15:04:49.496Z</time></trkpt><trkpt lat="44.5541872" lon="10.5296647"><ele>282.0</ele><time>2026-03-28T15:04:50.496Z</time></trkpt><trkpt lat="44.5540308" lon="10.5296446"><ele>282.0</ele><time>2026-03-28T15:04:51.493Z</time></trkpt><trkpt lat="44.5538811" lon="10.5296413"><ele>282.0</ele><time>2026-03-28T15:04:52.497Z</time></trkpt><trkpt lat="44.5537327" lon="10.5296888"><ele>282.0</ele><time>2026-03-28T15:04:53.493Z</time></trkpt><trkpt lat="44.5535716" lon="10.5297289"><ele>282.0</ele><time>2026-03-28T15:04:54.498Z</time></trkpt><trkpt lat="44.5534088" lon="10.5297469"><ele>281.6666666666667</ele><time>2026-03-28T15:04:55.501Z</time></trkpt><trkpt lat="44.553226" lon="10.5297623"><ele>281.33333333333337</ele><time>2026-03-28T15:04:56.502Z</time></trkpt><trkpt lat="44.5530582" lon="10.5297868"><ele>281.0</ele><time>2026-03-28T15:04:57.504Z</time></trkpt><trkpt lat="44.5529044" lon="10.5298054"><ele>280.6666666666667</ele><time>2026-03-28T15:04:58.506Z</time></trkpt><trkpt lat="44.5527596" lon="10.5298386"><ele>280.3333333333333</ele><time>2026-03-28T15:04:59.499Z</time></trkpt><trkpt lat="44.5526077" lon="10.5298688"><ele>280.0</ele><time>2026-03-28T15:05:00.497Z</time></trkpt><trkpt lat="44.5524582" lon="10.5298845"><ele>280.0</ele><time>2026-03-28T15:05:01.496Z</time></trkpt><trkpt lat="44.5523267" lon="10.5299216"><ele>280.0</ele><time>2026-03-28T15:05:02.502Z</time></trkpt><trkpt lat="44.5522018" lon="10.5300118"><ele>280.0</ele><time>2026-03-28T15:05:03.502Z</time></trkpt><trkpt lat="44.5520881" lon="10.530164"><ele>280.0</ele><time>2026-03-28T15:05:04.498Z</time></trkpt><trkpt lat="44.5519876" lon="10.5303462"><ele>281.75</ele><time>2026-03-28T15:05:05.492Z</time></trkpt><trkpt lat="44.5519056" lon="10.5305148"><ele>283.5</ele><time>2026-03-28T15:05:06.495Z</time></trkpt><trkpt lat="44.5518083" lon="10.5306401"><ele>285.25</ele><time>2026-03-28T15:05:07.484Z</time></trkpt><trkpt lat="44.5516488" lon="10.5306787"><ele>287.0</ele><time>2026-03-28T15:05:08.494Z</time></trkpt><trkpt lat="44.5514889" lon="10.5306571"><ele>287.0</ele><time>2026-03-28T15:05:09.494Z</time></trkpt><trkpt lat="44.5513194" lon="10.5306692"><ele>287.0</ele><time>2026-03-28T15:05:10.49Z</time></trkpt><trkpt lat="44.5511993" lon="10.5306838"><ele>287.0</ele><time>2026-03-28T15:05:11.494Z</time></trkpt><trkpt lat="44.5510712" lon="10.5307136"><ele>287.0</ele><time>2026-03-28T15:05:12.496Z</time></trkpt><trkpt lat="44.550939" lon="10.5307215"><ele>286.25</ele><time>2026-03-28T15:05:13.492Z</time></trkpt><trkpt lat="44.5508361" lon="10.5307178"><ele>285.5</ele><time>2026-03-28T15:05:14.495Z</time></trkpt><trkpt lat="44.5507272" lon="10.530684"><ele>284.75</ele><time>2026-03-28T15:05:15.492Z</time></trkpt><trkpt lat="44.5505966" lon="10.5306108"><ele>284.0</ele><time>2026-03-28T15:05:16.501Z</time></trkpt><trkpt lat="44.5504799" lon="10.5305169"><ele>284.25</ele><time>2026-03-28T15:05:17.495Z</time></trkpt><trkpt lat="44.5503707" lon="10.5304256"><ele>284.5</ele><time>2026-03-28T15:05:18.489Z</time></trkpt><trkpt lat="44.5502647" lon="10.5303704"><ele>284.75</ele><time>2026-03-28T15:05:19.497Z</time></trkpt><trkpt lat="44.5501638" lon="10.5303733"><ele>285.0</ele><time>2026-03-28T15:05:20.503Z</time></trkpt><trkpt lat="44.5500566" lon="10.5304189"><ele>285.0</ele><time>2026-03-28T15:05:21.487Z</time></trkpt><trkpt lat="44.5499612" lon="10.5304823"><ele>285.0</ele><time>2026-03-28T15:05:22.495Z</time></trkpt><trkpt lat="44.5498896" lon="10.5305091"><ele>285.0</ele><time>2026-03-28T15:05:23.491Z</time></trkpt><trkpt lat="44.5498255" lon="10.5304682"><ele>285.0</ele><time>2026-03-28T15:05:24.494Z</time></trkpt><trkpt lat="44.5497567" lon="10.5303567"><ele>285.0</ele><time>2026-03-28T15:05:25.499Z</time></trkpt><trkpt lat="44.5496883" lon="10.5302073"><ele>286.5</ele><time>2026-03-28T15:05:26.491Z</time></trkpt><trkpt lat="44.5495936" lon="10.5300894"><ele>288.0</ele><time>2026-03-28T15:05:27.5Z</time></trkpt><trkpt lat="44.5494756" lon="10.5300052"><ele>289.5</ele><time>2026-03-28T15:05:28.489Z</time></trkpt><trkpt lat="44.5493523" lon="10.5299245"><ele>291.0</ele><time>2026-03-28T15:05:29.489Z</time></trkpt><trkpt lat="44.5492533" lon="10.5298957"><ele>291.3333333333333</ele><time>2026-03-28T15:05:30.496Z</time></trkpt><trkpt lat="44.5491641" lon="10.5298848"><ele>291.6666666666667</ele><time>2026-03-28T15:05:31.499Z</time></trkpt><trkpt lat="44.5490748" lon="10.5298596"><ele>292.0</ele><time>2026-03-28T15:05:32.501Z</time></trkpt><trkpt lat="44.548985" lon="10.5298353"><ele>292.33333333333337</ele><time>2026-03-28T15:05:33.503Z</time></trkpt><trkpt lat="44.5489067" lon="10.5297988"><ele>292.6666666666667</ele><time>2026-03-28T15:05:34.502Z</time></trkpt><trkpt lat="44.548865" lon="10.5297212"><ele>293.0</ele><time>2026-03-28T15:05:35.505Z</time></trkpt><trkpt lat="44.5488619" lon="10.5296077"><ele>295.2</ele><time>2026-03-28T15:05:36.504Z</time></trkpt><trkpt lat="44.5489026" lon="10.5295029"><ele>297.4</ele><time>2026-03-28T15:05:37.501Z</time></trkpt><trkpt lat="44.5489419" lon="10.5293841"><ele>299.59999999999997</ele><time>2026-03-28T15:05:38.496Z</time></trkpt><trkpt lat="44.548948" lon="10.5292474"><ele>301.8</ele><time>2026-03-28T15:05:39.492Z</time></trkpt><trkpt lat="44.5489193" lon="10.5291"><ele>304.0</ele><time>2026-03-28T15:05:40.492Z</time></trkpt><trkpt lat="44.5488808" lon="10.5289527"><ele>304.0</ele><time>2026-03-28T15:05:41.495Z</time></trkpt><trkpt lat="44.5488242" lon="10.5288058"><ele>304.0</ele><time>2026-03-28T15:05:42.498Z</time></trkpt><trkpt lat="44.5487446" lon="10.5286992"><ele>304.0</ele><time>2026-03-28T15:05:43.492Z</time></trkpt><trkpt lat="44.5486369" lon="10.5286398"><ele>304.0</ele><time>2026-03-28T15:05:44.498Z</time></trkpt><trkpt lat="44.5485106" lon="10.5286481"><ele>302.0</ele><time>2026-03-28T15:05:45.499Z</time></trkpt><trkpt lat="44.548399" lon="10.5287519"><ele>300.0</ele><time>2026-03-28T15:05:46.492Z</time></trkpt><trkpt lat="44.5482977" lon="10.528867"><ele>298.0</ele><time>2026-03-28T15:05:47.497Z</time></trkpt><trkpt lat="44.5482022" lon="10.5289784"><ele>296.0</ele><time>2026-03-28T15:05:48.493Z</time></trkpt><trkpt lat="44.5481158" lon="10.5290741"><ele>296.0</ele><time>2026-03-28T15:05:49.5Z</time></trkpt><trkpt lat="44.5480272" lon="10.5291408"><ele>296.0</ele><time>2026-03-28T15:05:50.495Z</time></trkpt><trkpt lat="44.5479342" lon="10.529179"><ele>296.0</ele><time>2026-03-28T15:05:51.5Z</time></trkpt><trkpt lat="44.5478304" lon="10.5291619"><ele>296.0</ele><time>2026-03-28T15:05:52.497Z</time></trkpt><trkpt lat="44.5477401" lon="10.5290669"><ele>296.0</ele><time>2026-03-28T15:05:53.498Z</time></trkpt><trkpt lat="44.5476752" lon="10.5289207"><ele>296.75</ele><time>2026-03-28T15:05:54.496Z</time></trkpt><trkpt lat="44.5476229" lon="10.5287677"><ele>297.5</ele><time>2026-03-28T15:05:55.493Z</time></trkpt><trkpt lat="44.5475609" lon="10.5286262"><ele>298.25</ele><time>2026-03-28T15:05:56.5Z</time></trkpt><trkpt lat="44.54749" lon="10.5284929"><ele>299.0</ele><time>2026-03-28T15:05:57.503Z</time></trkpt><trkpt lat="44.5474027" lon="10.5283779"><ele>299.2</ele><time>2026-03-28T15:05:58.51Z</time></trkpt><trkpt lat="44.5472989" lon="10.5282956"><ele>299.4</ele><time>2026-03-28T15:05:59.497Z</time></trkpt><trkpt lat="44.5471846" lon="10.5282588"><ele>299.6</ele><time>2026-03-28T15:06:00.495Z</time></trkpt><trkpt lat="44.5470852" lon="10.5282675"><ele>299.8</ele><time>2026-03-28T15:06:01.495Z</time></trkpt><trkpt lat="44.5469941" lon="10.5282784"><ele>300.0</ele><time>2026-03-28T15:06:02.503Z</time></trkpt><trkpt lat="44.5469084" lon="10.5282611"><ele>301.4</ele><time>2026-03-28T15:06:03.495Z</time></trkpt><trkpt lat="44.5468305" lon="10.5282065"><ele>302.8</ele><time>2026-03-28T15:06:04.496Z</time></trkpt><trkpt lat="44.5467806" lon="10.5280957"><ele>304.2</ele><time>2026-03-28T15:06:05.496Z</time></trkpt><trkpt lat="44.5467846" lon="10.5279294"><ele>305.6</ele><time>2026-03-28T15:06:06.492Z</time></trkpt><trkpt lat="44.5468076" lon="10.527759"><ele>307.0</ele><time>2026-03-28T15:06:07.497Z</time></trkpt><trkpt lat="44.5468376" lon="10.5275924"><ele>307.0</ele><time>2026-03-28T15:06:08.496Z</time></trkpt><trkpt lat="44.5468509" lon="10.5274266"><ele>307.0</ele><time>2026-03-28T15:06:09.492Z</time></trkpt><trkpt lat="44.5468379" lon="10.5272655"><ele>307.0</ele><time>2026-03-28T15:06:10.49Z</time></trkpt><trkpt lat="44.5468002" lon="10.5271108"><ele>307.0</ele><time>2026-03-28T15:06:11.488Z</time></trkpt><trkpt lat="44.546747" lon="10.5269694"><ele>307.25</ele><time>2026-03-28T15:06:12.498Z</time></trkpt><trkpt lat="44.5466995" lon="10.5268372"><ele>307.5</ele><time>2026-03-28T15:06:13.491Z</time></trkpt><trkpt lat="44.5466597" lon="10.5266957"><ele>307.75</ele><time>2026-03-28T15:06:14.502Z</time></trkpt><trkpt lat="44.5465928" lon="10.5265564"><ele>308.0</ele><time>2026-03-28T15:06:15.487Z</time></trkpt><trkpt lat="44.5465077" lon="10.5264447"><ele>308.0</ele><time>2026-03-28T15:06:16.49Z</time></trkpt><trkpt lat="44.5464069" lon="10.5263676"><ele>308.0</ele><time>2026-03-28T15:06:17.493Z</time></trkpt><trkpt lat="44.5463039" lon="10.5263215"><ele>308.0</ele><time>2026-03-28T15:06:18.49Z</time></trkpt><trkpt lat="44.5462001" lon="10.5262692"><ele>308.0</ele><time>2026-03-28T15:06:19.494Z</time></trkpt><trkpt lat="44.5461098" lon="10.5261797"><ele>308.0</ele><time>2026-03-28T15:06:20.485Z</time></trkpt><trkpt lat="44.5460225" lon="10.5260637"><ele>310.75</ele><time>2026-03-28T15:06:21.488Z</time></trkpt><trkpt lat="44.5459575" lon="10.5259075"><ele>313.5</ele><time>2026-03-28T15:06:22.488Z</time></trkpt><trkpt lat="44.5458823" lon="10.5257624"><ele>316.25</ele><time>2026-03-28T15:06:23.478Z</time></trkpt><trkpt lat="44.5457862" lon="10.5256444"><ele>319.0</ele><time>2026-03-28T15:06:24.497Z</time></trkpt><trkpt lat="44.5456731" lon="10.5255473"><ele>319.0</ele><time>2026-03-28T15:06:25.482Z</time></trkpt><trkpt lat="44.5455479" lon="10.5254859"><ele>319.0</ele><time>2026-03-28T15:06:26.487Z</time></trkpt><trkpt lat="44.5454188" lon="10.5254448"><ele>319.0</ele><time>2026-03-28T15:06:27.483Z</time></trkpt><trkpt lat="44.5452903" lon="10.5254173"><ele>319.0</ele><time>2026-03-28T15:06:28.485Z</time></trkpt><trkpt lat="44.5451579" lon="10.5254394"><ele>318.75</ele><time>2026-03-28T15:06:29.478Z</time></trkpt><trkpt lat="44.545028" lon="10.525471"><ele>318.5</ele><time>2026-03-28T15:06:30.483Z</time></trkpt><trkpt lat="44.5449172" lon="10.5255064"><ele>318.25</ele><time>2026-03-28T15:06:31.489Z</time></trkpt><trkpt lat="44.5448098" lon="10.5255157"><ele>318.0</ele><time>2026-03-28T15:06:32.487Z</time></trkpt><trkpt lat="44.5447078" lon="10.5254853"><ele>318.0</ele><time>2026-03-28T15:06:33.488Z</time></trkpt><trkpt lat="44.544605" lon="10.5254173"><ele>318.0</ele><time>2026-03-28T15:06:34.492Z</time></trkpt><trkpt lat="44.5445114" lon="10.5253393"><ele>318.0</ele><time>2026-03-28T15:06:35.484Z</time></trkpt><trkpt lat="44.5444328" lon="10.5252316"><ele>318.0</ele><time>2026-03-28T15:06:36.494Z</time></trkpt><trkpt lat="44.5443618" lon="10.5251021"><ele>318.0</ele><time>2026-03-28T15:06:37.492Z</time></trkpt><trkpt lat="44.5443194" lon="10.5249312"><ele>319.0</ele><time>2026-03-28T15:06:38.488Z</time></trkpt><trkpt lat="44.5442799" lon="10.5247678"><ele>320.0</ele><time>2026-03-28T15:06:39.49Z</time></trkpt><trkpt lat="44.5441935" lon="10.5246447"><ele>321.0</ele><time>2026-03-28T15:06:40.489Z</time></trkpt><trkpt lat="44.5441047" lon="10.5245392"><ele>322.0</ele><time>2026-03-28T15:06:41.494Z</time></trkpt><trkpt lat="44.5440013" lon="10.5244382"><ele>322.0</ele><time>2026-03-28T15:06:42.491Z</time></trkpt><trkpt lat="44.5439026" lon="10.5243093"><ele>322.0</ele><time>2026-03-28T15:06:43.491Z</time></trkpt><trkpt lat="44.5438178" lon="10.524148"><ele>322.0</ele><time>2026-03-28T15:06:44.495Z</time></trkpt><trkpt lat="44.543715" lon="10.5239979"><ele>322.0</ele><time>2026-03-28T15:06:45.49Z</time></trkpt><trkpt lat="44.5436198" lon="10.5238397"><ele>324.25</ele><time>2026-03-28T15:06:46.497Z</time></trkpt><trkpt lat="44.5435199" lon="10.5236671"><ele>326.5</ele><time>2026-03-28T15:06:47.497Z</time></trkpt><trkpt lat="44.5434273" lon="10.5235085"><ele>328.75</ele><time>2026-03-28T15:06:48.495Z</time></trkpt><trkpt lat="44.5433418" lon="10.5233448"><ele>331.0</ele><time>2026-03-28T15:06:49.492Z</time></trkpt><trkpt lat="44.5432408" lon="10.5231831"><ele>331.0</ele><time>2026-03-28T15:06:50.496Z</time></trkpt><trkpt lat="44.5431458" lon="10.5230626"><ele>331.0</ele><time>2026-03-28T15:06:51.494Z</time></trkpt><trkpt lat="44.5430447" lon="10.5229513"><ele>331.0</ele><time>2026-03-28T15:06:52.486Z</time></trkpt><trkpt lat="44.5429497" lon="10.5228439"><ele>331.0</ele><time>2026-03-28T15:06:53.49Z</time></trkpt><trkpt lat="44.5428485" lon="10.5227292"><ele>331.75</ele><time>2026-03-28T15:06:54.484Z</time></trkpt><trkpt lat="44.5427119" lon="10.522643"><ele>332.5</ele><time>2026-03-28T15:06:55.491Z</time></trkpt><trkpt lat="44.5425759" lon="10.5226069"><ele>333.25</ele><time>2026-03-28T15:06:56.486Z</time></trkpt><trkpt lat="44.5424394" lon="10.5225814"><ele>334.0</ele><time>2026-03-28T15:06:57.487Z</time></trkpt><trkpt lat="44.5423028" lon="10.5225463"><ele>334.0</ele><time>2026-03-28T15:06:58.495Z</time></trkpt><trkpt lat="44.5421974" lon="10.5224443"><ele>334.0</ele><time>2026-03-28T15:06:59.492Z</time></trkpt><trkpt lat="44.5421196" lon="10.5223175"><ele>334.0</ele><time>2026-03-28T15:07:00.482Z</time></trkpt><trkpt lat="44.5420678" lon="10.5221307"><ele>334.0</ele><time>2026-03-28T15:07:01.487Z</time></trkpt><trkpt lat="44.5420244" lon="10.5219364"><ele>333.75</ele><time>2026-03-28T15:07:02.487Z</time></trkpt><trkpt lat="44.5419968" lon="10.5217533"><ele>333.5</ele><time>2026-03-28T15:07:03.5Z</time></trkpt><trkpt lat="44.541988" lon="10.5215576"><ele>333.25</ele><time>2026-03-28T15:07:04.486Z</time></trkpt><trkpt lat="44.5419803" lon="10.5214088"><ele>333.0</ele><time>2026-03-28T15:07:05.489Z</time></trkpt><trkpt lat="44.5419628" lon="10.5212666"><ele>335.4</ele><time>2026-03-28T15:07:06.488Z</time></trkpt><trkpt lat="44.5419331" lon="10.5211304"><ele>337.79999999999995</ele><time>2026-03-28T15:07:07.49Z</time></trkpt><trkpt lat="44.5418879" lon="10.5210005"><ele>340.2</ele><time>2026-03-28T15:07:08.485Z</time></trkpt><trkpt lat="44.5418211" lon="10.5209077"><ele>342.6</ele><time>2026-03-28T15:07:09.491Z</time></trkpt><trkpt lat="44.5417352" lon="10.5208645"><ele>345.0</ele><time>2026-03-28T15:07:10.492Z</time></trkpt><trkpt lat="44.5416399" lon="10.5208628"><ele>345.0</ele><time>2026-03-28T15:07:11.495Z</time></trkpt><trkpt lat="44.5415145" lon="10.5209212"><ele>345.0</ele><time>2026-03-28T15:07:12.493Z</time></trkpt><trkpt lat="44.5413901" lon="10.5209476"><ele>345.0</ele><time>2026-03-28T15:07:13.503Z</time></trkpt><trkpt lat="44.5412645" lon="10.5209545"><ele>345.0</ele><time>2026-03-28T15:07:14.488Z</time></trkpt><trkpt lat="44.5411267" lon="10.5209516"><ele>344.75</ele><time>2026-03-28T15:07:15.497Z</time></trkpt><trkpt lat="44.5409823" lon="10.5209327"><ele>344.5</ele><time>2026-03-28T15:07:16.495Z</time></trkpt><trkpt lat="44.5408421" lon="10.5209129"><ele>344.25</ele><time>2026-03-28T15:07:17.494Z</time></trkpt><trkpt lat="44.540702" lon="10.5208867"><ele>344.0</ele><time>2026-03-28T15:07:18.502Z</time></trkpt><trkpt lat="44.5405672" lon="10.5208597"><ele>344.0</ele><time>2026-03-28T15:07:19.493Z</time></trkpt><trkpt lat="44.5404495" lon="10.5207879"><ele>344.0</ele><time>2026-03-28T15:07:20.496Z</time></trkpt><trkpt lat="44.5403536" lon="10.5206675"><ele>344.0</ele><time>2026-03-28T15:07:21.489Z</time></trkpt><trkpt lat="44.5402893" lon="10.5205105"><ele>344.0</ele><time>2026-03-28T15:07:22.488Z</time></trkpt><trkpt lat="44.5402401" lon="10.5203191"><ele>345.0</ele><time>2026-03-28T15:07:23.479Z</time></trkpt><trkpt lat="44.5401992" lon="10.5201107"><ele>346.0</ele><time>2026-03-28T15:07:24.486Z</time></trkpt><trkpt lat="44.5401553" lon="10.5198995"><ele>347.0</ele><time>2026-03-28T15:07:25.484Z</time></trkpt><trkpt lat="44.5400785" lon="10.5196948"><ele>355.0</ele><time>2026-03-28T15:07:26.48Z</time></trkpt><trkpt lat="44.5399782" lon="10.519559"><ele>363.0</ele><time>2026-03-28T15:07:27.489Z</time></trkpt><trkpt lat="44.5398529" lon="10.5194519"><ele>371.0</ele><time>2026-03-28T15:07:28.482Z</time></trkpt><trkpt lat="44.5397535" lon="10.5193465"><ele>379.0</ele><time>2026-03-28T15:07:29.484Z</time></trkpt><trkpt lat="44.5396293" lon="10.5192698"><ele>377.75</ele><time>2026-03-28T15:07:30.481Z</time></trkpt><trkpt lat="44.5394831" lon="10.5192115"><ele>376.5</ele><time>2026-03-28T15:07:31.478Z</time></trkpt><trkpt lat="44.5393447" lon="10.5192172"><ele>375.25</ele><time>2026-03-28T15:07:32.481Z</time></trkpt><trkpt lat="44.5392271" lon="10.5192804"><ele>374.0</ele><time>2026-03-28T15:07:33.483Z</time></trkpt><trkpt lat="44.5391154" lon="10.519349"><ele>374.0</ele><time>2026-03-28T15:07:34.478Z</time></trkpt><trkpt lat="44.5389978" lon="10.519423"><ele>374.0</ele><time>2026-03-28T15:07:35.482Z</time></trkpt><trkpt lat="44.5388883" lon="10.5194606"><ele>374.0</ele><time>2026-03-28T15:07:36.48Z</time></trkpt><trkpt lat="44.5387685" lon="10.5195117"><ele>374.0</ele><time>2026-03-28T15:07:37.485Z</time></trkpt><trkpt lat="44.5386651" lon="10.5195194"><ele>373.83333333333337</ele><time>2026-03-28T15:07:38.484Z</time></trkpt><trkpt lat="44.5385775" lon="10.5195082"><ele>373.6666666666667</ele><time>2026-03-28T15:07:39.487Z</time></trkpt><trkpt lat="44.5384984" lon="10.5194671"><ele>373.5</ele><time>2026-03-28T15:07:40.488Z</time></trkpt><trkpt lat="44.538426" lon="10.5194459"><ele>373.3333333333333</ele><time>2026-03-28T15:07:41.485Z</time></trkpt><trkpt lat="44.5383532" lon="10.5194618"><ele>373.16666666666663</ele><time>2026-03-28T15:07:42.488Z</time></trkpt><trkpt lat="44.5382977" lon="10.5195325"><ele>373.0</ele><time>2026-03-28T15:07:43.48Z</time></trkpt><trkpt lat="44.5382454" lon="10.5196184"><ele>367.5</ele><time>2026-03-28T15:07:44.481Z</time></trkpt><trkpt lat="44.5382033" lon="10.5197395"><ele>362.0</ele><time>2026-03-28T15:07:45.487Z</time></trkpt><trkpt lat="44.5381577" lon="10.5198766"><ele>356.5</ele><time>2026-03-28T15:07:46.49Z</time></trkpt><trkpt lat="44.5380925" lon="10.5200041"><ele>351.0</ele><time>2026-03-28T15:07:47.487Z</time></trkpt><trkpt lat="44.5379846" lon="10.5201308"><ele>353.25</ele><time>2026-03-28T15:07:48.5Z</time></trkpt><trkpt lat="44.5378706" lon="10.5202116"><ele>355.5</ele><time>2026-03-28T15:07:49.5Z</time></trkpt><trkpt lat="44.5377455" lon="10.5202551"><ele>357.75</ele><time>2026-03-28T15:07:50.494Z</time></trkpt><trkpt lat="44.53762" lon="10.5202796"><ele>360.0</ele><time>2026-03-28T15:07:51.499Z</time></trkpt><trkpt lat="44.5375032" lon="10.5202909"><ele>360.0</ele><time>2026-03-28T15:07:52.491Z</time></trkpt><trkpt lat="44.5373977" lon="10.5203019"><ele>360.0</ele><time>2026-03-28T15:07:53.501Z</time></trkpt><trkpt lat="44.5372941" lon="10.5203096"><ele>360.0</ele><time>2026-03-28T15:07:54.498Z</time></trkpt><trkpt lat="44.5371817" lon="10.5202962"><ele>360.0</ele><time>2026-03-28T15:07:55.498Z</time></trkpt><trkpt lat="44.5370722" lon="10.5202643"><ele>360.0</ele><time>2026-03-28T15:07:56.499Z</time></trkpt><trkpt lat="44.5369557" lon="10.5202244"><ele>361.25</ele><time>2026-03-28T15:07:57.506Z</time></trkpt><trkpt lat="44.53683" lon="10.5202043"><ele>362.5</ele><time>2026-03-28T15:07:58.501Z</time></trkpt><trkpt lat="44.5366968" lon="10.5201916"><ele>363.75</ele><time>2026-03-28T15:07:59.505Z</time></trkpt><trkpt lat="44.5365576" lon="10.5201927"><ele>365.0</ele><time>2026-03-28T15:08:00.494Z</time></trkpt><trkpt lat="44.5364072" lon="10.5201961"><ele>365.0</ele><time>2026-03-28T15:08:01.504Z</time></trkpt><trkpt lat="44.5362455" lon="10.52019"><ele>365.0</ele><time>2026-03-28T15:08:02.497Z</time></trkpt><trkpt lat="44.5360993" lon="10.5201721"><ele>365.0</ele><time>2026-03-28T15:08:03.505Z</time></trkpt><trkpt lat="44.53596" lon="10.5201338"><ele>364.0</ele><time>2026-03-28T15:08:04.495Z</time></trkpt><trkpt lat="44.5358538" lon="10.5200881"><ele>363.0</ele><time>2026-03-28T15:08:05.491Z</time></trkpt><trkpt lat="44.5357442" lon="10.5199739"><ele>362.0</ele><time>2026-03-28T15:08:06.495Z</time></trkpt><trkpt lat="44.5356571" lon="10.5198194"><ele>361.0</ele><time>2026-03-28T15:08:07.489Z</time></trkpt><trkpt lat="44.5355989" lon="10.519658"><ele>362.75</ele><time>2026-03-28T15:08:08.493Z</time></trkpt><trkpt lat="44.5355681" lon="10.5194819"><ele>364.5</ele><time>2026-03-28T15:08:09.496Z</time></trkpt><trkpt lat="44.5355697" lon="10.5192904"><ele>366.25</ele><time>2026-03-28T15:08:10.497Z</time></trkpt><trkpt lat="44.5355559" lon="10.5191131"><ele>368.0</ele><time>2026-03-28T15:08:11.495Z</time></trkpt><trkpt lat="44.5354922" lon="10.5189501"><ele>369.33333333333337</ele><time>2026-03-28T15:08:12.509Z</time></trkpt><trkpt lat="44.5353862" lon="10.5188146"><ele>370.6666666666667</ele><time>2026-03-28T15:08:13.492Z</time></trkpt><trkpt lat="44.5352498" lon="10.5187075"><ele>372.0</ele><time>2026-03-28T15:08:14.489Z</time></trkpt><trkpt lat="44.5351062" lon="10.518584"><ele>372.0</ele><time>2026-03-28T15:08:15.483Z</time></trkpt><trkpt lat="44.5349712" lon="10.5184966"><ele>372.0</ele><time>2026-03-28T15:08:16.489Z</time></trkpt><trkpt lat="44.5348099" lon="10.5184444"><ele>372.0</ele><time>2026-03-28T15:08:17.481Z</time></trkpt><trkpt lat="44.5346609" lon="10.5184437"><ele>370.3333333333333</ele><time>2026-03-28T15:08:18.483Z</time></trkpt><trkpt lat="44.5344986" lon="10.5184387"><ele>368.66666666666663</ele><time>2026-03-28T15:08:19.49Z</time></trkpt><trkpt lat="44.5343171" lon="10.5184307"><ele>367.0</ele><time>2026-03-28T15:08:20.49Z</time></trkpt><trkpt lat="44.5341575" lon="10.5183987"><ele>367.0</ele><time>2026-03-28T15:08:21.501Z</time></trkpt><trkpt lat="44.5340173" lon="10.5182766"><ele>367.0</ele><time>2026-03-28T15:08:22.493Z</time></trkpt><trkpt lat="44.5339091" lon="10.5181035"><ele>367.0</ele><time>2026-03-28T15:08:23.492Z</time></trkpt><trkpt lat="44.5338085" lon="10.5179072"><ele>366.3333333333333</ele><time>2026-03-28T15:08:24.488Z</time></trkpt><trkpt lat="44.5337249" lon="10.5177069"><ele>365.6666666666667</ele><time>2026-03-28T15:08:25.498Z</time></trkpt><trkpt lat="44.5336324" lon="10.5175123"><ele>365.0</ele><time>2026-03-28T15:08:26.489Z</time></trkpt><trkpt lat="44.5335114" lon="10.5173762"><ele>365.0</ele><time>2026-03-28T15:08:27.492Z</time></trkpt><trkpt lat="44.5333867" lon="10.5172763"><ele>365.0</ele><time>2026-03-28T15:08:28.5Z</time></trkpt><trkpt lat="44.5332288" lon="10.5171801"><ele>365.0</ele><time>2026-03-28T15:08:29.498Z</time></trkpt><trkpt lat="44.5331088" lon="10.517061"><ele>366.0</ele><time>2026-03-28T15:08:30.507Z</time></trkpt><trkpt lat="44.5330001" lon="10.5169503"><ele>367.0</ele><time>2026-03-28T15:08:31.498Z</time></trkpt><trkpt lat="44.532898" lon="10.5168259"><ele>368.0</ele><time>2026-03-28T15:08:32.504Z</time></trkpt><trkpt lat="44.5327572" lon="10.5167221"><ele>369.0</ele><time>2026-03-28T15:08:33.499Z</time></trkpt><trkpt lat="44.5326354" lon="10.516645"><ele>369.0</ele><time>2026-03-28T15:08:34.488Z</time></trkpt><trkpt lat="44.5324801" lon="10.5165876"><ele>369.0</ele><time>2026-03-28T15:08:35.49Z</time></trkpt><trkpt lat="44.5323052" lon="10.5165445"><ele>369.0</ele><time>2026-03-28T15:08:36.5Z</time></trkpt><trkpt lat="44.5321341" lon="10.5165051"><ele>368.3333333333333</ele><time>2026-03-28T15:08:37.494Z</time></trkpt><trkpt lat="44.5319668" lon="10.5164631"><ele>367.66666666666663</ele><time>2026-03-28T15:08:38.504Z</time></trkpt><trkpt lat="44.5318185" lon="10.5164251"><ele>367.0</ele><time>2026-03-28T15:08:39.498Z</time></trkpt><trkpt lat="44.5316773" lon="10.516385"><ele>367.0</ele><time>2026-03-28T15:08:40.493Z</time></trkpt><trkpt lat="44.5315366" lon="10.5163939"><ele>367.0</ele><time>2026-03-28T15:08:41.496Z</time></trkpt><trkpt lat="44.5313872" lon="10.5164418"><ele>367.0</ele><time>2026-03-28T15:08:42.483Z</time></trkpt><trkpt lat="44.5312166" lon="10.5165168"><ele>370.0</ele><time>2026-03-28T15:08:43.49Z</time></trkpt><trkpt lat="44.531063" lon="10.5165876"><ele>373.0</ele><time>2026-03-28T15:08:44.488Z</time></trkpt><trkpt lat="44.5309056" lon="10.5166797"><ele>376.0</ele><time>2026-03-28T15:08:45.487Z</time></trkpt><trkpt lat="44.5307534" lon="10.5167705"><ele>376.0</ele><time>2026-03-28T15:08:46.497Z</time></trkpt><trkpt lat="44.5305905" lon="10.5168584"><ele>376.0</ele><time>2026-03-28T15:08:47.489Z</time></trkpt><trkpt lat="44.5304386" lon="10.5169379"><ele>376.0</ele><time>2026-03-28T15:08:48.505Z</time></trkpt><trkpt lat="44.5302867" lon="10.5170187"><ele>374.3333333333333</ele><time>2026-03-28T15:08:49.504Z</time></trkpt><trkpt lat="44.5301349" lon="10.5170834"><ele>372.6666666666667</ele><time>2026-03-28T15:08:50.5Z</time></trkpt><trkpt lat="44.5299797" lon="10.5171406"><ele>371.0</ele><time>2026-03-28T15:08:51.504Z</time></trkpt><trkpt lat="44.5298449" lon="10.517179"><ele>371.0</ele><time>2026-03-28T15:08:52.502Z</time></trkpt><trkpt lat="44.5296804" lon="10.517147"><ele>371.0</ele><time>2026-03-28T15:08:53.502Z</time></trkpt><trkpt lat="44.5295129" lon="10.5170942"><ele>371.0</ele><time>2026-03-28T15:08:54.502Z</time></trkpt><trkpt lat="44.5293737" lon="10.5170373"><ele>374.0</ele><time>2026-03-28T15:08:55.494Z</time></trkpt><trkpt lat="44.5292335" lon="10.5169541"><ele>377.0</ele><time>2026-03-28T15:08:56.501Z</time></trkpt><trkpt lat="44.52912" lon="10.5168816"><ele>380.0</ele><time>2026-03-28T15:08:57.501Z</time></trkpt><trkpt lat="44.5289957" lon="10.516796"><ele>383.0</ele><time>2026-03-28T15:08:58.51Z</time></trkpt><trkpt lat="44.5288693" lon="10.5167007"><ele>383.0</ele><time>2026-03-28T15:08:59.515Z</time></trkpt><trkpt lat="44.5287647" lon="10.5166077"><ele>383.0</ele><time>2026-03-28T15:09:00.512Z</time></trkpt><trkpt lat="44.5286922" lon="10.5165015"><ele>383.0</ele><time>2026-03-28T15:09:01.514Z</time></trkpt><trkpt lat="44.5286502" lon="10.516341"><ele>383.0</ele><time>2026-03-28T15:09:02.511Z</time></trkpt><trkpt lat="44.5286177" lon="10.5162131"><ele>383.0</ele><time>2026-03-28T15:09:03.514Z</time></trkpt><trkpt lat="44.5286151" lon="10.5161113"><ele>383.79999999999995</ele><time>2026-03-28T15:09:04.506Z</time></trkpt><trkpt lat="44.5285946" lon="10.5160075"><ele>384.6</ele><time>2026-03-28T15:09:05.499Z</time></trkpt><trkpt lat="44.5285242" lon="10.5158444"><ele>385.4</ele><time>2026-03-28T15:09:07.5Z</time></trkpt><trkpt lat="44.5285194" lon="10.5157186"><ele>386.20000000000005</ele><time>2026-03-28T15:09:08.512Z</time></trkpt><trkpt lat="44.52855" lon="10.5155598"><ele>387.0</ele><time>2026-03-28T15:09:09.515Z</time></trkpt><trkpt lat="44.5285986" lon="10.5153945"><ele>387.25</ele><time>2026-03-28T15:09:10.505Z</time></trkpt><trkpt lat="44.5286582" lon="10.5152286"><ele>387.5</ele><time>2026-03-28T15:09:11.504Z</time></trkpt><trkpt lat="44.5287029" lon="10.5150885"><ele>387.75</ele><time>2026-03-28T15:09:12.505Z</time></trkpt><trkpt lat="44.528686" lon="10.5149367"><ele>388.0</ele><time>2026-03-28T15:09:13.503Z</time></trkpt><trkpt lat="44.5286335" lon="10.5147974"><ele>388.0</ele><time>2026-03-28T15:09:14.509Z</time></trkpt><trkpt lat="44.5285374" lon="10.514679"><ele>388.0</ele><time>2026-03-28T15:09:15.501Z</time></trkpt><trkpt lat="44.5284088" lon="10.5145668"><ele>388.0</ele><time>2026-03-28T15:09:16.505Z</time></trkpt><trkpt lat="44.52825" lon="10.5144659"><ele>389.6666666666667</ele><time>2026-03-28T15:09:17.506Z</time></trkpt><trkpt lat="44.5280781" lon="10.5143924"><ele>391.33333333333337</ele><time>2026-03-28T15:09:18.511Z</time></trkpt><trkpt lat="44.5279284" lon="10.5143197"><ele>393.0</ele><time>2026-03-28T15:09:19.512Z</time></trkpt><trkpt lat="44.5277589" lon="10.5142634"><ele>393.0</ele><time>2026-03-28T15:09:20.513Z</time></trkpt><trkpt lat="44.5275899" lon="10.5141573"><ele>393.0</ele><time>2026-03-28T15:09:21.511Z</time></trkpt><trkpt lat="44.5274324" lon="10.5140568"><ele>393.0</ele><time>2026-03-28T15:09:22.517Z</time></trkpt><trkpt lat="44.5272897" lon="10.5139512"><ele>393.0</ele><time>2026-03-28T15:09:23.516Z</time></trkpt><trkpt lat="44.5271545" lon="10.5138281"><ele>393.0</ele><time>2026-03-28T15:09:24.513Z</time></trkpt><trkpt lat="44.5270306" lon="10.5137009"><ele>393.0</ele><time>2026-03-28T15:09:25.516Z</time></trkpt><trkpt lat="44.5269199" lon="10.5135255"><ele>393.33333333333337</ele><time>2026-03-28T15:09:26.51Z</time></trkpt><trkpt lat="44.5268231" lon="10.5133119"><ele>393.6666666666667</ele><time>2026-03-28T15:09:27.507Z</time></trkpt><trkpt lat="44.526722" lon="10.5131028"><ele>394.0</ele><time>2026-03-28T15:09:28.514Z</time></trkpt><trkpt lat="44.5266459" lon="10.5128804"><ele>395.6666666666667</ele><time>2026-03-28T15:09:29.512Z</time></trkpt><trkpt lat="44.5265587" lon="10.5126503"><ele>397.33333333333337</ele><time>2026-03-28T15:09:30.512Z</time></trkpt><trkpt lat="44.5264394" lon="10.5124894"><ele>399.0</ele><time>2026-03-28T15:09:31.516Z</time></trkpt><trkpt lat="44.526299" lon="10.5123472"><ele>399.33333333333337</ele><time>2026-03-28T15:09:32.516Z</time></trkpt><trkpt lat="44.5261605" lon="10.5122013"><ele>399.6666666666667</ele><time>2026-03-28T15:09:33.522Z</time></trkpt><trkpt lat="44.526005" lon="10.5120459"><ele>400.0</ele><time>2026-03-28T15:09:34.517Z</time></trkpt><trkpt lat="44.525851" lon="10.5119126"><ele>400.0</ele><time>2026-03-28T15:09:35.52Z</time></trkpt><trkpt lat="44.5256954" lon="10.5117698"><ele>400.0</ele><time>2026-03-28T15:09:36.522Z</time></trkpt><trkpt lat="44.5255463" lon="10.5116411"><ele>400.0</ele><time>2026-03-28T15:09:37.515Z</time></trkpt><trkpt lat="44.5253946" lon="10.511527"><ele>399.33333333333337</ele><time>2026-03-28T15:09:38.511Z</time></trkpt><trkpt lat="44.5252432" lon="10.5114328"><ele>398.66666666666663</ele><time>2026-03-28T15:09:39.51Z</time></trkpt><trkpt lat="44.5250805" lon="10.5113657"><ele>398.0</ele><time>2026-03-28T15:09:40.513Z</time></trkpt><trkpt lat="44.5249406" lon="10.5113266"><ele>398.0</ele><time>2026-03-28T15:09:41.517Z</time></trkpt><trkpt lat="44.5247839" lon="10.5112549"><ele>398.0</ele><time>2026-03-28T15:09:42.519Z</time></trkpt><trkpt lat="44.5246505" lon="10.5111698"><ele>398.0</ele><time>2026-03-28T15:09:43.507Z</time></trkpt><trkpt lat="44.5245232" lon="10.5110352"><ele>400.66666666666663</ele><time>2026-03-28T15:09:44.512Z</time></trkpt><trkpt lat="44.5244443" lon="10.5108468"><ele>403.33333333333337</ele><time>2026-03-28T15:09:45.513Z</time></trkpt><trkpt lat="44.5243675" lon="10.5106544"><ele>406.0</ele><time>2026-03-28T15:09:46.51Z</time></trkpt><trkpt lat="44.5243028" lon="10.510438"><ele>406.33333333333337</ele><time>2026-03-28T15:09:47.503Z</time></trkpt><trkpt lat="44.5242666" lon="10.5102017"><ele>406.66666666666663</ele><time>2026-03-28T15:09:48.501Z</time></trkpt><trkpt lat="44.5242686" lon="10.5099693"><ele>407.0</ele><time>2026-03-28T15:09:49.499Z</time></trkpt><trkpt lat="44.5242921" lon="10.5096965"><ele>407.66666666666663</ele><time>2026-03-28T15:09:50.497Z</time></trkpt><trkpt lat="44.524272" lon="10.5094269"><ele>408.33333333333337</ele><time>2026-03-28T15:09:51.498Z</time></trkpt><trkpt lat="44.5242063" lon="10.5091727"><ele>409.0</ele><time>2026-03-28T15:09:52.498Z</time></trkpt><trkpt lat="44.5241469" lon="10.5089156"><ele>412.5</ele><time>2026-03-28T15:09:53.504Z</time></trkpt><trkpt lat="44.5240909" lon="10.5087006"><ele>416.0</ele><time>2026-03-28T15:09:54.509Z</time></trkpt><trkpt lat="44.5239886" lon="10.5085507"><ele>419.5</ele><time>2026-03-28T15:09:55.504Z</time></trkpt><trkpt lat="44.5238803" lon="10.5084578"><ele>423.0</ele><time>2026-03-28T15:09:56.506Z</time></trkpt><trkpt lat="44.5237671" lon="10.5084342"><ele>420.5</ele><time>2026-03-28T15:09:57.503Z</time></trkpt><trkpt lat="44.5236472" lon="10.5084594"><ele>418.0</ele><time>2026-03-28T15:09:58.49Z</time></trkpt><trkpt lat="44.5235195" lon="10.5084879"><ele>415.5</ele><time>2026-03-28T15:09:59.508Z</time></trkpt><trkpt lat="44.5234001" lon="10.5085051"><ele>413.0</ele><time>2026-03-28T15:10:00.515Z</time></trkpt><trkpt lat="44.5232856" lon="10.5085009"><ele>412.99999999999994</ele><time>2026-03-28T15:10:01.511Z</time></trkpt><trkpt lat="44.5231892" lon="10.5085121"><ele>413.0</ele><time>2026-03-28T15:10:02.522Z</time></trkpt><trkpt lat="44.5231031" lon="10.5085225"><ele>413.0</ele><time>2026-03-28T15:10:03.525Z</time></trkpt><trkpt lat="44.523033" lon="10.5085426"><ele>413.0</ele><time>2026-03-28T15:10:04.518Z</time></trkpt><trkpt lat="44.5229563" lon="10.5085813"><ele>412.99999999999994</ele><time>2026-03-28T15:10:05.518Z</time></trkpt><trkpt lat="44.5228678" lon="10.5086363"><ele>413.0</ele><time>2026-03-28T15:10:06.508Z</time></trkpt><trkpt lat="44.5227668" lon="10.5086874"><ele>415.75</ele><time>2026-03-28T15:10:07.512Z</time></trkpt><trkpt lat="44.5226621" lon="10.5086987"><ele>418.5</ele><time>2026-03-28T15:10:08.504Z</time></trkpt><trkpt lat="44.5225622" lon="10.5086467"><ele>421.25</ele><time>2026-03-28T15:10:09.502Z</time></trkpt><trkpt lat="44.522479" lon="10.5085432"><ele>424.0</ele><time>2026-03-28T15:10:10.505Z</time></trkpt><trkpt lat="44.5224026" lon="10.5083896"><ele>424.0</ele><time>2026-03-28T15:10:11.498Z</time></trkpt><trkpt lat="44.522349" lon="10.5081971"><ele>424.0</ele><time>2026-03-28T15:10:12.501Z</time></trkpt><trkpt lat="44.5223132" lon="10.5079915"><ele>424.0</ele><time>2026-03-28T15:10:13.494Z</time></trkpt><trkpt lat="44.5222575" lon="10.5078183"><ele>424.0</ele><time>2026-03-28T15:10:14.481Z</time></trkpt><trkpt lat="44.5221681" lon="10.5076993"><ele>429.5</ele><time>2026-03-28T15:10:15.494Z</time></trkpt><trkpt lat="44.5220559" lon="10.5076897"><ele>435.0</ele><time>2026-03-28T15:10:16.483Z</time></trkpt><trkpt lat="44.5219478" lon="10.5077323"><ele>440.5</ele><time>2026-03-28T15:10:17.498Z</time></trkpt><trkpt lat="44.5218181" lon="10.5078152"><ele>446.0</ele><time>2026-03-28T15:10:18.483Z</time></trkpt><trkpt lat="44.5216653" lon="10.5078971"><ele>443.75</ele><time>2026-03-28T15:10:19.487Z</time></trkpt><trkpt lat="44.5215069" lon="10.5079411"><ele>441.5</ele><time>2026-03-28T15:10:20.488Z</time></trkpt><trkpt lat="44.5213502" lon="10.5079557"><ele>439.25</ele><time>2026-03-28T15:10:21.493Z</time></trkpt><trkpt lat="44.5212356" lon="10.5080249"><ele>437.0</ele><time>2026-03-28T15:10:22.492Z</time></trkpt><trkpt lat="44.5211333" lon="10.5081432"><ele>437.0</ele><time>2026-03-28T15:10:23.495Z</time></trkpt><trkpt lat="44.5210244" lon="10.5082009"><ele>437.00000000000006</ele><time>2026-03-28T15:10:24.51Z</time></trkpt><trkpt lat="44.5209364" lon="10.5082101"><ele>437.00000000000006</ele><time>2026-03-28T15:10:25.494Z</time></trkpt><trkpt lat="44.5208594" lon="10.5081473"><ele>437.0</ele><time>2026-03-28T15:10:26.499Z</time></trkpt><trkpt lat="44.5207978" lon="10.508015"><ele>437.0</ele><time>2026-03-28T15:10:27.496Z</time></trkpt><trkpt lat="44.5207243" lon="10.5078894"><ele>439.5</ele><time>2026-03-28T15:10:28.49Z</time></trkpt><trkpt lat="44.5206095" lon="10.5077705"><ele>442.0</ele><time>2026-03-28T15:10:29.494Z</time></trkpt><trkpt lat="44.5204749" lon="10.5077059"><ele>444.5</ele><time>2026-03-28T15:10:30.496Z</time></trkpt><trkpt lat="44.5203342" lon="10.5077098"><ele>447.0</ele><time>2026-03-28T15:10:31.502Z</time></trkpt><trkpt lat="44.5201983" lon="10.5076936"><ele>447.0</ele><time>2026-03-28T15:10:32.489Z</time></trkpt><trkpt lat="44.5200819" lon="10.5076198"><ele>447.0</ele><time>2026-03-28T15:10:33.502Z</time></trkpt><trkpt lat="44.5200064" lon="10.5074555"><ele>447.0</ele><time>2026-03-28T15:10:34.494Z</time></trkpt><trkpt lat="44.519939" lon="10.5072761"><ele>447.0</ele><time>2026-03-28T15:10:35.492Z</time></trkpt><trkpt lat="44.5198549" lon="10.5071415"><ele>447.75</ele><time>2026-03-28T15:10:36.492Z</time></trkpt><trkpt lat="44.5197197" lon="10.5070573"><ele>448.5</ele><time>2026-03-28T15:10:37.496Z</time></trkpt><trkpt lat="44.5195783" lon="10.5070679"><ele>449.25</ele><time>2026-03-28T15:10:38.49Z</time></trkpt><trkpt lat="44.5194488" lon="10.5071475"><ele>450.0</ele><time>2026-03-28T15:10:39.496Z</time></trkpt><trkpt lat="44.5192992" lon="10.5072011"><ele>450.0</ele><time>2026-03-28T15:10:40.483Z</time></trkpt><trkpt lat="44.5191606" lon="10.5072226"><ele>450.0</ele><time>2026-03-28T15:10:41.485Z</time></trkpt><trkpt lat="44.5190057" lon="10.5072176"><ele>450.0</ele><time>2026-03-28T15:10:42.484Z</time></trkpt><trkpt lat="44.5188336" lon="10.5071609"><ele>450.25</ele><time>2026-03-28T15:10:43.49Z</time></trkpt><trkpt lat="44.5186642" lon="10.507121"><ele>450.5</ele><time>2026-03-28T15:10:44.485Z</time></trkpt><trkpt lat="44.518532" lon="10.5070445"><ele>450.75</ele><time>2026-03-28T15:10:45.484Z</time></trkpt><trkpt lat="44.5184171" lon="10.5069685"><ele>451.0</ele><time>2026-03-28T15:10:46.481Z</time></trkpt><trkpt lat="44.5182981" lon="10.5068889"><ele>454.0</ele><time>2026-03-28T15:10:47.474Z</time></trkpt><trkpt lat="44.5181639" lon="10.5067434"><ele>457.0</ele><time>2026-03-28T15:10:48.48Z</time></trkpt><trkpt lat="44.5180726" lon="10.506619"><ele>460.0</ele><time>2026-03-28T15:10:49.479Z</time></trkpt><trkpt lat="44.5179792" lon="10.5065409"><ele>463.0</ele><time>2026-03-28T15:10:50.493Z</time></trkpt><trkpt lat="44.5178657" lon="10.5065172"><ele>463.2</ele><time>2026-03-28T15:10:51.492Z</time></trkpt><trkpt lat="44.5177653" lon="10.506518"><ele>463.4</ele><time>2026-03-28T15:10:52.5Z</time></trkpt><trkpt lat="44.5176641" lon="10.5065056"><ele>463.59999999999997</ele><time>2026-03-28T15:10:53.494Z</time></trkpt><trkpt lat="44.517569" lon="10.5064923"><ele>463.79999999999995</ele><time>2026-03-28T15:10:54.501Z</time></trkpt><trkpt lat="44.5174721" lon="10.5064786"><ele>464.0</ele><time>2026-03-28T15:10:55.5Z</time></trkpt><trkpt lat="44.5173653" lon="10.5064412"><ele>464.0</ele><time>2026-03-28T15:10:56.497Z</time></trkpt><trkpt lat="44.5172622" lon="10.5063844"><ele>464.0</ele><time>2026-03-28T15:10:57.493Z</time></trkpt><trkpt lat="44.5171673" lon="10.506309"><ele>464.0</ele><time>2026-03-28T15:10:58.496Z</time></trkpt><trkpt lat="44.5170853" lon="10.5062686"><ele>464.0</ele><time>2026-03-28T15:10:59.5Z</time></trkpt><trkpt lat="44.5170145" lon="10.5062835"><ele>464.0</ele><time>2026-03-28T15:11:00.494Z</time></trkpt><trkpt lat="44.5169587" lon="10.5063462"><ele>463.99999999999994</ele><time>2026-03-28T15:11:01.503Z</time></trkpt><trkpt lat="44.5169165" lon="10.5064202"><ele>464.0</ele><time>2026-03-28T15:11:02.502Z</time></trkpt><trkpt lat="44.5168822" lon="10.5065005"><ele>464.0</ele><time>2026-03-28T15:11:03.506Z</time></trkpt><trkpt lat="44.5168945" lon="10.5065995"><ele>464.0</ele><time>2026-03-28T15:11:04.501Z</time></trkpt><trkpt lat="44.5169427" lon="10.5067252"><ele>463.99999999999994</ele><time>2026-03-28T15:11:05.498Z</time></trkpt><trkpt lat="44.5170119" lon="10.506864"><ele>464.0</ele><time>2026-03-28T15:11:06.501Z</time></trkpt><trkpt lat="44.5171102" lon="10.5070247"><ele>464.0</ele><time>2026-03-28T15:11:07.491Z</time></trkpt><trkpt lat="44.5172244" lon="10.5071812"><ele>464.0</ele><time>2026-03-28T15:11:08.497Z</time></trkpt><trkpt lat="44.5173731" lon="10.5073156"><ele>464.0</ele><time>2026-03-28T15:11:09.493Z</time></trkpt><trkpt lat="44.5174568" lon="10.5074387"><ele>464.0</ele><time>2026-03-28T15:11:10.487Z</time></trkpt><trkpt lat="44.5174942" lon="10.5075408"><ele>464.0</ele><time>2026-03-28T15:11:11.485Z</time></trkpt><trkpt lat="44.5174793" lon="10.5076481"><ele>464.0</ele><time>2026-03-28T15:11:12.499Z</time></trkpt><trkpt lat="44.5173662" lon="10.5077311"><ele>464.0</ele><time>2026-03-28T15:11:13.501Z</time></trkpt><trkpt lat="44.5172622" lon="10.5078047"><ele>464.0</ele><time>2026-03-28T15:11:14.498Z</time></trkpt><trkpt lat="44.5171413" lon="10.5078978"><ele>464.6</ele><time>2026-03-28T15:11:15.498Z</time></trkpt><trkpt lat="44.5170149" lon="10.50797"><ele>465.2</ele><time>2026-03-28T15:11:16.497Z</time></trkpt><trkpt lat="44.516906" lon="10.5080253"><ele>465.80000000000007</ele><time>2026-03-28T15:11:17.503Z</time></trkpt><trkpt lat="44.5168193" lon="10.5080555"><ele>466.40000000000003</ele><time>2026-03-28T15:11:18.497Z</time></trkpt><trkpt lat="44.5167406" lon="10.5080567"><ele>467.0</ele><time>2026-03-28T15:11:19.499Z</time></trkpt><trkpt lat="44.5166667" lon="10.5079616"><ele>469.75</ele><time>2026-03-28T15:11:20.504Z</time></trkpt><trkpt lat="44.5165945" lon="10.5078408"><ele>472.5</ele><time>2026-03-28T15:11:21.49Z</time></trkpt><trkpt lat="44.5165109" lon="10.5076871"><ele>475.25</ele><time>2026-03-28T15:11:22.486Z</time></trkpt><trkpt lat="44.5163987" lon="10.5074924"><ele>478.0</ele><time>2026-03-28T15:11:23.486Z</time></trkpt><trkpt lat="44.5162919" lon="10.5072967"><ele>479.33333333333337</ele><time>2026-03-28T15:11:24.492Z</time></trkpt><trkpt lat="44.5161566" lon="10.5071288"><ele>480.66666666666663</ele><time>2026-03-28T15:11:25.492Z</time></trkpt><trkpt lat="44.5160287" lon="10.5070077"><ele>482.0</ele><time>2026-03-28T15:11:26.488Z</time></trkpt><trkpt lat="44.5159338" lon="10.5068858"><ele>482.3333333333333</ele><time>2026-03-28T15:11:27.494Z</time></trkpt><trkpt lat="44.515866" lon="10.5066944"><ele>482.66666666666663</ele><time>2026-03-28T15:11:28.496Z</time></trkpt><trkpt lat="44.5158007" lon="10.5064765"><ele>483.0</ele><time>2026-03-28T15:11:29.492Z</time></trkpt><trkpt lat="44.5157632" lon="10.506268"><ele>483.79999999999995</ele><time>2026-03-28T15:11:30.499Z</time></trkpt><trkpt lat="44.5157156" lon="10.5061159"><ele>484.59999999999997</ele><time>2026-03-28T15:11:31.496Z</time></trkpt><trkpt lat="44.5156487" lon="10.506004"><ele>485.40000000000003</ele><time>2026-03-28T15:11:32.496Z</time></trkpt><trkpt lat="44.5155732" lon="10.5059671"><ele>486.20000000000005</ele><time>2026-03-28T15:11:33.501Z</time></trkpt><trkpt lat="44.5154918" lon="10.5059904"><ele>487.0</ele><time>2026-03-28T15:11:34.493Z</time></trkpt><trkpt lat="44.5154252" lon="10.5060801"><ele>489.75</ele><time>2026-03-28T15:11:35.493Z</time></trkpt><trkpt lat="44.5153624" lon="10.5061936"><ele>492.5</ele><time>2026-03-28T15:11:36.486Z</time></trkpt><trkpt lat="44.5153034" lon="10.5063436"><ele>495.25</ele><time>2026-03-28T15:11:37.504Z</time></trkpt><trkpt lat="44.5152617" lon="10.506532"><ele>498.0</ele><time>2026-03-28T15:11:38.489Z</time></trkpt><trkpt lat="44.5152285" lon="10.5067471"><ele>498.0</ele><time>2026-03-28T15:11:39.496Z</time></trkpt><trkpt lat="44.515215" lon="10.5069772"><ele>498.0</ele><time>2026-03-28T15:11:40.497Z</time></trkpt><trkpt lat="44.5152357" lon="10.507183"><ele>498.0</ele><time>2026-03-28T15:11:41.503Z</time></trkpt><trkpt lat="44.5153035" lon="10.5073605"><ele>494.0</ele><time>2026-03-28T15:11:42.5Z</time></trkpt><trkpt lat="44.5154075" lon="10.5075113"><ele>490.0</ele><time>2026-03-28T15:11:43.51Z</time></trkpt><trkpt lat="44.5155123" lon="10.5076084"><ele>486.0</ele><time>2026-03-28T15:11:44.5Z</time></trkpt><trkpt lat="44.5155965" lon="10.507705"><ele>482.0</ele><time>2026-03-28T15:11:45.496Z</time></trkpt><trkpt lat="44.5156625" lon="10.5078337"><ele>481.75</ele><time>2026-03-28T15:11:46.495Z</time></trkpt><trkpt lat="44.5156647" lon="10.5080384"><ele>481.5</ele><time>2026-03-28T15:11:47.497Z</time></trkpt><trkpt lat="44.5156241" lon="10.5082164"><ele>481.25</ele><time>2026-03-28T15:11:48.508Z</time></trkpt><trkpt lat="44.5155377" lon="10.5083341"><ele>481.0</ele><time>2026-03-28T15:11:49.5Z</time></trkpt><trkpt lat="44.5154411" lon="10.5083949"><ele>483.4</ele><time>2026-03-28T15:11:50.494Z</time></trkpt><trkpt lat="44.5153461" lon="10.5083827"><ele>485.8</ele><time>2026-03-28T15:11:51.501Z</time></trkpt><trkpt lat="44.5152571" lon="10.5083156"><ele>488.19999999999993</ele><time>2026-03-28T15:11:52.493Z</time></trkpt><trkpt lat="44.5151574" lon="10.5082314"><ele>490.59999999999997</ele><time>2026-03-28T15:11:53.493Z</time></trkpt><trkpt lat="44.5150384" lon="10.5081474"><ele>493.0</ele><time>2026-03-28T15:11:54.49Z</time></trkpt><trkpt lat="44.5148892" lon="10.5081331"><ele>493.0</ele><time>2026-03-28T15:11:55.487Z</time></trkpt><trkpt lat="44.5147645" lon="10.5081851"><ele>493.0</ele><time>2026-03-28T15:11:56.489Z</time></trkpt><trkpt lat="44.5146545" lon="10.5082223"><ele>493.0</ele><time>2026-03-28T15:11:57.494Z</time></trkpt><trkpt lat="44.5145427" lon="10.5081938"><ele>493.0</ele><time>2026-03-28T15:11:58.495Z</time></trkpt><trkpt lat="44.5144591" lon="10.5080837"><ele>492.6666666666667</ele><time>2026-03-28T15:11:59.494Z</time></trkpt><trkpt lat="44.5143913" lon="10.5079309"><ele>492.33333333333337</ele><time>2026-03-28T15:12:00.506Z</time></trkpt><trkpt lat="44.5143396" lon="10.507726"><ele>492.0</ele><time>2026-03-28T15:12:01.496Z</time></trkpt><trkpt lat="44.5142949" lon="10.5074953"><ele>495.33333333333337</ele><time>2026-03-28T15:12:02.496Z</time></trkpt><trkpt lat="44.5142563" lon="10.5072245"><ele>498.6666666666667</ele><time>2026-03-28T15:12:03.489Z</time></trkpt><trkpt lat="44.5142084" lon="10.5069703"><ele>502.0</ele><time>2026-03-28T15:12:04.486Z</time></trkpt><trkpt lat="44.514123" lon="10.5067247"><ele>504.0</ele><time>2026-03-28T15:12:05.487Z</time></trkpt><trkpt lat="44.5140208" lon="10.5064999"><ele>506.0</ele><time>2026-03-28T15:12:06.489Z</time></trkpt><trkpt lat="44.5139068" lon="10.5062822"><ele>508.0</ele><time>2026-03-28T15:12:07.494Z</time></trkpt><trkpt lat="44.5137832" lon="10.5060908"><ele>511.0</ele><time>2026-03-28T15:12:08.494Z</time></trkpt><trkpt lat="44.5136629" lon="10.5059161"><ele>514.0</ele><time>2026-03-28T15:12:09.49Z</time></trkpt><trkpt lat="44.5135527" lon="10.505746"><ele>517.0</ele><time>2026-03-28T15:12:10.495Z</time></trkpt><trkpt lat="44.5134434" lon="10.5056206"><ele>517.0</ele><time>2026-03-28T15:12:11.492Z</time></trkpt><trkpt lat="44.5133342" lon="10.5055497"><ele>517.0</ele><time>2026-03-28T15:12:12.491Z</time></trkpt><trkpt lat="44.513238" lon="10.505615"><ele>517.0</ele><time>2026-03-28T15:12:13.499Z</time></trkpt><trkpt lat="44.5131659" lon="10.5057389"><ele>517.0</ele><time>2026-03-28T15:12:14.484Z</time></trkpt><trkpt lat="44.5131285" lon="10.5058959"><ele>517.0</ele><time>2026-03-28T15:12:15.503Z</time></trkpt><trkpt lat="44.5131378" lon="10.5060597"><ele>517.0</ele><time>2026-03-28T15:12:16.481Z</time></trkpt><trkpt lat="44.5131987" lon="10.5062295"><ele>517.0</ele><time>2026-03-28T15:12:17.488Z</time></trkpt><trkpt lat="44.5132592" lon="10.5064163"><ele>517.0</ele><time>2026-03-28T15:12:18.488Z</time></trkpt><trkpt lat="44.5133157" lon="10.5066259"><ele>517.25</ele><time>2026-03-28T15:12:19.495Z</time></trkpt><trkpt lat="44.5133593" lon="10.5068513"><ele>517.5</ele><time>2026-03-28T15:12:20.492Z</time></trkpt><trkpt lat="44.5133672" lon="10.5070255"><ele>517.75</ele><time>2026-03-28T15:12:21.496Z</time></trkpt><trkpt lat="44.51336" lon="10.507183"><ele>518.0</ele><time>2026-03-28T15:12:22.497Z</time></trkpt><trkpt lat="44.5133275" lon="10.5073048"><ele>518.6</ele><time>2026-03-28T15:12:23.498Z</time></trkpt><trkpt lat="44.5132787" lon="10.5073691"><ele>519.1999999999999</ele><time>2026-03-28T15:12:24.497Z</time></trkpt><trkpt lat="44.513196" lon="10.5073837"><ele>519.8</ele><time>2026-03-28T15:12:25.489Z</time></trkpt><trkpt lat="44.5130892" lon="10.5073639"><ele>520.4</ele><time>2026-03-28T15:12:26.492Z</time></trkpt><trkpt lat="44.5129761" lon="10.5073288"><ele>521.0</ele><time>2026-03-28T15:12:27.496Z</time></trkpt><trkpt lat="44.5128423" lon="10.5072842"><ele>521.0</ele><time>2026-03-28T15:12:28.493Z</time></trkpt><trkpt lat="44.5127095" lon="10.5072473"><ele>521.0</ele><time>2026-03-28T15:12:29.493Z</time></trkpt><trkpt lat="44.5126023" lon="10.5071845"><ele>521.0</ele><time>2026-03-28T15:12:30.5Z</time></trkpt><trkpt lat="44.5125476" lon="10.5071053"><ele>521.0</ele><time>2026-03-28T15:12:31.501Z</time></trkpt><trkpt lat="44.5125528" lon="10.5069428"><ele>521.0</ele><time>2026-03-28T15:12:32.496Z</time></trkpt><trkpt lat="44.5126068" lon="10.5067358"><ele>523.0</ele><time>2026-03-28T15:12:33.488Z</time></trkpt><trkpt lat="44.512679" lon="10.5064911"><ele>525.0</ele><time>2026-03-28T15:12:34.482Z</time></trkpt><trkpt lat="44.5127825" lon="10.5062044"><ele>527.0</ele><time>2026-03-28T15:12:35.484Z</time></trkpt><trkpt lat="44.5127805" lon="10.5059664"><ele>528.0</ele><time>2026-03-28T15:12:36.493Z</time></trkpt><trkpt lat="44.5127174" lon="10.505774"><ele>529.0</ele><time>2026-03-28T15:12:37.488Z</time></trkpt><trkpt lat="44.5126578" lon="10.5056235"><ele>530.0</ele><time>2026-03-28T15:12:38.495Z</time></trkpt><trkpt lat="44.5126331" lon="10.5054756"><ele>531.0</ele><time>2026-03-28T15:12:39.491Z</time></trkpt><trkpt lat="44.5126476" lon="10.5053184"><ele>531.5</ele><time>2026-03-28T15:12:40.494Z</time></trkpt><trkpt lat="44.5126867" lon="10.5051346"><ele>532.0</ele><time>2026-03-28T15:12:41.494Z</time></trkpt><trkpt lat="44.512719" lon="10.5049481"><ele>532.5</ele><time>2026-03-28T15:12:42.499Z</time></trkpt><trkpt lat="44.5127166" lon="10.5047818"><ele>533.0</ele><time>2026-03-28T15:12:43.499Z</time></trkpt><trkpt lat="44.5126665" lon="10.5046396"><ele>534.0</ele><time>2026-03-28T15:12:44.506Z</time></trkpt><trkpt lat="44.512573" lon="10.5045367"><ele>535.0</ele><time>2026-03-28T15:12:45.5Z</time></trkpt><trkpt lat="44.5124543" lon="10.50448"><ele>536.0</ele><time>2026-03-28T15:12:46.5Z</time></trkpt><trkpt lat="44.5123363" lon="10.504422"><ele>537.0</ele><time>2026-03-28T15:12:47.504Z</time></trkpt><trkpt lat="44.5122321" lon="10.5043487"><ele>537.0</ele><time>2026-03-28T15:12:48.5Z</time></trkpt><trkpt lat="44.512164" lon="10.5042182"><ele>537.0</ele><time>2026-03-28T15:12:49.501Z</time></trkpt><trkpt lat="44.5121285" lon="10.5040468"><ele>537.0</ele><time>2026-03-28T15:12:50.505Z</time></trkpt><trkpt lat="44.5121347" lon="10.5038556"><ele>537.0</ele><time>2026-03-28T15:12:51.497Z</time></trkpt><trkpt lat="44.5121784" lon="10.5036835"><ele>538.5</ele><time>2026-03-28T15:12:52.51Z</time></trkpt><trkpt lat="44.5122585" lon="10.503548"><ele>540.0</ele><time>2026-03-28T15:12:53.502Z</time></trkpt><trkpt lat="44.5123792" lon="10.5034746"><ele>541.5</ele><time>2026-03-28T15:12:54.498Z</time></trkpt><trkpt lat="44.5125005" lon="10.5034888"><ele>543.0</ele><time>2026-03-28T15:12:55.498Z</time></trkpt><trkpt lat="44.5126122" lon="10.5035447"><ele>543.0</ele><time>2026-03-28T15:12:56.491Z</time></trkpt><trkpt lat="44.5127242" lon="10.5036325"><ele>543.0</ele><time>2026-03-28T15:12:57.502Z</time></trkpt><trkpt lat="44.5128394" lon="10.5036378"><ele>543.0</ele><time>2026-03-28T15:12:58.499Z</time></trkpt><trkpt lat="44.5129639" lon="10.5035641"><ele>543.0</ele><time>2026-03-28T15:12:59.491Z</time></trkpt><trkpt lat="44.5130999" lon="10.5034604"><ele>544.0</ele><time>2026-03-28T15:13:00.495Z</time></trkpt><trkpt lat="44.5132376" lon="10.5033521"><ele>545.0</ele><time>2026-03-28T15:13:01.489Z</time></trkpt><trkpt lat="44.5133794" lon="10.5032428"><ele>546.0</ele><time>2026-03-28T15:13:02.484Z</time></trkpt><trkpt lat="44.5135452" lon="10.5031274"><ele>546.0</ele><time>2026-03-28T15:13:03.507Z</time></trkpt><trkpt lat="44.5137192" lon="10.503018"><ele>546.0</ele><time>2026-03-28T15:13:04.501Z</time></trkpt><trkpt lat="44.513896" lon="10.5028916"><ele>546.0</ele><time>2026-03-28T15:13:05.504Z</time></trkpt><trkpt lat="44.5140424" lon="10.5027704"><ele>546.5</ele><time>2026-03-28T15:13:06.501Z</time></trkpt><trkpt lat="44.5141757" lon="10.5026654"><ele>547.0</ele><time>2026-03-28T15:13:07.501Z</time></trkpt><trkpt lat="44.5142961" lon="10.5025701"><ele>547.5</ele><time>2026-03-28T15:13:08.508Z</time></trkpt><trkpt lat="44.5144047" lon="10.5024868"><ele>548.0</ele><time>2026-03-28T15:13:09.497Z</time></trkpt><trkpt lat="44.5144659" lon="10.5023983"><ele>548.0</ele><time>2026-03-28T15:13:10.502Z</time></trkpt><trkpt lat="44.5145142" lon="10.5022939"><ele>548.0</ele><time>2026-03-28T15:13:11.487Z</time></trkpt><trkpt lat="44.5145102" lon="10.5021547"><ele>548.0</ele><time>2026-03-28T15:13:12.503Z</time></trkpt><trkpt lat="44.5144356" lon="10.5020425"><ele>548.0</ele><time>2026-03-28T15:13:13.499Z</time></trkpt><trkpt lat="44.5143456" lon="10.5019642"><ele>548.0</ele><time>2026-03-28T15:13:14.499Z</time></trkpt><trkpt lat="44.5142391" lon="10.501961"><ele>548.0</ele><time>2026-03-28T15:13:15.491Z</time></trkpt><trkpt lat="44.514113" lon="10.501999"><ele>548.0</ele><time>2026-03-28T15:13:16.49Z</time></trkpt><trkpt lat="44.5139721" lon="10.5020725"><ele>548.0</ele><time>2026-03-28T15:13:17.488Z</time></trkpt><trkpt lat="44.5138248" lon="10.5021419"><ele>548.0</ele><time>2026-03-28T15:13:18.49Z</time></trkpt><trkpt lat="44.5136534" lon="10.5021946"><ele>550.0</ele><time>2026-03-28T15:13:19.498Z</time></trkpt><trkpt lat="44.5134844" lon="10.5022409"><ele>552.0</ele><time>2026-03-28T15:13:20.496Z</time></trkpt><trkpt lat="44.5133302" lon="10.5022965"><ele>554.0</ele><time>2026-03-28T15:13:21.514Z</time></trkpt><trkpt lat="44.51317" lon="10.5023448"><ele>554.0</ele><time>2026-03-28T15:13:22.499Z</time></trkpt><trkpt lat="44.5130186" lon="10.5024121"><ele>554.0</ele><time>2026-03-28T15:13:23.497Z</time></trkpt><trkpt lat="44.5128734" lon="10.5024494"><ele>554.0</ele><time>2026-03-28T15:13:24.498Z</time></trkpt><trkpt lat="44.5127279" lon="10.502463"><ele>554.4</ele><time>2026-03-28T15:13:25.495Z</time></trkpt><trkpt lat="44.5126429" lon="10.5024217"><ele>554.8</ele><time>2026-03-28T15:13:26.503Z</time></trkpt><trkpt lat="44.5125756" lon="10.5023522"><ele>555.2</ele><time>2026-03-28T15:13:27.499Z</time></trkpt><trkpt lat="44.5125275" lon="10.5021995"><ele>555.6</ele><time>2026-03-28T15:13:28.495Z</time></trkpt><trkpt lat="44.5124792" lon="10.5020456"><ele>556.0</ele><time>2026-03-28T15:13:29.502Z</time></trkpt><trkpt lat="44.5124149" lon="10.5018819"><ele>559.0</ele><time>2026-03-28T15:13:30.501Z</time></trkpt><trkpt lat="44.5123528" lon="10.5017381"><ele>562.0</ele><time>2026-03-28T15:13:31.492Z</time></trkpt><trkpt lat="44.5122919" lon="10.5015837"><ele>565.0</ele><time>2026-03-28T15:13:32.495Z</time></trkpt><trkpt lat="44.5122408" lon="10.5014327"><ele>568.0</ele><time>2026-03-28T15:13:33.498Z</time></trkpt><trkpt lat="44.5121844" lon="10.5013208"><ele>567.8</ele><time>2026-03-28T15:13:34.49Z</time></trkpt><trkpt lat="44.5121045" lon="10.5012478"><ele>567.5999999999999</ele><time>2026-03-28T15:13:35.501Z</time></trkpt><trkpt lat="44.5119881" lon="10.5012461"><ele>567.4000000000001</ele><time>2026-03-28T15:13:36.494Z</time></trkpt><trkpt lat="44.5118749" lon="10.5012903"><ele>567.2</ele><time>2026-03-28T15:13:37.494Z</time></trkpt><trkpt lat="44.5117692" lon="10.5013444"><ele>567.0</ele><time>2026-03-28T15:13:38.497Z</time></trkpt><trkpt lat="44.5116752" lon="10.5013385"><ele>567.0</ele><time>2026-03-28T15:13:39.493Z</time></trkpt><trkpt lat="44.5115891" lon="10.5012688"><ele>567.0</ele><time>2026-03-28T15:13:40.501Z</time></trkpt><trkpt lat="44.5115189" lon="10.5011701"><ele>567.0</ele><time>2026-03-28T15:13:41.487Z</time></trkpt><trkpt lat="44.5114695" lon="10.5010799"><ele>567.0</ele><time>2026-03-28T15:13:42.486Z</time></trkpt><trkpt lat="44.5114373" lon="10.5009752"><ele>567.0</ele><time>2026-03-28T15:13:44.495Z</time></trkpt><trkpt lat="44.5114099" lon="10.5008877"><ele>567.0</ele><time>2026-03-28T15:13:46.488Z</time></trkpt><trkpt lat="44.5113998" lon="10.5007632"><ele>568.4</ele><time>2026-03-28T15:13:48.496Z</time></trkpt><trkpt lat="44.5113984" lon="10.5005877"><ele>569.8000000000001</ele><time>2026-03-28T15:13:50.497Z</time></trkpt><trkpt lat="44.511386" lon="10.5004387"><ele>571.2</ele><time>2026-03-28T15:13:52.505Z</time></trkpt><trkpt lat="44.5113662" lon="10.5003065"><ele>572.6</ele><time>2026-03-28T15:13:54.502Z</time></trkpt><trkpt lat="44.5113701" lon="10.5002138"><ele>574.0</ele><time>2026-03-28T15:13:56.497Z</time></trkpt><trkpt lat="44.5113666" lon="10.5001065"><ele>574.3333333333334</ele><time>2026-03-28T15:13:59.498Z</time></trkpt><trkpt lat="44.5113482" lon="10.499985"><ele>574.6666666666667</ele><time>2026-03-28T15:14:02.512Z</time></trkpt><trkpt lat="44.5113343" lon="10.499876"><ele>575.0</ele><time>2026-03-28T15:14:06.497Z</time></trkpt><trkpt lat="44.5112848" lon="10.4998044"><ele>575.3333333333334</ele><time>2026-03-28T15:14:10.509Z</time></trkpt><trkpt lat="44.5112963" lon="10.4999293"><ele>575.6666666666666</ele><time>2026-03-28T15:14:20.501Z</time></trkpt><trkpt lat="44.5113332" lon="10.5000172"><ele>576.0</ele><time>2026-03-28T15:14:21.505Z</time></trkpt><trkpt lat="44.5113722" lon="10.5001453"><ele>576.0</ele><time>2026-03-28T15:14:23.503Z</time></trkpt><trkpt lat="44.5113663" lon="10.5002389"><ele>576.0</ele><time>2026-03-28T15:28:10.522Z</time></trkpt><trkpt lat="44.5113787" lon="10.5003269"><ele>576.0</ele><time>2026-03-28T15:28:11.523Z</time></trkpt><trkpt lat="44.5113894" lon="10.5004497"><ele>576.0</ele><time>2026-03-28T15:28:12.518Z</time></trkpt><trkpt lat="44.5114087" lon="10.5006099"><ele>576.0</ele><time>2026-03-28T15:28:13.515Z</time></trkpt><trkpt lat="44.5114176" lon="10.5007429"><ele>576.0</ele><time>2026-03-28T15:28:14.514Z</time></trkpt><trkpt lat="44.5114203" lon="10.5008498"><ele>575.8333333333334</ele><time>2026-03-28T15:28:15.514Z</time></trkpt><trkpt lat="44.5113631" lon="10.5009982"><ele>575.6666666666666</ele><time>2026-03-28T15:28:17.509Z</time></trkpt><trkpt lat="44.5113166" lon="10.5010597"><ele>575.5</ele><time>2026-03-28T15:28:18.502Z</time></trkpt><trkpt lat="44.5112522" lon="10.5011105"><ele>575.3333333333333</ele><time>2026-03-28T15:28:19.496Z</time></trkpt><trkpt lat="44.5111792" lon="10.5011673"><ele>575.1666666666666</ele><time>2026-03-28T15:28:20.497Z</time></trkpt><trkpt lat="44.5111091" lon="10.501233"><ele>575.0</ele><time>2026-03-28T15:28:21.495Z</time></trkpt><trkpt lat="44.5110334" lon="10.5012903"><ele>575.4</ele><time>2026-03-28T15:28:22.506Z</time></trkpt><trkpt lat="44.5109459" lon="10.5013421"><ele>575.8</ele><time>2026-03-28T15:28:23.509Z</time></trkpt><trkpt lat="44.5108599" lon="10.5013842"><ele>576.2</ele><time>2026-03-28T15:28:24.508Z</time></trkpt><trkpt lat="44.5107735" lon="10.5014381"><ele>576.6</ele><time>2026-03-28T15:28:25.504Z</time></trkpt><trkpt lat="44.5106886" lon="10.5015057"><ele>577.0</ele><time>2026-03-28T15:28:26.509Z</time></trkpt><trkpt lat="44.5105918" lon="10.501557"><ele>577.0</ele><time>2026-03-28T15:28:27.5Z</time></trkpt><trkpt lat="44.5105038" lon="10.5016068"><ele>577.0</ele><time>2026-03-28T15:28:28.5Z</time></trkpt><trkpt lat="44.5104128" lon="10.5016603"><ele>577.0</ele><time>2026-03-28T15:28:29.493Z</time></trkpt><trkpt lat="44.5103199" lon="10.5017129"><ele>577.0</ele><time>2026-03-28T15:28:30.502Z</time></trkpt><trkpt lat="44.5102265" lon="10.5017692"><ele>577.0</ele><time>2026-03-28T15:28:31.502Z</time></trkpt><trkpt lat="44.5101349" lon="10.5018082"><ele>576.6</ele><time>2026-03-28T15:28:32.503Z</time></trkpt><trkpt lat="44.5100416" lon="10.5018424"><ele>576.2</ele><time>2026-03-28T15:28:33.508Z</time></trkpt><trkpt lat="44.5099533" lon="10.5018969"><ele>575.8</ele><time>2026-03-28T15:28:34.514Z</time></trkpt><trkpt lat="44.5098734" lon="10.5019505"><ele>575.4</ele><time>2026-03-28T15:28:35.5Z</time></trkpt><trkpt lat="44.5097913" lon="10.5020189"><ele>575.0</ele><time>2026-03-28T15:28:36.51Z</time></trkpt><trkpt lat="44.5097305" lon="10.5021229"><ele>575.0</ele><time>2026-03-28T15:28:37.506Z</time></trkpt><trkpt lat="44.5096969" lon="10.5022337"><ele>575.0</ele><time>2026-03-28T15:28:38.5Z</time></trkpt><trkpt lat="44.509697" lon="10.5023925"><ele>575.0</ele><time>2026-03-28T15:28:39.504Z</time></trkpt><trkpt lat="44.509702" lon="10.5025699"><ele>575.0</ele><time>2026-03-28T15:28:40.502Z</time></trkpt><trkpt lat="44.5097141" lon="10.5027701"><ele>573.3333333333333</ele><time>2026-03-28T15:28:41.51Z</time></trkpt><trkpt lat="44.5097229" lon="10.5029684"><ele>571.6666666666666</ele><time>2026-03-28T15:28:42.5Z</time></trkpt><trkpt lat="44.5097216" lon="10.5031863"><ele>570.0</ele><time>2026-03-28T15:28:43.504Z</time></trkpt><trkpt lat="44.5097308" lon="10.5034284"><ele>570.0</ele><time>2026-03-28T15:28:44.504Z</time></trkpt><trkpt lat="44.5097237" lon="10.5036433"><ele>570.0</ele><time>2026-03-28T15:28:45.507Z</time></trkpt><trkpt lat="44.5097118" lon="10.5038716"><ele>570.0</ele><time>2026-03-28T15:28:46.506Z</time></trkpt><trkpt lat="44.5096955" lon="10.5041069"><ele>569.3333333333334</ele><time>2026-03-28T15:28:47.508Z</time></trkpt><trkpt lat="44.5096667" lon="10.5043421"><ele>568.6666666666667</ele><time>2026-03-28T15:28:48.504Z</time></trkpt><trkpt lat="44.5096385" lon="10.5045657"><ele>568.0</ele><time>2026-03-28T15:28:49.51Z</time></trkpt><trkpt lat="44.5096093" lon="10.5047789"><ele>572.75</ele><time>2026-03-28T15:28:50.507Z</time></trkpt><trkpt lat="44.5095752" lon="10.5049801"><ele>577.5</ele><time>2026-03-28T15:28:51.502Z</time></trkpt><trkpt lat="44.5095244" lon="10.5051646"><ele>582.25</ele><time>2026-03-28T15:28:52.505Z</time></trkpt><trkpt lat="44.5094585" lon="10.505333"><ele>587.0</ele><time>2026-03-28T15:28:53.507Z</time></trkpt><trkpt lat="44.5094181" lon="10.5055131"><ele>587.25</ele><time>2026-03-28T15:28:54.503Z</time></trkpt><trkpt lat="44.5094377" lon="10.5057176"><ele>587.5</ele><time>2026-03-28T15:28:55.504Z</time></trkpt><trkpt lat="44.5094792" lon="10.5059147"><ele>587.75</ele><time>2026-03-28T15:28:56.504Z</time></trkpt><trkpt lat="44.509519" lon="10.5060785"><ele>588.0</ele><time>2026-03-28T15:28:57.513Z</time></trkpt><trkpt lat="44.5094988" lon="10.5062331"><ele>588.5</ele><time>2026-03-28T15:28:58.502Z</time></trkpt><trkpt lat="44.5094625" lon="10.5063944"><ele>589.0</ele><time>2026-03-28T15:28:59.501Z</time></trkpt><trkpt lat="44.5093956" lon="10.5065676"><ele>589.5</ele><time>2026-03-28T15:29:00.494Z</time></trkpt><trkpt lat="44.5093135" lon="10.506731"><ele>590.0</ele><time>2026-03-28T15:29:01.512Z</time></trkpt><trkpt lat="44.5092143" lon="10.5068551"><ele>590.0</ele><time>2026-03-28T15:29:02.498Z</time></trkpt><trkpt lat="44.5091057" lon="10.5069423"><ele>590.0</ele><time>2026-03-28T15:29:03.509Z</time></trkpt><trkpt lat="44.5090317" lon="10.5070457"><ele>590.0</ele><time>2026-03-28T15:29:04.505Z</time></trkpt><trkpt lat="44.509001" lon="10.5071649"><ele>590.0</ele><time>2026-03-28T15:29:05.513Z</time></trkpt><trkpt lat="44.5090282" lon="10.5072871"><ele>590.0</ele><time>2026-03-28T15:29:06.511Z</time></trkpt><trkpt lat="44.5090812" lon="10.5074224"><ele>589.0</ele><time>2026-03-28T15:29:07.506Z</time></trkpt><trkpt lat="44.5091394" lon="10.5075755"><ele>588.0</ele><time>2026-03-28T15:29:08.506Z</time></trkpt><trkpt lat="44.5091742" lon="10.5077502"><ele>587.0</ele><time>2026-03-28T15:29:09.499Z</time></trkpt><trkpt lat="44.5091827" lon="10.5079213"><ele>586.0</ele><time>2026-03-28T15:29:10.491Z</time></trkpt><trkpt lat="44.5091535" lon="10.5080723"><ele>585.5</ele><time>2026-03-28T15:29:11.491Z</time></trkpt><trkpt lat="44.5091002" lon="10.5082075"><ele>585.0</ele><time>2026-03-28T15:29:12.494Z</time></trkpt><trkpt lat="44.5090109" lon="10.5083194"><ele>584.5</ele><time>2026-03-28T15:29:13.497Z</time></trkpt><trkpt lat="44.5088973" lon="10.5083963"><ele>584.0</ele><time>2026-03-28T15:29:14.491Z</time></trkpt><trkpt lat="44.5087759" lon="10.5084495"><ele>588.75</ele><time>2026-03-28T15:29:15.497Z</time></trkpt><trkpt lat="44.5086831" lon="10.5085416"><ele>593.5</ele><time>2026-03-28T15:29:16.494Z</time></trkpt><trkpt lat="44.5086109" lon="10.508675"><ele>598.25</ele><time>2026-03-28T15:29:17.506Z</time></trkpt><trkpt lat="44.5085627" lon="10.508865"><ele>603.0</ele><time>2026-03-28T15:29:18.5Z</time></trkpt><trkpt lat="44.5085702" lon="10.5091081"><ele>604.0</ele><time>2026-03-28T15:29:19.493Z</time></trkpt><trkpt lat="44.5086169" lon="10.5093383"><ele>605.0</ele><time>2026-03-28T15:29:20.489Z</time></trkpt><trkpt lat="44.5086675" lon="10.5095159"><ele>606.0</ele><time>2026-03-28T15:29:21.493Z</time></trkpt><trkpt lat="44.5086787" lon="10.5096755"><ele>607.0</ele><time>2026-03-28T15:29:22.484Z</time></trkpt><trkpt lat="44.5086493" lon="10.5098239"><ele>606.75</ele><time>2026-03-28T15:29:23.488Z</time></trkpt><trkpt lat="44.508599" lon="10.5100206"><ele>606.5</ele><time>2026-03-28T15:29:24.488Z</time></trkpt><trkpt lat="44.5085344" lon="10.5102001"><ele>606.25</ele><time>2026-03-28T15:29:25.488Z</time></trkpt><trkpt lat="44.5085081" lon="10.5103653"><ele>606.0</ele><time>2026-03-28T15:29:26.492Z</time></trkpt><trkpt lat="44.5085027" lon="10.5105326"><ele>606.0</ele><time>2026-03-28T15:29:27.488Z</time></trkpt><trkpt lat="44.5085473" lon="10.5106887"><ele>606.0</ele><time>2026-03-28T15:29:28.497Z</time></trkpt><trkpt lat="44.5086052" lon="10.5108309"><ele>606.0</ele><time>2026-03-28T15:29:29.489Z</time></trkpt><trkpt lat="44.5086266" lon="10.5109693"><ele>606.0</ele><time>2026-03-28T15:29:30.494Z</time></trkpt><trkpt lat="44.508612" lon="10.5110939"><ele>606.0</ele><time>2026-03-28T15:29:31.495Z</time></trkpt><trkpt lat="44.5085777" lon="10.5112131"><ele>605.4</ele><time>2026-03-28T15:29:32.493Z</time></trkpt><trkpt lat="44.5085343" lon="10.5113483"><ele>604.8</ele><time>2026-03-28T15:29:33.505Z</time></trkpt><trkpt lat="44.5084429" lon="10.5114732"><ele>604.1999999999999</ele><time>2026-03-28T15:29:34.49Z</time></trkpt><trkpt lat="44.508401" lon="10.5116112"><ele>603.6</ele><time>2026-03-28T15:29:35.493Z</time></trkpt><trkpt lat="44.5083936" lon="10.5117546"><ele>603.0</ele><time>2026-03-28T15:29:36.495Z</time></trkpt><trkpt lat="44.5084286" lon="10.5118665"><ele>603.0</ele><time>2026-03-28T15:29:37.49Z</time></trkpt><trkpt lat="44.508485" lon="10.511966"><ele>603.0</ele><time>2026-03-28T15:29:38.5Z</time></trkpt><trkpt lat="44.5084875" lon="10.5120838"><ele>603.0</ele><time>2026-03-28T15:29:39.491Z</time></trkpt><trkpt lat="44.5084452" lon="10.5122001"><ele>603.0</ele><time>2026-03-28T15:29:40.482Z</time></trkpt><trkpt lat="44.5083922" lon="10.5123359"><ele>603.0</ele><time>2026-03-28T15:29:41.489Z</time></trkpt><trkpt lat="44.5083256" lon="10.5125221"><ele>602.3333333333334</ele><time>2026-03-28T15:29:42.499Z</time></trkpt><trkpt lat="44.5082985" lon="10.5127372"><ele>601.6666666666667</ele><time>2026-03-28T15:29:43.495Z</time></trkpt><trkpt lat="44.5083129" lon="10.5129653"><ele>601.0</ele><time>2026-03-28T15:29:44.492Z</time></trkpt><trkpt lat="44.5083227" lon="10.5132013"><ele>600.0</ele><time>2026-03-28T15:29:45.484Z</time></trkpt><trkpt lat="44.5083433" lon="10.5133952"><ele>599.0</ele><time>2026-03-28T15:29:46.49Z</time></trkpt><trkpt lat="44.5083342" lon="10.5135777"><ele>598.0</ele><time>2026-03-28T15:29:47.49Z</time></trkpt><trkpt lat="44.5082769" lon="10.5137368"><ele>597.0</ele><time>2026-03-28T15:29:48.489Z</time></trkpt><trkpt lat="44.5081847" lon="10.5138827"><ele>594.5</ele><time>2026-03-28T15:29:49.494Z</time></trkpt><trkpt lat="44.5080781" lon="10.5140335"><ele>592.0</ele><time>2026-03-28T15:29:50.489Z</time></trkpt><trkpt lat="44.5079799" lon="10.5141963"><ele>589.5</ele><time>2026-03-28T15:29:51.491Z</time></trkpt><trkpt lat="44.5079238" lon="10.5143819"><ele>587.0</ele><time>2026-03-28T15:29:52.489Z</time></trkpt><trkpt lat="44.5079511" lon="10.5145916"><ele>586.0</ele><time>2026-03-28T15:29:53.489Z</time></trkpt><trkpt lat="44.5079759" lon="10.514812"><ele>585.0</ele><time>2026-03-28T15:29:54.492Z</time></trkpt><trkpt lat="44.5079671" lon="10.515013"><ele>584.0</ele><time>2026-03-28T15:29:55.489Z</time></trkpt><trkpt lat="44.5079116" lon="10.5152207"><ele>585.5</ele><time>2026-03-28T15:29:56.496Z</time></trkpt><trkpt lat="44.507877" lon="10.5154203"><ele>587.0</ele><time>2026-03-28T15:29:57.488Z</time></trkpt><trkpt lat="44.5078795" lon="10.5156022"><ele>588.5</ele><time>2026-03-28T15:29:58.491Z</time></trkpt><trkpt lat="44.5079215" lon="10.5157704"><ele>590.0</ele><time>2026-03-28T15:29:59.494Z</time></trkpt><trkpt lat="44.5079757" lon="10.5158965"><ele>590.0</ele><time>2026-03-28T15:30:00.499Z</time></trkpt><trkpt lat="44.5080883" lon="10.5159356"><ele>590.0</ele><time>2026-03-28T15:30:01.494Z</time></trkpt><trkpt lat="44.5082137" lon="10.5159565"><ele>590.0</ele><time>2026-03-28T15:30:02.499Z</time></trkpt><trkpt lat="44.5083645" lon="10.5159425"><ele>590.0</ele><time>2026-03-28T15:30:03.5Z</time></trkpt><trkpt lat="44.5084981" lon="10.5159271"><ele>590.0</ele><time>2026-03-28T15:30:04.487Z</time></trkpt><trkpt lat="44.5086381" lon="10.5159611"><ele>590.0</ele><time>2026-03-28T15:30:05.488Z</time></trkpt><trkpt lat="44.5087718" lon="10.5159951"><ele>590.0</ele><time>2026-03-28T15:30:06.492Z</time></trkpt><trkpt lat="44.5088983" lon="10.5160312"><ele>590.0</ele><time>2026-03-28T15:30:07.503Z</time></trkpt><trkpt lat="44.5090169" lon="10.5160801"><ele>590.5</ele><time>2026-03-28T15:30:08.496Z</time></trkpt><trkpt lat="44.5091308" lon="10.5161522"><ele>591.0</ele><time>2026-03-28T15:30:09.508Z</time></trkpt><trkpt lat="44.5092347" lon="10.5162829"><ele>591.5</ele><time>2026-03-28T15:30:10.507Z</time></trkpt><trkpt lat="44.5093323" lon="10.5164576"><ele>592.0</ele><time>2026-03-28T15:30:11.5Z</time></trkpt><trkpt lat="44.5093806" lon="10.5166749"><ele>592.0</ele><time>2026-03-28T15:30:12.503Z</time></trkpt><trkpt lat="44.5094353" lon="10.5168497"><ele>592.0</ele><time>2026-03-28T15:30:13.501Z</time></trkpt><trkpt lat="44.5094615" lon="10.5170182"><ele>592.0</ele><time>2026-03-28T15:30:14.497Z</time></trkpt><trkpt lat="44.5094577" lon="10.5171774"><ele>592.0</ele><time>2026-03-28T15:30:15.499Z</time></trkpt><trkpt lat="44.5094104" lon="10.5172962"><ele>592.8000000000001</ele><time>2026-03-28T15:30:16.494Z</time></trkpt><trkpt lat="44.509347" lon="10.5173658"><ele>593.6</ele><time>2026-03-28T15:30:17.509Z</time></trkpt><trkpt lat="44.5092436" lon="10.5174216"><ele>594.4000000000001</ele><time>2026-03-28T15:30:18.495Z</time></trkpt><trkpt lat="44.5091442" lon="10.5174889"><ele>595.2</ele><time>2026-03-28T15:30:19.507Z</time></trkpt><trkpt lat="44.5090666" lon="10.5176031"><ele>596.0</ele><time>2026-03-28T15:30:20.503Z</time></trkpt><trkpt lat="44.5090253" lon="10.5177435"><ele>595.0</ele><time>2026-03-28T15:30:21.501Z</time></trkpt><trkpt lat="44.5090196" lon="10.5179046"><ele>594.0</ele><time>2026-03-28T15:30:22.506Z</time></trkpt><trkpt lat="44.5090152" lon="10.5180745"><ele>593.0</ele><time>2026-03-28T15:30:23.506Z</time></trkpt><trkpt lat="44.5090181" lon="10.5182571"><ele>592.0</ele><time>2026-03-28T15:30:24.499Z</time></trkpt><trkpt lat="44.5090065" lon="10.5184602"><ele>592.0</ele><time>2026-03-28T15:30:25.503Z</time></trkpt><trkpt lat="44.5089817" lon="10.5186678"><ele>592.0</ele><time>2026-03-28T15:30:26.503Z</time></trkpt><trkpt lat="44.5089308" lon="10.5188711"><ele>592.0</ele><time>2026-03-28T15:30:27.495Z</time></trkpt><trkpt lat="44.508887" lon="10.5190789"><ele>592.25</ele><time>2026-03-28T15:30:28.499Z</time></trkpt><trkpt lat="44.5088362" lon="10.5192825"><ele>592.5</ele><time>2026-03-28T15:30:29.499Z</time></trkpt><trkpt lat="44.5087496" lon="10.5194581"><ele>592.75</ele><time>2026-03-28T15:30:30.495Z</time></trkpt><trkpt lat="44.5086916" lon="10.5196278"><ele>593.0</ele><time>2026-03-28T15:30:31.496Z</time></trkpt><trkpt lat="44.5087004" lon="10.5197771"><ele>596.25</ele><time>2026-03-28T15:30:32.483Z</time></trkpt><trkpt lat="44.5087259" lon="10.5199461"><ele>599.5</ele><time>2026-03-28T15:30:33.501Z</time></trkpt><trkpt lat="44.5088299" lon="10.5200518"><ele>602.75</ele><time>2026-03-28T15:30:34.492Z</time></trkpt><trkpt lat="44.5089374" lon="10.5200881"><ele>606.0</ele><time>2026-03-28T15:30:35.489Z</time></trkpt><trkpt lat="44.5090707" lon="10.5200723"><ele>606.0</ele><time>2026-03-28T15:30:36.484Z</time></trkpt><trkpt lat="44.5092032" lon="10.5200485"><ele>606.0</ele><time>2026-03-28T15:30:37.487Z</time></trkpt><trkpt lat="44.5093127" lon="10.5199954"><ele>606.0</ele><time>2026-03-28T15:30:38.479Z</time></trkpt><trkpt lat="44.5094468" lon="10.5199223"><ele>606.0</ele><time>2026-03-28T15:30:39.481Z</time></trkpt><trkpt lat="44.5095165" lon="10.5198195"><ele>606.0</ele><time>2026-03-28T15:30:40.488Z</time></trkpt><trkpt lat="44.5095603" lon="10.5196748"><ele>606.0</ele><time>2026-03-28T15:30:41.493Z</time></trkpt><trkpt lat="44.5096497" lon="10.5195951"><ele>606.0</ele><time>2026-03-28T15:30:42.491Z</time></trkpt><trkpt lat="44.5097361" lon="10.5195978"><ele>606.0</ele><time>2026-03-28T15:30:43.502Z</time></trkpt><trkpt lat="44.5098017" lon="10.5197883"><ele>606.25</ele><time>2026-03-28T15:30:45.497Z</time></trkpt><trkpt lat="44.5098349" lon="10.519946"><ele>606.5</ele><time>2026-03-28T15:30:46.499Z</time></trkpt><trkpt lat="44.5098704" lon="10.5201551"><ele>606.75</ele><time>2026-03-28T15:30:47.493Z</time></trkpt><trkpt lat="44.5099151" lon="10.5203749"><ele>607.0</ele><time>2026-03-28T15:30:48.492Z</time></trkpt><trkpt lat="44.5100013" lon="10.520596"><ele>607.0</ele><time>2026-03-28T15:30:49.494Z</time></trkpt><trkpt lat="44.5101059" lon="10.5207814"><ele>607.0</ele><time>2026-03-28T15:30:50.495Z</time></trkpt><trkpt lat="44.5101961" lon="10.5209618"><ele>607.0</ele><time>2026-03-28T15:30:51.492Z</time></trkpt><trkpt lat="44.5103159" lon="10.5211086"><ele>601.3333333333334</ele><time>2026-03-28T15:30:52.491Z</time></trkpt><trkpt lat="44.51048" lon="10.5212349"><ele>595.6666666666666</ele><time>2026-03-28T15:30:53.487Z</time></trkpt><trkpt lat="44.5106269" lon="10.5213563"><ele>590.0</ele><time>2026-03-28T15:30:54.486Z</time></trkpt><trkpt lat="44.5107386" lon="10.521461"><ele>590.0</ele><time>2026-03-28T15:30:55.493Z</time></trkpt><trkpt lat="44.5108288" lon="10.5215514"><ele>590.0</ele><time>2026-03-28T15:30:56.489Z</time></trkpt><trkpt lat="44.5108817" lon="10.5216907"><ele>590.0</ele><time>2026-03-28T15:30:57.496Z</time></trkpt><trkpt lat="44.5109419" lon="10.5219353"><ele>590.0</ele><time>2026-03-28T15:30:58.495Z</time></trkpt><trkpt lat="44.511021" lon="10.5221643"><ele>592.3333333333333</ele><time>2026-03-28T15:30:59.491Z</time></trkpt><trkpt lat="44.5111231" lon="10.5224153"><ele>594.6666666666666</ele><time>2026-03-28T15:31:00.494Z</time></trkpt><trkpt lat="44.5112317" lon="10.5226249"><ele>597.0</ele><time>2026-03-28T15:31:01.492Z</time></trkpt><trkpt lat="44.5113413" lon="10.5228"><ele>594.8000000000001</ele><time>2026-03-28T15:31:02.494Z</time></trkpt><trkpt lat="44.5114367" lon="10.5229496"><ele>592.6</ele><time>2026-03-28T15:31:03.497Z</time></trkpt><trkpt lat="44.5115435" lon="10.5230543"><ele>590.4000000000001</ele><time>2026-03-28T15:31:04.496Z</time></trkpt><trkpt lat="44.5115937" lon="10.5231448"><ele>588.2</ele><time>2026-03-28T15:31:05.496Z</time></trkpt><trkpt lat="44.5116165" lon="10.523232"><ele>586.0</ele><time>2026-03-28T15:31:06.495Z</time></trkpt><trkpt lat="44.5116682" lon="10.5233521"><ele>586.0</ele><time>2026-03-28T15:31:08.508Z</time></trkpt><trkpt lat="44.511701" lon="10.5234986"><ele>586.0</ele><time>2026-03-28T15:31:10.507Z</time></trkpt><trkpt lat="44.5117086" lon="10.523598"><ele>586.0</ele><time>2026-03-28T15:31:11.508Z</time></trkpt><trkpt lat="44.5117078" lon="10.5237207"><ele>586.0</ele><time>2026-03-28T15:31:12.504Z</time></trkpt><trkpt lat="44.5117301" lon="10.5238465"><ele>586.0</ele><time>2026-03-28T15:31:13.509Z</time></trkpt><trkpt lat="44.5117848" lon="10.5239736"><ele>584.5</ele><time>2026-03-28T15:31:14.506Z</time></trkpt><trkpt lat="44.5118712" lon="10.5240504"><ele>583.0</ele><time>2026-03-28T15:31:15.506Z</time></trkpt><trkpt lat="44.5119837" lon="10.5240863"><ele>581.5</ele><time>2026-03-28T15:31:16.513Z</time></trkpt><trkpt lat="44.5121152" lon="10.5240923"><ele>580.0</ele><time>2026-03-28T15:31:17.498Z</time></trkpt><trkpt lat="44.5122547" lon="10.5241243"><ele>580.0</ele><time>2026-03-28T15:31:18.5Z</time></trkpt><trkpt lat="44.5124038" lon="10.5241989"><ele>580.0</ele><time>2026-03-28T15:31:19.506Z</time></trkpt><trkpt lat="44.5125515" lon="10.5243355"><ele>580.0</ele><time>2026-03-28T15:31:20.501Z</time></trkpt><trkpt lat="44.5126784" lon="10.5244701"><ele>578.6666666666667</ele><time>2026-03-28T15:31:21.501Z</time></trkpt><trkpt lat="44.512805" lon="10.5246158"><ele>577.3333333333334</ele><time>2026-03-28T15:31:22.5Z</time></trkpt><trkpt lat="44.5129232" lon="10.5247918"><ele>576.0</ele><time>2026-03-28T15:31:23.497Z</time></trkpt><trkpt lat="44.5130268" lon="10.524974"><ele>576.0</ele><time>2026-03-28T15:31:24.499Z</time></trkpt><trkpt lat="44.5131372" lon="10.5251528"><ele>576.0</ele><time>2026-03-28T15:31:25.497Z</time></trkpt><trkpt lat="44.5132505" lon="10.5252946"><ele>576.0</ele><time>2026-03-28T15:31:26.5Z</time></trkpt><trkpt lat="44.5133575" lon="10.5254299"><ele>573.75</ele><time>2026-03-28T15:31:27.498Z</time></trkpt><trkpt lat="44.513474" lon="10.525545"><ele>571.5</ele><time>2026-03-28T15:31:28.496Z</time></trkpt><trkpt lat="44.5135998" lon="10.525628"><ele>569.25</ele><time>2026-03-28T15:31:29.499Z</time></trkpt><trkpt lat="44.5137417" lon="10.5256819"><ele>567.0</ele><time>2026-03-28T15:31:30.501Z</time></trkpt><trkpt lat="44.5139125" lon="10.5257208"><ele>567.0</ele><time>2026-03-28T15:31:31.494Z</time></trkpt><trkpt lat="44.5141097" lon="10.5257983"><ele>567.0</ele><time>2026-03-28T15:31:32.504Z</time></trkpt><trkpt lat="44.5142673" lon="10.5259093"><ele>567.0</ele><time>2026-03-28T15:31:33.505Z</time></trkpt><trkpt lat="44.514374" lon="10.5260536"><ele>567.0</ele><time>2026-03-28T15:31:34.494Z</time></trkpt><trkpt lat="44.5144502" lon="10.5261671"><ele>567.0</ele><time>2026-03-28T15:31:35.506Z</time></trkpt><trkpt lat="44.5144802" lon="10.5262768"><ele>567.0</ele><time>2026-03-28T15:31:36.508Z</time></trkpt><trkpt lat="44.5144808" lon="10.526402"><ele>567.0</ele><time>2026-03-28T15:31:37.504Z</time></trkpt><trkpt lat="44.5144576" lon="10.5265608"><ele>567.0</ele><time>2026-03-28T15:31:38.513Z</time></trkpt><trkpt lat="44.5144105" lon="10.5267242"><ele>564.5</ele><time>2026-03-28T15:31:39.502Z</time></trkpt><trkpt lat="44.5143806" lon="10.526875"><ele>562.0</ele><time>2026-03-28T15:31:40.505Z</time></trkpt><trkpt lat="44.5143753" lon="10.5270427"><ele>559.5</ele><time>2026-03-28T15:31:41.507Z</time></trkpt><trkpt lat="44.5144227" lon="10.5272407"><ele>557.0</ele><time>2026-03-28T15:31:42.499Z</time></trkpt><trkpt lat="44.514524" lon="10.5274489"><ele>558.3333333333333</ele><time>2026-03-28T15:31:43.501Z</time></trkpt><trkpt lat="44.5146517" lon="10.5276462"><ele>559.6666666666666</ele><time>2026-03-28T15:31:44.49Z</time></trkpt><trkpt lat="44.5148028" lon="10.5278526"><ele>561.0</ele><time>2026-03-28T15:31:45.496Z</time></trkpt><trkpt lat="44.5149457" lon="10.5280606"><ele>561.6666666666666</ele><time>2026-03-28T15:31:46.497Z</time></trkpt><trkpt lat="44.5150854" lon="10.528273"><ele>562.3333333333333</ele><time>2026-03-28T15:31:47.502Z</time></trkpt><trkpt lat="44.5152112" lon="10.5284858"><ele>563.0</ele><time>2026-03-28T15:31:48.503Z</time></trkpt><trkpt lat="44.5153425" lon="10.5286932"><ele>562.6666666666666</ele><time>2026-03-28T15:31:49.499Z</time></trkpt><trkpt lat="44.5154669" lon="10.5288786"><ele>562.3333333333334</ele><time>2026-03-28T15:31:50.501Z</time></trkpt><trkpt lat="44.5156015" lon="10.5290467"><ele>562.0</ele><time>2026-03-28T15:31:51.5Z</time></trkpt><trkpt lat="44.5157489" lon="10.5291678"><ele>562.0</ele><time>2026-03-28T15:31:52.495Z</time></trkpt><trkpt lat="44.5159047" lon="10.5292649"><ele>562.0</ele><time>2026-03-28T15:31:53.5Z</time></trkpt><trkpt lat="44.5160756" lon="10.5293433"><ele>562.0</ele><time>2026-03-28T15:31:54.495Z</time></trkpt><trkpt lat="44.5162614" lon="10.5294115"><ele>561.0</ele><time>2026-03-28T15:31:55.503Z</time></trkpt><trkpt lat="44.5164126" lon="10.5294761"><ele>560.0</ele><time>2026-03-28T15:31:56.502Z</time></trkpt><trkpt lat="44.5165756" lon="10.5295131"><ele>559.0</ele><time>2026-03-28T15:31:57.495Z</time></trkpt><trkpt lat="44.5167317" lon="10.52954"><ele>559.25</ele><time>2026-03-28T15:31:58.507Z</time></trkpt><trkpt lat="44.5168534" lon="10.5295598"><ele>559.5</ele><time>2026-03-28T15:31:59.508Z</time></trkpt><trkpt lat="44.5169999" lon="10.5296019"><ele>559.75</ele><time>2026-03-28T15:32:00.507Z</time></trkpt><trkpt lat="44.5171479" lon="10.5296564"><ele>560.0</ele><time>2026-03-28T15:32:01.5Z</time></trkpt><trkpt lat="44.5172721" lon="10.5297584"><ele>560.25</ele><time>2026-03-28T15:32:02.505Z</time></trkpt><trkpt lat="44.517388" lon="10.5298774"><ele>560.5</ele><time>2026-03-28T15:32:03.512Z</time></trkpt><trkpt lat="44.5174895" lon="10.5300106"><ele>560.75</ele><time>2026-03-28T15:32:04.508Z</time></trkpt><trkpt lat="44.517585" lon="10.5301278"><ele>561.0</ele><time>2026-03-28T15:32:05.506Z</time></trkpt><trkpt lat="44.5176487" lon="10.5303137"><ele>561.0</ele><time>2026-03-28T15:32:06.51Z</time></trkpt><trkpt lat="44.5177042" lon="10.5305248"><ele>561.0</ele><time>2026-03-28T15:32:07.497Z</time></trkpt><trkpt lat="44.5177423" lon="10.5307609"><ele>561.0</ele><time>2026-03-28T15:32:08.502Z</time></trkpt><trkpt lat="44.5177752" lon="10.5310153"><ele>561.0</ele><time>2026-03-28T15:32:09.508Z</time></trkpt><trkpt lat="44.5177943" lon="10.5312535"><ele>561.0</ele><time>2026-03-28T15:32:10.503Z</time></trkpt><trkpt lat="44.5178107" lon="10.531473"><ele>561.0</ele><time>2026-03-28T15:32:11.518Z</time></trkpt><trkpt lat="44.517867" lon="10.5316206"><ele>561.0</ele><time>2026-03-28T15:32:12.509Z</time></trkpt><trkpt lat="44.5179703" lon="10.5317277"><ele>565.0</ele><time>2026-03-28T15:32:13.511Z</time></trkpt><trkpt lat="44.5180872" lon="10.5318062"><ele>569.0</ele><time>2026-03-28T15:32:14.495Z</time></trkpt><trkpt lat="44.5181977" lon="10.5319103"><ele>573.0</ele><time>2026-03-28T15:32:15.508Z</time></trkpt><trkpt lat="44.518248" lon="10.5320652"><ele>577.0</ele><time>2026-03-28T15:32:16.511Z</time></trkpt><trkpt lat="44.5182622" lon="10.5322796"><ele>577.5</ele><time>2026-03-28T15:32:17.503Z</time></trkpt><trkpt lat="44.518229" lon="10.5324871"><ele>578.0</ele><time>2026-03-28T15:32:18.501Z</time></trkpt><trkpt lat="44.5181524" lon="10.5326632"><ele>578.5</ele><time>2026-03-28T15:32:19.489Z</time></trkpt><trkpt lat="44.5180817" lon="10.5328288"><ele>579.0</ele><time>2026-03-28T15:32:20.506Z</time></trkpt><trkpt lat="44.5180842" lon="10.5329841"><ele>576.5</ele><time>2026-03-28T15:32:21.501Z</time></trkpt><trkpt lat="44.5181138" lon="10.5331239"><ele>574.0</ele><time>2026-03-28T15:32:22.501Z</time></trkpt><trkpt lat="44.5182125" lon="10.5332477"><ele>571.5</ele><time>2026-03-28T15:32:23.495Z</time></trkpt><trkpt lat="44.5183292" lon="10.5332836"><ele>569.0</ele><time>2026-03-28T15:32:24.503Z</time></trkpt><trkpt lat="44.5184512" lon="10.533314"><ele>569.0</ele><time>2026-03-28T15:32:25.499Z</time></trkpt><trkpt lat="44.5185806" lon="10.5332794"><ele>569.0</ele><time>2026-03-28T15:32:26.497Z</time></trkpt><trkpt lat="44.5187313" lon="10.5331978"><ele>569.0</ele><time>2026-03-28T15:32:27.488Z</time></trkpt><trkpt lat="44.5189052" lon="10.533117"><ele>572.3333333333333</ele><time>2026-03-28T15:32:28.483Z</time></trkpt><trkpt lat="44.5190697" lon="10.5330718"><ele>575.6666666666666</ele><time>2026-03-28T15:32:29.498Z</time></trkpt><trkpt lat="44.5192338" lon="10.533107"><ele>579.0</ele><time>2026-03-28T15:32:30.495Z</time></trkpt><trkpt lat="44.5193699" lon="10.5331576"><ele>579.0</ele><time>2026-03-28T15:32:31.49Z</time></trkpt><trkpt lat="44.5195161" lon="10.5332316"><ele>579.0</ele><time>2026-03-28T15:32:32.486Z</time></trkpt><trkpt lat="44.5196345" lon="10.5333474"><ele>579.0</ele><time>2026-03-28T15:32:33.501Z</time></trkpt><trkpt lat="44.5197225" lon="10.5334313"><ele>579.0</ele><time>2026-03-28T15:32:34.511Z</time></trkpt><trkpt lat="44.5197898" lon="10.5335224"><ele>577.25</ele><time>2026-03-28T15:32:35.514Z</time></trkpt><trkpt lat="44.5198116" lon="10.5336635"><ele>575.5</ele><time>2026-03-28T15:32:36.508Z</time></trkpt><trkpt lat="44.5198058" lon="10.5338399"><ele>573.75</ele><time>2026-03-28T15:32:37.495Z</time></trkpt><trkpt lat="44.519798" lon="10.5340678"><ele>572.0</ele><time>2026-03-28T15:32:38.496Z</time></trkpt><trkpt lat="44.519826" lon="10.5342762"><ele>572.0</ele><time>2026-03-28T15:32:39.494Z</time></trkpt><trkpt lat="44.5198737" lon="10.5344679"><ele>572.0</ele><time>2026-03-28T15:32:40.491Z</time></trkpt><trkpt lat="44.5199064" lon="10.5346545"><ele>572.0</ele><time>2026-03-28T15:32:41.492Z</time></trkpt><trkpt lat="44.5199492" lon="10.5348185"><ele>572.0</ele><time>2026-03-28T15:32:42.489Z</time></trkpt><trkpt lat="44.5199981" lon="10.5349657"><ele>574.0</ele><time>2026-03-28T15:32:43.491Z</time></trkpt><trkpt lat="44.520062" lon="10.5351218"><ele>576.0</ele><time>2026-03-28T15:32:44.491Z</time></trkpt><trkpt lat="44.5201759" lon="10.5352296"><ele>578.0</ele><time>2026-03-28T15:32:45.49Z</time></trkpt><trkpt lat="44.5203051" lon="10.5353069"><ele>580.0</ele><time>2026-03-28T15:32:46.491Z</time></trkpt><trkpt lat="44.520433" lon="10.5353576"><ele>578.5</ele><time>2026-03-28T15:32:47.498Z</time></trkpt><trkpt lat="44.5205797" lon="10.5353673"><ele>577.0</ele><time>2026-03-28T15:32:48.495Z</time></trkpt><trkpt lat="44.5207228" lon="10.5353898"><ele>575.5</ele><time>2026-03-28T15:32:49.489Z</time></trkpt><trkpt lat="44.5208056" lon="10.53547"><ele>574.0</ele><time>2026-03-28T15:32:50.482Z</time></trkpt><trkpt lat="44.5208503" lon="10.5355946"><ele>574.0</ele><time>2026-03-28T15:32:51.491Z</time></trkpt><trkpt lat="44.520888" lon="10.5357677"><ele>574.0</ele><time>2026-03-28T15:32:52.489Z</time></trkpt><trkpt lat="44.5209293" lon="10.5359372"><ele>574.0</ele><time>2026-03-28T15:32:53.491Z</time></trkpt><trkpt lat="44.520986" lon="10.5361152"><ele>574.0</ele><time>2026-03-28T15:32:54.498Z</time></trkpt><trkpt lat="44.5210719" lon="10.5362725"><ele>573.6666666666667</ele><time>2026-03-28T15:32:55.499Z</time></trkpt><trkpt lat="44.5212162" lon="10.5363626"><ele>573.3333333333334</ele><time>2026-03-28T15:32:56.492Z</time></trkpt><trkpt lat="44.5213744" lon="10.5364127"><ele>573.0</ele><time>2026-03-28T15:32:57.499Z</time></trkpt><trkpt lat="44.5215328" lon="10.5364759"><ele>568.3333333333334</ele><time>2026-03-28T15:32:58.5Z</time></trkpt><trkpt lat="44.5216785" lon="10.5365818"><ele>563.6666666666667</ele><time>2026-03-28T15:32:59.502Z</time></trkpt><trkpt lat="44.5218174" lon="10.5367038"><ele>559.0</ele><time>2026-03-28T15:33:00.506Z</time></trkpt><trkpt lat="44.5219416" lon="10.5368387"><ele>559.0</ele><time>2026-03-28T15:33:01.499Z</time></trkpt><trkpt lat="44.5220491" lon="10.5369546"><ele>559.0</ele><time>2026-03-28T15:33:02.505Z</time></trkpt><trkpt lat="44.5221352" lon="10.5370779"><ele>559.0</ele><time>2026-03-28T15:33:03.51Z</time></trkpt><trkpt lat="44.5221794" lon="10.5372482"><ele>559.0</ele><time>2026-03-28T15:33:04.509Z</time></trkpt><trkpt lat="44.5221714" lon="10.5374215"><ele>559.75</ele><time>2026-03-28T15:33:05.508Z</time></trkpt><trkpt lat="44.5221175" lon="10.5375753"><ele>560.5</ele><time>2026-03-28T15:33:06.507Z</time></trkpt><trkpt lat="44.5220372" lon="10.5377181"><ele>561.25</ele><time>2026-03-28T15:33:07.496Z</time></trkpt><trkpt lat="44.52196" lon="10.537864"><ele>562.0</ele><time>2026-03-28T15:33:08.495Z</time></trkpt><trkpt lat="44.5218966" lon="10.5380088"><ele>562.8000000000001</ele><time>2026-03-28T15:33:09.497Z</time></trkpt><trkpt lat="44.5218581" lon="10.5381442"><ele>563.6</ele><time>2026-03-28T15:33:10.499Z</time></trkpt><trkpt lat="44.521859" lon="10.5382621"><ele>564.4000000000001</ele><time>2026-03-28T15:33:11.501Z</time></trkpt><trkpt lat="44.5219104" lon="10.5383692"><ele>565.2</ele><time>2026-03-28T15:33:12.498Z</time></trkpt><trkpt lat="44.5219984" lon="10.5384494"><ele>566.0</ele><time>2026-03-28T15:33:13.497Z</time></trkpt><trkpt lat="44.5221039" lon="10.5384895"><ele>568.0</ele><time>2026-03-28T15:33:14.502Z</time></trkpt><trkpt lat="44.5222262" lon="10.5384975"><ele>570.0</ele><time>2026-03-28T15:33:15.503Z</time></trkpt><trkpt lat="44.5223568" lon="10.5384537"><ele>572.0</ele><time>2026-03-28T15:33:16.498Z</time></trkpt><trkpt lat="44.5225055" lon="10.5383599"><ele>574.0</ele><time>2026-03-28T15:33:17.485Z</time></trkpt><trkpt lat="44.5226744" lon="10.5381995"><ele>574.0</ele><time>2026-03-28T15:33:18.487Z</time></trkpt><trkpt lat="44.5228079" lon="10.5381146"><ele>574.0</ele><time>2026-03-28T15:33:19.497Z</time></trkpt><trkpt lat="44.522973" lon="10.5380204"><ele>574.0</ele><time>2026-03-28T15:33:20.492Z</time></trkpt><trkpt lat="44.5231273" lon="10.5379264"><ele>574.75</ele><time>2026-03-28T15:33:21.489Z</time></trkpt><trkpt lat="44.5232208" lon="10.5378455"><ele>575.5</ele><time>2026-03-28T15:33:22.49Z</time></trkpt><trkpt lat="44.5233051" lon="10.5377292"><ele>576.25</ele><time>2026-03-28T15:33:23.487Z</time></trkpt><trkpt lat="44.5233856" lon="10.5375823"><ele>577.0</ele><time>2026-03-28T15:33:24.496Z</time></trkpt><trkpt lat="44.5234824" lon="10.537443"><ele>577.0</ele><time>2026-03-28T15:33:25.494Z</time></trkpt><trkpt lat="44.523576" lon="10.5373332"><ele>577.0</ele><time>2026-03-28T15:33:26.494Z</time></trkpt><trkpt lat="44.5236867" lon="10.5372756"><ele>577.0</ele><time>2026-03-28T15:33:27.492Z</time></trkpt><trkpt lat="44.5237883" lon="10.5372678"><ele>577.0</ele><time>2026-03-28T15:33:28.493Z</time></trkpt><trkpt lat="44.5238945" lon="10.537259"><ele>577.0</ele><time>2026-03-28T15:33:29.498Z</time></trkpt><trkpt lat="44.5239892" lon="10.5372761"><ele>578.6</ele><time>2026-03-28T15:33:30.501Z</time></trkpt><trkpt lat="44.524066" lon="10.5373265"><ele>580.2</ele><time>2026-03-28T15:33:31.501Z</time></trkpt><trkpt lat="44.5241217" lon="10.5373911"><ele>581.8</ele><time>2026-03-28T15:33:32.496Z</time></trkpt><trkpt lat="44.5241741" lon="10.5374841"><ele>583.4</ele><time>2026-03-28T15:33:33.505Z</time></trkpt><trkpt lat="44.5242418" lon="10.5375999"><ele>585.0</ele><time>2026-03-28T15:33:34.495Z</time></trkpt><trkpt lat="44.5243215" lon="10.5377313"><ele>585.0</ele><time>2026-03-28T15:33:35.5Z</time></trkpt><trkpt lat="44.5244049" lon="10.5378354"><ele>585.0</ele><time>2026-03-28T15:33:36.491Z</time></trkpt><trkpt lat="44.5244944" lon="10.5379009"><ele>585.0</ele><time>2026-03-28T15:33:37.491Z</time></trkpt><trkpt lat="44.5246056" lon="10.537933"><ele>585.0</ele><time>2026-03-28T15:33:38.493Z</time></trkpt><trkpt lat="44.5247372" lon="10.5379378"><ele>586.25</ele><time>2026-03-28T15:33:39.485Z</time></trkpt><trkpt lat="44.5248817" lon="10.5379168"><ele>587.5</ele><time>2026-03-28T15:33:40.484Z</time></trkpt><trkpt lat="44.5250298" lon="10.5378881"><ele>588.75</ele><time>2026-03-28T15:33:41.493Z</time></trkpt><trkpt lat="44.5251762" lon="10.5378685"><ele>590.0</ele><time>2026-03-28T15:33:42.487Z</time></trkpt><trkpt lat="44.5253215" lon="10.5378899"><ele>592.75</ele><time>2026-03-28T15:33:43.495Z</time></trkpt><trkpt lat="44.5254472" lon="10.5379349"><ele>595.5</ele><time>2026-03-28T15:33:44.492Z</time></trkpt><trkpt lat="44.525555" lon="10.5379919"><ele>598.25</ele><time>2026-03-28T15:33:45.494Z</time></trkpt><trkpt lat="44.5256294" lon="10.5380977"><ele>601.0</ele><time>2026-03-28T15:33:46.489Z</time></trkpt><trkpt lat="44.5256935" lon="10.5382345"><ele>601.0</ele><time>2026-03-28T15:33:47.489Z</time></trkpt><trkpt lat="44.5257171" lon="10.5383775"><ele>601.0</ele><time>2026-03-28T15:33:48.49Z</time></trkpt><trkpt lat="44.525715" lon="10.5384997"><ele>601.0</ele><time>2026-03-28T15:33:49.497Z</time></trkpt><trkpt lat="44.5256786" lon="10.5386172"><ele>601.0</ele><time>2026-03-28T15:33:50.49Z</time></trkpt><trkpt lat="44.5255964" lon="10.5387078"><ele>601.0</ele><time>2026-03-28T15:33:51.498Z</time></trkpt><trkpt lat="44.5254845" lon="10.5387758"><ele>600.25</ele><time>2026-03-28T15:33:52.495Z</time></trkpt><trkpt lat="44.5253612" lon="10.5388011"><ele>599.5</ele><time>2026-03-28T15:33:53.49Z</time></trkpt><trkpt lat="44.5252173" lon="10.5388016"><ele>598.75</ele><time>2026-03-28T15:33:54.498Z</time></trkpt><trkpt lat="44.5251081" lon="10.5388217"><ele>598.0</ele><time>2026-03-28T15:33:55.499Z</time></trkpt><trkpt lat="44.5250483" lon="10.5389043"><ele>598.0</ele><time>2026-03-28T15:33:56.505Z</time></trkpt><trkpt lat="44.5250181" lon="10.5390355"><ele>598.0</ele><time>2026-03-28T15:33:57.498Z</time></trkpt><trkpt lat="44.5249859" lon="10.5392113"><ele>598.0</ele><time>2026-03-28T15:33:58.5Z</time></trkpt><trkpt lat="44.5249511" lon="10.5394029"><ele>598.0</ele><time>2026-03-28T15:33:59.495Z</time></trkpt><trkpt lat="44.524937" lon="10.539581"><ele>600.6</ele><time>2026-03-28T15:34:00.497Z</time></trkpt><trkpt lat="44.5249694" lon="10.5397313"><ele>603.1999999999999</ele><time>2026-03-28T15:34:01.488Z</time></trkpt><trkpt lat="44.524997" lon="10.5398555"><ele>605.8</ele><time>2026-03-28T15:34:02.498Z</time></trkpt><trkpt lat="44.5249539" lon="10.5399552"><ele>608.4</ele><time>2026-03-28T15:34:03.497Z</time></trkpt><trkpt lat="44.524866" lon="10.5400219"><ele>611.0</ele><time>2026-03-28T15:34:04.489Z</time></trkpt><trkpt lat="44.524742" lon="10.5400329"><ele>611.0</ele><time>2026-03-28T15:34:05.488Z</time></trkpt><trkpt lat="44.5246176" lon="10.5400238"><ele>611.0</ele><time>2026-03-28T15:34:06.49Z</time></trkpt><trkpt lat="44.5244814" lon="10.5400019"><ele>611.0</ele><time>2026-03-28T15:34:07.487Z</time></trkpt><trkpt lat="44.5243573" lon="10.5399972"><ele>611.0</ele><time>2026-03-28T15:34:08.49Z</time></trkpt><trkpt lat="44.5242302" lon="10.5399874"><ele>612.6</ele><time>2026-03-28T15:34:09.493Z</time></trkpt><trkpt lat="44.5241336" lon="10.5399958"><ele>614.2</ele><time>2026-03-28T15:34:10.495Z</time></trkpt><trkpt lat="44.5240562" lon="10.5400273"><ele>615.8</ele><time>2026-03-28T15:34:11.498Z</time></trkpt><trkpt lat="44.5240042" lon="10.5401078"><ele>617.4</ele><time>2026-03-28T15:34:12.499Z</time></trkpt><trkpt lat="44.5239801" lon="10.5402782"><ele>619.0</ele><time>2026-03-28T15:34:14.5Z</time></trkpt><trkpt lat="44.5239823" lon="10.5404067"><ele>619.0</ele><time>2026-03-28T15:34:15.504Z</time></trkpt><trkpt lat="44.523985" lon="10.5405683"><ele>619.0</ele><time>2026-03-28T15:34:16.508Z</time></trkpt><trkpt lat="44.5239602" lon="10.5407741"><ele>619.0</ele><time>2026-03-28T15:34:17.494Z</time></trkpt><trkpt lat="44.5239374" lon="10.5409835"><ele>619.0</ele><time>2026-03-28T15:34:18.502Z</time></trkpt><trkpt lat="44.523932" lon="10.5412072"><ele>621.0</ele><time>2026-03-28T15:34:19.5Z</time></trkpt><trkpt lat="44.5239217" lon="10.5413885"><ele>623.0</ele><time>2026-03-28T15:34:20.502Z</time></trkpt><trkpt lat="44.5239156" lon="10.5415492"><ele>625.0</ele><time>2026-03-28T15:34:21.496Z</time></trkpt><trkpt lat="44.5239017" lon="10.5416732"><ele>627.0</ele><time>2026-03-28T15:34:22.512Z</time></trkpt><trkpt lat="44.5238581" lon="10.5417606"><ele>629.0</ele><time>2026-03-28T15:36:39.499Z</time></trkpt><trkpt lat="44.5238595" lon="10.5418707"><ele>629.0</ele><time>2026-03-28T15:36:41.496Z</time></trkpt><trkpt lat="44.5238742" lon="10.541967"><ele>629.0</ele><time>2026-03-28T15:36:42.497Z</time></trkpt><trkpt lat="44.5238831" lon="10.5421174"><ele>629.0</ele><time>2026-03-28T15:36:43.496Z</time></trkpt><trkpt lat="44.5238611" lon="10.5422518"><ele>629.0</ele><time>2026-03-28T15:36:44.503Z</time></trkpt><trkpt lat="44.5237985" lon="10.5423508"><ele>629.0</ele><time>2026-03-28T15:36:45.492Z</time></trkpt><trkpt lat="44.5237287" lon="10.5424176"><ele>626.25</ele><time>2026-03-28T15:36:46.499Z</time></trkpt><trkpt lat="44.5236217" lon="10.5424219"><ele>623.5</ele><time>2026-03-28T15:36:47.487Z</time></trkpt><trkpt lat="44.5235014" lon="10.5424217"><ele>620.75</ele><time>2026-03-28T15:36:48.495Z</time></trkpt><trkpt lat="44.5233771" lon="10.5424913"><ele>618.0</ele><time>2026-03-28T15:36:49.5Z</time></trkpt><trkpt lat="44.5232719" lon="10.5426236"><ele>618.0</ele><time>2026-03-28T15:36:50.487Z</time></trkpt><trkpt lat="44.5231674" lon="10.5427978"><ele>618.0</ele><time>2026-03-28T15:36:51.493Z</time></trkpt><trkpt lat="44.5230518" lon="10.5429854"><ele>618.0</ele><time>2026-03-28T15:36:52.495Z</time></trkpt><trkpt lat="44.5229598" lon="10.5431702"><ele>618.3333333333334</ele><time>2026-03-28T15:36:53.497Z</time></trkpt><trkpt lat="44.5228608" lon="10.5433722"><ele>618.6666666666667</ele><time>2026-03-28T15:36:54.499Z</time></trkpt><trkpt lat="44.522763" lon="10.543569"><ele>619.0</ele><time>2026-03-28T15:36:55.499Z</time></trkpt><trkpt lat="44.5226526" lon="10.5437601"><ele>624.3333333333334</ele><time>2026-03-28T15:36:56.498Z</time></trkpt><trkpt lat="44.5225515" lon="10.5439294"><ele>629.6666666666666</ele><time>2026-03-28T15:36:57.499Z</time></trkpt><trkpt lat="44.5224506" lon="10.5440831"><ele>635.0</ele><time>2026-03-28T15:36:58.497Z</time></trkpt><trkpt lat="44.522351" lon="10.5442499"><ele>635.0</ele><time>2026-03-28T15:36:59.495Z</time></trkpt><trkpt lat="44.5222693" lon="10.5443883"><ele>635.0</ele><time>2026-03-28T15:37:00.501Z</time></trkpt><trkpt lat="44.5221813" lon="10.5444881"><ele>635.0</ele><time>2026-03-28T15:37:01.49Z</time></trkpt><trkpt lat="44.5220685" lon="10.5445334"><ele>635.0</ele><time>2026-03-28T15:37:02.499Z</time></trkpt><trkpt lat="44.5219538" lon="10.5445817"><ele>634.0</ele><time>2026-03-28T15:37:03.494Z</time></trkpt><trkpt lat="44.5218398" lon="10.544608"><ele>633.0</ele><time>2026-03-28T15:37:04.49Z</time></trkpt><trkpt lat="44.5217234" lon="10.5446572"><ele>632.0</ele><time>2026-03-28T15:37:05.491Z</time></trkpt><trkpt lat="44.5216536" lon="10.5447514"><ele>631.0</ele><time>2026-03-28T15:37:06.49Z</time></trkpt><trkpt lat="44.5216012" lon="10.5448729"><ele>630.0</ele><time>2026-03-28T15:37:07.493Z</time></trkpt><trkpt lat="44.5215779" lon="10.5450341"><ele>630.0</ele><time>2026-03-28T15:37:08.49Z</time></trkpt><trkpt lat="44.5215891" lon="10.5451996"><ele>630.0</ele><time>2026-03-28T15:37:09.5Z</time></trkpt><trkpt lat="44.5216524" lon="10.5453365"><ele>630.0</ele><time>2026-03-28T15:37:10.492Z</time></trkpt><trkpt lat="44.521742" lon="10.5454235"><ele>630.0</ele><time>2026-03-28T15:37:11.503Z</time></trkpt><trkpt lat="44.5218513" lon="10.545475"><ele>629.75</ele><time>2026-03-28T15:37:12.492Z</time></trkpt><trkpt lat="44.521929" lon="10.5455724"><ele>629.5</ele><time>2026-03-28T15:37:13.495Z</time></trkpt><trkpt lat="44.521939" lon="10.5457144"><ele>629.25</ele><time>2026-03-28T15:37:14.507Z</time></trkpt><trkpt lat="44.5218924" lon="10.5458705"><ele>629.0</ele><time>2026-03-28T15:37:15.494Z</time></trkpt><trkpt lat="44.5218125" lon="10.5460098"><ele>629.0</ele><time>2026-03-28T15:37:16.498Z</time></trkpt><trkpt lat="44.5217181" lon="10.546149"><ele>629.0</ele><time>2026-03-28T15:37:17.496Z</time></trkpt><trkpt lat="44.5216332" lon="10.546294"><ele>629.0</ele><time>2026-03-28T15:37:18.494Z</time></trkpt><trkpt lat="44.5215457" lon="10.5464535"><ele>629.0</ele><time>2026-03-28T15:37:19.492Z</time></trkpt><trkpt lat="44.5214763" lon="10.5466064"><ele>631.0</ele><time>2026-03-28T15:37:20.496Z</time></trkpt><trkpt lat="44.5214149" lon="10.5467757"><ele>633.0</ele><time>2026-03-28T15:37:21.504Z</time></trkpt><trkpt lat="44.5213698" lon="10.5469567"><ele>635.0</ele><time>2026-03-28T15:37:22.502Z</time></trkpt><trkpt lat="44.521336" lon="10.5471279"><ele>637.0</ele><time>2026-03-28T15:37:23.509Z</time></trkpt><trkpt lat="44.5212881" lon="10.547321"><ele>637.5</ele><time>2026-03-28T15:37:24.508Z</time></trkpt><trkpt lat="44.5212206" lon="10.5474874"><ele>638.0</ele><time>2026-03-28T15:37:25.512Z</time></trkpt><trkpt lat="44.5211517" lon="10.5476465"><ele>638.5</ele><time>2026-03-28T15:37:26.511Z</time></trkpt><trkpt lat="44.5210868" lon="10.5477825"><ele>639.0</ele><time>2026-03-28T15:37:27.51Z</time></trkpt><trkpt lat="44.5210306" lon="10.5479041"><ele>639.0</ele><time>2026-03-28T15:37:28.505Z</time></trkpt><trkpt lat="44.5209585" lon="10.5480123"><ele>639.0</ele><time>2026-03-28T15:37:29.5Z</time></trkpt><trkpt lat="44.5208676" lon="10.5481017"><ele>639.0</ele><time>2026-03-28T15:37:30.5Z</time></trkpt><trkpt lat="44.5207541" lon="10.5481716"><ele>639.0</ele><time>2026-03-28T15:37:31.498Z</time></trkpt><trkpt lat="44.5206197" lon="10.5482181"><ele>639.0</ele><time>2026-03-28T15:37:32.5Z</time></trkpt><trkpt lat="44.5204995" lon="10.5482984"><ele>639.0</ele><time>2026-03-28T15:37:33.505Z</time></trkpt><trkpt lat="44.5204024" lon="10.5484099"><ele>639.0</ele><time>2026-03-28T15:37:34.497Z</time></trkpt><trkpt lat="44.5203327" lon="10.5485568"><ele>639.0</ele><time>2026-03-28T15:37:35.5Z</time></trkpt><trkpt lat="44.5202798" lon="10.5487302"><ele>635.5</ele><time>2026-03-28T15:37:36.501Z</time></trkpt><trkpt lat="44.5202329" lon="10.5489132"><ele>632.0</ele><time>2026-03-28T15:37:37.504Z</time></trkpt><trkpt lat="44.5201794" lon="10.5491197"><ele>628.5</ele><time>2026-03-28T15:37:38.501Z</time></trkpt><trkpt lat="44.5201392" lon="10.5493063"><ele>625.0</ele><time>2026-03-28T15:37:39.507Z</time></trkpt><trkpt lat="44.5201185" lon="10.5494751"><ele>625.3333333333334</ele><time>2026-03-28T15:37:40.505Z</time></trkpt><trkpt lat="44.5200905" lon="10.5496331"><ele>625.6666666666667</ele><time>2026-03-28T15:37:41.502Z</time></trkpt><trkpt lat="44.5200726" lon="10.5497374"><ele>626.0</ele><time>2026-03-28T15:37:42.51Z</time></trkpt><trkpt lat="44.5200585" lon="10.549835"><ele>626.3333333333334</ele><time>2026-03-28T15:37:44.503Z</time></trkpt><trkpt lat="44.5200558" lon="10.5499364"><ele>626.6666666666666</ele><time>2026-03-28T15:37:46.509Z</time></trkpt><trkpt lat="44.5200411" lon="10.5500824"><ele>627.0</ele><time>2026-03-28T15:37:48.506Z</time></trkpt><trkpt lat="44.5200454" lon="10.5501926"><ele>627.0</ele><time>2026-03-28T15:37:49.511Z</time></trkpt><trkpt lat="44.5200531" lon="10.550296"><ele>627.0</ele><time>2026-03-28T15:37:50.508Z</time></trkpt><trkpt lat="44.5200743" lon="10.5503988"><ele>627.0</ele><time>2026-03-28T15:37:51.506Z</time></trkpt><trkpt lat="44.5201011" lon="10.5504837"><ele>627.0</ele><time>2026-03-28T15:37:52.511Z</time></trkpt><trkpt lat="44.5201243" lon="10.5505686"><ele>627.0</ele><time>2026-03-28T15:37:53.51Z</time></trkpt><trkpt lat="44.5201485" lon="10.5506578"><ele>627.0</ele><time>2026-03-28T15:37:54.512Z</time></trkpt><trkpt lat="44.5201836" lon="10.5507333"><ele>627.0</ele><time>2026-03-28T15:37:55.51Z</time></trkpt><trkpt lat="44.5202452" lon="10.5508653"><ele>626.8000000000001</ele><time>2026-03-28T15:37:57.503Z</time></trkpt><trkpt lat="44.5202851" lon="10.5509558"><ele>626.6</ele><time>2026-03-28T15:37:58.501Z</time></trkpt><trkpt lat="44.520351" lon="10.5510656"><ele>626.4000000000001</ele><time>2026-03-28T15:37:59.504Z</time></trkpt><trkpt lat="44.5204277" lon="10.5511924"><ele>626.2</ele><time>2026-03-28T15:38:00.508Z</time></trkpt><trkpt lat="44.5205045" lon="10.5513104"><ele>626.0</ele><time>2026-03-28T15:38:01.497Z</time></trkpt><trkpt lat="44.5205824" lon="10.5514087"><ele>626.75</ele><time>2026-03-28T15:38:02.508Z</time></trkpt><trkpt lat="44.5206788" lon="10.5514859"><ele>627.5</ele><time>2026-03-28T15:38:03.513Z</time></trkpt><trkpt lat="44.5207947" lon="10.5515491"><ele>628.25</ele><time>2026-03-28T15:38:04.51Z</time></trkpt><trkpt lat="44.5209204" lon="10.5516061"><ele>629.0</ele><time>2026-03-28T15:38:05.508Z</time></trkpt><trkpt lat="44.5210455" lon="10.5516614"><ele>629.0</ele><time>2026-03-28T15:38:06.513Z</time></trkpt><trkpt lat="44.5211688" lon="10.5516973"><ele>629.0</ele><time>2026-03-28T15:38:07.509Z</time></trkpt><trkpt lat="44.5212917" lon="10.5517095"><ele>629.0</ele><time>2026-03-28T15:38:08.51Z</time></trkpt><trkpt lat="44.5214227" lon="10.5516815"><ele>629.0</ele><time>2026-03-28T15:38:09.504Z</time></trkpt><trkpt lat="44.5215577" lon="10.5516346"><ele>628.4</ele><time>2026-03-28T15:38:10.502Z</time></trkpt><trkpt lat="44.5216858" lon="10.5515984"><ele>627.8</ele><time>2026-03-28T15:38:11.507Z</time></trkpt><trkpt lat="44.5218005" lon="10.551565"><ele>627.2</ele><time>2026-03-28T15:38:12.503Z</time></trkpt><trkpt lat="44.5218982" lon="10.5515569"><ele>626.6</ele><time>2026-03-28T15:38:13.499Z</time></trkpt><trkpt lat="44.5219767" lon="10.5515844"><ele>626.0</ele><time>2026-03-28T15:38:14.509Z</time></trkpt><trkpt lat="44.5220437" lon="10.551641"><ele>625.8</ele><time>2026-03-28T15:38:15.504Z</time></trkpt><trkpt lat="44.5221032" lon="10.5517271"><ele>625.6</ele><time>2026-03-28T15:38:16.503Z</time></trkpt><trkpt lat="44.522162" lon="10.5518363"><ele>625.4</ele><time>2026-03-28T15:38:17.504Z</time></trkpt><trkpt lat="44.5222233" lon="10.5519622"><ele>625.2</ele><time>2026-03-28T15:38:18.506Z</time></trkpt><trkpt lat="44.5222802" lon="10.5521021"><ele>625.0</ele><time>2026-03-28T15:38:19.506Z</time></trkpt><trkpt lat="44.5223224" lon="10.5522387"><ele>625.0</ele><time>2026-03-28T15:38:20.501Z</time></trkpt><trkpt lat="44.5223565" lon="10.5523704"><ele>625.0</ele><time>2026-03-28T15:38:21.515Z</time></trkpt><trkpt lat="44.5223825" lon="10.5525009"><ele>625.0</ele><time>2026-03-28T15:38:22.512Z</time></trkpt><trkpt lat="44.5224045" lon="10.5526296"><ele>625.0</ele><time>2026-03-28T15:38:23.511Z</time></trkpt><trkpt lat="44.5224238" lon="10.5527493"><ele>625.0</ele><time>2026-03-28T15:38:24.521Z</time></trkpt><trkpt lat="44.5224386" lon="10.5528663"><ele>624.0</ele><time>2026-03-28T15:38:25.505Z</time></trkpt><trkpt lat="44.5224588" lon="10.5529887"><ele>623.0</ele><time>2026-03-28T15:38:26.508Z</time></trkpt><trkpt lat="44.5224816" lon="10.5531017"><ele>622.0</ele><time>2026-03-28T15:38:27.515Z</time></trkpt><trkpt lat="44.5225249" lon="10.5532029"><ele>621.0</ele><time>2026-03-28T15:38:28.505Z</time></trkpt><trkpt lat="44.5225932" lon="10.5532722"><ele>620.0</ele><time>2026-03-28T15:38:29.508Z</time></trkpt><trkpt lat="44.5226799" lon="10.553311"><ele>619.0</ele><time>2026-03-28T15:38:30.508Z</time></trkpt><trkpt lat="44.5227754" lon="10.5533419"><ele>619.0</ele><time>2026-03-28T15:38:31.509Z</time></trkpt><trkpt lat="44.5228825" lon="10.5534086"><ele>619.0</ele><time>2026-03-28T15:38:32.499Z</time></trkpt><trkpt lat="44.5229836" lon="10.5535191"><ele>619.0</ele><time>2026-03-28T15:38:33.509Z</time></trkpt><trkpt lat="44.5230726" lon="10.5536516"><ele>619.0</ele><time>2026-03-28T15:38:34.506Z</time></trkpt><trkpt lat="44.5231472" lon="10.5537868"><ele>615.75</ele><time>2026-03-28T15:38:35.488Z</time></trkpt><trkpt lat="44.523234" lon="10.5539003"><ele>612.5</ele><time>2026-03-28T15:38:36.493Z</time></trkpt><trkpt lat="44.5233334" lon="10.5539613"><ele>609.25</ele><time>2026-03-28T15:38:37.507Z</time></trkpt><trkpt lat="44.523463" lon="10.5539797"><ele>606.0</ele><time>2026-03-28T15:38:38.502Z</time></trkpt><trkpt lat="44.5235993" lon="10.5539798"><ele>607.75</ele><time>2026-03-28T15:38:39.492Z</time></trkpt><trkpt lat="44.523733" lon="10.5540173"><ele>609.5</ele><time>2026-03-28T15:38:40.496Z</time></trkpt><trkpt lat="44.5238454" lon="10.5541238"><ele>611.25</ele><time>2026-03-28T15:38:41.5Z</time></trkpt><trkpt lat="44.5238881" lon="10.5542913"><ele>613.0</ele><time>2026-03-28T15:38:42.502Z</time></trkpt><trkpt lat="44.5239182" lon="10.5544452"><ele>613.0</ele><time>2026-03-28T15:38:43.492Z</time></trkpt><trkpt lat="44.5239528" lon="10.554561"><ele>613.0</ele><time>2026-03-28T15:38:44.515Z</time></trkpt><trkpt lat="44.5240324" lon="10.5545891"><ele>613.0</ele><time>2026-03-28T15:38:45.505Z</time></trkpt><trkpt lat="44.5241403" lon="10.5545678"><ele>613.0</ele><time>2026-03-28T15:38:46.504Z</time></trkpt><trkpt lat="44.524266" lon="10.5545197"><ele>613.0</ele><time>2026-03-28T15:38:47.497Z</time></trkpt><trkpt lat="44.5244088" lon="10.5544981"><ele>611.25</ele><time>2026-03-28T15:38:48.497Z</time></trkpt><trkpt lat="44.5245646" lon="10.5544781"><ele>609.5</ele><time>2026-03-28T15:38:49.492Z</time></trkpt><trkpt lat="44.5246967" lon="10.554458"><ele>607.75</ele><time>2026-03-28T15:38:50.497Z</time></trkpt><trkpt lat="44.5248215" lon="10.5544414"><ele>606.0</ele><time>2026-03-28T15:38:51.495Z</time></trkpt><trkpt lat="44.5249516" lon="10.5544103"><ele>606.0</ele><time>2026-03-28T15:38:52.496Z</time></trkpt><trkpt lat="44.5250845" lon="10.5543303"><ele>606.0</ele><time>2026-03-28T15:38:53.489Z</time></trkpt><trkpt lat="44.5252245" lon="10.5542721"><ele>606.0</ele><time>2026-03-28T15:38:54.496Z</time></trkpt><trkpt lat="44.5253813" lon="10.5542171"><ele>601.25</ele><time>2026-03-28T15:38:55.493Z</time></trkpt><trkpt lat="44.5255282" lon="10.5541716"><ele>596.5</ele><time>2026-03-28T15:38:56.496Z</time></trkpt><trkpt lat="44.5256711" lon="10.5541371"><ele>591.75</ele><time>2026-03-28T15:38:57.494Z</time></trkpt><trkpt lat="44.5257876" lon="10.5540724"><ele>587.0</ele><time>2026-03-28T15:38:58.493Z</time></trkpt><trkpt lat="44.5259091" lon="10.5540281"><ele>587.0</ele><time>2026-03-28T15:38:59.501Z</time></trkpt><trkpt lat="44.5260297" lon="10.5539358"><ele>587.0</ele><time>2026-03-28T15:39:00.498Z</time></trkpt><trkpt lat="44.5261243" lon="10.5537814"><ele>587.0</ele><time>2026-03-28T15:39:01.489Z</time></trkpt><trkpt lat="44.5262416" lon="10.5536251"><ele>587.0</ele><time>2026-03-28T15:39:02.494Z</time></trkpt><trkpt lat="44.5263193" lon="10.5535283"><ele>584.5</ele><time>2026-03-28T15:39:03.497Z</time></trkpt><trkpt lat="44.5264107" lon="10.5535078"><ele>582.0</ele><time>2026-03-28T15:39:04.499Z</time></trkpt><trkpt lat="44.5265391" lon="10.5535308"><ele>579.5</ele><time>2026-03-28T15:39:05.509Z</time></trkpt><trkpt lat="44.52665" lon="10.5535938"><ele>577.0</ele><time>2026-03-28T15:39:06.49Z</time></trkpt><trkpt lat="44.526749" lon="10.5536558"><ele>577.2</ele><time>2026-03-28T15:39:07.504Z</time></trkpt><trkpt lat="44.5268446" lon="10.5537055"><ele>577.4000000000001</ele><time>2026-03-28T15:39:08.495Z</time></trkpt><trkpt lat="44.5269401" lon="10.553742"><ele>577.5999999999999</ele><time>2026-03-28T15:39:09.505Z</time></trkpt><trkpt lat="44.5270359" lon="10.5537546"><ele>577.8</ele><time>2026-03-28T15:39:10.502Z</time></trkpt><trkpt lat="44.5271236" lon="10.5537454"><ele>578.0</ele><time>2026-03-28T15:39:11.505Z</time></trkpt><trkpt lat="44.5272032" lon="10.5537465"><ele>577.6</ele><time>2026-03-28T15:39:12.504Z</time></trkpt><trkpt lat="44.5272792" lon="10.5537904"><ele>577.1999999999999</ele><time>2026-03-28T15:39:13.505Z</time></trkpt><trkpt lat="44.5273449" lon="10.5538865"><ele>576.8</ele><time>2026-03-28T15:39:14.5Z</time></trkpt><trkpt lat="44.5274008" lon="10.5540104"><ele>576.4</ele><time>2026-03-28T15:39:15.5Z</time></trkpt><trkpt lat="44.5274587" lon="10.5541319"><ele>576.0</ele><time>2026-03-28T15:39:16.496Z</time></trkpt><trkpt lat="44.527523" lon="10.5542586"><ele>576.0</ele><time>2026-03-28T15:39:17.494Z</time></trkpt><trkpt lat="44.5275933" lon="10.55439"><ele>576.0</ele><time>2026-03-28T15:39:18.491Z</time></trkpt><trkpt lat="44.5276525" lon="10.5545323"><ele>576.0</ele><time>2026-03-28T15:39:19.502Z</time></trkpt><trkpt lat="44.5277017" lon="10.55467"><ele>576.0</ele><time>2026-03-28T15:39:20.492Z</time></trkpt><trkpt lat="44.5277465" lon="10.5547955"><ele>576.0</ele><time>2026-03-28T15:39:21.496Z</time></trkpt><trkpt lat="44.5277875" lon="10.5549168"><ele>576.4</ele><time>2026-03-28T15:39:22.497Z</time></trkpt><trkpt lat="44.5278306" lon="10.5550336"><ele>576.8</ele><time>2026-03-28T15:39:23.503Z</time></trkpt><trkpt lat="44.5278738" lon="10.5551442"><ele>577.1999999999999</ele><time>2026-03-28T15:39:24.496Z</time></trkpt><trkpt lat="44.5279208" lon="10.5552635"><ele>577.6</ele><time>2026-03-28T15:39:25.505Z</time></trkpt><trkpt lat="44.5279601" lon="10.555387"><ele>578.0</ele><time>2026-03-28T15:39:26.504Z</time></trkpt><trkpt lat="44.527999" lon="10.5555069"><ele>577.3333333333333</ele><time>2026-03-28T15:39:27.503Z</time></trkpt><trkpt lat="44.5280382" lon="10.5556182"><ele>576.6666666666666</ele><time>2026-03-28T15:39:28.506Z</time></trkpt><trkpt lat="44.5280776" lon="10.5557186"><ele>576.0</ele><time>2026-03-28T15:39:29.506Z</time></trkpt><trkpt lat="44.5281118" lon="10.5558113"><ele>575.3333333333334</ele><time>2026-03-28T15:39:30.512Z</time></trkpt><trkpt lat="44.5281446" lon="10.5559024"><ele>574.6666666666667</ele><time>2026-03-28T15:39:31.504Z</time></trkpt><trkpt lat="44.5281667" lon="10.5559896"><ele>574.0</ele><time>2026-03-28T15:39:32.509Z</time></trkpt><trkpt lat="44.5281929" lon="10.5560762"><ele>574.0</ele><time>2026-03-28T15:39:33.511Z</time></trkpt><trkpt lat="44.5282334" lon="10.5561511"><ele>574.0</ele><time>2026-03-28T15:39:34.502Z</time></trkpt><trkpt lat="44.5282762" lon="10.5562284"><ele>574.0</ele><time>2026-03-28T15:39:35.502Z</time></trkpt><trkpt lat="44.5283295" lon="10.5563068"><ele>574.0</ele><time>2026-03-28T15:39:36.496Z</time></trkpt><trkpt lat="44.5283866" lon="10.5564018"><ele>574.0</ele><time>2026-03-28T15:39:37.498Z</time></trkpt><trkpt lat="44.5284531" lon="10.5565092"><ele>574.0</ele><time>2026-03-28T15:39:38.498Z</time></trkpt><trkpt lat="44.5285322" lon="10.5566228"><ele>574.25</ele><time>2026-03-28T15:39:39.496Z</time></trkpt><trkpt lat="44.5286135" lon="10.5567497"><ele>574.5</ele><time>2026-03-28T15:39:40.503Z</time></trkpt><trkpt lat="44.5286994" lon="10.5568723"><ele>574.75</ele><time>2026-03-28T15:39:41.5Z</time></trkpt><trkpt lat="44.5287769" lon="10.5569795"><ele>575.0</ele><time>2026-03-28T15:39:42.5Z</time></trkpt><trkpt lat="44.5288434" lon="10.5570891"><ele>573.8</ele><time>2026-03-28T15:39:43.496Z</time></trkpt><trkpt lat="44.5289022" lon="10.5571951"><ele>572.6</ele><time>2026-03-28T15:39:44.494Z</time></trkpt><trkpt lat="44.5289657" lon="10.5573027"><ele>571.4</ele><time>2026-03-28T15:39:45.491Z</time></trkpt><trkpt lat="44.5290289" lon="10.5574087"><ele>570.2</ele><time>2026-03-28T15:39:46.495Z</time></trkpt><trkpt lat="44.5290953" lon="10.5575023"><ele>569.0</ele><time>2026-03-28T15:39:47.5Z</time></trkpt><trkpt lat="44.5291563" lon="10.5575928"><ele>569.0</ele><time>2026-03-28T15:39:48.493Z</time></trkpt><trkpt lat="44.5292031" lon="10.557684"><ele>569.0</ele><time>2026-03-28T15:39:49.498Z</time></trkpt><trkpt lat="44.5292489" lon="10.5577737"><ele>569.0</ele><time>2026-03-28T15:39:50.491Z</time></trkpt><trkpt lat="44.5292949" lon="10.5578677"><ele>569.0</ele><time>2026-03-28T15:39:51.494Z</time></trkpt><trkpt lat="44.5293437" lon="10.5579706"><ele>569.0</ele><time>2026-03-28T15:39:52.493Z</time></trkpt><trkpt lat="44.529393" lon="10.5580892"><ele>569.0</ele><time>2026-03-28T15:39:53.491Z</time></trkpt><trkpt lat="44.5294534" lon="10.5582018"><ele>568.6</ele><time>2026-03-28T15:39:54.493Z</time></trkpt><trkpt lat="44.5295148" lon="10.5583134"><ele>568.2</ele><time>2026-03-28T15:39:55.497Z</time></trkpt><trkpt lat="44.5295677" lon="10.5584156"><ele>567.8000000000001</ele><time>2026-03-28T15:39:56.506Z</time></trkpt><trkpt lat="44.5296191" lon="10.5585193"><ele>567.4</ele><time>2026-03-28T15:39:57.499Z</time></trkpt><trkpt lat="44.5296738" lon="10.5586269"><ele>567.0</ele><time>2026-03-28T15:39:58.501Z</time></trkpt><trkpt lat="44.5297227" lon="10.5587295"><ele>567.0</ele><time>2026-03-28T15:39:59.496Z</time></trkpt><trkpt lat="44.5297824" lon="10.558838"><ele>567.0</ele><time>2026-03-28T15:40:01.499Z</time></trkpt><trkpt lat="44.5298637" lon="10.5589566"><ele>567.0</ele><time>2026-03-28T15:40:03.507Z</time></trkpt><trkpt lat="44.5299124" lon="10.5590454"><ele>567.0</ele><time>2026-03-28T15:40:04.499Z</time></trkpt><trkpt lat="44.5299658" lon="10.5591277"><ele>567.0</ele><time>2026-03-28T15:40:05.499Z</time></trkpt><trkpt lat="44.5300261" lon="10.5592123"><ele>567.0</ele><time>2026-03-28T15:40:06.496Z</time></trkpt><trkpt lat="44.5300777" lon="10.5593012"><ele>567.0</ele><time>2026-03-28T15:40:07.505Z</time></trkpt><trkpt lat="44.530143" lon="10.559424"><ele>567.0</ele><time>2026-03-28T15:40:09.505Z</time></trkpt><trkpt lat="44.5301912" lon="10.5595236"><ele>567.0</ele><time>2026-03-28T15:40:11.502Z</time></trkpt><trkpt lat="44.5302266" lon="10.5596076"><ele>567.0</ele><time>2026-03-28T15:40:12.5Z</time></trkpt><trkpt lat="44.5302789" lon="10.5596975"><ele>567.0</ele><time>2026-03-28T15:40:13.507Z</time></trkpt><trkpt lat="44.5303326" lon="10.5597892"><ele>566.0</ele><time>2026-03-28T15:40:14.502Z</time></trkpt><trkpt lat="44.530382" lon="10.5598723"><ele>565.0</ele><time>2026-03-28T15:40:15.507Z</time></trkpt><trkpt lat="44.5304282" lon="10.5599623"><ele>564.0</ele><time>2026-03-28T15:40:16.504Z</time></trkpt><trkpt lat="44.5304744" lon="10.5600517"><ele>563.0</ele><time>2026-03-28T15:40:17.498Z</time></trkpt><trkpt lat="44.5305185" lon="10.5601306"><ele>562.0</ele><time>2026-03-28T15:40:18.495Z</time></trkpt><trkpt lat="44.5305632" lon="10.5602277"><ele>561.0</ele><time>2026-03-28T15:40:20.499Z</time></trkpt><trkpt lat="44.5305642" lon="10.5603188"><ele>561.0</ele><time>2026-03-28T15:40:23.495Z</time></trkpt><trkpt lat="44.5306243" lon="10.5602725"><ele>561.0</ele><time>2026-03-28T15:40:27.505Z</time></trkpt><trkpt lat="44.5305314" lon="10.5600956"><ele>561.0</ele><time>2026-03-28T15:40:29.497Z</time></trkpt><trkpt lat="44.5304598" lon="10.5599642"><ele>561.0</ele><time>2026-03-28T15:40:30.496Z</time></trkpt><trkpt lat="44.5303861" lon="10.5598269"><ele>561.0</ele><time>2026-03-28T15:40:31.509Z</time></trkpt><trkpt lat="44.5303087" lon="10.5596763"><ele>561.0</ele><time>2026-03-28T15:40:32.507Z</time></trkpt><trkpt lat="44.5302243" lon="10.5595143"><ele>561.0</ele><time>2026-03-28T15:40:33.513Z</time></trkpt><trkpt lat="44.5301343" lon="10.5593592"><ele>561.0</ele><time>2026-03-28T15:40:34.511Z</time></trkpt><trkpt lat="44.5300408" lon="10.5592118"><ele>562.5</ele><time>2026-03-28T15:40:35.517Z</time></trkpt><trkpt lat="44.5299521" lon="10.5590728"><ele>564.0</ele><time>2026-03-28T15:40:36.515Z</time></trkpt><trkpt lat="44.5298774" lon="10.558937"><ele>565.5</ele><time>2026-03-28T15:40:37.515Z</time></trkpt><trkpt lat="44.5298135" lon="10.5588159"><ele>567.0</ele><time>2026-03-28T15:40:38.515Z</time></trkpt><trkpt lat="44.5297617" lon="10.558695"><ele>566.2</ele><time>2026-03-28T15:40:39.521Z</time></trkpt><trkpt lat="44.5297032" lon="10.5585814"><ele>565.4000000000001</ele><time>2026-03-28T15:40:40.519Z</time></trkpt><trkpt lat="44.5296393" lon="10.5584627"><ele>564.5999999999999</ele><time>2026-03-28T15:40:41.518Z</time></trkpt><trkpt lat="44.52957" lon="10.5583391"><ele>563.8</ele><time>2026-03-28T15:40:42.514Z</time></trkpt><trkpt lat="44.5294942" lon="10.5582036"><ele>563.0</ele><time>2026-03-28T15:40:43.512Z</time></trkpt><trkpt lat="44.5294182" lon="10.558064"><ele>563.0</ele><time>2026-03-28T15:40:44.509Z</time></trkpt><trkpt lat="44.5293477" lon="10.5579385"><ele>563.0</ele><time>2026-03-28T15:40:45.502Z</time></trkpt><trkpt lat="44.5292876" lon="10.5578256"><ele>563.0</ele><time>2026-03-28T15:40:46.515Z</time></trkpt><trkpt lat="44.5292303" lon="10.5577206"><ele>563.0</ele><time>2026-03-28T15:40:47.515Z</time></trkpt><trkpt lat="44.5291823" lon="10.5576073"><ele>563.0</ele><time>2026-03-28T15:40:48.51Z</time></trkpt><trkpt lat="44.5291349" lon="10.5575038"><ele>564.0</ele><time>2026-03-28T15:40:49.509Z</time></trkpt><trkpt lat="44.5290904" lon="10.557431"><ele>565.0</ele><time>2026-03-28T15:40:50.512Z</time></trkpt><trkpt lat="44.5290577" lon="10.5573251"><ele>566.0</ele><time>2026-03-28T15:40:52.513Z</time></trkpt><trkpt lat="44.5291409" lon="10.5572148"><ele>567.0</ele><time>2026-03-28T15:40:54.504Z</time></trkpt><trkpt lat="44.5291983" lon="10.5571735"><ele>568.0</ele><time>2026-03-28T15:40:55.514Z</time></trkpt><trkpt lat="44.5292563" lon="10.5571187"><ele>569.0</ele><time>2026-03-28T15:40:56.512Z</time></trkpt><trkpt lat="44.5292826" lon="10.5569931"><ele>570.0</ele><time>2026-03-28T15:40:58.508Z</time></trkpt><trkpt lat="44.5292393" lon="10.5569244"><ele>571.0</ele><time>2026-03-28T15:40:59.498Z</time></trkpt><trkpt lat="44.5291906" lon="10.5568574"><ele>572.0</ele><time>2026-03-28T15:41:00.501Z</time></trkpt><trkpt lat="44.5291473" lon="10.5567397"><ele>573.0</ele><time>2026-03-28T15:41:02.502Z</time></trkpt><trkpt lat="44.5291942" lon="10.5566174"><ele>574.0</ele><time>2026-03-28T15:41:04.503Z</time></trkpt><trkpt lat="44.5292415" lon="10.5565395"><ele>575.0</ele><time>2026-03-28T15:41:06.495Z</time></trkpt><trkpt lat="44.5291847" lon="10.5564782"><ele>575.0</ele><time>2026-03-28T15:41:09.498Z</time></trkpt><trkpt lat="44.5291437" lon="10.5565868"><ele>575.0</ele><time>2026-03-28T15:41:11.502Z</time></trkpt><trkpt lat="44.5291215" lon="10.5567432"><ele>575.0</ele><time>2026-03-28T15:41:13.504Z</time></trkpt><trkpt lat="44.5291655" lon="10.5568839"><ele>575.0</ele><time>2026-03-28T15:41:15.5Z</time></trkpt><trkpt lat="44.52922" lon="10.5569615"><ele>575.0</ele><time>2026-03-28T15:41:16.503Z</time></trkpt><trkpt lat="44.5292637" lon="10.5570971"><ele>574.0</ele><time>2026-03-28T15:41:18.509Z</time></trkpt><trkpt lat="44.5292211" lon="10.5571684"><ele>573.0</ele><time>2026-03-28T15:41:19.496Z</time></trkpt><trkpt lat="44.5291538" lon="10.5572299"><ele>572.0</ele><time>2026-03-28T15:41:20.506Z</time></trkpt><trkpt lat="44.5291006" lon="10.5572845"><ele>571.0</ele><time>2026-03-28T15:41:21.498Z</time></trkpt><trkpt lat="44.5290583" lon="10.5573511"><ele>570.0</ele><time>2026-03-28T15:41:24.499Z</time></trkpt><trkpt lat="44.5290876" lon="10.557497"><ele>569.0</ele><time>2026-03-28T15:41:27.499Z</time></trkpt><trkpt lat="44.5291427" lon="10.5576019"><ele>569.0</ele><time>2026-03-28T15:41:29.506Z</time></trkpt><trkpt lat="44.5291803" lon="10.557676"><ele>569.0</ele><time>2026-03-28T15:41:30.504Z</time></trkpt><trkpt lat="44.5292238" lon="10.5577559"><ele>569.0</ele><time>2026-03-28T15:41:31.497Z</time></trkpt><trkpt lat="44.5292665" lon="10.5578378"><ele>569.0</ele><time>2026-03-28T15:41:32.501Z</time></trkpt><trkpt lat="44.5292994" lon="10.5579216"><ele>569.0</ele><time>2026-03-28T15:41:33.511Z</time></trkpt><trkpt lat="44.529373" lon="10.5580666"><ele>569.0</ele><time>2026-03-28T15:41:35.501Z</time></trkpt><trkpt lat="44.529438" lon="10.5582081"><ele>568.6</ele><time>2026-03-28T15:41:37.51Z</time></trkpt><trkpt lat="44.5295137" lon="10.5583401"><ele>568.2</ele><time>2026-03-28T15:41:39.501Z</time></trkpt><trkpt lat="44.5295979" lon="10.55849"><ele>567.8000000000001</ele><time>2026-03-28T15:41:41.495Z</time></trkpt><trkpt lat="44.5296473" lon="10.5585814"><ele>567.4</ele><time>2026-03-28T15:41:42.498Z</time></trkpt><trkpt lat="44.5297018" lon="10.5586801"><ele>567.0</ele><time>2026-03-28T15:41:43.505Z</time></trkpt><trkpt lat="44.5298359" lon="10.5589011"><ele>567.0</ele><time>2026-03-28T15:41:46.503Z</time></trkpt><trkpt lat="44.5298856" lon="10.5589801"><ele>567.0</ele><time>2026-03-28T15:41:47.508Z</time></trkpt><trkpt lat="44.5299385" lon="10.5590614"><ele>567.0</ele><time>2026-03-28T15:41:48.508Z</time></trkpt><trkpt lat="44.5299931" lon="10.5591609"><ele>567.0</ele><time>2026-03-28T15:41:49.503Z</time></trkpt><trkpt lat="44.5300572" lon="10.5592697"><ele>567.0</ele><time>2026-03-28T15:41:50.506Z</time></trkpt><trkpt lat="44.5301229" lon="10.5593752"><ele>567.0</ele><time>2026-03-28T15:41:51.521Z</time></trkpt><trkpt lat="44.5301959" lon="10.5594923"><ele>565.5</ele><time>2026-03-28T15:41:52.511Z</time></trkpt><trkpt lat="44.5302748" lon="10.5596344"><ele>564.0</ele><time>2026-03-28T15:41:53.504Z</time></trkpt><trkpt lat="44.5303558" lon="10.5597906"><ele>562.5</ele><time>2026-03-28T15:41:54.515Z</time></trkpt><trkpt lat="44.5304404" lon="10.5599538"><ele>561.0</ele><time>2026-03-28T15:41:55.51Z</time></trkpt><trkpt lat="44.5305371" lon="10.5601248"><ele>563.6666666666666</ele><time>2026-03-28T15:41:56.509Z</time></trkpt><trkpt lat="44.5306143" lon="10.5603053"><ele>566.3333333333333</ele><time>2026-03-28T15:41:57.506Z</time></trkpt><trkpt lat="44.5306693" lon="10.5604995"><ele>569.0</ele><time>2026-03-28T15:41:58.51Z</time></trkpt><trkpt lat="44.5306999" lon="10.5607348"><ele>569.0</ele><time>2026-03-28T15:41:59.504Z</time></trkpt><trkpt lat="44.5306923" lon="10.5609792"><ele>569.0</ele><time>2026-03-28T15:42:00.509Z</time></trkpt><trkpt lat="44.5306892" lon="10.5611946"><ele>569.0</ele><time>2026-03-28T15:42:01.509Z</time></trkpt><trkpt lat="44.5307002" lon="10.5613938"><ele>567.5</ele><time>2026-03-28T15:42:02.512Z</time></trkpt><trkpt lat="44.530726" lon="10.5615915"><ele>566.0</ele><time>2026-03-28T15:42:03.516Z</time></trkpt><trkpt lat="44.5307355" lon="10.5617811"><ele>564.5</ele><time>2026-03-28T15:42:04.503Z</time></trkpt><trkpt lat="44.5306931" lon="10.5619569"><ele>563.0</ele><time>2026-03-28T15:42:05.503Z</time></trkpt><trkpt lat="44.5306206" lon="10.5621088"><ele>563.0</ele><time>2026-03-28T15:42:06.489Z</time></trkpt><trkpt lat="44.5305063" lon="10.562255"><ele>563.0</ele><time>2026-03-28T15:42:07.503Z</time></trkpt><trkpt lat="44.5304158" lon="10.5623681"><ele>563.0</ele><time>2026-03-28T15:42:08.499Z</time></trkpt><trkpt lat="44.5303842" lon="10.5625262"><ele>563.0</ele><time>2026-03-28T15:42:09.504Z</time></trkpt><trkpt lat="44.5304097" lon="10.5627189"><ele>560.5</ele><time>2026-03-28T15:42:10.506Z</time></trkpt><trkpt lat="44.5304736" lon="10.5629065"><ele>558.0</ele><time>2026-03-28T15:42:11.507Z</time></trkpt><trkpt lat="44.530541" lon="10.5630677"><ele>555.5</ele><time>2026-03-28T15:42:12.508Z</time></trkpt><trkpt lat="44.5306674" lon="10.563166"><ele>553.0</ele><time>2026-03-28T15:42:13.508Z</time></trkpt><trkpt lat="44.5307734" lon="10.5632767"><ele>553.0</ele><time>2026-03-28T15:42:14.51Z</time></trkpt><trkpt lat="44.5308507" lon="10.5634008"><ele>553.0</ele><time>2026-03-28T15:42:15.514Z</time></trkpt><trkpt lat="44.5309037" lon="10.5635549"><ele>553.0</ele><time>2026-03-28T15:42:16.51Z</time></trkpt><trkpt lat="44.5309025" lon="10.5637468"><ele>553.0</ele><time>2026-03-28T15:42:17.507Z</time></trkpt><trkpt lat="44.5308349" lon="10.5639076"><ele>554.0</ele><time>2026-03-28T15:42:18.493Z</time></trkpt><trkpt lat="44.5307357" lon="10.5640277"><ele>555.0</ele><time>2026-03-28T15:42:19.51Z</time></trkpt><trkpt lat="44.5305987" lon="10.5641217"><ele>556.0</ele><time>2026-03-28T15:42:20.493Z</time></trkpt><trkpt lat="44.530452" lon="10.5641812"><ele>557.0</ele><time>2026-03-28T15:42:21.49Z</time></trkpt><trkpt lat="44.5303207" lon="10.5642599"><ele>552.5</ele><time>2026-03-28T15:42:22.492Z</time></trkpt><trkpt lat="44.5302432" lon="10.5643801"><ele>548.0</ele><time>2026-03-28T15:42:23.499Z</time></trkpt><trkpt lat="44.530228" lon="10.5645448"><ele>543.5</ele><time>2026-03-28T15:42:24.502Z</time></trkpt><trkpt lat="44.5302311" lon="10.5647392"><ele>539.0</ele><time>2026-03-28T15:42:25.506Z</time></trkpt><trkpt lat="44.5302472" lon="10.5649457"><ele>539.0</ele><time>2026-03-28T15:42:26.504Z</time></trkpt><trkpt lat="44.5303172" lon="10.5651486"><ele>539.0</ele><time>2026-03-28T15:42:27.504Z</time></trkpt><trkpt lat="44.5304106" lon="10.5653229"><ele>539.0</ele><time>2026-03-28T15:42:28.508Z</time></trkpt><trkpt lat="44.5304976" lon="10.5655081"><ele>546.25</ele><time>2026-03-28T15:42:29.505Z</time></trkpt><trkpt lat="44.5305437" lon="10.5656741"><ele>553.5</ele><time>2026-03-28T15:42:30.516Z</time></trkpt><trkpt lat="44.5305729" lon="10.5658289"><ele>560.75</ele><time>2026-03-28T15:42:31.516Z</time></trkpt><trkpt lat="44.5306277" lon="10.5659836"><ele>568.0</ele><time>2026-03-28T15:42:32.51Z</time></trkpt><trkpt lat="44.5307082" lon="10.5661257"><ele>564.75</ele><time>2026-03-28T15:42:33.524Z</time></trkpt><trkpt lat="44.5307976" lon="10.5662597"><ele>561.5</ele><time>2026-03-28T15:42:34.507Z</time></trkpt><trkpt lat="44.5309121" lon="10.5663622"><ele>558.25</ele><time>2026-03-28T15:42:35.513Z</time></trkpt><trkpt lat="44.5310433" lon="10.5664357"><ele>555.0</ele><time>2026-03-28T15:42:36.512Z</time></trkpt><trkpt lat="44.5311799" lon="10.5665135"><ele>559.0</ele><time>2026-03-28T15:42:37.489Z</time></trkpt><trkpt lat="44.5312602" lon="10.5666427"><ele>563.0</ele><time>2026-03-28T15:42:38.505Z</time></trkpt><trkpt lat="44.531287" lon="10.5668166"><ele>567.0</ele><time>2026-03-28T15:42:39.496Z</time></trkpt><trkpt lat="44.5312818" lon="10.5669949"><ele>571.0</ele><time>2026-03-28T15:42:40.491Z</time></trkpt><trkpt lat="44.5312849" lon="10.5671468"><ele>571.0</ele><time>2026-03-28T15:42:41.501Z</time></trkpt><trkpt lat="44.5313136" lon="10.567315"><ele>571.0</ele><time>2026-03-28T15:42:42.496Z</time></trkpt><trkpt lat="44.5313929" lon="10.5674552"><ele>571.0</ele><time>2026-03-28T15:42:43.489Z</time></trkpt><trkpt lat="44.5314865" lon="10.5675981"><ele>571.0</ele><time>2026-03-28T15:42:44.499Z</time></trkpt><trkpt lat="44.5316005" lon="10.5677622"><ele>563.6666666666667</ele><time>2026-03-28T15:42:45.495Z</time></trkpt><trkpt lat="44.5317244" lon="10.567958"><ele>556.3333333333334</ele><time>2026-03-28T15:42:46.49Z</time></trkpt><trkpt lat="44.5318518" lon="10.56814"><ele>549.0</ele><time>2026-03-28T15:42:47.493Z</time></trkpt><trkpt lat="44.5319596" lon="10.5683461"><ele>549.0</ele><time>2026-03-28T15:42:48.5Z</time></trkpt><trkpt lat="44.5320329" lon="10.5685931"><ele>549.0</ele><time>2026-03-28T15:42:49.495Z</time></trkpt><trkpt lat="44.5320952" lon="10.5688087"><ele>549.0</ele><time>2026-03-28T15:42:50.502Z</time></trkpt><trkpt lat="44.532191" lon="10.5690345"><ele>549.3333333333334</ele><time>2026-03-28T15:42:51.503Z</time></trkpt><trkpt lat="44.5323263" lon="10.5692275"><ele>549.6666666666667</ele><time>2026-03-28T15:42:52.504Z</time></trkpt><trkpt lat="44.5324534" lon="10.5694089"><ele>550.0</ele><time>2026-03-28T15:42:53.499Z</time></trkpt><trkpt lat="44.532583" lon="10.5696088"><ele>550.0</ele><time>2026-03-28T15:42:54.503Z</time></trkpt><trkpt lat="44.532693" lon="10.5698329"><ele>550.0</ele><time>2026-03-28T15:42:55.503Z</time></trkpt><trkpt lat="44.5328065" lon="10.5700626"><ele>550.0</ele><time>2026-03-28T15:42:56.504Z</time></trkpt><trkpt lat="44.5329171" lon="10.5702901"><ele>556.6666666666667</ele><time>2026-03-28T15:42:57.503Z</time></trkpt><trkpt lat="44.5330269" lon="10.5704848"><ele>563.3333333333334</ele><time>2026-03-28T15:42:58.492Z</time></trkpt><trkpt lat="44.5331443" lon="10.5706752"><ele>570.0</ele><time>2026-03-28T15:42:59.498Z</time></trkpt><trkpt lat="44.5332504" lon="10.5708427"><ele>570.0</ele><time>2026-03-28T15:43:00.503Z</time></trkpt><trkpt lat="44.5333399" lon="10.5710471"><ele>570.0</ele><time>2026-03-28T15:43:01.496Z</time></trkpt><trkpt lat="44.5334254" lon="10.5712667"><ele>570.0</ele><time>2026-03-28T15:43:02.508Z</time></trkpt><trkpt lat="44.5335097" lon="10.5714838"><ele>567.0</ele><time>2026-03-28T15:43:03.502Z</time></trkpt><trkpt lat="44.5335749" lon="10.5716801"><ele>564.0</ele><time>2026-03-28T15:43:04.494Z</time></trkpt><trkpt lat="44.5336336" lon="10.5718628"><ele>561.0</ele><time>2026-03-28T15:43:05.499Z</time></trkpt><trkpt lat="44.5336388" lon="10.5720193"><ele>558.0</ele><time>2026-03-28T15:43:06.496Z</time></trkpt><trkpt lat="44.5335897" lon="10.5721966"><ele>557.6666666666666</ele><time>2026-03-28T15:43:07.496Z</time></trkpt><trkpt lat="44.5335367" lon="10.572398"><ele>557.3333333333333</ele><time>2026-03-28T15:43:08.492Z</time></trkpt><trkpt lat="44.5334731" lon="10.5725951"><ele>557.0</ele><time>2026-03-28T15:43:09.496Z</time></trkpt><trkpt lat="44.5334175" lon="10.5728294"><ele>557.6666666666666</ele><time>2026-03-28T15:43:10.498Z</time></trkpt><trkpt lat="44.53336" lon="10.5730492"><ele>558.3333333333334</ele><time>2026-03-28T15:43:11.499Z</time></trkpt><trkpt lat="44.5332982" lon="10.5732887"><ele>559.0</ele><time>2026-03-28T15:43:12.508Z</time></trkpt><trkpt lat="44.5332461" lon="10.5735127"><ele>561.0</ele><time>2026-03-28T15:43:13.505Z</time></trkpt><trkpt lat="44.5331858" lon="10.5737101"><ele>563.0</ele><time>2026-03-28T15:43:14.502Z</time></trkpt><trkpt lat="44.5331215" lon="10.5739131"><ele>565.0</ele><time>2026-03-28T15:43:15.503Z</time></trkpt><trkpt lat="44.5330446" lon="10.5740997"><ele>565.0</ele><time>2026-03-28T15:43:16.505Z</time></trkpt><trkpt lat="44.533006" lon="10.5742993"><ele>565.0</ele><time>2026-03-28T15:43:17.503Z</time></trkpt><trkpt lat="44.5330115" lon="10.5744951"><ele>565.0</ele><time>2026-03-28T15:43:18.511Z</time></trkpt><trkpt lat="44.5330656" lon="10.5746763"><ele>565.0</ele><time>2026-03-28T15:43:19.501Z</time></trkpt><trkpt lat="44.5331425" lon="10.5748502"><ele>562.0</ele><time>2026-03-28T15:43:20.511Z</time></trkpt><trkpt lat="44.5332571" lon="10.5750034"><ele>559.0</ele><time>2026-03-28T15:43:21.504Z</time></trkpt><trkpt lat="44.533404" lon="10.5751278"><ele>556.0</ele><time>2026-03-28T15:43:22.506Z</time></trkpt><trkpt lat="44.5335572" lon="10.5752442"><ele>556.0</ele><time>2026-03-28T15:43:23.497Z</time></trkpt><trkpt lat="44.5337194" lon="10.5753345"><ele>556.0</ele><time>2026-03-28T15:43:24.501Z</time></trkpt><trkpt lat="44.5338798" lon="10.5754175"><ele>556.0</ele><time>2026-03-28T15:43:25.499Z</time></trkpt><trkpt lat="44.5340161" lon="10.5754941"><ele>553.0</ele><time>2026-03-28T15:43:26.495Z</time></trkpt><trkpt lat="44.534179" lon="10.5755083"><ele>550.0</ele><time>2026-03-28T15:43:27.491Z</time></trkpt><trkpt lat="44.5343538" lon="10.5755162"><ele>547.0</ele><time>2026-03-28T15:43:28.498Z</time></trkpt><trkpt lat="44.5345271" lon="10.5755339"><ele>552.6666666666667</ele><time>2026-03-28T15:43:29.494Z</time></trkpt><trkpt lat="44.5346855" lon="10.5755911"><ele>558.3333333333334</ele><time>2026-03-28T15:43:30.488Z</time></trkpt><trkpt lat="44.534848" lon="10.5756858"><ele>564.0</ele><time>2026-03-28T15:43:31.493Z</time></trkpt><trkpt lat="44.5350071" lon="10.5758495"><ele>564.0</ele><time>2026-03-28T15:43:32.484Z</time></trkpt><trkpt lat="44.535137" lon="10.5760424"><ele>564.0</ele><time>2026-03-28T15:43:33.49Z</time></trkpt><trkpt lat="44.5352609" lon="10.5762255"><ele>564.0</ele><time>2026-03-28T15:43:34.486Z</time></trkpt><trkpt lat="44.5353955" lon="10.5764046"><ele>563.5</ele><time>2026-03-28T15:43:35.482Z</time></trkpt><trkpt lat="44.5354883" lon="10.5765492"><ele>563.0</ele><time>2026-03-28T15:43:36.485Z</time></trkpt><trkpt lat="44.5355506" lon="10.5766989"><ele>562.5</ele><time>2026-03-28T15:43:37.482Z</time></trkpt><trkpt lat="44.5356048" lon="10.5768596"><ele>562.0</ele><time>2026-03-28T15:43:38.493Z</time></trkpt><trkpt lat="44.5356136" lon="10.5770402"><ele>562.0</ele><time>2026-03-28T15:43:39.491Z</time></trkpt><trkpt lat="44.5356218" lon="10.5772183"><ele>562.0</ele><time>2026-03-28T15:43:40.493Z</time></trkpt><trkpt lat="44.5356924" lon="10.5773541"><ele>562.0</ele><time>2026-03-28T15:43:41.49Z</time></trkpt><trkpt lat="44.5357858" lon="10.5774941"><ele>562.0</ele><time>2026-03-28T15:43:42.493Z</time></trkpt><trkpt lat="44.535852" lon="10.577674"><ele>559.75</ele><time>2026-03-28T15:43:43.494Z</time></trkpt><trkpt lat="44.5358784" lon="10.5778704"><ele>557.5</ele><time>2026-03-28T15:43:44.489Z</time></trkpt><trkpt lat="44.5358849" lon="10.5780181"><ele>555.25</ele><time>2026-03-28T15:43:45.493Z</time></trkpt><trkpt lat="44.5358909" lon="10.5781847"><ele>553.0</ele><time>2026-03-28T15:43:46.485Z</time></trkpt><trkpt lat="44.5359526" lon="10.5782963"><ele>553.0</ele><time>2026-03-28T15:43:47.488Z</time></trkpt><trkpt lat="44.5360132" lon="10.5783815"><ele>553.0</ele><time>2026-03-28T15:43:48.493Z</time></trkpt><trkpt lat="44.5360915" lon="10.5783817"><ele>553.0</ele><time>2026-03-28T15:43:49.493Z</time></trkpt><trkpt lat="44.5361754" lon="10.5783796"><ele>553.0</ele><time>2026-03-28T15:43:50.489Z</time></trkpt><trkpt lat="44.5362565" lon="10.5783496"><ele>553.0</ele><time>2026-03-28T15:43:51.492Z</time></trkpt><trkpt lat="44.5363341" lon="10.5783024"><ele>553.0</ele><time>2026-03-28T15:43:52.489Z</time></trkpt><trkpt lat="44.5364296" lon="10.5782445"><ele>556.0</ele><time>2026-03-28T15:43:53.495Z</time></trkpt><trkpt lat="44.5365436" lon="10.5781744"><ele>559.0</ele><time>2026-03-28T15:43:54.491Z</time></trkpt><trkpt lat="44.5366541" lon="10.5781072"><ele>562.0</ele><time>2026-03-28T15:43:55.481Z</time></trkpt><trkpt lat="44.5367522" lon="10.5780377"><ele>565.0</ele><time>2026-03-28T15:43:56.485Z</time></trkpt><trkpt lat="44.5368465" lon="10.5779415"><ele>566.75</ele><time>2026-03-28T15:43:57.494Z</time></trkpt><trkpt lat="44.5369127" lon="10.5778153"><ele>568.5</ele><time>2026-03-28T15:43:58.501Z</time></trkpt><trkpt lat="44.5369677" lon="10.5776769"><ele>570.25</ele><time>2026-03-28T15:43:59.499Z</time></trkpt><trkpt lat="44.5370394" lon="10.5775559"><ele>572.0</ele><time>2026-03-28T15:44:00.5Z</time></trkpt><trkpt lat="44.5371396" lon="10.5774629"><ele>566.5</ele><time>2026-03-28T15:44:01.486Z</time></trkpt><trkpt lat="44.5372547" lon="10.5774223"><ele>561.0</ele><time>2026-03-28T15:44:02.475Z</time></trkpt><trkpt lat="44.5373822" lon="10.5773962"><ele>555.5</ele><time>2026-03-28T15:44:03.49Z</time></trkpt><trkpt lat="44.5375046" lon="10.5773788"><ele>550.0</ele><time>2026-03-28T15:44:04.493Z</time></trkpt><trkpt lat="44.5376352" lon="10.5773459"><ele>550.0</ele><time>2026-03-28T15:44:05.493Z</time></trkpt><trkpt lat="44.537755" lon="10.5772931"><ele>550.0</ele><time>2026-03-28T15:44:06.493Z</time></trkpt><trkpt lat="44.5378488" lon="10.5772516"><ele>550.0</ele><time>2026-03-28T15:44:07.492Z</time></trkpt><trkpt lat="44.5379216" lon="10.577256"><ele>550.0</ele><time>2026-03-28T15:44:08.496Z</time></trkpt><trkpt lat="44.5379338" lon="10.5773923"><ele>550.0</ele><time>2026-03-28T15:44:10.494Z</time></trkpt><trkpt lat="44.5378663" lon="10.5774937"><ele>550.0</ele><time>2026-03-28T15:44:11.494Z</time></trkpt><trkpt lat="44.5377522" lon="10.5775759"><ele>550.0</ele><time>2026-03-28T15:44:12.488Z</time></trkpt><trkpt lat="44.5376154" lon="10.5776487"><ele>550.0</ele><time>2026-03-28T15:44:13.49Z</time></trkpt><trkpt lat="44.5374873" lon="10.5777217"><ele>550.0</ele><time>2026-03-28T15:44:14.492Z</time></trkpt><trkpt lat="44.5373803" lon="10.5778049"><ele>547.6</ele><time>2026-03-28T15:44:15.491Z</time></trkpt><trkpt lat="44.5372988" lon="10.5779201"><ele>545.2</ele><time>2026-03-28T15:44:16.487Z</time></trkpt><trkpt lat="44.5372539" lon="10.5780469"><ele>542.8</ele><time>2026-03-28T15:44:17.497Z</time></trkpt><trkpt lat="44.5372459" lon="10.578157"><ele>540.4</ele><time>2026-03-28T15:44:18.495Z</time></trkpt><trkpt lat="44.5372658" lon="10.5782451"><ele>538.0</ele><time>2026-03-28T15:44:19.483Z</time></trkpt><trkpt lat="44.5373302" lon="10.5783422"><ele>538.0</ele><time>2026-03-28T15:44:21.496Z</time></trkpt><trkpt lat="44.5373631" lon="10.5784749"><ele>538.0</ele><time>2026-03-28T15:44:24.503Z</time></trkpt><trkpt lat="44.5373518" lon="10.5785933"><ele>538.0</ele><time>2026-03-28T15:44:25.496Z</time></trkpt><trkpt lat="44.5373278" lon="10.5787449"><ele>538.0</ele><time>2026-03-28T15:44:26.497Z</time></trkpt><trkpt lat="44.5372948" lon="10.5789108"><ele>538.0</ele><time>2026-03-28T15:44:27.493Z</time></trkpt><trkpt lat="44.5372684" lon="10.579079"><ele>538.25</ele><time>2026-03-28T15:44:28.487Z</time></trkpt><trkpt lat="44.5372744" lon="10.5792349"><ele>538.5</ele><time>2026-03-28T15:44:29.489Z</time></trkpt><trkpt lat="44.5373308" lon="10.5793727"><ele>538.75</ele><time>2026-03-28T15:44:30.488Z</time></trkpt><trkpt lat="44.5374315" lon="10.5794952"><ele>539.0</ele><time>2026-03-28T15:44:31.484Z</time></trkpt><trkpt lat="44.5375645" lon="10.579617"><ele>544.6666666666666</ele><time>2026-03-28T15:44:32.485Z</time></trkpt><trkpt lat="44.5377548" lon="10.5797028"><ele>550.3333333333334</ele><time>2026-03-28T15:44:33.489Z</time></trkpt><trkpt lat="44.5379242" lon="10.5797903"><ele>556.0</ele><time>2026-03-28T15:44:34.483Z</time></trkpt><trkpt lat="44.5380887" lon="10.5798732"><ele>542.6666666666667</ele><time>2026-03-28T15:44:35.484Z</time></trkpt><trkpt lat="44.5382393" lon="10.5799488"><ele>529.3333333333334</ele><time>2026-03-28T15:44:36.481Z</time></trkpt><trkpt lat="44.5383931" lon="10.5800433"><ele>516.0</ele><time>2026-03-28T15:44:37.479Z</time></trkpt><trkpt lat="44.5385377" lon="10.5801485"><ele>516.0</ele><time>2026-03-28T15:44:38.484Z</time></trkpt><trkpt lat="44.5386823" lon="10.5803119"><ele>516.0</ele><time>2026-03-28T15:44:39.481Z</time></trkpt><trkpt lat="44.5387966" lon="10.5805127"><ele>516.0</ele><time>2026-03-28T15:44:40.478Z</time></trkpt><trkpt lat="44.5389018" lon="10.5806608"><ele>513.0</ele><time>2026-03-28T15:44:41.484Z</time></trkpt><trkpt lat="44.5389806" lon="10.5808574"><ele>510.0</ele><time>2026-03-28T15:44:42.477Z</time></trkpt><trkpt lat="44.5390529" lon="10.5810577"><ele>507.0</ele><time>2026-03-28T15:44:43.481Z</time></trkpt><trkpt lat="44.5391094" lon="10.5812066"><ele>504.0</ele><time>2026-03-28T15:44:44.484Z</time></trkpt><trkpt lat="44.539214" lon="10.5813023"><ele>504.0</ele><time>2026-03-28T15:44:45.484Z</time></trkpt><trkpt lat="44.5393354" lon="10.5813675"><ele>504.0</ele><time>2026-03-28T15:44:46.483Z</time></trkpt><trkpt lat="44.5393798" lon="10.581501"><ele>504.0</ele><time>2026-03-28T15:44:47.491Z</time></trkpt><trkpt lat="44.5393791" lon="10.5816324"><ele>504.0</ele><time>2026-03-28T15:44:48.491Z</time></trkpt><trkpt lat="44.5393217" lon="10.5817405"><ele>504.0</ele><time>2026-03-28T15:44:49.504Z</time></trkpt><trkpt lat="44.5391956" lon="10.5818685"><ele>499.75</ele><time>2026-03-28T15:44:50.494Z</time></trkpt><trkpt lat="44.5391047" lon="10.5820224"><ele>495.5</ele><time>2026-03-28T15:44:51.492Z</time></trkpt><trkpt lat="44.5390224" lon="10.5821753"><ele>491.25</ele><time>2026-03-28T15:44:52.486Z</time></trkpt><trkpt lat="44.5390098" lon="10.5823243"><ele>487.0</ele><time>2026-03-28T15:44:53.489Z</time></trkpt><trkpt lat="44.5389989" lon="10.5825537"><ele>487.0</ele><time>2026-03-28T15:44:54.489Z</time></trkpt><trkpt lat="44.5389379" lon="10.5828161"><ele>487.0</ele><time>2026-03-28T15:44:55.491Z</time></trkpt><trkpt lat="44.5389124" lon="10.583122"><ele>487.0</ele><time>2026-03-28T15:44:56.492Z</time></trkpt><trkpt lat="44.5388943" lon="10.583444"><ele>485.33333333333337</ele><time>2026-03-28T15:44:57.486Z</time></trkpt><trkpt lat="44.5388743" lon="10.5837314"><ele>483.66666666666663</ele><time>2026-03-28T15:44:58.495Z</time></trkpt><trkpt lat="44.5388297" lon="10.5839746"><ele>482.0</ele><time>2026-03-28T15:44:59.489Z</time></trkpt><trkpt lat="44.5387844" lon="10.5842021"><ele>488.3333333333333</ele><time>2026-03-28T15:45:00.495Z</time></trkpt><trkpt lat="44.5387052" lon="10.5844287"><ele>494.66666666666663</ele><time>2026-03-28T15:45:01.498Z</time></trkpt><trkpt lat="44.5386228" lon="10.5846283"><ele>501.0</ele><time>2026-03-28T15:45:02.499Z</time></trkpt><trkpt lat="44.5386037" lon="10.5848207"><ele>501.0</ele><time>2026-03-28T15:45:03.493Z</time></trkpt><trkpt lat="44.5386042" lon="10.5849843"><ele>501.0</ele><time>2026-03-28T15:45:04.499Z</time></trkpt><trkpt lat="44.538605" lon="10.5851757"><ele>501.0</ele><time>2026-03-28T15:45:05.49Z</time></trkpt><trkpt lat="44.5385842" lon="10.5853813"><ele>501.0</ele><time>2026-03-28T15:45:06.495Z</time></trkpt><trkpt lat="44.5385674" lon="10.5855771"><ele>500.5</ele><time>2026-03-28T15:45:07.5Z</time></trkpt><trkpt lat="44.5385257" lon="10.5857447"><ele>500.0</ele><time>2026-03-28T15:45:08.495Z</time></trkpt><trkpt lat="44.5384701" lon="10.5858954"><ele>499.5</ele><time>2026-03-28T15:45:09.496Z</time></trkpt><trkpt lat="44.5384309" lon="10.5860719"><ele>499.0</ele><time>2026-03-28T15:45:10.493Z</time></trkpt><trkpt lat="44.538442" lon="10.5862531"><ele>499.0</ele><time>2026-03-28T15:45:11.495Z</time></trkpt><trkpt lat="44.5384735" lon="10.5864258"><ele>499.0</ele><time>2026-03-28T15:45:12.495Z</time></trkpt><trkpt lat="44.5385073" lon="10.586589"><ele>499.0</ele><time>2026-03-28T15:45:13.497Z</time></trkpt><trkpt lat="44.5385279" lon="10.5867602"><ele>499.0</ele><time>2026-03-28T15:45:14.49Z</time></trkpt><trkpt lat="44.5385099" lon="10.5869337"><ele>497.5</ele><time>2026-03-28T15:45:15.496Z</time></trkpt><trkpt lat="44.5384577" lon="10.5871052"><ele>496.0</ele><time>2026-03-28T15:45:16.489Z</time></trkpt><trkpt lat="44.5383723" lon="10.5872565"><ele>494.5</ele><time>2026-03-28T15:45:17.492Z</time></trkpt><trkpt lat="44.5382771" lon="10.5873875"><ele>493.0</ele><time>2026-03-28T15:45:18.488Z</time></trkpt><trkpt lat="44.5382271" lon="10.5875598"><ele>493.0</ele><time>2026-03-28T15:45:19.487Z</time></trkpt><trkpt lat="44.5382116" lon="10.5877252"><ele>493.0</ele><time>2026-03-28T15:45:20.489Z</time></trkpt><trkpt lat="44.538242" lon="10.5878755"><ele>493.0</ele><time>2026-03-28T15:45:21.491Z</time></trkpt><trkpt lat="44.5382948" lon="10.5880532"><ele>493.0</ele><time>2026-03-28T15:45:22.482Z</time></trkpt><trkpt lat="44.5383332" lon="10.5882654"><ele>492.5</ele><time>2026-03-28T15:45:23.487Z</time></trkpt><trkpt lat="44.5383468" lon="10.5884491"><ele>492.0</ele><time>2026-03-28T15:45:24.493Z</time></trkpt><trkpt lat="44.5383548" lon="10.588628"><ele>491.5</ele><time>2026-03-28T15:45:25.492Z</time></trkpt><trkpt lat="44.5383921" lon="10.5887811"><ele>491.0</ele><time>2026-03-28T15:45:26.496Z</time></trkpt><trkpt lat="44.5384815" lon="10.5889342"><ele>489.66666666666663</ele><time>2026-03-28T15:45:27.491Z</time></trkpt><trkpt lat="44.5385981" lon="10.5890992"><ele>488.33333333333337</ele><time>2026-03-28T15:45:28.485Z</time></trkpt><trkpt lat="44.5387146" lon="10.5892459"><ele>487.0</ele><time>2026-03-28T15:45:29.493Z</time></trkpt><trkpt lat="44.5388259" lon="10.5893435"><ele>483.75</ele><time>2026-03-28T15:45:30.496Z</time></trkpt><trkpt lat="44.5389363" lon="10.5894267"><ele>480.5</ele><time>2026-03-28T15:45:31.496Z</time></trkpt><trkpt lat="44.5390566" lon="10.5894904"><ele>477.25</ele><time>2026-03-28T15:45:32.498Z</time></trkpt><trkpt lat="44.5391844" lon="10.5895551"><ele>474.0</ele><time>2026-03-28T15:45:33.502Z</time></trkpt><trkpt lat="44.5393225" lon="10.5896194"><ele>474.0</ele><time>2026-03-28T15:45:34.492Z</time></trkpt><trkpt lat="44.5394492" lon="10.5896955"><ele>474.0</ele><time>2026-03-28T15:45:35.5Z</time></trkpt><trkpt lat="44.5395785" lon="10.5897824"><ele>474.0</ele><time>2026-03-28T15:45:36.5Z</time></trkpt><trkpt lat="44.5396724" lon="10.58987"><ele>474.0</ele><time>2026-03-28T15:45:37.492Z</time></trkpt><trkpt lat="44.5397517" lon="10.5899108"><ele>472.3333333333333</ele><time>2026-03-28T15:45:38.49Z</time></trkpt><trkpt lat="44.5398355" lon="10.589935"><ele>470.66666666666663</ele><time>2026-03-28T15:45:39.489Z</time></trkpt><trkpt lat="44.539874" lon="10.5900822"><ele>469.0</ele><time>2026-03-28T15:45:41.497Z</time></trkpt><trkpt lat="44.5398647" lon="10.5901816"><ele>467.3333333333333</ele><time>2026-03-28T15:45:42.495Z</time></trkpt><trkpt lat="44.5398468" lon="10.5902795"><ele>465.66666666666663</ele><time>2026-03-28T15:45:43.494Z</time></trkpt><trkpt lat="44.5398258" lon="10.5903794"><ele>464.0</ele><time>2026-03-28T15:45:44.492Z</time></trkpt><trkpt lat="44.5398068" lon="10.5904675"><ele>463.2</ele><time>2026-03-28T15:45:45.49Z</time></trkpt><trkpt lat="44.5397096" lon="10.5906008"><ele>462.4</ele><time>2026-03-28T15:45:47.493Z</time></trkpt><trkpt lat="44.5396234" lon="10.5906435"><ele>461.6</ele><time>2026-03-28T15:45:48.5Z</time></trkpt><trkpt lat="44.5395136" lon="10.5906565"><ele>460.8</ele><time>2026-03-28T15:45:49.488Z</time></trkpt><trkpt lat="44.5394043" lon="10.5906683"><ele>460.0</ele><time>2026-03-28T15:45:50.498Z</time></trkpt><trkpt lat="44.5392876" lon="10.5906752"><ele>459.6</ele><time>2026-03-28T15:45:51.5Z</time></trkpt><trkpt lat="44.5391724" lon="10.5906765"><ele>459.2</ele><time>2026-03-28T15:45:52.498Z</time></trkpt><trkpt lat="44.5390573" lon="10.5906902"><ele>458.79999999999995</ele><time>2026-03-28T15:45:53.496Z</time></trkpt><trkpt lat="44.5389511" lon="10.5907207"><ele>458.4</ele><time>2026-03-28T15:45:54.493Z</time></trkpt><trkpt lat="44.5388583" lon="10.5907785"><ele>458.0</ele><time>2026-03-28T15:45:55.495Z</time></trkpt><trkpt lat="44.5387702" lon="10.5908663"><ele>458.4</ele><time>2026-03-28T15:45:56.498Z</time></trkpt><trkpt lat="44.5386912" lon="10.590972"><ele>458.79999999999995</ele><time>2026-03-28T15:45:57.5Z</time></trkpt><trkpt lat="44.5386051" lon="10.5910719"><ele>459.2</ele><time>2026-03-28T15:45:58.496Z</time></trkpt><trkpt lat="44.5385537" lon="10.5911793"><ele>459.6</ele><time>2026-03-28T15:45:59.497Z</time></trkpt><trkpt lat="44.5385265" lon="10.5912977"><ele>460.0</ele><time>2026-03-28T15:46:00.498Z</time></trkpt><trkpt lat="44.5385203" lon="10.5914269"><ele>460.0</ele><time>2026-03-28T15:46:01.491Z</time></trkpt><trkpt lat="44.5385368" lon="10.5915762"><ele>460.0</ele><time>2026-03-28T15:46:02.496Z</time></trkpt><trkpt lat="44.538577" lon="10.5917416"><ele>460.0</ele><time>2026-03-28T15:46:03.505Z</time></trkpt><trkpt lat="44.5386178" lon="10.5919112"><ele>460.0</ele><time>2026-03-28T15:46:04.498Z</time></trkpt><trkpt lat="44.5386453" lon="10.5920711"><ele>458.6</ele><time>2026-03-28T15:46:05.494Z</time></trkpt><trkpt lat="44.5386703" lon="10.5921803"><ele>457.2</ele><time>2026-03-28T15:46:06.499Z</time></trkpt><trkpt lat="44.5387004" lon="10.5923073"><ele>455.79999999999995</ele><time>2026-03-28T15:46:09.495Z</time></trkpt><trkpt lat="44.5387184" lon="10.5924193"><ele>454.4</ele><time>2026-03-28T15:46:10.5Z</time></trkpt><trkpt lat="44.5387387" lon="10.5925663"><ele>453.0</ele><time>2026-03-28T15:46:11.502Z</time></trkpt><trkpt lat="44.538748" lon="10.5927462"><ele>445.25</ele><time>2026-03-28T15:46:12.492Z</time></trkpt><trkpt lat="44.5387357" lon="10.5929499"><ele>437.5</ele><time>2026-03-28T15:46:13.504Z</time></trkpt><trkpt lat="44.5387366" lon="10.5931519"><ele>429.75</ele><time>2026-03-28T15:46:14.504Z</time></trkpt><trkpt lat="44.5387824" lon="10.5933428"><ele>422.0</ele><time>2026-03-28T15:46:15.496Z</time></trkpt><trkpt lat="44.538807" lon="10.5935138"><ele>422.25</ele><time>2026-03-28T15:46:16.503Z</time></trkpt><trkpt lat="44.5388188" lon="10.5936867"><ele>422.5</ele><time>2026-03-28T15:46:17.495Z</time></trkpt><trkpt lat="44.5388222" lon="10.5938613"><ele>422.75</ele><time>2026-03-28T15:46:18.501Z</time></trkpt><trkpt lat="44.5388185" lon="10.5940566"><ele>423.0</ele><time>2026-03-28T15:46:19.498Z</time></trkpt><trkpt lat="44.5388084" lon="10.5942339"><ele>423.0</ele><time>2026-03-28T15:46:20.498Z</time></trkpt><trkpt lat="44.5387777" lon="10.5944072"><ele>423.0</ele><time>2026-03-28T15:46:21.5Z</time></trkpt><trkpt lat="44.5387444" lon="10.59458"><ele>423.0</ele><time>2026-03-28T15:46:22.495Z</time></trkpt><trkpt lat="44.5386933" lon="10.5947451"><ele>423.0</ele><time>2026-03-28T15:46:23.49Z</time></trkpt><trkpt lat="44.5386207" lon="10.5948753"><ele>422.0</ele><time>2026-03-28T15:46:24.493Z</time></trkpt><trkpt lat="44.5385077" lon="10.5949789"><ele>421.0</ele><time>2026-03-28T15:46:25.502Z</time></trkpt><trkpt lat="44.5383758" lon="10.5950567"><ele>420.0</ele><time>2026-03-28T15:46:26.497Z</time></trkpt><trkpt lat="44.5382738" lon="10.595172"><ele>419.0</ele><time>2026-03-28T15:46:27.493Z</time></trkpt><trkpt lat="44.5382063" lon="10.595319"><ele>417.79999999999995</ele><time>2026-03-28T15:46:28.492Z</time></trkpt><trkpt lat="44.5381729" lon="10.5954716"><ele>416.59999999999997</ele><time>2026-03-28T15:46:29.495Z</time></trkpt><trkpt lat="44.5381505" lon="10.5956072"><ele>415.4</ele><time>2026-03-28T15:46:30.5Z</time></trkpt><trkpt lat="44.5381274" lon="10.5957322"><ele>414.2</ele><time>2026-03-28T15:46:31.497Z</time></trkpt><trkpt lat="44.5381007" lon="10.5958481"><ele>413.0</ele><time>2026-03-28T15:46:32.498Z</time></trkpt><trkpt lat="44.5380998" lon="10.5959485"><ele>412.99999999999994</ele><time>2026-03-28T15:46:33.495Z</time></trkpt><trkpt lat="44.5381227" lon="10.5960323"><ele>413.0</ele><time>2026-03-28T15:46:34.489Z</time></trkpt><trkpt lat="44.5381648" lon="10.5961035"><ele>413.0</ele><time>2026-03-28T15:46:35.483Z</time></trkpt><trkpt lat="44.5382259" lon="10.5961823"><ele>413.0</ele><time>2026-03-28T15:46:36.485Z</time></trkpt><trkpt lat="44.5382959" lon="10.5962811"><ele>412.99999999999994</ele><time>2026-03-28T15:46:37.483Z</time></trkpt><trkpt lat="44.5383804" lon="10.5963985"><ele>413.0</ele><time>2026-03-28T15:46:38.484Z</time></trkpt><trkpt lat="44.5384666" lon="10.5965364"><ele>410.66666666666663</ele><time>2026-03-28T15:46:39.477Z</time></trkpt><trkpt lat="44.5385582" lon="10.5967005"><ele>408.33333333333337</ele><time>2026-03-28T15:46:40.48Z</time></trkpt><trkpt lat="44.5386433" lon="10.5968794"><ele>406.0</ele><time>2026-03-28T15:46:41.483Z</time></trkpt><trkpt lat="44.5387327" lon="10.5970489"><ele>406.0</ele><time>2026-03-28T15:46:42.483Z</time></trkpt><trkpt lat="44.5387843" lon="10.5972077"><ele>406.0</ele><time>2026-03-28T15:46:43.481Z</time></trkpt><trkpt lat="44.538823" lon="10.5973351"><ele>406.0</ele><time>2026-03-28T15:46:44.488Z</time></trkpt><trkpt lat="44.5388507" lon="10.5974437"><ele>406.0</ele><time>2026-03-28T15:46:45.489Z</time></trkpt><trkpt lat="44.5388528" lon="10.597589"><ele>406.0</ele><time>2026-03-28T15:46:46.486Z</time></trkpt><trkpt lat="44.5388336" lon="10.5977104"><ele>406.50000000000006</ele><time>2026-03-28T15:46:47.491Z</time></trkpt><trkpt lat="44.5388145" lon="10.5978476"><ele>407.0</ele><time>2026-03-28T15:46:48.491Z</time></trkpt><trkpt lat="44.5387766" lon="10.5979711"><ele>407.5</ele><time>2026-03-28T15:46:49.502Z</time></trkpt><trkpt lat="44.5387482" lon="10.5980748"><ele>408.0</ele><time>2026-03-28T15:46:50.499Z</time></trkpt><trkpt lat="44.5387289" lon="10.5981921"><ele>408.50000000000006</ele><time>2026-03-28T15:46:52.507Z</time></trkpt><trkpt lat="44.5387465" lon="10.5983012"><ele>409.0</ele><time>2026-03-28T15:46:56.498Z</time></trkpt><trkpt lat="44.5387865" lon="10.5983841"><ele>409.0</ele><time>2026-03-28T15:46:58.504Z</time></trkpt><trkpt lat="44.5388065" lon="10.5984695"><ele>409.0</ele><time>2026-03-28T15:48:21.519Z</time></trkpt><trkpt lat="44.5387711" lon="10.5985946"><ele>409.0</ele><time>2026-03-28T15:48:23.513Z</time></trkpt><trkpt lat="44.5387357" lon="10.5987339"><ele>409.0</ele><time>2026-03-28T15:48:24.513Z</time></trkpt><trkpt lat="44.5386839" lon="10.5988628"><ele>409.0</ele><time>2026-03-28T15:48:25.516Z</time></trkpt><trkpt lat="44.5386119" lon="10.5989476"><ele>408.4</ele><time>2026-03-28T15:48:26.504Z</time></trkpt><trkpt lat="44.5385305" lon="10.5990086"><ele>407.79999999999995</ele><time>2026-03-28T15:48:27.51Z</time></trkpt><trkpt lat="44.5384353" lon="10.5990566"><ele>407.20000000000005</ele><time>2026-03-28T15:48:28.512Z</time></trkpt><trkpt lat="44.5383384" lon="10.5991087"><ele>406.6</ele><time>2026-03-28T15:48:29.512Z</time></trkpt><trkpt lat="44.5382326" lon="10.5991626"><ele>406.0</ele><time>2026-03-28T15:48:30.509Z</time></trkpt><trkpt lat="44.5381189" lon="10.5992388"><ele>406.0</ele><time>2026-03-28T15:48:31.504Z</time></trkpt><trkpt lat="44.5380161" lon="10.5993597"><ele>406.0</ele><time>2026-03-28T15:48:32.503Z</time></trkpt><trkpt lat="44.5379098" lon="10.5994992"><ele>406.0</ele><time>2026-03-28T15:48:33.516Z</time></trkpt><trkpt lat="44.5378088" lon="10.5996491"><ele>406.0</ele><time>2026-03-28T15:48:34.506Z</time></trkpt><trkpt lat="44.5377054" lon="10.599792"><ele>401.5</ele><time>2026-03-28T15:48:35.494Z</time></trkpt><trkpt lat="44.5375965" lon="10.5998981"><ele>397.0</ele><time>2026-03-28T15:48:36.507Z</time></trkpt><trkpt lat="44.5374874" lon="10.5999899"><ele>392.5</ele><time>2026-03-28T15:48:37.505Z</time></trkpt><trkpt lat="44.5373651" lon="10.6000947"><ele>388.0</ele><time>2026-03-28T15:48:38.501Z</time></trkpt><trkpt lat="44.5373017" lon="10.6002281"><ele>386.2</ele><time>2026-03-28T15:48:39.495Z</time></trkpt><trkpt lat="44.5372635" lon="10.6004079"><ele>384.4</ele><time>2026-03-28T15:48:40.494Z</time></trkpt><trkpt lat="44.537253" lon="10.6005549"><ele>382.59999999999997</ele><time>2026-03-28T15:48:41.506Z</time></trkpt><trkpt lat="44.5372699" lon="10.6006732"><ele>380.79999999999995</ele><time>2026-03-28T15:48:42.496Z</time></trkpt><trkpt lat="44.5373261" lon="10.6007532"><ele>379.0</ele><time>2026-03-28T15:48:43.493Z</time></trkpt><trkpt lat="44.5373963" lon="10.6007941"><ele>379.0</ele><time>2026-03-28T15:48:44.505Z</time></trkpt><trkpt lat="44.5374692" lon="10.6007556"><ele>379.0</ele><time>2026-03-28T15:48:45.502Z</time></trkpt><trkpt lat="44.5375527" lon="10.6006553"><ele>379.0</ele><time>2026-03-28T15:48:46.51Z</time></trkpt><trkpt lat="44.5376585" lon="10.6005476"><ele>379.0</ele><time>2026-03-28T15:48:47.497Z</time></trkpt><trkpt lat="44.5377649" lon="10.6004776"><ele>379.0</ele><time>2026-03-28T15:48:48.489Z</time></trkpt><trkpt lat="44.5378803" lon="10.6004858"><ele>377.0</ele><time>2026-03-28T15:48:49.493Z</time></trkpt><trkpt lat="44.5380088" lon="10.6005778"><ele>375.0</ele><time>2026-03-28T15:48:50.481Z</time></trkpt><trkpt lat="44.5381411" lon="10.6006939"><ele>373.0</ele><time>2026-03-28T15:48:51.49Z</time></trkpt><trkpt lat="44.5382834" lon="10.6008341"><ele>373.0</ele><time>2026-03-28T15:48:52.483Z</time></trkpt><trkpt lat="44.5383966" lon="10.6009044"><ele>373.0</ele><time>2026-03-28T15:48:53.488Z</time></trkpt><trkpt lat="44.5384851" lon="10.6009922"><ele>373.0</ele><time>2026-03-28T15:48:54.484Z</time></trkpt><trkpt lat="44.5385445" lon="10.6011322"><ele>373.0</ele><time>2026-03-28T15:48:55.491Z</time></trkpt><trkpt lat="44.5385627" lon="10.6013416"><ele>367.3333333333333</ele><time>2026-03-28T15:48:56.494Z</time></trkpt><trkpt lat="44.5385478" lon="10.6015807"><ele>361.6666666666667</ele><time>2026-03-28T15:48:57.479Z</time></trkpt><trkpt lat="44.5385096" lon="10.6018768"><ele>356.0</ele><time>2026-03-28T15:48:58.492Z</time></trkpt><trkpt lat="44.5384511" lon="10.602143"><ele>352.0</ele><time>2026-03-28T15:48:59.483Z</time></trkpt><trkpt lat="44.5383837" lon="10.6024214"><ele>348.0</ele><time>2026-03-28T15:49:00.504Z</time></trkpt><trkpt lat="44.5383363" lon="10.6026884"><ele>344.0</ele><time>2026-03-28T15:49:01.504Z</time></trkpt><trkpt lat="44.5382991" lon="10.6029448"><ele>342.0</ele><time>2026-03-28T15:49:02.511Z</time></trkpt><trkpt lat="44.5382677" lon="10.6032047"><ele>340.0</ele><time>2026-03-28T15:49:03.517Z</time></trkpt><trkpt lat="44.538234" lon="10.6034358"><ele>338.0</ele><time>2026-03-28T15:49:04.507Z</time></trkpt><trkpt lat="44.5382094" lon="10.6036449"><ele>336.5</ele><time>2026-03-28T15:49:05.501Z</time></trkpt><trkpt lat="44.5381887" lon="10.6038313"><ele>335.0</ele><time>2026-03-28T15:49:06.497Z</time></trkpt><trkpt lat="44.5381983" lon="10.6040232"><ele>333.5</ele><time>2026-03-28T15:49:07.503Z</time></trkpt><trkpt lat="44.538227" lon="10.6042337"><ele>332.0</ele><time>2026-03-28T15:49:08.496Z</time></trkpt><trkpt lat="44.5382426" lon="10.6044437"><ele>329.5</ele><time>2026-03-28T15:49:09.496Z</time></trkpt><trkpt lat="44.5382812" lon="10.6046513"><ele>327.0</ele><time>2026-03-28T15:49:10.511Z</time></trkpt><trkpt lat="44.5383198" lon="10.6048456"><ele>324.5</ele><time>2026-03-28T15:49:11.5Z</time></trkpt><trkpt lat="44.5383592" lon="10.6050263"><ele>322.0</ele><time>2026-03-28T15:49:12.513Z</time></trkpt><trkpt lat="44.538394" lon="10.6052024"><ele>316.3333333333333</ele><time>2026-03-28T15:49:13.508Z</time></trkpt><trkpt lat="44.5384394" lon="10.605386"><ele>310.6666666666667</ele><time>2026-03-28T15:49:14.504Z</time></trkpt><trkpt lat="44.5385033" lon="10.6055746"><ele>305.0</ele><time>2026-03-28T15:49:15.501Z</time></trkpt><trkpt lat="44.5385979" lon="10.6057679"><ele>305.0</ele><time>2026-03-28T15:49:16.506Z</time></trkpt><trkpt lat="44.5386859" lon="10.6059775"><ele>305.0</ele><time>2026-03-28T15:49:17.509Z</time></trkpt><trkpt lat="44.5387555" lon="10.6061806"><ele>305.0</ele><time>2026-03-28T15:49:18.5Z</time></trkpt><trkpt lat="44.5388128" lon="10.6063506"><ele>302.6</ele><time>2026-03-28T15:49:19.507Z</time></trkpt><trkpt lat="44.5388598" lon="10.6064921"><ele>300.2</ele><time>2026-03-28T15:49:20.495Z</time></trkpt><trkpt lat="44.5389081" lon="10.6066173"><ele>297.8</ele><time>2026-03-28T15:49:21.501Z</time></trkpt><trkpt lat="44.5389904" lon="10.6066723"><ele>295.4</ele><time>2026-03-28T15:49:22.507Z</time></trkpt><trkpt lat="44.5391051" lon="10.6066569"><ele>293.0</ele><time>2026-03-28T15:49:23.508Z</time></trkpt><trkpt lat="44.5392196" lon="10.6065824"><ele>293.0</ele><time>2026-03-28T15:49:24.499Z</time></trkpt><trkpt lat="44.5393178" lon="10.6065096"><ele>293.0</ele><time>2026-03-28T15:49:25.508Z</time></trkpt><trkpt lat="44.5394041" lon="10.6065003"><ele>293.0</ele><time>2026-03-28T15:49:26.489Z</time></trkpt><trkpt lat="44.5394866" lon="10.6065735"><ele>293.0</ele><time>2026-03-28T15:49:27.505Z</time></trkpt><trkpt lat="44.5395494" lon="10.6067007"><ele>293.0</ele><time>2026-03-28T15:49:28.504Z</time></trkpt><trkpt lat="44.539583" lon="10.6068751"><ele>288.33333333333337</ele><time>2026-03-28T15:49:29.497Z</time></trkpt><trkpt lat="44.5395856" lon="10.6070817"><ele>283.6666666666667</ele><time>2026-03-28T15:49:30.505Z</time></trkpt><trkpt lat="44.539541" lon="10.6073334"><ele>279.0</ele><time>2026-03-28T15:49:31.485Z</time></trkpt><trkpt lat="44.5395007" lon="10.6076699"><ele>275.3333333333333</ele><time>2026-03-28T15:49:32.499Z</time></trkpt><trkpt lat="44.5395141" lon="10.6079521"><ele>271.66666666666663</ele><time>2026-03-28T15:49:33.504Z</time></trkpt><trkpt lat="44.539567" lon="10.6082189"><ele>268.0</ele><time>2026-03-28T15:49:34.497Z</time></trkpt><trkpt lat="44.5396253" lon="10.6084788"><ele>265.0</ele><time>2026-03-28T15:49:35.494Z</time></trkpt><trkpt lat="44.5396434" lon="10.6087795"><ele>262.0</ele><time>2026-03-28T15:49:36.5Z</time></trkpt><trkpt lat="44.539642" lon="10.6090735"><ele>259.0</ele><time>2026-03-28T15:49:37.497Z</time></trkpt><trkpt lat="44.5396374" lon="10.6093619"><ele>256.3333333333333</ele><time>2026-03-28T15:49:38.505Z</time></trkpt><trkpt lat="44.5396407" lon="10.6096244"><ele>253.66666666666669</ele><time>2026-03-28T15:49:39.495Z</time></trkpt><trkpt lat="44.5396605" lon="10.6098919"><ele>251.0</ele><time>2026-03-28T15:49:40.497Z</time></trkpt><trkpt lat="44.5397137" lon="10.6101707"><ele>248.66666666666669</ele><time>2026-03-28T15:49:41.499Z</time></trkpt><trkpt lat="44.5397605" lon="10.6104346"><ele>246.33333333333331</ele><time>2026-03-28T15:49:42.504Z</time></trkpt><trkpt lat="44.5398165" lon="10.6107167"><ele>244.0</ele><time>2026-03-28T15:49:43.509Z</time></trkpt><trkpt lat="44.5398679" lon="10.6110069"><ele>242.0</ele><time>2026-03-28T15:49:44.505Z</time></trkpt><trkpt lat="44.5399354" lon="10.611285"><ele>240.0</ele><time>2026-03-28T15:49:45.504Z</time></trkpt><trkpt lat="44.5400097" lon="10.6115487"><ele>238.0</ele><time>2026-03-28T15:49:46.5Z</time></trkpt><trkpt lat="44.5400662" lon="10.6118028"><ele>238.0</ele><time>2026-03-28T15:49:47.505Z</time></trkpt><trkpt lat="44.5401185" lon="10.6120514"><ele>238.0</ele><time>2026-03-28T15:49:48.497Z</time></trkpt><trkpt lat="44.5401838" lon="10.612291"><ele>238.0</ele><time>2026-03-28T15:49:49.497Z</time></trkpt><trkpt lat="44.5402754" lon="10.612468"><ele>238.0</ele><time>2026-03-28T15:49:50.502Z</time></trkpt><trkpt lat="44.5403782" lon="10.6126662"><ele>238.0</ele><time>2026-03-28T15:49:51.507Z</time></trkpt><trkpt lat="44.5404529" lon="10.6128646"><ele>238.0</ele><time>2026-03-28T15:49:52.502Z</time></trkpt><trkpt lat="44.5405194" lon="10.6130814"><ele>238.5</ele><time>2026-03-28T15:49:53.508Z</time></trkpt><trkpt lat="44.5405844" lon="10.6132637"><ele>239.0</ele><time>2026-03-28T15:49:54.516Z</time></trkpt><trkpt lat="44.5406445" lon="10.6134548"><ele>239.5</ele><time>2026-03-28T15:49:55.509Z</time></trkpt><trkpt lat="44.5406865" lon="10.6136474"><ele>240.0</ele><time>2026-03-28T15:49:56.491Z</time></trkpt><trkpt lat="44.540696" lon="10.6138457"><ele>240.0</ele><time>2026-03-28T15:49:57.49Z</time></trkpt><trkpt lat="44.5406833" lon="10.6140387"><ele>240.0</ele><time>2026-03-28T15:49:58.496Z</time></trkpt><trkpt lat="44.5406629" lon="10.6142337"><ele>240.0</ele><time>2026-03-28T15:49:59.499Z</time></trkpt><trkpt lat="44.5406189" lon="10.6144107"><ele>240.0</ele><time>2026-03-28T15:50:00.495Z</time></trkpt><trkpt lat="44.5406011" lon="10.6145754"><ele>238.25</ele><time>2026-03-28T15:50:01.496Z</time></trkpt><trkpt lat="44.5406137" lon="10.6147497"><ele>236.5</ele><time>2026-03-28T15:50:02.5Z</time></trkpt><trkpt lat="44.5406679" lon="10.6149351"><ele>234.75</ele><time>2026-03-28T15:50:03.504Z</time></trkpt><trkpt lat="44.5407393" lon="10.615103"><ele>233.0</ele><time>2026-03-28T15:50:04.487Z</time></trkpt><trkpt lat="44.540829" lon="10.6152548"><ele>234.0</ele><time>2026-03-28T15:50:05.489Z</time></trkpt><trkpt lat="44.5409499" lon="10.6153854"><ele>235.0</ele><time>2026-03-28T15:50:06.49Z</time></trkpt><trkpt lat="44.5410645" lon="10.6155225"><ele>236.0</ele><time>2026-03-28T15:50:07.489Z</time></trkpt><trkpt lat="44.5411501" lon="10.6156478"><ele>237.0</ele><time>2026-03-28T15:50:08.496Z</time></trkpt><trkpt lat="44.5412268" lon="10.6157557"><ele>237.0</ele><time>2026-03-28T15:50:09.495Z</time></trkpt><trkpt lat="44.5413078" lon="10.61588"><ele>237.0</ele><time>2026-03-28T15:50:10.494Z</time></trkpt><trkpt lat="44.5414029" lon="10.6160311"><ele>237.0</ele><time>2026-03-28T15:50:11.489Z</time></trkpt><trkpt lat="44.541507" lon="10.6161926"><ele>237.0</ele><time>2026-03-28T15:50:12.496Z</time></trkpt><trkpt lat="44.5416111" lon="10.6163596"><ele>235.75</ele><time>2026-03-28T15:50:13.496Z</time></trkpt><trkpt lat="44.541703" lon="10.6165296"><ele>234.5</ele><time>2026-03-28T15:50:14.493Z</time></trkpt><trkpt lat="44.5417937" lon="10.6166649"><ele>233.25</ele><time>2026-03-28T15:50:15.494Z</time></trkpt><trkpt lat="44.5418794" lon="10.6168058"><ele>232.0</ele><time>2026-03-28T15:50:16.497Z</time></trkpt><trkpt lat="44.5419935" lon="10.6169144"><ele>233.0</ele><time>2026-03-28T15:50:17.492Z</time></trkpt><trkpt lat="44.5420936" lon="10.6170623"><ele>234.0</ele><time>2026-03-28T15:50:18.498Z</time></trkpt><trkpt lat="44.5421797" lon="10.6171921"><ele>235.0</ele><time>2026-03-28T15:50:19.494Z</time></trkpt><trkpt lat="44.5422445" lon="10.6173021"><ele>236.0</ele><time>2026-03-28T15:50:20.491Z</time></trkpt><trkpt lat="44.5423426" lon="10.6173758"><ele>236.0</ele><time>2026-03-28T15:50:21.496Z</time></trkpt><trkpt lat="44.5424543" lon="10.6174923"><ele>236.0</ele><time>2026-03-28T15:50:22.493Z</time></trkpt><trkpt lat="44.5425574" lon="10.6176024"><ele>236.0</ele><time>2026-03-28T15:50:23.492Z</time></trkpt><trkpt lat="44.5426353" lon="10.6176707"><ele>236.0</ele><time>2026-03-28T15:50:24.504Z</time></trkpt><trkpt lat="44.5427065" lon="10.6177823"><ele>236.0</ele><time>2026-03-28T15:50:25.507Z</time></trkpt><trkpt lat="44.5427822" lon="10.6179288"><ele>236.0</ele><time>2026-03-28T15:50:26.495Z</time></trkpt><trkpt lat="44.5428661" lon="10.6180724"><ele>236.0</ele><time>2026-03-28T15:50:27.505Z</time></trkpt><trkpt lat="44.5429422" lon="10.6182188"><ele>236.0</ele><time>2026-03-28T15:50:28.506Z</time></trkpt><trkpt lat="44.5430289" lon="10.6183585"><ele>236.0</ele><time>2026-03-28T15:50:29.508Z</time></trkpt><trkpt lat="44.543108" lon="10.6184898"><ele>236.0</ele><time>2026-03-28T15:50:30.513Z</time></trkpt><trkpt lat="44.5431884" lon="10.6186143"><ele>236.0</ele><time>2026-03-28T15:50:31.504Z</time></trkpt><trkpt lat="44.5432726" lon="10.6187157"><ele>236.0</ele><time>2026-03-28T15:50:32.506Z</time></trkpt><trkpt lat="44.5433628" lon="10.6188116"><ele>235.60000000000002</ele><time>2026-03-28T15:50:33.512Z</time></trkpt><trkpt lat="44.543463" lon="10.6188948"><ele>235.20000000000002</ele><time>2026-03-28T15:50:34.508Z</time></trkpt><trkpt lat="44.5435519" lon="10.6189708"><ele>234.79999999999998</ele><time>2026-03-28T15:50:35.511Z</time></trkpt><trkpt lat="44.5436198" lon="10.619044"><ele>234.39999999999998</ele><time>2026-03-28T15:50:36.498Z</time></trkpt><trkpt lat="44.5436789" lon="10.6190895"><ele>234.0</ele><time>2026-03-28T15:50:37.499Z</time></trkpt><trkpt lat="44.5437515" lon="10.6191511"><ele>234.0</ele><time>2026-03-28T15:50:39.498Z</time></trkpt><trkpt lat="44.5437494" lon="10.6192826"><ele>233.99999999999997</ele><time>2026-03-28T15:50:42.507Z</time></trkpt><trkpt lat="44.5436752" lon="10.6194497"><ele>233.99999999999997</ele><time>2026-03-28T15:50:44.508Z</time></trkpt><trkpt lat="44.5436396" lon="10.6195707"><ele>234.0</ele><time>2026-03-28T15:50:45.523Z</time></trkpt><trkpt lat="44.5436109" lon="10.6196982"><ele>234.0</ele><time>2026-03-28T15:50:46.519Z</time></trkpt><trkpt lat="44.5435788" lon="10.6198543"><ele>233.6</ele><time>2026-03-28T15:50:47.515Z</time></trkpt><trkpt lat="44.5435488" lon="10.6200228"><ele>233.2</ele><time>2026-03-28T15:50:48.511Z</time></trkpt><trkpt lat="44.5435226" lon="10.6201909"><ele>232.79999999999998</ele><time>2026-03-28T15:50:49.515Z</time></trkpt><trkpt lat="44.543499" lon="10.6203321"><ele>232.39999999999998</ele><time>2026-03-28T15:50:50.521Z</time></trkpt><trkpt lat="44.5434761" lon="10.6204422"><ele>232.0</ele><time>2026-03-28T15:50:51.52Z</time></trkpt><trkpt lat="44.5434418" lon="10.6205798"><ele>231.49999999999997</ele><time>2026-03-28T15:50:53.519Z</time></trkpt><trkpt lat="44.5434093" lon="10.6206639"><ele>231.0</ele><time>2026-03-28T15:50:58.512Z</time></trkpt><trkpt lat="44.5434055" lon="10.6207529"><ele>230.5</ele><time>2026-03-28T15:51:01.518Z</time></trkpt><trkpt lat="44.5434411" lon="10.6208671"><ele>230.0</ele><time>2026-03-28T15:51:03.523Z</time></trkpt><trkpt lat="44.5435265" lon="10.620986"><ele>229.49999999999997</ele><time>2026-03-28T15:51:05.515Z</time></trkpt><trkpt lat="44.5435962" lon="10.621076"><ele>229.0</ele><time>2026-03-28T15:51:06.516Z</time></trkpt><trkpt lat="44.5436882" lon="10.621178"><ele>229.25</ele><time>2026-03-28T15:51:07.509Z</time></trkpt><trkpt lat="44.5437828" lon="10.6212914"><ele>229.5</ele><time>2026-03-28T15:51:08.507Z</time></trkpt><trkpt lat="44.5438802" lon="10.6214222"><ele>229.75</ele><time>2026-03-28T15:51:09.509Z</time></trkpt><trkpt lat="44.5439923" lon="10.6215519"><ele>230.0</ele><time>2026-03-28T15:51:10.509Z</time></trkpt><trkpt lat="44.5440878" lon="10.6216608"><ele>230.0</ele><time>2026-03-28T15:51:11.517Z</time></trkpt><trkpt lat="44.5441623" lon="10.6217386"><ele>230.0</ele><time>2026-03-28T15:51:12.496Z</time></trkpt><trkpt lat="44.5442346" lon="10.6217796"><ele>230.0</ele><time>2026-03-28T15:51:18.507Z</time></trkpt><trkpt lat="44.5443269" lon="10.6218813"><ele>230.0</ele><time>2026-03-28T15:51:21.502Z</time></trkpt><trkpt lat="44.5444084" lon="10.6219729"><ele>230.0</ele><time>2026-03-28T15:51:22.51Z</time></trkpt><trkpt lat="44.5445264" lon="10.6220973"><ele>229.75</ele><time>2026-03-28T15:51:23.506Z</time></trkpt><trkpt lat="44.5446445" lon="10.622232"><ele>229.5</ele><time>2026-03-28T15:51:24.507Z</time></trkpt><trkpt lat="44.5447582" lon="10.6223569"><ele>229.25</ele><time>2026-03-28T15:51:25.511Z</time></trkpt><trkpt lat="44.5448762" lon="10.6224831"><ele>229.0</ele><time>2026-03-28T15:51:26.511Z</time></trkpt><trkpt lat="44.5449906" lon="10.6225976"><ele>229.0</ele><time>2026-03-28T15:51:27.514Z</time></trkpt><trkpt lat="44.5451009" lon="10.6227166"><ele>229.0</ele><time>2026-03-28T15:51:28.511Z</time></trkpt><trkpt lat="44.5452176" lon="10.6228535"><ele>229.0</ele><time>2026-03-28T15:51:29.512Z</time></trkpt><trkpt lat="44.5453482" lon="10.6229799"><ele>229.33333333333331</ele><time>2026-03-28T15:51:30.518Z</time></trkpt><trkpt lat="44.5454657" lon="10.6231306"><ele>229.66666666666669</ele><time>2026-03-28T15:51:31.516Z</time></trkpt><trkpt lat="44.5455659" lon="10.6232821"><ele>230.0</ele><time>2026-03-28T15:51:32.521Z</time></trkpt><trkpt lat="44.5456586" lon="10.6234438"><ele>230.0</ele><time>2026-03-28T15:51:33.522Z</time></trkpt><trkpt lat="44.5457451" lon="10.6235878"><ele>230.0</ele><time>2026-03-28T15:51:34.516Z</time></trkpt><trkpt lat="44.5458228" lon="10.6237384"><ele>230.0</ele><time>2026-03-28T15:51:35.512Z</time></trkpt><trkpt lat="44.5458903" lon="10.6238981"><ele>230.0</ele><time>2026-03-28T15:51:36.515Z</time></trkpt><trkpt lat="44.5459516" lon="10.6240745"><ele>229.0</ele><time>2026-03-28T15:51:37.516Z</time></trkpt><trkpt lat="44.5460172" lon="10.6242543"><ele>228.0</ele><time>2026-03-28T15:51:38.514Z</time></trkpt><trkpt lat="44.5460799" lon="10.6244416"><ele>227.0</ele><time>2026-03-28T15:51:39.517Z</time></trkpt><trkpt lat="44.5461364" lon="10.6246188"><ele>226.0</ele><time>2026-03-28T15:51:40.513Z</time></trkpt><trkpt lat="44.5462103" lon="10.6248024"><ele>227.33333333333331</ele><time>2026-03-28T15:51:41.513Z</time></trkpt><trkpt lat="44.5462851" lon="10.6249927"><ele>228.66666666666669</ele><time>2026-03-28T15:51:42.513Z</time></trkpt><trkpt lat="44.5463589" lon="10.6251824"><ele>230.0</ele><time>2026-03-28T15:51:43.511Z</time></trkpt><trkpt lat="44.5464316" lon="10.62539"><ele>230.0</ele><time>2026-03-28T15:51:44.504Z</time></trkpt><trkpt lat="44.5465084" lon="10.6255855"><ele>230.0</ele><time>2026-03-28T15:51:45.508Z</time></trkpt><trkpt lat="44.5465729" lon="10.6257939"><ele>230.0</ele><time>2026-03-28T15:51:46.513Z</time></trkpt><trkpt lat="44.5466367" lon="10.6260154"><ele>229.0</ele><time>2026-03-28T15:51:47.518Z</time></trkpt><trkpt lat="44.5466904" lon="10.6262419"><ele>228.0</ele><time>2026-03-28T15:51:48.514Z</time></trkpt><trkpt lat="44.5467565" lon="10.6264723"><ele>227.0</ele><time>2026-03-28T15:51:49.518Z</time></trkpt><trkpt lat="44.5468219" lon="10.6266942"><ele>227.0</ele><time>2026-03-28T15:51:50.514Z</time></trkpt><trkpt lat="44.5468871" lon="10.6269006"><ele>227.0</ele><time>2026-03-28T15:51:51.517Z</time></trkpt><trkpt lat="44.5469562" lon="10.6271058"><ele>227.0</ele><time>2026-03-28T15:51:52.507Z</time></trkpt><trkpt lat="44.5470356" lon="10.6272978"><ele>228.33333333333334</ele><time>2026-03-28T15:51:53.513Z</time></trkpt><trkpt lat="44.5471086" lon="10.6275007"><ele>229.66666666666669</ele><time>2026-03-28T15:51:54.511Z</time></trkpt><trkpt lat="44.5471677" lon="10.6277179"><ele>231.0</ele><time>2026-03-28T15:51:55.509Z</time></trkpt><trkpt lat="44.5471911" lon="10.6279445"><ele>231.0</ele><time>2026-03-28T15:51:56.508Z</time></trkpt><trkpt lat="44.5471909" lon="10.6281791"><ele>231.0</ele><time>2026-03-28T15:51:57.508Z</time></trkpt><trkpt lat="44.5471781" lon="10.6284096"><ele>231.0</ele><time>2026-03-28T15:51:58.515Z</time></trkpt><trkpt lat="44.5471683" lon="10.6286385"><ele>230.5</ele><time>2026-03-28T15:51:59.506Z</time></trkpt><trkpt lat="44.5471518" lon="10.6288438"><ele>230.0</ele><time>2026-03-28T15:52:00.519Z</time></trkpt><trkpt lat="44.5471186" lon="10.6290403"><ele>229.5</ele><time>2026-03-28T15:52:01.516Z</time></trkpt><trkpt lat="44.547114" lon="10.6292339"><ele>229.0</ele><time>2026-03-28T15:52:02.515Z</time></trkpt><trkpt lat="44.5471113" lon="10.6294123"><ele>228.79999999999998</ele><time>2026-03-28T15:52:03.514Z</time></trkpt><trkpt lat="44.5471405" lon="10.6295765"><ele>228.59999999999997</ele><time>2026-03-28T15:52:04.51Z</time></trkpt><trkpt lat="44.5471712" lon="10.6297295"><ele>228.4</ele><time>2026-03-28T15:52:05.511Z</time></trkpt><trkpt lat="44.5471792" lon="10.6298648"><ele>228.2</ele><time>2026-03-28T15:52:06.512Z</time></trkpt><trkpt lat="44.5471694" lon="10.6299824"><ele>228.0</ele><time>2026-03-28T15:52:07.519Z</time></trkpt><trkpt lat="44.5471872" lon="10.6300863"><ele>228.0</ele><time>2026-03-28T15:52:08.517Z</time></trkpt><trkpt lat="44.5472352" lon="10.630177"><ele>228.0</ele><time>2026-03-28T15:52:09.523Z</time></trkpt><trkpt lat="44.5473104" lon="10.6302559"><ele>228.0</ele><time>2026-03-28T15:52:10.519Z</time></trkpt><trkpt lat="44.5473974" lon="10.6303457"><ele>228.0</ele><time>2026-03-28T15:52:11.516Z</time></trkpt><trkpt lat="44.5474812" lon="10.6304546"><ele>228.0</ele><time>2026-03-28T15:52:12.499Z</time></trkpt><trkpt lat="44.547548" lon="10.6305912"><ele>226.75</ele><time>2026-03-28T15:52:13.513Z</time></trkpt><trkpt lat="44.5476132" lon="10.6307464"><ele>225.5</ele><time>2026-03-28T15:52:14.505Z</time></trkpt><trkpt lat="44.5476775" lon="10.6309091"><ele>224.25</ele><time>2026-03-28T15:52:15.503Z</time></trkpt><trkpt lat="44.5477433" lon="10.6310487"><ele>223.0</ele><time>2026-03-28T15:52:16.52Z</time></trkpt><trkpt lat="44.5477976" lon="10.6311764"><ele>222.0</ele><time>2026-03-28T15:52:17.509Z</time></trkpt><trkpt lat="44.5478447" lon="10.6313022"><ele>221.0</ele><time>2026-03-28T15:52:18.51Z</time></trkpt><trkpt lat="44.547887" lon="10.6314459"><ele>220.0</ele><time>2026-03-28T15:52:19.509Z</time></trkpt><trkpt lat="44.5479269" lon="10.6315968"><ele>219.0</ele><time>2026-03-28T15:52:20.512Z</time></trkpt><trkpt lat="44.5479516" lon="10.631763"><ele>218.0</ele><time>2026-03-28T15:52:21.512Z</time></trkpt><trkpt lat="44.5479618" lon="10.6319444"><ele>217.75</ele><time>2026-03-28T15:52:22.508Z</time></trkpt><trkpt lat="44.547956" lon="10.632135"><ele>217.5</ele><time>2026-03-28T15:52:23.505Z</time></trkpt><trkpt lat="44.5479346" lon="10.6323219"><ele>217.25</ele><time>2026-03-28T15:52:24.525Z</time></trkpt><trkpt lat="44.547893" lon="10.6325206"><ele>217.0</ele><time>2026-03-28T15:52:25.529Z</time></trkpt><trkpt lat="44.5478552" lon="10.6327062"><ele>218.0</ele><time>2026-03-28T15:52:26.512Z</time></trkpt><trkpt lat="44.5478153" lon="10.6328954"><ele>219.0</ele><time>2026-03-28T15:52:27.512Z</time></trkpt><trkpt lat="44.547778" lon="10.6330852"><ele>220.0</ele><time>2026-03-28T15:52:28.513Z</time></trkpt><trkpt lat="44.5477356" lon="10.6332821"><ele>221.0</ele><time>2026-03-28T15:52:29.519Z</time></trkpt><trkpt lat="44.5476823" lon="10.6334664"><ele>223.0</ele><time>2026-03-28T15:52:30.526Z</time></trkpt><trkpt lat="44.5476211" lon="10.6336559"><ele>225.0</ele><time>2026-03-28T15:52:31.515Z</time></trkpt><trkpt lat="44.5475427" lon="10.6338219"><ele>227.0</ele><time>2026-03-28T15:52:32.518Z</time></trkpt><trkpt lat="44.5474624" lon="10.6339946"><ele>229.0</ele><time>2026-03-28T15:52:33.523Z</time></trkpt><trkpt lat="44.5473962" lon="10.6341892"><ele>229.0</ele><time>2026-03-28T15:52:34.508Z</time></trkpt><trkpt lat="44.5473535" lon="10.6343845"><ele>229.0</ele><time>2026-03-28T15:52:35.518Z</time></trkpt><trkpt lat="44.5473355" lon="10.6345586"><ele>229.0</ele><time>2026-03-28T15:52:36.507Z</time></trkpt><trkpt lat="44.547356" lon="10.6347437"><ele>229.0</ele><time>2026-03-28T15:52:37.507Z</time></trkpt><trkpt lat="44.5474139" lon="10.6349257"><ele>229.66666666666666</ele><time>2026-03-28T15:52:38.514Z</time></trkpt><trkpt lat="44.5474654" lon="10.6351361"><ele>230.33333333333331</ele><time>2026-03-28T15:52:39.507Z</time></trkpt><trkpt lat="44.5474492" lon="10.6353353"><ele>231.0</ele><time>2026-03-28T15:52:40.517Z</time></trkpt><trkpt lat="44.5473877" lon="10.6355312"><ele>231.0</ele><time>2026-03-28T15:52:41.512Z</time></trkpt><trkpt lat="44.5473579" lon="10.6357187"><ele>231.0</ele><time>2026-03-28T15:52:42.51Z</time></trkpt><trkpt lat="44.5473412" lon="10.63589"><ele>231.0</ele><time>2026-03-28T15:52:43.497Z</time></trkpt><trkpt lat="44.5473562" lon="10.6360547"><ele>231.0</ele><time>2026-03-28T15:52:44.515Z</time></trkpt><trkpt lat="44.5473575" lon="10.636226"><ele>231.75</ele><time>2026-03-28T15:52:45.517Z</time></trkpt><trkpt lat="44.5473303" lon="10.6363867"><ele>232.5</ele><time>2026-03-28T15:52:46.501Z</time></trkpt><trkpt lat="44.5472903" lon="10.636545"><ele>233.25</ele><time>2026-03-28T15:52:47.508Z</time></trkpt><trkpt lat="44.5472418" lon="10.6366953"><ele>234.0</ele><time>2026-03-28T15:52:48.514Z</time></trkpt><trkpt lat="44.5471926" lon="10.636831"><ele>234.0</ele><time>2026-03-28T15:52:49.515Z</time></trkpt><trkpt lat="44.5471363" lon="10.6369565"><ele>233.99999999999997</ele><time>2026-03-28T15:52:50.515Z</time></trkpt><trkpt lat="44.5470823" lon="10.6370821"><ele>233.99999999999997</ele><time>2026-03-28T15:52:51.519Z</time></trkpt><trkpt lat="44.5470261" lon="10.6372059"><ele>234.0</ele><time>2026-03-28T15:52:52.518Z</time></trkpt><trkpt lat="44.5469742" lon="10.6373503"><ele>234.0</ele><time>2026-03-28T15:52:53.511Z</time></trkpt><trkpt lat="44.5469236" lon="10.6375067"><ele>233.0</ele><time>2026-03-28T15:52:54.511Z</time></trkpt><trkpt lat="44.5468606" lon="10.6376621"><ele>232.0</ele><time>2026-03-28T15:52:55.514Z</time></trkpt><trkpt lat="44.5467938" lon="10.6378076"><ele>231.0</ele><time>2026-03-28T15:52:56.521Z</time></trkpt><trkpt lat="44.5467211" lon="10.6379408"><ele>230.0</ele><time>2026-03-28T15:52:57.513Z</time></trkpt><trkpt lat="44.5466404" lon="10.6380576"><ele>230.0</ele><time>2026-03-28T15:52:58.523Z</time></trkpt><trkpt lat="44.5465606" lon="10.638198"><ele>230.0</ele><time>2026-03-28T15:52:59.514Z</time></trkpt><trkpt lat="44.546498" lon="10.6383567"><ele>230.0</ele><time>2026-03-28T15:53:00.522Z</time></trkpt><trkpt lat="44.5464484" lon="10.6385223"><ele>230.0</ele><time>2026-03-28T15:53:01.514Z</time></trkpt><trkpt lat="44.5464243" lon="10.6387057"><ele>230.5</ele><time>2026-03-28T15:53:02.513Z</time></trkpt><trkpt lat="44.5464313" lon="10.6388993"><ele>231.0</ele><time>2026-03-28T15:53:03.517Z</time></trkpt><trkpt lat="44.5464454" lon="10.6390922"><ele>231.5</ele><time>2026-03-28T15:53:04.521Z</time></trkpt><trkpt lat="44.5464539" lon="10.6392811"><ele>232.0</ele><time>2026-03-28T15:53:05.517Z</time></trkpt><trkpt lat="44.5464575" lon="10.6394691"><ele>232.0</ele><time>2026-03-28T15:53:06.513Z</time></trkpt><trkpt lat="44.5464593" lon="10.6396593"><ele>232.0</ele><time>2026-03-28T15:53:07.513Z</time></trkpt><trkpt lat="44.5464569" lon="10.6398437"><ele>232.0</ele><time>2026-03-28T15:53:08.508Z</time></trkpt><trkpt lat="44.5464307" lon="10.6400153"><ele>232.0</ele><time>2026-03-28T15:53:09.511Z</time></trkpt><trkpt lat="44.5463957" lon="10.6401703"><ele>232.75</ele><time>2026-03-28T15:53:10.512Z</time></trkpt><trkpt lat="44.5463527" lon="10.6403338"><ele>233.5</ele><time>2026-03-28T15:53:11.516Z</time></trkpt><trkpt lat="44.5463027" lon="10.6405133"><ele>234.25</ele><time>2026-03-28T15:53:12.514Z</time></trkpt><trkpt lat="44.546228" lon="10.6406945"><ele>235.0</ele><time>2026-03-28T15:53:13.513Z</time></trkpt><trkpt lat="44.5461666" lon="10.6408987"><ele>230.66666666666666</ele><time>2026-03-28T15:53:14.508Z</time></trkpt><trkpt lat="44.5461192" lon="10.6411298"><ele>226.33333333333331</ele><time>2026-03-28T15:53:15.501Z</time></trkpt><trkpt lat="44.5461073" lon="10.6413703"><ele>222.0</ele><time>2026-03-28T15:53:16.508Z</time></trkpt><trkpt lat="44.5461029" lon="10.641588"><ele>222.0</ele><time>2026-03-28T15:53:17.509Z</time></trkpt><trkpt lat="44.5461059" lon="10.6417842"><ele>222.0</ele><time>2026-03-28T15:53:18.502Z</time></trkpt><trkpt lat="44.5461188" lon="10.641972"><ele>222.0</ele><time>2026-03-28T15:53:19.515Z</time></trkpt><trkpt lat="44.5461439" lon="10.6421696"><ele>222.0</ele><time>2026-03-28T15:53:20.511Z</time></trkpt><trkpt lat="44.5461564" lon="10.6423687"><ele>221.5</ele><time>2026-03-28T15:53:21.519Z</time></trkpt><trkpt lat="44.5461561" lon="10.6425559"><ele>221.0</ele><time>2026-03-28T15:53:22.508Z</time></trkpt><trkpt lat="44.5461563" lon="10.6427626"><ele>220.5</ele><time>2026-03-28T15:53:23.518Z</time></trkpt><trkpt lat="44.5461731" lon="10.642952"><ele>220.0</ele><time>2026-03-28T15:53:24.516Z</time></trkpt><trkpt lat="44.5462022" lon="10.6431452"><ele>222.75</ele><time>2026-03-28T15:53:25.512Z</time></trkpt><trkpt lat="44.5462484" lon="10.6433234"><ele>225.5</ele><time>2026-03-28T15:53:26.519Z</time></trkpt><trkpt lat="44.5462701" lon="10.6435184"><ele>228.25</ele><time>2026-03-28T15:53:27.512Z</time></trkpt><trkpt lat="44.5462762" lon="10.6437239"><ele>231.0</ele><time>2026-03-28T15:53:28.516Z</time></trkpt><trkpt lat="44.5462456" lon="10.6439071"><ele>228.25</ele><time>2026-03-28T15:53:29.503Z</time></trkpt><trkpt lat="44.5462005" lon="10.6440899"><ele>225.5</ele><time>2026-03-28T15:53:30.513Z</time></trkpt><trkpt lat="44.5461438" lon="10.6442771"><ele>222.75</ele><time>2026-03-28T15:53:31.517Z</time></trkpt><trkpt lat="44.5460863" lon="10.6444667"><ele>220.0</ele><time>2026-03-28T15:53:32.515Z</time></trkpt><trkpt lat="44.5460603" lon="10.644662"><ele>220.0</ele><time>2026-03-28T15:53:33.527Z</time></trkpt><trkpt lat="44.5460447" lon="10.6448944"><ele>220.0</ele><time>2026-03-28T15:53:34.52Z</time></trkpt><trkpt lat="44.5460631" lon="10.6451811"><ele>220.0</ele><time>2026-03-28T15:53:35.505Z</time></trkpt><trkpt lat="44.5460685" lon="10.6454605"><ele>221.33333333333331</ele><time>2026-03-28T15:53:36.51Z</time></trkpt><trkpt lat="44.5460609" lon="10.6457406"><ele>222.66666666666669</ele><time>2026-03-28T15:53:37.509Z</time></trkpt><trkpt lat="44.5460425" lon="10.6459998"><ele>224.0</ele><time>2026-03-28T15:53:38.507Z</time></trkpt><trkpt lat="44.5460336" lon="10.6462476"><ele>224.0</ele><time>2026-03-28T15:53:39.506Z</time></trkpt><trkpt lat="44.5460393" lon="10.6464791"><ele>224.0</ele><time>2026-03-28T15:53:40.525Z</time></trkpt><trkpt lat="44.546039" lon="10.6467015"><ele>224.0</ele><time>2026-03-28T15:53:41.521Z</time></trkpt><trkpt lat="44.546031" lon="10.6469049"><ele>224.33333333333334</ele><time>2026-03-28T15:53:42.524Z</time></trkpt><trkpt lat="44.5460082" lon="10.6471212"><ele>224.66666666666669</ele><time>2026-03-28T15:53:43.522Z</time></trkpt><trkpt lat="44.5459784" lon="10.6473263"><ele>225.0</ele><time>2026-03-28T15:53:44.52Z</time></trkpt><trkpt lat="44.545965" lon="10.6475377"><ele>225.0</ele><time>2026-03-28T15:53:45.517Z</time></trkpt><trkpt lat="44.5459402" lon="10.6477241"><ele>225.0</ele><time>2026-03-28T15:53:46.52Z</time></trkpt><trkpt lat="44.5459124" lon="10.6479146"><ele>225.0</ele><time>2026-03-28T15:53:47.519Z</time></trkpt><trkpt lat="44.5458906" lon="10.6481132"><ele>225.0</ele><time>2026-03-28T15:53:48.522Z</time></trkpt><trkpt lat="44.5458648" lon="10.6483014"><ele>225.75</ele><time>2026-03-28T15:53:49.521Z</time></trkpt><trkpt lat="44.5458398" lon="10.6484819"><ele>226.5</ele><time>2026-03-28T15:53:50.521Z</time></trkpt><trkpt lat="44.5458224" lon="10.6486595"><ele>227.25</ele><time>2026-03-28T15:53:51.52Z</time></trkpt><trkpt lat="44.5458042" lon="10.6488259"><ele>228.0</ele><time>2026-03-28T15:53:52.518Z</time></trkpt><trkpt lat="44.5457857" lon="10.6489995"><ele>228.25</ele><time>2026-03-28T15:53:53.52Z</time></trkpt><trkpt lat="44.5457684" lon="10.6491736"><ele>228.5</ele><time>2026-03-28T15:53:54.517Z</time></trkpt><trkpt lat="44.5457672" lon="10.6493456"><ele>228.75</ele><time>2026-03-28T15:53:55.517Z</time></trkpt><trkpt lat="44.5457859" lon="10.6494976"><ele>229.0</ele><time>2026-03-28T15:53:56.511Z</time></trkpt><trkpt lat="44.5458364" lon="10.6496288"><ele>229.5</ele><time>2026-03-28T15:53:57.505Z</time></trkpt><trkpt lat="44.5459193" lon="10.6497408"><ele>230.0</ele><time>2026-03-28T15:53:58.509Z</time></trkpt><trkpt lat="44.5460362" lon="10.6498178"><ele>230.5</ele><time>2026-03-28T15:53:59.503Z</time></trkpt><trkpt lat="44.546175" lon="10.6498566"><ele>231.0</ele><time>2026-03-28T15:54:00.504Z</time></trkpt><trkpt lat="44.5463068" lon="10.6498682"><ele>226.0</ele><time>2026-03-28T15:54:01.501Z</time></trkpt><trkpt lat="44.5464341" lon="10.6498523"><ele>221.0</ele><time>2026-03-28T15:54:02.499Z</time></trkpt><trkpt lat="44.5465705" lon="10.6498109"><ele>216.0</ele><time>2026-03-28T15:54:03.511Z</time></trkpt><trkpt lat="44.5467504" lon="10.6497389"><ele>216.0</ele><time>2026-03-28T15:54:04.506Z</time></trkpt><trkpt lat="44.5469924" lon="10.6496479"><ele>216.0</ele><time>2026-03-28T15:54:05.498Z</time></trkpt><trkpt lat="44.5472273" lon="10.6495942"><ele>216.66666666666669</ele><time>2026-03-28T15:54:06.509Z</time></trkpt><trkpt lat="44.5474494" lon="10.6495911"><ele>217.33333333333334</ele><time>2026-03-28T15:54:07.5Z</time></trkpt><trkpt lat="44.5476288" lon="10.6495475"><ele>218.0</ele><time>2026-03-28T15:54:08.528Z</time></trkpt><trkpt lat="44.5477727" lon="10.6494388"><ele>213.0</ele><time>2026-03-28T15:54:09.518Z</time></trkpt><trkpt lat="44.5479028" lon="10.6492495"><ele>208.0</ele><time>2026-03-28T15:54:10.515Z</time></trkpt><trkpt lat="44.5479888" lon="10.6490242"><ele>203.0</ele><time>2026-03-28T15:54:11.511Z</time></trkpt><trkpt lat="44.5481008" lon="10.6488585"><ele>203.0</ele><time>2026-03-28T15:54:12.511Z</time></trkpt><trkpt lat="44.5482612" lon="10.6487484"><ele>203.0</ele><time>2026-03-28T15:54:13.512Z</time></trkpt><trkpt lat="44.5484414" lon="10.6487021"><ele>203.0</ele><time>2026-03-28T15:54:14.517Z</time></trkpt><trkpt lat="44.5486378" lon="10.6487329"><ele>202.33333333333334</ele><time>2026-03-28T15:54:15.517Z</time></trkpt><trkpt lat="44.5488502" lon="10.6487903"><ele>201.66666666666669</ele><time>2026-03-28T15:54:16.505Z</time></trkpt><trkpt lat="44.5490593" lon="10.6488679"><ele>201.0</ele><time>2026-03-28T15:54:17.505Z</time></trkpt><trkpt lat="44.5492603" lon="10.648981"><ele>201.0</ele><time>2026-03-28T15:54:18.51Z</time></trkpt><trkpt lat="44.5494032" lon="10.6491468"><ele>201.0</ele><time>2026-03-28T15:54:19.498Z</time></trkpt><trkpt lat="44.5495489" lon="10.6493585"><ele>201.0</ele><time>2026-03-28T15:54:20.509Z</time></trkpt><trkpt lat="44.5496803" lon="10.6495865"><ele>199.66666666666669</ele><time>2026-03-28T15:54:21.499Z</time></trkpt><trkpt lat="44.5498211" lon="10.6497852"><ele>198.33333333333334</ele><time>2026-03-28T15:54:22.503Z</time></trkpt><trkpt lat="44.5499757" lon="10.6499481"><ele>197.0</ele><time>2026-03-28T15:54:23.512Z</time></trkpt><trkpt lat="44.5501558" lon="10.6500813"><ele>197.0</ele><time>2026-03-28T15:54:24.509Z</time></trkpt><trkpt lat="44.5503586" lon="10.6501537"><ele>197.0</ele><time>2026-03-28T15:54:25.511Z</time></trkpt><trkpt lat="44.5505759" lon="10.6501784"><ele>197.0</ele><time>2026-03-28T15:54:26.503Z</time></trkpt><trkpt lat="44.5507943" lon="10.6501851"><ele>196.33333333333334</ele><time>2026-03-28T15:54:27.507Z</time></trkpt><trkpt lat="44.5510057" lon="10.6501571"><ele>195.66666666666669</ele><time>2026-03-28T15:54:28.513Z</time></trkpt><trkpt lat="44.5511861" lon="10.6500685"><ele>195.0</ele><time>2026-03-28T15:54:29.503Z</time></trkpt><trkpt lat="44.5513678" lon="10.6499683"><ele>193.0</ele><time>2026-03-28T15:54:30.508Z</time></trkpt><trkpt lat="44.5515614" lon="10.6499101"><ele>191.0</ele><time>2026-03-28T15:54:31.498Z</time></trkpt><trkpt lat="44.551747" lon="10.6499004"><ele>189.0</ele><time>2026-03-28T15:54:32.514Z</time></trkpt><trkpt lat="44.5519317" lon="10.6500055"><ele>189.33333333333334</ele><time>2026-03-28T15:54:33.518Z</time></trkpt><trkpt lat="44.5520901" lon="10.6501351"><ele>189.66666666666669</ele><time>2026-03-28T15:54:34.502Z</time></trkpt><trkpt lat="44.5522532" lon="10.6503121"><ele>190.0</ele><time>2026-03-28T15:54:35.498Z</time></trkpt><trkpt lat="44.5524049" lon="10.6504931"><ele>183.5</ele><time>2026-03-28T15:54:36.498Z</time></trkpt><trkpt lat="44.5525953" lon="10.6506336"><ele>177.0</ele><time>2026-03-28T15:54:37.504Z</time></trkpt><trkpt lat="44.5528452" lon="10.6507333"><ele>178.0</ele><time>2026-03-28T15:54:38.503Z</time></trkpt><trkpt lat="44.5530935" lon="10.6508571"><ele>179.0</ele><time>2026-03-28T15:54:39.506Z</time></trkpt><trkpt lat="44.5533375" lon="10.6509973"><ele>179.0</ele><time>2026-03-28T15:54:40.501Z</time></trkpt><trkpt lat="44.5535654" lon="10.6511111"><ele>179.0</ele><time>2026-03-28T15:54:41.506Z</time></trkpt><trkpt lat="44.5537799" lon="10.651189"><ele>176.0</ele><time>2026-03-28T15:54:42.511Z</time></trkpt><trkpt lat="44.5539841" lon="10.6513014"><ele>173.0</ele><time>2026-03-28T15:54:43.504Z</time></trkpt><trkpt lat="44.5541691" lon="10.6514518"><ele>170.0</ele><time>2026-03-28T15:54:44.504Z</time></trkpt><trkpt lat="44.5543451" lon="10.6516166"><ele>170.0</ele><time>2026-03-28T15:54:45.501Z</time></trkpt><trkpt lat="44.5545129" lon="10.6518058"><ele>170.0</ele><time>2026-03-28T15:54:46.499Z</time></trkpt><trkpt lat="44.5546541" lon="10.6519954"><ele>170.0</ele><time>2026-03-28T15:54:47.495Z</time></trkpt><trkpt lat="44.5547745" lon="10.652146"><ele>167.25</ele><time>2026-03-28T15:54:48.495Z</time></trkpt><trkpt lat="44.5549096" lon="10.6522461"><ele>164.5</ele><time>2026-03-28T15:54:49.497Z</time></trkpt><trkpt lat="44.5550524" lon="10.6522954"><ele>161.75</ele><time>2026-03-28T15:54:50.499Z</time></trkpt><trkpt lat="44.5551855" lon="10.6522759"><ele>159.0</ele><time>2026-03-28T15:54:51.51Z</time></trkpt><trkpt lat="44.5553091" lon="10.6521669"><ele>157.66666666666666</ele><time>2026-03-28T15:54:52.505Z</time></trkpt><trkpt lat="44.5554184" lon="10.6519815"><ele>156.33333333333331</ele><time>2026-03-28T15:54:53.505Z</time></trkpt><trkpt lat="44.5555003" lon="10.6517385"><ele>155.0</ele><time>2026-03-28T15:54:54.5Z</time></trkpt><trkpt lat="44.5555779" lon="10.6514834"><ele>155.0</ele><time>2026-03-28T15:54:55.497Z</time></trkpt><trkpt lat="44.555657" lon="10.6512493"><ele>155.0</ele><time>2026-03-28T15:54:56.498Z</time></trkpt><trkpt lat="44.5557428" lon="10.6510246"><ele>155.0</ele><time>2026-03-28T15:54:57.498Z</time></trkpt><trkpt lat="44.5558331" lon="10.6507942"><ele>156.66666666666666</ele><time>2026-03-28T15:54:58.507Z</time></trkpt><trkpt lat="44.5559037" lon="10.6505765"><ele>158.33333333333334</ele><time>2026-03-28T15:54:59.507Z</time></trkpt><trkpt lat="44.555971" lon="10.6503863"><ele>160.0</ele><time>2026-03-28T15:55:00.508Z</time></trkpt><trkpt lat="44.5560475" lon="10.650202"><ele>160.0</ele><time>2026-03-28T15:55:01.501Z</time></trkpt><trkpt lat="44.5561103" lon="10.6500234"><ele>160.0</ele><time>2026-03-28T15:55:02.511Z</time></trkpt><trkpt lat="44.5561611" lon="10.6498622"><ele>160.0</ele><time>2026-03-28T15:55:03.51Z</time></trkpt><trkpt lat="44.5562405" lon="10.6497034"><ele>160.0</ele><time>2026-03-28T15:55:04.503Z</time></trkpt><trkpt lat="44.5563517" lon="10.6495606"><ele>155.0</ele><time>2026-03-28T15:55:05.504Z</time></trkpt><trkpt lat="44.5564829" lon="10.6494376"><ele>150.0</ele><time>2026-03-28T15:55:06.502Z</time></trkpt><trkpt lat="44.5566294" lon="10.6493569"><ele>145.0</ele><time>2026-03-28T15:55:07.502Z</time></trkpt><trkpt lat="44.556783" lon="10.6493068"><ele>145.0</ele><time>2026-03-28T15:55:08.505Z</time></trkpt><trkpt lat="44.5569372" lon="10.6492424"><ele>145.0</ele><time>2026-03-28T15:55:09.507Z</time></trkpt><trkpt lat="44.5570965" lon="10.6491768"><ele>145.0</ele><time>2026-03-28T15:55:10.505Z</time></trkpt><trkpt lat="44.5572487" lon="10.6491218"><ele>144.33333333333334</ele><time>2026-03-28T15:55:11.511Z</time></trkpt><trkpt lat="44.5573967" lon="10.6490543"><ele>143.66666666666666</ele><time>2026-03-28T15:55:12.515Z</time></trkpt><trkpt lat="44.5575429" lon="10.6490103"><ele>143.0</ele><time>2026-03-28T15:55:13.508Z</time></trkpt><trkpt lat="44.5576867" lon="10.6489466"><ele>143.0</ele><time>2026-03-28T15:55:14.507Z</time></trkpt><trkpt lat="44.5578238" lon="10.6489068"><ele>143.0</ele><time>2026-03-28T15:55:15.503Z</time></trkpt><trkpt lat="44.5579589" lon="10.6488828"><ele>143.0</ele><time>2026-03-28T15:55:16.502Z</time></trkpt><trkpt lat="44.558094" lon="10.6488838"><ele>143.0</ele><time>2026-03-28T15:55:17.511Z</time></trkpt><trkpt lat="44.5582264" lon="10.648925"><ele>144.5</ele><time>2026-03-28T15:55:18.496Z</time></trkpt><trkpt lat="44.5583612" lon="10.6490071"><ele>146.0</ele><time>2026-03-28T15:55:19.499Z</time></trkpt><trkpt lat="44.558475" lon="10.649135"><ele>147.5</ele><time>2026-03-28T15:55:20.499Z</time></trkpt><trkpt lat="44.5585572" lon="10.6492651"><ele>149.0</ele><time>2026-03-28T15:55:21.502Z</time></trkpt><trkpt lat="44.5586153" lon="10.6494026"><ele>149.0</ele><time>2026-03-28T15:55:22.5Z</time></trkpt><trkpt lat="44.5586805" lon="10.6495381"><ele>149.0</ele><time>2026-03-28T15:55:23.494Z</time></trkpt><trkpt lat="44.5587515" lon="10.6496584"><ele>149.0</ele><time>2026-03-28T15:55:24.501Z</time></trkpt><trkpt lat="44.5588026" lon="10.6497814"><ele>149.0</ele><time>2026-03-28T15:55:25.5Z</time></trkpt><trkpt lat="44.5588231" lon="10.6499009"><ele>149.0</ele><time>2026-03-28T15:55:26.497Z</time></trkpt><trkpt lat="44.5588321" lon="10.6500198"><ele>149.0</ele><time>2026-03-28T15:55:27.498Z</time></trkpt><trkpt lat="44.5588648" lon="10.6501479"><ele>149.0</ele><time>2026-03-28T15:55:28.5Z</time></trkpt><trkpt lat="44.5589127" lon="10.6502899"><ele>149.0</ele><time>2026-03-28T15:55:29.502Z</time></trkpt><trkpt lat="44.5589719" lon="10.6504474"><ele>149.0</ele><time>2026-03-28T15:55:30.509Z</time></trkpt><trkpt lat="44.5590506" lon="10.6506091"><ele>148.75</ele><time>2026-03-28T15:55:31.505Z</time></trkpt><trkpt lat="44.5591479" lon="10.6507539"><ele>148.5</ele><time>2026-03-28T15:55:32.501Z</time></trkpt><trkpt lat="44.5592568" lon="10.6508791"><ele>148.25</ele><time>2026-03-28T15:55:33.508Z</time></trkpt><trkpt lat="44.5593945" lon="10.6509421"><ele>148.0</ele><time>2026-03-28T15:55:34.507Z</time></trkpt><trkpt lat="44.5595646" lon="10.6509673"><ele>148.0</ele><time>2026-03-28T15:55:35.499Z</time></trkpt><trkpt lat="44.5597352" lon="10.6510029"><ele>148.0</ele><time>2026-03-28T15:55:36.504Z</time></trkpt><trkpt lat="44.5598992" lon="10.6510439"><ele>148.0</ele><time>2026-03-28T15:55:37.502Z</time></trkpt><trkpt lat="44.5600792" lon="10.6510763"><ele>148.0</ele><time>2026-03-28T15:55:38.497Z</time></trkpt><trkpt lat="44.56023" lon="10.6511049"><ele>148.0</ele><time>2026-03-28T15:55:39.504Z</time></trkpt><trkpt lat="44.5603871" lon="10.6511291"><ele>148.0</ele><time>2026-03-28T15:55:40.497Z</time></trkpt><trkpt lat="44.5605512" lon="10.6511379"><ele>148.66666666666669</ele><time>2026-03-28T15:55:41.496Z</time></trkpt><trkpt lat="44.5607481" lon="10.6511158"><ele>149.33333333333334</ele><time>2026-03-28T15:55:42.496Z</time></trkpt><trkpt lat="44.560947" lon="10.651098"><ele>150.0</ele><time>2026-03-28T15:55:43.493Z</time></trkpt><trkpt lat="44.5611325" lon="10.6510833"><ele>150.0</ele><time>2026-03-28T15:55:44.495Z</time></trkpt><trkpt lat="44.5613284" lon="10.651057"><ele>150.0</ele><time>2026-03-28T15:55:45.495Z</time></trkpt><trkpt lat="44.561519" lon="10.6510443"><ele>150.0</ele><time>2026-03-28T15:55:46.494Z</time></trkpt><trkpt lat="44.5617163" lon="10.6510622"><ele>146.33333333333334</ele><time>2026-03-28T15:55:47.488Z</time></trkpt><trkpt lat="44.5619087" lon="10.6511261"><ele>142.66666666666669</ele><time>2026-03-28T15:55:48.497Z</time></trkpt><trkpt lat="44.5620833" lon="10.6511996"><ele>139.0</ele><time>2026-03-28T15:55:49.49Z</time></trkpt><trkpt lat="44.5622265" lon="10.6512567"><ele>139.0</ele><time>2026-03-28T15:55:50.505Z</time></trkpt><trkpt lat="44.5623623" lon="10.6512943"><ele>139.0</ele><time>2026-03-28T15:55:51.497Z</time></trkpt><trkpt lat="44.5625037" lon="10.6513007"><ele>139.0</ele><time>2026-03-28T15:55:52.491Z</time></trkpt><trkpt lat="44.5626705" lon="10.6512869"><ele>139.0</ele><time>2026-03-28T15:55:53.498Z</time></trkpt><trkpt lat="44.5628294" lon="10.6512669"><ele>138.66666666666669</ele><time>2026-03-28T15:55:54.497Z</time></trkpt><trkpt lat="44.562978" lon="10.6512631"><ele>138.33333333333334</ele><time>2026-03-28T15:55:55.501Z</time></trkpt><trkpt lat="44.5631434" lon="10.6512369"><ele>138.0</ele><time>2026-03-28T15:55:56.491Z</time></trkpt><trkpt lat="44.563319" lon="10.6511889"><ele>138.0</ele><time>2026-03-28T15:55:57.483Z</time></trkpt><trkpt lat="44.5635201" lon="10.6511349"><ele>138.0</ele><time>2026-03-28T15:55:58.49Z</time></trkpt><trkpt lat="44.5637153" lon="10.651074"><ele>138.0</ele><time>2026-03-28T15:55:59.485Z</time></trkpt><trkpt lat="44.563892" lon="10.6509979"><ele>141.66666666666666</ele><time>2026-03-28T15:56:00.494Z</time></trkpt><trkpt lat="44.5640589" lon="10.6509426"><ele>145.33333333333331</ele><time>2026-03-28T15:56:01.491Z</time></trkpt><trkpt lat="44.5642255" lon="10.6509022"><ele>149.0</ele><time>2026-03-28T15:56:02.492Z</time></trkpt><trkpt lat="44.5643942" lon="10.6508637"><ele>149.0</ele><time>2026-03-28T15:56:03.497Z</time></trkpt><trkpt lat="44.5645566" lon="10.650875"><ele>149.0</ele><time>2026-03-28T15:56:04.488Z</time></trkpt><trkpt lat="44.5647246" lon="10.6509074"><ele>149.0</ele><time>2026-03-28T15:56:05.493Z</time></trkpt><trkpt lat="44.5648382" lon="10.6509533"><ele>149.0</ele><time>2026-03-28T15:56:06.488Z</time></trkpt><trkpt lat="44.5649136" lon="10.65099"><ele>149.0</ele><time>2026-03-28T15:56:07.478Z</time></trkpt><trkpt lat="44.564976" lon="10.6510375"><ele>149.0</ele><time>2026-03-28T15:56:10.48Z</time></trkpt><trkpt lat="44.5648693" lon="10.6509333"><ele>149.0</ele><time>2026-03-28T15:56:15.487Z</time></trkpt><trkpt lat="44.5647353" lon="10.6509111"><ele>149.0</ele><time>2026-03-28T15:56:16.48Z</time></trkpt><trkpt lat="44.5645672" lon="10.6509048"><ele>149.0</ele><time>2026-03-28T15:56:17.483Z</time></trkpt><trkpt lat="44.5643764" lon="10.6508599"><ele>149.0</ele><time>2026-03-28T15:56:18.478Z</time></trkpt><trkpt lat="44.5641727" lon="10.6508716"><ele>149.0</ele><time>2026-03-28T15:56:19.482Z</time></trkpt><trkpt lat="44.563942" lon="10.6509273"><ele>149.0</ele><time>2026-03-28T15:56:20.488Z</time></trkpt><trkpt lat="44.5637258" lon="10.651039"><ele>149.0</ele><time>2026-03-28T15:56:21.495Z</time></trkpt><trkpt lat="44.5635" lon="10.6511226"><ele>145.66666666666666</ele><time>2026-03-28T15:56:22.487Z</time></trkpt><trkpt lat="44.5632877" lon="10.6512032"><ele>142.33333333333334</ele><time>2026-03-28T15:56:23.497Z</time></trkpt><trkpt lat="44.5630763" lon="10.6512558"><ele>139.0</ele><time>2026-03-28T15:56:24.497Z</time></trkpt><trkpt lat="44.562853" lon="10.6513027"><ele>139.0</ele><time>2026-03-28T15:56:25.489Z</time></trkpt><trkpt lat="44.5626251" lon="10.6513363"><ele>139.0</ele><time>2026-03-28T15:56:26.487Z</time></trkpt><trkpt lat="44.5624334" lon="10.6513202"><ele>139.0</ele><time>2026-03-28T15:56:27.486Z</time></trkpt><trkpt lat="44.5622543" lon="10.6512912"><ele>139.0</ele><time>2026-03-28T15:56:28.491Z</time></trkpt><trkpt lat="44.5620698" lon="10.6512481"><ele>139.0</ele><time>2026-03-28T15:56:29.492Z</time></trkpt><trkpt lat="44.5618957" lon="10.6511518"><ele>139.0</ele><time>2026-03-28T15:56:30.5Z</time></trkpt><trkpt lat="44.561714" lon="10.6510784"><ele>142.66666666666669</ele><time>2026-03-28T15:56:31.495Z</time></trkpt><trkpt lat="44.5615213" lon="10.6510638"><ele>146.33333333333334</ele><time>2026-03-28T15:56:32.495Z</time></trkpt><trkpt lat="44.5612979" lon="10.6510824"><ele>150.0</ele><time>2026-03-28T15:56:33.506Z</time></trkpt><trkpt lat="44.5610821" lon="10.6510877"><ele>150.0</ele><time>2026-03-28T15:56:34.508Z</time></trkpt><trkpt lat="44.5608496" lon="10.6511128"><ele>150.0</ele><time>2026-03-28T15:56:35.499Z</time></trkpt><trkpt lat="44.5606485" lon="10.6511139"><ele>150.0</ele><time>2026-03-28T15:56:36.509Z</time></trkpt><trkpt lat="44.5604591" lon="10.6511192"><ele>149.33333333333334</ele><time>2026-03-28T15:56:37.494Z</time></trkpt><trkpt lat="44.5602593" lon="10.6511074"><ele>148.66666666666669</ele><time>2026-03-28T15:56:38.491Z</time></trkpt><trkpt lat="44.5600626" lon="10.6510542"><ele>148.0</ele><time>2026-03-28T15:56:39.492Z</time></trkpt><trkpt lat="44.5598851" lon="10.6509895"><ele>148.0</ele><time>2026-03-28T15:56:40.493Z</time></trkpt><trkpt lat="44.5597148" lon="10.6509325"><ele>148.0</ele><time>2026-03-28T15:56:41.49Z</time></trkpt><trkpt lat="44.5595346" lon="10.6508971"><ele>148.0</ele><time>2026-03-28T15:56:42.497Z</time></trkpt><trkpt lat="44.559385" lon="10.6508674"><ele>147.0</ele><time>2026-03-28T15:56:43.495Z</time></trkpt><trkpt lat="44.5592609" lon="10.650814"><ele>146.0</ele><time>2026-03-28T15:56:44.493Z</time></trkpt><trkpt lat="44.5591518" lon="10.6507036"><ele>145.0</ele><time>2026-03-28T15:56:45.502Z</time></trkpt><trkpt lat="44.5590416" lon="10.6505603"><ele>144.0</ele><time>2026-03-28T15:56:46.489Z</time></trkpt><trkpt lat="44.5589689" lon="10.6503715"><ele>145.66666666666666</ele><time>2026-03-28T15:56:47.504Z</time></trkpt><trkpt lat="44.5589029" lon="10.6501585"><ele>147.33333333333331</ele><time>2026-03-28T15:56:48.497Z</time></trkpt><trkpt lat="44.5588411" lon="10.6499441"><ele>149.0</ele><time>2026-03-28T15:56:49.5Z</time></trkpt><trkpt lat="44.5587804" lon="10.6497325"><ele>149.0</ele><time>2026-03-28T15:56:50.503Z</time></trkpt><trkpt lat="44.5587135" lon="10.6495345"><ele>149.0</ele><time>2026-03-28T15:56:51.496Z</time></trkpt><trkpt lat="44.5586173" lon="10.6493499"><ele>149.0</ele><time>2026-03-28T15:56:52.512Z</time></trkpt><trkpt lat="44.5585243" lon="10.6491858"><ele>149.0</ele><time>2026-03-28T15:56:53.499Z</time></trkpt><trkpt lat="44.5584153" lon="10.6490296"><ele>149.0</ele><time>2026-03-28T15:56:54.5Z</time></trkpt><trkpt lat="44.5583033" lon="10.6489246"><ele>149.0</ele><time>2026-03-28T15:56:55.496Z</time></trkpt><trkpt lat="44.5581694" lon="10.6488532"><ele>149.0</ele><time>2026-03-28T15:56:56.501Z</time></trkpt><trkpt lat="44.5580141" lon="10.6488266"><ele>147.0</ele><time>2026-03-28T15:56:57.502Z</time></trkpt><trkpt lat="44.5578317" lon="10.6488535"><ele>145.0</ele><time>2026-03-28T15:56:58.494Z</time></trkpt><trkpt lat="44.5576469" lon="10.648915"><ele>143.0</ele><time>2026-03-28T15:56:59.502Z</time></trkpt><trkpt lat="44.5574669" lon="10.6489987"><ele>143.0</ele><time>2026-03-28T15:57:00.509Z</time></trkpt><trkpt lat="44.557267" lon="10.6490817"><ele>143.0</ele><time>2026-03-28T15:57:01.509Z</time></trkpt><trkpt lat="44.5570273" lon="10.6491632"><ele>143.0</ele><time>2026-03-28T15:57:02.514Z</time></trkpt><trkpt lat="44.5568121" lon="10.6492449"><ele>143.0</ele><time>2026-03-28T15:57:03.516Z</time></trkpt><trkpt lat="44.5566047" lon="10.6493536"><ele>143.0</ele><time>2026-03-28T15:57:04.505Z</time></trkpt><trkpt lat="44.5564262" lon="10.6494799"><ele>143.0</ele><time>2026-03-28T15:57:05.514Z</time></trkpt><trkpt lat="44.5562927" lon="10.6496735"><ele>143.0</ele><time>2026-03-28T15:57:06.497Z</time></trkpt><trkpt lat="44.5561751" lon="10.6498898"><ele>143.0</ele><time>2026-03-28T15:57:07.506Z</time></trkpt><trkpt lat="44.5561013" lon="10.6501223"><ele>149.0</ele><time>2026-03-28T15:57:08.5Z</time></trkpt><trkpt lat="44.5560206" lon="10.650342"><ele>155.0</ele><time>2026-03-28T15:57:09.507Z</time></trkpt><trkpt lat="44.5559644" lon="10.6505559"><ele>161.0</ele><time>2026-03-28T15:57:10.507Z</time></trkpt><trkpt lat="44.5559079" lon="10.6507719"><ele>161.0</ele><time>2026-03-28T15:57:11.507Z</time></trkpt><trkpt lat="44.5558625" lon="10.6509919"><ele>161.0</ele><time>2026-03-28T15:57:12.51Z</time></trkpt><trkpt lat="44.5557956" lon="10.6512219"><ele>161.0</ele><time>2026-03-28T15:57:13.513Z</time></trkpt><trkpt lat="44.555716" lon="10.6514541"><ele>159.0</ele><time>2026-03-28T15:57:14.506Z</time></trkpt><trkpt lat="44.5556159" lon="10.6516555"><ele>157.0</ele><time>2026-03-28T15:57:15.509Z</time></trkpt><trkpt lat="44.5555461" lon="10.6518816"><ele>155.0</ele><time>2026-03-28T15:57:16.518Z</time></trkpt><trkpt lat="44.5554765" lon="10.6521224"><ele>156.33333333333331</ele><time>2026-03-28T15:57:17.507Z</time></trkpt><trkpt lat="44.5553759" lon="10.6523496"><ele>157.66666666666666</ele><time>2026-03-28T15:57:18.511Z</time></trkpt><trkpt lat="44.5552533" lon="10.6525289"><ele>159.0</ele><time>2026-03-28T15:57:19.507Z</time></trkpt><trkpt lat="44.5551475" lon="10.6526369"><ele>159.0</ele><time>2026-03-28T15:57:20.501Z</time></trkpt><trkpt lat="44.5550046" lon="10.6526767"><ele>159.0</ele><time>2026-03-28T15:57:21.498Z</time></trkpt><trkpt lat="44.5548603" lon="10.6527362"><ele>159.0</ele><time>2026-03-28T15:57:22.498Z</time></trkpt><trkpt lat="44.5546619" lon="10.6528271"><ele>155.66666666666666</ele><time>2026-03-28T15:57:23.501Z</time></trkpt><trkpt lat="44.554494" lon="10.652909"><ele>152.33333333333331</ele><time>2026-03-28T15:57:24.501Z</time></trkpt><trkpt lat="44.5543327" lon="10.6529976"><ele>149.0</ele><time>2026-03-28T15:57:25.502Z</time></trkpt><trkpt lat="44.5542196" lon="10.653089"><ele>149.0</ele><time>2026-03-28T15:57:26.505Z</time></trkpt><trkpt lat="44.5541534" lon="10.6532259"><ele>149.0</ele><time>2026-03-28T15:57:27.516Z</time></trkpt><trkpt lat="44.5541307" lon="10.653441"><ele>149.0</ele><time>2026-03-28T15:57:28.503Z</time></trkpt><trkpt lat="44.5541129" lon="10.6537048"><ele>148.0</ele><time>2026-03-28T15:57:29.51Z</time></trkpt><trkpt lat="44.5541019" lon="10.6539951"><ele>147.0</ele><time>2026-03-28T15:57:30.507Z</time></trkpt><trkpt lat="44.5540851" lon="10.6542698"><ele>146.0</ele><time>2026-03-28T15:57:31.499Z</time></trkpt><trkpt lat="44.5540757" lon="10.6545363"><ele>146.0</ele><time>2026-03-28T15:57:32.51Z</time></trkpt><trkpt lat="44.5540678" lon="10.6547707"><ele>146.0</ele><time>2026-03-28T15:57:33.517Z</time></trkpt><trkpt lat="44.5540443" lon="10.6550008"><ele>146.0</ele><time>2026-03-28T15:57:34.507Z</time></trkpt><trkpt lat="44.55401" lon="10.6551921"><ele>145.0</ele><time>2026-03-28T15:57:35.512Z</time></trkpt><trkpt lat="44.553929" lon="10.655382"><ele>144.0</ele><time>2026-03-28T15:57:36.51Z</time></trkpt><trkpt lat="44.5538302" lon="10.6555641"><ele>143.0</ele><time>2026-03-28T15:57:37.502Z</time></trkpt><trkpt lat="44.5536994" lon="10.655765"><ele>143.0</ele><time>2026-03-28T15:57:38.513Z</time></trkpt><trkpt lat="44.5535748" lon="10.6559854"><ele>143.0</ele><time>2026-03-28T15:57:39.51Z</time></trkpt><trkpt lat="44.5534487" lon="10.6562385"><ele>143.0</ele><time>2026-03-28T15:57:40.514Z</time></trkpt><trkpt lat="44.5533331" lon="10.6565182"><ele>142.5</ele><time>2026-03-28T15:57:41.511Z</time></trkpt><trkpt lat="44.5532159" lon="10.6568186"><ele>142.0</ele><time>2026-03-28T15:57:42.508Z</time></trkpt><trkpt lat="44.5531097" lon="10.6571322"><ele>143.0</ele><time>2026-03-28T15:57:43.514Z</time></trkpt><trkpt lat="44.5530334" lon="10.6574304"><ele>144.0</ele><time>2026-03-28T15:57:44.512Z</time></trkpt><trkpt lat="44.5529434" lon="10.6577254"><ele>148.0</ele><time>2026-03-28T15:57:45.519Z</time></trkpt><trkpt lat="44.5528633" lon="10.6580038"><ele>152.0</ele><time>2026-03-28T15:57:46.517Z</time></trkpt><trkpt lat="44.5527636" lon="10.65826"><ele>156.0</ele><time>2026-03-28T15:57:47.52Z</time></trkpt><trkpt lat="44.5526568" lon="10.6585221"><ele>155.33333333333334</ele><time>2026-03-28T15:57:48.507Z</time></trkpt><trkpt lat="44.5525477" lon="10.6587909"><ele>154.66666666666669</ele><time>2026-03-28T15:57:49.514Z</time></trkpt><trkpt lat="44.5524269" lon="10.6590594"><ele>154.0</ele><time>2026-03-28T15:57:50.509Z</time></trkpt><trkpt lat="44.5522909" lon="10.6593468"><ele>150.5</ele><time>2026-03-28T15:57:51.5Z</time></trkpt><trkpt lat="44.5521613" lon="10.6596507"><ele>147.0</ele><time>2026-03-28T15:57:52.506Z</time></trkpt><trkpt lat="44.5520274" lon="10.6599671"><ele>149.5</ele><time>2026-03-28T15:57:53.516Z</time></trkpt><trkpt lat="44.5518863" lon="10.6602616"><ele>152.0</ele><time>2026-03-28T15:57:54.507Z</time></trkpt><trkpt lat="44.5517547" lon="10.6605486"><ele>152.0</ele><time>2026-03-28T15:57:55.507Z</time></trkpt><trkpt lat="44.5516311" lon="10.6608054"><ele>152.0</ele><time>2026-03-28T15:57:56.506Z</time></trkpt><trkpt lat="44.5515175" lon="10.6610396"><ele>152.0</ele><time>2026-03-28T15:57:57.512Z</time></trkpt><trkpt lat="44.5514338" lon="10.6612634"><ele>151.0</ele><time>2026-03-28T15:57:58.507Z</time></trkpt><trkpt lat="44.5513749" lon="10.6614645"><ele>150.0</ele><time>2026-03-28T15:57:59.504Z</time></trkpt><trkpt lat="44.5513395" lon="10.6616699"><ele>149.0</ele><time>2026-03-28T15:58:00.506Z</time></trkpt><trkpt lat="44.5513348" lon="10.6618656"><ele>148.0</ele><time>2026-03-28T15:58:01.527Z</time></trkpt><trkpt lat="44.5513702" lon="10.6620455"><ele>147.75</ele><time>2026-03-28T15:58:02.517Z</time></trkpt><trkpt lat="44.5514172" lon="10.6622041"><ele>147.5</ele><time>2026-03-28T15:58:03.531Z</time></trkpt><trkpt lat="44.551506" lon="10.6623559"><ele>147.25</ele><time>2026-03-28T15:58:04.515Z</time></trkpt><trkpt lat="44.551602" lon="10.662516"><ele>147.0</ele><time>2026-03-28T15:58:05.517Z</time></trkpt><trkpt lat="44.551696" lon="10.6626862"><ele>147.33333333333334</ele><time>2026-03-28T15:58:06.516Z</time></trkpt><trkpt lat="44.5517911" lon="10.6628356"><ele>147.66666666666669</ele><time>2026-03-28T15:58:07.513Z</time></trkpt><trkpt lat="44.5518929" lon="10.6629885"><ele>148.0</ele><time>2026-03-28T15:58:08.511Z</time></trkpt><trkpt lat="44.5519997" lon="10.6631572"><ele>148.33333333333334</ele><time>2026-03-28T15:58:09.506Z</time></trkpt><trkpt lat="44.5521124" lon="10.663356"><ele>148.66666666666666</ele><time>2026-03-28T15:58:10.512Z</time></trkpt><trkpt lat="44.5522281" lon="10.6635744"><ele>149.0</ele><time>2026-03-28T15:58:11.525Z</time></trkpt><trkpt lat="44.5523306" lon="10.6638345"><ele>149.0</ele><time>2026-03-28T15:58:12.51Z</time></trkpt><trkpt lat="44.552421" lon="10.6641183"><ele>149.0</ele><time>2026-03-28T15:58:13.523Z</time></trkpt><trkpt lat="44.5524804" lon="10.6644433"><ele>149.0</ele><time>2026-03-28T15:58:14.517Z</time></trkpt><trkpt lat="44.5525314" lon="10.6647678"><ele>149.0</ele><time>2026-03-28T15:58:15.516Z</time></trkpt><trkpt lat="44.5525792" lon="10.665092"><ele>149.66666666666666</ele><time>2026-03-28T15:58:16.529Z</time></trkpt><trkpt lat="44.5526131" lon="10.6654023"><ele>150.33333333333334</ele><time>2026-03-28T15:58:17.514Z</time></trkpt><trkpt lat="44.5526263" lon="10.6656959"><ele>151.0</ele><time>2026-03-28T15:58:18.517Z</time></trkpt><trkpt lat="44.5525926" lon="10.6659744"><ele>151.66666666666669</ele><time>2026-03-28T15:58:19.53Z</time></trkpt><trkpt lat="44.5525066" lon="10.6662505"><ele>152.33333333333334</ele><time>2026-03-28T15:58:20.521Z</time></trkpt><trkpt lat="44.5523974" lon="10.666505"><ele>153.0</ele><time>2026-03-28T15:58:21.519Z</time></trkpt><trkpt lat="44.5522656" lon="10.6667845"><ele>153.5</ele><time>2026-03-28T15:58:22.521Z</time></trkpt><trkpt lat="44.5521374" lon="10.667059"><ele>154.0</ele><time>2026-03-28T15:58:23.516Z</time></trkpt><trkpt lat="44.5519972" lon="10.6673392"><ele>154.0</ele><time>2026-03-28T15:58:24.532Z</time></trkpt><trkpt lat="44.5518541" lon="10.667616"><ele>154.0</ele><time>2026-03-28T15:58:25.522Z</time></trkpt><trkpt lat="44.5517205" lon="10.6678846"><ele>154.5</ele><time>2026-03-28T15:58:26.519Z</time></trkpt><trkpt lat="44.5515878" lon="10.6681678"><ele>155.0</ele><time>2026-03-28T15:58:27.519Z</time></trkpt><trkpt lat="44.551456" lon="10.6684496"><ele>154.5</ele><time>2026-03-28T15:58:28.526Z</time></trkpt><trkpt lat="44.5513264" lon="10.6687333"><ele>154.0</ele><time>2026-03-28T15:58:29.525Z</time></trkpt><trkpt lat="44.551188" lon="10.6690172"><ele>154.0</ele><time>2026-03-28T15:58:30.533Z</time></trkpt><trkpt lat="44.5510585" lon="10.669305"><ele>154.0</ele><time>2026-03-28T15:58:31.526Z</time></trkpt><trkpt lat="44.5509302" lon="10.6695849"><ele>155.5</ele><time>2026-03-28T15:58:32.526Z</time></trkpt><trkpt lat="44.5507971" lon="10.6698781"><ele>157.0</ele><time>2026-03-28T15:58:33.533Z</time></trkpt><trkpt lat="44.5506516" lon="10.6701688"><ele>157.0</ele><time>2026-03-28T15:58:34.52Z</time></trkpt><trkpt lat="44.5505059" lon="10.6704601"><ele>157.0</ele><time>2026-03-28T15:58:35.52Z</time></trkpt><trkpt lat="44.5503619" lon="10.6707405"><ele>157.0</ele><time>2026-03-28T15:58:36.511Z</time></trkpt><trkpt lat="44.5502382" lon="10.6710067"><ele>157.0</ele><time>2026-03-28T15:58:37.514Z</time></trkpt><trkpt lat="44.5501231" lon="10.671264"><ele>157.0</ele><time>2026-03-28T15:58:38.516Z</time></trkpt><trkpt lat="44.5500188" lon="10.6715063"><ele>157.0</ele><time>2026-03-28T15:58:39.524Z</time></trkpt><trkpt lat="44.5499146" lon="10.6717489"><ele>157.0</ele><time>2026-03-28T15:58:40.523Z</time></trkpt><trkpt lat="44.5498015" lon="10.672001"><ele>157.0</ele><time>2026-03-28T15:58:41.521Z</time></trkpt><trkpt lat="44.5496968" lon="10.6722607"><ele>157.0</ele><time>2026-03-28T15:58:42.53Z</time></trkpt><trkpt lat="44.5495551" lon="10.6725102"><ele>157.0</ele><time>2026-03-28T15:58:43.519Z</time></trkpt><trkpt lat="44.549388" lon="10.67276"><ele>156.0</ele><time>2026-03-28T15:58:44.529Z</time></trkpt><trkpt lat="44.5492146" lon="10.6730165"><ele>155.0</ele><time>2026-03-28T15:58:45.517Z</time></trkpt><trkpt lat="44.5490367" lon="10.6732932"><ele>155.0</ele><time>2026-03-28T15:58:46.521Z</time></trkpt><trkpt lat="44.5488615" lon="10.6735701"><ele>155.0</ele><time>2026-03-28T15:58:47.529Z</time></trkpt><trkpt lat="44.5486798" lon="10.6738559"><ele>155.0</ele><time>2026-03-28T15:58:48.524Z</time></trkpt><trkpt lat="44.548486" lon="10.6741415"><ele>155.0</ele><time>2026-03-28T15:58:49.531Z</time></trkpt><trkpt lat="44.5482933" lon="10.6744206"><ele>155.5</ele><time>2026-03-28T15:58:50.53Z</time></trkpt><trkpt lat="44.5481033" lon="10.674703"><ele>156.0</ele><time>2026-03-28T15:58:51.529Z</time></trkpt><trkpt lat="44.5479107" lon="10.6749872"><ele>155.5</ele><time>2026-03-28T15:58:52.522Z</time></trkpt><trkpt lat="44.5477349" lon="10.675262"><ele>155.0</ele><time>2026-03-28T15:58:53.529Z</time></trkpt><trkpt lat="44.5475504" lon="10.6755406"><ele>154.5</ele><time>2026-03-28T15:58:54.529Z</time></trkpt><trkpt lat="44.5473727" lon="10.6758041"><ele>154.0</ele><time>2026-03-28T15:58:55.524Z</time></trkpt><trkpt lat="44.547199" lon="10.6760726"><ele>157.0</ele><time>2026-03-28T15:58:56.526Z</time></trkpt><trkpt lat="44.5470202" lon="10.6763162"><ele>160.0</ele><time>2026-03-28T15:58:57.519Z</time></trkpt><trkpt lat="44.5468563" lon="10.6765482"><ele>160.0</ele><time>2026-03-28T15:58:58.522Z</time></trkpt><trkpt lat="44.5467255" lon="10.6767682"><ele>160.0</ele><time>2026-03-28T15:58:59.518Z</time></trkpt><trkpt lat="44.5466015" lon="10.6769784"><ele>160.0</ele><time>2026-03-28T15:59:00.527Z</time></trkpt><trkpt lat="44.5464639" lon="10.6771558"><ele>160.66666666666669</ele><time>2026-03-28T15:59:01.516Z</time></trkpt><trkpt lat="44.5462735" lon="10.6772913"><ele>161.33333333333334</ele><time>2026-03-28T15:59:02.514Z</time></trkpt><trkpt lat="44.5460796" lon="10.677381"><ele>162.0</ele><time>2026-03-28T15:59:03.528Z</time></trkpt><trkpt lat="44.5458839" lon="10.6774833"><ele>163.0</ele><time>2026-03-28T15:59:04.528Z</time></trkpt><trkpt lat="44.5457011" lon="10.6776005"><ele>164.0</ele><time>2026-03-28T15:59:05.525Z</time></trkpt><trkpt lat="44.5455158" lon="10.677756"><ele>165.0</ele><time>2026-03-28T15:59:06.534Z</time></trkpt><trkpt lat="44.5453151" lon="10.6779025"><ele>165.66666666666666</ele><time>2026-03-28T15:59:07.526Z</time></trkpt><trkpt lat="44.5451178" lon="10.6780316"><ele>166.33333333333331</ele><time>2026-03-28T15:59:08.528Z</time></trkpt><trkpt lat="44.5449277" lon="10.6781216"><ele>167.0</ele><time>2026-03-28T15:59:09.534Z</time></trkpt><trkpt lat="44.5447407" lon="10.6782107"><ele>167.0</ele><time>2026-03-28T15:59:10.528Z</time></trkpt><trkpt lat="44.5445705" lon="10.6782959"><ele>167.0</ele><time>2026-03-28T15:59:11.532Z</time></trkpt><trkpt lat="44.5444583" lon="10.6784296"><ele>167.0</ele><time>2026-03-28T15:59:12.525Z</time></trkpt><trkpt lat="44.5443512" lon="10.6785734"><ele>169.0</ele><time>2026-03-28T15:59:13.525Z</time></trkpt><trkpt lat="44.5442445" lon="10.6787605"><ele>171.0</ele><time>2026-03-28T15:59:14.521Z</time></trkpt><trkpt lat="44.5441652" lon="10.6789647"><ele>173.0</ele><time>2026-03-28T15:59:15.531Z</time></trkpt><trkpt lat="44.54412" lon="10.6791729"><ele>173.0</ele><time>2026-03-28T15:59:16.53Z</time></trkpt><trkpt lat="44.5441006" lon="10.6793325"><ele>173.0</ele><time>2026-03-28T15:59:17.525Z</time></trkpt><trkpt lat="44.5440688" lon="10.6794745"><ele>173.0</ele><time>2026-03-28T15:59:18.518Z</time></trkpt><trkpt lat="44.5440126" lon="10.6795757"><ele>173.0</ele><time>2026-03-28T15:59:19.518Z</time></trkpt><trkpt lat="44.5439367" lon="10.6796584"><ele>173.0</ele><time>2026-03-28T15:59:20.525Z</time></trkpt><trkpt lat="44.5438809" lon="10.679745"><ele>172.4</ele><time>2026-03-28T15:59:21.525Z</time></trkpt><trkpt lat="44.5438086" lon="10.6798313"><ele>171.8</ele><time>2026-03-28T15:59:22.539Z</time></trkpt><trkpt lat="44.5437449" lon="10.6799333"><ele>171.2</ele><time>2026-03-28T15:59:23.529Z</time></trkpt><trkpt lat="44.5436794" lon="10.6800193"><ele>170.6</ele><time>2026-03-28T15:59:24.535Z</time></trkpt><trkpt lat="44.5435969" lon="10.6801023"><ele>170.0</ele><time>2026-03-28T15:59:25.522Z</time></trkpt><trkpt lat="44.5435119" lon="10.6801714"><ele>170.83333333333331</ele><time>2026-03-28T15:59:26.531Z</time></trkpt><trkpt lat="44.54344" lon="10.6802158"><ele>171.66666666666666</ele><time>2026-03-28T15:59:27.523Z</time></trkpt><trkpt lat="44.5433782" lon="10.6802378"><ele>172.5</ele><time>2026-03-28T15:59:28.515Z</time></trkpt><trkpt lat="44.5433138" lon="10.6802665"><ele>173.33333333333334</ele><time>2026-03-28T16:00:46.535Z</time></trkpt><trkpt lat="44.5432257" lon="10.6803148"><ele>174.16666666666669</ele><time>2026-03-28T16:00:49.533Z</time></trkpt><trkpt lat="44.5431547" lon="10.6803038"><ele>175.0</ele><time>2026-03-28T16:00:53.532Z</time></trkpt><trkpt lat="44.5430771" lon="10.6803695"><ele>175.0</ele><time>2026-03-28T16:00:56.537Z</time></trkpt><trkpt lat="44.5430099" lon="10.6804003"><ele>175.0</ele><time>2026-03-28T16:00:57.537Z</time></trkpt><trkpt lat="44.5429305" lon="10.6804229"><ele>175.0</ele><time>2026-03-28T16:00:58.55Z</time></trkpt><trkpt lat="44.5428316" lon="10.6804323"><ele>175.0</ele><time>2026-03-28T16:00:59.542Z</time></trkpt><trkpt lat="44.5427316" lon="10.6804533"><ele>175.0</ele><time>2026-03-28T16:01:00.55Z</time></trkpt><trkpt lat="44.5426251" lon="10.6804669"><ele>177.25</ele><time>2026-03-28T16:01:01.547Z</time></trkpt><trkpt lat="44.5425096" lon="10.6804743"><ele>179.5</ele><time>2026-03-28T16:01:02.556Z</time></trkpt><trkpt lat="44.5423848" lon="10.6804922"><ele>181.75</ele><time>2026-03-28T16:01:03.556Z</time></trkpt><trkpt lat="44.5422682" lon="10.6804999"><ele>184.0</ele><time>2026-03-28T16:01:04.548Z</time></trkpt><trkpt lat="44.5421444" lon="10.6805139"><ele>185.5</ele><time>2026-03-28T16:01:05.538Z</time></trkpt><trkpt lat="44.5420269" lon="10.6805209"><ele>187.0</ele><time>2026-03-28T16:01:06.533Z</time></trkpt><trkpt lat="44.5419067" lon="10.6805195"><ele>188.5</ele><time>2026-03-28T16:01:07.533Z</time></trkpt><trkpt lat="44.541788" lon="10.6805304"><ele>190.0</ele><time>2026-03-28T16:01:08.53Z</time></trkpt><trkpt lat="44.5416822" lon="10.6805308"><ele>190.0</ele><time>2026-03-28T16:01:09.533Z</time></trkpt><trkpt lat="44.5415843" lon="10.6805232"><ele>190.0</ele><time>2026-03-28T16:01:10.531Z</time></trkpt><trkpt lat="44.5414938" lon="10.6805094"><ele>190.0</ele><time>2026-03-28T16:01:11.529Z</time></trkpt><trkpt lat="44.541419" lon="10.6804647"><ele>190.0</ele><time>2026-03-28T16:01:12.532Z</time></trkpt><trkpt lat="44.5413388" lon="10.6804119"><ele>190.0</ele><time>2026-03-28T16:01:13.522Z</time></trkpt><trkpt lat="44.541247" lon="10.6803462"><ele>191.25</ele><time>2026-03-28T16:01:14.527Z</time></trkpt><trkpt lat="44.5411574" lon="10.6802574"><ele>192.5</ele><time>2026-03-28T16:01:15.528Z</time></trkpt><trkpt lat="44.5410647" lon="10.680152"><ele>193.75</ele><time>2026-03-28T16:01:16.533Z</time></trkpt><trkpt lat="44.5409622" lon="10.6800603"><ele>195.0</ele><time>2026-03-28T16:01:17.523Z</time></trkpt><trkpt lat="44.540869" lon="10.6800011"><ele>195.0</ele><time>2026-03-28T16:01:18.533Z</time></trkpt><trkpt lat="44.540762" lon="10.6799562"><ele>195.0</ele><time>2026-03-28T16:01:19.542Z</time></trkpt><trkpt lat="44.5406466" lon="10.6799183"><ele>195.0</ele><time>2026-03-28T16:01:20.537Z</time></trkpt><trkpt lat="44.5405237" lon="10.6798932"><ele>195.0</ele><time>2026-03-28T16:01:21.535Z</time></trkpt><trkpt lat="44.5403969" lon="10.679869"><ele>195.75</ele><time>2026-03-28T16:01:22.529Z</time></trkpt><trkpt lat="44.5402693" lon="10.6798504"><ele>196.5</ele><time>2026-03-28T16:01:23.54Z</time></trkpt><trkpt lat="44.5401453" lon="10.6798174"><ele>197.25</ele><time>2026-03-28T16:01:24.537Z</time></trkpt><trkpt lat="44.5400285" lon="10.6797609"><ele>198.0</ele><time>2026-03-28T16:01:25.533Z</time></trkpt><trkpt lat="44.5399173" lon="10.6796923"><ele>198.0</ele><time>2026-03-28T16:01:26.54Z</time></trkpt><trkpt lat="44.5397921" lon="10.6796285"><ele>198.0</ele><time>2026-03-28T16:01:27.535Z</time></trkpt><trkpt lat="44.5396733" lon="10.6795736"><ele>198.0</ele><time>2026-03-28T16:01:28.542Z</time></trkpt><trkpt lat="44.5395508" lon="10.6795366"><ele>198.0</ele><time>2026-03-28T16:01:29.53Z</time></trkpt><trkpt lat="44.5394295" lon="10.6795029"><ele>198.75</ele><time>2026-03-28T16:01:30.534Z</time></trkpt><trkpt lat="44.5393213" lon="10.6794522"><ele>199.5</ele><time>2026-03-28T16:01:31.547Z</time></trkpt><trkpt lat="44.5392003" lon="10.6794122"><ele>200.25</ele><time>2026-03-28T16:01:32.533Z</time></trkpt><trkpt lat="44.5390722" lon="10.6793755"><ele>201.0</ele><time>2026-03-28T16:01:33.54Z</time></trkpt><trkpt lat="44.5389582" lon="10.679346"><ele>201.0</ele><time>2026-03-28T16:01:34.528Z</time></trkpt><trkpt lat="44.5388589" lon="10.6793231"><ele>201.0</ele><time>2026-03-28T16:01:35.527Z</time></trkpt><trkpt lat="44.5387736" lon="10.6793034"><ele>201.0</ele><time>2026-03-28T16:01:36.521Z</time></trkpt><trkpt lat="44.5387014" lon="10.679307"><ele>201.0</ele><time>2026-03-28T16:01:37.512Z</time></trkpt><trkpt lat="44.5386429" lon="10.679348"><ele>201.0</ele><time>2026-03-28T16:01:38.528Z</time></trkpt><trkpt lat="44.5386102" lon="10.6794425"><ele>201.0</ele><time>2026-03-28T16:01:39.514Z</time></trkpt><trkpt lat="44.5385819" lon="10.6795889"><ele>201.0</ele><time>2026-03-28T16:01:40.518Z</time></trkpt><trkpt lat="44.5385512" lon="10.6797396"><ele>201.0</ele><time>2026-03-28T16:01:41.516Z</time></trkpt><trkpt lat="44.5385131" lon="10.6798693"><ele>201.0</ele><time>2026-03-28T16:01:42.515Z</time></trkpt><trkpt lat="44.5384274" lon="10.6799892"><ele>201.0</ele><time>2026-03-28T16:01:43.511Z</time></trkpt><trkpt lat="44.538281" lon="10.6801121"><ele>201.0</ele><time>2026-03-28T16:01:44.511Z</time></trkpt><trkpt lat="44.5381308" lon="10.6802594"><ele>201.0</ele><time>2026-03-28T16:01:45.518Z</time></trkpt><trkpt lat="44.5379724" lon="10.680385"><ele>201.0</ele><time>2026-03-28T16:01:46.517Z</time></trkpt><trkpt lat="44.5378204" lon="10.680474"><ele>198.33333333333331</ele><time>2026-03-28T16:01:47.528Z</time></trkpt><trkpt lat="44.5377052" lon="10.6806004"><ele>195.66666666666666</ele><time>2026-03-28T16:01:48.528Z</time></trkpt><trkpt lat="44.5375683" lon="10.6807353"><ele>193.0</ele><time>2026-03-28T16:01:49.524Z</time></trkpt><trkpt lat="44.5374051" lon="10.6808453"><ele>193.0</ele><time>2026-03-28T16:01:50.521Z</time></trkpt><trkpt lat="44.5372342" lon="10.6809634"><ele>193.0</ele><time>2026-03-28T16:01:51.523Z</time></trkpt><trkpt lat="44.537074" lon="10.6810896"><ele>193.0</ele><time>2026-03-28T16:01:52.528Z</time></trkpt><trkpt lat="44.5368959" lon="10.6812061"><ele>191.0</ele><time>2026-03-28T16:01:53.529Z</time></trkpt><trkpt lat="44.536727" lon="10.6813111"><ele>189.0</ele><time>2026-03-28T16:01:54.527Z</time></trkpt><trkpt lat="44.5365298" lon="10.6813978"><ele>187.0</ele><time>2026-03-28T16:01:55.527Z</time></trkpt><trkpt lat="44.5363674" lon="10.6814867"><ele>189.25</ele><time>2026-03-28T16:01:56.525Z</time></trkpt><trkpt lat="44.5362022" lon="10.6815328"><ele>191.5</ele><time>2026-03-28T16:01:57.524Z</time></trkpt><trkpt lat="44.536072" lon="10.6815903"><ele>193.75</ele><time>2026-03-28T16:01:58.522Z</time></trkpt><trkpt lat="44.5359575" lon="10.6816839"><ele>196.0</ele><time>2026-03-28T16:01:59.519Z</time></trkpt><trkpt lat="44.5358338" lon="10.6818013"><ele>196.0</ele><time>2026-03-28T16:02:00.53Z</time></trkpt><trkpt lat="44.5356938" lon="10.6819241"><ele>196.0</ele><time>2026-03-28T16:02:01.524Z</time></trkpt><trkpt lat="44.5355433" lon="10.6820734"><ele>196.0</ele><time>2026-03-28T16:02:02.518Z</time></trkpt><trkpt lat="44.5354128" lon="10.6822345"><ele>193.66666666666666</ele><time>2026-03-28T16:02:03.532Z</time></trkpt><trkpt lat="44.5352709" lon="10.6823729"><ele>191.33333333333331</ele><time>2026-03-28T16:02:04.529Z</time></trkpt><trkpt lat="44.53511" lon="10.6824607"><ele>189.0</ele><time>2026-03-28T16:02:05.517Z</time></trkpt><trkpt lat="44.5349454" lon="10.6825511"><ele>189.0</ele><time>2026-03-28T16:02:06.525Z</time></trkpt><trkpt lat="44.5347707" lon="10.6826685"><ele>189.0</ele><time>2026-03-28T16:02:07.529Z</time></trkpt><trkpt lat="44.5345897" lon="10.6828129"><ele>189.0</ele><time>2026-03-28T16:02:08.53Z</time></trkpt><trkpt lat="44.5344251" lon="10.6829641"><ele>190.33333333333331</ele><time>2026-03-28T16:02:09.538Z</time></trkpt><trkpt lat="44.5342598" lon="10.6831014"><ele>191.66666666666666</ele><time>2026-03-28T16:02:10.533Z</time></trkpt><trkpt lat="44.534111" lon="10.68323"><ele>193.0</ele><time>2026-03-28T16:02:11.528Z</time></trkpt><trkpt lat="44.5339308" lon="10.6833758"><ele>193.0</ele><time>2026-03-28T16:02:12.523Z</time></trkpt><trkpt lat="44.5337505" lon="10.683505"><ele>193.0</ele><time>2026-03-28T16:02:13.521Z</time></trkpt><trkpt lat="44.5335412" lon="10.6836447"><ele>193.0</ele><time>2026-03-28T16:02:14.526Z</time></trkpt><trkpt lat="44.5333422" lon="10.6837668"><ele>193.33333333333331</ele><time>2026-03-28T16:02:15.517Z</time></trkpt><trkpt lat="44.5331686" lon="10.6838905"><ele>193.66666666666669</ele><time>2026-03-28T16:02:16.52Z</time></trkpt><trkpt lat="44.5330098" lon="10.6839873"><ele>194.0</ele><time>2026-03-28T16:02:17.519Z</time></trkpt><trkpt lat="44.532849" lon="10.6840874"><ele>194.0</ele><time>2026-03-28T16:02:18.519Z</time></trkpt><trkpt lat="44.5327243" lon="10.6842062"><ele>194.0</ele><time>2026-03-28T16:02:19.512Z</time></trkpt><trkpt lat="44.53262" lon="10.684347"><ele>194.0</ele><time>2026-03-28T16:02:20.514Z</time></trkpt><trkpt lat="44.5325192" lon="10.6844849"><ele>194.0</ele><time>2026-03-28T16:02:21.527Z</time></trkpt><trkpt lat="44.5323925" lon="10.6845988"><ele>191.66666666666669</ele><time>2026-03-28T16:02:22.518Z</time></trkpt><trkpt lat="44.5322388" lon="10.6846969"><ele>189.33333333333334</ele><time>2026-03-28T16:02:23.518Z</time></trkpt><trkpt lat="44.5320811" lon="10.6847821"><ele>187.0</ele><time>2026-03-28T16:02:24.517Z</time></trkpt><trkpt lat="44.5318994" lon="10.6848356"><ele>187.0</ele><time>2026-03-28T16:02:25.528Z</time></trkpt><trkpt lat="44.5317349" lon="10.6848989"><ele>187.0</ele><time>2026-03-28T16:02:26.519Z</time></trkpt><trkpt lat="44.5316174" lon="10.6849648"><ele>187.0</ele><time>2026-03-28T16:02:27.521Z</time></trkpt><trkpt lat="44.5315305" lon="10.6850716"><ele>187.0</ele><time>2026-03-28T16:02:28.529Z</time></trkpt><trkpt lat="44.5314695" lon="10.6852507"><ele>186.75</ele><time>2026-03-28T16:02:29.519Z</time></trkpt><trkpt lat="44.5314101" lon="10.6854605"><ele>186.5</ele><time>2026-03-28T16:02:30.53Z</time></trkpt><trkpt lat="44.5313359" lon="10.6856293"><ele>186.25</ele><time>2026-03-28T16:02:31.532Z</time></trkpt><trkpt lat="44.5312536" lon="10.6857719"><ele>186.0</ele><time>2026-03-28T16:02:32.515Z</time></trkpt><trkpt lat="44.5311284" lon="10.6858781"><ele>187.0</ele><time>2026-03-28T16:02:33.53Z</time></trkpt><trkpt lat="44.5310033" lon="10.6859685"><ele>188.0</ele><time>2026-03-28T16:02:34.521Z</time></trkpt><trkpt lat="44.5308739" lon="10.6860267"><ele>189.0</ele><time>2026-03-28T16:02:35.524Z</time></trkpt><trkpt lat="44.5307139" lon="10.686097"><ele>190.0</ele><time>2026-03-28T16:02:36.523Z</time></trkpt><trkpt lat="44.5305635" lon="10.6861726"><ele>192.66666666666669</ele><time>2026-03-28T16:02:37.526Z</time></trkpt><trkpt lat="44.5303938" lon="10.6862453"><ele>195.33333333333334</ele><time>2026-03-28T16:02:38.525Z</time></trkpt><trkpt lat="44.5302232" lon="10.6863027"><ele>198.0</ele><time>2026-03-28T16:02:39.525Z</time></trkpt><trkpt lat="44.5300649" lon="10.6863337"><ele>200.5</ele><time>2026-03-28T16:02:40.525Z</time></trkpt><trkpt lat="44.5299566" lon="10.6863349"><ele>203.0</ele><time>2026-03-28T16:02:41.512Z</time></trkpt><trkpt lat="44.5298529" lon="10.6863756"><ele>205.5</ele><time>2026-03-28T16:02:42.522Z</time></trkpt><trkpt lat="44.5297394" lon="10.6864549"><ele>208.0</ele><time>2026-03-28T16:02:43.521Z</time></trkpt><trkpt lat="44.529642" lon="10.6866101"><ele>209.0</ele><time>2026-03-28T16:02:44.516Z</time></trkpt><trkpt lat="44.5295497" lon="10.6867962"><ele>210.0</ele><time>2026-03-28T16:02:45.515Z</time></trkpt><trkpt lat="44.5294756" lon="10.6869687"><ele>211.0</ele><time>2026-03-28T16:02:46.503Z</time></trkpt><trkpt lat="44.5293447" lon="10.6871224"><ele>214.0</ele><time>2026-03-28T16:02:47.518Z</time></trkpt><trkpt lat="44.5292394" lon="10.6872394"><ele>217.0</ele><time>2026-03-28T16:02:48.512Z</time></trkpt><trkpt lat="44.5291319" lon="10.687357"><ele>220.0</ele><time>2026-03-28T16:02:49.512Z</time></trkpt><trkpt lat="44.529037" lon="10.687489"><ele>223.0</ele><time>2026-03-28T16:02:50.508Z</time></trkpt><trkpt lat="44.5289315" lon="10.6876326"><ele>223.0</ele><time>2026-03-28T16:02:51.517Z</time></trkpt><trkpt lat="44.528848" lon="10.6878338"><ele>223.0</ele><time>2026-03-28T16:02:52.519Z</time></trkpt><trkpt lat="44.5287609" lon="10.6879964"><ele>223.0</ele><time>2026-03-28T16:02:53.519Z</time></trkpt><trkpt lat="44.5286635" lon="10.6881471"><ele>225.75</ele><time>2026-03-28T16:02:54.517Z</time></trkpt><trkpt lat="44.5285522" lon="10.6882735"><ele>228.5</ele><time>2026-03-28T16:02:55.521Z</time></trkpt><trkpt lat="44.5284197" lon="10.6884133"><ele>231.25</ele><time>2026-03-28T16:02:56.521Z</time></trkpt><trkpt lat="44.5282988" lon="10.6885061"><ele>234.0</ele><time>2026-03-28T16:02:57.519Z</time></trkpt><trkpt lat="44.5281653" lon="10.6885695"><ele>234.0</ele><time>2026-03-28T16:02:58.523Z</time></trkpt><trkpt lat="44.5280444" lon="10.6886024"><ele>234.0</ele><time>2026-03-28T16:02:59.509Z</time></trkpt><trkpt lat="44.5279041" lon="10.6885912"><ele>234.0</ele><time>2026-03-28T16:03:00.525Z</time></trkpt><trkpt lat="44.5277685" lon="10.688594"><ele>234.0</ele><time>2026-03-28T16:03:01.519Z</time></trkpt><trkpt lat="44.5276571" lon="10.6886533"><ele>237.0</ele><time>2026-03-28T16:03:02.516Z</time></trkpt><trkpt lat="44.5275569" lon="10.688749"><ele>239.99999999999997</ele><time>2026-03-28T16:03:03.515Z</time></trkpt><trkpt lat="44.5274741" lon="10.6888742"><ele>242.99999999999997</ele><time>2026-03-28T16:03:04.513Z</time></trkpt><trkpt lat="44.5273973" lon="10.6889813"><ele>246.0</ele><time>2026-03-28T16:03:05.513Z</time></trkpt><trkpt lat="44.5273257" lon="10.689072"><ele>249.0</ele><time>2026-03-28T16:03:06.512Z</time></trkpt><trkpt lat="44.5272795" lon="10.6891721"><ele>249.0</ele><time>2026-03-28T16:03:07.524Z</time></trkpt><trkpt lat="44.5272688" lon="10.6892969"><ele>248.99999999999997</ele><time>2026-03-28T16:03:08.514Z</time></trkpt><trkpt lat="44.5272763" lon="10.6894305"><ele>248.99999999999997</ele><time>2026-03-28T16:03:09.516Z</time></trkpt><trkpt lat="44.5273014" lon="10.6895641"><ele>249.0</ele><time>2026-03-28T16:03:10.512Z</time></trkpt><trkpt lat="44.5273336" lon="10.6897129"><ele>249.0</ele><time>2026-03-28T16:03:11.519Z</time></trkpt><trkpt lat="44.5273699" lon="10.6898714"><ele>249.75</ele><time>2026-03-28T16:03:12.516Z</time></trkpt><trkpt lat="44.5273957" lon="10.6900501"><ele>250.5</ele><time>2026-03-28T16:03:13.513Z</time></trkpt><trkpt lat="44.5274144" lon="10.6902308"><ele>251.25</ele><time>2026-03-28T16:03:14.523Z</time></trkpt><trkpt lat="44.5274452" lon="10.6904071"><ele>252.0</ele><time>2026-03-28T16:03:15.523Z</time></trkpt><trkpt lat="44.527485" lon="10.690571"><ele>252.0</ele><time>2026-03-28T16:03:16.521Z</time></trkpt><trkpt lat="44.527511" lon="10.6907352"><ele>252.0</ele><time>2026-03-28T16:03:17.513Z</time></trkpt><trkpt lat="44.5274994" lon="10.6909085"><ele>252.0</ele><time>2026-03-28T16:03:18.53Z</time></trkpt><trkpt lat="44.5274447" lon="10.6910833"><ele>252.0</ele><time>2026-03-28T16:03:19.516Z</time></trkpt><trkpt lat="44.5273724" lon="10.6912358"><ele>251.66666666666669</ele><time>2026-03-28T16:03:20.528Z</time></trkpt><trkpt lat="44.5272537" lon="10.6913582"><ele>251.33333333333334</ele><time>2026-03-28T16:03:21.527Z</time></trkpt><trkpt lat="44.5270956" lon="10.6914322"><ele>251.0</ele><time>2026-03-28T16:03:22.513Z</time></trkpt><trkpt lat="44.5269156" lon="10.6914878"><ele>253.25</ele><time>2026-03-28T16:03:23.522Z</time></trkpt><trkpt lat="44.5267785" lon="10.69158"><ele>255.5</ele><time>2026-03-28T16:03:24.518Z</time></trkpt><trkpt lat="44.5266812" lon="10.6917247"><ele>257.75</ele><time>2026-03-28T16:03:25.529Z</time></trkpt><trkpt lat="44.5265972" lon="10.69189"><ele>260.0</ele><time>2026-03-28T16:03:26.519Z</time></trkpt><trkpt lat="44.526526" lon="10.6920865"><ele>262.0</ele><time>2026-03-28T16:03:27.519Z</time></trkpt><trkpt lat="44.5264598" lon="10.6923052"><ele>264.0</ele><time>2026-03-28T16:03:28.522Z</time></trkpt><trkpt lat="44.5263896" lon="10.6925333"><ele>266.0</ele><time>2026-03-28T16:03:29.523Z</time></trkpt><trkpt lat="44.5263002" lon="10.6927791"><ele>265.0</ele><time>2026-03-28T16:03:30.522Z</time></trkpt><trkpt lat="44.5262033" lon="10.6929915"><ele>264.0</ele><time>2026-03-28T16:03:31.521Z</time></trkpt><trkpt lat="44.5260855" lon="10.6931664"><ele>263.0</ele><time>2026-03-28T16:03:32.514Z</time></trkpt><trkpt lat="44.5259533" lon="10.6933639"><ele>263.0</ele><time>2026-03-28T16:03:33.533Z</time></trkpt><trkpt lat="44.5257933" lon="10.6935734"><ele>263.0</ele><time>2026-03-28T16:03:34.52Z</time></trkpt><trkpt lat="44.5256553" lon="10.693798"><ele>263.0</ele><time>2026-03-28T16:03:35.522Z</time></trkpt><trkpt lat="44.5255196" lon="10.6940593"><ele>264.5</ele><time>2026-03-28T16:03:36.515Z</time></trkpt><trkpt lat="44.5253955" lon="10.6943541"><ele>266.0</ele><time>2026-03-28T16:03:37.527Z</time></trkpt><trkpt lat="44.5252707" lon="10.6946185"><ele>266.0</ele><time>2026-03-28T16:03:38.521Z</time></trkpt><trkpt lat="44.5251742" lon="10.6948848"><ele>266.0</ele><time>2026-03-28T16:03:39.516Z</time></trkpt><trkpt lat="44.5250925" lon="10.6951294"><ele>266.0</ele><time>2026-03-28T16:03:40.52Z</time></trkpt><trkpt lat="44.5250168" lon="10.6953294"><ele>266.33333333333337</ele><time>2026-03-28T16:03:41.524Z</time></trkpt><trkpt lat="44.5249402" lon="10.695527"><ele>266.6666666666667</ele><time>2026-03-28T16:03:42.516Z</time></trkpt><trkpt lat="44.5248364" lon="10.6957511"><ele>267.0</ele><time>2026-03-28T16:03:43.523Z</time></trkpt><trkpt lat="44.5247261" lon="10.6959731"><ele>267.25</ele><time>2026-03-28T16:03:44.521Z</time></trkpt><trkpt lat="44.524622" lon="10.6961628"><ele>267.5</ele><time>2026-03-28T16:03:45.524Z</time></trkpt><trkpt lat="44.5245284" lon="10.6963104"><ele>267.75</ele><time>2026-03-28T16:03:46.529Z</time></trkpt><trkpt lat="44.5244266" lon="10.6964264"><ele>268.0</ele><time>2026-03-28T16:03:47.515Z</time></trkpt><trkpt lat="44.5243736" lon="10.696544"><ele>269.5</ele><time>2026-03-28T16:03:48.523Z</time></trkpt><trkpt lat="44.5243789" lon="10.6967073"><ele>271.0</ele><time>2026-03-28T16:03:49.528Z</time></trkpt><trkpt lat="44.5244539" lon="10.6968452"><ele>272.5</ele><time>2026-03-28T16:03:50.527Z</time></trkpt><trkpt lat="44.5245249" lon="10.6969897"><ele>274.0</ele><time>2026-03-28T16:03:51.52Z</time></trkpt><trkpt lat="44.5245917" lon="10.6971707"><ele>274.0</ele><time>2026-03-28T16:03:52.521Z</time></trkpt><trkpt lat="44.524657" lon="10.6973794"><ele>274.0</ele><time>2026-03-28T16:03:53.527Z</time></trkpt><trkpt lat="44.524704" lon="10.6976107"><ele>274.0</ele><time>2026-03-28T16:03:54.516Z</time></trkpt><trkpt lat="44.5247452" lon="10.6978589"><ele>275.66666666666663</ele><time>2026-03-28T16:03:55.522Z</time></trkpt><trkpt lat="44.524784" lon="10.6981246"><ele>277.3333333333333</ele><time>2026-03-28T16:03:56.521Z</time></trkpt><trkpt lat="44.5248264" lon="10.6983988"><ele>279.0</ele><time>2026-03-28T16:03:57.522Z</time></trkpt><trkpt lat="44.5248849" lon="10.6986453"><ele>280.6666666666667</ele><time>2026-03-28T16:03:58.521Z</time></trkpt><trkpt lat="44.5249384" lon="10.6988772"><ele>282.33333333333337</ele><time>2026-03-28T16:03:59.527Z</time></trkpt><trkpt lat="44.5249693" lon="10.6990922"><ele>284.0</ele><time>2026-03-28T16:04:00.526Z</time></trkpt><trkpt lat="44.5250126" lon="10.6992896"><ele>286.0</ele><time>2026-03-28T16:04:01.529Z</time></trkpt><trkpt lat="44.5250765" lon="10.6994805"><ele>288.0</ele><time>2026-03-28T16:04:02.522Z</time></trkpt><trkpt lat="44.5251276" lon="10.6996625"><ele>290.0</ele><time>2026-03-28T16:04:03.53Z</time></trkpt><trkpt lat="44.5251681" lon="10.6998198"><ele>292.0</ele><time>2026-03-28T16:04:04.521Z</time></trkpt><trkpt lat="44.5251862" lon="10.6999595"><ele>292.0</ele><time>2026-03-28T16:04:05.524Z</time></trkpt><trkpt lat="44.5251689" lon="10.7001079"><ele>292.0</ele><time>2026-03-28T16:04:06.524Z</time></trkpt><trkpt lat="44.5251063" lon="10.7002797"><ele>292.0</ele><time>2026-03-28T16:04:07.529Z</time></trkpt><trkpt lat="44.5250111" lon="10.7004552"><ele>292.0</ele><time>2026-03-28T16:04:08.526Z</time></trkpt><trkpt lat="44.524947" lon="10.7006284"><ele>294.0</ele><time>2026-03-28T16:04:09.524Z</time></trkpt><trkpt lat="44.5248918" lon="10.7007666"><ele>296.0</ele><time>2026-03-28T16:04:10.526Z</time></trkpt><trkpt lat="44.5248582" lon="10.7008879"><ele>298.0</ele><time>2026-03-28T16:04:11.521Z</time></trkpt><trkpt lat="44.5248217" lon="10.7009904"><ele>300.0</ele><time>2026-03-28T16:04:12.527Z</time></trkpt><trkpt lat="44.5248121" lon="10.7011136"><ele>302.0</ele><time>2026-03-28T16:04:14.515Z</time></trkpt><trkpt lat="44.5248953" lon="10.7012587"><ele>302.5</ele><time>2026-03-28T16:04:16.511Z</time></trkpt><trkpt lat="44.524978" lon="10.7013504"><ele>303.0</ele><time>2026-03-28T16:04:17.532Z</time></trkpt><trkpt lat="44.525082" lon="10.7014566"><ele>303.5</ele><time>2026-03-28T16:04:18.515Z</time></trkpt><trkpt lat="44.5251967" lon="10.7015528"><ele>304.0</ele><time>2026-03-28T16:04:19.525Z</time></trkpt><trkpt lat="44.5253116" lon="10.7016466"><ele>304.25</ele><time>2026-03-28T16:04:20.522Z</time></trkpt><trkpt lat="44.5254301" lon="10.7017556"><ele>304.5</ele><time>2026-03-28T16:04:21.521Z</time></trkpt><trkpt lat="44.525555" lon="10.7018625"><ele>304.75</ele><time>2026-03-28T16:04:22.519Z</time></trkpt><trkpt lat="44.5256804" lon="10.7019684"><ele>305.0</ele><time>2026-03-28T16:04:23.527Z</time></trkpt><trkpt lat="44.525794" lon="10.7020923"><ele>304.0</ele><time>2026-03-28T16:04:24.529Z</time></trkpt><trkpt lat="44.5258827" lon="10.70226"><ele>303.0</ele><time>2026-03-28T16:04:25.527Z</time></trkpt><trkpt lat="44.5259983" lon="10.7024246"><ele>302.0</ele><time>2026-03-28T16:04:26.528Z</time></trkpt><trkpt lat="44.5261015" lon="10.702572"><ele>302.0</ele><time>2026-03-28T16:04:27.525Z</time></trkpt><trkpt lat="44.5261786" lon="10.7027208"><ele>302.0</ele><time>2026-03-28T16:04:28.527Z</time></trkpt><trkpt lat="44.5262675" lon="10.702868"><ele>302.0</ele><time>2026-03-28T16:04:29.523Z</time></trkpt><trkpt lat="44.5263654" lon="10.7030138"><ele>302.0</ele><time>2026-03-28T16:04:30.525Z</time></trkpt><trkpt lat="44.5264516" lon="10.7031181"><ele>303.5</ele><time>2026-03-28T16:04:31.527Z</time></trkpt><trkpt lat="44.5264847" lon="10.7032573"><ele>305.0</ele><time>2026-03-28T16:04:32.52Z</time></trkpt><trkpt lat="44.5264781" lon="10.7033997"><ele>306.5</ele><time>2026-03-28T16:04:33.525Z</time></trkpt><trkpt lat="44.5264379" lon="10.7035626"><ele>308.0</ele><time>2026-03-28T16:04:34.519Z</time></trkpt><trkpt lat="44.526367" lon="10.7037271"><ele>309.0</ele><time>2026-03-28T16:04:35.52Z</time></trkpt><trkpt lat="44.5262961" lon="10.7038988"><ele>310.0</ele><time>2026-03-28T16:04:36.526Z</time></trkpt><trkpt lat="44.5262423" lon="10.7040641"><ele>311.0</ele><time>2026-03-28T16:04:37.52Z</time></trkpt><trkpt lat="44.5261951" lon="10.7042103"><ele>312.0</ele><time>2026-03-28T16:04:38.523Z</time></trkpt><trkpt lat="44.5261334" lon="10.704356"><ele>308.25</ele><time>2026-03-28T16:04:39.525Z</time></trkpt><trkpt lat="44.5260624" lon="10.7045028"><ele>304.5</ele><time>2026-03-28T16:04:40.532Z</time></trkpt><trkpt lat="44.5260147" lon="10.7046525"><ele>300.75</ele><time>2026-03-28T16:04:41.521Z</time></trkpt><trkpt lat="44.5259871" lon="10.7048187"><ele>297.0</ele><time>2026-03-28T16:04:42.513Z</time></trkpt><trkpt lat="44.5259934" lon="10.7050033"><ele>297.0</ele><time>2026-03-28T16:04:43.529Z</time></trkpt><trkpt lat="44.5260232" lon="10.7052142"><ele>297.0</ele><time>2026-03-28T16:04:44.522Z</time></trkpt><trkpt lat="44.5261256" lon="10.705406"><ele>297.0</ele><time>2026-03-28T16:04:45.518Z</time></trkpt><trkpt lat="44.5262487" lon="10.7055433"><ele>299.0</ele><time>2026-03-28T16:04:46.514Z</time></trkpt><trkpt lat="44.5263746" lon="10.7056629"><ele>301.0</ele><time>2026-03-28T16:04:47.513Z</time></trkpt><trkpt lat="44.5264864" lon="10.705788"><ele>303.0</ele><time>2026-03-28T16:04:48.514Z</time></trkpt><trkpt lat="44.5265668" lon="10.705954"><ele>305.0</ele><time>2026-03-28T16:04:49.51Z</time></trkpt><trkpt lat="44.5265879" lon="10.7061955"><ele>305.0</ele><time>2026-03-28T16:04:50.519Z</time></trkpt><trkpt lat="44.5266079" lon="10.7064093"><ele>305.0</ele><time>2026-03-28T16:04:51.503Z</time></trkpt><trkpt lat="44.5265921" lon="10.7066299"><ele>305.0</ele><time>2026-03-28T16:04:52.508Z</time></trkpt><trkpt lat="44.5265427" lon="10.706843"><ele>304.75</ele><time>2026-03-28T16:04:53.508Z</time></trkpt><trkpt lat="44.5265135" lon="10.7070868"><ele>304.5</ele><time>2026-03-28T16:04:54.514Z</time></trkpt><trkpt lat="44.5264988" lon="10.7073011"><ele>304.25</ele><time>2026-03-28T16:04:55.514Z</time></trkpt><trkpt lat="44.5265249" lon="10.7074507"><ele>304.0</ele><time>2026-03-28T16:04:56.514Z</time></trkpt><trkpt lat="44.526581" lon="10.7076214"><ele>304.0</ele><time>2026-03-28T16:04:57.512Z</time></trkpt><trkpt lat="44.5266333" lon="10.7078564"><ele>304.0</ele><time>2026-03-28T16:04:58.528Z</time></trkpt><trkpt lat="44.5266638" lon="10.7080748"><ele>304.0</ele><time>2026-03-28T16:04:59.519Z</time></trkpt><trkpt lat="44.5266549" lon="10.7083087"><ele>304.0</ele><time>2026-03-28T16:05:00.529Z</time></trkpt><trkpt lat="44.5266595" lon="10.7085443"><ele>304.0</ele><time>2026-03-28T16:05:01.524Z</time></trkpt><trkpt lat="44.5267102" lon="10.7087468"><ele>304.0</ele><time>2026-03-28T16:05:02.513Z</time></trkpt><trkpt lat="44.5267817" lon="10.7089783"><ele>302.0</ele><time>2026-03-28T16:05:03.521Z</time></trkpt><trkpt lat="44.5268435" lon="10.7092097"><ele>300.0</ele><time>2026-03-28T16:05:04.519Z</time></trkpt><trkpt lat="44.5268944" lon="10.7094634"><ele>298.0</ele><time>2026-03-28T16:05:05.516Z</time></trkpt><trkpt lat="44.5269221" lon="10.7097001"><ele>297.0</ele><time>2026-03-28T16:05:06.517Z</time></trkpt><trkpt lat="44.5269694" lon="10.7099144"><ele>296.0</ele><time>2026-03-28T16:05:07.519Z</time></trkpt><trkpt lat="44.5270217" lon="10.7101061"><ele>295.0</ele><time>2026-03-28T16:05:08.518Z</time></trkpt><trkpt lat="44.5270504" lon="10.7102863"><ele>294.0</ele><time>2026-03-28T16:05:09.532Z</time></trkpt><trkpt lat="44.5270388" lon="10.7104353"><ele>294.0</ele><time>2026-03-28T16:05:10.532Z</time></trkpt><trkpt lat="44.5269656" lon="10.710598"><ele>294.0</ele><time>2026-03-28T16:05:11.526Z</time></trkpt><trkpt lat="44.5269038" lon="10.7107969"><ele>294.0</ele><time>2026-03-28T16:05:12.516Z</time></trkpt><trkpt lat="44.5268386" lon="10.7110261"><ele>294.6666666666667</ele><time>2026-03-28T16:05:13.524Z</time></trkpt><trkpt lat="44.526773" lon="10.7112599"><ele>295.33333333333337</ele><time>2026-03-28T16:05:14.525Z</time></trkpt><trkpt lat="44.5266946" lon="10.7115079"><ele>296.0</ele><time>2026-03-28T16:05:15.522Z</time></trkpt><trkpt lat="44.5265978" lon="10.7117949"><ele>297.6666666666667</ele><time>2026-03-28T16:05:16.529Z</time></trkpt><trkpt lat="44.5264957" lon="10.71206"><ele>299.3333333333333</ele><time>2026-03-28T16:05:17.524Z</time></trkpt><trkpt lat="44.5263785" lon="10.7123075"><ele>301.0</ele><time>2026-03-28T16:05:18.523Z</time></trkpt><trkpt lat="44.5262743" lon="10.7125486"><ele>298.3333333333333</ele><time>2026-03-28T16:05:19.531Z</time></trkpt><trkpt lat="44.5261725" lon="10.7127565"><ele>295.6666666666667</ele><time>2026-03-28T16:05:20.53Z</time></trkpt><trkpt lat="44.5260757" lon="10.7129594"><ele>293.0</ele><time>2026-03-28T16:05:21.52Z</time></trkpt><trkpt lat="44.5259708" lon="10.7131342"><ele>293.0</ele><time>2026-03-28T16:05:22.52Z</time></trkpt><trkpt lat="44.5258443" lon="10.7132507"><ele>293.0</ele><time>2026-03-28T16:05:23.516Z</time></trkpt><trkpt lat="44.5256741" lon="10.7133032"><ele>293.0</ele><time>2026-03-28T16:05:24.527Z</time></trkpt><trkpt lat="44.5254952" lon="10.7133592"><ele>294.0</ele><time>2026-03-28T16:05:25.514Z</time></trkpt><trkpt lat="44.5253178" lon="10.7133949"><ele>295.0</ele><time>2026-03-28T16:05:26.518Z</time></trkpt><trkpt lat="44.5251658" lon="10.7134899"><ele>296.0</ele><time>2026-03-28T16:05:27.513Z</time></trkpt><trkpt lat="44.5250469" lon="10.7136225"><ele>296.0</ele><time>2026-03-28T16:05:28.508Z</time></trkpt><trkpt lat="44.5249464" lon="10.713775"><ele>296.0</ele><time>2026-03-28T16:05:29.515Z</time></trkpt><trkpt lat="44.5248369" lon="10.7138771"><ele>296.0</ele><time>2026-03-28T16:05:30.508Z</time></trkpt><trkpt lat="44.5247048" lon="10.7139254"><ele>296.0</ele><time>2026-03-28T16:05:31.511Z</time></trkpt><trkpt lat="44.5245238" lon="10.7139234"><ele>292.0</ele><time>2026-03-28T16:05:32.501Z</time></trkpt><trkpt lat="44.5243998" lon="10.7139483"><ele>288.0</ele><time>2026-03-28T16:05:33.51Z</time></trkpt><trkpt lat="44.5242685" lon="10.7140306"><ele>284.0</ele><time>2026-03-28T16:05:34.51Z</time></trkpt><trkpt lat="44.5241845" lon="10.7141634"><ele>280.0</ele><time>2026-03-28T16:05:35.514Z</time></trkpt><trkpt lat="44.5241499" lon="10.7143681"><ele>278.3333333333333</ele><time>2026-03-28T16:05:36.514Z</time></trkpt><trkpt lat="44.5241611" lon="10.7146093"><ele>276.6666666666667</ele><time>2026-03-28T16:05:37.513Z</time></trkpt><trkpt lat="44.5241667" lon="10.7148532"><ele>275.0</ele><time>2026-03-28T16:05:38.517Z</time></trkpt><trkpt lat="44.5241827" lon="10.71513"><ele>273.33333333333337</ele><time>2026-03-28T16:05:39.515Z</time></trkpt><trkpt lat="44.5241835" lon="10.7153949"><ele>271.6666666666667</ele><time>2026-03-28T16:05:40.513Z</time></trkpt><trkpt lat="44.5241535" lon="10.7156263"><ele>270.0</ele><time>2026-03-28T16:05:41.52Z</time></trkpt><trkpt lat="44.5241413" lon="10.715855"><ele>269.0</ele><time>2026-03-28T16:05:42.511Z</time></trkpt><trkpt lat="44.5241719" lon="10.7160893"><ele>268.0</ele><time>2026-03-28T16:05:43.52Z</time></trkpt><trkpt lat="44.5242401" lon="10.716309"><ele>267.0</ele><time>2026-03-28T16:05:44.507Z</time></trkpt><trkpt lat="44.5243108" lon="10.716527"><ele>267.0</ele><time>2026-03-28T16:05:45.514Z</time></trkpt><trkpt lat="44.5243725" lon="10.7167815"><ele>267.0</ele><time>2026-03-28T16:05:46.518Z</time></trkpt><trkpt lat="44.5243707" lon="10.7170729"><ele>267.0</ele><time>2026-03-28T16:05:47.511Z</time></trkpt><trkpt lat="44.5243751" lon="10.7173788"><ele>267.5</ele><time>2026-03-28T16:05:48.513Z</time></trkpt><trkpt lat="44.5243875" lon="10.7177058"><ele>268.0</ele><time>2026-03-28T16:05:49.521Z</time></trkpt><trkpt lat="44.5244089" lon="10.7180443"><ele>267.0</ele><time>2026-03-28T16:05:50.517Z</time></trkpt><trkpt lat="44.5244265" lon="10.7183896"><ele>266.0</ele><time>2026-03-28T16:05:51.523Z</time></trkpt><trkpt lat="44.5244518" lon="10.7187354"><ele>266.0</ele><time>2026-03-28T16:05:52.519Z</time></trkpt><trkpt lat="44.5244765" lon="10.7190885"><ele>266.0</ele><time>2026-03-28T16:05:53.517Z</time></trkpt><trkpt lat="44.5245046" lon="10.7194401"><ele>267.0</ele><time>2026-03-28T16:05:54.521Z</time></trkpt><trkpt lat="44.5245228" lon="10.7197895"><ele>268.0</ele><time>2026-03-28T16:05:55.519Z</time></trkpt><trkpt lat="44.5245449" lon="10.7201183"><ele>265.0</ele><time>2026-03-28T16:05:56.524Z</time></trkpt><trkpt lat="44.5245641" lon="10.7204303"><ele>262.0</ele><time>2026-03-28T16:05:57.519Z</time></trkpt><trkpt lat="44.5246011" lon="10.7207515"><ele>261.5</ele><time>2026-03-28T16:05:58.519Z</time></trkpt><trkpt lat="44.5246424" lon="10.7210819"><ele>261.0</ele><time>2026-03-28T16:05:59.52Z</time></trkpt><trkpt lat="44.5246917" lon="10.72141"><ele>261.0</ele><time>2026-03-28T16:06:00.522Z</time></trkpt><trkpt lat="44.524745" lon="10.721741"><ele>261.0</ele><time>2026-03-28T16:06:01.528Z</time></trkpt><trkpt lat="44.524802" lon="10.7220624"><ele>259.0</ele><time>2026-03-28T16:06:02.534Z</time></trkpt><trkpt lat="44.5248561" lon="10.7223866"><ele>257.0</ele><time>2026-03-28T16:06:03.53Z</time></trkpt><trkpt lat="44.5249164" lon="10.7226962"><ele>256.6666666666667</ele><time>2026-03-28T16:06:04.516Z</time></trkpt><trkpt lat="44.5249668" lon="10.7229858"><ele>256.3333333333333</ele><time>2026-03-28T16:06:05.519Z</time></trkpt><trkpt lat="44.5250028" lon="10.7232623"><ele>256.0</ele><time>2026-03-28T16:06:06.518Z</time></trkpt><trkpt lat="44.5250252" lon="10.7235465"><ele>256.3333333333333</ele><time>2026-03-28T16:06:07.509Z</time></trkpt><trkpt lat="44.5250076" lon="10.7238201"><ele>256.6666666666667</ele><time>2026-03-28T16:06:08.519Z</time></trkpt><trkpt lat="44.5249497" lon="10.7240951"><ele>257.0</ele><time>2026-03-28T16:06:09.511Z</time></trkpt><trkpt lat="44.524891" lon="10.7243358"><ele>256.33333333333337</ele><time>2026-03-28T16:06:10.526Z</time></trkpt><trkpt lat="44.5248424" lon="10.7246153"><ele>255.66666666666669</ele><time>2026-03-28T16:06:11.51Z</time></trkpt><trkpt lat="44.5248316" lon="10.7249081"><ele>255.0</ele><time>2026-03-28T16:06:12.515Z</time></trkpt><trkpt lat="44.5248459" lon="10.7252188"><ele>253.66666666666669</ele><time>2026-03-28T16:06:13.522Z</time></trkpt><trkpt lat="44.5248575" lon="10.7255323"><ele>252.33333333333334</ele><time>2026-03-28T16:06:14.523Z</time></trkpt><trkpt lat="44.5248604" lon="10.7258484"><ele>251.0</ele><time>2026-03-28T16:06:15.53Z</time></trkpt><trkpt lat="44.5248706" lon="10.7261488"><ele>249.33333333333334</ele><time>2026-03-28T16:06:16.53Z</time></trkpt><trkpt lat="44.5248711" lon="10.7264437"><ele>247.66666666666669</ele><time>2026-03-28T16:06:17.523Z</time></trkpt><trkpt lat="44.5248665" lon="10.7267145"><ele>246.0</ele><time>2026-03-28T16:06:18.522Z</time></trkpt><trkpt lat="44.5248508" lon="10.7269917"><ele>245.33333333333331</ele><time>2026-03-28T16:06:19.522Z</time></trkpt><trkpt lat="44.5248131" lon="10.7272852"><ele>244.66666666666666</ele><time>2026-03-28T16:06:20.518Z</time></trkpt><trkpt lat="44.524777" lon="10.7275743"><ele>244.0</ele><time>2026-03-28T16:06:21.527Z</time></trkpt><trkpt lat="44.5247383" lon="10.7278962"><ele>243.33333333333331</ele><time>2026-03-28T16:06:22.525Z</time></trkpt><trkpt lat="44.5246915" lon="10.728205"><ele>242.66666666666669</ele><time>2026-03-28T16:06:23.523Z</time></trkpt><trkpt lat="44.5246543" lon="10.7284787"><ele>242.0</ele><time>2026-03-28T16:06:24.522Z</time></trkpt><trkpt lat="44.5246238" lon="10.7287359"><ele>242.5</ele><time>2026-03-28T16:06:25.519Z</time></trkpt><trkpt lat="44.5245895" lon="10.7289668"><ele>243.0</ele><time>2026-03-28T16:06:26.528Z</time></trkpt><trkpt lat="44.5245428" lon="10.7291454"><ele>243.5</ele><time>2026-03-28T16:06:27.512Z</time></trkpt><trkpt lat="44.5244764" lon="10.7293073"><ele>244.0</ele><time>2026-03-28T16:06:28.513Z</time></trkpt><trkpt lat="44.5244052" lon="10.7294589"><ele>244.0</ele><time>2026-03-28T16:06:29.523Z</time></trkpt><trkpt lat="44.5243076" lon="10.729629"><ele>244.0</ele><time>2026-03-28T16:06:30.515Z</time></trkpt><trkpt lat="44.5241951" lon="10.7298007"><ele>244.0</ele><time>2026-03-28T16:06:31.529Z</time></trkpt><trkpt lat="44.5240653" lon="10.7299744"><ele>244.0</ele><time>2026-03-28T16:06:32.522Z</time></trkpt><trkpt lat="44.5239583" lon="10.7301596"><ele>244.0</ele><time>2026-03-28T16:06:33.529Z</time></trkpt><trkpt lat="44.5238614" lon="10.730341"><ele>244.0</ele><time>2026-03-28T16:06:34.517Z</time></trkpt><trkpt lat="44.5237902" lon="10.7305813"><ele>243.33333333333331</ele><time>2026-03-28T16:06:35.519Z</time></trkpt><trkpt lat="44.5237281" lon="10.7308367"><ele>242.66666666666669</ele><time>2026-03-28T16:06:36.524Z</time></trkpt><trkpt lat="44.5236778" lon="10.7310975"><ele>242.0</ele><time>2026-03-28T16:06:37.515Z</time></trkpt><trkpt lat="44.5236353" lon="10.7313199"><ele>241.5</ele><time>2026-03-28T16:06:38.519Z</time></trkpt><trkpt lat="44.5235992" lon="10.7315296"><ele>241.0</ele><time>2026-03-28T16:06:39.516Z</time></trkpt><trkpt lat="44.5235423" lon="10.7317166"><ele>240.5</ele><time>2026-03-28T16:06:40.515Z</time></trkpt><trkpt lat="44.5234661" lon="10.7318626"><ele>240.0</ele><time>2026-03-28T16:06:41.505Z</time></trkpt><trkpt lat="44.5233758" lon="10.7319989"><ele>238.75</ele><time>2026-03-28T16:06:42.508Z</time></trkpt><trkpt lat="44.5232563" lon="10.7321073"><ele>237.5</ele><time>2026-03-28T16:06:43.51Z</time></trkpt><trkpt lat="44.5231114" lon="10.7321806"><ele>236.25</ele><time>2026-03-28T16:06:44.509Z</time></trkpt><trkpt lat="44.5229606" lon="10.7321984"><ele>235.0</ele><time>2026-03-28T16:06:45.522Z</time></trkpt><trkpt lat="44.5227886" lon="10.7321528"><ele>234.0</ele><time>2026-03-28T16:06:46.52Z</time></trkpt><trkpt lat="44.5226123" lon="10.732076"><ele>233.0</ele><time>2026-03-28T16:06:47.525Z</time></trkpt><trkpt lat="44.5224575" lon="10.7319965"><ele>232.0</ele><time>2026-03-28T16:06:48.52Z</time></trkpt><trkpt lat="44.5223211" lon="10.73193"><ele>231.25</ele><time>2026-03-28T16:06:49.509Z</time></trkpt><trkpt lat="44.5221955" lon="10.73185"><ele>230.5</ele><time>2026-03-28T16:06:50.506Z</time></trkpt><trkpt lat="44.522097" lon="10.7317161"><ele>229.75</ele><time>2026-03-28T16:06:51.506Z</time></trkpt><trkpt lat="44.5219832" lon="10.7315751"><ele>229.0</ele><time>2026-03-28T16:06:52.515Z</time></trkpt><trkpt lat="44.5218766" lon="10.7314528"><ele>229.0</ele><time>2026-03-28T16:06:53.519Z</time></trkpt><trkpt lat="44.5217528" lon="10.7313945"><ele>229.0</ele><time>2026-03-28T16:06:54.521Z</time></trkpt><trkpt lat="44.5216057" lon="10.7314044"><ele>229.0</ele><time>2026-03-28T16:06:55.509Z</time></trkpt><trkpt lat="44.5214262" lon="10.7314745"><ele>229.0</ele><time>2026-03-28T16:06:56.511Z</time></trkpt><trkpt lat="44.5212685" lon="10.7315144"><ele>229.0</ele><time>2026-03-28T16:06:57.51Z</time></trkpt><trkpt lat="44.5211277" lon="10.7315243"><ele>229.0</ele><time>2026-03-28T16:06:58.514Z</time></trkpt><trkpt lat="44.5209763" lon="10.7314656"><ele>230.33333333333331</ele><time>2026-03-28T16:06:59.517Z</time></trkpt><trkpt lat="44.5208336" lon="10.7313732"><ele>231.66666666666669</ele><time>2026-03-28T16:07:00.514Z</time></trkpt><trkpt lat="44.5207185" lon="10.7312243"><ele>233.0</ele><time>2026-03-28T16:07:01.52Z</time></trkpt><trkpt lat="44.5206344" lon="10.7310467"><ele>233.0</ele><time>2026-03-28T16:07:02.511Z</time></trkpt><trkpt lat="44.5205464" lon="10.7308327"><ele>233.0</ele><time>2026-03-28T16:07:03.507Z</time></trkpt><trkpt lat="44.5204385" lon="10.7306396"><ele>233.0</ele><time>2026-03-28T16:07:04.515Z</time></trkpt><trkpt lat="44.5203248" lon="10.7304392"><ele>228.33333333333334</ele><time>2026-03-28T16:07:05.514Z</time></trkpt><trkpt lat="44.5202044" lon="10.7302461"><ele>223.66666666666669</ele><time>2026-03-28T16:07:06.517Z</time></trkpt><trkpt lat="44.5200992" lon="10.7300383"><ele>219.0</ele><time>2026-03-28T16:07:07.511Z</time></trkpt><trkpt lat="44.5200106" lon="10.7298325"><ele>219.0</ele><time>2026-03-28T16:07:08.513Z</time></trkpt><trkpt lat="44.5199184" lon="10.7296135"><ele>219.0</ele><time>2026-03-28T16:07:09.508Z</time></trkpt><trkpt lat="44.5198058" lon="10.7294356"><ele>219.0</ele><time>2026-03-28T16:07:10.508Z</time></trkpt><trkpt lat="44.5196814" lon="10.7292618"><ele>214.66666666666669</ele><time>2026-03-28T16:07:11.513Z</time></trkpt><trkpt lat="44.5195595" lon="10.7290913"><ele>210.33333333333334</ele><time>2026-03-28T16:07:12.506Z</time></trkpt><trkpt lat="44.5194375" lon="10.7288868"><ele>206.0</ele><time>2026-03-28T16:07:13.515Z</time></trkpt><trkpt lat="44.5193415" lon="10.7286693"><ele>207.33333333333334</ele><time>2026-03-28T16:07:14.522Z</time></trkpt><trkpt lat="44.5192523" lon="10.728443"><ele>208.66666666666669</ele><time>2026-03-28T16:07:15.519Z</time></trkpt><trkpt lat="44.5191639" lon="10.7282243"><ele>210.0</ele><time>2026-03-28T16:07:16.521Z</time></trkpt><trkpt lat="44.5190851" lon="10.728029"><ele>210.0</ele><time>2026-03-28T16:07:17.512Z</time></trkpt><trkpt lat="44.5190347" lon="10.727832"><ele>210.0</ele><time>2026-03-28T16:07:18.512Z</time></trkpt><trkpt lat="44.5190393" lon="10.7276599"><ele>210.0</ele><time>2026-03-28T16:07:19.516Z</time></trkpt><trkpt lat="44.519051" lon="10.7274823"><ele>210.0</ele><time>2026-03-28T16:07:20.512Z</time></trkpt><trkpt lat="44.5190259" lon="10.7273737"><ele>210.0</ele><time>2026-03-28T16:07:21.523Z</time></trkpt><trkpt lat="44.5189538" lon="10.7273236"><ele>210.0</ele><time>2026-03-28T16:07:22.528Z</time></trkpt><trkpt lat="44.5188805" lon="10.7273371"><ele>210.0</ele><time>2026-03-28T16:07:23.522Z</time></trkpt><trkpt lat="44.5188181" lon="10.7274311"><ele>210.0</ele><time>2026-03-28T16:07:24.524Z</time></trkpt><trkpt lat="44.5187681" lon="10.7275787"><ele>210.0</ele><time>2026-03-28T16:07:25.519Z</time></trkpt><trkpt lat="44.5187383" lon="10.7277674"><ele>204.0</ele><time>2026-03-28T16:07:26.514Z</time></trkpt><trkpt lat="44.5187037" lon="10.7280041"><ele>198.0</ele><time>2026-03-28T16:07:27.513Z</time></trkpt><trkpt lat="44.5186627" lon="10.7282466"><ele>192.0</ele><time>2026-03-28T16:07:28.515Z</time></trkpt><trkpt lat="44.5186348" lon="10.728466"><ele>191.33333333333334</ele><time>2026-03-28T16:07:29.518Z</time></trkpt><trkpt lat="44.5186121" lon="10.728673"><ele>190.66666666666669</ele><time>2026-03-28T16:07:30.525Z</time></trkpt><trkpt lat="44.5186173" lon="10.7288982"><ele>190.0</ele><time>2026-03-28T16:07:31.524Z</time></trkpt><trkpt lat="44.5186359" lon="10.7291118"><ele>190.0</ele><time>2026-03-28T16:07:32.519Z</time></trkpt><trkpt lat="44.5186765" lon="10.729307"><ele>190.0</ele><time>2026-03-28T16:07:33.536Z</time></trkpt><trkpt lat="44.5187082" lon="10.7294425"><ele>190.0</ele><time>2026-03-28T16:07:34.514Z</time></trkpt><trkpt lat="44.5187384" lon="10.7295727"><ele>190.0</ele><time>2026-03-28T16:07:35.52Z</time></trkpt><trkpt lat="44.5187825" lon="10.7297305"><ele>190.75</ele><time>2026-03-28T16:07:36.513Z</time></trkpt><trkpt lat="44.5188255" lon="10.7299206"><ele>191.5</ele><time>2026-03-28T16:07:37.514Z</time></trkpt><trkpt lat="44.5188507" lon="10.7301403"><ele>192.25</ele><time>2026-03-28T16:07:38.505Z</time></trkpt><trkpt lat="44.5188497" lon="10.730346"><ele>193.0</ele><time>2026-03-28T16:07:39.511Z</time></trkpt><trkpt lat="44.518836" lon="10.7305391"><ele>193.0</ele><time>2026-03-28T16:07:40.509Z</time></trkpt><trkpt lat="44.5188369" lon="10.730712"><ele>193.0</ele><time>2026-03-28T16:07:41.509Z</time></trkpt><trkpt lat="44.5188702" lon="10.7308699"><ele>193.0</ele><time>2026-03-28T16:07:42.512Z</time></trkpt><trkpt lat="44.5189374" lon="10.7310327"><ele>193.0</ele><time>2026-03-28T16:07:43.506Z</time></trkpt><trkpt lat="44.519035" lon="10.7311565"><ele>190.25</ele><time>2026-03-28T16:07:44.513Z</time></trkpt><trkpt lat="44.5191276" lon="10.7312794"><ele>187.5</ele><time>2026-03-28T16:07:45.514Z</time></trkpt><trkpt lat="44.5192059" lon="10.7314392"><ele>184.75</ele><time>2026-03-28T16:07:46.513Z</time></trkpt><trkpt lat="44.5192895" lon="10.7316146"><ele>182.0</ele><time>2026-03-28T16:07:47.511Z</time></trkpt><trkpt lat="44.5193697" lon="10.7318122"><ele>179.66666666666666</ele><time>2026-03-28T16:07:48.515Z</time></trkpt><trkpt lat="44.5194552" lon="10.7320285"><ele>177.33333333333334</ele><time>2026-03-28T16:07:49.513Z</time></trkpt><trkpt lat="44.5195343" lon="10.7322536"><ele>175.0</ele><time>2026-03-28T16:07:50.507Z</time></trkpt><trkpt lat="44.5196226" lon="10.7324815"><ele>175.66666666666669</ele><time>2026-03-28T16:07:51.513Z</time></trkpt><trkpt lat="44.5196945" lon="10.7327069"><ele>176.33333333333334</ele><time>2026-03-28T16:07:52.512Z</time></trkpt><trkpt lat="44.5197521" lon="10.7329329"><ele>177.0</ele><time>2026-03-28T16:07:53.508Z</time></trkpt><trkpt lat="44.5198157" lon="10.733147"><ele>177.0</ele><time>2026-03-28T16:07:54.517Z</time></trkpt><trkpt lat="44.5198597" lon="10.7333459"><ele>177.0</ele><time>2026-03-28T16:07:55.51Z</time></trkpt><trkpt lat="44.5198975" lon="10.7335001"><ele>177.0</ele><time>2026-03-28T16:07:56.511Z</time></trkpt><trkpt lat="44.5199374" lon="10.7336655"><ele>177.0</ele><time>2026-03-28T16:07:57.512Z</time></trkpt><trkpt lat="44.5199939" lon="10.733865"><ele>174.33333333333334</ele><time>2026-03-28T16:07:58.511Z</time></trkpt><trkpt lat="44.5200506" lon="10.7340786"><ele>171.66666666666669</ele><time>2026-03-28T16:07:59.521Z</time></trkpt><trkpt lat="44.5201072" lon="10.7342861"><ele>169.0</ele><time>2026-03-28T16:08:00.512Z</time></trkpt><trkpt lat="44.5201691" lon="10.7344772"><ele>166.75</ele><time>2026-03-28T16:08:01.52Z</time></trkpt><trkpt lat="44.5202312" lon="10.7346725"><ele>164.5</ele><time>2026-03-28T16:08:02.516Z</time></trkpt><trkpt lat="44.5202884" lon="10.7348577"><ele>162.25</ele><time>2026-03-28T16:08:03.525Z</time></trkpt><trkpt lat="44.5203393" lon="10.7350085"><ele>160.0</ele><time>2026-03-28T16:08:04.524Z</time></trkpt><trkpt lat="44.5203783" lon="10.7351727"><ele>159.2</ele><time>2026-03-28T16:08:05.52Z</time></trkpt><trkpt lat="44.5204244" lon="10.7353162"><ele>158.4</ele><time>2026-03-28T16:08:06.517Z</time></trkpt><trkpt lat="44.5204612" lon="10.7354479"><ele>157.6</ele><time>2026-03-28T16:08:07.52Z</time></trkpt><trkpt lat="44.5204941" lon="10.7355869"><ele>156.8</ele><time>2026-03-28T16:08:08.521Z</time></trkpt><trkpt lat="44.5205234" lon="10.7357222"><ele>156.0</ele><time>2026-03-28T16:08:09.517Z</time></trkpt><trkpt lat="44.5205576" lon="10.7358571"><ele>156.0</ele><time>2026-03-28T16:08:10.523Z</time></trkpt><trkpt lat="44.5205957" lon="10.7359969"><ele>156.0</ele><time>2026-03-28T16:08:11.517Z</time></trkpt><trkpt lat="44.5206352" lon="10.736138"><ele>156.0</ele><time>2026-03-28T16:08:12.519Z</time></trkpt><trkpt lat="44.5206669" lon="10.7362795"><ele>156.0</ele><time>2026-03-28T16:08:13.52Z</time></trkpt><trkpt lat="44.5206839" lon="10.7364232"><ele>156.0</ele><time>2026-03-28T16:08:14.518Z</time></trkpt><trkpt lat="44.5206996" lon="10.7365706"><ele>155.2</ele><time>2026-03-28T16:08:15.528Z</time></trkpt><trkpt lat="44.5207039" lon="10.7366995"><ele>154.39999999999998</ele><time>2026-03-28T16:08:16.525Z</time></trkpt><trkpt lat="44.5207017" lon="10.7368093"><ele>153.6</ele><time>2026-03-28T16:08:17.527Z</time></trkpt><trkpt lat="44.5206921" lon="10.7369029"><ele>152.79999999999998</ele><time>2026-03-28T16:08:18.53Z</time></trkpt><trkpt lat="44.5206744" lon="10.7370343"><ele>152.0</ele><time>2026-03-28T16:08:20.528Z</time></trkpt><trkpt lat="44.520607" lon="10.7372015"><ele>151.6</ele><time>2026-03-28T16:08:22.526Z</time></trkpt><trkpt lat="44.5205705" lon="10.7372882"><ele>151.2</ele><time>2026-03-28T16:08:23.528Z</time></trkpt><trkpt lat="44.5205242" lon="10.737388"><ele>150.8</ele><time>2026-03-28T16:08:24.527Z</time></trkpt><trkpt lat="44.5204933" lon="10.7375279"><ele>150.4</ele><time>2026-03-28T16:08:25.525Z</time></trkpt><trkpt lat="44.520493" lon="10.7377118"><ele>150.0</ele><time>2026-03-28T16:08:26.526Z</time></trkpt><trkpt lat="44.5205309" lon="10.7379314"><ele>150.0</ele><time>2026-03-28T16:08:27.524Z</time></trkpt><trkpt lat="44.520556" lon="10.7381979"><ele>150.0</ele><time>2026-03-28T16:08:28.531Z</time></trkpt><trkpt lat="44.5205362" lon="10.7384618"><ele>150.0</ele><time>2026-03-28T16:08:29.523Z</time></trkpt><trkpt lat="44.5205255" lon="10.7387446"><ele>149.66666666666666</ele><time>2026-03-28T16:08:30.518Z</time></trkpt><trkpt lat="44.5205274" lon="10.7390441"><ele>149.33333333333331</ele><time>2026-03-28T16:08:31.533Z</time></trkpt><trkpt lat="44.5205383" lon="10.7393527"><ele>149.0</ele><time>2026-03-28T16:08:32.53Z</time></trkpt><trkpt lat="44.5205505" lon="10.7396716"><ele>148.0</ele><time>2026-03-28T16:08:33.539Z</time></trkpt><trkpt lat="44.5205629" lon="10.7400017"><ele>147.0</ele><time>2026-03-28T16:08:34.534Z</time></trkpt><trkpt lat="44.5205651" lon="10.740332"><ele>146.0</ele><time>2026-03-28T16:08:35.538Z</time></trkpt><trkpt lat="44.5205551" lon="10.7406594"><ele>145.0</ele><time>2026-03-28T16:08:36.53Z</time></trkpt><trkpt lat="44.5205253" lon="10.7409665"><ele>144.66666666666669</ele><time>2026-03-28T16:08:37.527Z</time></trkpt><trkpt lat="44.5204729" lon="10.7412686"><ele>144.33333333333334</ele><time>2026-03-28T16:08:38.521Z</time></trkpt><trkpt lat="44.5203917" lon="10.7415548"><ele>144.0</ele><time>2026-03-28T16:08:39.521Z</time></trkpt><trkpt lat="44.5202993" lon="10.74186"><ele>143.5</ele><time>2026-03-28T16:08:40.53Z</time></trkpt><trkpt lat="44.520196" lon="10.7421646"><ele>143.0</ele><time>2026-03-28T16:08:41.527Z</time></trkpt><trkpt lat="44.5201081" lon="10.7424703"><ele>142.5</ele><time>2026-03-28T16:08:42.533Z</time></trkpt><trkpt lat="44.5200124" lon="10.7427773"><ele>142.0</ele><time>2026-03-28T16:08:43.525Z</time></trkpt><trkpt lat="44.5199296" lon="10.7430645"><ele>142.0</ele><time>2026-03-28T16:08:44.524Z</time></trkpt><trkpt lat="44.519864" lon="10.7433244"><ele>142.0</ele><time>2026-03-28T16:08:45.53Z</time></trkpt><trkpt lat="44.5198002" lon="10.743571"><ele>142.0</ele><time>2026-03-28T16:08:46.528Z</time></trkpt><trkpt lat="44.5197402" lon="10.7438046"><ele>141.0</ele><time>2026-03-28T16:08:47.535Z</time></trkpt><trkpt lat="44.5196825" lon="10.7440276"><ele>140.0</ele><time>2026-03-28T16:08:48.524Z</time></trkpt><trkpt lat="44.519638" lon="10.744218"><ele>139.0</ele><time>2026-03-28T16:08:49.529Z</time></trkpt><trkpt lat="44.5195998" lon="10.7443862"><ele>138.0</ele><time>2026-03-28T16:08:50.525Z</time></trkpt><trkpt lat="44.5195657" lon="10.7445213"><ele>137.83333333333334</ele><time>2026-03-28T16:08:51.526Z</time></trkpt><trkpt lat="44.5195406" lon="10.7446414"><ele>137.66666666666666</ele><time>2026-03-28T16:08:52.53Z</time></trkpt><trkpt lat="44.5195058" lon="10.7447704"><ele>137.5</ele><time>2026-03-28T16:08:53.533Z</time></trkpt><trkpt lat="44.5194735" lon="10.744868"><ele>137.33333333333331</ele><time>2026-03-28T16:08:54.528Z</time></trkpt><trkpt lat="44.5194503" lon="10.7449572"><ele>137.16666666666666</ele><time>2026-03-28T16:08:55.534Z</time></trkpt><trkpt lat="44.5194289" lon="10.7450441"><ele>137.0</ele><time>2026-03-28T16:08:56.529Z</time></trkpt><trkpt lat="44.5194046" lon="10.7451532"><ele>136.5</ele><time>2026-03-28T16:08:58.533Z</time></trkpt><trkpt lat="44.5194111" lon="10.7452478"><ele>136.0</ele><time>2026-03-28T16:09:00.534Z</time></trkpt><trkpt lat="44.5194805" lon="10.745376"><ele>135.5</ele><time>2026-03-28T16:09:02.529Z</time></trkpt><trkpt lat="44.5195441" lon="10.7454246"><ele>135.0</ele><time>2026-03-28T16:09:03.525Z</time></trkpt><trkpt lat="44.5196254" lon="10.7454446"><ele>134.5</ele><time>2026-03-28T16:09:04.522Z</time></trkpt><trkpt lat="44.5197212" lon="10.7454728"><ele>134.0</ele><time>2026-03-28T16:09:05.526Z</time></trkpt><trkpt lat="44.5198281" lon="10.7455082"><ele>134.0</ele><time>2026-03-28T16:09:06.535Z</time></trkpt><trkpt lat="44.5199347" lon="10.7455466"><ele>134.0</ele><time>2026-03-28T16:09:07.533Z</time></trkpt><trkpt lat="44.5200603" lon="10.7455795"><ele>134.0</ele><time>2026-03-28T16:09:08.53Z</time></trkpt><trkpt lat="44.5202002" lon="10.7456151"><ele>134.0</ele><time>2026-03-28T16:09:09.54Z</time></trkpt><trkpt lat="44.5203442" lon="10.7456582"><ele>135.66666666666666</ele><time>2026-03-28T16:09:10.535Z</time></trkpt><trkpt lat="44.5205013" lon="10.7457058"><ele>137.33333333333334</ele><time>2026-03-28T16:09:11.538Z</time></trkpt><trkpt lat="44.5206536" lon="10.7457403"><ele>139.0</ele><time>2026-03-28T16:09:12.535Z</time></trkpt><trkpt lat="44.5208049" lon="10.7457758"><ele>139.0</ele><time>2026-03-28T16:09:13.532Z</time></trkpt><trkpt lat="44.5209629" lon="10.7458311"><ele>139.0</ele><time>2026-03-28T16:09:14.544Z</time></trkpt><trkpt lat="44.5211209" lon="10.7458997"><ele>139.0</ele><time>2026-03-28T16:09:15.538Z</time></trkpt><trkpt lat="44.5212943" lon="10.7459694"><ele>138.33333333333334</ele><time>2026-03-28T16:09:16.539Z</time></trkpt><trkpt lat="44.5214744" lon="10.7460393"><ele>137.66666666666666</ele><time>2026-03-28T16:09:17.54Z</time></trkpt><trkpt lat="44.5216685" lon="10.7461104"><ele>137.0</ele><time>2026-03-28T16:09:18.534Z</time></trkpt><trkpt lat="44.5218644" lon="10.7461886"><ele>136.0</ele><time>2026-03-28T16:09:19.541Z</time></trkpt><trkpt lat="44.5220717" lon="10.7462746"><ele>135.0</ele><time>2026-03-28T16:09:20.543Z</time></trkpt><trkpt lat="44.5222742" lon="10.7463555"><ele>134.0</ele><time>2026-03-28T16:09:21.535Z</time></trkpt><trkpt lat="44.5224873" lon="10.7464496"><ele>134.0</ele><time>2026-03-28T16:09:22.529Z</time></trkpt><trkpt lat="44.5227234" lon="10.7465403"><ele>134.0</ele><time>2026-03-28T16:09:23.534Z</time></trkpt><trkpt lat="44.5229653" lon="10.7466547"><ele>134.5</ele><time>2026-03-28T16:09:24.529Z</time></trkpt><trkpt lat="44.5232047" lon="10.7467958"><ele>135.0</ele><time>2026-03-28T16:09:25.536Z</time></trkpt><trkpt lat="44.5234404" lon="10.7469459"><ele>135.0</ele><time>2026-03-28T16:09:26.534Z</time></trkpt><trkpt lat="44.5236778" lon="10.7470827"><ele>135.0</ele><time>2026-03-28T16:09:27.54Z</time></trkpt><trkpt lat="44.5239295" lon="10.7472219"><ele>135.5</ele><time>2026-03-28T16:09:28.535Z</time></trkpt><trkpt lat="44.5241841" lon="10.7473827"><ele>136.0</ele><time>2026-03-28T16:09:29.536Z</time></trkpt><trkpt lat="44.5244199" lon="10.7475273"><ele>136.0</ele><time>2026-03-28T16:09:30.539Z</time></trkpt><trkpt lat="44.5246384" lon="10.7476824"><ele>136.0</ele><time>2026-03-28T16:09:31.546Z</time></trkpt><trkpt lat="44.5248843" lon="10.7478611"><ele>136.0</ele><time>2026-03-28T16:09:32.539Z</time></trkpt><trkpt lat="44.5251393" lon="10.7480455"><ele>136.0</ele><time>2026-03-28T16:09:33.541Z</time></trkpt><trkpt lat="44.5254073" lon="10.748255"><ele>135.0</ele><time>2026-03-28T16:09:34.534Z</time></trkpt><trkpt lat="44.5256674" lon="10.7484701"><ele>134.0</ele><time>2026-03-28T16:09:35.531Z</time></trkpt><trkpt lat="44.5258987" lon="10.7486648"><ele>134.0</ele><time>2026-03-28T16:09:36.534Z</time></trkpt><trkpt lat="44.5261224" lon="10.7488763"><ele>134.0</ele><time>2026-03-28T16:09:37.538Z</time></trkpt><trkpt lat="44.5263492" lon="10.7490817"><ele>134.0</ele><time>2026-03-28T16:09:38.533Z</time></trkpt><trkpt lat="44.5265563" lon="10.7492959"><ele>134.0</ele><time>2026-03-28T16:09:39.532Z</time></trkpt><trkpt lat="44.5267707" lon="10.7495186"><ele>134.0</ele><time>2026-03-28T16:09:40.533Z</time></trkpt><trkpt lat="44.5269896" lon="10.7497346"><ele>134.0</ele><time>2026-03-28T16:09:41.537Z</time></trkpt><trkpt lat="44.5272024" lon="10.7499513"><ele>134.0</ele><time>2026-03-28T16:09:42.541Z</time></trkpt><trkpt lat="44.5274259" lon="10.7501685"><ele>134.0</ele><time>2026-03-28T16:09:43.536Z</time></trkpt><trkpt lat="44.5276432" lon="10.7503837"><ele>133.5</ele><time>2026-03-28T16:09:44.54Z</time></trkpt><trkpt lat="44.5278669" lon="10.7506"><ele>133.0</ele><time>2026-03-28T16:09:45.537Z</time></trkpt><trkpt lat="44.5280896" lon="10.7508239"><ele>132.0</ele><time>2026-03-28T16:09:46.536Z</time></trkpt><trkpt lat="44.5283163" lon="10.7510524"><ele>131.0</ele><time>2026-03-28T16:09:47.539Z</time></trkpt><trkpt lat="44.5285315" lon="10.7512889"><ele>131.5</ele><time>2026-03-28T16:09:48.534Z</time></trkpt><trkpt lat="44.5287527" lon="10.7515126"><ele>132.0</ele><time>2026-03-28T16:09:49.541Z</time></trkpt><trkpt lat="44.528979" lon="10.7517462"><ele>131.5</ele><time>2026-03-28T16:09:50.536Z</time></trkpt><trkpt lat="44.5292069" lon="10.75197"><ele>131.0</ele><time>2026-03-28T16:09:51.539Z</time></trkpt><trkpt lat="44.5294355" lon="10.7522021"><ele>130.5</ele><time>2026-03-28T16:09:52.536Z</time></trkpt><trkpt lat="44.5296608" lon="10.7524352"><ele>130.0</ele><time>2026-03-28T16:09:53.538Z</time></trkpt><trkpt lat="44.5298906" lon="10.7526605"><ele>130.5</ele><time>2026-03-28T16:09:54.535Z</time></trkpt><trkpt lat="44.5301198" lon="10.7528747"><ele>131.0</ele><time>2026-03-28T16:09:55.537Z</time></trkpt><trkpt lat="44.5303485" lon="10.7530894"><ele>129.0</ele><time>2026-03-28T16:09:56.537Z</time></trkpt><trkpt lat="44.5305726" lon="10.7533151"><ele>127.0</ele><time>2026-03-28T16:09:57.536Z</time></trkpt><trkpt lat="44.530797" lon="10.7535453"><ele>126.5</ele><time>2026-03-28T16:09:58.536Z</time></trkpt><trkpt lat="44.5310305" lon="10.7537732"><ele>126.0</ele><time>2026-03-28T16:09:59.535Z</time></trkpt><trkpt lat="44.5312706" lon="10.7540185"><ele>126.5</ele><time>2026-03-28T16:10:00.539Z</time></trkpt><trkpt lat="44.5315113" lon="10.7542569"><ele>127.0</ele><time>2026-03-28T16:10:01.54Z</time></trkpt><trkpt lat="44.5317429" lon="10.7545006"><ele>127.0</ele><time>2026-03-28T16:10:02.539Z</time></trkpt><trkpt lat="44.5319865" lon="10.7547321"><ele>127.0</ele><time>2026-03-28T16:10:03.542Z</time></trkpt><trkpt lat="44.532212" lon="10.7549627"><ele>126.0</ele><time>2026-03-28T16:10:04.533Z</time></trkpt><trkpt lat="44.5324208" lon="10.755177"><ele>125.0</ele><time>2026-03-28T16:10:05.531Z</time></trkpt><trkpt lat="44.5326229" lon="10.7553803"><ele>124.33333333333333</ele><time>2026-03-28T16:10:06.529Z</time></trkpt><trkpt lat="44.532813" lon="10.7555613"><ele>123.66666666666666</ele><time>2026-03-28T16:10:07.528Z</time></trkpt><trkpt lat="44.5329889" lon="10.7557225"><ele>123.0</ele><time>2026-03-28T16:10:08.532Z</time></trkpt><trkpt lat="44.5331577" lon="10.7558827"><ele>122.5</ele><time>2026-03-28T16:10:09.525Z</time></trkpt><trkpt lat="44.533347" lon="10.7560634"><ele>122.0</ele><time>2026-03-28T16:10:10.526Z</time></trkpt><trkpt lat="44.5335501" lon="10.7562692"><ele>123.0</ele><time>2026-03-28T16:10:11.531Z</time></trkpt><trkpt lat="44.5337689" lon="10.7564893"><ele>124.0</ele><time>2026-03-28T16:10:12.527Z</time></trkpt><trkpt lat="44.5340027" lon="10.7567338"><ele>123.0</ele><time>2026-03-28T16:10:13.534Z</time></trkpt><trkpt lat="44.5342394" lon="10.7569854"><ele>122.0</ele><time>2026-03-28T16:10:14.532Z</time></trkpt><trkpt lat="44.5344863" lon="10.7572437"><ele>122.0</ele><time>2026-03-28T16:10:15.533Z</time></trkpt><trkpt lat="44.534729" lon="10.7575013"><ele>122.0</ele><time>2026-03-28T16:10:16.539Z</time></trkpt><trkpt lat="44.5349838" lon="10.7577496"><ele>122.0</ele><time>2026-03-28T16:10:17.534Z</time></trkpt><trkpt lat="44.5352371" lon="10.757986"><ele>122.0</ele><time>2026-03-28T16:10:18.54Z</time></trkpt><trkpt lat="44.5354772" lon="10.7582326"><ele>122.0</ele><time>2026-03-28T16:10:19.532Z</time></trkpt><trkpt lat="44.5357039" lon="10.7584533"><ele>122.0</ele><time>2026-03-28T16:10:20.539Z</time></trkpt><trkpt lat="44.535908" lon="10.7586501"><ele>123.0</ele><time>2026-03-28T16:10:21.532Z</time></trkpt><trkpt lat="44.5361083" lon="10.7588499"><ele>124.0</ele><time>2026-03-28T16:10:22.538Z</time></trkpt><trkpt lat="44.5362987" lon="10.7590424"><ele>124.0</ele><time>2026-03-28T16:10:23.538Z</time></trkpt><trkpt lat="44.5364856" lon="10.759255"><ele>124.0</ele><time>2026-03-28T16:10:24.535Z</time></trkpt><trkpt lat="44.5366743" lon="10.7594602"><ele>123.0</ele><time>2026-03-28T16:10:25.536Z</time></trkpt><trkpt lat="44.5368616" lon="10.7596483"><ele>122.0</ele><time>2026-03-28T16:10:26.536Z</time></trkpt><trkpt lat="44.5370541" lon="10.7598365"><ele>122.0</ele><time>2026-03-28T16:10:27.539Z</time></trkpt><trkpt lat="44.5372417" lon="10.7600119"><ele>122.0</ele><time>2026-03-28T16:10:28.536Z</time></trkpt><trkpt lat="44.5374436" lon="10.7602078"><ele>120.0</ele><time>2026-03-28T16:10:29.533Z</time></trkpt><trkpt lat="44.5376502" lon="10.7604139"><ele>118.0</ele><time>2026-03-28T16:10:30.53Z</time></trkpt><trkpt lat="44.5378787" lon="10.7606314"><ele>119.0</ele><time>2026-03-28T16:10:31.531Z</time></trkpt><trkpt lat="44.5381024" lon="10.7608697"><ele>120.0</ele><time>2026-03-28T16:10:32.528Z</time></trkpt><trkpt lat="44.5383384" lon="10.7611209"><ele>120.5</ele><time>2026-03-28T16:10:33.542Z</time></trkpt><trkpt lat="44.5385767" lon="10.7613623"><ele>121.0</ele><time>2026-03-28T16:10:34.529Z</time></trkpt><trkpt lat="44.5388107" lon="10.7616095"><ele>121.0</ele><time>2026-03-28T16:10:35.53Z</time></trkpt><trkpt lat="44.5390543" lon="10.7618474"><ele>121.0</ele><time>2026-03-28T16:10:36.53Z</time></trkpt><trkpt lat="44.5392919" lon="10.7620832"><ele>121.0</ele><time>2026-03-28T16:10:37.527Z</time></trkpt><trkpt lat="44.5395093" lon="10.7622973"><ele>121.0</ele><time>2026-03-28T16:10:38.529Z</time></trkpt><trkpt lat="44.539713" lon="10.7624856"><ele>119.0</ele><time>2026-03-28T16:10:39.53Z</time></trkpt><trkpt lat="44.5399154" lon="10.7626633"><ele>117.0</ele><time>2026-03-28T16:10:40.524Z</time></trkpt><trkpt lat="44.5400978" lon="10.7628337"><ele>116.66666666666666</ele><time>2026-03-28T16:10:41.521Z</time></trkpt><trkpt lat="44.5402804" lon="10.7629909"><ele>116.33333333333333</ele><time>2026-03-28T16:10:42.523Z</time></trkpt><trkpt lat="44.540453" lon="10.7631219"><ele>116.0</ele><time>2026-03-28T16:10:43.522Z</time></trkpt><trkpt lat="44.5406135" lon="10.7632355"><ele>116.0</ele><time>2026-03-28T16:10:44.529Z</time></trkpt><trkpt lat="44.5407417" lon="10.7633305"><ele>116.0</ele><time>2026-03-28T16:10:45.523Z</time></trkpt><trkpt lat="44.5408541" lon="10.76343"><ele>116.0</ele><time>2026-03-28T16:10:46.528Z</time></trkpt><trkpt lat="44.5409722" lon="10.7635428"><ele>116.0</ele><time>2026-03-28T16:10:47.529Z</time></trkpt><trkpt lat="44.541098" lon="10.7636699"><ele>115.33333333333333</ele><time>2026-03-28T16:10:48.527Z</time></trkpt><trkpt lat="44.5412428" lon="10.7637793"><ele>114.66666666666666</ele><time>2026-03-28T16:10:49.529Z</time></trkpt><trkpt lat="44.5413979" lon="10.7639007"><ele>114.0</ele><time>2026-03-28T16:10:50.534Z</time></trkpt><trkpt lat="44.5415427" lon="10.7640196"><ele>114.0</ele><time>2026-03-28T16:10:51.538Z</time></trkpt><trkpt lat="44.541718" lon="10.7641668"><ele>114.0</ele><time>2026-03-28T16:10:52.528Z</time></trkpt><trkpt lat="44.5419107" lon="10.7643464"><ele>114.0</ele><time>2026-03-28T16:10:53.528Z</time></trkpt><trkpt lat="44.5421285" lon="10.7645259"><ele>116.0</ele><time>2026-03-28T16:10:54.527Z</time></trkpt><trkpt lat="44.542356" lon="10.764719"><ele>118.0</ele><time>2026-03-28T16:10:55.537Z</time></trkpt><trkpt lat="44.5425803" lon="10.7648805"><ele>118.0</ele><time>2026-03-28T16:10:56.537Z</time></trkpt><trkpt lat="44.5427719" lon="10.7650509"><ele>118.0</ele><time>2026-03-28T16:10:57.532Z</time></trkpt><trkpt lat="44.5429685" lon="10.7652344"><ele>118.0</ele><time>2026-03-28T16:10:58.533Z</time></trkpt><trkpt lat="44.5431757" lon="10.7654049"><ele>118.0</ele><time>2026-03-28T16:10:59.536Z</time></trkpt><trkpt lat="44.5433911" lon="10.7655542"><ele>118.0</ele><time>2026-03-28T16:11:00.535Z</time></trkpt><trkpt lat="44.5436118" lon="10.7657151"><ele>118.0</ele><time>2026-03-28T16:11:01.54Z</time></trkpt><trkpt lat="44.5438485" lon="10.7658719"><ele>116.5</ele><time>2026-03-28T16:11:02.534Z</time></trkpt><trkpt lat="44.5440819" lon="10.7660472"><ele>115.0</ele><time>2026-03-28T16:11:03.542Z</time></trkpt><trkpt lat="44.5443273" lon="10.7662287"><ele>115.5</ele><time>2026-03-28T16:11:04.539Z</time></trkpt><trkpt lat="44.5445677" lon="10.7664052"><ele>116.0</ele><time>2026-03-28T16:11:05.531Z</time></trkpt><trkpt lat="44.5448192" lon="10.7665385"><ele>116.0</ele><time>2026-03-28T16:11:06.528Z</time></trkpt><trkpt lat="44.5450785" lon="10.7666573"><ele>116.0</ele><time>2026-03-28T16:11:07.545Z</time></trkpt><trkpt lat="44.5453383" lon="10.7667668"><ele>116.0</ele><time>2026-03-28T16:11:08.543Z</time></trkpt><trkpt lat="44.5456053" lon="10.7668752"><ele>116.0</ele><time>2026-03-28T16:11:09.549Z</time></trkpt><trkpt lat="44.5458735" lon="10.7670063"><ele>116.0</ele><time>2026-03-28T16:11:10.542Z</time></trkpt><trkpt lat="44.5461521" lon="10.7671179"><ele>116.0</ele><time>2026-03-28T16:11:11.546Z</time></trkpt><trkpt lat="44.5464288" lon="10.7672399"><ele>116.5</ele><time>2026-03-28T16:11:12.545Z</time></trkpt><trkpt lat="44.5467025" lon="10.7673731"><ele>117.0</ele><time>2026-03-28T16:11:13.542Z</time></trkpt><trkpt lat="44.5469681" lon="10.7674885"><ele>116.5</ele><time>2026-03-28T16:11:14.547Z</time></trkpt><trkpt lat="44.5472158" lon="10.7675828"><ele>116.0</ele><time>2026-03-28T16:11:15.544Z</time></trkpt><trkpt lat="44.5474457" lon="10.7676803"><ele>116.0</ele><time>2026-03-28T16:11:16.542Z</time></trkpt><trkpt lat="44.547668" lon="10.7677702"><ele>116.0</ele><time>2026-03-28T16:11:17.548Z</time></trkpt><trkpt lat="44.5478718" lon="10.7678525"><ele>116.0</ele><time>2026-03-28T16:11:18.535Z</time></trkpt><trkpt lat="44.5480566" lon="10.7679322"><ele>114.66666666666666</ele><time>2026-03-28T16:11:19.535Z</time></trkpt><trkpt lat="44.5482311" lon="10.7679979"><ele>113.33333333333334</ele><time>2026-03-28T16:11:20.535Z</time></trkpt><trkpt lat="44.5483745" lon="10.7680527"><ele>112.0</ele><time>2026-03-28T16:11:21.535Z</time></trkpt><trkpt lat="44.5485114" lon="10.7681131"><ele>112.0</ele><time>2026-03-28T16:11:22.539Z</time></trkpt><trkpt lat="44.5486451" lon="10.7681774"><ele>112.0</ele><time>2026-03-28T16:11:23.541Z</time></trkpt><trkpt lat="44.5487742" lon="10.768238"><ele>112.0</ele><time>2026-03-28T16:11:24.541Z</time></trkpt><trkpt lat="44.5489093" lon="10.7683022"><ele>112.0</ele><time>2026-03-28T16:11:25.544Z</time></trkpt><trkpt lat="44.5490423" lon="10.7683742"><ele>112.66666666666667</ele><time>2026-03-28T16:11:26.544Z</time></trkpt><trkpt lat="44.5491805" lon="10.7684591"><ele>113.33333333333334</ele><time>2026-03-28T16:11:27.546Z</time></trkpt><trkpt lat="44.5493241" lon="10.7685333"><ele>114.0</ele><time>2026-03-28T16:11:28.541Z</time></trkpt><trkpt lat="44.5494691" lon="10.7685839"><ele>112.5</ele><time>2026-03-28T16:11:29.528Z</time></trkpt><trkpt lat="44.5495955" lon="10.7686299"><ele>111.0</ele><time>2026-03-28T16:11:30.528Z</time></trkpt><trkpt lat="44.5497158" lon="10.7686742"><ele>109.5</ele><time>2026-03-28T16:11:31.541Z</time></trkpt><trkpt lat="44.5498494" lon="10.768708"><ele>108.0</ele><time>2026-03-28T16:11:32.531Z</time></trkpt><trkpt lat="44.550016" lon="10.7687645"><ele>108.0</ele><time>2026-03-28T16:11:33.534Z</time></trkpt><trkpt lat="44.5502069" lon="10.7688143"><ele>108.0</ele><time>2026-03-28T16:11:34.532Z</time></trkpt><trkpt lat="44.5504119" lon="10.7688957"><ele>108.0</ele><time>2026-03-28T16:11:35.528Z</time></trkpt><trkpt lat="44.5506419" lon="10.7689858"><ele>108.0</ele><time>2026-03-28T16:11:36.531Z</time></trkpt><trkpt lat="44.550873" lon="10.7690517"><ele>108.0</ele><time>2026-03-28T16:11:37.544Z</time></trkpt><trkpt lat="44.5510976" lon="10.7691099"><ele>107.66666666666666</ele><time>2026-03-28T16:11:38.542Z</time></trkpt><trkpt lat="44.5512964" lon="10.7691418"><ele>107.33333333333333</ele><time>2026-03-28T16:11:39.537Z</time></trkpt><trkpt lat="44.5514789" lon="10.7691771"><ele>107.0</ele><time>2026-03-28T16:11:40.536Z</time></trkpt><trkpt lat="44.5516607" lon="10.7691997"><ele>107.0</ele><time>2026-03-28T16:11:41.538Z</time></trkpt><trkpt lat="44.5518228" lon="10.7692137"><ele>107.0</ele><time>2026-03-28T16:11:42.55Z</time></trkpt><trkpt lat="44.5519662" lon="10.7692401"><ele>107.0</ele><time>2026-03-28T16:11:43.548Z</time></trkpt><trkpt lat="44.5521173" lon="10.7692684"><ele>106.66666666666666</ele><time>2026-03-28T16:11:44.542Z</time></trkpt><trkpt lat="44.5522616" lon="10.7692744"><ele>106.33333333333334</ele><time>2026-03-28T16:11:45.542Z</time></trkpt><trkpt lat="44.5524025" lon="10.7692466"><ele>106.0</ele><time>2026-03-28T16:11:46.545Z</time></trkpt><trkpt lat="44.5525647" lon="10.7691787"><ele>106.0</ele><time>2026-03-28T16:11:47.533Z</time></trkpt><trkpt lat="44.5527444" lon="10.769093"><ele>106.0</ele><time>2026-03-28T16:11:48.54Z</time></trkpt><trkpt lat="44.5529322" lon="10.7690122"><ele>106.0</ele><time>2026-03-28T16:11:49.545Z</time></trkpt><trkpt lat="44.5531238" lon="10.7689321"><ele>106.66666666666667</ele><time>2026-03-28T16:11:50.546Z</time></trkpt><trkpt lat="44.5533181" lon="10.7688499"><ele>107.33333333333334</ele><time>2026-03-28T16:11:51.552Z</time></trkpt><trkpt lat="44.5535173" lon="10.7687536"><ele>108.0</ele><time>2026-03-28T16:11:52.545Z</time></trkpt><trkpt lat="44.5537043" lon="10.7686654"><ele>107.66666666666666</ele><time>2026-03-28T16:11:53.545Z</time></trkpt><trkpt lat="44.5538966" lon="10.7685648"><ele>107.33333333333333</ele><time>2026-03-28T16:11:54.542Z</time></trkpt><trkpt lat="44.5540893" lon="10.768455"><ele>107.0</ele><time>2026-03-28T16:11:55.54Z</time></trkpt><trkpt lat="44.5542893" lon="10.7683289"><ele>107.5</ele><time>2026-03-28T16:11:56.54Z</time></trkpt><trkpt lat="44.5544964" lon="10.7682119"><ele>108.0</ele><time>2026-03-28T16:11:57.543Z</time></trkpt><trkpt lat="44.5547171" lon="10.7680894"><ele>108.0</ele><time>2026-03-28T16:11:58.544Z</time></trkpt><trkpt lat="44.5549389" lon="10.7679518"><ele>108.0</ele><time>2026-03-28T16:11:59.541Z</time></trkpt><trkpt lat="44.5551599" lon="10.7677978"><ele>108.0</ele><time>2026-03-28T16:12:00.545Z</time></trkpt><trkpt lat="44.5553778" lon="10.7676746"><ele>108.0</ele><time>2026-03-28T16:12:01.548Z</time></trkpt><trkpt lat="44.5555844" lon="10.7675586"><ele>108.0</ele><time>2026-03-28T16:12:02.538Z</time></trkpt><trkpt lat="44.5557801" lon="10.7674646"><ele>108.0</ele><time>2026-03-28T16:12:03.543Z</time></trkpt><trkpt lat="44.5559721" lon="10.7673889"><ele>108.0</ele><time>2026-03-28T16:12:04.538Z</time></trkpt><trkpt lat="44.5561578" lon="10.7673339"><ele>107.66666666666666</ele><time>2026-03-28T16:12:05.538Z</time></trkpt><trkpt lat="44.556329" lon="10.7672755"><ele>107.33333333333333</ele><time>2026-03-28T16:12:06.545Z</time></trkpt><trkpt lat="44.5564856" lon="10.7672283"><ele>107.0</ele><time>2026-03-28T16:12:07.54Z</time></trkpt><trkpt lat="44.5566417" lon="10.7672015"><ele>107.0</ele><time>2026-03-28T16:12:08.545Z</time></trkpt><trkpt lat="44.5567802" lon="10.7671668"><ele>107.0</ele><time>2026-03-28T16:12:09.535Z</time></trkpt><trkpt lat="44.5569033" lon="10.7671466"><ele>107.0</ele><time>2026-03-28T16:12:10.536Z</time></trkpt><trkpt lat="44.5570161" lon="10.7671265"><ele>107.0</ele><time>2026-03-28T16:12:11.534Z</time></trkpt><trkpt lat="44.5571368" lon="10.7671231"><ele>107.0</ele><time>2026-03-28T16:12:12.537Z</time></trkpt><trkpt lat="44.5572574" lon="10.767122"><ele>107.0</ele><time>2026-03-28T16:12:13.543Z</time></trkpt><trkpt lat="44.557378" lon="10.7671418"><ele>107.0</ele><time>2026-03-28T16:12:14.542Z</time></trkpt><trkpt lat="44.5575067" lon="10.7671661"><ele>107.0</ele><time>2026-03-28T16:12:15.532Z</time></trkpt><trkpt lat="44.557631" lon="10.7672138"><ele>107.0</ele><time>2026-03-28T16:12:16.54Z</time></trkpt><trkpt lat="44.5577445" lon="10.7672661"><ele>106.99999999999999</ele><time>2026-03-28T16:12:17.533Z</time></trkpt><trkpt lat="44.5578421" lon="10.7673294"><ele>106.99999999999999</ele><time>2026-03-28T16:12:18.533Z</time></trkpt><trkpt lat="44.5579406" lon="10.7673925"><ele>107.0</ele><time>2026-03-28T16:12:19.54Z</time></trkpt><trkpt lat="44.558038" lon="10.7674745"><ele>107.0</ele><time>2026-03-28T16:12:20.533Z</time></trkpt><trkpt lat="44.558146" lon="10.7675687"><ele>107.5</ele><time>2026-03-28T16:12:21.539Z</time></trkpt><trkpt lat="44.5582521" lon="10.7676714"><ele>108.0</ele><time>2026-03-28T16:12:22.531Z</time></trkpt><trkpt lat="44.5583574" lon="10.7677845"><ele>108.5</ele><time>2026-03-28T16:12:23.538Z</time></trkpt><trkpt lat="44.55846" lon="10.767905"><ele>109.0</ele><time>2026-03-28T16:12:24.529Z</time></trkpt><trkpt lat="44.5585836" lon="10.768037"><ele>109.66666666666667</ele><time>2026-03-28T16:12:25.527Z</time></trkpt><trkpt lat="44.5587339" lon="10.7681984"><ele>110.33333333333334</ele><time>2026-03-28T16:12:26.525Z</time></trkpt><trkpt lat="44.5588814" lon="10.7683847"><ele>111.0</ele><time>2026-03-28T16:12:27.525Z</time></trkpt><trkpt lat="44.5590029" lon="10.7685442"><ele>110.0</ele><time>2026-03-28T16:12:28.525Z</time></trkpt><trkpt lat="44.5591117" lon="10.7686835"><ele>109.0</ele><time>2026-03-28T16:12:29.526Z</time></trkpt><trkpt lat="44.5592177" lon="10.768799"><ele>108.0</ele><time>2026-03-28T16:12:30.529Z</time></trkpt><trkpt lat="44.5593094" lon="10.768919"><ele>107.0</ele><time>2026-03-28T16:12:31.536Z</time></trkpt><trkpt lat="44.5593879" lon="10.7690405"><ele>107.0</ele><time>2026-03-28T16:12:32.528Z</time></trkpt><trkpt lat="44.5594468" lon="10.7691617"><ele>107.0</ele><time>2026-03-28T16:12:33.545Z</time></trkpt><trkpt lat="44.5595021" lon="10.7693081"><ele>107.0</ele><time>2026-03-28T16:12:34.534Z</time></trkpt><trkpt lat="44.5595606" lon="10.7694659"><ele>107.0</ele><time>2026-03-28T16:12:35.532Z</time></trkpt><trkpt lat="44.5596028" lon="10.769646"><ele>106.5</ele><time>2026-03-28T16:12:36.538Z</time></trkpt><trkpt lat="44.5596343" lon="10.7698157"><ele>106.0</ele><time>2026-03-28T16:12:37.534Z</time></trkpt><trkpt lat="44.5596475" lon="10.7699962"><ele>105.5</ele><time>2026-03-28T16:12:38.535Z</time></trkpt><trkpt lat="44.5596426" lon="10.7701903"><ele>105.0</ele><time>2026-03-28T16:12:39.538Z</time></trkpt><trkpt lat="44.5596334" lon="10.7704122"><ele>104.0</ele><time>2026-03-28T16:12:40.531Z</time></trkpt><trkpt lat="44.5596131" lon="10.7706917"><ele>103.0</ele><time>2026-03-28T16:12:41.543Z</time></trkpt><trkpt lat="44.559582" lon="10.770993"><ele>102.0</ele><time>2026-03-28T16:12:42.541Z</time></trkpt><trkpt lat="44.5595433" lon="10.7713111"><ele>101.5</ele><time>2026-03-28T16:12:43.54Z</time></trkpt><trkpt lat="44.5595049" lon="10.7716396"><ele>101.0</ele><time>2026-03-28T16:12:44.54Z</time></trkpt><trkpt lat="44.5594781" lon="10.7719863"><ele>99.5</ele><time>2026-03-28T16:12:45.541Z</time></trkpt><trkpt lat="44.5594473" lon="10.7723247"><ele>98.0</ele><time>2026-03-28T16:12:46.54Z</time></trkpt><trkpt lat="44.5594163" lon="10.7726696"><ele>98.0</ele><time>2026-03-28T16:12:47.544Z</time></trkpt><trkpt lat="44.559382" lon="10.7729997"><ele>98.0</ele><time>2026-03-28T16:12:48.538Z</time></trkpt><trkpt lat="44.5593575" lon="10.7733056"><ele>98.66666666666666</ele><time>2026-03-28T16:12:49.55Z</time></trkpt><trkpt lat="44.5593293" lon="10.7736096"><ele>99.33333333333334</ele><time>2026-03-28T16:12:50.538Z</time></trkpt><trkpt lat="44.5593" lon="10.7738908"><ele>100.0</ele><time>2026-03-28T16:12:51.54Z</time></trkpt><trkpt lat="44.5592754" lon="10.7741696"><ele>101.5</ele><time>2026-03-28T16:12:52.544Z</time></trkpt><trkpt lat="44.5592571" lon="10.774474"><ele>103.0</ele><time>2026-03-28T16:12:53.536Z</time></trkpt><trkpt lat="44.5592221" lon="10.7748107"><ele>103.0</ele><time>2026-03-28T16:12:54.539Z</time></trkpt><trkpt lat="44.5591903" lon="10.7751432"><ele>103.0</ele><time>2026-03-28T16:12:55.544Z</time></trkpt><trkpt lat="44.5591609" lon="10.7754869"><ele>106.0</ele><time>2026-03-28T16:12:56.544Z</time></trkpt><trkpt lat="44.5591305" lon="10.7758135"><ele>109.0</ele><time>2026-03-28T16:12:57.536Z</time></trkpt><trkpt lat="44.5590943" lon="10.7761226"><ele>109.66666666666667</ele><time>2026-03-28T16:12:58.539Z</time></trkpt><trkpt lat="44.5590702" lon="10.776426"><ele>110.33333333333334</ele><time>2026-03-28T16:12:59.544Z</time></trkpt><trkpt lat="44.5590424" lon="10.7767125"><ele>111.0</ele><time>2026-03-28T16:13:00.541Z</time></trkpt><trkpt lat="44.5590172" lon="10.7770041"><ele>109.0</ele><time>2026-03-28T16:13:01.546Z</time></trkpt><trkpt lat="44.5589846" lon="10.7772781"><ele>107.0</ele><time>2026-03-28T16:13:02.537Z</time></trkpt><trkpt lat="44.5589584" lon="10.7775435"><ele>105.0</ele><time>2026-03-28T16:13:03.549Z</time></trkpt><trkpt lat="44.5589313" lon="10.777799"><ele>104.33333333333334</ele><time>2026-03-28T16:13:04.539Z</time></trkpt><trkpt lat="44.5589141" lon="10.7780457"><ele>103.66666666666667</ele><time>2026-03-28T16:13:05.538Z</time></trkpt><trkpt lat="44.5589075" lon="10.7782735"><ele>103.0</ele><time>2026-03-28T16:13:06.533Z</time></trkpt><trkpt lat="44.5589047" lon="10.778486"><ele>102.33333333333334</ele><time>2026-03-28T16:13:07.542Z</time></trkpt><trkpt lat="44.5589041" lon="10.7787076"><ele>101.66666666666666</ele><time>2026-03-28T16:13:08.541Z</time></trkpt><trkpt lat="44.5589088" lon="10.7789375"><ele>101.0</ele><time>2026-03-28T16:13:09.544Z</time></trkpt><trkpt lat="44.5589262" lon="10.7791484"><ele>102.0</ele><time>2026-03-28T16:13:10.547Z</time></trkpt><trkpt lat="44.558951" lon="10.7793687"><ele>103.0</ele><time>2026-03-28T16:13:11.54Z</time></trkpt><trkpt lat="44.5589726" lon="10.7795986"><ele>104.0</ele><time>2026-03-28T16:13:12.539Z</time></trkpt><trkpt lat="44.558993" lon="10.7798443"><ele>104.0</ele><time>2026-03-28T16:13:13.538Z</time></trkpt><trkpt lat="44.5589915" lon="10.7801005"><ele>104.0</ele><time>2026-03-28T16:13:14.536Z</time></trkpt><trkpt lat="44.5589736" lon="10.7803508"><ele>104.0</ele><time>2026-03-28T16:13:15.536Z</time></trkpt><trkpt lat="44.5589263" lon="10.780569"><ele>104.0</ele><time>2026-03-28T16:13:16.546Z</time></trkpt><trkpt lat="44.5588488" lon="10.7807538"><ele>104.0</ele><time>2026-03-28T16:13:17.54Z</time></trkpt><trkpt lat="44.5587273" lon="10.7809074"><ele>104.0</ele><time>2026-03-28T16:13:18.55Z</time></trkpt><trkpt lat="44.558629" lon="10.7810643"><ele>104.0</ele><time>2026-03-28T16:13:19.543Z</time></trkpt><trkpt lat="44.5585811" lon="10.7812468"><ele>104.0</ele><time>2026-03-28T16:13:20.531Z</time></trkpt><trkpt lat="44.5585321" lon="10.7814193"><ele>104.0</ele><time>2026-03-28T16:13:21.548Z</time></trkpt><trkpt lat="44.5584653" lon="10.7815589"><ele>104.0</ele><time>2026-03-28T16:13:22.537Z</time></trkpt><trkpt lat="44.5583834" lon="10.7816698"><ele>104.0</ele><time>2026-03-28T16:13:23.543Z</time></trkpt><trkpt lat="44.5582816" lon="10.7817416"><ele>104.0</ele><time>2026-03-28T16:13:24.529Z</time></trkpt><trkpt lat="44.5581768" lon="10.7817894"><ele>104.0</ele><time>2026-03-28T16:13:25.545Z</time></trkpt><trkpt lat="44.558086" lon="10.7818748"><ele>104.0</ele><time>2026-03-28T16:13:26.527Z</time></trkpt><trkpt lat="44.5580397" lon="10.7819962"><ele>104.0</ele><time>2026-03-28T16:13:27.538Z</time></trkpt><trkpt lat="44.5580268" lon="10.782124"><ele>104.0</ele><time>2026-03-28T16:13:28.542Z</time></trkpt><trkpt lat="44.5580622" lon="10.7822439"><ele>104.0</ele><time>2026-03-28T16:13:29.545Z</time></trkpt><trkpt lat="44.5581331" lon="10.7823507"><ele>104.0</ele><time>2026-03-28T16:13:30.539Z</time></trkpt><trkpt lat="44.5582417" lon="10.7824227"><ele>104.0</ele><time>2026-03-28T16:13:31.532Z</time></trkpt><trkpt lat="44.5583803" lon="10.782502"><ele>104.0</ele><time>2026-03-28T16:13:32.542Z</time></trkpt><trkpt lat="44.5585442" lon="10.7825989"><ele>104.0</ele><time>2026-03-28T16:13:33.532Z</time></trkpt><trkpt lat="44.5586923" lon="10.7827436"><ele>104.0</ele><time>2026-03-28T16:13:34.536Z</time></trkpt><trkpt lat="44.5588472" lon="10.7828991"><ele>104.33333333333333</ele><time>2026-03-28T16:13:35.538Z</time></trkpt><trkpt lat="44.5590057" lon="10.78303"><ele>104.66666666666666</ele><time>2026-03-28T16:13:36.522Z</time></trkpt><trkpt lat="44.559209" lon="10.7831162"><ele>105.0</ele><time>2026-03-28T16:13:37.539Z</time></trkpt><trkpt lat="44.559437" lon="10.7831704"><ele>104.5</ele><time>2026-03-28T16:13:38.525Z</time></trkpt><trkpt lat="44.5596677" lon="10.7832438"><ele>104.0</ele><time>2026-03-28T16:13:39.53Z</time></trkpt><trkpt lat="44.5598906" lon="10.7833084"><ele>104.0</ele><time>2026-03-28T16:13:40.535Z</time></trkpt><trkpt lat="44.5601163" lon="10.783356"><ele>104.0</ele><time>2026-03-28T16:13:41.54Z</time></trkpt><trkpt lat="44.5603504" lon="10.7834189"><ele>103.0</ele><time>2026-03-28T16:13:42.539Z</time></trkpt><trkpt lat="44.5605986" lon="10.7834946"><ele>102.0</ele><time>2026-03-28T16:13:43.541Z</time></trkpt><trkpt lat="44.5608494" lon="10.7835729"><ele>102.0</ele><time>2026-03-28T16:13:44.538Z</time></trkpt><trkpt lat="44.5611024" lon="10.7836388"><ele>102.0</ele><time>2026-03-28T16:13:45.544Z</time></trkpt><trkpt lat="44.5613534" lon="10.7837164"><ele>102.0</ele><time>2026-03-28T16:13:46.536Z</time></trkpt><trkpt lat="44.5616061" lon="10.7837929"><ele>102.0</ele><time>2026-03-28T16:13:47.54Z</time></trkpt><trkpt lat="44.5618605" lon="10.7838621"><ele>101.5</ele><time>2026-03-28T16:13:48.539Z</time></trkpt><trkpt lat="44.5621205" lon="10.7839384"><ele>101.0</ele><time>2026-03-28T16:13:49.535Z</time></trkpt><trkpt lat="44.5623864" lon="10.7839937"><ele>101.0</ele><time>2026-03-28T16:13:50.535Z</time></trkpt><trkpt lat="44.5626532" lon="10.7840451"><ele>101.0</ele><time>2026-03-28T16:13:51.535Z</time></trkpt><trkpt lat="44.5629216" lon="10.7841084"><ele>100.5</ele><time>2026-03-28T16:13:52.54Z</time></trkpt><trkpt lat="44.5631894" lon="10.7841656"><ele>100.0</ele><time>2026-03-28T16:13:53.54Z</time></trkpt><trkpt lat="44.5634481" lon="10.7842181"><ele>99.5</ele><time>2026-03-28T16:13:54.543Z</time></trkpt><trkpt lat="44.5637151" lon="10.7842671"><ele>99.0</ele><time>2026-03-28T16:13:55.539Z</time></trkpt><trkpt lat="44.5639727" lon="10.7843194"><ele>99.5</ele><time>2026-03-28T16:13:56.543Z</time></trkpt><trkpt lat="44.5642355" lon="10.7843836"><ele>100.0</ele><time>2026-03-28T16:13:57.54Z</time></trkpt><trkpt lat="44.5644916" lon="10.7844366"><ele>100.5</ele><time>2026-03-28T16:13:58.542Z</time></trkpt><trkpt lat="44.5647492" lon="10.7844931"><ele>101.0</ele><time>2026-03-28T16:13:59.542Z</time></trkpt><trkpt lat="44.564995" lon="10.7845508"><ele>101.0</ele><time>2026-03-28T16:14:00.549Z</time></trkpt><trkpt lat="44.5652424" lon="10.7846"><ele>101.0</ele><time>2026-03-28T16:14:01.549Z</time></trkpt><trkpt lat="44.5654762" lon="10.7846502"><ele>99.0</ele><time>2026-03-28T16:14:02.549Z</time></trkpt><trkpt lat="44.5657117" lon="10.7847098"><ele>97.0</ele><time>2026-03-28T16:14:03.548Z</time></trkpt><trkpt lat="44.5659433" lon="10.7847707"><ele>97.0</ele><time>2026-03-28T16:14:04.543Z</time></trkpt><trkpt lat="44.566177" lon="10.7848231"><ele>97.0</ele><time>2026-03-28T16:14:05.543Z</time></trkpt><trkpt lat="44.566412" lon="10.7848818"><ele>96.5</ele><time>2026-03-28T16:14:06.542Z</time></trkpt><trkpt lat="44.5666433" lon="10.7849317"><ele>96.0</ele><time>2026-03-28T16:14:07.543Z</time></trkpt><trkpt lat="44.5668719" lon="10.7849923"><ele>96.0</ele><time>2026-03-28T16:14:08.544Z</time></trkpt><trkpt lat="44.5670991" lon="10.7850509"><ele>96.0</ele><time>2026-03-28T16:14:09.543Z</time></trkpt><trkpt lat="44.5673266" lon="10.7851066"><ele>96.0</ele><time>2026-03-28T16:14:10.544Z</time></trkpt><trkpt lat="44.5675574" lon="10.7851709"><ele>96.0</ele><time>2026-03-28T16:14:11.543Z</time></trkpt><trkpt lat="44.5677894" lon="10.7852245"><ele>97.5</ele><time>2026-03-28T16:14:12.545Z</time></trkpt><trkpt lat="44.5680229" lon="10.7852859"><ele>99.0</ele><time>2026-03-28T16:14:13.544Z</time></trkpt><trkpt lat="44.5682503" lon="10.7853469"><ele>99.0</ele><time>2026-03-28T16:14:14.544Z</time></trkpt><trkpt lat="44.5684857" lon="10.7854039"><ele>99.0</ele><time>2026-03-28T16:14:15.543Z</time></trkpt><trkpt lat="44.5687244" lon="10.7854726"><ele>98.0</ele><time>2026-03-28T16:14:16.549Z</time></trkpt><trkpt lat="44.5689695" lon="10.7855381"><ele>97.0</ele><time>2026-03-28T16:14:17.542Z</time></trkpt><trkpt lat="44.5692156" lon="10.7855978"><ele>97.0</ele><time>2026-03-28T16:14:18.541Z</time></trkpt><trkpt lat="44.5694569" lon="10.7856575"><ele>97.0</ele><time>2026-03-28T16:14:19.541Z</time></trkpt><trkpt lat="44.5697033" lon="10.7857259"><ele>95.5</ele><time>2026-03-28T16:14:20.541Z</time></trkpt><trkpt lat="44.5699464" lon="10.7857747"><ele>94.0</ele><time>2026-03-28T16:14:21.541Z</time></trkpt><trkpt lat="44.5701805" lon="10.7858341"><ele>94.66666666666666</ele><time>2026-03-28T16:14:22.538Z</time></trkpt><trkpt lat="44.5703979" lon="10.7858877"><ele>95.33333333333333</ele><time>2026-03-28T16:14:23.55Z</time></trkpt><trkpt lat="44.5706226" lon="10.7859393"><ele>96.0</ele><time>2026-03-28T16:14:24.547Z</time></trkpt><trkpt lat="44.5708572" lon="10.7859778"><ele>95.5</ele><time>2026-03-28T16:14:25.55Z</time></trkpt><trkpt lat="44.5711001" lon="10.7860337"><ele>95.0</ele><time>2026-03-28T16:14:26.546Z</time></trkpt><trkpt lat="44.5713375" lon="10.7861232"><ele>93.5</ele><time>2026-03-28T16:14:27.542Z</time></trkpt><trkpt lat="44.5715845" lon="10.7862009"><ele>92.0</ele><time>2026-03-28T16:14:28.546Z</time></trkpt><trkpt lat="44.5718436" lon="10.7862729"><ele>92.0</ele><time>2026-03-28T16:14:29.547Z</time></trkpt><trkpt lat="44.5721071" lon="10.7863493"><ele>92.0</ele><time>2026-03-28T16:14:30.548Z</time></trkpt><trkpt lat="44.5723689" lon="10.7864174"><ele>92.0</ele><time>2026-03-28T16:14:31.552Z</time></trkpt><trkpt lat="44.572641" lon="10.7864727"><ele>92.0</ele><time>2026-03-28T16:14:32.546Z</time></trkpt><trkpt lat="44.5729136" lon="10.7865369"><ele>92.5</ele><time>2026-03-28T16:14:33.555Z</time></trkpt><trkpt lat="44.573186" lon="10.7866045"><ele>93.0</ele><time>2026-03-28T16:14:34.546Z</time></trkpt><trkpt lat="44.5734566" lon="10.7866703"><ele>92.0</ele><time>2026-03-28T16:14:35.547Z</time></trkpt><trkpt lat="44.5737385" lon="10.7867329"><ele>91.0</ele><time>2026-03-28T16:14:36.548Z</time></trkpt><trkpt lat="44.5740097" lon="10.7868016"><ele>91.0</ele><time>2026-03-28T16:14:37.546Z</time></trkpt><trkpt lat="44.5742763" lon="10.7868694"><ele>91.0</ele><time>2026-03-28T16:14:38.545Z</time></trkpt><trkpt lat="44.5745519" lon="10.7869357"><ele>91.5</ele><time>2026-03-28T16:14:39.547Z</time></trkpt><trkpt lat="44.5748318" lon="10.787005"><ele>92.0</ele><time>2026-03-28T16:14:40.547Z</time></trkpt><trkpt lat="44.5751057" lon="10.7870758"><ele>91.0</ele><time>2026-03-28T16:14:41.547Z</time></trkpt><trkpt lat="44.5753785" lon="10.7871476"><ele>90.0</ele><time>2026-03-28T16:14:42.546Z</time></trkpt><trkpt lat="44.5756546" lon="10.7872083"><ele>90.0</ele><time>2026-03-28T16:14:43.546Z</time></trkpt><trkpt lat="44.5759298" lon="10.7872629"><ele>90.0</ele><time>2026-03-28T16:14:44.543Z</time></trkpt><trkpt lat="44.5761946" lon="10.7873333"><ele>89.5</ele><time>2026-03-28T16:14:45.545Z</time></trkpt><trkpt lat="44.5764665" lon="10.7874075"><ele>89.0</ele><time>2026-03-28T16:14:46.546Z</time></trkpt><trkpt lat="44.5767397" lon="10.7874682"><ele>89.0</ele><time>2026-03-28T16:14:47.549Z</time></trkpt><trkpt lat="44.5770001" lon="10.7875265"><ele>89.0</ele><time>2026-03-28T16:14:48.544Z</time></trkpt><trkpt lat="44.5772448" lon="10.7875911"><ele>88.5</ele><time>2026-03-28T16:14:49.548Z</time></trkpt><trkpt lat="44.5774935" lon="10.7876542"><ele>88.0</ele><time>2026-03-28T16:14:50.546Z</time></trkpt><trkpt lat="44.5777266" lon="10.787709"><ele>87.5</ele><time>2026-03-28T16:14:51.546Z</time></trkpt><trkpt lat="44.5779561" lon="10.7877668"><ele>87.0</ele><time>2026-03-28T16:14:52.548Z</time></trkpt><trkpt lat="44.5781906" lon="10.7878363"><ele>87.0</ele><time>2026-03-28T16:14:53.544Z</time></trkpt><trkpt lat="44.5784176" lon="10.7878894"><ele>87.0</ele><time>2026-03-28T16:14:54.551Z</time></trkpt><trkpt lat="44.5786566" lon="10.7879494"><ele>89.5</ele><time>2026-03-28T16:14:55.546Z</time></trkpt><trkpt lat="44.5789084" lon="10.7880116"><ele>92.0</ele><time>2026-03-28T16:14:56.549Z</time></trkpt><trkpt lat="44.5791669" lon="10.7880677"><ele>92.0</ele><time>2026-03-28T16:14:57.546Z</time></trkpt><trkpt lat="44.579436" lon="10.7881264"><ele>92.0</ele><time>2026-03-28T16:14:58.549Z</time></trkpt><trkpt lat="44.579719" lon="10.7881886"><ele>91.0</ele><time>2026-03-28T16:14:59.548Z</time></trkpt><trkpt lat="44.5799895" lon="10.78826"><ele>90.0</ele><time>2026-03-28T16:15:00.547Z</time></trkpt><trkpt lat="44.5802673" lon="10.788344"><ele>89.0</ele><time>2026-03-28T16:15:01.55Z</time></trkpt><trkpt lat="44.5805549" lon="10.7884233"><ele>88.0</ele><time>2026-03-28T16:15:02.547Z</time></trkpt><trkpt lat="44.5808375" lon="10.7885048"><ele>87.5</ele><time>2026-03-28T16:15:03.554Z</time></trkpt><trkpt lat="44.5811376" lon="10.7885755"><ele>87.0</ele><time>2026-03-28T16:15:04.547Z</time></trkpt><trkpt lat="44.5814212" lon="10.7886542"><ele>85.5</ele><time>2026-03-28T16:15:05.546Z</time></trkpt><trkpt lat="44.5817113" lon="10.7887377"><ele>84.0</ele><time>2026-03-28T16:15:06.544Z</time></trkpt><trkpt lat="44.5819972" lon="10.7888101"><ele>85.5</ele><time>2026-03-28T16:15:07.547Z</time></trkpt><trkpt lat="44.5822865" lon="10.7888691"><ele>87.0</ele><time>2026-03-28T16:15:08.553Z</time></trkpt><trkpt lat="44.582579" lon="10.7889489"><ele>86.5</ele><time>2026-03-28T16:15:09.547Z</time></trkpt><trkpt lat="44.5828669" lon="10.7890214"><ele>86.0</ele><time>2026-03-28T16:15:10.549Z</time></trkpt><trkpt lat="44.5831546" lon="10.7890874"><ele>86.0</ele><time>2026-03-28T16:15:11.545Z</time></trkpt><trkpt lat="44.5834472" lon="10.7891528"><ele>86.0</ele><time>2026-03-28T16:15:12.545Z</time></trkpt><trkpt lat="44.5837397" lon="10.7892182"><ele>85.5</ele><time>2026-03-28T16:15:13.547Z</time></trkpt><trkpt lat="44.5840289" lon="10.7892969"><ele>85.0</ele><time>2026-03-28T16:15:14.547Z</time></trkpt><trkpt lat="44.5843184" lon="10.7893735"><ele>84.5</ele><time>2026-03-28T16:15:15.547Z</time></trkpt><trkpt lat="44.5846055" lon="10.7894444"><ele>84.0</ele><time>2026-03-28T16:15:16.546Z</time></trkpt><trkpt lat="44.5848938" lon="10.7895136"><ele>84.0</ele><time>2026-03-28T16:15:17.546Z</time></trkpt><trkpt lat="44.5851747" lon="10.7895898"><ele>84.0</ele><time>2026-03-28T16:15:18.548Z</time></trkpt><trkpt lat="44.5854496" lon="10.7896575"><ele>82.5</ele><time>2026-03-28T16:15:19.548Z</time></trkpt><trkpt lat="44.5857243" lon="10.789724"><ele>81.0</ele><time>2026-03-28T16:15:20.548Z</time></trkpt><trkpt lat="44.5859891" lon="10.7897667"><ele>81.0</ele><time>2026-03-28T16:15:21.551Z</time></trkpt><trkpt lat="44.5862493" lon="10.7898364"><ele>81.0</ele><time>2026-03-28T16:15:22.544Z</time></trkpt><trkpt lat="44.5865242" lon="10.7898986"><ele>81.0</ele><time>2026-03-28T16:15:23.546Z</time></trkpt><trkpt lat="44.5868061" lon="10.7899675"><ele>81.0</ele><time>2026-03-28T16:15:24.543Z</time></trkpt><trkpt lat="44.5870999" lon="10.7900207"><ele>82.0</ele><time>2026-03-28T16:15:25.543Z</time></trkpt><trkpt lat="44.5874087" lon="10.7901072"><ele>83.0</ele><time>2026-03-28T16:15:26.548Z</time></trkpt><trkpt lat="44.587706" lon="10.7901901"><ele>83.0</ele><time>2026-03-28T16:15:27.541Z</time></trkpt><trkpt lat="44.5879995" lon="10.7902797"><ele>83.0</ele><time>2026-03-28T16:15:28.541Z</time></trkpt><trkpt lat="44.5882989" lon="10.7903564"><ele>83.0</ele><time>2026-03-28T16:15:29.552Z</time></trkpt><trkpt lat="44.588592" lon="10.7904404"><ele>83.0</ele><time>2026-03-28T16:15:30.546Z</time></trkpt><trkpt lat="44.5888867" lon="10.7905097"><ele>82.0</ele><time>2026-03-28T16:15:31.55Z</time></trkpt><trkpt lat="44.5891766" lon="10.7905876"><ele>81.0</ele><time>2026-03-28T16:15:32.546Z</time></trkpt><trkpt lat="44.5894619" lon="10.7906609"><ele>81.0</ele><time>2026-03-28T16:15:33.558Z</time></trkpt><trkpt lat="44.589747" lon="10.7907297"><ele>81.0</ele><time>2026-03-28T16:15:34.546Z</time></trkpt><trkpt lat="44.5900395" lon="10.7907982"><ele>81.0</ele><time>2026-03-28T16:15:35.54Z</time></trkpt><trkpt lat="44.5903164" lon="10.7908673"><ele>81.0</ele><time>2026-03-28T16:15:36.542Z</time></trkpt><trkpt lat="44.5905946" lon="10.7909474"><ele>81.0</ele><time>2026-03-28T16:15:37.546Z</time></trkpt><trkpt lat="44.5908904" lon="10.7910203"><ele>81.0</ele><time>2026-03-28T16:15:38.546Z</time></trkpt><trkpt lat="44.5911786" lon="10.7910902"><ele>80.0</ele><time>2026-03-28T16:15:39.549Z</time></trkpt><trkpt lat="44.5914613" lon="10.791153"><ele>79.0</ele><time>2026-03-28T16:15:40.545Z</time></trkpt><trkpt lat="44.5917449" lon="10.7912206"><ele>78.5</ele><time>2026-03-28T16:15:41.546Z</time></trkpt><trkpt lat="44.5920224" lon="10.7912805"><ele>78.0</ele><time>2026-03-28T16:15:42.546Z</time></trkpt><trkpt lat="44.5923029" lon="10.7913563"><ele>78.0</ele><time>2026-03-28T16:15:43.542Z</time></trkpt><trkpt lat="44.5925873" lon="10.7914246"><ele>78.0</ele><time>2026-03-28T16:15:44.546Z</time></trkpt><trkpt lat="44.5928717" lon="10.791498"><ele>78.5</ele><time>2026-03-28T16:15:45.547Z</time></trkpt><trkpt lat="44.5931503" lon="10.7915675"><ele>79.0</ele><time>2026-03-28T16:15:46.549Z</time></trkpt><trkpt lat="44.5934242" lon="10.7916397"><ele>79.0</ele><time>2026-03-28T16:15:47.548Z</time></trkpt><trkpt lat="44.5937046" lon="10.791704"><ele>79.0</ele><time>2026-03-28T16:15:48.542Z</time></trkpt><trkpt lat="44.5939804" lon="10.7917718"><ele>78.0</ele><time>2026-03-28T16:15:49.545Z</time></trkpt><trkpt lat="44.5942555" lon="10.7918488"><ele>77.0</ele><time>2026-03-28T16:15:50.54Z</time></trkpt><trkpt lat="44.5945268" lon="10.7919248"><ele>77.0</ele><time>2026-03-28T16:15:51.537Z</time></trkpt><trkpt lat="44.5947845" lon="10.7920004"><ele>77.0</ele><time>2026-03-28T16:15:52.54Z</time></trkpt><trkpt lat="44.5950664" lon="10.7920688"><ele>77.0</ele><time>2026-03-28T16:15:53.541Z</time></trkpt><trkpt lat="44.5953336" lon="10.7921332"><ele>77.0</ele><time>2026-03-28T16:15:54.543Z</time></trkpt><trkpt lat="44.5956005" lon="10.7921846"><ele>76.5</ele><time>2026-03-28T16:15:55.543Z</time></trkpt><trkpt lat="44.5958769" lon="10.7922543"><ele>76.0</ele><time>2026-03-28T16:15:56.546Z</time></trkpt><trkpt lat="44.5961464" lon="10.792329"><ele>76.0</ele><time>2026-03-28T16:15:57.545Z</time></trkpt><trkpt lat="44.5964201" lon="10.7923969"><ele>76.0</ele><time>2026-03-28T16:15:58.543Z</time></trkpt><trkpt lat="44.5966858" lon="10.7924542"><ele>76.0</ele><time>2026-03-28T16:15:59.546Z</time></trkpt><trkpt lat="44.5969298" lon="10.7925036"><ele>76.0</ele><time>2026-03-28T16:16:00.539Z</time></trkpt><trkpt lat="44.5971589" lon="10.7925591"><ele>76.0</ele><time>2026-03-28T16:16:01.545Z</time></trkpt><trkpt lat="44.5973702" lon="10.792619"><ele>76.0</ele><time>2026-03-28T16:16:02.542Z</time></trkpt><trkpt lat="44.597573" lon="10.7926638"><ele>76.0</ele><time>2026-03-28T16:16:03.545Z</time></trkpt><trkpt lat="44.5977618" lon="10.7927008"><ele>76.0</ele><time>2026-03-28T16:16:04.541Z</time></trkpt><trkpt lat="44.5979307" lon="10.792726"><ele>76.0</ele><time>2026-03-28T16:16:05.534Z</time></trkpt><trkpt lat="44.5980831" lon="10.7927757"><ele>76.0</ele><time>2026-03-28T16:16:06.532Z</time></trkpt><trkpt lat="44.5982109" lon="10.7928169"><ele>76.0</ele><time>2026-03-28T16:16:07.53Z</time></trkpt><trkpt lat="44.5983226" lon="10.7928913"><ele>76.0</ele><time>2026-03-28T16:16:08.537Z</time></trkpt><trkpt lat="44.5984025" lon="10.7930124"><ele>76.0</ele><time>2026-03-28T16:16:09.535Z</time></trkpt><trkpt lat="44.5984182" lon="10.7931858"><ele>76.0</ele><time>2026-03-28T16:16:10.532Z</time></trkpt><trkpt lat="44.598409" lon="10.7934006"><ele>76.33333333333333</ele><time>2026-03-28T16:16:11.516Z</time></trkpt><trkpt lat="44.5983879" lon="10.7936348"><ele>76.66666666666667</ele><time>2026-03-28T16:16:12.529Z</time></trkpt><trkpt lat="44.5983665" lon="10.7939131"><ele>77.0</ele><time>2026-03-28T16:16:13.531Z</time></trkpt><trkpt lat="44.5983478" lon="10.7941604"><ele>76.75</ele><time>2026-03-28T16:16:14.519Z</time></trkpt><trkpt lat="44.5983285" lon="10.7943876"><ele>76.5</ele><time>2026-03-28T16:16:15.524Z</time></trkpt><trkpt lat="44.5983101" lon="10.7945753"><ele>76.25</ele><time>2026-03-28T16:16:16.534Z</time></trkpt><trkpt lat="44.5982961" lon="10.7947256"><ele>76.0</ele><time>2026-03-28T16:16:17.529Z</time></trkpt><trkpt lat="44.5982804" lon="10.7948589"><ele>76.0</ele><time>2026-03-28T16:16:18.528Z</time></trkpt><trkpt lat="44.598262" lon="10.7949725"><ele>76.0</ele><time>2026-03-28T16:16:19.534Z</time></trkpt><trkpt lat="44.5982314" lon="10.7950675"><ele>76.0</ele><time>2026-03-28T16:16:20.531Z</time></trkpt><trkpt lat="44.5981871" lon="10.7951962"><ele>76.0</ele><time>2026-03-28T16:16:21.528Z</time></trkpt><trkpt lat="44.5981871" lon="10.7953447"><ele>76.0</ele><time>2026-03-28T16:16:22.533Z</time></trkpt><trkpt lat="44.5981949" lon="10.7954907"><ele>76.6</ele><time>2026-03-28T16:16:23.53Z</time></trkpt><trkpt lat="44.5981946" lon="10.7956478"><ele>77.19999999999999</ele><time>2026-03-28T16:16:24.528Z</time></trkpt><trkpt lat="44.5981792" lon="10.7958136"><ele>77.80000000000001</ele><time>2026-03-28T16:16:25.527Z</time></trkpt><trkpt lat="44.5981608" lon="10.7959698"><ele>78.4</ele><time>2026-03-28T16:16:26.528Z</time></trkpt><trkpt lat="44.598145" lon="10.796105"><ele>79.0</ele><time>2026-03-28T16:16:27.525Z</time></trkpt><trkpt lat="44.598132" lon="10.7961972"><ele>79.16666666666666</ele><time>2026-03-28T16:16:28.534Z</time></trkpt><trkpt lat="44.598114" lon="10.7962917"><ele>79.33333333333333</ele><time>2026-03-28T16:16:30.527Z</time></trkpt><trkpt lat="44.5981809" lon="10.7963736"><ele>79.5</ele><time>2026-03-28T16:16:35.538Z</time></trkpt><trkpt lat="44.598244" lon="10.7963998"><ele>79.66666666666667</ele><time>2026-03-28T16:16:37.537Z</time></trkpt><trkpt lat="44.5982603" lon="10.7963074"><ele>79.83333333333334</ele><time>2026-03-28T16:24:13.546Z</time></trkpt><trkpt lat="44.5981935" lon="10.7962989"><ele>80.0</ele><time>2026-03-28T16:24:17.549Z</time></trkpt><trkpt lat="44.5981292" lon="10.7964001"><ele>80.0</ele><time>2026-03-28T16:24:20.541Z</time></trkpt><trkpt lat="44.5981076" lon="10.7965048"><ele>80.0</ele><time>2026-03-28T16:24:21.523Z</time></trkpt><trkpt lat="44.5980903" lon="10.7965993"><ele>80.0</ele><time>2026-03-28T16:24:22.543Z</time></trkpt><trkpt lat="44.5980714" lon="10.796686"><ele>80.0</ele><time>2026-03-28T16:24:24.536Z</time></trkpt><trkpt lat="44.5980533" lon="10.7968563"><ele>80.0</ele><time>2026-03-28T16:24:32.531Z</time></trkpt><trkpt lat="44.5980342" lon="10.7969592"><ele>80.0</ele><time>2026-03-28T16:24:33.533Z</time></trkpt><trkpt lat="44.5980051" lon="10.7971088"><ele>79.8</ele><time>2026-03-28T16:24:34.539Z</time></trkpt><trkpt lat="44.5979792" lon="10.7972278"><ele>79.6</ele><time>2026-03-28T16:24:35.536Z</time></trkpt><trkpt lat="44.5979474" lon="10.7973594"><ele>79.4</ele><time>2026-03-28T16:24:36.539Z</time></trkpt><trkpt lat="44.5979149" lon="10.7974954"><ele>79.2</ele><time>2026-03-28T16:24:37.532Z</time></trkpt><trkpt lat="44.5978917" lon="10.7976414"><ele>79.0</ele><time>2026-03-28T16:24:38.533Z</time></trkpt><trkpt lat="44.5978689" lon="10.7977849"><ele>79.0</ele><time>2026-03-28T16:24:39.533Z</time></trkpt><trkpt lat="44.5978411" lon="10.7979296"><ele>79.0</ele><time>2026-03-28T16:24:40.534Z</time></trkpt><trkpt lat="44.5978184" lon="10.7980778"><ele>79.0</ele><time>2026-03-28T16:24:41.535Z</time></trkpt><trkpt lat="44.5977978" lon="10.7982505"><ele>79.0</ele><time>2026-03-28T16:24:42.534Z</time></trkpt><trkpt lat="44.5977731" lon="10.7984394"><ele>79.0</ele><time>2026-03-28T16:24:43.533Z</time></trkpt><trkpt lat="44.5977446" lon="10.7986358"><ele>79.0</ele><time>2026-03-28T16:24:44.536Z</time></trkpt><trkpt lat="44.5977113" lon="10.798832"><ele>79.0</ele><time>2026-03-28T16:24:45.543Z</time></trkpt><trkpt lat="44.5976693" lon="10.7990044"><ele>79.0</ele><time>2026-03-28T16:24:46.533Z</time></trkpt><trkpt lat="44.597646" lon="10.7992147"><ele>79.0</ele><time>2026-03-28T16:24:47.546Z</time></trkpt><trkpt lat="44.5976259" lon="10.79938"><ele>79.0</ele><time>2026-03-28T16:24:48.542Z</time></trkpt><trkpt lat="44.5975944" lon="10.7995282"><ele>79.0</ele><time>2026-03-28T16:24:49.538Z</time></trkpt><trkpt lat="44.5975582" lon="10.7996885"><ele>79.0</ele><time>2026-03-28T16:24:50.539Z</time></trkpt><trkpt lat="44.5975251" lon="10.7998487"><ele>79.0</ele><time>2026-03-28T16:24:51.542Z</time></trkpt><trkpt lat="44.5974971" lon="10.8000143"><ele>79.0</ele><time>2026-03-28T16:24:52.54Z</time></trkpt><trkpt lat="44.5974769" lon="10.8001786"><ele>79.0</ele><time>2026-03-28T16:24:53.551Z</time></trkpt><trkpt lat="44.5974573" lon="10.8003487"><ele>79.0</ele><time>2026-03-28T16:24:54.546Z</time></trkpt><trkpt lat="44.5974323" lon="10.8005165"><ele>79.0</ele><time>2026-03-28T16:24:55.544Z</time></trkpt><trkpt lat="44.5974083" lon="10.8006905"><ele>79.0</ele><time>2026-03-28T16:24:56.547Z</time></trkpt><trkpt lat="44.5973904" lon="10.8008728"><ele>79.0</ele><time>2026-03-28T16:24:57.539Z</time></trkpt><trkpt lat="44.5973847" lon="10.8010568"><ele>79.0</ele><time>2026-03-28T16:24:58.541Z</time></trkpt><trkpt lat="44.597401" lon="10.8012365"><ele>79.0</ele><time>2026-03-28T16:24:59.533Z</time></trkpt><trkpt lat="44.5974171" lon="10.8013867"><ele>79.0</ele><time>2026-03-28T16:25:00.544Z</time></trkpt><trkpt lat="44.5974254" lon="10.8015228"><ele>79.0</ele><time>2026-03-28T16:25:01.541Z</time></trkpt><trkpt lat="44.5974437" lon="10.8016582"><ele>79.0</ele><time>2026-03-28T16:25:02.54Z</time></trkpt><trkpt lat="44.5974588" lon="10.8017903"><ele>79.0</ele><time>2026-03-28T16:25:03.547Z</time></trkpt><trkpt lat="44.597469" lon="10.8019046"><ele>78.66666666666666</ele><time>2026-03-28T16:25:04.533Z</time></trkpt><trkpt lat="44.5974762" lon="10.8020087"><ele>78.33333333333333</ele><time>2026-03-28T16:25:05.555Z</time></trkpt><trkpt lat="44.597474" lon="10.8021161"><ele>78.0</ele><time>2026-03-28T16:25:06.544Z</time></trkpt><trkpt lat="44.5974831" lon="10.802214"><ele>77.66666666666667</ele><time>2026-03-28T16:25:07.545Z</time></trkpt><trkpt lat="44.5974971" lon="10.8023247"><ele>77.33333333333334</ele><time>2026-03-28T16:25:08.537Z</time></trkpt><trkpt lat="44.5975084" lon="10.8024353"><ele>77.0</ele><time>2026-03-28T16:25:09.544Z</time></trkpt><trkpt lat="44.5975176" lon="10.8025519"><ele>77.2</ele><time>2026-03-28T16:25:10.545Z</time></trkpt><trkpt lat="44.5975249" lon="10.802675"><ele>77.4</ele><time>2026-03-28T16:25:11.542Z</time></trkpt><trkpt lat="44.5975385" lon="10.8028029"><ele>77.6</ele><time>2026-03-28T16:25:12.543Z</time></trkpt><trkpt lat="44.5975593" lon="10.8029454"><ele>77.8</ele><time>2026-03-28T16:25:13.538Z</time></trkpt><trkpt lat="44.5975762" lon="10.8030928"><ele>78.0</ele><time>2026-03-28T16:25:14.54Z</time></trkpt><trkpt lat="44.5975886" lon="10.8032247"><ele>78.0</ele><time>2026-03-28T16:25:15.545Z</time></trkpt><trkpt lat="44.5976062" lon="10.8033473"><ele>78.0</ele><time>2026-03-28T16:25:16.54Z</time></trkpt><trkpt lat="44.5976135" lon="10.8034712"><ele>78.0</ele><time>2026-03-28T16:25:17.548Z</time></trkpt><trkpt lat="44.5976268" lon="10.8036031"><ele>78.0</ele><time>2026-03-28T16:25:18.541Z</time></trkpt><trkpt lat="44.5976384" lon="10.8037244"><ele>78.0</ele><time>2026-03-28T16:25:19.539Z</time></trkpt><trkpt lat="44.597653" lon="10.8038323"><ele>78.0</ele><time>2026-03-28T16:25:20.538Z</time></trkpt><trkpt lat="44.5976719" lon="10.8039724"><ele>78.0</ele><time>2026-03-28T16:25:22.541Z</time></trkpt><trkpt lat="44.5976872" lon="10.8041526"><ele>78.0</ele><time>2026-03-28T16:25:24.533Z</time></trkpt><trkpt lat="44.5976891" lon="10.8042663"><ele>78.0</ele><time>2026-03-28T16:25:25.528Z</time></trkpt><trkpt lat="44.5977054" lon="10.8043984"><ele>78.0</ele><time>2026-03-28T16:25:26.536Z</time></trkpt><trkpt lat="44.5977337" lon="10.8045582"><ele>78.0</ele><time>2026-03-28T16:25:27.529Z</time></trkpt><trkpt lat="44.5977667" lon="10.8047537"><ele>77.66666666666667</ele><time>2026-03-28T16:25:28.531Z</time></trkpt><trkpt lat="44.5977913" lon="10.8049686"><ele>77.33333333333334</ele><time>2026-03-28T16:25:29.525Z</time></trkpt><trkpt lat="44.5977902" lon="10.8052091"><ele>77.0</ele><time>2026-03-28T16:25:30.538Z</time></trkpt><trkpt lat="44.5977996" lon="10.8054607"><ele>77.0</ele><time>2026-03-28T16:25:31.544Z</time></trkpt><trkpt lat="44.59782" lon="10.8057126"><ele>77.0</ele><time>2026-03-28T16:25:32.543Z</time></trkpt><trkpt lat="44.5978463" lon="10.8059519"><ele>77.0</ele><time>2026-03-28T16:25:33.553Z</time></trkpt><trkpt lat="44.5978633" lon="10.8061563"><ele>76.5</ele><time>2026-03-28T16:25:34.548Z</time></trkpt><trkpt lat="44.5978738" lon="10.806361"><ele>76.0</ele><time>2026-03-28T16:25:35.544Z</time></trkpt><trkpt lat="44.5978926" lon="10.8065533"><ele>75.5</ele><time>2026-03-28T16:25:36.549Z</time></trkpt><trkpt lat="44.5979064" lon="10.8067294"><ele>75.0</ele><time>2026-03-28T16:25:37.543Z</time></trkpt><trkpt lat="44.5979246" lon="10.8069043"><ele>75.0</ele><time>2026-03-28T16:25:38.554Z</time></trkpt><trkpt lat="44.5979536" lon="10.8070859"><ele>75.0</ele><time>2026-03-28T16:25:39.545Z</time></trkpt><trkpt lat="44.5979814" lon="10.8072839"><ele>75.0</ele><time>2026-03-28T16:25:40.543Z</time></trkpt><trkpt lat="44.5980095" lon="10.8075061"><ele>75.0</ele><time>2026-03-28T16:25:41.538Z</time></trkpt><trkpt lat="44.5980293" lon="10.8077606"><ele>75.0</ele><time>2026-03-28T16:25:42.535Z</time></trkpt><trkpt lat="44.5980396" lon="10.8080172"><ele>75.0</ele><time>2026-03-28T16:25:43.54Z</time></trkpt><trkpt lat="44.5980625" lon="10.8082867"><ele>75.0</ele><time>2026-03-28T16:25:44.544Z</time></trkpt><trkpt lat="44.5980818" lon="10.808546"><ele>74.66666666666667</ele><time>2026-03-28T16:25:45.543Z</time></trkpt><trkpt lat="44.5981077" lon="10.8087884"><ele>74.33333333333334</ele><time>2026-03-28T16:25:46.54Z</time></trkpt><trkpt lat="44.5981408" lon="10.809042"><ele>74.0</ele><time>2026-03-28T16:25:47.551Z</time></trkpt><trkpt lat="44.5981704" lon="10.8093029"><ele>73.33333333333334</ele><time>2026-03-28T16:25:48.545Z</time></trkpt><trkpt lat="44.5981963" lon="10.8095651"><ele>72.66666666666667</ele><time>2026-03-28T16:25:49.549Z</time></trkpt><trkpt lat="44.5982274" lon="10.8098288"><ele>72.0</ele><time>2026-03-28T16:25:50.548Z</time></trkpt><trkpt lat="44.5982556" lon="10.8100939"><ele>72.0</ele><time>2026-03-28T16:25:51.554Z</time></trkpt><trkpt lat="44.5982858" lon="10.8103811"><ele>72.0</ele><time>2026-03-28T16:25:52.552Z</time></trkpt><trkpt lat="44.5983206" lon="10.8106575"><ele>72.0</ele><time>2026-03-28T16:25:53.549Z</time></trkpt><trkpt lat="44.5983423" lon="10.8109379"><ele>72.0</ele><time>2026-03-28T16:25:54.551Z</time></trkpt><trkpt lat="44.5983688" lon="10.8111933"><ele>72.0</ele><time>2026-03-28T16:25:55.551Z</time></trkpt><trkpt lat="44.5983977" lon="10.8114436"><ele>72.0</ele><time>2026-03-28T16:25:56.549Z</time></trkpt><trkpt lat="44.5984281" lon="10.8117011"><ele>72.0</ele><time>2026-03-28T16:25:57.55Z</time></trkpt><trkpt lat="44.5984527" lon="10.8119502"><ele>72.0</ele><time>2026-03-28T16:25:58.55Z</time></trkpt><trkpt lat="44.5984722" lon="10.8121882"><ele>72.0</ele><time>2026-03-28T16:25:59.547Z</time></trkpt><trkpt lat="44.5985006" lon="10.8124237"><ele>72.33333333333333</ele><time>2026-03-28T16:26:00.553Z</time></trkpt><trkpt lat="44.5985314" lon="10.8126738"><ele>72.66666666666666</ele><time>2026-03-28T16:26:01.553Z</time></trkpt><trkpt lat="44.5985518" lon="10.8129272"><ele>73.0</ele><time>2026-03-28T16:26:02.549Z</time></trkpt><trkpt lat="44.598579" lon="10.8131765"><ele>73.0</ele><time>2026-03-28T16:26:03.558Z</time></trkpt><trkpt lat="44.5986104" lon="10.8134305"><ele>73.0</ele><time>2026-03-28T16:26:04.539Z</time></trkpt><trkpt lat="44.5986494" lon="10.8136857"><ele>73.0</ele><time>2026-03-28T16:26:05.537Z</time></trkpt><trkpt lat="44.5986831" lon="10.8139396"><ele>72.0</ele><time>2026-03-28T16:26:06.547Z</time></trkpt><trkpt lat="44.5987047" lon="10.8141827"><ele>71.0</ele><time>2026-03-28T16:26:07.539Z</time></trkpt><trkpt lat="44.5987172" lon="10.8143852"><ele>70.0</ele><time>2026-03-28T16:26:08.538Z</time></trkpt><trkpt lat="44.5987342" lon="10.8145848"><ele>70.0</ele><time>2026-03-28T16:26:09.545Z</time></trkpt><trkpt lat="44.5987582" lon="10.8147743"><ele>70.0</ele><time>2026-03-28T16:26:10.544Z</time></trkpt><trkpt lat="44.59878" lon="10.8149961"><ele>70.0</ele><time>2026-03-28T16:26:11.547Z</time></trkpt><trkpt lat="44.5988004" lon="10.8152197"><ele>70.0</ele><time>2026-03-28T16:26:12.549Z</time></trkpt><trkpt lat="44.5988194" lon="10.8154191"><ele>70.0</ele><time>2026-03-28T16:26:13.553Z</time></trkpt><trkpt lat="44.5988401" lon="10.8156188"><ele>70.0</ele><time>2026-03-28T16:26:14.544Z</time></trkpt><trkpt lat="44.5988586" lon="10.8158124"><ele>70.0</ele><time>2026-03-28T16:26:15.54Z</time></trkpt><trkpt lat="44.5988832" lon="10.8160296"><ele>70.0</ele><time>2026-03-28T16:26:16.541Z</time></trkpt><trkpt lat="44.5989142" lon="10.8162736"><ele>70.0</ele><time>2026-03-28T16:26:17.547Z</time></trkpt><trkpt lat="44.5989351" lon="10.8165172"><ele>70.0</ele><time>2026-03-28T16:26:18.548Z</time></trkpt><trkpt lat="44.5989623" lon="10.816767"><ele>69.66666666666666</ele><time>2026-03-28T16:26:19.541Z</time></trkpt><trkpt lat="44.5989847" lon="10.8170383"><ele>69.33333333333333</ele><time>2026-03-28T16:26:20.535Z</time></trkpt><trkpt lat="44.5990103" lon="10.817288"><ele>69.0</ele><time>2026-03-28T16:26:21.537Z</time></trkpt><trkpt lat="44.5990363" lon="10.8175236"><ele>68.66666666666667</ele><time>2026-03-28T16:26:22.535Z</time></trkpt><trkpt lat="44.5990499" lon="10.8177493"><ele>68.33333333333334</ele><time>2026-03-28T16:26:23.545Z</time></trkpt><trkpt lat="44.5990654" lon="10.8179591"><ele>68.0</ele><time>2026-03-28T16:26:24.545Z</time></trkpt><trkpt lat="44.5990886" lon="10.8181507"><ele>68.0</ele><time>2026-03-28T16:26:25.548Z</time></trkpt><trkpt lat="44.5991052" lon="10.8183405"><ele>68.0</ele><time>2026-03-28T16:26:26.542Z</time></trkpt><trkpt lat="44.599129" lon="10.8185354"><ele>68.0</ele><time>2026-03-28T16:26:27.545Z</time></trkpt><trkpt lat="44.5991529" lon="10.8187466"><ele>68.0</ele><time>2026-03-28T16:26:28.545Z</time></trkpt><trkpt lat="44.5991717" lon="10.8189743"><ele>67.66666666666667</ele><time>2026-03-28T16:26:29.543Z</time></trkpt><trkpt lat="44.5992134" lon="10.819221"><ele>67.33333333333333</ele><time>2026-03-28T16:26:30.548Z</time></trkpt><trkpt lat="44.5992553" lon="10.8195013"><ele>67.0</ele><time>2026-03-28T16:26:31.533Z</time></trkpt><trkpt lat="44.5993035" lon="10.8198229"><ele>66.5</ele><time>2026-03-28T16:26:32.535Z</time></trkpt><trkpt lat="44.5993389" lon="10.820153"><ele>66.0</ele><time>2026-03-28T16:26:33.551Z</time></trkpt><trkpt lat="44.5993617" lon="10.8204985"><ele>66.0</ele><time>2026-03-28T16:26:34.544Z</time></trkpt><trkpt lat="44.5993827" lon="10.8208441"><ele>66.0</ele><time>2026-03-28T16:26:35.554Z</time></trkpt><trkpt lat="44.5994088" lon="10.8211715"><ele>65.33333333333333</ele><time>2026-03-28T16:26:36.534Z</time></trkpt><trkpt lat="44.5994373" lon="10.8214685"><ele>64.66666666666666</ele><time>2026-03-28T16:26:37.553Z</time></trkpt><trkpt lat="44.5994666" lon="10.8217762"><ele>64.0</ele><time>2026-03-28T16:26:38.539Z</time></trkpt><trkpt lat="44.5994862" lon="10.8220679"><ele>64.0</ele><time>2026-03-28T16:26:39.533Z</time></trkpt><trkpt lat="44.5994953" lon="10.8223155"><ele>64.0</ele><time>2026-03-28T16:26:40.542Z</time></trkpt><trkpt lat="44.5995038" lon="10.8225647"><ele>64.0</ele><time>2026-03-28T16:26:41.537Z</time></trkpt><trkpt lat="44.5995003" lon="10.8228005"><ele>64.66666666666666</ele><time>2026-03-28T16:26:42.553Z</time></trkpt><trkpt lat="44.5994894" lon="10.8230505"><ele>65.33333333333333</ele><time>2026-03-28T16:26:43.539Z</time></trkpt><trkpt lat="44.5994797" lon="10.823308"><ele>66.0</ele><time>2026-03-28T16:26:44.535Z</time></trkpt><trkpt lat="44.599447" lon="10.8235246"><ele>66.0</ele><time>2026-03-28T16:26:45.535Z</time></trkpt><trkpt lat="44.5994306" lon="10.8237311"><ele>66.0</ele><time>2026-03-28T16:26:46.542Z</time></trkpt><trkpt lat="44.5994107" lon="10.8239359"><ele>66.0</ele><time>2026-03-28T16:26:47.541Z</time></trkpt><trkpt lat="44.5993838" lon="10.8241615"><ele>65.66666666666667</ele><time>2026-03-28T16:26:48.56Z</time></trkpt><trkpt lat="44.5993678" lon="10.8243851"><ele>65.33333333333334</ele><time>2026-03-28T16:26:49.544Z</time></trkpt><trkpt lat="44.5993409" lon="10.8246178"><ele>65.0</ele><time>2026-03-28T16:26:50.544Z</time></trkpt><trkpt lat="44.5993236" lon="10.8248386"><ele>65.0</ele><time>2026-03-28T16:26:51.544Z</time></trkpt><trkpt lat="44.599299" lon="10.825044"><ele>65.0</ele><time>2026-03-28T16:26:52.555Z</time></trkpt><trkpt lat="44.5992734" lon="10.8252576"><ele>65.0</ele><time>2026-03-28T16:26:53.553Z</time></trkpt><trkpt lat="44.599255" lon="10.8254679"><ele>65.0</ele><time>2026-03-28T16:26:54.552Z</time></trkpt><trkpt lat="44.5992373" lon="10.8256758"><ele>65.0</ele><time>2026-03-28T16:26:55.549Z</time></trkpt><trkpt lat="44.599216" lon="10.8258907"><ele>65.0</ele><time>2026-03-28T16:26:56.558Z</time></trkpt><trkpt lat="44.5991902" lon="10.826101"><ele>65.0</ele><time>2026-03-28T16:26:57.55Z</time></trkpt><trkpt lat="44.5991662" lon="10.8263011"><ele>65.0</ele><time>2026-03-28T16:26:58.551Z</time></trkpt><trkpt lat="44.5991523" lon="10.826502"><ele>65.0</ele><time>2026-03-28T16:26:59.553Z</time></trkpt><trkpt lat="44.599138" lon="10.8266892"><ele>65.0</ele><time>2026-03-28T16:27:00.551Z</time></trkpt><trkpt lat="44.5991171" lon="10.8268678"><ele>65.0</ele><time>2026-03-28T16:27:01.543Z</time></trkpt><trkpt lat="44.5990914" lon="10.8271027"><ele>65.0</ele><time>2026-03-28T16:27:02.546Z</time></trkpt><trkpt lat="44.5990789" lon="10.8273669"><ele>65.0</ele><time>2026-03-28T16:27:03.548Z</time></trkpt><trkpt lat="44.5990485" lon="10.827621"><ele>64.33333333333334</ele><time>2026-03-28T16:27:04.551Z</time></trkpt><trkpt lat="44.599015" lon="10.8278746"><ele>63.66666666666667</ele><time>2026-03-28T16:27:05.546Z</time></trkpt><trkpt lat="44.5989785" lon="10.8280979"><ele>63.0</ele><time>2026-03-28T16:27:06.542Z</time></trkpt><trkpt lat="44.5989601" lon="10.8283013"><ele>63.0</ele><time>2026-03-28T16:27:07.551Z</time></trkpt><trkpt lat="44.5989433" lon="10.8284491"><ele>63.0</ele><time>2026-03-28T16:27:08.555Z</time></trkpt><trkpt lat="44.5989243" lon="10.8285487"><ele>63.0</ele><time>2026-03-28T16:27:09.55Z</time></trkpt><trkpt lat="44.5989156" lon="10.8286681"><ele>63.0</ele><time>2026-03-28T16:27:11.543Z</time></trkpt><trkpt lat="44.5989061" lon="10.8287556"><ele>63.0</ele><time>2026-03-28T16:27:12.545Z</time></trkpt><trkpt lat="44.5989154" lon="10.8288928"><ele>63.0</ele><time>2026-03-28T16:27:13.536Z</time></trkpt><trkpt lat="44.5989141" lon="10.8290624"><ele>63.0</ele><time>2026-03-28T16:27:14.542Z</time></trkpt><trkpt lat="44.5989185" lon="10.8292737"><ele>63.0</ele><time>2026-03-28T16:27:15.539Z</time></trkpt><trkpt lat="44.5989202" lon="10.8295819"><ele>63.0</ele><time>2026-03-28T16:27:16.534Z</time></trkpt><trkpt lat="44.5989275" lon="10.829856"><ele>63.0</ele><time>2026-03-28T16:27:17.532Z</time></trkpt><trkpt lat="44.598927" lon="10.8301243"><ele>63.0</ele><time>2026-03-28T16:27:18.527Z</time></trkpt><trkpt lat="44.5989218" lon="10.8303852"><ele>63.0</ele><time>2026-03-28T16:27:19.54Z</time></trkpt><trkpt lat="44.5989224" lon="10.830678"><ele>63.66666666666667</ele><time>2026-03-28T16:27:20.535Z</time></trkpt><trkpt lat="44.5989032" lon="10.8309819"><ele>64.33333333333334</ele><time>2026-03-28T16:27:21.533Z</time></trkpt><trkpt lat="44.598899" lon="10.8312849"><ele>65.0</ele><time>2026-03-28T16:27:22.539Z</time></trkpt><trkpt lat="44.5988788" lon="10.8315601"><ele>64.66666666666667</ele><time>2026-03-28T16:27:23.545Z</time></trkpt><trkpt lat="44.5988727" lon="10.8318441"><ele>64.33333333333333</ele><time>2026-03-28T16:27:24.545Z</time></trkpt><trkpt lat="44.5988492" lon="10.8321379"><ele>64.0</ele><time>2026-03-28T16:27:25.539Z</time></trkpt><trkpt lat="44.5987943" lon="10.8324427"><ele>63.5</ele><time>2026-03-28T16:27:26.537Z</time></trkpt><trkpt lat="44.5987339" lon="10.832751"><ele>63.0</ele><time>2026-03-28T16:27:27.539Z</time></trkpt><trkpt lat="44.5986625" lon="10.8330756"><ele>63.5</ele><time>2026-03-28T16:27:28.539Z</time></trkpt><trkpt lat="44.5986045" lon="10.8334195"><ele>64.0</ele><time>2026-03-28T16:27:29.539Z</time></trkpt><trkpt lat="44.5985551" lon="10.8337589"><ele>64.0</ele><time>2026-03-28T16:27:30.549Z</time></trkpt><trkpt lat="44.5985112" lon="10.8341067"><ele>64.0</ele><time>2026-03-28T16:27:31.544Z</time></trkpt><trkpt lat="44.5984488" lon="10.8344778"><ele>63.5</ele><time>2026-03-28T16:27:32.534Z</time></trkpt><trkpt lat="44.5983748" lon="10.834843"><ele>63.0</ele><time>2026-03-28T16:27:33.537Z</time></trkpt><trkpt lat="44.5982792" lon="10.8352041"><ele>62.5</ele><time>2026-03-28T16:27:34.543Z</time></trkpt><trkpt lat="44.5981727" lon="10.8355538"><ele>62.0</ele><time>2026-03-28T16:27:35.541Z</time></trkpt><trkpt lat="44.598096" lon="10.8359028"><ele>62.0</ele><time>2026-03-28T16:27:36.534Z</time></trkpt><trkpt lat="44.5980185" lon="10.8362306"><ele>62.0</ele><time>2026-03-28T16:27:37.53Z</time></trkpt><trkpt lat="44.5979504" lon="10.8365577"><ele>62.5</ele><time>2026-03-28T16:27:38.54Z</time></trkpt><trkpt lat="44.5978852" lon="10.8368887"><ele>63.0</ele><time>2026-03-28T16:27:39.545Z</time></trkpt><trkpt lat="44.5978221" lon="10.8372277"><ele>63.0</ele><time>2026-03-28T16:27:40.541Z</time></trkpt><trkpt lat="44.5977621" lon="10.8375808"><ele>63.0</ele><time>2026-03-28T16:27:41.543Z</time></trkpt><trkpt lat="44.5976889" lon="10.8379358"><ele>63.5</ele><time>2026-03-28T16:27:42.54Z</time></trkpt><trkpt lat="44.5976249" lon="10.8382986"><ele>64.0</ele><time>2026-03-28T16:27:43.543Z</time></trkpt><trkpt lat="44.5975552" lon="10.8386706"><ele>63.0</ele><time>2026-03-28T16:27:44.541Z</time></trkpt><trkpt lat="44.5974832" lon="10.8390442"><ele>62.0</ele><time>2026-03-28T16:27:45.55Z</time></trkpt><trkpt lat="44.5974001" lon="10.8394251"><ele>62.0</ele><time>2026-03-28T16:27:46.544Z</time></trkpt><trkpt lat="44.5973194" lon="10.8398007"><ele>62.0</ele><time>2026-03-28T16:27:47.544Z</time></trkpt><trkpt lat="44.5972384" lon="10.8401653"><ele>61.0</ele><time>2026-03-28T16:27:48.545Z</time></trkpt><trkpt lat="44.5971628" lon="10.8405201"><ele>60.0</ele><time>2026-03-28T16:27:49.54Z</time></trkpt><trkpt lat="44.5970969" lon="10.8408636"><ele>60.33333333333333</ele><time>2026-03-28T16:27:50.533Z</time></trkpt><trkpt lat="44.5970296" lon="10.841167"><ele>60.666666666666664</ele><time>2026-03-28T16:27:51.531Z</time></trkpt><trkpt lat="44.5969682" lon="10.8414528"><ele>61.0</ele><time>2026-03-28T16:27:52.534Z</time></trkpt><trkpt lat="44.5969074" lon="10.8417338"><ele>62.666666666666664</ele><time>2026-03-28T16:27:53.538Z</time></trkpt><trkpt lat="44.5968353" lon="10.8419959"><ele>64.33333333333333</ele><time>2026-03-28T16:27:54.537Z</time></trkpt><trkpt lat="44.5967778" lon="10.8422679"><ele>66.0</ele><time>2026-03-28T16:27:55.546Z</time></trkpt><trkpt lat="44.5967281" lon="10.8425329"><ele>66.0</ele><time>2026-03-28T16:27:56.531Z</time></trkpt><trkpt lat="44.5966711" lon="10.8427601"><ele>66.0</ele><time>2026-03-28T16:27:57.53Z</time></trkpt><trkpt lat="44.5966206" lon="10.8429922"><ele>66.0</ele><time>2026-03-28T16:27:58.536Z</time></trkpt><trkpt lat="44.5965797" lon="10.8432458"><ele>66.0</ele><time>2026-03-28T16:27:59.535Z</time></trkpt><trkpt lat="44.596552" lon="10.8435101"><ele>66.0</ele><time>2026-03-28T16:28:00.534Z</time></trkpt><trkpt lat="44.5965475" lon="10.8438021"><ele>66.0</ele><time>2026-03-28T16:28:01.544Z</time></trkpt><trkpt lat="44.5965608" lon="10.8441048"><ele>66.0</ele><time>2026-03-28T16:28:02.537Z</time></trkpt><trkpt lat="44.5965527" lon="10.8443983"><ele>66.0</ele><time>2026-03-28T16:28:03.548Z</time></trkpt><trkpt lat="44.5965468" lon="10.8446986"><ele>66.0</ele><time>2026-03-28T16:28:04.54Z</time></trkpt><trkpt lat="44.5965236" lon="10.8449915"><ele>66.0</ele><time>2026-03-28T16:28:05.538Z</time></trkpt><trkpt lat="44.5964942" lon="10.8452673"><ele>66.0</ele><time>2026-03-28T16:28:06.538Z</time></trkpt><trkpt lat="44.5964434" lon="10.8455095"><ele>66.0</ele><time>2026-03-28T16:28:07.535Z</time></trkpt><trkpt lat="44.5964038" lon="10.8457461"><ele>65.5</ele><time>2026-03-28T16:28:08.542Z</time></trkpt><trkpt lat="44.5963544" lon="10.8459721"><ele>65.0</ele><time>2026-03-28T16:28:09.532Z</time></trkpt><trkpt lat="44.5963112" lon="10.8461623"><ele>64.5</ele><time>2026-03-28T16:28:10.534Z</time></trkpt><trkpt lat="44.5962716" lon="10.8463134"><ele>64.0</ele><time>2026-03-28T16:28:11.528Z</time></trkpt><trkpt lat="44.5962579" lon="10.8464365"><ele>64.0</ele><time>2026-03-28T16:28:12.535Z</time></trkpt><trkpt lat="44.5962841" lon="10.8465247"><ele>64.0</ele><time>2026-03-28T16:28:13.546Z</time></trkpt><trkpt lat="44.5963362" lon="10.846603"><ele>64.0</ele><time>2026-03-28T16:28:14.54Z</time></trkpt><trkpt lat="44.5964074" lon="10.8466618"><ele>64.0</ele><time>2026-03-28T16:28:15.541Z</time></trkpt><trkpt lat="44.5965182" lon="10.8466846"><ele>64.0</ele><time>2026-03-28T16:28:16.54Z</time></trkpt><trkpt lat="44.5966534" lon="10.846702"><ele>64.0</ele><time>2026-03-28T16:28:17.529Z</time></trkpt><trkpt lat="44.5967969" lon="10.8467103"><ele>64.0</ele><time>2026-03-28T16:28:18.547Z</time></trkpt><trkpt lat="44.5969286" lon="10.8467218"><ele>64.0</ele><time>2026-03-28T16:28:19.543Z</time></trkpt><trkpt lat="44.5970612" lon="10.846733"><ele>64.0</ele><time>2026-03-28T16:28:20.552Z</time></trkpt><trkpt lat="44.5972002" lon="10.8467516"><ele>63.666666666666664</ele><time>2026-03-28T16:28:21.553Z</time></trkpt><trkpt lat="44.5973437" lon="10.8467747"><ele>63.33333333333333</ele><time>2026-03-28T16:28:22.541Z</time></trkpt><trkpt lat="44.5975057" lon="10.8467873"><ele>63.0</ele><time>2026-03-28T16:28:23.545Z</time></trkpt><trkpt lat="44.5976585" lon="10.8468087"><ele>63.0</ele><time>2026-03-28T16:28:24.543Z</time></trkpt><trkpt lat="44.5978108" lon="10.8468331"><ele>63.0</ele><time>2026-03-28T16:28:25.541Z</time></trkpt><trkpt lat="44.5979753" lon="10.8468655"><ele>63.0</ele><time>2026-03-28T16:28:26.546Z</time></trkpt><trkpt lat="44.5981294" lon="10.8469155"><ele>63.0</ele><time>2026-03-28T16:28:27.542Z</time></trkpt><trkpt lat="44.5983035" lon="10.8469743"><ele>63.0</ele><time>2026-03-28T16:28:28.547Z</time></trkpt><trkpt lat="44.5984974" lon="10.8470567"><ele>63.0</ele><time>2026-03-28T16:28:29.545Z</time></trkpt><trkpt lat="44.5987141" lon="10.8471322"><ele>62.5</ele><time>2026-03-28T16:28:30.537Z</time></trkpt><trkpt lat="44.5989471" lon="10.8472025"><ele>62.0</ele><time>2026-03-28T16:28:31.554Z</time></trkpt><trkpt lat="44.5992015" lon="10.8472982"><ele>62.0</ele><time>2026-03-28T16:28:32.54Z</time></trkpt><trkpt lat="44.5994498" lon="10.8474071"><ele>62.0</ele><time>2026-03-28T16:28:33.549Z</time></trkpt><trkpt lat="44.5997017" lon="10.8475168"><ele>61.5</ele><time>2026-03-28T16:28:34.549Z</time></trkpt><trkpt lat="44.5999643" lon="10.8476313"><ele>61.0</ele><time>2026-03-28T16:28:35.548Z</time></trkpt><trkpt lat="44.6002298" lon="10.847751"><ele>60.5</ele><time>2026-03-28T16:28:36.549Z</time></trkpt><trkpt lat="44.6004958" lon="10.8478744"><ele>60.0</ele><time>2026-03-28T16:28:37.547Z</time></trkpt><trkpt lat="44.6007763" lon="10.8479964"><ele>60.0</ele><time>2026-03-28T16:28:38.554Z</time></trkpt><trkpt lat="44.6010558" lon="10.8481442"><ele>60.0</ele><time>2026-03-28T16:28:39.55Z</time></trkpt><trkpt lat="44.6013365" lon="10.8483019"><ele>59.0</ele><time>2026-03-28T16:28:40.546Z</time></trkpt><trkpt lat="44.6016152" lon="10.8484629"><ele>58.0</ele><time>2026-03-28T16:28:41.547Z</time></trkpt><trkpt lat="44.6018819" lon="10.8486529"><ele>58.0</ele><time>2026-03-28T16:28:42.545Z</time></trkpt><trkpt lat="44.6021474" lon="10.8488742"><ele>58.0</ele><time>2026-03-28T16:28:43.549Z</time></trkpt><trkpt lat="44.6024066" lon="10.8491025"><ele>57.5</ele><time>2026-03-28T16:28:44.537Z</time></trkpt><trkpt lat="44.6026555" lon="10.8493459"><ele>57.0</ele><time>2026-03-28T16:28:45.54Z</time></trkpt><trkpt lat="44.6028951" lon="10.8496168"><ele>57.0</ele><time>2026-03-28T16:28:46.543Z</time></trkpt><trkpt lat="44.6031225" lon="10.849889"><ele>57.0</ele><time>2026-03-28T16:28:47.545Z</time></trkpt><trkpt lat="44.6033514" lon="10.8501699"><ele>57.0</ele><time>2026-03-28T16:28:48.549Z</time></trkpt><trkpt lat="44.6035979" lon="10.8504279"><ele>57.0</ele><time>2026-03-28T16:28:49.546Z</time></trkpt><trkpt lat="44.6038361" lon="10.8506957"><ele>58.0</ele><time>2026-03-28T16:28:50.549Z</time></trkpt><trkpt lat="44.6040795" lon="10.8509668"><ele>59.0</ele><time>2026-03-28T16:28:51.547Z</time></trkpt><trkpt lat="44.6043207" lon="10.8512348"><ele>58.5</ele><time>2026-03-28T16:28:52.546Z</time></trkpt><trkpt lat="44.6045631" lon="10.8514985"><ele>58.0</ele><time>2026-03-28T16:28:53.545Z</time></trkpt><trkpt lat="44.6047997" lon="10.8517758"><ele>57.5</ele><time>2026-03-28T16:28:54.542Z</time></trkpt><trkpt lat="44.6050537" lon="10.8520439"><ele>57.0</ele><time>2026-03-28T16:28:55.548Z</time></trkpt><trkpt lat="44.6052979" lon="10.8523355"><ele>57.0</ele><time>2026-03-28T16:28:56.549Z</time></trkpt><trkpt lat="44.6055481" lon="10.8526126"><ele>57.0</ele><time>2026-03-28T16:28:57.547Z</time></trkpt><trkpt lat="44.6057913" lon="10.8528816"><ele>57.0</ele><time>2026-03-28T16:28:58.555Z</time></trkpt><trkpt lat="44.6060409" lon="10.8531422"><ele>57.0</ele><time>2026-03-28T16:28:59.546Z</time></trkpt><trkpt lat="44.6062909" lon="10.8534153"><ele>57.5</ele><time>2026-03-28T16:29:00.547Z</time></trkpt><trkpt lat="44.6065369" lon="10.8536873"><ele>58.0</ele><time>2026-03-28T16:29:01.55Z</time></trkpt><trkpt lat="44.6067843" lon="10.8539563"><ele>57.5</ele><time>2026-03-28T16:29:02.549Z</time></trkpt><trkpt lat="44.6070287" lon="10.8542369"><ele>57.0</ele><time>2026-03-28T16:29:03.551Z</time></trkpt><trkpt lat="44.6072669" lon="10.8545089"><ele>57.0</ele><time>2026-03-28T16:29:04.544Z</time></trkpt><trkpt lat="44.6075015" lon="10.8547858"><ele>57.0</ele><time>2026-03-28T16:29:05.548Z</time></trkpt><trkpt lat="44.6077539" lon="10.8550632"><ele>57.0</ele><time>2026-03-28T16:29:06.537Z</time></trkpt><trkpt lat="44.6079989" lon="10.8553297"><ele>57.0</ele><time>2026-03-28T16:29:07.544Z</time></trkpt><trkpt lat="44.608243" lon="10.8556022"><ele>57.0</ele><time>2026-03-28T16:29:08.545Z</time></trkpt><trkpt lat="44.6084873" lon="10.8558828"><ele>57.0</ele><time>2026-03-28T16:29:09.549Z</time></trkpt><trkpt lat="44.6087355" lon="10.8561556"><ele>57.5</ele><time>2026-03-28T16:29:10.549Z</time></trkpt><trkpt lat="44.6089809" lon="10.8564321"><ele>58.0</ele><time>2026-03-28T16:29:11.548Z</time></trkpt><trkpt lat="44.6092314" lon="10.8567002"><ele>58.0</ele><time>2026-03-28T16:29:12.549Z</time></trkpt><trkpt lat="44.6094741" lon="10.8569664"><ele>58.0</ele><time>2026-03-28T16:29:13.548Z</time></trkpt><trkpt lat="44.6097143" lon="10.8572498"><ele>56.5</ele><time>2026-03-28T16:29:14.551Z</time></trkpt><trkpt lat="44.6099698" lon="10.857525"><ele>55.0</ele><time>2026-03-28T16:29:15.543Z</time></trkpt><trkpt lat="44.6102134" lon="10.8577944"><ele>53.5</ele><time>2026-03-28T16:29:16.548Z</time></trkpt><trkpt lat="44.6104534" lon="10.8580724"><ele>52.0</ele><time>2026-03-28T16:29:17.549Z</time></trkpt><trkpt lat="44.6106941" lon="10.8583509"><ele>53.0</ele><time>2026-03-28T16:29:18.55Z</time></trkpt><trkpt lat="44.6109452" lon="10.8586205"><ele>54.0</ele><time>2026-03-28T16:29:19.555Z</time></trkpt><trkpt lat="44.611186" lon="10.8588762"><ele>54.0</ele><time>2026-03-28T16:29:20.547Z</time></trkpt><trkpt lat="44.6114155" lon="10.8591375"><ele>54.0</ele><time>2026-03-28T16:29:21.541Z</time></trkpt><trkpt lat="44.6116516" lon="10.8594104"><ele>54.0</ele><time>2026-03-28T16:29:22.544Z</time></trkpt><trkpt lat="44.6118845" lon="10.8596839"><ele>54.0</ele><time>2026-03-28T16:29:23.552Z</time></trkpt><trkpt lat="44.6121162" lon="10.8599603"><ele>53.0</ele><time>2026-03-28T16:29:24.551Z</time></trkpt><trkpt lat="44.6123468" lon="10.8602251"><ele>52.0</ele><time>2026-03-28T16:29:25.555Z</time></trkpt><trkpt lat="44.6125768" lon="10.8604954"><ele>52.0</ele><time>2026-03-28T16:29:26.548Z</time></trkpt><trkpt lat="44.6128067" lon="10.8607451"><ele>52.0</ele><time>2026-03-28T16:29:27.547Z</time></trkpt><trkpt lat="44.6130337" lon="10.8610067"><ele>53.5</ele><time>2026-03-28T16:29:28.546Z</time></trkpt><trkpt lat="44.6132625" lon="10.8612633"><ele>55.0</ele><time>2026-03-28T16:29:29.545Z</time></trkpt><trkpt lat="44.6134825" lon="10.8615096"><ele>54.5</ele><time>2026-03-28T16:29:30.546Z</time></trkpt><trkpt lat="44.6136991" lon="10.8617531"><ele>54.0</ele><time>2026-03-28T16:29:31.552Z</time></trkpt><trkpt lat="44.6139119" lon="10.8619875"><ele>54.0</ele><time>2026-03-28T16:29:32.545Z</time></trkpt><trkpt lat="44.6141352" lon="10.8622369"><ele>54.0</ele><time>2026-03-28T16:29:33.553Z</time></trkpt><trkpt lat="44.6143662" lon="10.8624847"><ele>52.5</ele><time>2026-03-28T16:29:34.542Z</time></trkpt><trkpt lat="44.6146042" lon="10.8627505"><ele>51.0</ele><time>2026-03-28T16:29:35.545Z</time></trkpt><trkpt lat="44.6148295" lon="10.8629894"><ele>51.0</ele><time>2026-03-28T16:29:36.541Z</time></trkpt><trkpt lat="44.6150612" lon="10.8632189"><ele>51.0</ele><time>2026-03-28T16:29:37.551Z</time></trkpt><trkpt lat="44.6153039" lon="10.8634464"><ele>51.0</ele><time>2026-03-28T16:29:38.54Z</time></trkpt><trkpt lat="44.6155506" lon="10.8636796"><ele>51.0</ele><time>2026-03-28T16:29:39.544Z</time></trkpt><trkpt lat="44.6158015" lon="10.8639057"><ele>51.0</ele><time>2026-03-28T16:29:40.542Z</time></trkpt><trkpt lat="44.6160365" lon="10.8641322"><ele>51.0</ele><time>2026-03-28T16:29:41.549Z</time></trkpt><trkpt lat="44.616281" lon="10.8643422"><ele>51.0</ele><time>2026-03-28T16:29:42.547Z</time></trkpt><trkpt lat="44.6165217" lon="10.8645523"><ele>51.0</ele><time>2026-03-28T16:29:43.548Z</time></trkpt><trkpt lat="44.6167613" lon="10.8647655"><ele>51.5</ele><time>2026-03-28T16:29:44.549Z</time></trkpt><trkpt lat="44.6170247" lon="10.8649888"><ele>52.0</ele><time>2026-03-28T16:29:45.552Z</time></trkpt><trkpt lat="44.6172755" lon="10.8651997"><ele>51.0</ele><time>2026-03-28T16:29:46.543Z</time></trkpt><trkpt lat="44.6175329" lon="10.8654154"><ele>50.0</ele><time>2026-03-28T16:29:47.544Z</time></trkpt><trkpt lat="44.6177791" lon="10.8656387"><ele>50.0</ele><time>2026-03-28T16:29:48.544Z</time></trkpt><trkpt lat="44.6180384" lon="10.865866"><ele>50.0</ele><time>2026-03-28T16:29:49.547Z</time></trkpt><trkpt lat="44.6182947" lon="10.8660846"><ele>49.5</ele><time>2026-03-28T16:29:50.55Z</time></trkpt><trkpt lat="44.6185539" lon="10.8662958"><ele>49.0</ele><time>2026-03-28T16:29:51.547Z</time></trkpt><trkpt lat="44.6188" lon="10.8665105"><ele>49.0</ele><time>2026-03-28T16:29:52.55Z</time></trkpt><trkpt lat="44.6190524" lon="10.8667248"><ele>49.0</ele><time>2026-03-28T16:29:53.547Z</time></trkpt><trkpt lat="44.6193021" lon="10.8669376"><ele>48.5</ele><time>2026-03-28T16:29:54.551Z</time></trkpt><trkpt lat="44.619573" lon="10.8671634"><ele>48.0</ele><time>2026-03-28T16:29:55.545Z</time></trkpt><trkpt lat="44.6198242" lon="10.8674022"><ele>48.0</ele><time>2026-03-28T16:29:56.548Z</time></trkpt><trkpt lat="44.620079" lon="10.8676502"><ele>48.0</ele><time>2026-03-28T16:29:57.551Z</time></trkpt><trkpt lat="44.6203192" lon="10.8678916"><ele>47.0</ele><time>2026-03-28T16:29:58.553Z</time></trkpt><trkpt lat="44.6205638" lon="10.8681447"><ele>46.0</ele><time>2026-03-28T16:29:59.553Z</time></trkpt><trkpt lat="44.6207974" lon="10.8684075"><ele>46.5</ele><time>2026-03-28T16:30:00.56Z</time></trkpt><trkpt lat="44.6210275" lon="10.8686664"><ele>47.0</ele><time>2026-03-28T16:30:01.556Z</time></trkpt><trkpt lat="44.6212544" lon="10.8689322"><ele>47.0</ele><time>2026-03-28T16:30:02.553Z</time></trkpt><trkpt lat="44.6214768" lon="10.8692208"><ele>47.0</ele><time>2026-03-28T16:30:03.556Z</time></trkpt><trkpt lat="44.6216958" lon="10.8695171"><ele>47.5</ele><time>2026-03-28T16:30:04.55Z</time></trkpt><trkpt lat="44.6219079" lon="10.8698078"><ele>48.0</ele><time>2026-03-28T16:30:05.553Z</time></trkpt><trkpt lat="44.6221207" lon="10.8701045"><ele>45.5</ele><time>2026-03-28T16:30:06.548Z</time></trkpt><trkpt lat="44.6223193" lon="10.8704003"><ele>43.0</ele><time>2026-03-28T16:30:07.549Z</time></trkpt><trkpt lat="44.6225253" lon="10.870704"><ele>43.5</ele><time>2026-03-28T16:30:08.549Z</time></trkpt><trkpt lat="44.6227327" lon="10.8710071"><ele>44.0</ele><time>2026-03-28T16:30:09.544Z</time></trkpt><trkpt lat="44.6229382" lon="10.8713073"><ele>44.0</ele><time>2026-03-28T16:30:10.553Z</time></trkpt><trkpt lat="44.6231472" lon="10.8716014"><ele>44.0</ele><time>2026-03-28T16:30:11.562Z</time></trkpt><trkpt lat="44.6233618" lon="10.8719041"><ele>44.5</ele><time>2026-03-28T16:30:12.551Z</time></trkpt><trkpt lat="44.6235714" lon="10.8721952"><ele>45.0</ele><time>2026-03-28T16:30:13.557Z</time></trkpt><trkpt lat="44.6237758" lon="10.872499"><ele>44.0</ele><time>2026-03-28T16:30:14.556Z</time></trkpt><trkpt lat="44.623994" lon="10.8728032"><ele>43.0</ele><time>2026-03-28T16:30:15.551Z</time></trkpt><trkpt lat="44.6242014" lon="10.8730882"><ele>43.0</ele><time>2026-03-28T16:30:16.557Z</time></trkpt><trkpt lat="44.6244118" lon="10.8733873"><ele>43.0</ele><time>2026-03-28T16:30:17.553Z</time></trkpt><trkpt lat="44.624627" lon="10.8736745"><ele>43.5</ele><time>2026-03-28T16:30:18.558Z</time></trkpt><trkpt lat="44.6248291" lon="10.8739442"><ele>44.0</ele><time>2026-03-28T16:30:19.555Z</time></trkpt><trkpt lat="44.6250343" lon="10.8742033"><ele>43.5</ele><time>2026-03-28T16:30:20.55Z</time></trkpt><trkpt lat="44.6252217" lon="10.8744636"><ele>43.0</ele><time>2026-03-28T16:30:21.553Z</time></trkpt><trkpt lat="44.6254228" lon="10.8747195"><ele>43.0</ele><time>2026-03-28T16:30:22.553Z</time></trkpt><trkpt lat="44.6256177" lon="10.8749711"><ele>43.0</ele><time>2026-03-28T16:30:23.554Z</time></trkpt><trkpt lat="44.6258127" lon="10.8752158"><ele>43.0</ele><time>2026-03-28T16:30:24.558Z</time></trkpt><trkpt lat="44.6260118" lon="10.8754599"><ele>43.0</ele><time>2026-03-28T16:30:25.557Z</time></trkpt><trkpt lat="44.626207" lon="10.8757046"><ele>42.5</ele><time>2026-03-28T16:30:26.558Z</time></trkpt><trkpt lat="44.6264018" lon="10.8759363"><ele>42.0</ele><time>2026-03-28T16:30:27.553Z</time></trkpt><trkpt lat="44.6265946" lon="10.8761723"><ele>42.0</ele><time>2026-03-28T16:30:28.554Z</time></trkpt><trkpt lat="44.6267906" lon="10.8764042"><ele>42.0</ele><time>2026-03-28T16:30:29.556Z</time></trkpt><trkpt lat="44.6269855" lon="10.8766513"><ele>44.0</ele><time>2026-03-28T16:30:30.557Z</time></trkpt><trkpt lat="44.6271899" lon="10.8768817"><ele>46.0</ele><time>2026-03-28T16:30:31.56Z</time></trkpt><trkpt lat="44.6273864" lon="10.8771284"><ele>46.0</ele><time>2026-03-28T16:30:32.554Z</time></trkpt><trkpt lat="44.6275898" lon="10.8773712"><ele>46.0</ele><time>2026-03-28T16:30:33.554Z</time></trkpt><trkpt lat="44.6277878" lon="10.8775936"><ele>46.0</ele><time>2026-03-28T16:30:34.553Z</time></trkpt><trkpt lat="44.6279785" lon="10.8778215"><ele>46.0</ele><time>2026-03-28T16:30:35.554Z</time></trkpt><trkpt lat="44.6281608" lon="10.8780281"><ele>46.0</ele><time>2026-03-28T16:30:36.551Z</time></trkpt><trkpt lat="44.6283288" lon="10.8782554"><ele>46.0</ele><time>2026-03-28T16:30:37.549Z</time></trkpt><trkpt lat="44.628493" lon="10.8784695"><ele>46.0</ele><time>2026-03-28T16:30:38.552Z</time></trkpt><trkpt lat="44.6286736" lon="10.8786735"><ele>46.0</ele><time>2026-03-28T16:30:39.551Z</time></trkpt><trkpt lat="44.6288516" lon="10.8788855"><ele>46.0</ele><time>2026-03-28T16:30:40.552Z</time></trkpt><trkpt lat="44.6290232" lon="10.8790994"><ele>46.0</ele><time>2026-03-28T16:30:41.567Z</time></trkpt><trkpt lat="44.6291959" lon="10.879299"><ele>45.0</ele><time>2026-03-28T16:30:42.552Z</time></trkpt><trkpt lat="44.6293681" lon="10.8795083"><ele>44.0</ele><time>2026-03-28T16:30:43.554Z</time></trkpt><trkpt lat="44.6295548" lon="10.8797329"><ele>44.0</ele><time>2026-03-28T16:30:44.552Z</time></trkpt><trkpt lat="44.6297431" lon="10.8799479"><ele>44.0</ele><time>2026-03-28T16:30:45.56Z</time></trkpt><trkpt lat="44.6299328" lon="10.8801714"><ele>44.0</ele><time>2026-03-28T16:30:46.555Z</time></trkpt><trkpt lat="44.6301431" lon="10.8803706"><ele>44.0</ele><time>2026-03-28T16:30:47.554Z</time></trkpt><trkpt lat="44.6303479" lon="10.8805729"><ele>44.0</ele><time>2026-03-28T16:30:48.549Z</time></trkpt><trkpt lat="44.6305607" lon="10.8807528"><ele>44.0</ele><time>2026-03-28T16:30:49.554Z</time></trkpt><trkpt lat="44.6307638" lon="10.8809186"><ele>44.0</ele><time>2026-03-28T16:30:50.55Z</time></trkpt><trkpt lat="44.6309708" lon="10.8810717"><ele>44.0</ele><time>2026-03-28T16:30:51.555Z</time></trkpt><trkpt lat="44.6311737" lon="10.8812107"><ele>42.5</ele><time>2026-03-28T16:30:52.547Z</time></trkpt><trkpt lat="44.6313825" lon="10.8813553"><ele>41.0</ele><time>2026-03-28T16:30:53.548Z</time></trkpt><trkpt lat="44.6316009" lon="10.8814792"><ele>41.0</ele><time>2026-03-28T16:30:54.557Z</time></trkpt><trkpt lat="44.6318219" lon="10.8815988"><ele>41.0</ele><time>2026-03-28T16:30:55.556Z</time></trkpt><trkpt lat="44.6320595" lon="10.8817215"><ele>40.5</ele><time>2026-03-28T16:30:56.542Z</time></trkpt><trkpt lat="44.6322933" lon="10.8818354"><ele>40.0</ele><time>2026-03-28T16:30:57.551Z</time></trkpt><trkpt lat="44.6325507" lon="10.8819425"><ele>40.0</ele><time>2026-03-28T16:30:58.546Z</time></trkpt><trkpt lat="44.632806" lon="10.8820309"><ele>40.0</ele><time>2026-03-28T16:30:59.55Z</time></trkpt><trkpt lat="44.6330568" lon="10.8821016"><ele>40.0</ele><time>2026-03-28T16:31:00.551Z</time></trkpt><trkpt lat="44.6333141" lon="10.8821677"><ele>40.0</ele><time>2026-03-28T16:31:01.555Z</time></trkpt><trkpt lat="44.6335801" lon="10.882225"><ele>40.0</ele><time>2026-03-28T16:31:02.551Z</time></trkpt><trkpt lat="44.6338391" lon="10.882274"><ele>40.0</ele><time>2026-03-28T16:31:03.566Z</time></trkpt><trkpt lat="44.6340928" lon="10.8823108"><ele>40.0</ele><time>2026-03-28T16:31:04.547Z</time></trkpt><trkpt lat="44.6343462" lon="10.8823303"><ele>40.0</ele><time>2026-03-28T16:31:05.544Z</time></trkpt><trkpt lat="44.6346012" lon="10.8823397"><ele>40.5</ele><time>2026-03-28T16:31:06.544Z</time></trkpt><trkpt lat="44.63487" lon="10.8823367"><ele>41.0</ele><time>2026-03-28T16:31:07.549Z</time></trkpt><trkpt lat="44.6351318" lon="10.8823265"><ele>40.5</ele><time>2026-03-28T16:31:08.556Z</time></trkpt><trkpt lat="44.6354021" lon="10.8822954"><ele>40.0</ele><time>2026-03-28T16:31:09.549Z</time></trkpt><trkpt lat="44.6356683" lon="10.882258"><ele>40.0</ele><time>2026-03-28T16:31:10.549Z</time></trkpt><trkpt lat="44.6359385" lon="10.8822071"><ele>40.0</ele><time>2026-03-28T16:31:11.545Z</time></trkpt><trkpt lat="44.6362081" lon="10.8821381"><ele>39.5</ele><time>2026-03-28T16:31:12.542Z</time></trkpt><trkpt lat="44.6364846" lon="10.8820533"><ele>39.0</ele><time>2026-03-28T16:31:13.549Z</time></trkpt><trkpt lat="44.6367433" lon="10.8819638"><ele>38.5</ele><time>2026-03-28T16:31:14.545Z</time></trkpt><trkpt lat="44.6370091" lon="10.8818605"><ele>38.0</ele><time>2026-03-28T16:31:15.553Z</time></trkpt><trkpt lat="44.637274" lon="10.8817429"><ele>38.0</ele><time>2026-03-28T16:31:16.548Z</time></trkpt><trkpt lat="44.6375192" lon="10.8816093"><ele>38.0</ele><time>2026-03-28T16:31:17.546Z</time></trkpt><trkpt lat="44.6377836" lon="10.8814644"><ele>39.0</ele><time>2026-03-28T16:31:18.552Z</time></trkpt><trkpt lat="44.6380324" lon="10.8813204"><ele>40.0</ele><time>2026-03-28T16:31:19.549Z</time></trkpt><trkpt lat="44.6382822" lon="10.8811387"><ele>40.0</ele><time>2026-03-28T16:31:20.547Z</time></trkpt><trkpt lat="44.6385353" lon="10.8809759"><ele>40.0</ele><time>2026-03-28T16:31:21.551Z</time></trkpt><trkpt lat="44.6387752" lon="10.8807847"><ele>40.0</ele><time>2026-03-28T16:31:22.548Z</time></trkpt><trkpt lat="44.6390202" lon="10.880581"><ele>40.0</ele><time>2026-03-28T16:31:23.55Z</time></trkpt><trkpt lat="44.639254" lon="10.8803582"><ele>39.5</ele><time>2026-03-28T16:31:24.54Z</time></trkpt><trkpt lat="44.6394795" lon="10.8801168"><ele>39.0</ele><time>2026-03-28T16:31:25.548Z</time></trkpt><trkpt lat="44.6397006" lon="10.8798732"><ele>38.5</ele><time>2026-03-28T16:31:26.546Z</time></trkpt><trkpt lat="44.6399217" lon="10.8796299"><ele>38.0</ele><time>2026-03-28T16:31:27.545Z</time></trkpt><trkpt lat="44.640134" lon="10.8793661"><ele>38.5</ele><time>2026-03-28T16:31:28.543Z</time></trkpt><trkpt lat="44.6403474" lon="10.8791007"><ele>39.0</ele><time>2026-03-28T16:31:29.542Z</time></trkpt><trkpt lat="44.6405466" lon="10.8788443"><ele>39.0</ele><time>2026-03-28T16:31:30.548Z</time></trkpt><trkpt lat="44.640741" lon="10.8785602"><ele>39.0</ele><time>2026-03-28T16:31:31.556Z</time></trkpt><trkpt lat="44.6409416" lon="10.8782776"><ele>38.0</ele><time>2026-03-28T16:31:32.549Z</time></trkpt><trkpt lat="44.6411447" lon="10.8780152"><ele>37.0</ele><time>2026-03-28T16:31:33.555Z</time></trkpt><trkpt lat="44.641345" lon="10.8777981"><ele>37.0</ele><time>2026-03-28T16:31:34.547Z</time></trkpt><trkpt lat="44.6415513" lon="10.8776105"><ele>37.0</ele><time>2026-03-28T16:31:35.55Z</time></trkpt><trkpt lat="44.6417533" lon="10.8774367"><ele>36.0</ele><time>2026-03-28T16:31:36.557Z</time></trkpt><trkpt lat="44.6419775" lon="10.8772791"><ele>35.0</ele><time>2026-03-28T16:31:37.545Z</time></trkpt><trkpt lat="44.642217" lon="10.8771883"><ele>35.0</ele><time>2026-03-28T16:31:38.539Z</time></trkpt><trkpt lat="44.6424549" lon="10.8771221"><ele>35.0</ele><time>2026-03-28T16:31:39.545Z</time></trkpt><trkpt lat="44.6427026" lon="10.8770479"><ele>35.5</ele><time>2026-03-28T16:31:40.554Z</time></trkpt><trkpt lat="44.6429545" lon="10.8769596"><ele>36.0</ele><time>2026-03-28T16:31:41.559Z</time></trkpt><trkpt lat="44.6432052" lon="10.8768741"><ele>36.0</ele><time>2026-03-28T16:31:42.55Z</time></trkpt><trkpt lat="44.6434563" lon="10.8767996"><ele>36.0</ele><time>2026-03-28T16:31:43.555Z</time></trkpt><trkpt lat="44.6437174" lon="10.8767248"><ele>37.0</ele><time>2026-03-28T16:31:44.552Z</time></trkpt><trkpt lat="44.6439847" lon="10.8766373"><ele>38.0</ele><time>2026-03-28T16:31:45.55Z</time></trkpt><trkpt lat="44.6442404" lon="10.876552"><ele>38.5</ele><time>2026-03-28T16:31:46.552Z</time></trkpt><trkpt lat="44.6444929" lon="10.8764539"><ele>39.0</ele><time>2026-03-28T16:31:47.551Z</time></trkpt><trkpt lat="44.6447379" lon="10.8763548"><ele>39.0</ele><time>2026-03-28T16:31:48.557Z</time></trkpt><trkpt lat="44.6449793" lon="10.8762498"><ele>39.0</ele><time>2026-03-28T16:31:49.555Z</time></trkpt><trkpt lat="44.6452218" lon="10.8761393"><ele>40.0</ele><time>2026-03-28T16:31:50.554Z</time></trkpt><trkpt lat="44.6454583" lon="10.8760387"><ele>41.0</ele><time>2026-03-28T16:31:51.555Z</time></trkpt><trkpt lat="44.6456918" lon="10.8759401"><ele>40.5</ele><time>2026-03-28T16:31:52.549Z</time></trkpt><trkpt lat="44.6459343" lon="10.8758369"><ele>40.0</ele><time>2026-03-28T16:31:53.553Z</time></trkpt><trkpt lat="44.6461715" lon="10.8757337"><ele>40.0</ele><time>2026-03-28T16:31:54.553Z</time></trkpt><trkpt lat="44.6464142" lon="10.875628"><ele>40.0</ele><time>2026-03-28T16:31:55.552Z</time></trkpt><trkpt lat="44.6466655" lon="10.8755245"><ele>40.0</ele><time>2026-03-28T16:31:56.557Z</time></trkpt><trkpt lat="44.6469156" lon="10.8754131"><ele>40.0</ele><time>2026-03-28T16:31:57.556Z</time></trkpt><trkpt lat="44.6471836" lon="10.8752867"><ele>38.5</ele><time>2026-03-28T16:31:58.558Z</time></trkpt><trkpt lat="44.6474501" lon="10.8751665"><ele>37.0</ele><time>2026-03-28T16:31:59.553Z</time></trkpt><trkpt lat="44.6477112" lon="10.875056"><ele>37.0</ele><time>2026-03-28T16:32:00.557Z</time></trkpt><trkpt lat="44.6479711" lon="10.8749317"><ele>37.0</ele><time>2026-03-28T16:32:01.562Z</time></trkpt><trkpt lat="44.6482141" lon="10.8748261"><ele>37.0</ele><time>2026-03-28T16:32:02.557Z</time></trkpt><trkpt lat="44.6484575" lon="10.874707"><ele>37.0</ele><time>2026-03-28T16:32:03.567Z</time></trkpt><trkpt lat="44.6486872" lon="10.8745851"><ele>37.0</ele><time>2026-03-28T16:32:04.554Z</time></trkpt><trkpt lat="44.6489123" lon="10.8744559"><ele>37.0</ele><time>2026-03-28T16:32:05.552Z</time></trkpt><trkpt lat="44.649129" lon="10.8743139"><ele>37.0</ele><time>2026-03-28T16:32:06.555Z</time></trkpt><trkpt lat="44.6493387" lon="10.8741441"><ele>37.0</ele><time>2026-03-28T16:32:07.553Z</time></trkpt><trkpt lat="44.6495543" lon="10.8739703"><ele>36.5</ele><time>2026-03-28T16:32:08.56Z</time></trkpt><trkpt lat="44.6497619" lon="10.873775"><ele>36.0</ele><time>2026-03-28T16:32:09.555Z</time></trkpt><trkpt lat="44.6499556" lon="10.873565"><ele>36.5</ele><time>2026-03-28T16:32:10.546Z</time></trkpt><trkpt lat="44.650166" lon="10.8733304"><ele>37.0</ele><time>2026-03-28T16:32:11.547Z</time></trkpt><trkpt lat="44.6503404" lon="10.8730849"><ele>37.5</ele><time>2026-03-28T16:32:12.554Z</time></trkpt><trkpt lat="44.6505097" lon="10.872831"><ele>38.0</ele><time>2026-03-28T16:32:13.548Z</time></trkpt><trkpt lat="44.6506764" lon="10.8725715"><ele>40.0</ele><time>2026-03-28T16:32:14.555Z</time></trkpt><trkpt lat="44.6508304" lon="10.8723049"><ele>42.0</ele><time>2026-03-28T16:32:15.555Z</time></trkpt><trkpt lat="44.6509829" lon="10.8720549"><ele>41.5</ele><time>2026-03-28T16:32:16.552Z</time></trkpt><trkpt lat="44.6511359" lon="10.8718351"><ele>41.0</ele><time>2026-03-28T16:32:17.555Z</time></trkpt><trkpt lat="44.6513191" lon="10.8716196"><ele>42.5</ele><time>2026-03-28T16:32:18.547Z</time></trkpt><trkpt lat="44.6514929" lon="10.8713878"><ele>44.0</ele><time>2026-03-28T16:32:19.555Z</time></trkpt><trkpt lat="44.6516762" lon="10.8711787"><ele>44.0</ele><time>2026-03-28T16:32:20.552Z</time></trkpt><trkpt lat="44.6518528" lon="10.8709698"><ele>44.0</ele><time>2026-03-28T16:32:21.558Z</time></trkpt><trkpt lat="44.6520417" lon="10.8707911"><ele>43.0</ele><time>2026-03-28T16:32:22.557Z</time></trkpt><trkpt lat="44.6522122" lon="10.8706245"><ele>42.0</ele><time>2026-03-28T16:32:23.561Z</time></trkpt><trkpt lat="44.6524036" lon="10.8704578"><ele>41.0</ele><time>2026-03-28T16:32:24.56Z</time></trkpt><trkpt lat="44.6526168" lon="10.8702956"><ele>40.5</ele><time>2026-03-28T16:32:25.548Z</time></trkpt><trkpt lat="44.6528408" lon="10.8701297"><ele>40.0</ele><time>2026-03-28T16:32:26.559Z</time></trkpt><trkpt lat="44.6530747" lon="10.8699721"><ele>40.0</ele><time>2026-03-28T16:32:27.56Z</time></trkpt><trkpt lat="44.6533129" lon="10.8698319"><ele>40.0</ele><time>2026-03-28T16:32:28.556Z</time></trkpt><trkpt lat="44.6535537" lon="10.8696884"><ele>38.5</ele><time>2026-03-28T16:32:29.564Z</time></trkpt><trkpt lat="44.6537906" lon="10.8696"><ele>37.0</ele><time>2026-03-28T16:32:30.557Z</time></trkpt><trkpt lat="44.6540334" lon="10.8694957"><ele>37.0</ele><time>2026-03-28T16:32:31.557Z</time></trkpt><trkpt lat="44.6542827" lon="10.8694102"><ele>37.0</ele><time>2026-03-28T16:32:32.551Z</time></trkpt><trkpt lat="44.6545378" lon="10.8693738"><ele>37.0</ele><time>2026-03-28T16:32:33.558Z</time></trkpt><trkpt lat="44.654797" lon="10.8693279"><ele>37.0</ele><time>2026-03-28T16:32:34.55Z</time></trkpt><trkpt lat="44.6550623" lon="10.8692958"><ele>37.0</ele><time>2026-03-28T16:32:35.545Z</time></trkpt><trkpt lat="44.6553258" lon="10.8692931"><ele>37.0</ele><time>2026-03-28T16:32:36.546Z</time></trkpt><trkpt lat="44.6555777" lon="10.869293"><ele>37.0</ele><time>2026-03-28T16:32:37.543Z</time></trkpt><trkpt lat="44.6558376" lon="10.869318"><ele>37.0</ele><time>2026-03-28T16:32:38.543Z</time></trkpt><trkpt lat="44.6560941" lon="10.8693801"><ele>36.5</ele><time>2026-03-28T16:32:39.544Z</time></trkpt><trkpt lat="44.6563484" lon="10.8694428"><ele>36.0</ele><time>2026-03-28T16:32:40.542Z</time></trkpt><trkpt lat="44.6566054" lon="10.8695183"><ele>36.0</ele><time>2026-03-28T16:32:41.554Z</time></trkpt><trkpt lat="44.6568461" lon="10.8696152"><ele>36.0</ele><time>2026-03-28T16:32:42.544Z</time></trkpt><trkpt lat="44.6570838" lon="10.8697321"><ele>35.5</ele><time>2026-03-28T16:32:43.545Z</time></trkpt><trkpt lat="44.6573165" lon="10.8698537"><ele>35.0</ele><time>2026-03-28T16:32:44.546Z</time></trkpt><trkpt lat="44.6575436" lon="10.8699888"><ele>35.0</ele><time>2026-03-28T16:32:45.55Z</time></trkpt><trkpt lat="44.6577598" lon="10.8701552"><ele>35.0</ele><time>2026-03-28T16:32:46.547Z</time></trkpt><trkpt lat="44.6579662" lon="10.8703536"><ele>35.0</ele><time>2026-03-28T16:32:47.548Z</time></trkpt><trkpt lat="44.6581917" lon="10.8705574"><ele>35.0</ele><time>2026-03-28T16:32:48.541Z</time></trkpt><trkpt lat="44.6584134" lon="10.8707722"><ele>36.5</ele><time>2026-03-28T16:32:49.544Z</time></trkpt><trkpt lat="44.6586369" lon="10.8710223"><ele>38.0</ele><time>2026-03-28T16:32:50.542Z</time></trkpt><trkpt lat="44.6588559" lon="10.8713021"><ele>38.0</ele><time>2026-03-28T16:32:51.544Z</time></trkpt><trkpt lat="44.6590578" lon="10.8716061"><ele>38.0</ele><time>2026-03-28T16:32:52.549Z</time></trkpt><trkpt lat="44.6592622" lon="10.8719096"><ele>38.5</ele><time>2026-03-28T16:32:53.558Z</time></trkpt><trkpt lat="44.6594376" lon="10.8722684"><ele>39.0</ele><time>2026-03-28T16:32:54.549Z</time></trkpt><trkpt lat="44.659597" lon="10.8726145"><ele>37.5</ele><time>2026-03-28T16:32:55.539Z</time></trkpt><trkpt lat="44.6597292" lon="10.8729594"><ele>36.0</ele><time>2026-03-28T16:32:56.544Z</time></trkpt><trkpt lat="44.6598531" lon="10.8733002"><ele>36.5</ele><time>2026-03-28T16:32:57.544Z</time></trkpt><trkpt lat="44.6599689" lon="10.8736583"><ele>37.0</ele><time>2026-03-28T16:32:58.552Z</time></trkpt><trkpt lat="44.6600592" lon="10.8740216"><ele>36.5</ele><time>2026-03-28T16:32:59.55Z</time></trkpt><trkpt lat="44.6601346" lon="10.8744013"><ele>36.0</ele><time>2026-03-28T16:33:00.557Z</time></trkpt><trkpt lat="44.6602059" lon="10.8747802"><ele>35.5</ele><time>2026-03-28T16:33:01.559Z</time></trkpt><trkpt lat="44.6602683" lon="10.8751725"><ele>35.0</ele><time>2026-03-28T16:33:02.553Z</time></trkpt><trkpt lat="44.6603132" lon="10.875564"><ele>35.5</ele><time>2026-03-28T16:33:03.561Z</time></trkpt><trkpt lat="44.6603531" lon="10.8759494"><ele>36.0</ele><time>2026-03-28T16:33:04.563Z</time></trkpt><trkpt lat="44.6604013" lon="10.8763381"><ele>36.0</ele><time>2026-03-28T16:33:05.558Z</time></trkpt><trkpt lat="44.6604588" lon="10.8767428"><ele>36.0</ele><time>2026-03-28T16:33:06.569Z</time></trkpt><trkpt lat="44.6605123" lon="10.8771474"><ele>36.0</ele><time>2026-03-28T16:33:07.553Z</time></trkpt><trkpt lat="44.6605674" lon="10.8775476"><ele>36.0</ele><time>2026-03-28T16:33:08.552Z</time></trkpt><trkpt lat="44.6606275" lon="10.8779504"><ele>36.0</ele><time>2026-03-28T16:33:09.553Z</time></trkpt><trkpt lat="44.6606903" lon="10.8783548"><ele>36.0</ele><time>2026-03-28T16:33:10.556Z</time></trkpt><trkpt lat="44.6607565" lon="10.8787482"><ele>36.0</ele><time>2026-03-28T16:33:11.556Z</time></trkpt><trkpt lat="44.6608245" lon="10.879139"><ele>36.0</ele><time>2026-03-28T16:33:12.563Z</time></trkpt><trkpt lat="44.6609036" lon="10.8795269"><ele>36.0</ele><time>2026-03-28T16:33:13.557Z</time></trkpt><trkpt lat="44.6609847" lon="10.8799045"><ele>36.0</ele><time>2026-03-28T16:33:14.555Z</time></trkpt><trkpt lat="44.6610819" lon="10.880271"><ele>35.0</ele><time>2026-03-28T16:33:15.555Z</time></trkpt><trkpt lat="44.6611815" lon="10.8806408"><ele>34.0</ele><time>2026-03-28T16:33:16.563Z</time></trkpt><trkpt lat="44.6613005" lon="10.8810125"><ele>34.0</ele><time>2026-03-28T16:33:17.558Z</time></trkpt><trkpt lat="44.661415" lon="10.8813707"><ele>34.0</ele><time>2026-03-28T16:33:18.553Z</time></trkpt><trkpt lat="44.6615395" lon="10.8817339"><ele>34.0</ele><time>2026-03-28T16:33:19.56Z</time></trkpt><trkpt lat="44.6616761" lon="10.8820751"><ele>34.0</ele><time>2026-03-28T16:33:20.555Z</time></trkpt><trkpt lat="44.6618277" lon="10.8824153"><ele>35.0</ele><time>2026-03-28T16:33:21.563Z</time></trkpt><trkpt lat="44.6619738" lon="10.8827445"><ele>36.0</ele><time>2026-03-28T16:33:22.552Z</time></trkpt><trkpt lat="44.6621125" lon="10.8830678"><ele>36.0</ele><time>2026-03-28T16:33:23.561Z</time></trkpt><trkpt lat="44.6622831" lon="10.8833953"><ele>36.0</ele><time>2026-03-28T16:33:24.561Z</time></trkpt><trkpt lat="44.6624461" lon="10.883704"><ele>36.0</ele><time>2026-03-28T16:33:25.555Z</time></trkpt><trkpt lat="44.6626094" lon="10.8840064"><ele>36.0</ele><time>2026-03-28T16:33:26.557Z</time></trkpt><trkpt lat="44.6627768" lon="10.8843394"><ele>37.5</ele><time>2026-03-28T16:33:27.554Z</time></trkpt><trkpt lat="44.6629287" lon="10.8846405"><ele>39.0</ele><time>2026-03-28T16:33:28.558Z</time></trkpt><trkpt lat="44.6630829" lon="10.8849591"><ele>36.5</ele><time>2026-03-28T16:33:29.559Z</time></trkpt><trkpt lat="44.6632427" lon="10.8852889"><ele>34.0</ele><time>2026-03-28T16:33:30.555Z</time></trkpt><trkpt lat="44.6633882" lon="10.8856333"><ele>34.0</ele><time>2026-03-28T16:33:31.56Z</time></trkpt><trkpt lat="44.6635162" lon="10.8859845"><ele>34.0</ele><time>2026-03-28T16:33:32.544Z</time></trkpt><trkpt lat="44.6636274" lon="10.8863413"><ele>34.0</ele><time>2026-03-28T16:33:33.553Z</time></trkpt><trkpt lat="44.6637323" lon="10.8867298"><ele>34.0</ele><time>2026-03-28T16:33:34.546Z</time></trkpt><trkpt lat="44.6638344" lon="10.8871115"><ele>34.0</ele><time>2026-03-28T16:33:35.548Z</time></trkpt><trkpt lat="44.6639139" lon="10.8875009"><ele>34.0</ele><time>2026-03-28T16:33:36.551Z</time></trkpt><trkpt lat="44.6639764" lon="10.8878996"><ele>34.5</ele><time>2026-03-28T16:33:37.545Z</time></trkpt><trkpt lat="44.6640209" lon="10.8882998"><ele>35.0</ele><time>2026-03-28T16:33:38.548Z</time></trkpt><trkpt lat="44.6640596" lon="10.8887199"><ele>35.0</ele><time>2026-03-28T16:33:39.548Z</time></trkpt><trkpt lat="44.6640748" lon="10.8891207"><ele>35.0</ele><time>2026-03-28T16:33:40.54Z</time></trkpt><trkpt lat="44.6640764" lon="10.8895288"><ele>34.5</ele><time>2026-03-28T16:33:41.54Z</time></trkpt><trkpt lat="44.6640645" lon="10.8899333"><ele>34.0</ele><time>2026-03-28T16:33:42.543Z</time></trkpt><trkpt lat="44.6640478" lon="10.8903415"><ele>34.0</ele><time>2026-03-28T16:33:43.543Z</time></trkpt><trkpt lat="44.6640111" lon="10.8907568"><ele>34.0</ele><time>2026-03-28T16:33:44.541Z</time></trkpt><trkpt lat="44.6639695" lon="10.8911614"><ele>33.5</ele><time>2026-03-28T16:33:45.542Z</time></trkpt><trkpt lat="44.6639082" lon="10.8915612"><ele>33.0</ele><time>2026-03-28T16:33:46.539Z</time></trkpt><trkpt lat="44.6638459" lon="10.891961"><ele>33.0</ele><time>2026-03-28T16:33:47.545Z</time></trkpt><trkpt lat="44.6637917" lon="10.8923569"><ele>33.0</ele><time>2026-03-28T16:33:48.539Z</time></trkpt><trkpt lat="44.6637285" lon="10.8927455"><ele>34.5</ele><time>2026-03-28T16:33:49.54Z</time></trkpt><trkpt lat="44.6636678" lon="10.8931355"><ele>36.0</ele><time>2026-03-28T16:33:50.542Z</time></trkpt><trkpt lat="44.6636088" lon="10.8935317"><ele>36.0</ele><time>2026-03-28T16:33:51.544Z</time></trkpt><trkpt lat="44.6635707" lon="10.8939345"><ele>36.0</ele><time>2026-03-28T16:33:52.545Z</time></trkpt><trkpt lat="44.6635451" lon="10.8943364"><ele>36.0</ele><time>2026-03-28T16:33:53.545Z</time></trkpt><trkpt lat="44.6635356" lon="10.8947334"><ele>36.0</ele><time>2026-03-28T16:33:54.545Z</time></trkpt><trkpt lat="44.6635379" lon="10.8951334"><ele>36.0</ele><time>2026-03-28T16:33:55.549Z</time></trkpt><trkpt lat="44.6635519" lon="10.8955318"><ele>36.0</ele><time>2026-03-28T16:33:56.552Z</time></trkpt><trkpt lat="44.6635755" lon="10.8959181"><ele>36.0</ele><time>2026-03-28T16:33:57.55Z</time></trkpt><trkpt lat="44.6636086" lon="10.8963136"><ele>36.0</ele><time>2026-03-28T16:33:58.556Z</time></trkpt><trkpt lat="44.6636654" lon="10.8967034"><ele>37.0</ele><time>2026-03-28T16:33:59.548Z</time></trkpt><trkpt lat="44.663735" lon="10.8970834"><ele>38.0</ele><time>2026-03-28T16:34:00.556Z</time></trkpt><trkpt lat="44.6638098" lon="10.8974668"><ele>37.5</ele><time>2026-03-28T16:34:01.56Z</time></trkpt><trkpt lat="44.6639036" lon="10.8978347"><ele>37.0</ele><time>2026-03-28T16:34:02.551Z</time></trkpt><trkpt lat="44.6640037" lon="10.8982132"><ele>37.0</ele><time>2026-03-28T16:34:03.562Z</time></trkpt><trkpt lat="44.6641034" lon="10.8985955"><ele>37.0</ele><time>2026-03-28T16:34:04.554Z</time></trkpt><trkpt lat="44.6642027" lon="10.8989756"><ele>37.0</ele><time>2026-03-28T16:34:05.555Z</time></trkpt><trkpt lat="44.6643106" lon="10.8993735"><ele>37.0</ele><time>2026-03-28T16:34:06.549Z</time></trkpt><trkpt lat="44.664412" lon="10.8997565"><ele>36.0</ele><time>2026-03-28T16:34:07.557Z</time></trkpt><trkpt lat="44.6645137" lon="10.9001369"><ele>35.0</ele><time>2026-03-28T16:34:08.553Z</time></trkpt><trkpt lat="44.664611" lon="10.9005273"><ele>35.0</ele><time>2026-03-28T16:34:09.548Z</time></trkpt><trkpt lat="44.6647164" lon="10.9009282"><ele>35.0</ele><time>2026-03-28T16:34:10.557Z</time></trkpt><trkpt lat="44.6648182" lon="10.9013075"><ele>35.0</ele><time>2026-03-28T16:34:11.552Z</time></trkpt><trkpt lat="44.6649223" lon="10.9016625"><ele>35.0</ele><time>2026-03-28T16:34:12.545Z</time></trkpt><trkpt lat="44.6650198" lon="10.9019952"><ele>35.5</ele><time>2026-03-28T16:34:13.545Z</time></trkpt><trkpt lat="44.6651386" lon="10.9023198"><ele>36.0</ele><time>2026-03-28T16:34:14.55Z</time></trkpt><trkpt lat="44.6652387" lon="10.9026171"><ele>36.0</ele><time>2026-03-28T16:34:15.555Z</time></trkpt><trkpt lat="44.6653407" lon="10.9029024"><ele>36.0</ele><time>2026-03-28T16:34:16.555Z</time></trkpt><trkpt lat="44.6654512" lon="10.9031769"><ele>36.0</ele><time>2026-03-28T16:34:17.557Z</time></trkpt><trkpt lat="44.6655472" lon="10.903444"><ele>36.0</ele><time>2026-03-28T16:34:18.56Z</time></trkpt><trkpt lat="44.6656631" lon="10.9037157"><ele>36.0</ele><time>2026-03-28T16:34:19.555Z</time></trkpt><trkpt lat="44.6658018" lon="10.9039845"><ele>36.0</ele><time>2026-03-28T16:34:20.564Z</time></trkpt><trkpt lat="44.6659341" lon="10.9042438"><ele>36.0</ele><time>2026-03-28T16:34:21.561Z</time></trkpt><trkpt lat="44.6660549" lon="10.9045042"><ele>36.0</ele><time>2026-03-28T16:34:22.559Z</time></trkpt><trkpt lat="44.6661866" lon="10.9047764"><ele>35.0</ele><time>2026-03-28T16:34:23.56Z</time></trkpt><trkpt lat="44.6663326" lon="10.9050301"><ele>34.0</ele><time>2026-03-28T16:34:24.562Z</time></trkpt><trkpt lat="44.6665001" lon="10.9052774"><ele>34.0</ele><time>2026-03-28T16:34:25.55Z</time></trkpt><trkpt lat="44.6666665" lon="10.9055438"><ele>34.0</ele><time>2026-03-28T16:34:26.561Z</time></trkpt><trkpt lat="44.6668453" lon="10.9058095"><ele>34.5</ele><time>2026-03-28T16:34:27.551Z</time></trkpt><trkpt lat="44.6670304" lon="10.9060625"><ele>35.0</ele><time>2026-03-28T16:34:28.545Z</time></trkpt><trkpt lat="44.6672271" lon="10.9063025"><ele>35.0</ele><time>2026-03-28T16:34:29.539Z</time></trkpt><trkpt lat="44.6673976" lon="10.9065487"><ele>35.0</ele><time>2026-03-28T16:34:30.535Z</time></trkpt><trkpt lat="44.6675803" lon="10.9067479"><ele>34.0</ele><time>2026-03-28T16:34:31.548Z</time></trkpt><trkpt lat="44.6677719" lon="10.9069368"><ele>33.0</ele><time>2026-03-28T16:34:32.546Z</time></trkpt><trkpt lat="44.6679699" lon="10.9071209"><ele>33.0</ele><time>2026-03-28T16:34:33.55Z</time></trkpt><trkpt lat="44.6681558" lon="10.9073136"><ele>33.0</ele><time>2026-03-28T16:34:34.542Z</time></trkpt><trkpt lat="44.6683505" lon="10.907479"><ele>33.0</ele><time>2026-03-28T16:34:35.545Z</time></trkpt><trkpt lat="44.6685569" lon="10.907667"><ele>33.0</ele><time>2026-03-28T16:34:36.541Z</time></trkpt><trkpt lat="44.6687922" lon="10.9078574"><ele>33.0</ele><time>2026-03-28T16:34:37.541Z</time></trkpt><trkpt lat="44.669034" lon="10.9080405"><ele>33.0</ele><time>2026-03-28T16:34:38.541Z</time></trkpt><trkpt lat="44.669292" lon="10.9082283"><ele>34.0</ele><time>2026-03-28T16:34:39.548Z</time></trkpt><trkpt lat="44.6695462" lon="10.9084089"><ele>35.0</ele><time>2026-03-28T16:34:40.55Z</time></trkpt><trkpt lat="44.6698002" lon="10.9085901"><ele>35.0</ele><time>2026-03-28T16:34:41.553Z</time></trkpt><trkpt lat="44.6700515" lon="10.9087813"><ele>35.0</ele><time>2026-03-28T16:34:42.554Z</time></trkpt><trkpt lat="44.6702881" lon="10.9089687"><ele>36.5</ele><time>2026-03-28T16:34:43.549Z</time></trkpt><trkpt lat="44.6705035" lon="10.9091673"><ele>38.0</ele><time>2026-03-28T16:34:44.551Z</time></trkpt><trkpt lat="44.6706853" lon="10.9093627"><ele>39.0</ele><time>2026-03-28T16:34:45.547Z</time></trkpt><trkpt lat="44.6708666" lon="10.9095699"><ele>40.0</ele><time>2026-03-28T16:34:46.555Z</time></trkpt><trkpt lat="44.6710336" lon="10.9097744"><ele>39.66666666666667</ele><time>2026-03-28T16:34:47.551Z</time></trkpt><trkpt lat="44.6711842" lon="10.9099846"><ele>39.333333333333336</ele><time>2026-03-28T16:34:48.553Z</time></trkpt><trkpt lat="44.6713222" lon="10.910201"><ele>39.0</ele><time>2026-03-28T16:34:49.554Z</time></trkpt><trkpt lat="44.6714415" lon="10.9104122"><ele>39.0</ele><time>2026-03-28T16:34:50.557Z</time></trkpt><trkpt lat="44.6715463" lon="10.9106226"><ele>39.0</ele><time>2026-03-28T16:34:51.557Z</time></trkpt><trkpt lat="44.6716381" lon="10.9108463"><ele>39.0</ele><time>2026-03-28T16:34:52.555Z</time></trkpt><trkpt lat="44.6717229" lon="10.911077"><ele>39.0</ele><time>2026-03-28T16:34:53.557Z</time></trkpt><trkpt lat="44.6718177" lon="10.9113168"><ele>39.0</ele><time>2026-03-28T16:34:54.565Z</time></trkpt><trkpt lat="44.6718991" lon="10.9115813"><ele>39.0</ele><time>2026-03-28T16:34:55.555Z</time></trkpt><trkpt lat="44.6719721" lon="10.9118459"><ele>38.666666666666664</ele><time>2026-03-28T16:34:56.562Z</time></trkpt><trkpt lat="44.6720299" lon="10.9121323"><ele>38.33333333333333</ele><time>2026-03-28T16:34:57.562Z</time></trkpt><trkpt lat="44.6720796" lon="10.9124066"><ele>38.0</ele><time>2026-03-28T16:34:58.556Z</time></trkpt><trkpt lat="44.6721334" lon="10.9127085"><ele>37.33333333333333</ele><time>2026-03-28T16:34:59.559Z</time></trkpt><trkpt lat="44.6721711" lon="10.9130123"><ele>36.666666666666664</ele><time>2026-03-28T16:35:00.559Z</time></trkpt><trkpt lat="44.6722063" lon="10.9133259"><ele>36.0</ele><time>2026-03-28T16:35:01.558Z</time></trkpt><trkpt lat="44.6722248" lon="10.9136431"><ele>36.0</ele><time>2026-03-28T16:35:02.563Z</time></trkpt><trkpt lat="44.6722351" lon="10.9139682"><ele>36.0</ele><time>2026-03-28T16:35:03.564Z</time></trkpt><trkpt lat="44.6722393" lon="10.9143127"><ele>37.0</ele><time>2026-03-28T16:35:04.552Z</time></trkpt><trkpt lat="44.6722389" lon="10.9146801"><ele>38.0</ele><time>2026-03-28T16:35:05.546Z</time></trkpt><trkpt lat="44.6722381" lon="10.9150653"><ele>36.0</ele><time>2026-03-28T16:35:06.541Z</time></trkpt><trkpt lat="44.6722381" lon="10.9154781"><ele>34.0</ele><time>2026-03-28T16:35:07.554Z</time></trkpt><trkpt lat="44.6722476" lon="10.9158972"><ele>33.0</ele><time>2026-03-28T16:35:08.557Z</time></trkpt><trkpt lat="44.6722575" lon="10.9163308"><ele>32.0</ele><time>2026-03-28T16:35:09.559Z</time></trkpt><trkpt lat="44.6722705" lon="10.9167621"><ele>32.0</ele><time>2026-03-28T16:35:10.554Z</time></trkpt><trkpt lat="44.67228" lon="10.917183"><ele>32.0</ele><time>2026-03-28T16:35:11.562Z</time></trkpt><trkpt lat="44.6722873" lon="10.9176105"><ele>32.0</ele><time>2026-03-28T16:35:12.559Z</time></trkpt><trkpt lat="44.6722974" lon="10.9180258"><ele>32.0</ele><time>2026-03-28T16:35:13.555Z</time></trkpt><trkpt lat="44.6723038" lon="10.918439"><ele>32.0</ele><time>2026-03-28T16:35:14.557Z</time></trkpt><trkpt lat="44.6723069" lon="10.9188621"><ele>32.0</ele><time>2026-03-28T16:35:15.557Z</time></trkpt><trkpt lat="44.6723169" lon="10.9192966"><ele>32.5</ele><time>2026-03-28T16:35:16.555Z</time></trkpt><trkpt lat="44.6723263" lon="10.9197355"><ele>33.0</ele><time>2026-03-28T16:35:17.554Z</time></trkpt><trkpt lat="44.6723364" lon="10.9201642"><ele>33.0</ele><time>2026-03-28T16:35:18.562Z</time></trkpt><trkpt lat="44.6723435" lon="10.9205976"><ele>33.0</ele><time>2026-03-28T16:35:19.557Z</time></trkpt><trkpt lat="44.6723535" lon="10.9210306"><ele>33.5</ele><time>2026-03-28T16:35:20.551Z</time></trkpt><trkpt lat="44.6723643" lon="10.9214498"><ele>34.0</ele><time>2026-03-28T16:35:21.554Z</time></trkpt><trkpt lat="44.672372" lon="10.9218617"><ele>34.0</ele><time>2026-03-28T16:35:22.551Z</time></trkpt><trkpt lat="44.6723778" lon="10.922257"><ele>34.0</ele><time>2026-03-28T16:35:23.565Z</time></trkpt><trkpt lat="44.6723812" lon="10.9226511"><ele>33.5</ele><time>2026-03-28T16:35:24.552Z</time></trkpt><trkpt lat="44.6723729" lon="10.9230289"><ele>33.0</ele><time>2026-03-28T16:35:25.56Z</time></trkpt><trkpt lat="44.6723385" lon="10.9234284"><ele>32.0</ele><time>2026-03-28T16:35:26.549Z</time></trkpt><trkpt lat="44.6722901" lon="10.9238163"><ele>31.0</ele><time>2026-03-28T16:35:27.543Z</time></trkpt><trkpt lat="44.6722201" lon="10.9242208"><ele>31.5</ele><time>2026-03-28T16:35:28.55Z</time></trkpt><trkpt lat="44.6721242" lon="10.9246264"><ele>32.0</ele><time>2026-03-28T16:35:29.549Z</time></trkpt><trkpt lat="44.6719729" lon="10.9250372"><ele>32.5</ele><time>2026-03-28T16:35:30.557Z</time></trkpt><trkpt lat="44.6718216" lon="10.9254355"><ele>33.0</ele><time>2026-03-28T16:35:31.558Z</time></trkpt><trkpt lat="44.6716625" lon="10.9257899"><ele>33.5</ele><time>2026-03-28T16:35:32.537Z</time></trkpt><trkpt lat="44.6714967" lon="10.926106"><ele>34.0</ele><time>2026-03-28T16:35:33.542Z</time></trkpt><trkpt lat="44.6713144" lon="10.9264103"><ele>34.0</ele><time>2026-03-28T16:35:34.531Z</time></trkpt><trkpt lat="44.6711222" lon="10.9267021"><ele>34.0</ele><time>2026-03-28T16:35:35.538Z</time></trkpt><trkpt lat="44.6709131" lon="10.926941"><ele>34.5</ele><time>2026-03-28T16:35:36.536Z</time></trkpt><trkpt lat="44.6707227" lon="10.9271551"><ele>35.0</ele><time>2026-03-28T16:35:37.542Z</time></trkpt><trkpt lat="44.6705317" lon="10.9273479"><ele>35.0</ele><time>2026-03-28T16:35:38.541Z</time></trkpt><trkpt lat="44.6703334" lon="10.9275361"><ele>35.0</ele><time>2026-03-28T16:35:39.539Z</time></trkpt><trkpt lat="44.6701452" lon="10.9277483"><ele>35.0</ele><time>2026-03-28T16:35:40.546Z</time></trkpt><trkpt lat="44.6699576" lon="10.9279828"><ele>35.0</ele><time>2026-03-28T16:35:41.547Z</time></trkpt><trkpt lat="44.6697842" lon="10.928208"><ele>33.5</ele><time>2026-03-28T16:35:42.548Z</time></trkpt><trkpt lat="44.6696189" lon="10.9284184"><ele>32.0</ele><time>2026-03-28T16:35:43.549Z</time></trkpt><trkpt lat="44.6694546" lon="10.9286415"><ele>32.0</ele><time>2026-03-28T16:35:44.544Z</time></trkpt><trkpt lat="44.6692902" lon="10.9288905"><ele>32.0</ele><time>2026-03-28T16:35:45.555Z</time></trkpt><trkpt lat="44.6691379" lon="10.9291328"><ele>32.5</ele><time>2026-03-28T16:35:46.553Z</time></trkpt><trkpt lat="44.6689913" lon="10.9293882"><ele>33.0</ele><time>2026-03-28T16:35:47.553Z</time></trkpt><trkpt lat="44.6688565" lon="10.9296402"><ele>33.0</ele><time>2026-03-28T16:35:48.561Z</time></trkpt><trkpt lat="44.6687265" lon="10.9299045"><ele>33.0</ele><time>2026-03-28T16:35:49.554Z</time></trkpt><trkpt lat="44.668578" lon="10.9301688"><ele>32.0</ele><time>2026-03-28T16:35:50.554Z</time></trkpt><trkpt lat="44.6684311" lon="10.9304239"><ele>31.0</ele><time>2026-03-28T16:35:51.561Z</time></trkpt><trkpt lat="44.6682851" lon="10.9306932"><ele>31.0</ele><time>2026-03-28T16:35:52.557Z</time></trkpt><trkpt lat="44.6681443" lon="10.9309595"><ele>31.0</ele><time>2026-03-28T16:35:53.564Z</time></trkpt><trkpt lat="44.6679914" lon="10.9312287"><ele>31.0</ele><time>2026-03-28T16:35:54.552Z</time></trkpt><trkpt lat="44.6678345" lon="10.9315196"><ele>31.0</ele><time>2026-03-28T16:35:55.543Z</time></trkpt><trkpt lat="44.6676704" lon="10.9318228"><ele>32.0</ele><time>2026-03-28T16:35:56.54Z</time></trkpt><trkpt lat="44.6674863" lon="10.9321497"><ele>33.0</ele><time>2026-03-28T16:35:57.531Z</time></trkpt><trkpt lat="44.6673012" lon="10.9324921"><ele>33.0</ele><time>2026-03-28T16:35:58.535Z</time></trkpt><trkpt lat="44.6671085" lon="10.9328533"><ele>33.0</ele><time>2026-03-28T16:35:59.537Z</time></trkpt><trkpt lat="44.6669069" lon="10.9331885"><ele>32.5</ele><time>2026-03-28T16:36:00.542Z</time></trkpt><trkpt lat="44.6667391" lon="10.9335173"><ele>32.0</ele><time>2026-03-28T16:36:01.539Z</time></trkpt><trkpt lat="44.6665665" lon="10.9338319"><ele>32.0</ele><time>2026-03-28T16:36:02.548Z</time></trkpt><trkpt lat="44.666402" lon="10.9341416"><ele>32.0</ele><time>2026-03-28T16:36:03.552Z</time></trkpt><trkpt lat="44.6662421" lon="10.9344446"><ele>32.0</ele><time>2026-03-28T16:36:04.543Z</time></trkpt><trkpt lat="44.6660659" lon="10.9347649"><ele>32.0</ele><time>2026-03-28T16:36:05.564Z</time></trkpt><trkpt lat="44.6658846" lon="10.9350866"><ele>31.5</ele><time>2026-03-28T16:36:06.543Z</time></trkpt><trkpt lat="44.6657186" lon="10.9353841"><ele>31.0</ele><time>2026-03-28T16:36:07.543Z</time></trkpt><trkpt lat="44.6655564" lon="10.9356833"><ele>30.5</ele><time>2026-03-28T16:36:08.549Z</time></trkpt><trkpt lat="44.6654032" lon="10.9359665"><ele>30.0</ele><time>2026-03-28T16:36:09.549Z</time></trkpt><trkpt lat="44.6652486" lon="10.9362667"><ele>30.5</ele><time>2026-03-28T16:36:10.55Z</time></trkpt><trkpt lat="44.6650882" lon="10.9365477"><ele>31.0</ele><time>2026-03-28T16:36:11.556Z</time></trkpt><trkpt lat="44.6649313" lon="10.9368252"><ele>31.0</ele><time>2026-03-28T16:36:12.548Z</time></trkpt><trkpt lat="44.6647784" lon="10.9371121"><ele>31.0</ele><time>2026-03-28T16:36:13.555Z</time></trkpt><trkpt lat="44.6646282" lon="10.9373824"><ele>31.0</ele><time>2026-03-28T16:36:14.555Z</time></trkpt><trkpt lat="44.6644768" lon="10.9376642"><ele>31.0</ele><time>2026-03-28T16:36:15.554Z</time></trkpt><trkpt lat="44.6643233" lon="10.9379435"><ele>31.0</ele><time>2026-03-28T16:36:16.555Z</time></trkpt><trkpt lat="44.6641666" lon="10.9382206"><ele>31.0</ele><time>2026-03-28T16:36:17.558Z</time></trkpt><trkpt lat="44.6640129" lon="10.9385049"><ele>31.0</ele><time>2026-03-28T16:36:18.553Z</time></trkpt><trkpt lat="44.6638542" lon="10.9387991"><ele>31.0</ele><time>2026-03-28T16:36:19.568Z</time></trkpt><trkpt lat="44.6637045" lon="10.9390946"><ele>32.0</ele><time>2026-03-28T16:36:20.559Z</time></trkpt><trkpt lat="44.6635459" lon="10.9393863"><ele>33.0</ele><time>2026-03-28T16:36:21.556Z</time></trkpt><trkpt lat="44.6633939" lon="10.9396774"><ele>33.0</ele><time>2026-03-28T16:36:22.554Z</time></trkpt><trkpt lat="44.6632418" lon="10.9399532"><ele>33.0</ele><time>2026-03-28T16:36:23.554Z</time></trkpt><trkpt lat="44.6630894" lon="10.9402301"><ele>32.5</ele><time>2026-03-28T16:36:24.563Z</time></trkpt><trkpt lat="44.6629346" lon="10.9405149"><ele>32.0</ele><time>2026-03-28T16:36:25.554Z</time></trkpt><trkpt lat="44.6627821" lon="10.9407958"><ele>30.5</ele><time>2026-03-28T16:36:26.562Z</time></trkpt><trkpt lat="44.6626308" lon="10.9410842"><ele>29.0</ele><time>2026-03-28T16:36:27.556Z</time></trkpt><trkpt lat="44.6624806" lon="10.9413561"><ele>29.0</ele><time>2026-03-28T16:36:28.554Z</time></trkpt><trkpt lat="44.6623216" lon="10.9416457"><ele>29.0</ele><time>2026-03-28T16:36:29.558Z</time></trkpt><trkpt lat="44.6621611" lon="10.9419149"><ele>29.0</ele><time>2026-03-28T16:36:30.557Z</time></trkpt><trkpt lat="44.6620197" lon="10.9422106"><ele>29.0</ele><time>2026-03-28T16:36:31.566Z</time></trkpt><trkpt lat="44.6618751" lon="10.9424771"><ele>30.5</ele><time>2026-03-28T16:36:32.551Z</time></trkpt><trkpt lat="44.6617275" lon="10.942755"><ele>32.0</ele><time>2026-03-28T16:36:33.552Z</time></trkpt><trkpt lat="44.6615683" lon="10.9430233"><ele>32.0</ele><time>2026-03-28T16:36:34.549Z</time></trkpt><trkpt lat="44.6614237" lon="10.9433053"><ele>32.0</ele><time>2026-03-28T16:36:35.548Z</time></trkpt><trkpt lat="44.6612654" lon="10.9435962"><ele>32.5</ele><time>2026-03-28T16:36:36.559Z</time></trkpt><trkpt lat="44.6611244" lon="10.9438713"><ele>33.0</ele><time>2026-03-28T16:36:37.545Z</time></trkpt><trkpt lat="44.6609709" lon="10.9441561"><ele>32.5</ele><time>2026-03-28T16:36:38.546Z</time></trkpt><trkpt lat="44.6608256" lon="10.9444271"><ele>32.0</ele><time>2026-03-28T16:36:39.546Z</time></trkpt><trkpt lat="44.6606896" lon="10.9447234"><ele>32.0</ele><time>2026-03-28T16:36:40.546Z</time></trkpt><trkpt lat="44.6605703" lon="10.9450289"><ele>32.0</ele><time>2026-03-28T16:36:41.545Z</time></trkpt><trkpt lat="44.6604647" lon="10.9453361"><ele>31.5</ele><time>2026-03-28T16:36:42.548Z</time></trkpt><trkpt lat="44.6603633" lon="10.9456473"><ele>31.0</ele><time>2026-03-28T16:36:43.541Z</time></trkpt><trkpt lat="44.6602753" lon="10.9459706"><ele>31.0</ele><time>2026-03-28T16:36:44.544Z</time></trkpt><trkpt lat="44.6601963" lon="10.9462834"><ele>31.0</ele><time>2026-03-28T16:36:45.545Z</time></trkpt><trkpt lat="44.6601237" lon="10.9466214"><ele>30.0</ele><time>2026-03-28T16:36:46.551Z</time></trkpt><trkpt lat="44.6600565" lon="10.9469464"><ele>29.0</ele><time>2026-03-28T16:36:47.548Z</time></trkpt><trkpt lat="44.659989" lon="10.9472812"><ele>28.0</ele><time>2026-03-28T16:36:48.555Z</time></trkpt><trkpt lat="44.6599177" lon="10.9475942"><ele>27.0</ele><time>2026-03-28T16:36:49.558Z</time></trkpt><trkpt lat="44.6598462" lon="10.9479193"><ele>27.0</ele><time>2026-03-28T16:36:50.553Z</time></trkpt><trkpt lat="44.6597834" lon="10.9482227"><ele>27.0</ele><time>2026-03-28T16:36:51.558Z</time></trkpt><trkpt lat="44.6597333" lon="10.9485003"><ele>27.0</ele><time>2026-03-28T16:36:52.554Z</time></trkpt><trkpt lat="44.659679" lon="10.9487789"><ele>27.666666666666664</ele><time>2026-03-28T16:36:53.553Z</time></trkpt><trkpt lat="44.6596302" lon="10.9490571"><ele>28.333333333333332</ele><time>2026-03-28T16:36:54.554Z</time></trkpt><trkpt lat="44.659581" lon="10.9493289"><ele>29.0</ele><time>2026-03-28T16:36:55.553Z</time></trkpt><trkpt lat="44.6595207" lon="10.9496124"><ele>29.333333333333332</ele><time>2026-03-28T16:36:56.557Z</time></trkpt><trkpt lat="44.6594657" lon="10.9499057"><ele>29.666666666666664</ele><time>2026-03-28T16:36:57.548Z</time></trkpt><trkpt lat="44.6594153" lon="10.9501886"><ele>30.0</ele><time>2026-03-28T16:36:58.558Z</time></trkpt><trkpt lat="44.6593516" lon="10.9504696"><ele>30.333333333333336</ele><time>2026-03-28T16:36:59.554Z</time></trkpt><trkpt lat="44.6592709" lon="10.9507324"><ele>30.666666666666668</ele><time>2026-03-28T16:37:00.546Z</time></trkpt><trkpt lat="44.659193" lon="10.9509941"><ele>31.0</ele><time>2026-03-28T16:37:01.56Z</time></trkpt><trkpt lat="44.6590991" lon="10.9512523"><ele>31.0</ele><time>2026-03-28T16:37:02.548Z</time></trkpt><trkpt lat="44.6589964" lon="10.9515056"><ele>31.0</ele><time>2026-03-28T16:37:03.548Z</time></trkpt><trkpt lat="44.6588877" lon="10.9517487"><ele>31.0</ele><time>2026-03-28T16:37:04.545Z</time></trkpt><trkpt lat="44.6587907" lon="10.9519787"><ele>31.0</ele><time>2026-03-28T16:37:05.54Z</time></trkpt><trkpt lat="44.6586925" lon="10.952189"><ele>31.0</ele><time>2026-03-28T16:37:06.538Z</time></trkpt><trkpt lat="44.6585921" lon="10.9523783"><ele>31.0</ele><time>2026-03-28T16:37:07.548Z</time></trkpt><trkpt lat="44.6584843" lon="10.9525643"><ele>30.0</ele><time>2026-03-28T16:37:08.546Z</time></trkpt><trkpt lat="44.6583691" lon="10.9527207"><ele>29.0</ele><time>2026-03-28T16:37:09.542Z</time></trkpt><trkpt lat="44.65825" lon="10.9528335"><ele>28.0</ele><time>2026-03-28T16:37:10.546Z</time></trkpt><trkpt lat="44.6581059" lon="10.9528747"><ele>28.0</ele><time>2026-03-28T16:37:11.543Z</time></trkpt><trkpt lat="44.6579546" lon="10.9528671"><ele>28.0</ele><time>2026-03-28T16:37:12.543Z</time></trkpt><trkpt lat="44.6578051" lon="10.9528322"><ele>28.0</ele><time>2026-03-28T16:37:13.533Z</time></trkpt><trkpt lat="44.6576584" lon="10.9527775"><ele>28.75</ele><time>2026-03-28T16:37:14.539Z</time></trkpt><trkpt lat="44.6575265" lon="10.9527971"><ele>29.5</ele><time>2026-03-28T16:37:15.542Z</time></trkpt><trkpt lat="44.6574103" lon="10.9528759"><ele>30.25</ele><time>2026-03-28T16:37:16.531Z</time></trkpt><trkpt lat="44.6572978" lon="10.9529601"><ele>31.0</ele><time>2026-03-28T16:37:17.538Z</time></trkpt><trkpt lat="44.6571932" lon="10.9530142"><ele>31.0</ele><time>2026-03-28T16:37:18.542Z</time></trkpt><trkpt lat="44.6570934" lon="10.9529847"><ele>31.0</ele><time>2026-03-28T16:37:19.544Z</time></trkpt><trkpt lat="44.6570078" lon="10.9529346"><ele>31.0</ele><time>2026-03-28T16:37:20.545Z</time></trkpt><trkpt lat="44.6569377" lon="10.9528444"><ele>31.0</ele><time>2026-03-28T16:37:21.539Z</time></trkpt><trkpt lat="44.6568654" lon="10.9527188"><ele>31.0</ele><time>2026-03-28T16:37:22.536Z</time></trkpt><trkpt lat="44.6567829" lon="10.9525766"><ele>30.5</ele><time>2026-03-28T16:37:23.541Z</time></trkpt><trkpt lat="44.6566992" lon="10.9524116"><ele>30.0</ele><time>2026-03-28T16:37:24.544Z</time></trkpt><trkpt lat="44.6566222" lon="10.9522551"><ele>29.5</ele><time>2026-03-28T16:37:25.538Z</time></trkpt><trkpt lat="44.656575" lon="10.9521093"><ele>29.0</ele><time>2026-03-28T16:37:26.543Z</time></trkpt><trkpt lat="44.6565743" lon="10.9519988"><ele>29.0</ele><time>2026-03-28T16:37:27.546Z</time></trkpt><trkpt lat="44.6566141" lon="10.9518986"><ele>29.0</ele><time>2026-03-28T16:37:28.549Z</time></trkpt><trkpt lat="44.6566893" lon="10.9518369"><ele>29.0</ele><time>2026-03-28T16:37:29.547Z</time></trkpt><trkpt lat="44.6567755" lon="10.9518424"><ele>29.0</ele><time>2026-03-28T16:37:30.545Z</time></trkpt><trkpt lat="44.6568751" lon="10.9519236"><ele>29.0</ele><time>2026-03-28T16:37:31.547Z</time></trkpt><trkpt lat="44.6569742" lon="10.9520296"><ele>29.5</ele><time>2026-03-28T16:37:32.545Z</time></trkpt><trkpt lat="44.6570748" lon="10.9521573"><ele>30.0</ele><time>2026-03-28T16:37:33.535Z</time></trkpt><trkpt lat="44.657144" lon="10.952302"><ele>30.5</ele><time>2026-03-28T16:37:34.537Z</time></trkpt><trkpt lat="44.6571756" lon="10.9524461"><ele>31.0</ele><time>2026-03-28T16:37:35.54Z</time></trkpt><trkpt lat="44.6571581" lon="10.952595"><ele>31.0</ele><time>2026-03-28T16:37:36.537Z</time></trkpt><trkpt lat="44.6570829" lon="10.952742"><ele>31.0</ele><time>2026-03-28T16:37:37.538Z</time></trkpt><trkpt lat="44.6569708" lon="10.9528885"><ele>31.0</ele><time>2026-03-28T16:37:38.52Z</time></trkpt><trkpt lat="44.6568757" lon="10.9530059"><ele>31.0</ele><time>2026-03-28T16:37:39.513Z</time></trkpt><trkpt lat="44.6567711" lon="10.9530834"><ele>31.25</ele><time>2026-03-28T16:37:40.516Z</time></trkpt><trkpt lat="44.6566357" lon="10.9531268"><ele>31.5</ele><time>2026-03-28T16:37:41.516Z</time></trkpt><trkpt lat="44.6565367" lon="10.9531054"><ele>31.75</ele><time>2026-03-28T16:37:42.519Z</time></trkpt><trkpt lat="44.6564443" lon="10.9529924"><ele>32.0</ele><time>2026-03-28T16:37:43.518Z</time></trkpt><trkpt lat="44.6563627" lon="10.9528332"><ele>32.0</ele><time>2026-03-28T16:37:44.516Z</time></trkpt><trkpt lat="44.6562844" lon="10.9526252"><ele>32.0</ele><time>2026-03-28T16:37:45.517Z</time></trkpt><trkpt lat="44.6562238" lon="10.9524361"><ele>32.0</ele><time>2026-03-28T16:37:46.52Z</time></trkpt><trkpt lat="44.6562026" lon="10.9522502"><ele>32.0</ele><time>2026-03-28T16:37:47.524Z</time></trkpt><trkpt lat="44.6562204" lon="10.9520979"><ele>31.499999999999996</ele><time>2026-03-28T16:37:48.531Z</time></trkpt><trkpt lat="44.6562695" lon="10.9520323"><ele>31.0</ele><time>2026-03-28T16:37:49.534Z</time></trkpt><trkpt lat="44.6563313" lon="10.9520094"><ele>30.5</ele><time>2026-03-28T16:37:50.529Z</time></trkpt><trkpt lat="44.6564167" lon="10.9520657"><ele>30.0</ele><time>2026-03-28T16:38:00.536Z</time></trkpt><trkpt lat="44.656471" lon="10.9521578"><ele>29.499999999999996</ele><time>2026-03-28T16:38:01.54Z</time></trkpt><trkpt lat="44.6565449" lon="10.9523021"><ele>29.0</ele><time>2026-03-28T16:38:02.528Z</time></trkpt><trkpt lat="44.656598" lon="10.9524357"><ele>29.6</ele><time>2026-03-28T16:38:03.538Z</time></trkpt><trkpt lat="44.6566544" lon="10.9525557"><ele>30.2</ele><time>2026-03-28T16:38:04.536Z</time></trkpt><trkpt lat="44.6567117" lon="10.9526709"><ele>30.800000000000004</ele><time>2026-03-28T16:38:05.53Z</time></trkpt><trkpt lat="44.6567789" lon="10.9527916"><ele>31.400000000000002</ele><time>2026-03-28T16:38:06.529Z</time></trkpt><trkpt lat="44.6568615" lon="10.9529161"><ele>32.0</ele><time>2026-03-28T16:38:07.541Z</time></trkpt><trkpt lat="44.6569322" lon="10.9530365"><ele>32.0</ele><time>2026-03-28T16:38:08.541Z</time></trkpt><trkpt lat="44.6570039" lon="10.9531542"><ele>32.0</ele><time>2026-03-28T16:38:09.539Z</time></trkpt><trkpt lat="44.6570737" lon="10.9532749"><ele>32.0</ele><time>2026-03-28T16:38:10.533Z</time></trkpt><trkpt lat="44.6571498" lon="10.9534061"><ele>32.0</ele><time>2026-03-28T16:38:11.54Z</time></trkpt><trkpt lat="44.6572303" lon="10.9535369"><ele>32.0</ele><time>2026-03-28T16:38:12.543Z</time></trkpt><trkpt lat="44.6573012" lon="10.9536619"><ele>32.0</ele><time>2026-03-28T16:38:13.539Z</time></trkpt><trkpt lat="44.6573681" lon="10.9537837"><ele>32.0</ele><time>2026-03-28T16:38:14.545Z</time></trkpt><trkpt lat="44.6574407" lon="10.9539115"><ele>32.0</ele><time>2026-03-28T16:38:15.546Z</time></trkpt><trkpt lat="44.6575159" lon="10.9540443"><ele>32.0</ele><time>2026-03-28T16:38:16.547Z</time></trkpt><trkpt lat="44.6575978" lon="10.9541869"><ele>32.0</ele><time>2026-03-28T16:38:17.541Z</time></trkpt><trkpt lat="44.6576758" lon="10.9543325"><ele>32.0</ele><time>2026-03-28T16:38:18.546Z</time></trkpt><trkpt lat="44.6577582" lon="10.9544785"><ele>32.0</ele><time>2026-03-28T16:38:19.544Z</time></trkpt><trkpt lat="44.657843" lon="10.9546271"><ele>31.25</ele><time>2026-03-28T16:38:20.546Z</time></trkpt><trkpt lat="44.6579198" lon="10.9547763"><ele>30.5</ele><time>2026-03-28T16:38:21.55Z</time></trkpt><trkpt lat="44.6580023" lon="10.9549202"><ele>29.75</ele><time>2026-03-28T16:38:22.551Z</time></trkpt><trkpt lat="44.6580824" lon="10.9550751"><ele>29.0</ele><time>2026-03-28T16:38:23.551Z</time></trkpt><trkpt lat="44.6581693" lon="10.9552304"><ele>29.0</ele><time>2026-03-28T16:38:24.563Z</time></trkpt><trkpt lat="44.6582385" lon="10.9553919"><ele>29.0</ele><time>2026-03-28T16:38:25.554Z</time></trkpt><trkpt lat="44.6582965" lon="10.9555586"><ele>29.0</ele><time>2026-03-28T16:38:26.551Z</time></trkpt><trkpt lat="44.6583412" lon="10.9557545"><ele>29.0</ele><time>2026-03-28T16:38:27.554Z</time></trkpt><trkpt lat="44.6583707" lon="10.9559477"><ele>29.25</ele><time>2026-03-28T16:38:28.545Z</time></trkpt><trkpt lat="44.6583638" lon="10.9561401"><ele>29.5</ele><time>2026-03-28T16:38:29.555Z</time></trkpt><trkpt lat="44.6583527" lon="10.9563534"><ele>29.75</ele><time>2026-03-28T16:38:30.546Z</time></trkpt><trkpt lat="44.6583348" lon="10.9565551"><ele>30.0</ele><time>2026-03-28T16:38:31.544Z</time></trkpt><trkpt lat="44.6583103" lon="10.9567584"><ele>30.0</ele><time>2026-03-28T16:38:32.546Z</time></trkpt><trkpt lat="44.6582831" lon="10.9569448"><ele>30.0</ele><time>2026-03-28T16:38:33.55Z</time></trkpt><trkpt lat="44.6582517" lon="10.9571084"><ele>30.0</ele><time>2026-03-28T16:38:34.543Z</time></trkpt><trkpt lat="44.6582274" lon="10.9572693"><ele>30.0</ele><time>2026-03-28T16:38:35.541Z</time></trkpt><trkpt lat="44.658207" lon="10.9574168"><ele>30.0</ele><time>2026-03-28T16:38:36.542Z</time></trkpt><trkpt lat="44.6582006" lon="10.9575374"><ele>30.0</ele><time>2026-03-28T16:38:37.542Z</time></trkpt><trkpt lat="44.6582026" lon="10.9576595"><ele>30.0</ele><time>2026-03-28T16:38:38.54Z</time></trkpt><trkpt lat="44.658203" lon="10.9577659"><ele>30.0</ele><time>2026-03-28T16:38:39.543Z</time></trkpt><trkpt lat="44.6582065" lon="10.9578886"><ele>30.0</ele><time>2026-03-28T16:38:40.548Z</time></trkpt><trkpt lat="44.6582124" lon="10.9580004"><ele>30.0</ele><time>2026-03-28T16:38:41.55Z</time></trkpt><trkpt lat="44.6582329" lon="10.9581189"><ele>30.0</ele><time>2026-03-28T16:38:42.549Z</time></trkpt><trkpt lat="44.6582568" lon="10.9582376"><ele>30.0</ele><time>2026-03-28T16:38:43.554Z</time></trkpt><trkpt lat="44.6582942" lon="10.9583774"><ele>30.0</ele><time>2026-03-28T16:38:44.55Z</time></trkpt><trkpt lat="44.6583405" lon="10.9585329"><ele>30.0</ele><time>2026-03-28T16:38:45.55Z</time></trkpt><trkpt lat="44.6583829" lon="10.9587031"><ele>30.0</ele><time>2026-03-28T16:38:46.546Z</time></trkpt><trkpt lat="44.6584351" lon="10.9588963"><ele>29.0</ele><time>2026-03-28T16:38:47.541Z</time></trkpt><trkpt lat="44.6585114" lon="10.9591325"><ele>28.0</ele><time>2026-03-28T16:38:48.541Z</time></trkpt><trkpt lat="44.6585934" lon="10.9594193"><ele>27.0</ele><time>2026-03-28T16:38:49.541Z</time></trkpt><trkpt lat="44.6586753" lon="10.9597139"><ele>27.0</ele><time>2026-03-28T16:38:50.544Z</time></trkpt><trkpt lat="44.6587616" lon="10.9600235"><ele>27.0</ele><time>2026-03-28T16:38:51.554Z</time></trkpt><trkpt lat="44.6588282" lon="10.9603403"><ele>28.5</ele><time>2026-03-28T16:38:52.544Z</time></trkpt><trkpt lat="44.6589016" lon="10.9606629"><ele>30.0</ele><time>2026-03-28T16:38:53.546Z</time></trkpt><trkpt lat="44.6589935" lon="10.9610096"><ele>31.5</ele><time>2026-03-28T16:38:54.55Z</time></trkpt><trkpt lat="44.6590917" lon="10.9613416"><ele>33.0</ele><time>2026-03-28T16:38:55.549Z</time></trkpt><trkpt lat="44.6591906" lon="10.9616664"><ele>32.5</ele><time>2026-03-28T16:38:56.555Z</time></trkpt><trkpt lat="44.6592969" lon="10.962017"><ele>32.0</ele><time>2026-03-28T16:38:57.549Z</time></trkpt><trkpt lat="44.6593966" lon="10.9623901"><ele>31.0</ele><time>2026-03-28T16:38:58.561Z</time></trkpt><trkpt lat="44.6594924" lon="10.9627837"><ele>30.0</ele><time>2026-03-28T16:38:59.556Z</time></trkpt><trkpt lat="44.6596076" lon="10.9631557"><ele>30.0</ele><time>2026-03-28T16:39:00.546Z</time></trkpt><trkpt lat="44.6597324" lon="10.9635533"><ele>30.0</ele><time>2026-03-28T16:39:01.553Z</time></trkpt><trkpt lat="44.6598642" lon="10.9639621"><ele>31.0</ele><time>2026-03-28T16:39:02.549Z</time></trkpt><trkpt lat="44.6599946" lon="10.9643495"><ele>32.0</ele><time>2026-03-28T16:39:03.555Z</time></trkpt><trkpt lat="44.6601264" lon="10.9647341"><ele>31.5</ele><time>2026-03-28T16:39:04.541Z</time></trkpt><trkpt lat="44.6602369" lon="10.9651148"><ele>31.0</ele><time>2026-03-28T16:39:05.54Z</time></trkpt><trkpt lat="44.6603512" lon="10.9655083"><ele>30.0</ele><time>2026-03-28T16:39:06.539Z</time></trkpt><trkpt lat="44.6604571" lon="10.9659102"><ele>29.0</ele><time>2026-03-28T16:39:07.54Z</time></trkpt><trkpt lat="44.6605809" lon="10.9662989"><ele>28.0</ele><time>2026-03-28T16:39:08.544Z</time></trkpt><trkpt lat="44.6606913" lon="10.9666961"><ele>27.0</ele><time>2026-03-28T16:39:09.541Z</time></trkpt><trkpt lat="44.6608048" lon="10.967088"><ele>27.0</ele><time>2026-03-28T16:39:10.547Z</time></trkpt><trkpt lat="44.6609141" lon="10.9674785"><ele>27.0</ele><time>2026-03-28T16:39:11.544Z</time></trkpt><trkpt lat="44.6610298" lon="10.9678754"><ele>27.0</ele><time>2026-03-28T16:39:12.546Z</time></trkpt><trkpt lat="44.6611513" lon="10.9682792"><ele>27.0</ele><time>2026-03-28T16:39:13.548Z</time></trkpt><trkpt lat="44.6612657" lon="10.9686629"><ele>27.0</ele><time>2026-03-28T16:39:14.549Z</time></trkpt><trkpt lat="44.6613764" lon="10.9690515"><ele>27.0</ele><time>2026-03-28T16:39:15.558Z</time></trkpt><trkpt lat="44.6614907" lon="10.9694285"><ele>27.5</ele><time>2026-03-28T16:39:16.548Z</time></trkpt><trkpt lat="44.6616041" lon="10.9698166"><ele>28.0</ele><time>2026-03-28T16:39:17.545Z</time></trkpt><trkpt lat="44.6617146" lon="10.9701964"><ele>28.0</ele><time>2026-03-28T16:39:18.537Z</time></trkpt><trkpt lat="44.6618233" lon="10.970596"><ele>28.0</ele><time>2026-03-28T16:39:19.537Z</time></trkpt><trkpt lat="44.6619271" lon="10.9709728"><ele>28.0</ele><time>2026-03-28T16:39:20.54Z</time></trkpt><trkpt lat="44.6620234" lon="10.9713485"><ele>28.0</ele><time>2026-03-28T16:39:21.537Z</time></trkpt><trkpt lat="44.6621328" lon="10.9717303"><ele>28.0</ele><time>2026-03-28T16:39:22.544Z</time></trkpt><trkpt lat="44.6622369" lon="10.9721073"><ele>28.0</ele><time>2026-03-28T16:39:23.551Z</time></trkpt><trkpt lat="44.6623476" lon="10.9724858"><ele>27.0</ele><time>2026-03-28T16:39:24.548Z</time></trkpt><trkpt lat="44.6624505" lon="10.9728656"><ele>26.0</ele><time>2026-03-28T16:39:25.555Z</time></trkpt><trkpt lat="44.6625599" lon="10.9732477"><ele>26.0</ele><time>2026-03-28T16:39:26.549Z</time></trkpt><trkpt lat="44.6626736" lon="10.973615"><ele>26.0</ele><time>2026-03-28T16:39:27.548Z</time></trkpt><trkpt lat="44.6627708" lon="10.9739896"><ele>26.5</ele><time>2026-03-28T16:39:28.544Z</time></trkpt><trkpt lat="44.662873" lon="10.9743563"><ele>27.0</ele><time>2026-03-28T16:39:29.547Z</time></trkpt><trkpt lat="44.6629724" lon="10.9746955"><ele>27.0</ele><time>2026-03-28T16:39:30.55Z</time></trkpt><trkpt lat="44.6630711" lon="10.9750162"><ele>27.0</ele><time>2026-03-28T16:39:31.546Z</time></trkpt><trkpt lat="44.6631681" lon="10.9753057"><ele>27.0</ele><time>2026-03-28T16:39:32.547Z</time></trkpt><trkpt lat="44.6632459" lon="10.9755763"><ele>27.0</ele><time>2026-03-28T16:39:33.546Z</time></trkpt><trkpt lat="44.6633204" lon="10.9758185"><ele>27.0</ele><time>2026-03-28T16:39:34.535Z</time></trkpt><trkpt lat="44.6633761" lon="10.9760467"><ele>27.0</ele><time>2026-03-28T16:39:35.536Z</time></trkpt><trkpt lat="44.6633945" lon="10.9762641"><ele>27.0</ele><time>2026-03-28T16:39:36.548Z</time></trkpt><trkpt lat="44.6633791" lon="10.976465"><ele>27.0</ele><time>2026-03-28T16:39:37.543Z</time></trkpt><trkpt lat="44.663335" lon="10.9766329"><ele>27.0</ele><time>2026-03-28T16:39:38.546Z</time></trkpt><trkpt lat="44.6632593" lon="10.9767698"><ele>27.0</ele><time>2026-03-28T16:39:39.545Z</time></trkpt><trkpt lat="44.6631652" lon="10.9768614"><ele>27.000000000000004</ele><time>2026-03-28T16:39:40.541Z</time></trkpt><trkpt lat="44.6630912" lon="10.9769797"><ele>27.000000000000004</ele><time>2026-03-28T16:39:41.549Z</time></trkpt><trkpt lat="44.6630871" lon="10.9771193"><ele>27.0</ele><time>2026-03-28T16:39:42.543Z</time></trkpt><trkpt lat="44.6631272" lon="10.9772548"><ele>27.0</ele><time>2026-03-28T16:39:43.546Z</time></trkpt><trkpt lat="44.6632103" lon="10.9773713"><ele>27.0</ele><time>2026-03-28T16:39:44.554Z</time></trkpt><trkpt lat="44.663335" lon="10.9774404"><ele>27.0</ele><time>2026-03-28T16:39:45.551Z</time></trkpt><trkpt lat="44.6634794" lon="10.9774607"><ele>27.0</ele><time>2026-03-28T16:39:46.549Z</time></trkpt><trkpt lat="44.663613" lon="10.9774914"><ele>27.0</ele><time>2026-03-28T16:39:47.539Z</time></trkpt><trkpt lat="44.6637222" lon="10.9775654"><ele>27.166666666666668</ele><time>2026-03-28T16:39:48.553Z</time></trkpt><trkpt lat="44.6638014" lon="10.9776591"><ele>27.333333333333336</ele><time>2026-03-28T16:39:49.54Z</time></trkpt><trkpt lat="44.6638623" lon="10.9777542"><ele>27.5</ele><time>2026-03-28T16:39:50.541Z</time></trkpt><trkpt lat="44.6639061" lon="10.9778376"><ele>27.666666666666668</ele><time>2026-03-28T16:39:51.539Z</time></trkpt><trkpt lat="44.6639486" lon="10.9779338"><ele>27.833333333333336</ele><time>2026-03-28T16:39:52.549Z</time></trkpt><trkpt lat="44.6639848" lon="10.978037"><ele>28.0</ele><time>2026-03-28T16:39:53.542Z</time></trkpt><trkpt lat="44.664009" lon="10.9781545"><ele>28.0</ele><time>2026-03-28T16:39:54.541Z</time></trkpt><trkpt lat="44.664051" lon="10.9782978"><ele>28.0</ele><time>2026-03-28T16:39:55.548Z</time></trkpt><trkpt lat="44.6641048" lon="10.9784741"><ele>28.0</ele><time>2026-03-28T16:39:56.549Z</time></trkpt><trkpt lat="44.6641594" lon="10.9786791"><ele>28.0</ele><time>2026-03-28T16:39:57.543Z</time></trkpt><trkpt lat="44.6642044" lon="10.9788846"><ele>28.0</ele><time>2026-03-28T16:39:58.543Z</time></trkpt><trkpt lat="44.6642603" lon="10.9790767"><ele>28.0</ele><time>2026-03-28T16:39:59.544Z</time></trkpt><trkpt lat="44.6643212" lon="10.9792749"><ele>28.0</ele><time>2026-03-28T16:40:00.549Z</time></trkpt><trkpt lat="44.6643803" lon="10.9794561"><ele>28.0</ele><time>2026-03-28T16:40:01.562Z</time></trkpt><trkpt lat="44.6644393" lon="10.9796448"><ele>28.25</ele><time>2026-03-28T16:40:02.547Z</time></trkpt><trkpt lat="44.6645035" lon="10.9798517"><ele>28.5</ele><time>2026-03-28T16:40:03.562Z</time></trkpt><trkpt lat="44.6645549" lon="10.9800387"><ele>28.75</ele><time>2026-03-28T16:40:04.541Z</time></trkpt><trkpt lat="44.6646071" lon="10.9802222"><ele>29.0</ele><time>2026-03-28T16:40:05.543Z</time></trkpt><trkpt lat="44.6646445" lon="10.9803813"><ele>29.0</ele><time>2026-03-28T16:40:06.54Z</time></trkpt><trkpt lat="44.6647143" lon="10.9805711"><ele>29.0</ele><time>2026-03-28T16:40:07.539Z</time></trkpt><trkpt lat="44.664764" lon="10.9807923"><ele>29.0</ele><time>2026-03-28T16:40:08.54Z</time></trkpt><trkpt lat="44.6648073" lon="10.9809977"><ele>28.333333333333332</ele><time>2026-03-28T16:40:09.541Z</time></trkpt><trkpt lat="44.6648564" lon="10.9811955"><ele>27.666666666666664</ele><time>2026-03-28T16:40:10.539Z</time></trkpt><trkpt lat="44.6649253" lon="10.9814195"><ele>27.0</ele><time>2026-03-28T16:40:11.537Z</time></trkpt><trkpt lat="44.6650062" lon="10.9816944"><ele>26.0</ele><time>2026-03-28T16:40:12.533Z</time></trkpt><trkpt lat="44.665084" lon="10.9819919"><ele>25.0</ele><time>2026-03-28T16:40:13.53Z</time></trkpt><trkpt lat="44.6651518" lon="10.9823021"><ele>26.0</ele><time>2026-03-28T16:40:14.532Z</time></trkpt><trkpt lat="44.6652275" lon="10.9825684"><ele>27.0</ele><time>2026-03-28T16:40:15.535Z</time></trkpt><trkpt lat="44.6652942" lon="10.9828171"><ele>28.0</ele><time>2026-03-28T16:40:16.544Z</time></trkpt><trkpt lat="44.6653488" lon="10.9830454"><ele>28.0</ele><time>2026-03-28T16:40:17.543Z</time></trkpt><trkpt lat="44.6654171" lon="10.9832796"><ele>28.0</ele><time>2026-03-28T16:40:18.551Z</time></trkpt><trkpt lat="44.6654602" lon="10.9834937"><ele>28.0</ele><time>2026-03-28T16:40:19.544Z</time></trkpt><trkpt lat="44.6655167" lon="10.9837132"><ele>28.0</ele><time>2026-03-28T16:40:20.544Z</time></trkpt><trkpt lat="44.6655754" lon="10.983936"><ele>28.0</ele><time>2026-03-28T16:40:21.544Z</time></trkpt><trkpt lat="44.6656344" lon="10.98415"><ele>28.0</ele><time>2026-03-28T16:40:22.545Z</time></trkpt><trkpt lat="44.6657126" lon="10.9843859"><ele>28.0</ele><time>2026-03-28T16:40:23.549Z</time></trkpt><trkpt lat="44.6657795" lon="10.9846232"><ele>28.0</ele><time>2026-03-28T16:40:24.542Z</time></trkpt><trkpt lat="44.6658634" lon="10.9848967"><ele>28.0</ele><time>2026-03-28T16:40:25.546Z</time></trkpt><trkpt lat="44.6659477" lon="10.9851865"><ele>27.0</ele><time>2026-03-28T16:40:26.545Z</time></trkpt><trkpt lat="44.6660298" lon="10.9854936"><ele>26.0</ele><time>2026-03-28T16:40:27.548Z</time></trkpt><trkpt lat="44.666098" lon="10.9858128"><ele>26.5</ele><time>2026-03-28T16:40:28.549Z</time></trkpt><trkpt lat="44.6661687" lon="10.9861387"><ele>27.0</ele><time>2026-03-28T16:40:29.542Z</time></trkpt><trkpt lat="44.6662382" lon="10.986471"><ele>26.5</ele><time>2026-03-28T16:40:30.541Z</time></trkpt><trkpt lat="44.6662968" lon="10.9868341"><ele>26.0</ele><time>2026-03-28T16:40:31.551Z</time></trkpt><trkpt lat="44.6663227" lon="10.9872005"><ele>27.0</ele><time>2026-03-28T16:40:32.537Z</time></trkpt><trkpt lat="44.6663347" lon="10.9875376"><ele>28.0</ele><time>2026-03-28T16:40:33.542Z</time></trkpt><trkpt lat="44.6663266" lon="10.9878501"><ele>28.0</ele><time>2026-03-28T16:40:34.54Z</time></trkpt><trkpt lat="44.6663319" lon="10.988148"><ele>28.0</ele><time>2026-03-28T16:40:35.544Z</time></trkpt><trkpt lat="44.6663185" lon="10.9884462"><ele>28.0</ele><time>2026-03-28T16:40:36.545Z</time></trkpt><trkpt lat="44.6662952" lon="10.9887322"><ele>28.333333333333336</ele><time>2026-03-28T16:40:37.538Z</time></trkpt><trkpt lat="44.6662733" lon="10.9889989"><ele>28.666666666666664</ele><time>2026-03-28T16:40:38.551Z</time></trkpt><trkpt lat="44.6662441" lon="10.9892931"><ele>29.0</ele><time>2026-03-28T16:40:39.546Z</time></trkpt><trkpt lat="44.6662224" lon="10.9896207"><ele>28.0</ele><time>2026-03-28T16:40:40.536Z</time></trkpt><trkpt lat="44.6661886" lon="10.9899601"><ele>27.0</ele><time>2026-03-28T16:40:41.539Z</time></trkpt><trkpt lat="44.6661364" lon="10.9902989"><ele>26.666666666666664</ele><time>2026-03-28T16:40:42.542Z</time></trkpt><trkpt lat="44.6660976" lon="10.9905977"><ele>26.333333333333332</ele><time>2026-03-28T16:40:43.546Z</time></trkpt><trkpt lat="44.666067" lon="10.9908907"><ele>26.0</ele><time>2026-03-28T16:40:44.545Z</time></trkpt><trkpt lat="44.6660386" lon="10.991168"><ele>26.666666666666664</ele><time>2026-03-28T16:40:45.554Z</time></trkpt><trkpt lat="44.6660178" lon="10.9914351"><ele>27.333333333333336</ele><time>2026-03-28T16:40:46.54Z</time></trkpt><trkpt lat="44.6660037" lon="10.9916999"><ele>28.0</ele><time>2026-03-28T16:40:47.54Z</time></trkpt><trkpt lat="44.6660131" lon="10.9919568"><ele>28.0</ele><time>2026-03-28T16:40:48.545Z</time></trkpt><trkpt lat="44.6660404" lon="10.9922226"><ele>28.0</ele><time>2026-03-28T16:40:49.546Z</time></trkpt><trkpt lat="44.6660772" lon="10.9924697"><ele>28.0</ele><time>2026-03-28T16:40:50.545Z</time></trkpt><trkpt lat="44.6661254" lon="10.992729"><ele>28.0</ele><time>2026-03-28T16:40:51.55Z</time></trkpt><trkpt lat="44.6661746" lon="10.9929824"><ele>28.0</ele><time>2026-03-28T16:40:52.55Z</time></trkpt><trkpt lat="44.6662497" lon="10.9932424"><ele>28.0</ele><time>2026-03-28T16:40:53.55Z</time></trkpt><trkpt lat="44.6663447" lon="10.9935066"><ele>27.666666666666668</ele><time>2026-03-28T16:40:54.552Z</time></trkpt><trkpt lat="44.6664399" lon="10.9937664"><ele>27.333333333333336</ele><time>2026-03-28T16:40:55.547Z</time></trkpt><trkpt lat="44.6665528" lon="10.9940053"><ele>27.0</ele><time>2026-03-28T16:40:56.553Z</time></trkpt><trkpt lat="44.6666925" lon="10.9942379"><ele>27.0</ele><time>2026-03-28T16:40:57.545Z</time></trkpt><trkpt lat="44.6668689" lon="10.9944907"><ele>27.0</ele><time>2026-03-28T16:40:58.534Z</time></trkpt><trkpt lat="44.6670402" lon="10.9947457"><ele>26.0</ele><time>2026-03-28T16:40:59.544Z</time></trkpt><trkpt lat="44.6671998" lon="10.994985"><ele>25.0</ele><time>2026-03-28T16:41:00.546Z</time></trkpt><trkpt lat="44.6673454" lon="10.9952132"><ele>24.666666666666668</ele><time>2026-03-28T16:41:01.542Z</time></trkpt><trkpt lat="44.6675018" lon="10.9954337"><ele>24.333333333333336</ele><time>2026-03-28T16:41:02.55Z</time></trkpt><trkpt lat="44.6676611" lon="10.9956631"><ele>24.0</ele><time>2026-03-28T16:41:03.54Z</time></trkpt><trkpt lat="44.6677862" lon="10.9958507"><ele>24.0</ele><time>2026-03-28T16:41:04.541Z</time></trkpt><trkpt lat="44.6679041" lon="10.9960335"><ele>24.0</ele><time>2026-03-28T16:41:05.539Z</time></trkpt><trkpt lat="44.6680296" lon="10.9962066"><ele>24.0</ele><time>2026-03-28T16:41:06.537Z</time></trkpt><trkpt lat="44.6681463" lon="10.9963805"><ele>24.0</ele><time>2026-03-28T16:41:07.544Z</time></trkpt><trkpt lat="44.6682711" lon="10.9965433"><ele>24.0</ele><time>2026-03-28T16:41:08.545Z</time></trkpt><trkpt lat="44.6683964" lon="10.9966953"><ele>24.0</ele><time>2026-03-28T16:41:09.548Z</time></trkpt><trkpt lat="44.668516" lon="10.9968488"><ele>25.333333333333336</ele><time>2026-03-28T16:41:10.539Z</time></trkpt><trkpt lat="44.6686324" lon="10.9970244"><ele>26.666666666666668</ele><time>2026-03-28T16:41:11.543Z</time></trkpt><trkpt lat="44.6687509" lon="10.9971845"><ele>28.0</ele><time>2026-03-28T16:41:12.541Z</time></trkpt><trkpt lat="44.6688605" lon="10.9973514"><ele>28.0</ele><time>2026-03-28T16:41:13.55Z</time></trkpt><trkpt lat="44.6689682" lon="10.997499"><ele>28.0</ele><time>2026-03-28T16:41:14.547Z</time></trkpt><trkpt lat="44.6690687" lon="10.9976639"><ele>28.0</ele><time>2026-03-28T16:41:15.547Z</time></trkpt><trkpt lat="44.669187" lon="10.99784"><ele>27.666666666666668</ele><time>2026-03-28T16:41:16.544Z</time></trkpt><trkpt lat="44.6693071" lon="10.9979978"><ele>27.333333333333336</ele><time>2026-03-28T16:41:17.546Z</time></trkpt><trkpt lat="44.6694225" lon="10.9981482"><ele>27.0</ele><time>2026-03-28T16:41:18.547Z</time></trkpt><trkpt lat="44.6695202" lon="10.9982951"><ele>27.25</ele><time>2026-03-28T16:41:19.551Z</time></trkpt><trkpt lat="44.6696223" lon="10.9984438"><ele>27.5</ele><time>2026-03-28T16:41:20.548Z</time></trkpt><trkpt lat="44.6697195" lon="10.9985979"><ele>27.75</ele><time>2026-03-28T16:41:21.55Z</time></trkpt><trkpt lat="44.6698188" lon="10.9987522"><ele>28.0</ele><time>2026-03-28T16:41:22.55Z</time></trkpt><trkpt lat="44.669912" lon="10.9989174"><ele>28.0</ele><time>2026-03-28T16:41:23.545Z</time></trkpt><trkpt lat="44.6700239" lon="10.9990685"><ele>28.0</ele><time>2026-03-28T16:41:24.552Z</time></trkpt><trkpt lat="44.6701295" lon="10.9992054"><ele>28.0</ele><time>2026-03-28T16:41:25.541Z</time></trkpt><trkpt lat="44.6702169" lon="10.9993549"><ele>28.0</ele><time>2026-03-28T16:41:26.543Z</time></trkpt><trkpt lat="44.670321" lon="10.9995397"><ele>27.333333333333336</ele><time>2026-03-28T16:41:27.534Z</time></trkpt><trkpt lat="44.6704203" lon="10.9997624"><ele>26.666666666666664</ele><time>2026-03-28T16:41:28.538Z</time></trkpt><trkpt lat="44.6704896" lon="10.9999867"><ele>26.0</ele><time>2026-03-28T16:41:29.542Z</time></trkpt><trkpt lat="44.6705494" lon="11.0002085"><ele>26.0</ele><time>2026-03-28T16:41:30.544Z</time></trkpt><trkpt lat="44.6706034" lon="11.0004267"><ele>26.0</ele><time>2026-03-28T16:41:31.548Z</time></trkpt><trkpt lat="44.6706485" lon="11.0006413"><ele>26.0</ele><time>2026-03-28T16:41:32.549Z</time></trkpt><trkpt lat="44.6707086" lon="11.0008477"><ele>26.0</ele><time>2026-03-28T16:41:33.552Z</time></trkpt><trkpt lat="44.6707639" lon="11.00107"><ele>26.0</ele><time>2026-03-28T16:41:34.545Z</time></trkpt><trkpt lat="44.6708223" lon="11.0012661"><ele>26.0</ele><time>2026-03-28T16:41:35.554Z</time></trkpt><trkpt lat="44.6708826" lon="11.0014745"><ele>26.0</ele><time>2026-03-28T16:41:36.542Z</time></trkpt><trkpt lat="44.670959" lon="11.0017093"><ele>26.0</ele><time>2026-03-28T16:41:37.536Z</time></trkpt><trkpt lat="44.6710414" lon="11.0019746"><ele>26.0</ele><time>2026-03-28T16:41:38.534Z</time></trkpt><trkpt lat="44.6711106" lon="11.0022771"><ele>25.0</ele><time>2026-03-28T16:41:39.551Z</time></trkpt><trkpt lat="44.671194" lon="11.0026034"><ele>24.0</ele><time>2026-03-28T16:41:40.538Z</time></trkpt><trkpt lat="44.6712791" lon="11.0029647"><ele>24.0</ele><time>2026-03-28T16:41:41.541Z</time></trkpt><trkpt lat="44.6713479" lon="11.003281"><ele>24.0</ele><time>2026-03-28T16:41:42.542Z</time></trkpt><trkpt lat="44.6714149" lon="11.0035983"><ele>24.666666666666664</ele><time>2026-03-28T16:41:43.548Z</time></trkpt><trkpt lat="44.671494" lon="11.0038738"><ele>25.333333333333332</ele><time>2026-03-28T16:41:44.545Z</time></trkpt><trkpt lat="44.6715499" lon="11.0041275"><ele>26.0</ele><time>2026-03-28T16:41:45.551Z</time></trkpt><trkpt lat="44.6716065" lon="11.0043728"><ele>26.0</ele><time>2026-03-28T16:41:46.549Z</time></trkpt><trkpt lat="44.6716602" lon="11.0045946"><ele>26.0</ele><time>2026-03-28T16:41:47.552Z</time></trkpt><trkpt lat="44.6717068" lon="11.0047969"><ele>26.0</ele><time>2026-03-28T16:41:48.555Z</time></trkpt><trkpt lat="44.6717531" lon="11.0050092"><ele>26.0</ele><time>2026-03-28T16:41:49.556Z</time></trkpt><trkpt lat="44.6718057" lon="11.0052281"><ele>26.0</ele><time>2026-03-28T16:41:50.56Z</time></trkpt><trkpt lat="44.6718564" lon="11.0054468"><ele>26.0</ele><time>2026-03-28T16:41:51.557Z</time></trkpt><trkpt lat="44.6719147" lon="11.0056601"><ele>25.666666666666664</ele><time>2026-03-28T16:41:52.557Z</time></trkpt><trkpt lat="44.6719649" lon="11.0058696"><ele>25.333333333333336</ele><time>2026-03-28T16:41:53.557Z</time></trkpt><trkpt lat="44.672011" lon="11.0060806"><ele>25.0</ele><time>2026-03-28T16:41:54.548Z</time></trkpt><trkpt lat="44.6720653" lon="11.0062968"><ele>25.0</ele><time>2026-03-28T16:41:55.553Z</time></trkpt><trkpt lat="44.6721224" lon="11.0064957"><ele>25.0</ele><time>2026-03-28T16:41:56.552Z</time></trkpt><trkpt lat="44.6721732" lon="11.0067127"><ele>25.0</ele><time>2026-03-28T16:41:57.553Z</time></trkpt><trkpt lat="44.67224" lon="11.006935"><ele>25.0</ele><time>2026-03-28T16:41:58.54Z</time></trkpt><trkpt lat="44.6723161" lon="11.007178"><ele>25.0</ele><time>2026-03-28T16:41:59.542Z</time></trkpt><trkpt lat="44.6723938" lon="11.0074533"><ele>25.0</ele><time>2026-03-28T16:42:00.549Z</time></trkpt><trkpt lat="44.6724449" lon="11.0077593"><ele>25.0</ele><time>2026-03-28T16:42:01.542Z</time></trkpt><trkpt lat="44.672503" lon="11.0080741"><ele>25.0</ele><time>2026-03-28T16:42:02.552Z</time></trkpt><trkpt lat="44.6725698" lon="11.0083959"><ele>24.666666666666668</ele><time>2026-03-28T16:42:03.551Z</time></trkpt><trkpt lat="44.6726283" lon="11.0086894"><ele>24.333333333333336</ele><time>2026-03-28T16:42:04.551Z</time></trkpt><trkpt lat="44.6726677" lon="11.0089579"><ele>24.0</ele><time>2026-03-28T16:42:05.545Z</time></trkpt><trkpt lat="44.6727266" lon="11.0092036"><ele>24.666666666666664</ele><time>2026-03-28T16:42:06.545Z</time></trkpt><trkpt lat="44.6728131" lon="11.0094187"><ele>25.333333333333332</ele><time>2026-03-28T16:42:07.535Z</time></trkpt><trkpt lat="44.6728763" lon="11.0096206"><ele>26.0</ele><time>2026-03-28T16:42:08.542Z</time></trkpt><trkpt lat="44.6729126" lon="11.0098363"><ele>25.666666666666664</ele><time>2026-03-28T16:42:09.544Z</time></trkpt><trkpt lat="44.6729385" lon="11.0100354"><ele>25.333333333333336</ele><time>2026-03-28T16:42:10.541Z</time></trkpt><trkpt lat="44.6729838" lon="11.0102235"><ele>25.0</ele><time>2026-03-28T16:42:11.539Z</time></trkpt><trkpt lat="44.6730748" lon="11.0104571"><ele>25.0</ele><time>2026-03-28T16:42:12.548Z</time></trkpt><trkpt lat="44.6731572" lon="11.0107169"><ele>25.0</ele><time>2026-03-28T16:42:13.546Z</time></trkpt><trkpt lat="44.6732283" lon="11.010997"><ele>25.0</ele><time>2026-03-28T16:42:14.533Z</time></trkpt><trkpt lat="44.6733065" lon="11.0112998"><ele>24.5</ele><time>2026-03-28T16:42:15.541Z</time></trkpt><trkpt lat="44.6733772" lon="11.0116275"><ele>24.0</ele><time>2026-03-28T16:42:16.549Z</time></trkpt><trkpt lat="44.6734612" lon="11.0119652"><ele>24.0</ele><time>2026-03-28T16:42:17.546Z</time></trkpt><trkpt lat="44.673542" lon="11.012283"><ele>24.0</ele><time>2026-03-28T16:42:18.542Z</time></trkpt><trkpt lat="44.6736329" lon="11.0125829"><ele>24.0</ele><time>2026-03-28T16:42:19.548Z</time></trkpt><trkpt lat="44.6736895" lon="11.0128683"><ele>24.0</ele><time>2026-03-28T16:42:20.538Z</time></trkpt><trkpt lat="44.6737533" lon="11.0131165"><ele>24.0</ele><time>2026-03-28T16:42:21.54Z</time></trkpt><trkpt lat="44.6738239" lon="11.0133532"><ele>24.0</ele><time>2026-03-28T16:42:22.538Z</time></trkpt><trkpt lat="44.673874" lon="11.0135796"><ele>24.0</ele><time>2026-03-28T16:42:23.544Z</time></trkpt><trkpt lat="44.6739165" lon="11.0137952"><ele>24.0</ele><time>2026-03-28T16:42:24.546Z</time></trkpt><trkpt lat="44.6739687" lon="11.0139942"><ele>24.333333333333336</ele><time>2026-03-28T16:42:25.547Z</time></trkpt><trkpt lat="44.6740172" lon="11.0142072"><ele>24.666666666666668</ele><time>2026-03-28T16:42:26.544Z</time></trkpt><trkpt lat="44.6740658" lon="11.0144122"><ele>25.0</ele><time>2026-03-28T16:42:27.545Z</time></trkpt><trkpt lat="44.6741111" lon="11.0146227"><ele>25.0</ele><time>2026-03-28T16:42:28.545Z</time></trkpt><trkpt lat="44.6741647" lon="11.0148448"><ele>25.0</ele><time>2026-03-28T16:42:29.546Z</time></trkpt><trkpt lat="44.6742233" lon="11.0150868"><ele>25.0</ele><time>2026-03-28T16:42:30.545Z</time></trkpt><trkpt lat="44.6743075" lon="11.0153572"><ele>25.0</ele><time>2026-03-28T16:42:31.545Z</time></trkpt><trkpt lat="44.674381" lon="11.0156498"><ele>25.0</ele><time>2026-03-28T16:42:32.544Z</time></trkpt><trkpt lat="44.674438" lon="11.0159437"><ele>25.0</ele><time>2026-03-28T16:42:33.553Z</time></trkpt><trkpt lat="44.6744933" lon="11.0162227"><ele>25.0</ele><time>2026-03-28T16:42:34.544Z</time></trkpt><trkpt lat="44.6745436" lon="11.0164832"><ele>25.0</ele><time>2026-03-28T16:42:35.544Z</time></trkpt><trkpt lat="44.6746064" lon="11.0167291"><ele>25.0</ele><time>2026-03-28T16:42:36.54Z</time></trkpt><trkpt lat="44.6746723" lon="11.016951"><ele>25.0</ele><time>2026-03-28T16:42:37.544Z</time></trkpt><trkpt lat="44.6747358" lon="11.0171666"><ele>25.0</ele><time>2026-03-28T16:42:38.541Z</time></trkpt><trkpt lat="44.6747918" lon="11.0173778"><ele>25.0</ele><time>2026-03-28T16:42:39.542Z</time></trkpt><trkpt lat="44.6748458" lon="11.0176008"><ele>24.666666666666668</ele><time>2026-03-28T16:42:40.541Z</time></trkpt><trkpt lat="44.6748968" lon="11.0178169"><ele>24.333333333333336</ele><time>2026-03-28T16:42:41.543Z</time></trkpt><trkpt lat="44.6749725" lon="11.0180501"><ele>24.0</ele><time>2026-03-28T16:42:42.535Z</time></trkpt><trkpt lat="44.6750417" lon="11.0183154"><ele>24.0</ele><time>2026-03-28T16:42:43.536Z</time></trkpt><trkpt lat="44.6751105" lon="11.0186093"><ele>24.0</ele><time>2026-03-28T16:42:44.529Z</time></trkpt><trkpt lat="44.6751861" lon="11.0189122"><ele>24.0</ele><time>2026-03-28T16:42:45.546Z</time></trkpt><trkpt lat="44.6752686" lon="11.0192308"><ele>24.5</ele><time>2026-03-28T16:42:46.541Z</time></trkpt><trkpt lat="44.6753344" lon="11.0195541"><ele>25.0</ele><time>2026-03-28T16:42:47.546Z</time></trkpt><trkpt lat="44.6753835" lon="11.0198693"><ele>24.666666666666668</ele><time>2026-03-28T16:42:48.544Z</time></trkpt><trkpt lat="44.6754631" lon="11.0201633"><ele>24.333333333333336</ele><time>2026-03-28T16:42:49.541Z</time></trkpt><trkpt lat="44.6755452" lon="11.0204461"><ele>24.0</ele><time>2026-03-28T16:42:50.547Z</time></trkpt><trkpt lat="44.6756087" lon="11.0207001"><ele>24.333333333333336</ele><time>2026-03-28T16:42:51.544Z</time></trkpt><trkpt lat="44.6756636" lon="11.0209426"><ele>24.666666666666668</ele><time>2026-03-28T16:42:52.548Z</time></trkpt><trkpt lat="44.6757282" lon="11.0211809"><ele>25.0</ele><time>2026-03-28T16:42:53.539Z</time></trkpt><trkpt lat="44.6757843" lon="11.0214079"><ele>25.0</ele><time>2026-03-28T16:42:54.538Z</time></trkpt><trkpt lat="44.6758455" lon="11.0216342"><ele>25.0</ele><time>2026-03-28T16:42:55.543Z</time></trkpt><trkpt lat="44.6758899" lon="11.0218418"><ele>25.0</ele><time>2026-03-28T16:42:56.541Z</time></trkpt><trkpt lat="44.6759318" lon="11.0220224"><ele>25.0</ele><time>2026-03-28T16:42:57.537Z</time></trkpt><trkpt lat="44.6759742" lon="11.0222032"><ele>25.0</ele><time>2026-03-28T16:42:58.524Z</time></trkpt><trkpt lat="44.6760237" lon="11.0223611"><ele>25.0</ele><time>2026-03-28T16:42:59.532Z</time></trkpt><trkpt lat="44.676069" lon="11.0225311"><ele>25.0</ele><time>2026-03-28T16:43:00.535Z</time></trkpt><trkpt lat="44.6761162" lon="11.0227319"><ele>24.0</ele><time>2026-03-28T16:43:01.535Z</time></trkpt><trkpt lat="44.6761906" lon="11.0229821"><ele>23.0</ele><time>2026-03-28T16:43:02.544Z</time></trkpt><trkpt lat="44.6762594" lon="11.0232402"><ele>22.0</ele><time>2026-03-28T16:43:03.529Z</time></trkpt><trkpt lat="44.676334" lon="11.0235264"><ele>21.666666666666664</ele><time>2026-03-28T16:43:04.529Z</time></trkpt><trkpt lat="44.6763983" lon="11.0238051"><ele>21.333333333333332</ele><time>2026-03-28T16:43:05.527Z</time></trkpt><trkpt lat="44.6764526" lon="11.0240553"><ele>21.0</ele><time>2026-03-28T16:43:06.533Z</time></trkpt><trkpt lat="44.6765149" lon="11.024318"><ele>21.666666666666668</ele><time>2026-03-28T16:43:07.53Z</time></trkpt><trkpt lat="44.6765815" lon="11.02458"><ele>22.333333333333336</ele><time>2026-03-28T16:43:08.541Z</time></trkpt><trkpt lat="44.6766556" lon="11.024861"><ele>23.0</ele><time>2026-03-28T16:43:09.533Z</time></trkpt><trkpt lat="44.676734" lon="11.025134"><ele>23.333333333333336</ele><time>2026-03-28T16:43:10.545Z</time></trkpt><trkpt lat="44.6768023" lon="11.0254139"><ele>23.666666666666668</ele><time>2026-03-28T16:43:11.545Z</time></trkpt><trkpt lat="44.6768691" lon="11.025691"><ele>24.0</ele><time>2026-03-28T16:43:12.539Z</time></trkpt><trkpt lat="44.6769172" lon="11.0259838"><ele>24.0</ele><time>2026-03-28T16:43:13.541Z</time></trkpt><trkpt lat="44.6769862" lon="11.0262757"><ele>24.0</ele><time>2026-03-28T16:43:14.54Z</time></trkpt><trkpt lat="44.6770412" lon="11.0265542"><ele>24.0</ele><time>2026-03-28T16:43:15.557Z</time></trkpt><trkpt lat="44.6771123" lon="11.0268365"><ele>24.333333333333336</ele><time>2026-03-28T16:43:16.546Z</time></trkpt><trkpt lat="44.6771739" lon="11.0271151"><ele>24.666666666666668</ele><time>2026-03-28T16:43:17.55Z</time></trkpt><trkpt lat="44.6772493" lon="11.0274056"><ele>25.0</ele><time>2026-03-28T16:43:18.551Z</time></trkpt><trkpt lat="44.6773213" lon="11.0276767"><ele>25.666666666666668</ele><time>2026-03-28T16:43:19.549Z</time></trkpt><trkpt lat="44.6773782" lon="11.0279611"><ele>26.333333333333336</ele><time>2026-03-28T16:43:20.556Z</time></trkpt><trkpt lat="44.6774359" lon="11.0282149"><ele>27.0</ele><time>2026-03-28T16:43:21.553Z</time></trkpt><trkpt lat="44.6775076" lon="11.0284712"><ele>27.0</ele><time>2026-03-28T16:43:22.553Z</time></trkpt><trkpt lat="44.6775609" lon="11.0286908"><ele>27.0</ele><time>2026-03-28T16:43:23.54Z</time></trkpt><trkpt lat="44.6776062" lon="11.0288971"><ele>27.0</ele><time>2026-03-28T16:43:24.54Z</time></trkpt><trkpt lat="44.6776395" lon="11.0290618"><ele>27.0</ele><time>2026-03-28T16:43:25.533Z</time></trkpt><trkpt lat="44.6776849" lon="11.0291885"><ele>26.6</ele><time>2026-03-28T16:43:26.537Z</time></trkpt><trkpt lat="44.6777159" lon="11.0293251"><ele>26.200000000000003</ele><time>2026-03-28T16:43:27.536Z</time></trkpt><trkpt lat="44.6777532" lon="11.0294451"><ele>25.8</ele><time>2026-03-28T16:43:28.535Z</time></trkpt><trkpt lat="44.6777725" lon="11.0295596"><ele>25.4</ele><time>2026-03-28T16:43:29.532Z</time></trkpt><trkpt lat="44.6777968" lon="11.0296505"><ele>25.0</ele><time>2026-03-28T16:43:30.532Z</time></trkpt><trkpt lat="44.6778425" lon="11.0298011"><ele>25.000000000000004</ele><time>2026-03-28T16:43:32.529Z</time></trkpt><trkpt lat="44.6778649" lon="11.0299027"><ele>25.0</ele><time>2026-03-28T16:43:33.546Z</time></trkpt><trkpt lat="44.6778902" lon="11.0300096"><ele>25.0</ele><time>2026-03-28T16:43:34.534Z</time></trkpt><trkpt lat="44.6779232" lon="11.0301099"><ele>25.0</ele><time>2026-03-28T16:43:35.534Z</time></trkpt><trkpt lat="44.6779582" lon="11.0302261"><ele>25.000000000000004</ele><time>2026-03-28T16:43:36.536Z</time></trkpt><trkpt lat="44.6780003" lon="11.0303725"><ele>25.0</ele><time>2026-03-28T16:43:37.539Z</time></trkpt><trkpt lat="44.6780373" lon="11.030534"><ele>25.0</ele><time>2026-03-28T16:43:38.535Z</time></trkpt><trkpt lat="44.6780663" lon="11.0306886"><ele>25.0</ele><time>2026-03-28T16:43:39.544Z</time></trkpt><trkpt lat="44.6781042" lon="11.030865"><ele>25.0</ele><time>2026-03-28T16:43:40.541Z</time></trkpt><trkpt lat="44.6781485" lon="11.0310478"><ele>25.0</ele><time>2026-03-28T16:43:41.545Z</time></trkpt><trkpt lat="44.6781967" lon="11.0312293"><ele>25.0</ele><time>2026-03-28T16:43:42.537Z</time></trkpt><trkpt lat="44.67824" lon="11.0314175"><ele>25.0</ele><time>2026-03-28T16:43:43.552Z</time></trkpt><trkpt lat="44.6782852" lon="11.0316097"><ele>25.0</ele><time>2026-03-28T16:43:44.54Z</time></trkpt><trkpt lat="44.6783099" lon="11.0318196"><ele>25.0</ele><time>2026-03-28T16:43:45.54Z</time></trkpt><trkpt lat="44.6783276" lon="11.0320329"><ele>25.0</ele><time>2026-03-28T16:43:46.544Z</time></trkpt><trkpt lat="44.6783493" lon="11.032243"><ele>25.0</ele><time>2026-03-28T16:43:47.541Z</time></trkpt><trkpt lat="44.6783518" lon="11.0324595"><ele>25.0</ele><time>2026-03-28T16:43:48.552Z</time></trkpt><trkpt lat="44.6783524" lon="11.0326739"><ele>25.25</ele><time>2026-03-28T16:43:49.544Z</time></trkpt><trkpt lat="44.6783575" lon="11.0328728"><ele>25.5</ele><time>2026-03-28T16:43:50.543Z</time></trkpt><trkpt lat="44.6783548" lon="11.0330773"><ele>25.75</ele><time>2026-03-28T16:43:51.544Z</time></trkpt><trkpt lat="44.6783545" lon="11.0332817"><ele>26.0</ele><time>2026-03-28T16:43:52.538Z</time></trkpt><trkpt lat="44.6783613" lon="11.0334822"><ele>26.0</ele><time>2026-03-28T16:43:53.538Z</time></trkpt><trkpt lat="44.6783606" lon="11.0336932"><ele>26.0</ele><time>2026-03-28T16:43:54.538Z</time></trkpt><trkpt lat="44.6783636" lon="11.0339033"><ele>26.0</ele><time>2026-03-28T16:43:55.538Z</time></trkpt><trkpt lat="44.6783631" lon="11.0340744"><ele>26.0</ele><time>2026-03-28T16:43:56.536Z</time></trkpt><trkpt lat="44.6783663" lon="11.0342241"><ele>25.5</ele><time>2026-03-28T16:43:57.533Z</time></trkpt><trkpt lat="44.6783581" lon="11.0343973"><ele>25.0</ele><time>2026-03-28T16:43:58.545Z</time></trkpt><trkpt lat="44.6783529" lon="11.0345762"><ele>24.5</ele><time>2026-03-28T16:43:59.538Z</time></trkpt><trkpt lat="44.6783442" lon="11.0347549"><ele>24.0</ele><time>2026-03-28T16:44:00.543Z</time></trkpt><trkpt lat="44.678333" lon="11.0349307"><ele>24.25</ele><time>2026-03-28T16:44:01.547Z</time></trkpt><trkpt lat="44.6783227" lon="11.0351093"><ele>24.5</ele><time>2026-03-28T16:44:02.536Z</time></trkpt><trkpt lat="44.6783357" lon="11.0352958"><ele>24.75</ele><time>2026-03-28T16:44:03.542Z</time></trkpt><trkpt lat="44.6783388" lon="11.0355105"><ele>25.0</ele><time>2026-03-28T16:44:04.531Z</time></trkpt><trkpt lat="44.6783389" lon="11.0357335"><ele>25.0</ele><time>2026-03-28T16:44:05.531Z</time></trkpt><trkpt lat="44.6783267" lon="11.0359351"><ele>25.0</ele><time>2026-03-28T16:44:06.538Z</time></trkpt><trkpt lat="44.6783318" lon="11.036149"><ele>25.0</ele><time>2026-03-28T16:44:07.537Z</time></trkpt><trkpt lat="44.6783298" lon="11.0363598"><ele>25.0</ele><time>2026-03-28T16:44:08.535Z</time></trkpt><trkpt lat="44.678322" lon="11.0365712"><ele>25.5</ele><time>2026-03-28T16:44:09.534Z</time></trkpt><trkpt lat="44.6783104" lon="11.0367695"><ele>26.0</ele><time>2026-03-28T16:44:10.537Z</time></trkpt><trkpt lat="44.6783101" lon="11.0369498"><ele>26.5</ele><time>2026-03-28T16:44:11.536Z</time></trkpt><trkpt lat="44.6782984" lon="11.0371292"><ele>27.0</ele><time>2026-03-28T16:44:12.536Z</time></trkpt><trkpt lat="44.6782985" lon="11.0372992"><ele>27.0</ele><time>2026-03-28T16:44:13.549Z</time></trkpt><trkpt lat="44.6782894" lon="11.0374362"><ele>27.0</ele><time>2026-03-28T16:44:14.537Z</time></trkpt><trkpt lat="44.6782867" lon="11.0375422"><ele>27.0</ele><time>2026-03-28T16:44:15.532Z</time></trkpt><trkpt lat="44.6782847" lon="11.037639"><ele>27.0</ele><time>2026-03-28T16:44:16.537Z</time></trkpt><trkpt lat="44.6782791" lon="11.0377606"><ele>27.0</ele><time>2026-03-28T16:44:18.54Z</time></trkpt><trkpt lat="44.6782819" lon="11.037852"><ele>27.0</ele><time>2026-03-28T16:44:40.553Z</time></trkpt><trkpt lat="44.6782757" lon="11.0380681"><ele>26.75</ele><time>2026-03-28T16:44:42.541Z</time></trkpt><trkpt lat="44.678272" lon="11.0382114"><ele>26.5</ele><time>2026-03-28T16:44:43.544Z</time></trkpt><trkpt lat="44.6782642" lon="11.0383987"><ele>26.25</ele><time>2026-03-28T16:44:44.544Z</time></trkpt><trkpt lat="44.6782562" lon="11.0385813"><ele>26.0</ele><time>2026-03-28T16:44:45.534Z</time></trkpt><trkpt lat="44.6782503" lon="11.0387787"><ele>26.0</ele><time>2026-03-28T16:44:46.531Z</time></trkpt><trkpt lat="44.6782496" lon="11.0389915"><ele>26.0</ele><time>2026-03-28T16:44:47.538Z</time></trkpt><trkpt lat="44.6782564" lon="11.0392134"><ele>26.0</ele><time>2026-03-28T16:44:48.535Z</time></trkpt><trkpt lat="44.6782497" lon="11.0394105"><ele>26.0</ele><time>2026-03-28T16:44:49.533Z</time></trkpt><trkpt lat="44.6782349" lon="11.039578"><ele>26.0</ele><time>2026-03-28T16:44:50.539Z</time></trkpt><trkpt lat="44.6782294" lon="11.0397326"><ele>26.0</ele><time>2026-03-28T16:44:51.53Z</time></trkpt><trkpt lat="44.6782362" lon="11.0398683"><ele>26.0</ele><time>2026-03-28T16:44:52.54Z</time></trkpt><trkpt lat="44.6782408" lon="11.0399959"><ele>26.0</ele><time>2026-03-28T16:44:53.55Z</time></trkpt><trkpt lat="44.6782469" lon="11.0401138"><ele>25.8</ele><time>2026-03-28T16:44:54.547Z</time></trkpt><trkpt lat="44.6782432" lon="11.0402218"><ele>25.6</ele><time>2026-03-28T16:44:55.553Z</time></trkpt><trkpt lat="44.6782477" lon="11.0403138"><ele>25.4</ele><time>2026-03-28T16:44:56.548Z</time></trkpt><trkpt lat="44.6782802" lon="11.0404755"><ele>25.2</ele><time>2026-03-28T16:44:58.549Z</time></trkpt><trkpt lat="44.6783321" lon="11.0406257"><ele>25.0</ele><time>2026-03-28T16:45:00.548Z</time></trkpt><trkpt lat="44.6784278" lon="11.0407544"><ele>25.0</ele><time>2026-03-28T16:45:02.531Z</time></trkpt><trkpt lat="44.6784797" lon="11.0408156"><ele>25.0</ele><time>2026-03-28T16:45:03.539Z</time></trkpt><trkpt lat="44.6785851" lon="11.0409184"><ele>25.0</ele><time>2026-03-28T16:45:05.54Z</time></trkpt><trkpt lat="44.6786797" lon="11.0410127"><ele>25.0</ele><time>2026-03-28T16:45:07.53Z</time></trkpt><trkpt lat="44.6787481" lon="11.0410862"><ele>25.0</ele><time>2026-03-28T16:45:09.53Z</time></trkpt><trkpt lat="44.67881" lon="11.0411672"><ele>25.000000000000004</ele><time>2026-03-28T16:45:11.524Z</time></trkpt><trkpt lat="44.6788461" lon="11.0412857"><ele>25.0</ele><time>2026-03-28T16:45:13.529Z</time></trkpt><trkpt lat="44.6788267" lon="11.041403"><ele>25.0</ele><time>2026-03-28T16:45:15.529Z</time></trkpt><trkpt lat="44.6788113" lon="11.04149"><ele>25.0</ele><time>2026-03-28T16:45:16.528Z</time></trkpt><trkpt lat="44.6787863" lon="11.0416588"><ele>25.000000000000004</ele><time>2026-03-28T16:45:18.531Z</time></trkpt><trkpt lat="44.6787606" lon="11.0417455"><ele>25.0</ele><time>2026-03-28T16:45:19.531Z</time></trkpt><trkpt lat="44.678737" lon="11.0418333"><ele>25.2</ele><time>2026-03-28T16:45:20.538Z</time></trkpt><trkpt lat="44.6787089" lon="11.0419412"><ele>25.4</ele><time>2026-03-28T16:45:21.529Z</time></trkpt><trkpt lat="44.6786817" lon="11.042064"><ele>25.6</ele><time>2026-03-28T16:45:22.535Z</time></trkpt><trkpt lat="44.6786485" lon="11.0422442"><ele>25.8</ele><time>2026-03-28T16:45:23.533Z</time></trkpt><trkpt lat="44.6786283" lon="11.0424314"><ele>26.0</ele><time>2026-03-28T16:45:24.534Z</time></trkpt><trkpt lat="44.6786171" lon="11.0425996"><ele>26.0</ele><time>2026-03-28T16:45:25.524Z</time></trkpt><trkpt lat="44.678607" lon="11.0427446"><ele>26.0</ele><time>2026-03-28T16:45:26.532Z</time></trkpt><trkpt lat="44.6785945" lon="11.0429139"><ele>26.0</ele><time>2026-03-28T16:45:27.53Z</time></trkpt><trkpt lat="44.67857" lon="11.0431026"><ele>26.0</ele><time>2026-03-28T16:45:28.527Z</time></trkpt><trkpt lat="44.6785412" lon="11.0432754"><ele>26.0</ele><time>2026-03-28T16:45:29.53Z</time></trkpt><trkpt lat="44.6785063" lon="11.043451"><ele>26.0</ele><time>2026-03-28T16:45:30.533Z</time></trkpt><trkpt lat="44.6784863" lon="11.0436273"><ele>26.0</ele><time>2026-03-28T16:45:31.542Z</time></trkpt><trkpt lat="44.6784621" lon="11.0438157"><ele>26.0</ele><time>2026-03-28T16:45:32.535Z</time></trkpt><trkpt lat="44.6784328" lon="11.0440098"><ele>26.25</ele><time>2026-03-28T16:45:33.547Z</time></trkpt><trkpt lat="44.6784127" lon="11.0441947"><ele>26.5</ele><time>2026-03-28T16:45:34.535Z</time></trkpt><trkpt lat="44.6783825" lon="11.0443835"><ele>26.75</ele><time>2026-03-28T16:45:35.536Z</time></trkpt><trkpt lat="44.6783661" lon="11.0445691"><ele>27.0</ele><time>2026-03-28T16:45:36.534Z</time></trkpt><trkpt lat="44.6783545" lon="11.044756"><ele>27.0</ele><time>2026-03-28T16:45:37.537Z</time></trkpt><trkpt lat="44.678323" lon="11.0449427"><ele>27.0</ele><time>2026-03-28T16:45:38.532Z</time></trkpt><trkpt lat="44.6782987" lon="11.0451299"><ele>27.0</ele><time>2026-03-28T16:45:39.537Z</time></trkpt><trkpt lat="44.6782775" lon="11.045321"><ele>27.0</ele><time>2026-03-28T16:45:40.537Z</time></trkpt><trkpt lat="44.6782463" lon="11.0455115"><ele>27.0</ele><time>2026-03-28T16:45:41.543Z</time></trkpt><trkpt lat="44.6782165" lon="11.0457149"><ele>27.0</ele><time>2026-03-28T16:45:42.538Z</time></trkpt><trkpt lat="44.6781819" lon="11.0459102"><ele>27.0</ele><time>2026-03-28T16:45:43.54Z</time></trkpt><trkpt lat="44.6781387" lon="11.0461077"><ele>27.0</ele><time>2026-03-28T16:45:44.531Z</time></trkpt><trkpt lat="44.6780952" lon="11.04628"><ele>26.75</ele><time>2026-03-28T16:45:45.536Z</time></trkpt><trkpt lat="44.6780444" lon="11.046434"><ele>26.5</ele><time>2026-03-28T16:45:46.536Z</time></trkpt><trkpt lat="44.6779966" lon="11.0465986"><ele>26.25</ele><time>2026-03-28T16:45:47.534Z</time></trkpt><trkpt lat="44.6779389" lon="11.0467779"><ele>26.0</ele><time>2026-03-28T16:45:48.542Z</time></trkpt><trkpt lat="44.6778443" lon="11.0469684"><ele>26.0</ele><time>2026-03-28T16:45:49.535Z</time></trkpt><trkpt lat="44.6777515" lon="11.0471619"><ele>26.0</ele><time>2026-03-28T16:45:50.531Z</time></trkpt><trkpt lat="44.6776674" lon="11.0473661"><ele>26.0</ele><time>2026-03-28T16:45:51.529Z</time></trkpt><trkpt lat="44.6775804" lon="11.0475601"><ele>26.0</ele><time>2026-03-28T16:45:52.534Z</time></trkpt><trkpt lat="44.6774937" lon="11.0477479"><ele>26.0</ele><time>2026-03-28T16:45:53.531Z</time></trkpt><trkpt lat="44.6774177" lon="11.0479518"><ele>26.0</ele><time>2026-03-28T16:45:54.532Z</time></trkpt><trkpt lat="44.6773417" lon="11.0481704"><ele>26.0</ele><time>2026-03-28T16:45:55.532Z</time></trkpt><trkpt lat="44.6772612" lon="11.0484136"><ele>26.0</ele><time>2026-03-28T16:45:56.531Z</time></trkpt><trkpt lat="44.6772006" lon="11.0486466"><ele>26.0</ele><time>2026-03-28T16:45:57.532Z</time></trkpt><trkpt lat="44.677126" lon="11.0488814"><ele>26.0</ele><time>2026-03-28T16:45:58.537Z</time></trkpt><trkpt lat="44.6770528" lon="11.0491241"><ele>26.0</ele><time>2026-03-28T16:45:59.534Z</time></trkpt><trkpt lat="44.6769721" lon="11.0493634"><ele>26.0</ele><time>2026-03-28T16:46:00.531Z</time></trkpt><trkpt lat="44.67691" lon="11.0496099"><ele>25.666666666666664</ele><time>2026-03-28T16:46:01.545Z</time></trkpt><trkpt lat="44.6768405" lon="11.0498702"><ele>25.333333333333336</ele><time>2026-03-28T16:46:02.534Z</time></trkpt><trkpt lat="44.676765" lon="11.0501345"><ele>25.0</ele><time>2026-03-28T16:46:03.537Z</time></trkpt><trkpt lat="44.6766872" lon="11.0504002"><ele>24.666666666666668</ele><time>2026-03-28T16:46:04.53Z</time></trkpt><trkpt lat="44.676612" lon="11.0506738"><ele>24.333333333333336</ele><time>2026-03-28T16:46:05.538Z</time></trkpt><trkpt lat="44.6765363" lon="11.050954"><ele>24.0</ele><time>2026-03-28T16:46:06.538Z</time></trkpt><trkpt lat="44.6764424" lon="11.0512474"><ele>24.0</ele><time>2026-03-28T16:46:07.54Z</time></trkpt><trkpt lat="44.6763677" lon="11.0515414"><ele>24.0</ele><time>2026-03-28T16:46:08.549Z</time></trkpt><trkpt lat="44.6762731" lon="11.0518449"><ele>24.0</ele><time>2026-03-28T16:46:09.543Z</time></trkpt><trkpt lat="44.6761838" lon="11.0521486"><ele>24.0</ele><time>2026-03-28T16:46:10.545Z</time></trkpt><trkpt lat="44.6760933" lon="11.0524697"><ele>24.0</ele><time>2026-03-28T16:46:11.544Z</time></trkpt><trkpt lat="44.6760016" lon="11.052792"><ele>24.0</ele><time>2026-03-28T16:46:12.549Z</time></trkpt><trkpt lat="44.6759041" lon="11.0531231"><ele>23.0</ele><time>2026-03-28T16:46:13.543Z</time></trkpt><trkpt lat="44.675812" lon="11.0534641"><ele>22.0</ele><time>2026-03-28T16:46:14.541Z</time></trkpt><trkpt lat="44.6757009" lon="11.0537932"><ele>22.0</ele><time>2026-03-28T16:46:15.542Z</time></trkpt><trkpt lat="44.6756055" lon="11.0541382"><ele>22.0</ele><time>2026-03-28T16:46:16.544Z</time></trkpt><trkpt lat="44.6755042" lon="11.054455"><ele>22.0</ele><time>2026-03-28T16:46:17.543Z</time></trkpt><trkpt lat="44.6754249" lon="11.0547697"><ele>22.0</ele><time>2026-03-28T16:46:18.541Z</time></trkpt></trkseg></trk></gpx>